<?xml version="1.0" encoding="UTF-8" standalone="no" ?>
<gpx xmlns="http://www.topografix.com/GPX/1/1" xmlns:xsi="http://www.w3.org/2001/XMLSchema-instance" xsi:schemaLocation="http://www.topografix.com/GPX/1/1 http://www.topografix.com/GPX/1/1/gpx.xsd" version="1.1" creator="VisuGPX - https://www.visugpx.com">
  <metadata>
    <name>VTT - Transvésubienne 2009</name>
    <desc><![CDATA[Relevé terrain - Pierre* - ASCVTT - Transvésubienne 2009]]></desc>
  </metadata>
  <trk>
    <name><![CDATA[Transvesubienne_2009]]></name>
    <trkseg>
      <trkpt lat="44.07069" lon="7.2231">
        <ele>1506.0424805</ele>
        <time>2009-05-31T05:00:18Z</time>
      </trkpt>
      <trkpt lat="44.07069" lon="7.22309">
        <ele>1506.0424805</ele>
        <time>2009-05-31T05:00:19Z</time>
      </trkpt>
      <trkpt lat="44.07069" lon="7.22309">
        <ele>1506.5231934</ele>
        <time>2009-05-31T05:00:20Z</time>
      </trkpt>
      <trkpt lat="44.07069" lon="7.22309">
        <ele>1506.0424805</ele>
        <time>2009-05-31T05:01:14Z</time>
      </trkpt>
      <trkpt lat="44.07068" lon="7.22312">
        <ele>1505.5620117</ele>
        <time>2009-05-31T05:01:53Z</time>
      </trkpt>
      <trkpt lat="44.07069" lon="7.22313">
        <ele>1506.0424805</ele>
        <time>2009-05-31T05:02:38Z</time>
      </trkpt>
      <trkpt lat="44.07066" lon="7.22326">
        <ele>1505.0812988</ele>
        <time>2009-05-31T05:02:43Z</time>
      </trkpt>
      <trkpt lat="44.07064" lon="7.22332">
        <ele>1504.6005859</ele>
        <time>2009-05-31T05:02:44Z</time>
      </trkpt>
      <trkpt lat="44.07057" lon="7.22362">
        <ele>1504.1201172</ele>
        <time>2009-05-31T05:02:49Z</time>
      </trkpt>
      <trkpt lat="44.07055" lon="7.2238">
        <ele>1503.1586914</ele>
        <time>2009-05-31T05:02:52Z</time>
      </trkpt>
      <trkpt lat="44.07052" lon="7.22396">
        <ele>1501.236084</ele>
        <time>2009-05-31T05:02:55Z</time>
      </trkpt>
      <trkpt lat="44.07049" lon="7.2241">
        <ele>1500.2749023</ele>
        <time>2009-05-31T05:02:57Z</time>
      </trkpt>
      <trkpt lat="44.07045" lon="7.22432">
        <ele>1498.8325195</ele>
        <time>2009-05-31T05:03:01Z</time>
      </trkpt>
      <trkpt lat="44.0704" lon="7.22444">
        <ele>1497.390625</ele>
        <time>2009-05-31T05:03:06Z</time>
      </trkpt>
      <trkpt lat="44.07037" lon="7.22458">
        <ele>1495.4680176</ele>
        <time>2009-05-31T05:03:13Z</time>
      </trkpt>
      <trkpt lat="44.07035" lon="7.22468">
        <ele>1494.5065918</ele>
        <time>2009-05-31T05:03:16Z</time>
      </trkpt>
      <trkpt lat="44.07035" lon="7.2248">
        <ele>1492.1035156</ele>
        <time>2009-05-31T05:03:18Z</time>
      </trkpt>
      <trkpt lat="44.07037" lon="7.22518">
        <ele>1486.8161621</ele>
        <time>2009-05-31T05:03:24Z</time>
      </trkpt>
      <trkpt lat="44.07038" lon="7.22524">
        <ele>1486.8161621</ele>
        <time>2009-05-31T05:03:25Z</time>
      </trkpt>
      <trkpt lat="44.07039" lon="7.22536">
        <ele>1484.8937988</ele>
        <time>2009-05-31T05:03:29Z</time>
      </trkpt>
      <trkpt lat="44.0704" lon="7.22541">
        <ele>1484.4130859</ele>
        <time>2009-05-31T05:03:34Z</time>
      </trkpt>
      <trkpt lat="44.0704" lon="7.22545">
        <ele>1483.451416</ele>
        <time>2009-05-31T05:03:38Z</time>
      </trkpt>
      <trkpt lat="44.07033" lon="7.22554">
        <ele>1481.5288086</ele>
        <time>2009-05-31T05:03:42Z</time>
      </trkpt>
      <trkpt lat="44.07024" lon="7.22562">
        <ele>1480.0869141</ele>
        <time>2009-05-31T05:03:44Z</time>
      </trkpt>
      <trkpt lat="44.07006" lon="7.22589">
        <ele>1477.6835938</ele>
        <time>2009-05-31T05:03:48Z</time>
      </trkpt>
      <trkpt lat="44.07003" lon="7.22599">
        <ele>1475.7609863</ele>
        <time>2009-05-31T05:03:49Z</time>
      </trkpt>
      <trkpt lat="44.06988" lon="7.22644">
        <ele>1470.473877</ele>
        <time>2009-05-31T05:03:53Z</time>
      </trkpt>
      <trkpt lat="44.0698" lon="7.22668">
        <ele>1465.6672363</ele>
        <time>2009-05-31T05:03:55Z</time>
      </trkpt>
      <trkpt lat="44.06973" lon="7.22691">
        <ele>1462.3024902</ele>
        <time>2009-05-31T05:03:57Z</time>
      </trkpt>
      <trkpt lat="44.0696" lon="7.22726">
        <ele>1458.9379883</ele>
        <time>2009-05-31T05:04:00Z</time>
      </trkpt>
      <trkpt lat="44.06947" lon="7.2276">
        <ele>1455.0927734</ele>
        <time>2009-05-31T05:04:03Z</time>
      </trkpt>
      <trkpt lat="44.06932" lon="7.22791">
        <ele>1451.7280273</ele>
        <time>2009-05-31T05:04:06Z</time>
      </trkpt>
      <trkpt lat="44.06923" lon="7.22811">
        <ele>1449.324707</ele>
        <time>2009-05-31T05:04:08Z</time>
      </trkpt>
      <trkpt lat="44.06903" lon="7.22837">
        <ele>1447.4020996</ele>
        <time>2009-05-31T05:04:12Z</time>
      </trkpt>
      <trkpt lat="44.06876" lon="7.22852">
        <ele>1444.0375977</ele>
        <time>2009-05-31T05:04:16Z</time>
      </trkpt>
      <trkpt lat="44.06847" lon="7.22857">
        <ele>1445.9602051</ele>
        <time>2009-05-31T05:04:21Z</time>
      </trkpt>
      <trkpt lat="44.06823" lon="7.22859">
        <ele>1447.4020996</ele>
        <time>2009-05-31T05:04:27Z</time>
      </trkpt>
      <trkpt lat="44.06797" lon="7.22859">
        <ele>1448.3632812</ele>
        <time>2009-05-31T05:04:35Z</time>
      </trkpt>
      <trkpt lat="44.0677" lon="7.22852">
        <ele>1449.324707</ele>
        <time>2009-05-31T05:04:43Z</time>
      </trkpt>
      <trkpt lat="44.0675" lon="7.22844">
        <ele>1450.2861328</ele>
        <time>2009-05-31T05:04:50Z</time>
      </trkpt>
      <trkpt lat="44.06733" lon="7.22835">
        <ele>1450.7666016</ele>
        <time>2009-05-31T05:04:57Z</time>
      </trkpt>
      <trkpt lat="44.06716" lon="7.22825">
        <ele>1451.7280273</ele>
        <time>2009-05-31T05:05:05Z</time>
      </trkpt>
      <trkpt lat="44.06694" lon="7.22813">
        <ele>1454.6120605</ele>
        <time>2009-05-31T05:05:15Z</time>
      </trkpt>
      <trkpt lat="44.06681" lon="7.22807">
        <ele>1457.0153809</ele>
        <time>2009-05-31T05:05:21Z</time>
      </trkpt>
      <trkpt lat="44.06665" lon="7.22798">
        <ele>1458.4572754</ele>
        <time>2009-05-31T05:05:29Z</time>
      </trkpt>
      <trkpt lat="44.0665" lon="7.22791">
        <ele>1459.4187012</ele>
        <time>2009-05-31T05:05:37Z</time>
      </trkpt>
      <trkpt lat="44.06637" lon="7.22783">
        <ele>1460.3798828</ele>
        <time>2009-05-31T05:05:45Z</time>
      </trkpt>
      <trkpt lat="44.06628" lon="7.22773">
        <ele>1462.3024902</ele>
        <time>2009-05-31T05:05:52Z</time>
      </trkpt>
      <trkpt lat="44.06621" lon="7.22765">
        <ele>1465.1865234</ele>
        <time>2009-05-31T05:05:58Z</time>
      </trkpt>
      <trkpt lat="44.06617" lon="7.22759">
        <ele>1466.628418</ele>
        <time>2009-05-31T05:06:02Z</time>
      </trkpt>
      <trkpt lat="44.06609" lon="7.22751">
        <ele>1467.5895996</ele>
        <time>2009-05-31T05:06:09Z</time>
      </trkpt>
      <trkpt lat="44.06599" lon="7.22748">
        <ele>1468.5512695</ele>
        <time>2009-05-31T05:06:16Z</time>
      </trkpt>
      <trkpt lat="44.06587" lon="7.22746">
        <ele>1472.3964844</ele>
        <time>2009-05-31T05:06:25Z</time>
      </trkpt>
      <trkpt lat="44.06585" lon="7.22746">
        <ele>1471.9157715</ele>
        <time>2009-05-31T05:06:26Z</time>
      </trkpt>
      <trkpt lat="44.06576" lon="7.22742">
        <ele>1473.3579102</ele>
        <time>2009-05-31T05:06:34Z</time>
      </trkpt>
      <trkpt lat="44.06565" lon="7.2274">
        <ele>1474.3190918</ele>
        <time>2009-05-31T05:06:41Z</time>
      </trkpt>
      <trkpt lat="44.06563" lon="7.22738">
        <ele>1475.7609863</ele>
        <time>2009-05-31T05:06:43Z</time>
      </trkpt>
      <trkpt lat="44.06556" lon="7.22729">
        <ele>1476.2416992</ele>
        <time>2009-05-31T05:06:50Z</time>
      </trkpt>
      <trkpt lat="44.06552" lon="7.22714">
        <ele>1477.6835938</ele>
        <time>2009-05-31T05:06:56Z</time>
      </trkpt>
      <trkpt lat="44.06544" lon="7.22699">
        <ele>1477.6835938</ele>
        <time>2009-05-31T05:07:02Z</time>
      </trkpt>
      <trkpt lat="44.06532" lon="7.22682">
        <ele>1478.6450195</ele>
        <time>2009-05-31T05:07:10Z</time>
      </trkpt>
      <trkpt lat="44.06521" lon="7.22663">
        <ele>1479.1254883</ele>
        <time>2009-05-31T05:07:18Z</time>
      </trkpt>
      <trkpt lat="44.06511" lon="7.22647">
        <ele>1479.1254883</ele>
        <time>2009-05-31T05:07:26Z</time>
      </trkpt>
      <trkpt lat="44.06508" lon="7.22639">
        <ele>1479.6062012</ele>
        <time>2009-05-31T05:07:29Z</time>
      </trkpt>
      <trkpt lat="44.06513" lon="7.22631">
        <ele>1482.0095215</ele>
        <time>2009-05-31T05:07:33Z</time>
      </trkpt>
      <trkpt lat="44.06515" lon="7.22632">
        <ele>1482.0095215</ele>
        <time>2009-05-31T05:07:34Z</time>
      </trkpt>
      <trkpt lat="44.06519" lon="7.22635">
        <ele>1482.4902344</ele>
        <time>2009-05-31T05:07:36Z</time>
      </trkpt>
      <trkpt lat="44.06532" lon="7.22649">
        <ele>1483.451416</ele>
        <time>2009-05-31T05:07:43Z</time>
      </trkpt>
      <trkpt lat="44.0654" lon="7.22643">
        <ele>1484.8937988</ele>
        <time>2009-05-31T05:07:47Z</time>
      </trkpt>
      <trkpt lat="44.06537" lon="7.22635">
        <ele>1486.3356934</ele>
        <time>2009-05-31T05:07:50Z</time>
      </trkpt>
      <trkpt lat="44.06523" lon="7.22615">
        <ele>1487.7775879</ele>
        <time>2009-05-31T05:07:59Z</time>
      </trkpt>
      <trkpt lat="44.06519" lon="7.22609">
        <ele>1488.7390137</ele>
        <time>2009-05-31T05:08:02Z</time>
      </trkpt>
      <trkpt lat="44.06509" lon="7.2259">
        <ele>1490.661377</ele>
        <time>2009-05-31T05:08:11Z</time>
      </trkpt>
      <trkpt lat="44.06499" lon="7.22571">
        <ele>1492.5842285</ele>
        <time>2009-05-31T05:08:19Z</time>
      </trkpt>
      <trkpt lat="44.06488" lon="7.22552">
        <ele>1494.026123</ele>
        <time>2009-05-31T05:08:28Z</time>
      </trkpt>
      <trkpt lat="44.06477" lon="7.22537">
        <ele>1495.4680176</ele>
        <time>2009-05-31T05:08:36Z</time>
      </trkpt>
      <trkpt lat="44.06466" lon="7.22523">
        <ele>1498.3518066</ele>
        <time>2009-05-31T05:08:44Z</time>
      </trkpt>
      <trkpt lat="44.06459" lon="7.22512">
        <ele>1499.3132324</ele>
        <time>2009-05-31T05:08:50Z</time>
      </trkpt>
      <trkpt lat="44.06448" lon="7.22494">
        <ele>1500.7553711</ele>
        <time>2009-05-31T05:09:00Z</time>
      </trkpt>
      <trkpt lat="44.06439" lon="7.22479">
        <ele>1502.6779785</ele>
        <time>2009-05-31T05:09:08Z</time>
      </trkpt>
      <trkpt lat="44.06429" lon="7.2246">
        <ele>1504.6005859</ele>
        <time>2009-05-31T05:09:17Z</time>
      </trkpt>
      <trkpt lat="44.06421" lon="7.22441">
        <ele>1506.5231934</ele>
        <time>2009-05-31T05:09:26Z</time>
      </trkpt>
      <trkpt lat="44.06414" lon="7.22425">
        <ele>1507.965332</ele>
        <time>2009-05-31T05:09:34Z</time>
      </trkpt>
      <trkpt lat="44.06406" lon="7.22414">
        <ele>1509.4072266</ele>
        <time>2009-05-31T05:09:41Z</time>
      </trkpt>
      <trkpt lat="44.06406" lon="7.22406">
        <ele>1510.3684082</ele>
        <time>2009-05-31T05:09:45Z</time>
      </trkpt>
      <trkpt lat="44.06406" lon="7.22399">
        <ele>1511.329834</ele>
        <time>2009-05-31T05:09:48Z</time>
      </trkpt>
      <trkpt lat="44.06407" lon="7.22391">
        <ele>1512.7717285</ele>
        <time>2009-05-31T05:09:53Z</time>
      </trkpt>
      <trkpt lat="44.06404" lon="7.2239">
        <ele>1513.7329102</ele>
        <time>2009-05-31T05:09:55Z</time>
      </trkpt>
      <trkpt lat="44.06405" lon="7.22379">
        <ele>1514.213623</ele>
        <time>2009-05-31T05:10:01Z</time>
      </trkpt>
      <trkpt lat="44.06408" lon="7.22366">
        <ele>1516.1364746</ele>
        <time>2009-05-31T05:10:07Z</time>
      </trkpt>
      <trkpt lat="44.06403" lon="7.22352">
        <ele>1519.0205078</ele>
        <time>2009-05-31T05:10:17Z</time>
      </trkpt>
      <trkpt lat="44.06397" lon="7.22344">
        <ele>1520.4624023</ele>
        <time>2009-05-31T05:10:24Z</time>
      </trkpt>
      <trkpt lat="44.06391" lon="7.22333">
        <ele>1521.9042969</ele>
        <time>2009-05-31T05:10:32Z</time>
      </trkpt>
      <trkpt lat="44.06387" lon="7.22327">
        <ele>1523.3464355</ele>
        <time>2009-05-31T05:10:37Z</time>
      </trkpt>
      <trkpt lat="44.06382" lon="7.22308">
        <ele>1526.2302246</ele>
        <time>2009-05-31T05:10:47Z</time>
      </trkpt>
      <trkpt lat="44.06378" lon="7.22291">
        <ele>1527.1916504</ele>
        <time>2009-05-31T05:10:56Z</time>
      </trkpt>
      <trkpt lat="44.06376" lon="7.22273">
        <ele>1528.152832</ele>
        <time>2009-05-31T05:11:05Z</time>
      </trkpt>
      <trkpt lat="44.06374" lon="7.2227">
        <ele>1529.5947266</ele>
        <time>2009-05-31T05:11:07Z</time>
      </trkpt>
      <trkpt lat="44.06372" lon="7.22254">
        <ele>1531.9980469</ele>
        <time>2009-05-31T05:11:15Z</time>
      </trkpt>
      <trkpt lat="44.06371" lon="7.22252">
        <ele>1531.9980469</ele>
        <time>2009-05-31T05:11:16Z</time>
      </trkpt>
      <trkpt lat="44.06368" lon="7.22238">
        <ele>1533.9208984</ele>
        <time>2009-05-31T05:11:23Z</time>
      </trkpt>
      <trkpt lat="44.06368" lon="7.22232">
        <ele>1534.4016113</ele>
        <time>2009-05-31T05:11:26Z</time>
      </trkpt>
      <trkpt lat="44.06362" lon="7.22216">
        <ele>1535.8435059</ele>
        <time>2009-05-31T05:11:34Z</time>
      </trkpt>
      <trkpt lat="44.0636" lon="7.22199">
        <ele>1537.2854004</ele>
        <time>2009-05-31T05:11:42Z</time>
      </trkpt>
      <trkpt lat="44.06357" lon="7.22185">
        <ele>1539.2080078</ele>
        <time>2009-05-31T05:11:49Z</time>
      </trkpt>
      <trkpt lat="44.06357" lon="7.22182">
        <ele>1540.1694336</ele>
        <time>2009-05-31T05:11:51Z</time>
      </trkpt>
      <trkpt lat="44.06354" lon="7.22167">
        <ele>1542.5727539</ele>
        <time>2009-05-31T05:12:00Z</time>
      </trkpt>
      <trkpt lat="44.06353" lon="7.22163">
        <ele>1544.0146484</ele>
        <time>2009-05-31T05:12:02Z</time>
      </trkpt>
      <trkpt lat="44.06351" lon="7.22153">
        <ele>1546.4179688</ele>
        <time>2009-05-31T05:12:08Z</time>
      </trkpt>
      <trkpt lat="44.06348" lon="7.22135">
        <ele>1548.8212891</ele>
        <time>2009-05-31T05:12:18Z</time>
      </trkpt>
      <trkpt lat="44.06347" lon="7.22132">
        <ele>1549.302002</ele>
        <time>2009-05-31T05:12:20Z</time>
      </trkpt>
      <trkpt lat="44.06348" lon="7.22122">
        <ele>1549.7827148</ele>
        <time>2009-05-31T05:12:27Z</time>
      </trkpt>
      <trkpt lat="44.06346" lon="7.2211">
        <ele>1552.185791</ele>
        <time>2009-05-31T05:12:35Z</time>
      </trkpt>
      <trkpt lat="44.06344" lon="7.22096">
        <ele>1554.1086426</ele>
        <time>2009-05-31T05:12:44Z</time>
      </trkpt>
      <trkpt lat="44.06344" lon="7.22094">
        <ele>1555.5505371</ele>
        <time>2009-05-31T05:12:46Z</time>
      </trkpt>
      <trkpt lat="44.06342" lon="7.22084">
        <ele>1557.9538574</ele>
        <time>2009-05-31T05:12:55Z</time>
      </trkpt>
      <trkpt lat="44.06341" lon="7.22075">
        <ele>1558.9150391</ele>
        <time>2009-05-31T05:13:04Z</time>
      </trkpt>
      <trkpt lat="44.06339" lon="7.22071">
        <ele>1560.3569336</ele>
        <time>2009-05-31T05:13:08Z</time>
      </trkpt>
      <trkpt lat="44.06337" lon="7.22067">
        <ele>1561.7990723</ele>
        <time>2009-05-31T05:13:11Z</time>
      </trkpt>
      <trkpt lat="44.06333" lon="7.22065">
        <ele>1563.2409668</ele>
        <time>2009-05-31T05:13:17Z</time>
      </trkpt>
      <trkpt lat="44.06328" lon="7.22068">
        <ele>1563.2409668</ele>
        <time>2009-05-31T05:13:25Z</time>
      </trkpt>
      <trkpt lat="44.06322" lon="7.2208">
        <ele>1564.2023926</ele>
        <time>2009-05-31T05:13:32Z</time>
      </trkpt>
      <trkpt lat="44.06314" lon="7.22097">
        <ele>1566.125</ele>
        <time>2009-05-31T05:13:40Z</time>
      </trkpt>
      <trkpt lat="44.06307" lon="7.22106">
        <ele>1567.5668945</ele>
        <time>2009-05-31T05:13:47Z</time>
      </trkpt>
      <trkpt lat="44.06297" lon="7.22115">
        <ele>1569.0090332</ele>
        <time>2009-05-31T05:13:55Z</time>
      </trkpt>
      <trkpt lat="44.06289" lon="7.22126">
        <ele>1570.4509277</ele>
        <time>2009-05-31T05:14:03Z</time>
      </trkpt>
      <trkpt lat="44.06282" lon="7.22136">
        <ele>1573.8154297</ele>
        <time>2009-05-31T05:14:10Z</time>
      </trkpt>
      <trkpt lat="44.06274" lon="7.22149">
        <ele>1574.7768555</ele>
        <time>2009-05-31T05:14:19Z</time>
      </trkpt>
      <trkpt lat="44.06265" lon="7.22165">
        <ele>1576.6994629</ele>
        <time>2009-05-31T05:14:29Z</time>
      </trkpt>
      <trkpt lat="44.06258" lon="7.22176">
        <ele>1578.6220703</ele>
        <time>2009-05-31T05:14:37Z</time>
      </trkpt>
      <trkpt lat="44.06253" lon="7.22183">
        <ele>1581.0256348</ele>
        <time>2009-05-31T05:14:43Z</time>
      </trkpt>
      <trkpt lat="44.06247" lon="7.22191">
        <ele>1582.947998</ele>
        <time>2009-05-31T05:14:50Z</time>
      </trkpt>
      <trkpt lat="44.06239" lon="7.22205">
        <ele>1585.8320312</ele>
        <time>2009-05-31T05:14:59Z</time>
      </trkpt>
      <trkpt lat="44.0623" lon="7.2222">
        <ele>1587.2739258</ele>
        <time>2009-05-31T05:15:08Z</time>
      </trkpt>
      <trkpt lat="44.06223" lon="7.22229">
        <ele>1589.1965332</ele>
        <time>2009-05-31T05:15:16Z</time>
      </trkpt>
      <trkpt lat="44.06212" lon="7.2224">
        <ele>1592.5612793</ele>
        <time>2009-05-31T05:15:25Z</time>
      </trkpt>
      <trkpt lat="44.06201" lon="7.22253">
        <ele>1593.041748</ele>
        <time>2009-05-31T05:15:34Z</time>
      </trkpt>
      <trkpt lat="44.06186" lon="7.22262">
        <ele>1594.4836426</ele>
        <time>2009-05-31T05:15:44Z</time>
      </trkpt>
      <trkpt lat="44.06175" lon="7.22267">
        <ele>1594.9643555</ele>
        <time>2009-05-31T05:15:51Z</time>
      </trkpt>
      <trkpt lat="44.0616" lon="7.22273">
        <ele>1596.887207</ele>
        <time>2009-05-31T05:16:00Z</time>
      </trkpt>
      <trkpt lat="44.06147" lon="7.22279">
        <ele>1597.3679199</ele>
        <time>2009-05-31T05:16:07Z</time>
      </trkpt>
      <trkpt lat="44.06136" lon="7.22282">
        <ele>1597.3679199</ele>
        <time>2009-05-31T05:16:13Z</time>
      </trkpt>
      <trkpt lat="44.06125" lon="7.22289">
        <ele>1600.7324219</ele>
        <time>2009-05-31T05:16:19Z</time>
      </trkpt>
      <trkpt lat="44.06108" lon="7.22303">
        <ele>1602.6550293</ele>
        <time>2009-05-31T05:16:30Z</time>
      </trkpt>
      <trkpt lat="44.06095" lon="7.22323">
        <ele>1605.0583496</ele>
        <time>2009-05-31T05:16:40Z</time>
      </trkpt>
      <trkpt lat="44.06089" lon="7.2234">
        <ele>1606.5002441</ele>
        <time>2009-05-31T05:16:47Z</time>
      </trkpt>
      <trkpt lat="44.06084" lon="7.22358">
        <ele>1607.9423828</ele>
        <time>2009-05-31T05:16:53Z</time>
      </trkpt>
      <trkpt lat="44.06079" lon="7.22378">
        <ele>1608.9035645</ele>
        <time>2009-05-31T05:17:00Z</time>
      </trkpt>
      <trkpt lat="44.06073" lon="7.22406">
        <ele>1610.345459</ele>
        <time>2009-05-31T05:17:10Z</time>
      </trkpt>
      <trkpt lat="44.06068" lon="7.22427">
        <ele>1611.7875977</ele>
        <time>2009-05-31T05:17:18Z</time>
      </trkpt>
      <trkpt lat="44.06062" lon="7.2245">
        <ele>1614.190918</ele>
        <time>2009-05-31T05:17:27Z</time>
      </trkpt>
      <trkpt lat="44.06057" lon="7.22475">
        <ele>1616.1135254</ele>
        <time>2009-05-31T05:17:36Z</time>
      </trkpt>
      <trkpt lat="44.06053" lon="7.22504">
        <ele>1617.0749512</ele>
        <time>2009-05-31T05:17:46Z</time>
      </trkpt>
      <trkpt lat="44.06051" lon="7.22533">
        <ele>1618.9975586</ele>
        <time>2009-05-31T05:17:55Z</time>
      </trkpt>
      <trkpt lat="44.06049" lon="7.22562">
        <ele>1621.8813477</ele>
        <time>2009-05-31T05:18:05Z</time>
      </trkpt>
      <trkpt lat="44.06049" lon="7.2259">
        <ele>1624.284668</ele>
        <time>2009-05-31T05:18:15Z</time>
      </trkpt>
      <trkpt lat="44.06047" lon="7.22607">
        <ele>1625.7265625</ele>
        <time>2009-05-31T05:18:22Z</time>
      </trkpt>
      <trkpt lat="44.06046" lon="7.22633">
        <ele>1627.1687012</ele>
        <time>2009-05-31T05:18:32Z</time>
      </trkpt>
      <trkpt lat="44.06046" lon="7.22657">
        <ele>1628.6108398</ele>
        <time>2009-05-31T05:18:42Z</time>
      </trkpt>
      <trkpt lat="44.06047" lon="7.22679">
        <ele>1631.4946289</ele>
        <time>2009-05-31T05:18:52Z</time>
      </trkpt>
      <trkpt lat="44.0605" lon="7.227">
        <ele>1633.4172363</ele>
        <time>2009-05-31T05:19:00Z</time>
      </trkpt>
      <trkpt lat="44.0605" lon="7.22718">
        <ele>1635.3398438</ele>
        <time>2009-05-31T05:19:08Z</time>
      </trkpt>
      <trkpt lat="44.06048" lon="7.22733">
        <ele>1636.7817383</ele>
        <time>2009-05-31T05:19:14Z</time>
      </trkpt>
      <trkpt lat="44.06048" lon="7.22754">
        <ele>1639.1850586</ele>
        <time>2009-05-31T05:19:23Z</time>
      </trkpt>
      <trkpt lat="44.06048" lon="7.22777">
        <ele>1641.5883789</ele>
        <time>2009-05-31T05:19:32Z</time>
      </trkpt>
      <trkpt lat="44.0605" lon="7.22801">
        <ele>1642.5498047</ele>
        <time>2009-05-31T05:19:42Z</time>
      </trkpt>
      <trkpt lat="44.06048" lon="7.2282">
        <ele>1644.4724121</ele>
        <time>2009-05-31T05:19:50Z</time>
      </trkpt>
      <trkpt lat="44.0604" lon="7.22826">
        <ele>1646.8757324</ele>
        <time>2009-05-31T05:19:56Z</time>
      </trkpt>
      <trkpt lat="44.0603" lon="7.22819">
        <ele>1648.7983398</ele>
        <time>2009-05-31T05:20:04Z</time>
      </trkpt>
      <trkpt lat="44.06022" lon="7.22811">
        <ele>1649.7597656</ele>
        <time>2009-05-31T05:20:11Z</time>
      </trkpt>
      <trkpt lat="44.06016" lon="7.22805">
        <ele>1651.682373</ele>
        <time>2009-05-31T05:20:16Z</time>
      </trkpt>
      <trkpt lat="44.06009" lon="7.22797">
        <ele>1653.1242676</ele>
        <time>2009-05-31T05:20:23Z</time>
      </trkpt>
      <trkpt lat="44.06004" lon="7.22786">
        <ele>1654.0856934</ele>
        <time>2009-05-31T05:20:30Z</time>
      </trkpt>
      <trkpt lat="44.05995" lon="7.22776">
        <ele>1657.4501953</ele>
        <time>2009-05-31T05:20:39Z</time>
      </trkpt>
      <trkpt lat="44.05992" lon="7.22774">
        <ele>1657.9309082</ele>
        <time>2009-05-31T05:20:44Z</time>
      </trkpt>
      <trkpt lat="44.05988" lon="7.22767">
        <ele>1660.3342285</ele>
        <time>2009-05-31T05:20:51Z</time>
      </trkpt>
      <trkpt lat="44.05981" lon="7.22758">
        <ele>1662.2568359</ele>
        <time>2009-05-31T05:21:02Z</time>
      </trkpt>
      <trkpt lat="44.05976" lon="7.22751">
        <ele>1665.1408691</ele>
        <time>2009-05-31T05:21:13Z</time>
      </trkpt>
      <trkpt lat="44.05969" lon="7.22743">
        <ele>1667.5439453</ele>
        <time>2009-05-31T05:21:23Z</time>
      </trkpt>
      <trkpt lat="44.05962" lon="7.22733">
        <ele>1668.5053711</ele>
        <time>2009-05-31T05:21:33Z</time>
      </trkpt>
      <trkpt lat="44.05956" lon="7.22722">
        <ele>1669.9472656</ele>
        <time>2009-05-31T05:21:43Z</time>
      </trkpt>
      <trkpt lat="44.05953" lon="7.22719">
        <ele>1669.9472656</ele>
        <time>2009-05-31T05:21:48Z</time>
      </trkpt>
      <trkpt lat="44.0594" lon="7.227">
        <ele>1672.3505859</ele>
        <time>2009-05-31T05:21:58Z</time>
      </trkpt>
      <trkpt lat="44.05931" lon="7.22683">
        <ele>1672.8312988</ele>
        <time>2009-05-31T05:22:05Z</time>
      </trkpt>
      <trkpt lat="44.05922" lon="7.22668">
        <ele>1674.2731934</ele>
        <time>2009-05-31T05:22:11Z</time>
      </trkpt>
      <trkpt lat="44.05911" lon="7.22643">
        <ele>1677.1574707</ele>
        <time>2009-05-31T05:22:21Z</time>
      </trkpt>
      <trkpt lat="44.05899" lon="7.22621">
        <ele>1679.5605469</ele>
        <time>2009-05-31T05:22:31Z</time>
      </trkpt>
      <trkpt lat="44.05888" lon="7.22599">
        <ele>1680.0412598</ele>
        <time>2009-05-31T05:22:40Z</time>
      </trkpt>
      <trkpt lat="44.05875" lon="7.22569">
        <ele>1680.5219727</ele>
        <time>2009-05-31T05:22:51Z</time>
      </trkpt>
      <trkpt lat="44.05864" lon="7.22543">
        <ele>1681.4831543</ele>
        <time>2009-05-31T05:23:00Z</time>
      </trkpt>
      <trkpt lat="44.05851" lon="7.22527">
        <ele>1682.4445801</ele>
        <time>2009-05-31T05:23:08Z</time>
      </trkpt>
      <trkpt lat="44.05842" lon="7.22525">
        <ele>1682.4445801</ele>
        <time>2009-05-31T05:23:14Z</time>
      </trkpt>
      <trkpt lat="44.05836" lon="7.22523">
        <ele>1682.9250488</ele>
        <time>2009-05-31T05:23:20Z</time>
      </trkpt>
      <trkpt lat="44.05828" lon="7.22522">
        <ele>1682.4445801</ele>
        <time>2009-05-31T05:23:27Z</time>
      </trkpt>
      <trkpt lat="44.05821" lon="7.2252">
        <ele>1683.4057617</ele>
        <time>2009-05-31T05:23:33Z</time>
      </trkpt>
      <trkpt lat="44.05813" lon="7.22518">
        <ele>1682.9250488</ele>
        <time>2009-05-31T05:23:38Z</time>
      </trkpt>
      <trkpt lat="44.05801" lon="7.22518">
        <ele>1681.0026855</ele>
        <time>2009-05-31T05:23:43Z</time>
      </trkpt>
      <trkpt lat="44.05792" lon="7.22512">
        <ele>1679.5605469</ele>
        <time>2009-05-31T05:23:47Z</time>
      </trkpt>
      <trkpt lat="44.05785" lon="7.22509">
        <ele>1677.1574707</ele>
        <time>2009-05-31T05:23:49Z</time>
      </trkpt>
      <trkpt lat="44.0577" lon="7.22493">
        <ele>1675.7150879</ele>
        <time>2009-05-31T05:23:55Z</time>
      </trkpt>
      <trkpt lat="44.0576" lon="7.22481">
        <ele>1675.7150879</ele>
        <time>2009-05-31T05:23:59Z</time>
      </trkpt>
      <trkpt lat="44.05754" lon="7.22476">
        <ele>1675.234375</ele>
        <time>2009-05-31T05:24:02Z</time>
      </trkpt>
      <trkpt lat="44.05745" lon="7.22467">
        <ele>1676.1960449</ele>
        <time>2009-05-31T05:24:08Z</time>
      </trkpt>
      <trkpt lat="44.05733" lon="7.22458">
        <ele>1675.7150879</ele>
        <time>2009-05-31T05:24:15Z</time>
      </trkpt>
      <trkpt lat="44.05725" lon="7.22453">
        <ele>1676.1960449</ele>
        <time>2009-05-31T05:24:20Z</time>
      </trkpt>
      <trkpt lat="44.05718" lon="7.22448">
        <ele>1676.6767578</ele>
        <time>2009-05-31T05:24:25Z</time>
      </trkpt>
      <trkpt lat="44.05706" lon="7.22444">
        <ele>1676.1960449</ele>
        <time>2009-05-31T05:24:31Z</time>
      </trkpt>
      <trkpt lat="44.05701" lon="7.22441">
        <ele>1677.1574707</ele>
        <time>2009-05-31T05:24:37Z</time>
      </trkpt>
      <trkpt lat="44.05698" lon="7.22438">
        <ele>1678.1186523</ele>
        <time>2009-05-31T05:24:42Z</time>
      </trkpt>
      <trkpt lat="44.05697" lon="7.22438">
        <ele>1678.1186523</ele>
        <time>2009-05-31T05:24:43Z</time>
      </trkpt>
      <trkpt lat="44.05691" lon="7.22439">
        <ele>1676.6767578</ele>
        <time>2009-05-31T05:24:49Z</time>
      </trkpt>
      <trkpt lat="44.05682" lon="7.22433">
        <ele>1676.6767578</ele>
        <time>2009-05-31T05:24:55Z</time>
      </trkpt>
      <trkpt lat="44.05675" lon="7.22426">
        <ele>1677.1574707</ele>
        <time>2009-05-31T05:24:59Z</time>
      </trkpt>
      <trkpt lat="44.05665" lon="7.22418">
        <ele>1677.1574707</ele>
        <time>2009-05-31T05:25:04Z</time>
      </trkpt>
      <trkpt lat="44.05655" lon="7.22409">
        <ele>1676.6767578</ele>
        <time>2009-05-31T05:25:10Z</time>
      </trkpt>
      <trkpt lat="44.0565" lon="7.22405">
        <ele>1677.6379395</ele>
        <time>2009-05-31T05:25:15Z</time>
      </trkpt>
      <trkpt lat="44.05646" lon="7.22401">
        <ele>1678.1186523</ele>
        <time>2009-05-31T05:25:20Z</time>
      </trkpt>
      <trkpt lat="44.0564" lon="7.22393">
        <ele>1679.5605469</ele>
        <time>2009-05-31T05:25:27Z</time>
      </trkpt>
      <trkpt lat="44.05632" lon="7.22388">
        <ele>1680.5219727</ele>
        <time>2009-05-31T05:25:34Z</time>
      </trkpt>
      <trkpt lat="44.05629" lon="7.22387">
        <ele>1680.0412598</ele>
        <time>2009-05-31T05:25:37Z</time>
      </trkpt>
      <trkpt lat="44.05619" lon="7.22386">
        <ele>1681.0026855</ele>
        <time>2009-05-31T05:25:48Z</time>
      </trkpt>
      <trkpt lat="44.05613" lon="7.22378">
        <ele>1683.4057617</ele>
        <time>2009-05-31T05:25:58Z</time>
      </trkpt>
      <trkpt lat="44.05607" lon="7.22372">
        <ele>1685.809082</ele>
        <time>2009-05-31T05:26:08Z</time>
      </trkpt>
      <trkpt lat="44.056" lon="7.22368">
        <ele>1685.809082</ele>
        <time>2009-05-31T05:26:16Z</time>
      </trkpt>
      <trkpt lat="44.0559" lon="7.22358">
        <ele>1686.2897949</ele>
        <time>2009-05-31T05:26:27Z</time>
      </trkpt>
      <trkpt lat="44.05585" lon="7.2235">
        <ele>1687.2509766</ele>
        <time>2009-05-31T05:26:36Z</time>
      </trkpt>
      <trkpt lat="44.05577" lon="7.22341">
        <ele>1687.2509766</ele>
        <time>2009-05-31T05:26:45Z</time>
      </trkpt>
      <trkpt lat="44.05574" lon="7.22328">
        <ele>1686.7702637</ele>
        <time>2009-05-31T05:26:50Z</time>
      </trkpt>
      <trkpt lat="44.05577" lon="7.22295">
        <ele>1688.2124023</ele>
        <time>2009-05-31T05:27:00Z</time>
      </trkpt>
      <trkpt lat="44.05584" lon="7.22263">
        <ele>1691.0961914</ele>
        <time>2009-05-31T05:27:11Z</time>
      </trkpt>
      <trkpt lat="44.05591" lon="7.2224">
        <ele>1693.019043</ele>
        <time>2009-05-31T05:27:19Z</time>
      </trkpt>
      <trkpt lat="44.05606" lon="7.22206">
        <ele>1695.9030762</ele>
        <time>2009-05-31T05:27:32Z</time>
      </trkpt>
      <trkpt lat="44.05615" lon="7.22175">
        <ele>1699.2675781</ele>
        <time>2009-05-31T05:27:43Z</time>
      </trkpt>
      <trkpt lat="44.05623" lon="7.22158">
        <ele>1700.2290039</ele>
        <time>2009-05-31T05:27:50Z</time>
      </trkpt>
      <trkpt lat="44.05635" lon="7.2214">
        <ele>1700.7094727</ele>
        <time>2009-05-31T05:27:58Z</time>
      </trkpt>
      <trkpt lat="44.05642" lon="7.22122">
        <ele>1702.6320801</ele>
        <time>2009-05-31T05:28:05Z</time>
      </trkpt>
      <trkpt lat="44.05652" lon="7.22103">
        <ele>1704.0742188</ele>
        <time>2009-05-31T05:28:13Z</time>
      </trkpt>
      <trkpt lat="44.0566" lon="7.22077">
        <ele>1705.996582</ele>
        <time>2009-05-31T05:28:22Z</time>
      </trkpt>
      <trkpt lat="44.05668" lon="7.22055">
        <ele>1706.4772949</ele>
        <time>2009-05-31T05:28:30Z</time>
      </trkpt>
      <trkpt lat="44.0568" lon="7.22026">
        <ele>1708.8808594</ele>
        <time>2009-05-31T05:28:41Z</time>
      </trkpt>
      <trkpt lat="44.05691" lon="7.22005">
        <ele>1711.2841797</ele>
        <time>2009-05-31T05:28:50Z</time>
      </trkpt>
      <trkpt lat="44.05701" lon="7.2198">
        <ele>1713.6872559</ele>
        <time>2009-05-31T05:29:00Z</time>
      </trkpt>
      <trkpt lat="44.05708" lon="7.21954">
        <ele>1715.1293945</ele>
        <time>2009-05-31T05:29:09Z</time>
      </trkpt>
      <trkpt lat="44.05712" lon="7.21932">
        <ele>1717.052002</ele>
        <time>2009-05-31T05:29:17Z</time>
      </trkpt>
      <trkpt lat="44.05712" lon="7.21904">
        <ele>1718.0131836</ele>
        <time>2009-05-31T05:29:26Z</time>
      </trkpt>
      <trkpt lat="44.05705" lon="7.21887">
        <ele>1719.935791</ele>
        <time>2009-05-31T05:29:33Z</time>
      </trkpt>
      <trkpt lat="44.05693" lon="7.21871">
        <ele>1721.8583984</ele>
        <time>2009-05-31T05:29:41Z</time>
      </trkpt>
      <trkpt lat="44.05687" lon="7.21847">
        <ele>1723.3005371</ele>
        <time>2009-05-31T05:29:50Z</time>
      </trkpt>
      <trkpt lat="44.05688" lon="7.21823">
        <ele>1724.7426758</ele>
        <time>2009-05-31T05:29:58Z</time>
      </trkpt>
      <trkpt lat="44.05683" lon="7.21803">
        <ele>1727.6264648</ele>
        <time>2009-05-31T05:30:05Z</time>
      </trkpt>
      <trkpt lat="44.05672" lon="7.2179">
        <ele>1729.0683594</ele>
        <time>2009-05-31T05:30:12Z</time>
      </trkpt>
      <trkpt lat="44.05659" lon="7.21782">
        <ele>1730.9912109</ele>
        <time>2009-05-31T05:30:19Z</time>
      </trkpt>
      <trkpt lat="44.0565" lon="7.21769">
        <ele>1731.4716797</ele>
        <time>2009-05-31T05:30:25Z</time>
      </trkpt>
      <trkpt lat="44.05644" lon="7.21746">
        <ele>1732.4331055</ele>
        <time>2009-05-31T05:30:33Z</time>
      </trkpt>
      <trkpt lat="44.05642" lon="7.21723">
        <ele>1733.875</ele>
        <time>2009-05-31T05:30:41Z</time>
      </trkpt>
      <trkpt lat="44.05641" lon="7.21694">
        <ele>1736.7587891</ele>
        <time>2009-05-31T05:30:51Z</time>
      </trkpt>
      <trkpt lat="44.05635" lon="7.21668">
        <ele>1737.7202148</ele>
        <time>2009-05-31T05:31:00Z</time>
      </trkpt>
      <trkpt lat="44.05626" lon="7.21653">
        <ele>1738.6816406</ele>
        <time>2009-05-31T05:31:06Z</time>
      </trkpt>
      <trkpt lat="44.05614" lon="7.21641">
        <ele>1739.1621094</ele>
        <time>2009-05-31T05:31:13Z</time>
      </trkpt>
      <trkpt lat="44.05604" lon="7.21633">
        <ele>1740.1237793</ele>
        <time>2009-05-31T05:31:20Z</time>
      </trkpt>
      <trkpt lat="44.05598" lon="7.21629">
        <ele>1740.1237793</ele>
        <time>2009-05-31T05:31:27Z</time>
      </trkpt>
      <trkpt lat="44.05595" lon="7.21629">
        <ele>1741.5656738</ele>
        <time>2009-05-31T05:31:31Z</time>
      </trkpt>
      <trkpt lat="44.0559" lon="7.21628">
        <ele>1741.5656738</ele>
        <time>2009-05-31T05:31:38Z</time>
      </trkpt>
      <trkpt lat="44.05584" lon="7.21625">
        <ele>1742.0463867</ele>
        <time>2009-05-31T05:31:45Z</time>
      </trkpt>
      <trkpt lat="44.05579" lon="7.21624">
        <ele>1742.0463867</ele>
        <time>2009-05-31T05:31:49Z</time>
      </trkpt>
      <trkpt lat="44.05567" lon="7.21618">
        <ele>1741.5656738</ele>
        <time>2009-05-31T05:31:55Z</time>
      </trkpt>
      <trkpt lat="44.05551" lon="7.21617">
        <ele>1738.6816406</ele>
        <time>2009-05-31T05:31:59Z</time>
      </trkpt>
      <trkpt lat="44.05539" lon="7.21615">
        <ele>1737.7202148</ele>
        <time>2009-05-31T05:32:01Z</time>
      </trkpt>
      <trkpt lat="44.05523" lon="7.21612">
        <ele>1736.2783203</ele>
        <time>2009-05-31T05:32:04Z</time>
      </trkpt>
      <trkpt lat="44.05504" lon="7.21609">
        <ele>1735.3168945</ele>
        <time>2009-05-31T05:32:08Z</time>
      </trkpt>
      <trkpt lat="44.05478" lon="7.21606">
        <ele>1735.7976074</ele>
        <time>2009-05-31T05:32:13Z</time>
      </trkpt>
      <trkpt lat="44.05449" lon="7.21601">
        <ele>1734.3557129</ele>
        <time>2009-05-31T05:32:18Z</time>
      </trkpt>
      <trkpt lat="44.05421" lon="7.21598">
        <ele>1732.4331055</ele>
        <time>2009-05-31T05:32:22Z</time>
      </trkpt>
      <trkpt lat="44.05402" lon="7.2159">
        <ele>1731.4716797</ele>
        <time>2009-05-31T05:32:25Z</time>
      </trkpt>
      <trkpt lat="44.05383" lon="7.21575">
        <ele>1726.6652832</ele>
        <time>2009-05-31T05:32:29Z</time>
      </trkpt>
      <trkpt lat="44.05377" lon="7.21572">
        <ele>1726.1845703</ele>
        <time>2009-05-31T05:32:30Z</time>
      </trkpt>
      <trkpt lat="44.05355" lon="7.21554">
        <ele>1720.8972168</ele>
        <time>2009-05-31T05:32:35Z</time>
      </trkpt>
      <trkpt lat="44.05352" lon="7.21548">
        <ele>1720.8972168</ele>
        <time>2009-05-31T05:32:36Z</time>
      </trkpt>
      <trkpt lat="44.05345" lon="7.2153">
        <ele>1717.5324707</ele>
        <time>2009-05-31T05:32:39Z</time>
      </trkpt>
      <trkpt lat="44.05327" lon="7.21493">
        <ele>1715.6101074</ele>
        <time>2009-05-31T05:32:45Z</time>
      </trkpt>
      <trkpt lat="44.05324" lon="7.21486">
        <ele>1715.1293945</ele>
        <time>2009-05-31T05:32:46Z</time>
      </trkpt>
      <trkpt lat="44.05319" lon="7.21474">
        <ele>1713.6872559</ele>
        <time>2009-05-31T05:32:48Z</time>
      </trkpt>
      <trkpt lat="44.05315" lon="7.2145">
        <ele>1710.3227539</ele>
        <time>2009-05-31T05:32:52Z</time>
      </trkpt>
      <trkpt lat="44.05316" lon="7.21442">
        <ele>1710.8034668</ele>
        <time>2009-05-31T05:32:54Z</time>
      </trkpt>
      <trkpt lat="44.05317" lon="7.21426">
        <ele>1710.8034668</ele>
        <time>2009-05-31T05:32:58Z</time>
      </trkpt>
      <trkpt lat="44.05313" lon="7.21415">
        <ele>1710.8034668</ele>
        <time>2009-05-31T05:33:00Z</time>
      </trkpt>
      <trkpt lat="44.05309" lon="7.21393">
        <ele>1712.2453613</ele>
        <time>2009-05-31T05:33:04Z</time>
      </trkpt>
      <trkpt lat="44.05309" lon="7.21387">
        <ele>1712.7260742</ele>
        <time>2009-05-31T05:33:05Z</time>
      </trkpt>
      <trkpt lat="44.05303" lon="7.21354">
        <ele>1714.6486816</ele>
        <time>2009-05-31T05:33:12Z</time>
      </trkpt>
      <trkpt lat="44.053" lon="7.2133">
        <ele>1714.1679688</ele>
        <time>2009-05-31T05:33:17Z</time>
      </trkpt>
      <trkpt lat="44.053" lon="7.21325">
        <ele>1714.6486816</ele>
        <time>2009-05-31T05:33:18Z</time>
      </trkpt>
      <trkpt lat="44.05293" lon="7.21301">
        <ele>1714.6486816</ele>
        <time>2009-05-31T05:33:22Z</time>
      </trkpt>
      <trkpt lat="44.05281" lon="7.21281">
        <ele>1715.1293945</ele>
        <time>2009-05-31T05:33:27Z</time>
      </trkpt>
      <trkpt lat="44.05268" lon="7.21265">
        <ele>1714.1679688</ele>
        <time>2009-05-31T05:33:33Z</time>
      </trkpt>
      <trkpt lat="44.05258" lon="7.21246">
        <ele>1714.6486816</ele>
        <time>2009-05-31T05:33:38Z</time>
      </trkpt>
      <trkpt lat="44.05248" lon="7.21227">
        <ele>1716.5712891</ele>
        <time>2009-05-31T05:33:43Z</time>
      </trkpt>
      <trkpt lat="44.05234" lon="7.21212">
        <ele>1718.0131836</ele>
        <time>2009-05-31T05:33:49Z</time>
      </trkpt>
      <trkpt lat="44.05227" lon="7.212">
        <ele>1717.052002</ele>
        <time>2009-05-31T05:33:54Z</time>
      </trkpt>
      <trkpt lat="44.05216" lon="7.21184">
        <ele>1718.0131836</ele>
        <time>2009-05-31T05:33:59Z</time>
      </trkpt>
      <trkpt lat="44.05212" lon="7.21165">
        <ele>1717.5324707</ele>
        <time>2009-05-31T05:34:03Z</time>
      </trkpt>
      <trkpt lat="44.05207" lon="7.21135">
        <ele>1716.5712891</ele>
        <time>2009-05-31T05:34:08Z</time>
      </trkpt>
      <trkpt lat="44.05197" lon="7.21095">
        <ele>1714.6486816</ele>
        <time>2009-05-31T05:34:15Z</time>
      </trkpt>
      <trkpt lat="44.05192" lon="7.21086">
        <ele>1713.2067871</ele>
        <time>2009-05-31T05:34:17Z</time>
      </trkpt>
      <trkpt lat="44.05182" lon="7.21068">
        <ele>1713.2067871</ele>
        <time>2009-05-31T05:34:21Z</time>
      </trkpt>
      <trkpt lat="44.05179" lon="7.21058">
        <ele>1712.2453613</ele>
        <time>2009-05-31T05:34:23Z</time>
      </trkpt>
      <trkpt lat="44.05185" lon="7.21034">
        <ele>1711.7648926</ele>
        <time>2009-05-31T05:34:28Z</time>
      </trkpt>
      <trkpt lat="44.05191" lon="7.21024">
        <ele>1709.842041</ele>
        <time>2009-05-31T05:34:31Z</time>
      </trkpt>
      <trkpt lat="44.05201" lon="7.21019">
        <ele>1710.8034668</ele>
        <time>2009-05-31T05:34:33Z</time>
      </trkpt>
      <trkpt lat="44.0522" lon="7.21009">
        <ele>1709.3615723</ele>
        <time>2009-05-31T05:34:38Z</time>
      </trkpt>
      <trkpt lat="44.05223" lon="7.2098">
        <ele>1707.9194336</ele>
        <time>2009-05-31T05:34:42Z</time>
      </trkpt>
      <trkpt lat="44.05215" lon="7.20959">
        <ele>1706.4772949</ele>
        <time>2009-05-31T05:34:45Z</time>
      </trkpt>
      <trkpt lat="44.05204" lon="7.20934">
        <ele>1705.0354004</ele>
        <time>2009-05-31T05:34:50Z</time>
      </trkpt>
      <trkpt lat="44.05209" lon="7.20921">
        <ele>1704.5546875</ele>
        <time>2009-05-31T05:34:54Z</time>
      </trkpt>
      <trkpt lat="44.05218" lon="7.20901">
        <ele>1703.5935059</ele>
        <time>2009-05-31T05:34:59Z</time>
      </trkpt>
      <trkpt lat="44.05224" lon="7.20895">
        <ele>1702.6320801</ele>
        <time>2009-05-31T05:35:01Z</time>
      </trkpt>
      <trkpt lat="44.05229" lon="7.20895">
        <ele>1701.1901855</ele>
        <time>2009-05-31T05:35:02Z</time>
      </trkpt>
      <trkpt lat="44.05242" lon="7.20895">
        <ele>1700.2290039</ele>
        <time>2009-05-31T05:35:06Z</time>
      </trkpt>
      <trkpt lat="44.05247" lon="7.20884">
        <ele>1697.8256836</ele>
        <time>2009-05-31T05:35:09Z</time>
      </trkpt>
      <trkpt lat="44.0525" lon="7.20882">
        <ele>1697.8256836</ele>
        <time>2009-05-31T05:35:10Z</time>
      </trkpt>
      <trkpt lat="44.05258" lon="7.20879">
        <ele>1696.3837891</ele>
        <time>2009-05-31T05:35:12Z</time>
      </trkpt>
      <trkpt lat="44.05267" lon="7.20878">
        <ele>1694.9416504</ele>
        <time>2009-05-31T05:35:14Z</time>
      </trkpt>
      <trkpt lat="44.05278" lon="7.20876">
        <ele>1694.9416504</ele>
        <time>2009-05-31T05:35:17Z</time>
      </trkpt>
      <trkpt lat="44.05283" lon="7.20842">
        <ele>1693.4997559</ele>
        <time>2009-05-31T05:35:22Z</time>
      </trkpt>
      <trkpt lat="44.0528" lon="7.20784">
        <ele>1692.5385742</ele>
        <time>2009-05-31T05:35:28Z</time>
      </trkpt>
      <trkpt lat="44.0528" lon="7.20753">
        <ele>1690.6154785</ele>
        <time>2009-05-31T05:35:31Z</time>
      </trkpt>
      <trkpt lat="44.05281" lon="7.20742">
        <ele>1690.1350098</ele>
        <time>2009-05-31T05:35:32Z</time>
      </trkpt>
      <trkpt lat="44.05294" lon="7.20703">
        <ele>1687.2509766</ele>
        <time>2009-05-31T05:35:36Z</time>
      </trkpt>
      <trkpt lat="44.05306" lon="7.20685">
        <ele>1686.2897949</ele>
        <time>2009-05-31T05:35:38Z</time>
      </trkpt>
      <trkpt lat="44.05312" lon="7.20676">
        <ele>1686.2897949</ele>
        <time>2009-05-31T05:35:39Z</time>
      </trkpt>
      <trkpt lat="44.05319" lon="7.20634">
        <ele>1684.3671875</ele>
        <time>2009-05-31T05:35:43Z</time>
      </trkpt>
      <trkpt lat="44.05308" lon="7.20605">
        <ele>1683.4057617</ele>
        <time>2009-05-31T05:35:46Z</time>
      </trkpt>
      <trkpt lat="44.05301" lon="7.20598">
        <ele>1682.9250488</ele>
        <time>2009-05-31T05:35:47Z</time>
      </trkpt>
      <trkpt lat="44.0525" lon="7.20545">
        <ele>1681.9638672</ele>
        <time>2009-05-31T05:35:55Z</time>
      </trkpt>
      <trkpt lat="44.05219" lon="7.20498">
        <ele>1680.0412598</ele>
        <time>2009-05-31T05:36:01Z</time>
      </trkpt>
      <trkpt lat="44.05188" lon="7.20459">
        <ele>1680.0412598</ele>
        <time>2009-05-31T05:36:07Z</time>
      </trkpt>
      <trkpt lat="44.0516" lon="7.20438">
        <ele>1680.0412598</ele>
        <time>2009-05-31T05:36:12Z</time>
      </trkpt>
      <trkpt lat="44.05157" lon="7.20423">
        <ele>1680.0412598</ele>
        <time>2009-05-31T05:36:14Z</time>
      </trkpt>
      <trkpt lat="44.05148" lon="7.20387">
        <ele>1680.0412598</ele>
        <time>2009-05-31T05:36:19Z</time>
      </trkpt>
      <trkpt lat="44.05137" lon="7.2035">
        <ele>1679.079834</ele>
        <time>2009-05-31T05:36:24Z</time>
      </trkpt>
      <trkpt lat="44.0513" lon="7.20315">
        <ele>1678.1186523</ele>
        <time>2009-05-31T05:36:30Z</time>
      </trkpt>
      <trkpt lat="44.0512" lon="7.20297">
        <ele>1677.1574707</ele>
        <time>2009-05-31T05:36:36Z</time>
      </trkpt>
      <trkpt lat="44.05111" lon="7.20264">
        <ele>1676.1960449</ele>
        <time>2009-05-31T05:36:42Z</time>
      </trkpt>
      <trkpt lat="44.05097" lon="7.20226">
        <ele>1675.7150879</ele>
        <time>2009-05-31T05:36:47Z</time>
      </trkpt>
      <trkpt lat="44.05089" lon="7.202">
        <ele>1674.7539062</ele>
        <time>2009-05-31T05:36:50Z</time>
      </trkpt>
      <trkpt lat="44.05078" lon="7.20132">
        <ele>1674.2731934</ele>
        <time>2009-05-31T05:36:57Z</time>
      </trkpt>
      <trkpt lat="44.05071" lon="7.20104">
        <ele>1673.7924805</ele>
        <time>2009-05-31T05:37:00Z</time>
      </trkpt>
      <trkpt lat="44.05065" lon="7.20085">
        <ele>1673.3120117</ele>
        <time>2009-05-31T05:37:02Z</time>
      </trkpt>
      <trkpt lat="44.05061" lon="7.20044">
        <ele>1672.8312988</ele>
        <time>2009-05-31T05:37:07Z</time>
      </trkpt>
      <trkpt lat="44.05063" lon="7.20008">
        <ele>1672.8312988</ele>
        <time>2009-05-31T05:37:11Z</time>
      </trkpt>
      <trkpt lat="44.05067" lon="7.19961">
        <ele>1670.9086914</ele>
        <time>2009-05-31T05:37:16Z</time>
      </trkpt>
      <trkpt lat="44.05068" lon="7.19941">
        <ele>1670.4279785</ele>
        <time>2009-05-31T05:37:18Z</time>
      </trkpt>
      <trkpt lat="44.05072" lon="7.19868">
        <ele>1667.5439453</ele>
        <time>2009-05-31T05:37:25Z</time>
      </trkpt>
      <trkpt lat="44.05083" lon="7.19804">
        <ele>1664.6601562</ele>
        <time>2009-05-31T05:37:31Z</time>
      </trkpt>
      <trkpt lat="44.05086" lon="7.19771">
        <ele>1664.6601562</ele>
        <time>2009-05-31T05:37:34Z</time>
      </trkpt>
      <trkpt lat="44.05081" lon="7.1973">
        <ele>1663.2182617</ele>
        <time>2009-05-31T05:37:38Z</time>
      </trkpt>
      <trkpt lat="44.05086" lon="7.19703">
        <ele>1662.7375488</ele>
        <time>2009-05-31T05:37:41Z</time>
      </trkpt>
      <trkpt lat="44.05098" lon="7.19679">
        <ele>1661.7763672</ele>
        <time>2009-05-31T05:37:44Z</time>
      </trkpt>
      <trkpt lat="44.05105" lon="7.19651">
        <ele>1661.2956543</ele>
        <time>2009-05-31T05:37:47Z</time>
      </trkpt>
      <trkpt lat="44.05105" lon="7.19612">
        <ele>1659.8532715</ele>
        <time>2009-05-31T05:37:51Z</time>
      </trkpt>
      <trkpt lat="44.05101" lon="7.19593">
        <ele>1658.411377</ele>
        <time>2009-05-31T05:37:53Z</time>
      </trkpt>
      <trkpt lat="44.05096" lon="7.19564">
        <ele>1656.0080566</ele>
        <time>2009-05-31T05:37:58Z</time>
      </trkpt>
      <trkpt lat="44.05095" lon="7.19554">
        <ele>1656.4887695</ele>
        <time>2009-05-31T05:38:00Z</time>
      </trkpt>
      <trkpt lat="44.05091" lon="7.19513">
        <ele>1655.046875</ele>
        <time>2009-05-31T05:38:05Z</time>
      </trkpt>
      <trkpt lat="44.05082" lon="7.19485">
        <ele>1655.046875</ele>
        <time>2009-05-31T05:38:09Z</time>
      </trkpt>
      <trkpt lat="44.05074" lon="7.19473">
        <ele>1656.4887695</ele>
        <time>2009-05-31T05:38:13Z</time>
      </trkpt>
      <trkpt lat="44.05069" lon="7.19469">
        <ele>1657.4501953</ele>
        <time>2009-05-31T05:38:19Z</time>
      </trkpt>
      <trkpt lat="44.05067" lon="7.19467">
        <ele>1658.411377</ele>
        <time>2009-05-31T05:38:21Z</time>
      </trkpt>
      <trkpt lat="44.05063" lon="7.1946">
        <ele>1660.3342285</ele>
        <time>2009-05-31T05:38:27Z</time>
      </trkpt>
      <trkpt lat="44.05057" lon="7.1945">
        <ele>1662.2568359</ele>
        <time>2009-05-31T05:38:36Z</time>
      </trkpt>
      <trkpt lat="44.05052" lon="7.19446">
        <ele>1663.2182617</ele>
        <time>2009-05-31T05:38:40Z</time>
      </trkpt>
      <trkpt lat="44.05042" lon="7.19437">
        <ele>1664.6601562</ele>
        <time>2009-05-31T05:38:49Z</time>
      </trkpt>
      <trkpt lat="44.05039" lon="7.19426">
        <ele>1664.6601562</ele>
        <time>2009-05-31T05:38:56Z</time>
      </trkpt>
      <trkpt lat="44.05037" lon="7.19415">
        <ele>1666.5827637</ele>
        <time>2009-05-31T05:39:03Z</time>
      </trkpt>
      <trkpt lat="44.05037" lon="7.19407">
        <ele>1668.0246582</ele>
        <time>2009-05-31T05:39:08Z</time>
      </trkpt>
      <trkpt lat="44.05035" lon="7.19402">
        <ele>1669.4667969</ele>
        <time>2009-05-31T05:39:12Z</time>
      </trkpt>
      <trkpt lat="44.05036" lon="7.19393">
        <ele>1670.9086914</ele>
        <time>2009-05-31T05:39:19Z</time>
      </trkpt>
      <trkpt lat="44.05033" lon="7.19388">
        <ele>1673.3120117</ele>
        <time>2009-05-31T05:39:24Z</time>
      </trkpt>
      <trkpt lat="44.05032" lon="7.19382">
        <ele>1674.7539062</ele>
        <time>2009-05-31T05:39:29Z</time>
      </trkpt>
      <trkpt lat="44.05027" lon="7.19372">
        <ele>1674.7539062</ele>
        <time>2009-05-31T05:39:38Z</time>
      </trkpt>
      <trkpt lat="44.05024" lon="7.19362">
        <ele>1674.7539062</ele>
        <time>2009-05-31T05:39:42Z</time>
      </trkpt>
      <trkpt lat="44.05019" lon="7.19347">
        <ele>1676.1960449</ele>
        <time>2009-05-31T05:39:47Z</time>
      </trkpt>
      <trkpt lat="44.05017" lon="7.1933">
        <ele>1678.5993652</ele>
        <time>2009-05-31T05:39:53Z</time>
      </trkpt>
      <trkpt lat="44.05015" lon="7.19314">
        <ele>1681.0026855</ele>
        <time>2009-05-31T05:40:00Z</time>
      </trkpt>
      <trkpt lat="44.05012" lon="7.19298">
        <ele>1683.4057617</ele>
        <time>2009-05-31T05:40:05Z</time>
      </trkpt>
      <trkpt lat="44.05008" lon="7.1928">
        <ele>1683.4057617</ele>
        <time>2009-05-31T05:40:12Z</time>
      </trkpt>
      <trkpt lat="44.05004" lon="7.19266">
        <ele>1685.3283691</ele>
        <time>2009-05-31T05:40:18Z</time>
      </trkpt>
      <trkpt lat="44.05002" lon="7.19256">
        <ele>1688.2124023</ele>
        <time>2009-05-31T05:40:23Z</time>
      </trkpt>
      <trkpt lat="44.04998" lon="7.19241">
        <ele>1689.6542969</ele>
        <time>2009-05-31T05:40:30Z</time>
      </trkpt>
      <trkpt lat="44.04993" lon="7.19227">
        <ele>1692.5385742</ele>
        <time>2009-05-31T05:40:37Z</time>
      </trkpt>
      <trkpt lat="44.04992" lon="7.19226">
        <ele>1692.5385742</ele>
        <time>2009-05-31T05:40:38Z</time>
      </trkpt>
      <trkpt lat="44.04989" lon="7.1922">
        <ele>1694.4609375</ele>
        <time>2009-05-31T05:40:42Z</time>
      </trkpt>
      <trkpt lat="44.04987" lon="7.19208">
        <ele>1697.8256836</ele>
        <time>2009-05-31T05:40:49Z</time>
      </trkpt>
      <trkpt lat="44.0498" lon="7.19191">
        <ele>1698.3061523</ele>
        <time>2009-05-31T05:40:58Z</time>
      </trkpt>
      <trkpt lat="44.04977" lon="7.1918">
        <ele>1698.7868652</ele>
        <time>2009-05-31T05:41:06Z</time>
      </trkpt>
      <trkpt lat="44.04977" lon="7.19178">
        <ele>1699.2675781</ele>
        <time>2009-05-31T05:41:07Z</time>
      </trkpt>
      <trkpt lat="44.04978" lon="7.19163">
        <ele>1700.2290039</ele>
        <time>2009-05-31T05:41:15Z</time>
      </trkpt>
      <trkpt lat="44.04977" lon="7.19148">
        <ele>1703.5935059</ele>
        <time>2009-05-31T05:41:22Z</time>
      </trkpt>
      <trkpt lat="44.04977" lon="7.19146">
        <ele>1703.112793</ele>
        <time>2009-05-31T05:41:23Z</time>
      </trkpt>
      <trkpt lat="44.04974" lon="7.19139">
        <ele>1704.5546875</ele>
        <time>2009-05-31T05:41:27Z</time>
      </trkpt>
      <trkpt lat="44.04969" lon="7.19132">
        <ele>1705.996582</ele>
        <time>2009-05-31T05:41:31Z</time>
      </trkpt>
      <trkpt lat="44.04962" lon="7.19118">
        <ele>1708.4001465</ele>
        <time>2009-05-31T05:41:39Z</time>
      </trkpt>
      <trkpt lat="44.0496" lon="7.1911">
        <ele>1710.3227539</ele>
        <time>2009-05-31T05:41:43Z</time>
      </trkpt>
      <trkpt lat="44.04954" lon="7.19098">
        <ele>1712.2453613</ele>
        <time>2009-05-31T05:41:50Z</time>
      </trkpt>
      <trkpt lat="44.04946" lon="7.19086">
        <ele>1714.1679688</ele>
        <time>2009-05-31T05:41:57Z</time>
      </trkpt>
      <trkpt lat="44.04937" lon="7.19074">
        <ele>1716.0905762</ele>
        <time>2009-05-31T05:42:04Z</time>
      </trkpt>
      <trkpt lat="44.04933" lon="7.19062">
        <ele>1717.052002</ele>
        <time>2009-05-31T05:42:10Z</time>
      </trkpt>
      <trkpt lat="44.04933" lon="7.1906">
        <ele>1717.052002</ele>
        <time>2009-05-31T05:42:11Z</time>
      </trkpt>
      <trkpt lat="44.04933" lon="7.19042">
        <ele>1718.9746094</ele>
        <time>2009-05-31T05:42:19Z</time>
      </trkpt>
      <trkpt lat="44.04932" lon="7.1903">
        <ele>1720.8972168</ele>
        <time>2009-05-31T05:42:25Z</time>
      </trkpt>
      <trkpt lat="44.04932" lon="7.19017">
        <ele>1721.8583984</ele>
        <time>2009-05-31T05:42:32Z</time>
      </trkpt>
      <trkpt lat="44.04931" lon="7.19001">
        <ele>1723.3005371</ele>
        <time>2009-05-31T05:42:41Z</time>
      </trkpt>
      <trkpt lat="44.04929" lon="7.1899">
        <ele>1725.7038574</ele>
        <time>2009-05-31T05:42:47Z</time>
      </trkpt>
      <trkpt lat="44.04927" lon="7.18986">
        <ele>1727.1459961</ele>
        <time>2009-05-31T05:42:50Z</time>
      </trkpt>
      <trkpt lat="44.04926" lon="7.18977">
        <ele>1727.1459961</ele>
        <time>2009-05-31T05:42:54Z</time>
      </trkpt>
      <trkpt lat="44.04926" lon="7.18972">
        <ele>1727.6264648</ele>
        <time>2009-05-31T05:42:57Z</time>
      </trkpt>
      <trkpt lat="44.04928" lon="7.18961">
        <ele>1730.0297852</ele>
        <time>2009-05-31T05:43:02Z</time>
      </trkpt>
      <trkpt lat="44.0493" lon="7.18949">
        <ele>1731.9523926</ele>
        <time>2009-05-31T05:43:08Z</time>
      </trkpt>
      <trkpt lat="44.04931" lon="7.18933">
        <ele>1733.3942871</ele>
        <time>2009-05-31T05:43:15Z</time>
      </trkpt>
      <trkpt lat="44.04932" lon="7.18919">
        <ele>1735.7976074</ele>
        <time>2009-05-31T05:43:20Z</time>
      </trkpt>
      <trkpt lat="44.04936" lon="7.18903">
        <ele>1737.239502</ele>
        <time>2009-05-31T05:43:27Z</time>
      </trkpt>
      <trkpt lat="44.04939" lon="7.18888">
        <ele>1737.7202148</ele>
        <time>2009-05-31T05:43:34Z</time>
      </trkpt>
      <trkpt lat="44.04939" lon="7.18875">
        <ele>1740.604248</ele>
        <time>2009-05-31T05:43:40Z</time>
      </trkpt>
      <trkpt lat="44.04939" lon="7.18873">
        <ele>1740.604248</ele>
        <time>2009-05-31T05:43:41Z</time>
      </trkpt>
      <trkpt lat="44.04938" lon="7.18868">
        <ele>1740.604248</ele>
        <time>2009-05-31T05:43:43Z</time>
      </trkpt>
      <trkpt lat="44.04931" lon="7.18866">
        <ele>1740.604248</ele>
        <time>2009-05-31T05:43:49Z</time>
      </trkpt>
      <trkpt lat="44.04929" lon="7.18867">
        <ele>1741.0849609</ele>
        <time>2009-05-31T05:43:51Z</time>
      </trkpt>
      <trkpt lat="44.04919" lon="7.18875">
        <ele>1742.0463867</ele>
        <time>2009-05-31T05:43:59Z</time>
      </trkpt>
      <trkpt lat="44.04913" lon="7.18886">
        <ele>1743.9689941</ele>
        <time>2009-05-31T05:44:06Z</time>
      </trkpt>
      <trkpt lat="44.04909" lon="7.18898">
        <ele>1744.9301758</ele>
        <time>2009-05-31T05:44:13Z</time>
      </trkpt>
      <trkpt lat="44.04905" lon="7.18907">
        <ele>1745.8916016</ele>
        <time>2009-05-31T05:44:19Z</time>
      </trkpt>
      <trkpt lat="44.049" lon="7.18918">
        <ele>1747.814209</ele>
        <time>2009-05-31T05:44:27Z</time>
      </trkpt>
      <trkpt lat="44.04894" lon="7.18928">
        <ele>1748.7753906</ele>
        <time>2009-05-31T05:44:34Z</time>
      </trkpt>
      <trkpt lat="44.04887" lon="7.18939">
        <ele>1750.2175293</ele>
        <time>2009-05-31T05:44:42Z</time>
      </trkpt>
      <trkpt lat="44.04879" lon="7.18951">
        <ele>1752.1398926</ele>
        <time>2009-05-31T05:44:50Z</time>
      </trkpt>
      <trkpt lat="44.04876" lon="7.1896">
        <ele>1753.5820312</ele>
        <time>2009-05-31T05:44:55Z</time>
      </trkpt>
      <trkpt lat="44.04876" lon="7.18973">
        <ele>1754.5432129</ele>
        <time>2009-05-31T05:45:01Z</time>
      </trkpt>
      <trkpt lat="44.04873" lon="7.18988">
        <ele>1756.4660645</ele>
        <time>2009-05-31T05:45:09Z</time>
      </trkpt>
      <trkpt lat="44.04869" lon="7.19004">
        <ele>1756.9467773</ele>
        <time>2009-05-31T05:45:17Z</time>
      </trkpt>
      <trkpt lat="44.04865" lon="7.19018">
        <ele>1758.3886719</ele>
        <time>2009-05-31T05:45:25Z</time>
      </trkpt>
      <trkpt lat="44.04863" lon="7.19033">
        <ele>1758.8693848</ele>
        <time>2009-05-31T05:45:33Z</time>
      </trkpt>
      <trkpt lat="44.04862" lon="7.19043">
        <ele>1760.3112793</ele>
        <time>2009-05-31T05:45:40Z</time>
      </trkpt>
      <trkpt lat="44.0486" lon="7.19048">
        <ele>1761.2727051</ele>
        <time>2009-05-31T05:45:45Z</time>
      </trkpt>
      <trkpt lat="44.04859" lon="7.19053">
        <ele>1762.2338867</ele>
        <time>2009-05-31T05:45:49Z</time>
      </trkpt>
      <trkpt lat="44.0486" lon="7.19058">
        <ele>1762.7145996</ele>
        <time>2009-05-31T05:45:57Z</time>
      </trkpt>
      <trkpt lat="44.0486" lon="7.1906">
        <ele>1763.6757812</ele>
        <time>2009-05-31T05:46:08Z</time>
      </trkpt>
      <trkpt lat="44.04859" lon="7.19065">
        <ele>1763.6757812</ele>
        <time>2009-05-31T05:46:13Z</time>
      </trkpt>
      <trkpt lat="44.04858" lon="7.19076">
        <ele>1767.0405273</ele>
        <time>2009-05-31T05:46:22Z</time>
      </trkpt>
      <trkpt lat="44.04857" lon="7.19086">
        <ele>1768.4824219</ele>
        <time>2009-05-31T05:46:30Z</time>
      </trkpt>
      <trkpt lat="44.04856" lon="7.19094">
        <ele>1770.8857422</ele>
        <time>2009-05-31T05:46:37Z</time>
      </trkpt>
      <trkpt lat="44.04854" lon="7.19101">
        <ele>1772.8085938</ele>
        <time>2009-05-31T05:46:43Z</time>
      </trkpt>
      <trkpt lat="44.0485" lon="7.19109">
        <ele>1773.7697754</ele>
        <time>2009-05-31T05:46:51Z</time>
      </trkpt>
      <trkpt lat="44.04848" lon="7.19119">
        <ele>1775.2116699</ele>
        <time>2009-05-31T05:47:00Z</time>
      </trkpt>
      <trkpt lat="44.04848" lon="7.19127">
        <ele>1777.1345215</ele>
        <time>2009-05-31T05:47:08Z</time>
      </trkpt>
      <trkpt lat="44.04849" lon="7.19134">
        <ele>1778.0957031</ele>
        <time>2009-05-31T05:47:16Z</time>
      </trkpt>
      <trkpt lat="44.0485" lon="7.1914">
        <ele>1780.4990234</ele>
        <time>2009-05-31T05:47:25Z</time>
      </trkpt>
      <trkpt lat="44.04849" lon="7.19146">
        <ele>1781.4602051</ele>
        <time>2009-05-31T05:47:33Z</time>
      </trkpt>
      <trkpt lat="44.04847" lon="7.19152">
        <ele>1783.8635254</ele>
        <time>2009-05-31T05:47:40Z</time>
      </trkpt>
      <trkpt lat="44.04846" lon="7.1916">
        <ele>1784.3442383</ele>
        <time>2009-05-31T05:47:48Z</time>
      </trkpt>
      <trkpt lat="44.04843" lon="7.19167">
        <ele>1786.7473145</ele>
        <time>2009-05-31T05:47:56Z</time>
      </trkpt>
      <trkpt lat="44.04843" lon="7.19179">
        <ele>1789.1508789</ele>
        <time>2009-05-31T05:48:05Z</time>
      </trkpt>
      <trkpt lat="44.04843" lon="7.19195">
        <ele>1790.5927734</ele>
        <time>2009-05-31T05:48:16Z</time>
      </trkpt>
      <trkpt lat="44.04843" lon="7.19201">
        <ele>1792.515625</ele>
        <time>2009-05-31T05:48:21Z</time>
      </trkpt>
      <trkpt lat="44.04843" lon="7.1921">
        <ele>1793.4768066</ele>
        <time>2009-05-31T05:48:30Z</time>
      </trkpt>
      <trkpt lat="44.04842" lon="7.19218">
        <ele>1794.9187012</ele>
        <time>2009-05-31T05:48:39Z</time>
      </trkpt>
      <trkpt lat="44.04841" lon="7.19226">
        <ele>1796.3608398</ele>
        <time>2009-05-31T05:48:48Z</time>
      </trkpt>
      <trkpt lat="44.04841" lon="7.19228">
        <ele>1796.8413086</ele>
        <time>2009-05-31T05:48:49Z</time>
      </trkpt>
      <trkpt lat="44.04834" lon="7.19242">
        <ele>1799.2446289</ele>
        <time>2009-05-31T05:48:59Z</time>
      </trkpt>
      <trkpt lat="44.04831" lon="7.1925">
        <ele>1798.2832031</ele>
        <time>2009-05-31T05:49:05Z</time>
      </trkpt>
      <trkpt lat="44.04829" lon="7.19265">
        <ele>1798.763916</ele>
        <time>2009-05-31T05:49:10Z</time>
      </trkpt>
      <trkpt lat="44.04829" lon="7.19275">
        <ele>1799.7253418</ele>
        <time>2009-05-31T05:49:14Z</time>
      </trkpt>
      <trkpt lat="44.04829" lon="7.19291">
        <ele>1801.6479492</ele>
        <time>2009-05-31T05:49:21Z</time>
      </trkpt>
      <trkpt lat="44.04829" lon="7.19293">
        <ele>1801.1672363</ele>
        <time>2009-05-31T05:49:22Z</time>
      </trkpt>
      <trkpt lat="44.0483" lon="7.19303">
        <ele>1802.128418</ele>
        <time>2009-05-31T05:49:27Z</time>
      </trkpt>
      <trkpt lat="44.04832" lon="7.19311">
        <ele>1803.5705566</ele>
        <time>2009-05-31T05:49:31Z</time>
      </trkpt>
      <trkpt lat="44.04836" lon="7.19324">
        <ele>1804.5319824</ele>
        <time>2009-05-31T05:49:38Z</time>
      </trkpt>
      <trkpt lat="44.04839" lon="7.19333">
        <ele>1805.4934082</ele>
        <time>2009-05-31T05:49:43Z</time>
      </trkpt>
      <trkpt lat="44.0484" lon="7.1935">
        <ele>1805.973877</ele>
        <time>2009-05-31T05:49:51Z</time>
      </trkpt>
      <trkpt lat="44.0484" lon="7.19358">
        <ele>1807.4160156</ele>
        <time>2009-05-31T05:49:55Z</time>
      </trkpt>
      <trkpt lat="44.0484" lon="7.19361">
        <ele>1806.4545898</ele>
        <time>2009-05-31T05:49:57Z</time>
      </trkpt>
      <trkpt lat="44.04843" lon="7.19371">
        <ele>1808.8579102</ele>
        <time>2009-05-31T05:50:03Z</time>
      </trkpt>
      <trkpt lat="44.04842" lon="7.19381">
        <ele>1809.338623</ele>
        <time>2009-05-31T05:50:10Z</time>
      </trkpt>
      <trkpt lat="44.04843" lon="7.19386">
        <ele>1809.8190918</ele>
        <time>2009-05-31T05:50:15Z</time>
      </trkpt>
      <trkpt lat="44.04844" lon="7.19394">
        <ele>1810.2998047</ele>
        <time>2009-05-31T05:50:22Z</time>
      </trkpt>
      <trkpt lat="44.04845" lon="7.19406">
        <ele>1811.7419434</ele>
        <time>2009-05-31T05:50:31Z</time>
      </trkpt>
      <trkpt lat="44.04848" lon="7.19414">
        <ele>1812.703125</ele>
        <time>2009-05-31T05:50:39Z</time>
      </trkpt>
      <trkpt lat="44.04849" lon="7.19415">
        <ele>1812.703125</ele>
        <time>2009-05-31T05:50:40Z</time>
      </trkpt>
      <trkpt lat="44.0485" lon="7.19426">
        <ele>1813.1838379</ele>
        <time>2009-05-31T05:50:48Z</time>
      </trkpt>
      <trkpt lat="44.04853" lon="7.19438">
        <ele>1814.6257324</ele>
        <time>2009-05-31T05:50:57Z</time>
      </trkpt>
      <trkpt lat="44.04854" lon="7.19442">
        <ele>1815.1064453</ele>
        <time>2009-05-31T05:51:04Z</time>
      </trkpt>
      <trkpt lat="44.04855" lon="7.19444">
        <ele>1815.1064453</ele>
        <time>2009-05-31T05:51:07Z</time>
      </trkpt>
      <trkpt lat="44.04857" lon="7.19451">
        <ele>1817.0290527</ele>
        <time>2009-05-31T05:51:12Z</time>
      </trkpt>
      <trkpt lat="44.0486" lon="7.19458">
        <ele>1820.3937988</ele>
        <time>2009-05-31T05:51:19Z</time>
      </trkpt>
      <trkpt lat="44.0486" lon="7.19467">
        <ele>1820.8745117</ele>
        <time>2009-05-31T05:51:27Z</time>
      </trkpt>
      <trkpt lat="44.0486" lon="7.19479">
        <ele>1823.277832</ele>
        <time>2009-05-31T05:51:36Z</time>
      </trkpt>
      <trkpt lat="44.0486" lon="7.19482">
        <ele>1821.8356934</ele>
        <time>2009-05-31T05:51:38Z</time>
      </trkpt>
      <trkpt lat="44.04858" lon="7.19488">
        <ele>1823.277832</ele>
        <time>2009-05-31T05:51:43Z</time>
      </trkpt>
      <trkpt lat="44.04857" lon="7.19502">
        <ele>1823.277832</ele>
        <time>2009-05-31T05:51:52Z</time>
      </trkpt>
      <trkpt lat="44.04856" lon="7.19516">
        <ele>1826.642334</ele>
        <time>2009-05-31T05:52:00Z</time>
      </trkpt>
      <trkpt lat="44.04856" lon="7.19529">
        <ele>1827.1230469</ele>
        <time>2009-05-31T05:52:09Z</time>
      </trkpt>
      <trkpt lat="44.04857" lon="7.1954">
        <ele>1830.0068359</ele>
        <time>2009-05-31T05:52:18Z</time>
      </trkpt>
      <trkpt lat="44.04858" lon="7.19543">
        <ele>1830.4875488</ele>
        <time>2009-05-31T05:52:21Z</time>
      </trkpt>
      <trkpt lat="44.04857" lon="7.19557">
        <ele>1830.9682617</ele>
        <time>2009-05-31T05:52:31Z</time>
      </trkpt>
      <trkpt lat="44.04856" lon="7.19569">
        <ele>1831.9294434</ele>
        <time>2009-05-31T05:52:40Z</time>
      </trkpt>
      <trkpt lat="44.04854" lon="7.19578">
        <ele>1832.4101562</ele>
        <time>2009-05-31T05:52:47Z</time>
      </trkpt>
      <trkpt lat="44.04855" lon="7.19586">
        <ele>1832.4101562</ele>
        <time>2009-05-31T05:52:54Z</time>
      </trkpt>
      <trkpt lat="44.04854" lon="7.19586">
        <ele>1832.4101562</ele>
        <time>2009-05-31T05:53:21Z</time>
      </trkpt>
      <trkpt lat="44.0485" lon="7.19587">
        <ele>1832.4101562</ele>
        <time>2009-05-31T05:54:15Z</time>
      </trkpt>
      <trkpt lat="44.0485" lon="7.19597">
        <ele>1832.890625</ele>
        <time>2009-05-31T05:54:20Z</time>
      </trkpt>
      <trkpt lat="44.0485" lon="7.19616">
        <ele>1834.3327637</ele>
        <time>2009-05-31T05:54:27Z</time>
      </trkpt>
      <trkpt lat="44.04848" lon="7.19629">
        <ele>1833.3713379</ele>
        <time>2009-05-31T05:54:32Z</time>
      </trkpt>
      <trkpt lat="44.04844" lon="7.19641">
        <ele>1833.8520508</ele>
        <time>2009-05-31T05:54:38Z</time>
      </trkpt>
      <trkpt lat="44.04841" lon="7.19655">
        <ele>1835.7746582</ele>
        <time>2009-05-31T05:54:45Z</time>
      </trkpt>
      <trkpt lat="44.04838" lon="7.19669">
        <ele>1836.736084</ele>
        <time>2009-05-31T05:54:52Z</time>
      </trkpt>
      <trkpt lat="44.04834" lon="7.19682">
        <ele>1838.1782227</ele>
        <time>2009-05-31T05:54:59Z</time>
      </trkpt>
      <trkpt lat="44.04829" lon="7.19695">
        <ele>1840.1008301</ele>
        <time>2009-05-31T05:55:06Z</time>
      </trkpt>
      <trkpt lat="44.04822" lon="7.19709">
        <ele>1842.0234375</ele>
        <time>2009-05-31T05:55:14Z</time>
      </trkpt>
      <trkpt lat="44.04815" lon="7.1972">
        <ele>1842.0234375</ele>
        <time>2009-05-31T05:55:21Z</time>
      </trkpt>
      <trkpt lat="44.04808" lon="7.19734">
        <ele>1843.9460449</ele>
        <time>2009-05-31T05:55:29Z</time>
      </trkpt>
      <trkpt lat="44.04808" lon="7.19734">
        <ele>1843.9460449</ele>
        <time>2009-05-31T05:55:35Z</time>
      </trkpt>
      <trkpt lat="44.04806" lon="7.19737">
        <ele>1843.465332</ele>
        <time>2009-05-31T05:55:43Z</time>
      </trkpt>
      <trkpt lat="44.04804" lon="7.19743">
        <ele>1844.9072266</ele>
        <time>2009-05-31T05:55:50Z</time>
      </trkpt>
      <trkpt lat="44.04802" lon="7.19753">
        <ele>1846.3493652</ele>
        <time>2009-05-31T05:55:58Z</time>
      </trkpt>
      <trkpt lat="44.04799" lon="7.19761">
        <ele>1847.7912598</ele>
        <time>2009-05-31T05:56:04Z</time>
      </trkpt>
      <trkpt lat="44.04793" lon="7.19768">
        <ele>1850.1945801</ele>
        <time>2009-05-31T05:56:13Z</time>
      </trkpt>
      <trkpt lat="44.04791" lon="7.19771">
        <ele>1850.6750488</ele>
        <time>2009-05-31T05:56:17Z</time>
      </trkpt>
      <trkpt lat="44.04785" lon="7.19776">
        <ele>1852.1171875</ele>
        <time>2009-05-31T05:56:27Z</time>
      </trkpt>
      <trkpt lat="44.04778" lon="7.19784">
        <ele>1854.0400391</ele>
        <time>2009-05-31T05:56:39Z</time>
      </trkpt>
      <trkpt lat="44.04772" lon="7.19791">
        <ele>1856.4431152</ele>
        <time>2009-05-31T05:56:49Z</time>
      </trkpt>
      <trkpt lat="44.04769" lon="7.19797">
        <ele>1857.8852539</ele>
        <time>2009-05-31T05:56:57Z</time>
      </trkpt>
      <trkpt lat="44.04766" lon="7.198">
        <ele>1858.8464355</ele>
        <time>2009-05-31T05:57:01Z</time>
      </trkpt>
      <trkpt lat="44.04765" lon="7.19802">
        <ele>1859.8076172</ele>
        <time>2009-05-31T05:57:03Z</time>
      </trkpt>
      <trkpt lat="44.04761" lon="7.19806">
        <ele>1860.2883301</ele>
        <time>2009-05-31T05:57:10Z</time>
      </trkpt>
      <trkpt lat="44.04755" lon="7.1981">
        <ele>1862.6916504</ele>
        <time>2009-05-31T05:57:20Z</time>
      </trkpt>
      <trkpt lat="44.04752" lon="7.19813">
        <ele>1862.6916504</ele>
        <time>2009-05-31T05:57:26Z</time>
      </trkpt>
      <trkpt lat="44.04751" lon="7.19814">
        <ele>1863.652832</ele>
        <time>2009-05-31T05:57:28Z</time>
      </trkpt>
      <trkpt lat="44.04749" lon="7.19816">
        <ele>1864.6142578</ele>
        <time>2009-05-31T05:57:33Z</time>
      </trkpt>
      <trkpt lat="44.04741" lon="7.19821">
        <ele>1865.5756836</ele>
        <time>2009-05-31T05:57:41Z</time>
      </trkpt>
      <trkpt lat="44.04736" lon="7.19827">
        <ele>1867.0175781</ele>
        <time>2009-05-31T05:57:48Z</time>
      </trkpt>
      <trkpt lat="44.04731" lon="7.19835">
        <ele>1868.4597168</ele>
        <time>2009-05-31T05:57:57Z</time>
      </trkpt>
      <trkpt lat="44.04727" lon="7.19839">
        <ele>1869.4211426</ele>
        <time>2009-05-31T05:58:04Z</time>
      </trkpt>
      <trkpt lat="44.04723" lon="7.19847">
        <ele>1870.8630371</ele>
        <time>2009-05-31T05:58:13Z</time>
      </trkpt>
      <trkpt lat="44.04721" lon="7.19854">
        <ele>1871.8242188</ele>
        <time>2009-05-31T05:58:21Z</time>
      </trkpt>
      <trkpt lat="44.04719" lon="7.19861">
        <ele>1874.2275391</ele>
        <time>2009-05-31T05:58:28Z</time>
      </trkpt>
      <trkpt lat="44.04716" lon="7.19869">
        <ele>1874.708252</ele>
        <time>2009-05-31T05:58:36Z</time>
      </trkpt>
      <trkpt lat="44.0471" lon="7.19878">
        <ele>1875.6694336</ele>
        <time>2009-05-31T05:58:44Z</time>
      </trkpt>
      <trkpt lat="44.04706" lon="7.19887">
        <ele>1877.1115723</ele>
        <time>2009-05-31T05:58:52Z</time>
      </trkpt>
      <trkpt lat="44.04704" lon="7.1989">
        <ele>1876.6308594</ele>
        <time>2009-05-31T05:58:55Z</time>
      </trkpt>
      <trkpt lat="44.04699" lon="7.19901">
        <ele>1877.592041</ele>
        <time>2009-05-31T05:59:04Z</time>
      </trkpt>
      <trkpt lat="44.04695" lon="7.19911">
        <ele>1878.0727539</ele>
        <time>2009-05-31T05:59:11Z</time>
      </trkpt>
      <trkpt lat="44.04692" lon="7.1992">
        <ele>1878.0727539</ele>
        <time>2009-05-31T05:59:17Z</time>
      </trkpt>
      <trkpt lat="44.04691" lon="7.19928">
        <ele>1879.0339355</ele>
        <time>2009-05-31T05:59:24Z</time>
      </trkpt>
      <trkpt lat="44.04687" lon="7.1994">
        <ele>1879.9953613</ele>
        <time>2009-05-31T05:59:33Z</time>
      </trkpt>
      <trkpt lat="44.04682" lon="7.19953">
        <ele>1880.9567871</ele>
        <time>2009-05-31T05:59:43Z</time>
      </trkpt>
      <trkpt lat="44.04679" lon="7.19964">
        <ele>1881.4372559</ele>
        <time>2009-05-31T05:59:50Z</time>
      </trkpt>
      <trkpt lat="44.04676" lon="7.19973">
        <ele>1880.9567871</ele>
        <time>2009-05-31T05:59:57Z</time>
      </trkpt>
      <trkpt lat="44.04673" lon="7.19983">
        <ele>1880.9567871</ele>
        <time>2009-05-31T06:00:04Z</time>
      </trkpt>
      <trkpt lat="44.04671" lon="7.19995">
        <ele>1881.9179688</ele>
        <time>2009-05-31T06:00:11Z</time>
      </trkpt>
      <trkpt lat="44.04669" lon="7.20005">
        <ele>1882.8791504</ele>
        <time>2009-05-31T06:00:18Z</time>
      </trkpt>
      <trkpt lat="44.04667" lon="7.20017">
        <ele>1882.8791504</ele>
        <time>2009-05-31T06:00:26Z</time>
      </trkpt>
      <trkpt lat="44.04666" lon="7.20032">
        <ele>1883.8405762</ele>
        <time>2009-05-31T06:00:35Z</time>
      </trkpt>
      <trkpt lat="44.04665" lon="7.20043">
        <ele>1885.7634277</ele>
        <time>2009-05-31T06:00:42Z</time>
      </trkpt>
      <trkpt lat="44.04664" lon="7.2005">
        <ele>1886.2441406</ele>
        <time>2009-05-31T06:00:48Z</time>
      </trkpt>
      <trkpt lat="44.04663" lon="7.20063">
        <ele>1886.7246094</ele>
        <time>2009-05-31T06:00:53Z</time>
      </trkpt>
      <trkpt lat="44.04659" lon="7.20081">
        <ele>1885.7634277</ele>
        <time>2009-05-31T06:00:59Z</time>
      </trkpt>
      <trkpt lat="44.04654" lon="7.20105">
        <ele>1886.2441406</ele>
        <time>2009-05-31T06:01:07Z</time>
      </trkpt>
      <trkpt lat="44.04648" lon="7.2012">
        <ele>1887.2053223</ele>
        <time>2009-05-31T06:01:13Z</time>
      </trkpt>
      <trkpt lat="44.04638" lon="7.20135">
        <ele>1887.2053223</ele>
        <time>2009-05-31T06:01:20Z</time>
      </trkpt>
      <trkpt lat="44.04626" lon="7.20155">
        <ele>1888.166748</ele>
        <time>2009-05-31T06:01:30Z</time>
      </trkpt>
      <trkpt lat="44.04616" lon="7.20165">
        <ele>1888.6474609</ele>
        <time>2009-05-31T06:01:37Z</time>
      </trkpt>
      <trkpt lat="44.0461" lon="7.20173">
        <ele>1891.53125</ele>
        <time>2009-05-31T06:01:41Z</time>
      </trkpt>
      <trkpt lat="44.04604" lon="7.20179">
        <ele>1892.4926758</ele>
        <time>2009-05-31T06:01:46Z</time>
      </trkpt>
      <trkpt lat="44.04604" lon="7.20178">
        <ele>1892.9731445</ele>
        <time>2009-05-31T06:01:49Z</time>
      </trkpt>
      <trkpt lat="44.046" lon="7.20187">
        <ele>1893.4538574</ele>
        <time>2009-05-31T06:01:57Z</time>
      </trkpt>
      <trkpt lat="44.04598" lon="7.20189">
        <ele>1894.895752</ele>
        <time>2009-05-31T06:02:00Z</time>
      </trkpt>
      <trkpt lat="44.04596" lon="7.20193">
        <ele>1895.3764648</ele>
        <time>2009-05-31T06:02:05Z</time>
      </trkpt>
      <trkpt lat="44.04591" lon="7.20203">
        <ele>1896.8183594</ele>
        <time>2009-05-31T06:02:14Z</time>
      </trkpt>
      <trkpt lat="44.04587" lon="7.20207">
        <ele>1897.2990723</ele>
        <time>2009-05-31T06:02:22Z</time>
      </trkpt>
      <trkpt lat="44.0458" lon="7.20213">
        <ele>1897.2990723</ele>
        <time>2009-05-31T06:02:29Z</time>
      </trkpt>
      <trkpt lat="44.04581" lon="7.20212">
        <ele>1898.2602539</ele>
        <time>2009-05-31T06:02:48Z</time>
      </trkpt>
      <trkpt lat="44.04571" lon="7.20218">
        <ele>1896.8183594</ele>
        <time>2009-05-31T06:02:53Z</time>
      </trkpt>
      <trkpt lat="44.04554" lon="7.2023">
        <ele>1895.3764648</ele>
        <time>2009-05-31T06:02:58Z</time>
      </trkpt>
      <trkpt lat="44.04542" lon="7.20235">
        <ele>1894.895752</ele>
        <time>2009-05-31T06:03:01Z</time>
      </trkpt>
      <trkpt lat="44.04518" lon="7.20255">
        <ele>1893.9345703</ele>
        <time>2009-05-31T06:03:07Z</time>
      </trkpt>
      <trkpt lat="44.04492" lon="7.20289">
        <ele>1892.4926758</ele>
        <time>2009-05-31T06:03:14Z</time>
      </trkpt>
      <trkpt lat="44.04482" lon="7.20314">
        <ele>1892.4926758</ele>
        <time>2009-05-31T06:03:18Z</time>
      </trkpt>
      <trkpt lat="44.04481" lon="7.20318">
        <ele>1893.9345703</ele>
        <time>2009-05-31T06:03:19Z</time>
      </trkpt>
      <trkpt lat="44.04469" lon="7.20335">
        <ele>1893.9345703</ele>
        <time>2009-05-31T06:03:25Z</time>
      </trkpt>
      <trkpt lat="44.04457" lon="7.20352">
        <ele>1893.4538574</ele>
        <time>2009-05-31T06:03:30Z</time>
      </trkpt>
      <trkpt lat="44.04453" lon="7.20356">
        <ele>1895.3764648</ele>
        <time>2009-05-31T06:03:32Z</time>
      </trkpt>
      <trkpt lat="44.04449" lon="7.2036">
        <ele>1895.3764648</ele>
        <time>2009-05-31T06:03:34Z</time>
      </trkpt>
      <trkpt lat="44.0444" lon="7.2037">
        <ele>1896.3378906</ele>
        <time>2009-05-31T06:03:39Z</time>
      </trkpt>
      <trkpt lat="44.04429" lon="7.20382">
        <ele>1898.2602539</ele>
        <time>2009-05-31T06:03:46Z</time>
      </trkpt>
      <trkpt lat="44.04416" lon="7.20396">
        <ele>1899.7023926</ele>
        <time>2009-05-31T06:03:54Z</time>
      </trkpt>
      <trkpt lat="44.044" lon="7.20407">
        <ele>1898.7409668</ele>
        <time>2009-05-31T06:04:00Z</time>
      </trkpt>
      <trkpt lat="44.04381" lon="7.2042">
        <ele>1899.2216797</ele>
        <time>2009-05-31T06:04:07Z</time>
      </trkpt>
      <trkpt lat="44.04363" lon="7.20432">
        <ele>1900.1833496</ele>
        <time>2009-05-31T06:04:14Z</time>
      </trkpt>
      <trkpt lat="44.04347" lon="7.20441">
        <ele>1900.6638184</ele>
        <time>2009-05-31T06:04:21Z</time>
      </trkpt>
      <trkpt lat="44.04334" lon="7.20448">
        <ele>1902.5864258</ele>
        <time>2009-05-31T06:04:27Z</time>
      </trkpt>
      <trkpt lat="44.04324" lon="7.20452">
        <ele>1904.0285645</ele>
        <time>2009-05-31T06:04:33Z</time>
      </trkpt>
      <trkpt lat="44.04312" lon="7.20458">
        <ele>1905.9509277</ele>
        <time>2009-05-31T06:04:42Z</time>
      </trkpt>
      <trkpt lat="44.04299" lon="7.20467">
        <ele>1907.3930664</ele>
        <time>2009-05-31T06:04:50Z</time>
      </trkpt>
      <trkpt lat="44.04289" lon="7.20474">
        <ele>1908.8349609</ele>
        <time>2009-05-31T06:04:56Z</time>
      </trkpt>
      <trkpt lat="44.04279" lon="7.20478">
        <ele>1909.3156738</ele>
        <time>2009-05-31T06:05:02Z</time>
      </trkpt>
      <trkpt lat="44.04274" lon="7.2048">
        <ele>1912.1994629</ele>
        <time>2009-05-31T06:05:06Z</time>
      </trkpt>
      <trkpt lat="44.04258" lon="7.20482">
        <ele>1913.1608887</ele>
        <time>2009-05-31T06:05:15Z</time>
      </trkpt>
      <trkpt lat="44.04249" lon="7.2048">
        <ele>1915.0834961</ele>
        <time>2009-05-31T06:05:20Z</time>
      </trkpt>
      <trkpt lat="44.04235" lon="7.20477">
        <ele>1916.0449219</ele>
        <time>2009-05-31T06:05:28Z</time>
      </trkpt>
      <trkpt lat="44.04219" lon="7.20473">
        <ele>1916.0449219</ele>
        <time>2009-05-31T06:05:37Z</time>
      </trkpt>
      <trkpt lat="44.04202" lon="7.20471">
        <ele>1917.0063477</ele>
        <time>2009-05-31T06:05:45Z</time>
      </trkpt>
      <trkpt lat="44.04183" lon="7.20475">
        <ele>1917.4868164</ele>
        <time>2009-05-31T06:05:54Z</time>
      </trkpt>
      <trkpt lat="44.04165" lon="7.20482">
        <ele>1919.8901367</ele>
        <time>2009-05-31T06:06:03Z</time>
      </trkpt>
      <trkpt lat="44.04157" lon="7.20486">
        <ele>1922.7741699</ele>
        <time>2009-05-31T06:06:09Z</time>
      </trkpt>
      <trkpt lat="44.04151" lon="7.20488">
        <ele>1922.293457</ele>
        <time>2009-05-31T06:06:14Z</time>
      </trkpt>
      <trkpt lat="44.04148" lon="7.20489">
        <ele>1923.7353516</ele>
        <time>2009-05-31T06:06:16Z</time>
      </trkpt>
      <trkpt lat="44.04146" lon="7.20489">
        <ele>1924.2160645</ele>
        <time>2009-05-31T06:06:19Z</time>
      </trkpt>
      <trkpt lat="44.04141" lon="7.20485">
        <ele>1924.6967773</ele>
        <time>2009-05-31T06:06:23Z</time>
      </trkpt>
      <trkpt lat="44.0413" lon="7.20481">
        <ele>1925.1772461</ele>
        <time>2009-05-31T06:06:31Z</time>
      </trkpt>
      <trkpt lat="44.04117" lon="7.20479">
        <ele>1926.6193848</ele>
        <time>2009-05-31T06:06:40Z</time>
      </trkpt>
      <trkpt lat="44.04105" lon="7.20482">
        <ele>1926.6193848</ele>
        <time>2009-05-31T06:06:48Z</time>
      </trkpt>
      <trkpt lat="44.0409" lon="7.20485">
        <ele>1926.6193848</ele>
        <time>2009-05-31T06:06:57Z</time>
      </trkpt>
      <trkpt lat="44.04078" lon="7.20473">
        <ele>1927.1000977</ele>
        <time>2009-05-31T06:07:06Z</time>
      </trkpt>
      <trkpt lat="44.04068" lon="7.20462">
        <ele>1929.0224609</ele>
        <time>2009-05-31T06:07:17Z</time>
      </trkpt>
      <trkpt lat="44.04062" lon="7.20457">
        <ele>1930.4645996</ele>
        <time>2009-05-31T06:07:24Z</time>
      </trkpt>
      <trkpt lat="44.04057" lon="7.20457">
        <ele>1930.9453125</ele>
        <time>2009-05-31T06:07:30Z</time>
      </trkpt>
      <trkpt lat="44.04051" lon="7.20457">
        <ele>1933.3486328</ele>
        <time>2009-05-31T06:07:37Z</time>
      </trkpt>
      <trkpt lat="44.04043" lon="7.20456">
        <ele>1935.7519531</ele>
        <time>2009-05-31T06:07:46Z</time>
      </trkpt>
      <trkpt lat="44.04038" lon="7.20456">
        <ele>1936.7131348</ele>
        <time>2009-05-31T06:07:52Z</time>
      </trkpt>
      <trkpt lat="44.04034" lon="7.20455">
        <ele>1938.1552734</ele>
        <time>2009-05-31T06:07:57Z</time>
      </trkpt>
      <trkpt lat="44.04028" lon="7.20452">
        <ele>1939.597168</ele>
        <time>2009-05-31T06:08:05Z</time>
      </trkpt>
      <trkpt lat="44.04021" lon="7.20448">
        <ele>1941.0390625</ele>
        <time>2009-05-31T06:08:14Z</time>
      </trkpt>
      <trkpt lat="44.04017" lon="7.20444">
        <ele>1942.9616699</ele>
        <time>2009-05-31T06:08:22Z</time>
      </trkpt>
      <trkpt lat="44.0401" lon="7.20442">
        <ele>1944.4035645</ele>
        <time>2009-05-31T06:08:31Z</time>
      </trkpt>
      <trkpt lat="44.04003" lon="7.20438">
        <ele>1945.3649902</ele>
        <time>2009-05-31T06:08:39Z</time>
      </trkpt>
      <trkpt lat="44.03996" lon="7.20436">
        <ele>1946.326416</ele>
        <time>2009-05-31T06:08:47Z</time>
      </trkpt>
      <trkpt lat="44.0399" lon="7.20431">
        <ele>1948.2490234</ele>
        <time>2009-05-31T06:08:55Z</time>
      </trkpt>
      <trkpt lat="44.03985" lon="7.20428">
        <ele>1948.7297363</ele>
        <time>2009-05-31T06:09:01Z</time>
      </trkpt>
      <trkpt lat="44.03983" lon="7.20427">
        <ele>1950.171875</ele>
        <time>2009-05-31T06:09:04Z</time>
      </trkpt>
      <trkpt lat="44.03975" lon="7.20423">
        <ele>1953.0556641</ele>
        <time>2009-05-31T06:09:12Z</time>
      </trkpt>
      <trkpt lat="44.0397" lon="7.20421">
        <ele>1953.536377</ele>
        <time>2009-05-31T06:09:19Z</time>
      </trkpt>
      <trkpt lat="44.03966" lon="7.20419">
        <ele>1955.4589844</ele>
        <time>2009-05-31T06:09:24Z</time>
      </trkpt>
      <trkpt lat="44.03963" lon="7.2042">
        <ele>1956.9008789</ele>
        <time>2009-05-31T06:09:29Z</time>
      </trkpt>
      <trkpt lat="44.03961" lon="7.20418">
        <ele>1958.3427734</ele>
        <time>2009-05-31T06:09:31Z</time>
      </trkpt>
      <trkpt lat="44.03952" lon="7.20414">
        <ele>1959.3041992</ele>
        <time>2009-05-31T06:09:40Z</time>
      </trkpt>
      <trkpt lat="44.03949" lon="7.20413">
        <ele>1959.3041992</ele>
        <time>2009-05-31T06:09:44Z</time>
      </trkpt>
      <trkpt lat="44.03939" lon="7.20414">
        <ele>1962.1879883</ele>
        <time>2009-05-31T06:09:54Z</time>
      </trkpt>
      <trkpt lat="44.03933" lon="7.2042">
        <ele>1962.6687012</ele>
        <time>2009-05-31T06:10:02Z</time>
      </trkpt>
      <trkpt lat="44.03933" lon="7.2042">
        <ele>1962.6687012</ele>
        <time>2009-05-31T06:10:04Z</time>
      </trkpt>
      <trkpt lat="44.03929" lon="7.20432">
        <ele>1963.1494141</ele>
        <time>2009-05-31T06:10:11Z</time>
      </trkpt>
      <trkpt lat="44.03927" lon="7.20454">
        <ele>1964.5915527</ele>
        <time>2009-05-31T06:10:20Z</time>
      </trkpt>
      <trkpt lat="44.03925" lon="7.20483">
        <ele>1964.1108398</ele>
        <time>2009-05-31T06:10:29Z</time>
      </trkpt>
      <trkpt lat="44.03924" lon="7.20506">
        <ele>1963.1494141</ele>
        <time>2009-05-31T06:10:34Z</time>
      </trkpt>
      <trkpt lat="44.03916" lon="7.20522">
        <ele>1962.1879883</ele>
        <time>2009-05-31T06:10:38Z</time>
      </trkpt>
      <trkpt lat="44.03904" lon="7.20547">
        <ele>1961.2268066</ele>
        <time>2009-05-31T06:10:43Z</time>
      </trkpt>
      <trkpt lat="44.03895" lon="7.20562">
        <ele>1959.784668</ele>
        <time>2009-05-31T06:10:46Z</time>
      </trkpt>
      <trkpt lat="44.03879" lon="7.20591">
        <ele>1960.7460938</ele>
        <time>2009-05-31T06:10:51Z</time>
      </trkpt>
      <trkpt lat="44.03872" lon="7.20612">
        <ele>1961.7075195</ele>
        <time>2009-05-31T06:10:55Z</time>
      </trkpt>
      <trkpt lat="44.0386" lon="7.20639">
        <ele>1964.1108398</ele>
        <time>2009-05-31T06:11:04Z</time>
      </trkpt>
      <trkpt lat="44.03858" lon="7.20643">
        <ele>1965.0722656</ele>
        <time>2009-05-31T06:11:06Z</time>
      </trkpt>
      <trkpt lat="44.03852" lon="7.2066">
        <ele>1967.4753418</ele>
        <time>2009-05-31T06:11:14Z</time>
      </trkpt>
      <trkpt lat="44.03849" lon="7.20673">
        <ele>1968.4367676</ele>
        <time>2009-05-31T06:11:21Z</time>
      </trkpt>
      <trkpt lat="44.03847" lon="7.20679">
        <ele>1968.4367676</ele>
        <time>2009-05-31T06:11:25Z</time>
      </trkpt>
      <trkpt lat="44.03842" lon="7.20687">
        <ele>1968.9174805</ele>
        <time>2009-05-31T06:11:30Z</time>
      </trkpt>
      <trkpt lat="44.03835" lon="7.20705">
        <ele>1971.3205566</ele>
        <time>2009-05-31T06:11:38Z</time>
      </trkpt>
      <trkpt lat="44.03834" lon="7.20712">
        <ele>1972.2819824</ele>
        <time>2009-05-31T06:11:41Z</time>
      </trkpt>
      <trkpt lat="44.0383" lon="7.20729">
        <ele>1974.2045898</ele>
        <time>2009-05-31T06:11:49Z</time>
      </trkpt>
      <trkpt lat="44.03826" lon="7.20743">
        <ele>1975.1657715</ele>
        <time>2009-05-31T06:11:56Z</time>
      </trkpt>
      <trkpt lat="44.03822" lon="7.20759">
        <ele>1975.6464844</ele>
        <time>2009-05-31T06:12:03Z</time>
      </trkpt>
      <trkpt lat="44.03813" lon="7.20775">
        <ele>1977.5690918</ele>
        <time>2009-05-31T06:12:11Z</time>
      </trkpt>
      <trkpt lat="44.03805" lon="7.20793">
        <ele>1978.0498047</ele>
        <time>2009-05-31T06:12:19Z</time>
      </trkpt>
      <trkpt lat="44.03795" lon="7.20811">
        <ele>1978.5305176</ele>
        <time>2009-05-31T06:12:26Z</time>
      </trkpt>
      <trkpt lat="44.0378" lon="7.20835">
        <ele>1978.0498047</ele>
        <time>2009-05-31T06:12:35Z</time>
      </trkpt>
      <trkpt lat="44.03769" lon="7.20855">
        <ele>1979.9724121</ele>
        <time>2009-05-31T06:12:42Z</time>
      </trkpt>
      <trkpt lat="44.03759" lon="7.20873">
        <ele>1980.934082</ele>
        <time>2009-05-31T06:12:50Z</time>
      </trkpt>
      <trkpt lat="44.03748" lon="7.20884">
        <ele>1983.3371582</ele>
        <time>2009-05-31T06:12:58Z</time>
      </trkpt>
      <trkpt lat="44.03733" lon="7.20892">
        <ele>1985.7404785</ele>
        <time>2009-05-31T06:13:07Z</time>
      </trkpt>
      <trkpt lat="44.03722" lon="7.20891">
        <ele>1986.7016602</ele>
        <time>2009-05-31T06:13:13Z</time>
      </trkpt>
      <trkpt lat="44.03708" lon="7.20885">
        <ele>1986.7016602</ele>
        <time>2009-05-31T06:13:19Z</time>
      </trkpt>
      <trkpt lat="44.03695" lon="7.20889">
        <ele>1987.182373</ele>
        <time>2009-05-31T06:13:24Z</time>
      </trkpt>
      <trkpt lat="44.03686" lon="7.20896">
        <ele>1986.2211914</ele>
        <time>2009-05-31T06:13:27Z</time>
      </trkpt>
      <trkpt lat="44.03662" lon="7.20904">
        <ele>1982.8564453</ele>
        <time>2009-05-31T06:13:32Z</time>
      </trkpt>
      <trkpt lat="44.03648" lon="7.20905">
        <ele>1983.3371582</ele>
        <time>2009-05-31T06:13:35Z</time>
      </trkpt>
      <trkpt lat="44.03629" lon="7.20914">
        <ele>1981.8952637</ele>
        <time>2009-05-31T06:13:40Z</time>
      </trkpt>
      <trkpt lat="44.03625" lon="7.20916">
        <ele>1981.4145508</ele>
        <time>2009-05-31T06:13:41Z</time>
      </trkpt>
      <trkpt lat="44.03618" lon="7.2092">
        <ele>1981.4145508</ele>
        <time>2009-05-31T06:13:43Z</time>
      </trkpt>
      <trkpt lat="44.03608" lon="7.20933">
        <ele>1980.934082</ele>
        <time>2009-05-31T06:13:47Z</time>
      </trkpt>
      <trkpt lat="44.03607" lon="7.20936">
        <ele>1981.4145508</ele>
        <time>2009-05-31T06:13:48Z</time>
      </trkpt>
      <trkpt lat="44.03607" lon="7.20941">
        <ele>1982.3759766</ele>
        <time>2009-05-31T06:13:50Z</time>
      </trkpt>
      <trkpt lat="44.03603" lon="7.2096">
        <ele>1982.8564453</ele>
        <time>2009-05-31T06:13:57Z</time>
      </trkpt>
      <trkpt lat="44.03603" lon="7.20966">
        <ele>1983.3371582</ele>
        <time>2009-05-31T06:13:59Z</time>
      </trkpt>
      <trkpt lat="44.03595" lon="7.20979">
        <ele>1984.298584</ele>
        <time>2009-05-31T06:14:05Z</time>
      </trkpt>
      <trkpt lat="44.03587" lon="7.20987">
        <ele>1984.7792969</ele>
        <time>2009-05-31T06:14:09Z</time>
      </trkpt>
      <trkpt lat="44.03576" lon="7.20997">
        <ele>1987.182373</ele>
        <time>2009-05-31T06:14:16Z</time>
      </trkpt>
      <trkpt lat="44.03569" lon="7.20998">
        <ele>1988.1437988</ele>
        <time>2009-05-31T06:14:22Z</time>
      </trkpt>
      <trkpt lat="44.03565" lon="7.20998">
        <ele>1988.6245117</ele>
        <time>2009-05-31T06:14:29Z</time>
      </trkpt>
      <trkpt lat="44.03559" lon="7.21004">
        <ele>1989.1049805</ele>
        <time>2009-05-31T06:14:36Z</time>
      </trkpt>
      <trkpt lat="44.03556" lon="7.21008">
        <ele>1989.1049805</ele>
        <time>2009-05-31T06:14:39Z</time>
      </trkpt>
      <trkpt lat="44.03548" lon="7.21017">
        <ele>1989.5856934</ele>
        <time>2009-05-31T06:14:44Z</time>
      </trkpt>
      <trkpt lat="44.03536" lon="7.21024">
        <ele>1989.5856934</ele>
        <time>2009-05-31T06:14:50Z</time>
      </trkpt>
      <trkpt lat="44.0352" lon="7.2103">
        <ele>1991.9890137</ele>
        <time>2009-05-31T06:14:58Z</time>
      </trkpt>
      <trkpt lat="44.0351" lon="7.21038">
        <ele>1991.5083008</ele>
        <time>2009-05-31T06:15:03Z</time>
      </trkpt>
      <trkpt lat="44.03498" lon="7.21044">
        <ele>1991.0275879</ele>
        <time>2009-05-31T06:15:09Z</time>
      </trkpt>
      <trkpt lat="44.0349" lon="7.21049">
        <ele>1992.9501953</ele>
        <time>2009-05-31T06:15:13Z</time>
      </trkpt>
      <trkpt lat="44.03479" lon="7.21056">
        <ele>1995.8342285</ele>
        <time>2009-05-31T06:15:20Z</time>
      </trkpt>
      <trkpt lat="44.03469" lon="7.2106">
        <ele>1995.8342285</ele>
        <time>2009-05-31T06:15:27Z</time>
      </trkpt>
      <trkpt lat="44.03462" lon="7.21064">
        <ele>1998.2375488</ele>
        <time>2009-05-31T06:15:34Z</time>
      </trkpt>
      <trkpt lat="44.03456" lon="7.21066">
        <ele>2000.1604004</ele>
        <time>2009-05-31T06:15:41Z</time>
      </trkpt>
      <trkpt lat="44.03456" lon="7.21067">
        <ele>2000.6408691</ele>
        <time>2009-05-31T06:15:42Z</time>
      </trkpt>
      <trkpt lat="44.03448" lon="7.21071">
        <ele>2002.0827637</ele>
        <time>2009-05-31T06:15:51Z</time>
      </trkpt>
      <trkpt lat="44.03442" lon="7.21076">
        <ele>2003.0441895</ele>
        <time>2009-05-31T06:15:58Z</time>
      </trkpt>
      <trkpt lat="44.03433" lon="7.21082">
        <ele>2003.0441895</ele>
        <time>2009-05-31T06:16:05Z</time>
      </trkpt>
      <trkpt lat="44.03428" lon="7.21087">
        <ele>2004.0056152</ele>
        <time>2009-05-31T06:16:11Z</time>
      </trkpt>
      <trkpt lat="44.03419" lon="7.2109">
        <ele>2004.486084</ele>
        <time>2009-05-31T06:16:20Z</time>
      </trkpt>
      <trkpt lat="44.03408" lon="7.21094">
        <ele>2004.486084</ele>
        <time>2009-05-31T06:16:29Z</time>
      </trkpt>
      <trkpt lat="44.03402" lon="7.21097">
        <ele>2005.9279785</ele>
        <time>2009-05-31T06:16:35Z</time>
      </trkpt>
      <trkpt lat="44.03395" lon="7.211">
        <ele>2008.8120117</ele>
        <time>2009-05-31T06:16:42Z</time>
      </trkpt>
      <trkpt lat="44.03387" lon="7.21105">
        <ele>2009.2927246</ele>
        <time>2009-05-31T06:16:51Z</time>
      </trkpt>
      <trkpt lat="44.0338" lon="7.2111">
        <ele>2010.7346191</ele>
        <time>2009-05-31T06:17:00Z</time>
      </trkpt>
      <trkpt lat="44.03376" lon="7.21113">
        <ele>2010.7346191</ele>
        <time>2009-05-31T06:17:06Z</time>
      </trkpt>
      <trkpt lat="44.03369" lon="7.21115">
        <ele>2010.2539062</ele>
        <time>2009-05-31T06:17:11Z</time>
      </trkpt>
      <trkpt lat="44.03353" lon="7.21117">
        <ele>2011.215332</ele>
        <time>2009-05-31T06:17:18Z</time>
      </trkpt>
      <trkpt lat="44.03339" lon="7.21112">
        <ele>2011.6960449</ele>
        <time>2009-05-31T06:17:24Z</time>
      </trkpt>
      <trkpt lat="44.03325" lon="7.21102">
        <ele>2013.1381836</ele>
        <time>2009-05-31T06:17:30Z</time>
      </trkpt>
      <trkpt lat="44.03318" lon="7.21094">
        <ele>2013.1381836</ele>
        <time>2009-05-31T06:17:35Z</time>
      </trkpt>
      <trkpt lat="44.03303" lon="7.21093">
        <ele>2013.1381836</ele>
        <time>2009-05-31T06:17:40Z</time>
      </trkpt>
      <trkpt lat="44.03289" lon="7.21097">
        <ele>2013.1381836</ele>
        <time>2009-05-31T06:17:45Z</time>
      </trkpt>
      <trkpt lat="44.03282" lon="7.21101">
        <ele>2011.6960449</ele>
        <time>2009-05-31T06:17:47Z</time>
      </trkpt>
      <trkpt lat="44.03263" lon="7.21113">
        <ele>2011.6960449</ele>
        <time>2009-05-31T06:17:52Z</time>
      </trkpt>
      <trkpt lat="44.03252" lon="7.21125">
        <ele>2013.6186523</ele>
        <time>2009-05-31T06:17:57Z</time>
      </trkpt>
      <trkpt lat="44.03245" lon="7.21137">
        <ele>2013.6186523</ele>
        <time>2009-05-31T06:18:01Z</time>
      </trkpt>
      <trkpt lat="44.03241" lon="7.21146">
        <ele>2012.6574707</ele>
        <time>2009-05-31T06:18:03Z</time>
      </trkpt>
      <trkpt lat="44.03222" lon="7.21176">
        <ele>2010.2539062</ele>
        <time>2009-05-31T06:18:08Z</time>
      </trkpt>
      <trkpt lat="44.03208" lon="7.21204">
        <ele>2005.9279785</ele>
        <time>2009-05-31T06:18:12Z</time>
      </trkpt>
      <trkpt lat="44.03203" lon="7.21235">
        <ele>2001.6022949</ele>
        <time>2009-05-31T06:18:16Z</time>
      </trkpt>
      <trkpt lat="44.03207" lon="7.2127">
        <ele>1997.7570801</ele>
        <time>2009-05-31T06:18:20Z</time>
      </trkpt>
      <trkpt lat="44.0321" lon="7.21294">
        <ele>1993.4309082</ele>
        <time>2009-05-31T06:18:23Z</time>
      </trkpt>
      <trkpt lat="44.03212" lon="7.21315">
        <ele>1988.6245117</ele>
        <time>2009-05-31T06:18:26Z</time>
      </trkpt>
      <trkpt lat="44.03212" lon="7.21335">
        <ele>1986.7016602</ele>
        <time>2009-05-31T06:18:29Z</time>
      </trkpt>
      <trkpt lat="44.03213" lon="7.21358">
        <ele>1983.3371582</ele>
        <time>2009-05-31T06:18:32Z</time>
      </trkpt>
      <trkpt lat="44.03212" lon="7.21376">
        <ele>1981.4145508</ele>
        <time>2009-05-31T06:18:35Z</time>
      </trkpt>
      <trkpt lat="44.03212" lon="7.21394">
        <ele>1979.4916992</ele>
        <time>2009-05-31T06:18:38Z</time>
      </trkpt>
      <trkpt lat="44.03209" lon="7.21414">
        <ele>1976.6079102</ele>
        <time>2009-05-31T06:18:41Z</time>
      </trkpt>
      <trkpt lat="44.03208" lon="7.21432">
        <ele>1973.2434082</ele>
        <time>2009-05-31T06:18:44Z</time>
      </trkpt>
      <trkpt lat="44.03208" lon="7.21446">
        <ele>1972.7626953</ele>
        <time>2009-05-31T06:18:46Z</time>
      </trkpt>
      <trkpt lat="44.0321" lon="7.21486">
        <ele>1970.8400879</ele>
        <time>2009-05-31T06:18:52Z</time>
      </trkpt>
      <trkpt lat="44.03199" lon="7.21505">
        <ele>1968.4367676</ele>
        <time>2009-05-31T06:18:55Z</time>
      </trkpt>
      <trkpt lat="44.03187" lon="7.21521">
        <ele>1965.0722656</ele>
        <time>2009-05-31T06:18:59Z</time>
      </trkpt>
      <trkpt lat="44.03178" lon="7.21547">
        <ele>1966.0334473</ele>
        <time>2009-05-31T06:19:05Z</time>
      </trkpt>
      <trkpt lat="44.0316" lon="7.21565">
        <ele>1966.0334473</ele>
        <time>2009-05-31T06:19:12Z</time>
      </trkpt>
      <trkpt lat="44.03155" lon="7.21572">
        <ele>1965.5529785</ele>
        <time>2009-05-31T06:19:16Z</time>
      </trkpt>
      <trkpt lat="44.03151" lon="7.21575">
        <ele>1965.5529785</ele>
        <time>2009-05-31T06:19:21Z</time>
      </trkpt>
      <trkpt lat="44.03147" lon="7.21578">
        <ele>1964.5915527</ele>
        <time>2009-05-31T06:19:28Z</time>
      </trkpt>
      <trkpt lat="44.0314" lon="7.21583">
        <ele>1963.6298828</ele>
        <time>2009-05-31T06:19:32Z</time>
      </trkpt>
      <trkpt lat="44.03132" lon="7.2159">
        <ele>1962.1879883</ele>
        <time>2009-05-31T06:19:35Z</time>
      </trkpt>
      <trkpt lat="44.03123" lon="7.21597">
        <ele>1959.3041992</ele>
        <time>2009-05-31T06:19:37Z</time>
      </trkpt>
      <trkpt lat="44.03106" lon="7.21613">
        <ele>1955.9394531</ele>
        <time>2009-05-31T06:19:41Z</time>
      </trkpt>
      <trkpt lat="44.03099" lon="7.21622">
        <ele>1954.4975586</ele>
        <time>2009-05-31T06:19:43Z</time>
      </trkpt>
      <trkpt lat="44.03086" lon="7.21635">
        <ele>1951.6137695</ele>
        <time>2009-05-31T06:19:46Z</time>
      </trkpt>
      <trkpt lat="44.03066" lon="7.21642">
        <ele>1949.6911621</ele>
        <time>2009-05-31T06:19:50Z</time>
      </trkpt>
      <trkpt lat="44.03045" lon="7.21647">
        <ele>1944.4035645</ele>
        <time>2009-05-31T06:19:54Z</time>
      </trkpt>
      <trkpt lat="44.03038" lon="7.21651">
        <ele>1943.9230957</ele>
        <time>2009-05-31T06:19:56Z</time>
      </trkpt>
      <trkpt lat="44.03024" lon="7.21675">
        <ele>1943.4423828</ele>
        <time>2009-05-31T06:20:02Z</time>
      </trkpt>
      <trkpt lat="44.03018" lon="7.21695">
        <ele>1942.9616699</ele>
        <time>2009-05-31T06:20:07Z</time>
      </trkpt>
      <trkpt lat="44.03018" lon="7.21695">
        <ele>1943.4423828</ele>
        <time>2009-05-31T06:20:08Z</time>
      </trkpt>
      <trkpt lat="44.03012" lon="7.21704">
        <ele>1942.9616699</ele>
        <time>2009-05-31T06:20:15Z</time>
      </trkpt>
      <trkpt lat="44.03009" lon="7.21707">
        <ele>1942.0004883</ele>
        <time>2009-05-31T06:20:19Z</time>
      </trkpt>
      <trkpt lat="44.03003" lon="7.21715">
        <ele>1943.4423828</ele>
        <time>2009-05-31T06:20:26Z</time>
      </trkpt>
      <trkpt lat="44.02999" lon="7.21719">
        <ele>1944.8842773</ele>
        <time>2009-05-31T06:20:31Z</time>
      </trkpt>
      <trkpt lat="44.02994" lon="7.2172">
        <ele>1944.8842773</ele>
        <time>2009-05-31T06:20:36Z</time>
      </trkpt>
      <trkpt lat="44.02986" lon="7.21716">
        <ele>1947.2875977</ele>
        <time>2009-05-31T06:20:44Z</time>
      </trkpt>
      <trkpt lat="44.02983" lon="7.21715">
        <ele>1947.7683105</ele>
        <time>2009-05-31T06:20:48Z</time>
      </trkpt>
      <trkpt lat="44.02978" lon="7.21718">
        <ele>1947.2875977</ele>
        <time>2009-05-31T06:20:52Z</time>
      </trkpt>
      <trkpt lat="44.02974" lon="7.21721">
        <ele>1946.8068848</ele>
        <time>2009-05-31T06:20:58Z</time>
      </trkpt>
      <trkpt lat="44.0297" lon="7.21725">
        <ele>1946.8068848</ele>
        <time>2009-05-31T06:21:03Z</time>
      </trkpt>
      <trkpt lat="44.02963" lon="7.21732">
        <ele>1944.4035645</ele>
        <time>2009-05-31T06:21:08Z</time>
      </trkpt>
      <trkpt lat="44.0296" lon="7.21736">
        <ele>1944.8842773</ele>
        <time>2009-05-31T06:21:09Z</time>
      </trkpt>
      <trkpt lat="44.02952" lon="7.21743">
        <ele>1943.9230957</ele>
        <time>2009-05-31T06:21:11Z</time>
      </trkpt>
      <trkpt lat="44.02933" lon="7.21749">
        <ele>1941.5197754</ele>
        <time>2009-05-31T06:21:15Z</time>
      </trkpt>
      <trkpt lat="44.0292" lon="7.21749">
        <ele>1942.0004883</ele>
        <time>2009-05-31T06:21:19Z</time>
      </trkpt>
      <trkpt lat="44.02916" lon="7.21751">
        <ele>1943.4423828</ele>
        <time>2009-05-31T06:21:24Z</time>
      </trkpt>
      <trkpt lat="44.02911" lon="7.2175">
        <ele>1943.9230957</ele>
        <time>2009-05-31T06:21:30Z</time>
      </trkpt>
      <trkpt lat="44.02904" lon="7.2175">
        <ele>1945.8457031</ele>
        <time>2009-05-31T06:21:36Z</time>
      </trkpt>
      <trkpt lat="44.02899" lon="7.21754">
        <ele>1944.8842773</ele>
        <time>2009-05-31T06:21:41Z</time>
      </trkpt>
      <trkpt lat="44.02894" lon="7.2177">
        <ele>1942.9616699</ele>
        <time>2009-05-31T06:21:46Z</time>
      </trkpt>
      <trkpt lat="44.02891" lon="7.21786">
        <ele>1942.4812012</ele>
        <time>2009-05-31T06:21:52Z</time>
      </trkpt>
      <trkpt lat="44.02891" lon="7.21796">
        <ele>1942.4812012</ele>
        <time>2009-05-31T06:21:56Z</time>
      </trkpt>
      <trkpt lat="44.02891" lon="7.21804">
        <ele>1943.4423828</ele>
        <time>2009-05-31T06:22:01Z</time>
      </trkpt>
      <trkpt lat="44.02889" lon="7.21811">
        <ele>1943.4423828</ele>
        <time>2009-05-31T06:22:04Z</time>
      </trkpt>
      <trkpt lat="44.02873" lon="7.21833">
        <ele>1940.0778809</ele>
        <time>2009-05-31T06:22:09Z</time>
      </trkpt>
      <trkpt lat="44.02869" lon="7.21837">
        <ele>1940.0778809</ele>
        <time>2009-05-31T06:22:10Z</time>
      </trkpt>
      <trkpt lat="44.02857" lon="7.21844">
        <ele>1938.6359863</ele>
        <time>2009-05-31T06:22:13Z</time>
      </trkpt>
      <trkpt lat="44.02852" lon="7.21847">
        <ele>1937.6745605</ele>
        <time>2009-05-31T06:22:15Z</time>
      </trkpt>
      <trkpt lat="44.02848" lon="7.21848">
        <ele>1936.232666</ele>
        <time>2009-05-31T06:22:16Z</time>
      </trkpt>
      <trkpt lat="44.02832" lon="7.21856">
        <ele>1935.2712402</ele>
        <time>2009-05-31T06:22:20Z</time>
      </trkpt>
      <trkpt lat="44.02816" lon="7.21875">
        <ele>1936.7131348</ele>
        <time>2009-05-31T06:22:25Z</time>
      </trkpt>
      <trkpt lat="44.02809" lon="7.21892">
        <ele>1934.3100586</ele>
        <time>2009-05-31T06:22:28Z</time>
      </trkpt>
      <trkpt lat="44.02799" lon="7.2192">
        <ele>1934.7907715</ele>
        <time>2009-05-31T06:22:33Z</time>
      </trkpt>
      <trkpt lat="44.02797" lon="7.21925">
        <ele>1933.3486328</ele>
        <time>2009-05-31T06:22:34Z</time>
      </trkpt>
      <trkpt lat="44.02784" lon="7.21953">
        <ele>1932.3874512</ele>
        <time>2009-05-31T06:22:39Z</time>
      </trkpt>
      <trkpt lat="44.0277" lon="7.21976">
        <ele>1929.9838867</ele>
        <time>2009-05-31T06:22:43Z</time>
      </trkpt>
      <trkpt lat="44.0275" lon="7.22003">
        <ele>1926.6193848</ele>
        <time>2009-05-31T06:22:47Z</time>
      </trkpt>
      <trkpt lat="44.02717" lon="7.2204">
        <ele>1924.6967773</ele>
        <time>2009-05-31T06:22:53Z</time>
      </trkpt>
      <trkpt lat="44.02703" lon="7.22058">
        <ele>1923.7353516</ele>
        <time>2009-05-31T06:22:56Z</time>
      </trkpt>
      <trkpt lat="44.02692" lon="7.22089">
        <ele>1923.7353516</ele>
        <time>2009-05-31T06:23:00Z</time>
      </trkpt>
      <trkpt lat="44.02691" lon="7.22105">
        <ele>1922.7741699</ele>
        <time>2009-05-31T06:23:02Z</time>
      </trkpt>
      <trkpt lat="44.02689" lon="7.22124">
        <ele>1921.8127441</ele>
        <time>2009-05-31T06:23:04Z</time>
      </trkpt>
      <trkpt lat="44.02679" lon="7.2216">
        <ele>1921.3320312</ele>
        <time>2009-05-31T06:23:08Z</time>
      </trkpt>
      <trkpt lat="44.02679" lon="7.22194">
        <ele>1920.8515625</ele>
        <time>2009-05-31T06:23:12Z</time>
      </trkpt>
      <trkpt lat="44.02682" lon="7.22212">
        <ele>1920.3708496</ele>
        <time>2009-05-31T06:23:14Z</time>
      </trkpt>
      <trkpt lat="44.02679" lon="7.22247">
        <ele>1919.409668</ele>
        <time>2009-05-31T06:23:18Z</time>
      </trkpt>
      <trkpt lat="44.0267" lon="7.22267">
        <ele>1918.9289551</ele>
        <time>2009-05-31T06:23:21Z</time>
      </trkpt>
      <trkpt lat="44.02657" lon="7.22292">
        <ele>1917.0063477</ele>
        <time>2009-05-31T06:23:26Z</time>
      </trkpt>
      <trkpt lat="44.02655" lon="7.22297">
        <ele>1917.0063477</ele>
        <time>2009-05-31T06:23:27Z</time>
      </trkpt>
      <trkpt lat="44.02647" lon="7.22312">
        <ele>1916.0449219</ele>
        <time>2009-05-31T06:23:30Z</time>
      </trkpt>
      <trkpt lat="44.0263" lon="7.2233">
        <ele>1918.4482422</ele>
        <time>2009-05-31T06:23:36Z</time>
      </trkpt>
      <trkpt lat="44.0262" lon="7.22338">
        <ele>1920.3708496</ele>
        <time>2009-05-31T06:23:41Z</time>
      </trkpt>
      <trkpt lat="44.02607" lon="7.22346">
        <ele>1922.293457</ele>
        <time>2009-05-31T06:23:46Z</time>
      </trkpt>
      <trkpt lat="44.02593" lon="7.22352">
        <ele>1922.293457</ele>
        <time>2009-05-31T06:23:52Z</time>
      </trkpt>
      <trkpt lat="44.02584" lon="7.22356">
        <ele>1923.2548828</ele>
        <time>2009-05-31T06:23:56Z</time>
      </trkpt>
      <trkpt lat="44.02574" lon="7.22364">
        <ele>1923.7353516</ele>
        <time>2009-05-31T06:24:03Z</time>
      </trkpt>
      <trkpt lat="44.02569" lon="7.2237">
        <ele>1925.657959</ele>
        <time>2009-05-31T06:24:08Z</time>
      </trkpt>
      <trkpt lat="44.02568" lon="7.22371">
        <ele>1925.657959</ele>
        <time>2009-05-31T06:24:09Z</time>
      </trkpt>
      <trkpt lat="44.0256" lon="7.22377">
        <ele>1926.6193848</ele>
        <time>2009-05-31T06:24:16Z</time>
      </trkpt>
      <trkpt lat="44.02553" lon="7.22386">
        <ele>1928.0612793</ele>
        <time>2009-05-31T06:24:21Z</time>
      </trkpt>
      <trkpt lat="44.02542" lon="7.22389">
        <ele>1929.0224609</ele>
        <time>2009-05-31T06:24:29Z</time>
      </trkpt>
      <trkpt lat="44.02537" lon="7.22392">
        <ele>1930.4645996</ele>
        <time>2009-05-31T06:24:35Z</time>
      </trkpt>
      <trkpt lat="44.02532" lon="7.22399">
        <ele>1931.4257812</ele>
        <time>2009-05-31T06:24:41Z</time>
      </trkpt>
      <trkpt lat="44.02524" lon="7.22409">
        <ele>1932.8679199</ele>
        <time>2009-05-31T06:24:49Z</time>
      </trkpt>
      <trkpt lat="44.0252" lon="7.22415">
        <ele>1933.3486328</ele>
        <time>2009-05-31T06:24:54Z</time>
      </trkpt>
      <trkpt lat="44.02518" lon="7.22419">
        <ele>1933.8293457</ele>
        <time>2009-05-31T06:24:58Z</time>
      </trkpt>
      <trkpt lat="44.02511" lon="7.22428">
        <ele>1935.2712402</ele>
        <time>2009-05-31T06:25:07Z</time>
      </trkpt>
      <trkpt lat="44.02507" lon="7.22439">
        <ele>1936.232666</ele>
        <time>2009-05-31T06:25:15Z</time>
      </trkpt>
      <trkpt lat="44.02504" lon="7.22446">
        <ele>1936.7131348</ele>
        <time>2009-05-31T06:25:20Z</time>
      </trkpt>
      <trkpt lat="44.02504" lon="7.22456">
        <ele>1937.6745605</ele>
        <time>2009-05-31T06:25:29Z</time>
      </trkpt>
      <trkpt lat="44.02504" lon="7.22465">
        <ele>1937.6745605</ele>
        <time>2009-05-31T06:25:36Z</time>
      </trkpt>
      <trkpt lat="44.02503" lon="7.22477">
        <ele>1939.1164551</ele>
        <time>2009-05-31T06:25:44Z</time>
      </trkpt>
      <trkpt lat="44.02504" lon="7.22489">
        <ele>1940.0778809</ele>
        <time>2009-05-31T06:25:51Z</time>
      </trkpt>
      <trkpt lat="44.02504" lon="7.22501">
        <ele>1941.5197754</ele>
        <time>2009-05-31T06:25:59Z</time>
      </trkpt>
      <trkpt lat="44.02504" lon="7.2251">
        <ele>1941.5197754</ele>
        <time>2009-05-31T06:26:07Z</time>
      </trkpt>
      <trkpt lat="44.02504" lon="7.22511">
        <ele>1942.9616699</ele>
        <time>2009-05-31T06:26:08Z</time>
      </trkpt>
      <trkpt lat="44.02503" lon="7.22527">
        <ele>1943.9230957</ele>
        <time>2009-05-31T06:26:14Z</time>
      </trkpt>
      <trkpt lat="44.025" lon="7.22549">
        <ele>1944.8842773</ele>
        <time>2009-05-31T06:26:21Z</time>
      </trkpt>
      <trkpt lat="44.02496" lon="7.22572">
        <ele>1946.326416</ele>
        <time>2009-05-31T06:26:29Z</time>
      </trkpt>
      <trkpt lat="44.02491" lon="7.2259">
        <ele>1948.2490234</ele>
        <time>2009-05-31T06:26:37Z</time>
      </trkpt>
      <trkpt lat="44.02485" lon="7.226">
        <ele>1949.2104492</ele>
        <time>2009-05-31T06:26:42Z</time>
      </trkpt>
      <trkpt lat="44.02485" lon="7.22603">
        <ele>1950.171875</ele>
        <time>2009-05-31T06:26:44Z</time>
      </trkpt>
      <trkpt lat="44.0248" lon="7.22614">
        <ele>1951.1330566</ele>
        <time>2009-05-31T06:26:51Z</time>
      </trkpt>
      <trkpt lat="44.02475" lon="7.22632">
        <ele>1952.5749512</ele>
        <time>2009-05-31T06:26:59Z</time>
      </trkpt>
      <trkpt lat="44.0247" lon="7.2266">
        <ele>1954.0170898</ele>
        <time>2009-05-31T06:27:07Z</time>
      </trkpt>
      <trkpt lat="44.02466" lon="7.22683">
        <ele>1954.0170898</ele>
        <time>2009-05-31T06:27:13Z</time>
      </trkpt>
      <trkpt lat="44.02461" lon="7.22705">
        <ele>1954.9782715</ele>
        <time>2009-05-31T06:27:19Z</time>
      </trkpt>
      <trkpt lat="44.02453" lon="7.22721">
        <ele>1953.0556641</ele>
        <time>2009-05-31T06:27:23Z</time>
      </trkpt>
      <trkpt lat="44.02437" lon="7.22754">
        <ele>1951.6137695</ele>
        <time>2009-05-31T06:27:28Z</time>
      </trkpt>
      <trkpt lat="44.0242" lon="7.22779">
        <ele>1951.1330566</ele>
        <time>2009-05-31T06:27:32Z</time>
      </trkpt>
      <trkpt lat="44.024" lon="7.22801">
        <ele>1951.6137695</ele>
        <time>2009-05-31T06:27:38Z</time>
      </trkpt>
      <trkpt lat="44.02394" lon="7.22822">
        <ele>1952.0942383</ele>
        <time>2009-05-31T06:27:43Z</time>
      </trkpt>
      <trkpt lat="44.02392" lon="7.22828">
        <ele>1953.0556641</ele>
        <time>2009-05-31T06:27:45Z</time>
      </trkpt>
      <trkpt lat="44.02389" lon="7.22853">
        <ele>1954.4975586</ele>
        <time>2009-05-31T06:27:52Z</time>
      </trkpt>
      <trkpt lat="44.02381" lon="7.22877">
        <ele>1954.9782715</ele>
        <time>2009-05-31T06:27:59Z</time>
      </trkpt>
      <trkpt lat="44.02372" lon="7.22891">
        <ele>1955.9394531</ele>
        <time>2009-05-31T06:28:05Z</time>
      </trkpt>
      <trkpt lat="44.02361" lon="7.22903">
        <ele>1956.9008789</ele>
        <time>2009-05-31T06:28:11Z</time>
      </trkpt>
      <trkpt lat="44.0235" lon="7.22914">
        <ele>1958.3427734</ele>
        <time>2009-05-31T06:28:17Z</time>
      </trkpt>
      <trkpt lat="44.02337" lon="7.22931">
        <ele>1957.3815918</ele>
        <time>2009-05-31T06:28:23Z</time>
      </trkpt>
      <trkpt lat="44.02323" lon="7.22944">
        <ele>1956.9008789</ele>
        <time>2009-05-31T06:28:28Z</time>
      </trkpt>
      <trkpt lat="44.02307" lon="7.22958">
        <ele>1955.9394531</ele>
        <time>2009-05-31T06:28:33Z</time>
      </trkpt>
      <trkpt lat="44.023" lon="7.22985">
        <ele>1954.4975586</ele>
        <time>2009-05-31T06:28:37Z</time>
      </trkpt>
      <trkpt lat="44.02288" lon="7.23016">
        <ele>1955.4589844</ele>
        <time>2009-05-31T06:28:41Z</time>
      </trkpt>
      <trkpt lat="44.02273" lon="7.23043">
        <ele>1954.0170898</ele>
        <time>2009-05-31T06:28:45Z</time>
      </trkpt>
      <trkpt lat="44.02255" lon="7.23059">
        <ele>1953.536377</ele>
        <time>2009-05-31T06:28:49Z</time>
      </trkpt>
      <trkpt lat="44.02236" lon="7.23071">
        <ele>1953.0556641</ele>
        <time>2009-05-31T06:28:53Z</time>
      </trkpt>
      <trkpt lat="44.02218" lon="7.23081">
        <ele>1949.2104492</ele>
        <time>2009-05-31T06:28:56Z</time>
      </trkpt>
      <trkpt lat="44.02198" lon="7.23092">
        <ele>1948.7297363</ele>
        <time>2009-05-31T06:28:59Z</time>
      </trkpt>
      <trkpt lat="44.02173" lon="7.23096">
        <ele>1948.7297363</ele>
        <time>2009-05-31T06:29:04Z</time>
      </trkpt>
      <trkpt lat="44.02147" lon="7.23109">
        <ele>1949.6911621</ele>
        <time>2009-05-31T06:29:10Z</time>
      </trkpt>
      <trkpt lat="44.02143" lon="7.23111">
        <ele>1949.2104492</ele>
        <time>2009-05-31T06:29:11Z</time>
      </trkpt>
      <trkpt lat="44.02131" lon="7.23112">
        <ele>1948.2490234</ele>
        <time>2009-05-31T06:29:13Z</time>
      </trkpt>
      <trkpt lat="44.02109" lon="7.23116">
        <ele>1946.8068848</ele>
        <time>2009-05-31T06:29:17Z</time>
      </trkpt>
      <trkpt lat="44.02091" lon="7.23128">
        <ele>1944.4035645</ele>
        <time>2009-05-31T06:29:21Z</time>
      </trkpt>
      <trkpt lat="44.02082" lon="7.23132">
        <ele>1942.9616699</ele>
        <time>2009-05-31T06:29:23Z</time>
      </trkpt>
      <trkpt lat="44.02072" lon="7.23135">
        <ele>1941.5197754</ele>
        <time>2009-05-31T06:29:25Z</time>
      </trkpt>
      <trkpt lat="44.02057" lon="7.23144">
        <ele>1938.6359863</ele>
        <time>2009-05-31T06:29:28Z</time>
      </trkpt>
      <trkpt lat="44.02052" lon="7.23148">
        <ele>1939.1164551</ele>
        <time>2009-05-31T06:29:29Z</time>
      </trkpt>
      <trkpt lat="44.02039" lon="7.23158">
        <ele>1937.6745605</ele>
        <time>2009-05-31T06:29:32Z</time>
      </trkpt>
      <trkpt lat="44.0203" lon="7.23162">
        <ele>1937.1938477</ele>
        <time>2009-05-31T06:29:34Z</time>
      </trkpt>
      <trkpt lat="44.02014" lon="7.23174">
        <ele>1936.232666</ele>
        <time>2009-05-31T06:29:38Z</time>
      </trkpt>
      <trkpt lat="44.01993" lon="7.23177">
        <ele>1934.7907715</ele>
        <time>2009-05-31T06:29:43Z</time>
      </trkpt>
      <trkpt lat="44.01985" lon="7.23175">
        <ele>1931.4257812</ele>
        <time>2009-05-31T06:29:45Z</time>
      </trkpt>
      <trkpt lat="44.01967" lon="7.23166">
        <ele>1926.6193848</ele>
        <time>2009-05-31T06:29:49Z</time>
      </trkpt>
      <trkpt lat="44.01954" lon="7.23157">
        <ele>1922.7741699</ele>
        <time>2009-05-31T06:29:52Z</time>
      </trkpt>
      <trkpt lat="44.01951" lon="7.23154">
        <ele>1921.8127441</ele>
        <time>2009-05-31T06:29:53Z</time>
      </trkpt>
      <trkpt lat="44.01934" lon="7.23143">
        <ele>1915.0834961</ele>
        <time>2009-05-31T06:29:57Z</time>
      </trkpt>
      <trkpt lat="44.01921" lon="7.23134">
        <ele>1911.7189941</ele>
        <time>2009-05-31T06:30:00Z</time>
      </trkpt>
      <trkpt lat="44.01901" lon="7.23122">
        <ele>1908.354248</ele>
        <time>2009-05-31T06:30:05Z</time>
      </trkpt>
      <trkpt lat="44.01889" lon="7.23106">
        <ele>1903.0671387</ele>
        <time>2009-05-31T06:30:09Z</time>
      </trkpt>
      <trkpt lat="44.01877" lon="7.23092">
        <ele>1900.1833496</ele>
        <time>2009-05-31T06:30:12Z</time>
      </trkpt>
      <trkpt lat="44.01857" lon="7.23088">
        <ele>1898.2602539</ele>
        <time>2009-05-31T06:30:17Z</time>
      </trkpt>
      <trkpt lat="44.01842" lon="7.23081">
        <ele>1893.4538574</ele>
        <time>2009-05-31T06:30:21Z</time>
      </trkpt>
      <trkpt lat="44.01838" lon="7.2308">
        <ele>1893.4538574</ele>
        <time>2009-05-31T06:30:22Z</time>
      </trkpt>
      <trkpt lat="44.01826" lon="7.23074">
        <ele>1891.53125</ele>
        <time>2009-05-31T06:30:25Z</time>
      </trkpt>
      <trkpt lat="44.01824" lon="7.2307">
        <ele>1890.0893555</ele>
        <time>2009-05-31T06:30:26Z</time>
      </trkpt>
      <trkpt lat="44.01819" lon="7.23056">
        <ele>1888.166748</ele>
        <time>2009-05-31T06:30:29Z</time>
      </trkpt>
      <trkpt lat="44.0181" lon="7.23043">
        <ele>1886.7246094</ele>
        <time>2009-05-31T06:30:33Z</time>
      </trkpt>
      <trkpt lat="44.01799" lon="7.2303">
        <ele>1882.3986816</ele>
        <time>2009-05-31T06:30:36Z</time>
      </trkpt>
      <trkpt lat="44.01784" lon="7.23011">
        <ele>1877.592041</ele>
        <time>2009-05-31T06:30:40Z</time>
      </trkpt>
      <trkpt lat="44.01769" lon="7.23003">
        <ele>1872.7856445</ele>
        <time>2009-05-31T06:30:43Z</time>
      </trkpt>
      <trkpt lat="44.01746" lon="7.23003">
        <ele>1869.4211426</ele>
        <time>2009-05-31T06:30:48Z</time>
      </trkpt>
      <trkpt lat="44.01739" lon="7.23001">
        <ele>1867.9787598</ele>
        <time>2009-05-31T06:30:50Z</time>
      </trkpt>
      <trkpt lat="44.01732" lon="7.22999">
        <ele>1866.0561523</ele>
        <time>2009-05-31T06:30:52Z</time>
      </trkpt>
      <trkpt lat="44.0173" lon="7.22998">
        <ele>1866.0561523</ele>
        <time>2009-05-31T06:30:53Z</time>
      </trkpt>
      <trkpt lat="44.0173" lon="7.22996">
        <ele>1864.6142578</ele>
        <time>2009-05-31T06:30:57Z</time>
      </trkpt>
      <trkpt lat="44.01732" lon="7.22996">
        <ele>1863.652832</ele>
        <time>2009-05-31T06:31:03Z</time>
      </trkpt>
      <trkpt lat="44.01734" lon="7.22995">
        <ele>1863.652832</ele>
        <time>2009-05-31T06:31:07Z</time>
      </trkpt>
      <trkpt lat="44.01742" lon="7.22993">
        <ele>1860.769043</ele>
        <time>2009-05-31T06:31:11Z</time>
      </trkpt>
      <trkpt lat="44.01746" lon="7.22987">
        <ele>1859.3271484</ele>
        <time>2009-05-31T06:31:13Z</time>
      </trkpt>
      <trkpt lat="44.01747" lon="7.22981">
        <ele>1858.3657227</ele>
        <time>2009-05-31T06:31:18Z</time>
      </trkpt>
      <trkpt lat="44.01747" lon="7.22977">
        <ele>1858.8464355</ele>
        <time>2009-05-31T06:31:23Z</time>
      </trkpt>
      <trkpt lat="44.01744" lon="7.22978">
        <ele>1857.404541</ele>
        <time>2009-05-31T06:31:27Z</time>
      </trkpt>
      <trkpt lat="44.01736" lon="7.22977">
        <ele>1855.4819336</ele>
        <time>2009-05-31T06:31:31Z</time>
      </trkpt>
      <trkpt lat="44.01723" lon="7.2297">
        <ele>1854.5205078</ele>
        <time>2009-05-31T06:31:35Z</time>
      </trkpt>
      <trkpt lat="44.01712" lon="7.22972">
        <ele>1851.6364746</ele>
        <time>2009-05-31T06:31:39Z</time>
      </trkpt>
      <trkpt lat="44.01694" lon="7.22976">
        <ele>1846.829834</ele>
        <time>2009-05-31T06:31:44Z</time>
      </trkpt>
      <trkpt lat="44.01689" lon="7.22974">
        <ele>1845.8686523</ele>
        <time>2009-05-31T06:31:48Z</time>
      </trkpt>
      <trkpt lat="44.01683" lon="7.22963">
        <ele>1845.3879395</ele>
        <time>2009-05-31T06:31:56Z</time>
      </trkpt>
      <trkpt lat="44.01684" lon="7.22951">
        <ele>1845.3879395</ele>
        <time>2009-05-31T06:32:02Z</time>
      </trkpt>
      <trkpt lat="44.01683" lon="7.22948">
        <ele>1845.8686523</ele>
        <time>2009-05-31T06:32:07Z</time>
      </trkpt>
      <trkpt lat="44.01681" lon="7.22946">
        <ele>1845.8686523</ele>
        <time>2009-05-31T06:32:09Z</time>
      </trkpt>
      <trkpt lat="44.0167" lon="7.22942">
        <ele>1846.3493652</ele>
        <time>2009-05-31T06:32:14Z</time>
      </trkpt>
      <trkpt lat="44.01663" lon="7.22935">
        <ele>1844.9072266</ele>
        <time>2009-05-31T06:32:18Z</time>
      </trkpt>
      <trkpt lat="44.01663" lon="7.2292">
        <ele>1843.9460449</ele>
        <time>2009-05-31T06:32:23Z</time>
      </trkpt>
      <trkpt lat="44.0166" lon="7.22906">
        <ele>1843.9460449</ele>
        <time>2009-05-31T06:32:26Z</time>
      </trkpt>
      <trkpt lat="44.01655" lon="7.22877">
        <ele>1838.1782227</ele>
        <time>2009-05-31T06:32:32Z</time>
      </trkpt>
      <trkpt lat="44.01645" lon="7.22854">
        <ele>1834.3327637</ele>
        <time>2009-05-31T06:32:37Z</time>
      </trkpt>
      <trkpt lat="44.01635" lon="7.22844">
        <ele>1830.9682617</ele>
        <time>2009-05-31T06:32:40Z</time>
      </trkpt>
      <trkpt lat="44.01625" lon="7.22833">
        <ele>1828.5649414</ele>
        <time>2009-05-31T06:32:44Z</time>
      </trkpt>
      <trkpt lat="44.01622" lon="7.22829">
        <ele>1827.6035156</ele>
        <time>2009-05-31T06:32:47Z</time>
      </trkpt>
      <trkpt lat="44.01608" lon="7.22822">
        <ele>1826.1616211</ele>
        <time>2009-05-31T06:32:53Z</time>
      </trkpt>
      <trkpt lat="44.01606" lon="7.22819">
        <ele>1825.6809082</ele>
        <time>2009-05-31T06:32:54Z</time>
      </trkpt>
      <trkpt lat="44.01598" lon="7.22807">
        <ele>1823.277832</ele>
        <time>2009-05-31T06:32:57Z</time>
      </trkpt>
      <trkpt lat="44.01591" lon="7.22803">
        <ele>1822.3164062</ele>
        <time>2009-05-31T06:33:02Z</time>
      </trkpt>
      <trkpt lat="44.01588" lon="7.22799">
        <ele>1822.3164062</ele>
        <time>2009-05-31T06:33:07Z</time>
      </trkpt>
      <trkpt lat="44.01588" lon="7.22796">
        <ele>1822.3164062</ele>
        <time>2009-05-31T06:33:10Z</time>
      </trkpt>
      <trkpt lat="44.01588" lon="7.22792">
        <ele>1821.3549805</ele>
        <time>2009-05-31T06:33:12Z</time>
      </trkpt>
      <trkpt lat="44.01589" lon="7.22788">
        <ele>1819.9128418</ele>
        <time>2009-05-31T06:33:14Z</time>
      </trkpt>
      <trkpt lat="44.01594" lon="7.22769">
        <ele>1817.9902344</ele>
        <time>2009-05-31T06:33:19Z</time>
      </trkpt>
      <trkpt lat="44.01593" lon="7.22749">
        <ele>1815.5871582</ele>
        <time>2009-05-31T06:33:23Z</time>
      </trkpt>
      <trkpt lat="44.0159" lon="7.2273">
        <ele>1812.703125</ele>
        <time>2009-05-31T06:33:27Z</time>
      </trkpt>
      <trkpt lat="44.0159" lon="7.22726">
        <ele>1812.703125</ele>
        <time>2009-05-31T06:33:28Z</time>
      </trkpt>
      <trkpt lat="44.01588" lon="7.22705">
        <ele>1808.3771973</ele>
        <time>2009-05-31T06:33:32Z</time>
      </trkpt>
      <trkpt lat="44.01585" lon="7.22685">
        <ele>1806.4545898</ele>
        <time>2009-05-31T06:33:36Z</time>
      </trkpt>
      <trkpt lat="44.01585" lon="7.22679">
        <ele>1805.973877</ele>
        <time>2009-05-31T06:33:37Z</time>
      </trkpt>
      <trkpt lat="44.01576" lon="7.22654">
        <ele>1801.6479492</ele>
        <time>2009-05-31T06:33:41Z</time>
      </trkpt>
      <trkpt lat="44.01559" lon="7.22638">
        <ele>1797.3220215</ele>
        <time>2009-05-31T06:33:45Z</time>
      </trkpt>
      <trkpt lat="44.01555" lon="7.22634">
        <ele>1796.3608398</ele>
        <time>2009-05-31T06:33:46Z</time>
      </trkpt>
      <trkpt lat="44.01545" lon="7.22628">
        <ele>1794.9187012</ele>
        <time>2009-05-31T06:33:48Z</time>
      </trkpt>
      <trkpt lat="44.01517" lon="7.22611">
        <ele>1791.0734863</ele>
        <time>2009-05-31T06:33:54Z</time>
      </trkpt>
      <trkpt lat="44.015" lon="7.22607">
        <ele>1786.2668457</ele>
        <time>2009-05-31T06:33:58Z</time>
      </trkpt>
      <trkpt lat="44.01492" lon="7.22605">
        <ele>1785.3054199</ele>
        <time>2009-05-31T06:34:00Z</time>
      </trkpt>
      <trkpt lat="44.01488" lon="7.22605">
        <ele>1784.8249512</ele>
        <time>2009-05-31T06:34:01Z</time>
      </trkpt>
      <trkpt lat="44.01471" lon="7.22603">
        <ele>1780.4990234</ele>
        <time>2009-05-31T06:34:05Z</time>
      </trkpt>
      <trkpt lat="44.01447" lon="7.22591">
        <ele>1775.2116699</ele>
        <time>2009-05-31T06:34:10Z</time>
      </trkpt>
      <trkpt lat="44.01427" lon="7.22587">
        <ele>1770.8857422</ele>
        <time>2009-05-31T06:34:14Z</time>
      </trkpt>
      <trkpt lat="44.01421" lon="7.22586">
        <ele>1770.4050293</ele>
        <time>2009-05-31T06:34:15Z</time>
      </trkpt>
      <trkpt lat="44.01399" lon="7.22583">
        <ele>1768.001709</ele>
        <time>2009-05-31T06:34:20Z</time>
      </trkpt>
      <trkpt lat="44.0139" lon="7.22585">
        <ele>1766.0791016</ele>
        <time>2009-05-31T06:34:22Z</time>
      </trkpt>
      <trkpt lat="44.01374" lon="7.22589">
        <ele>1765.5986328</ele>
        <time>2009-05-31T06:34:25Z</time>
      </trkpt>
      <trkpt lat="44.01359" lon="7.22597">
        <ele>1765.5986328</ele>
        <time>2009-05-31T06:34:29Z</time>
      </trkpt>
      <trkpt lat="44.01347" lon="7.226">
        <ele>1765.1179199</ele>
        <time>2009-05-31T06:34:33Z</time>
      </trkpt>
      <trkpt lat="44.01344" lon="7.22601">
        <ele>1764.1564941</ele>
        <time>2009-05-31T06:34:34Z</time>
      </trkpt>
      <trkpt lat="44.0134" lon="7.22606">
        <ele>1762.7145996</ele>
        <time>2009-05-31T06:34:39Z</time>
      </trkpt>
      <trkpt lat="44.01334" lon="7.22601">
        <ele>1763.1953125</ele>
        <time>2009-05-31T06:34:48Z</time>
      </trkpt>
      <trkpt lat="44.01331" lon="7.22603">
        <ele>1761.753418</ele>
        <time>2009-05-31T06:34:52Z</time>
      </trkpt>
      <trkpt lat="44.01328" lon="7.22604">
        <ele>1760.3112793</ele>
        <time>2009-05-31T06:34:55Z</time>
      </trkpt>
      <trkpt lat="44.01322" lon="7.22602">
        <ele>1760.3112793</ele>
        <time>2009-05-31T06:35:00Z</time>
      </trkpt>
      <trkpt lat="44.0132" lon="7.22602">
        <ele>1759.3500977</ele>
        <time>2009-05-31T06:35:05Z</time>
      </trkpt>
      <trkpt lat="44.01319" lon="7.22602">
        <ele>1758.8693848</ele>
        <time>2009-05-31T06:35:13Z</time>
      </trkpt>
      <trkpt lat="44.0132" lon="7.22602">
        <ele>1759.3500977</ele>
        <time>2009-05-31T06:35:19Z</time>
      </trkpt>
      <trkpt lat="44.01314" lon="7.22592">
        <ele>1758.8693848</ele>
        <time>2009-05-31T06:35:26Z</time>
      </trkpt>
      <trkpt lat="44.01309" lon="7.22589">
        <ele>1757.9082031</ele>
        <time>2009-05-31T06:35:28Z</time>
      </trkpt>
      <trkpt lat="44.01306" lon="7.22575">
        <ele>1757.4274902</ele>
        <time>2009-05-31T06:35:33Z</time>
      </trkpt>
      <trkpt lat="44.01306" lon="7.22563">
        <ele>1757.9082031</ele>
        <time>2009-05-31T06:35:36Z</time>
      </trkpt>
      <trkpt lat="44.01298" lon="7.2254">
        <ele>1755.5046387</ele>
        <time>2009-05-31T06:35:41Z</time>
      </trkpt>
      <trkpt lat="44.01286" lon="7.22523">
        <ele>1754.0627441</ele>
        <time>2009-05-31T06:35:45Z</time>
      </trkpt>
      <trkpt lat="44.0127" lon="7.22505">
        <ele>1753.5820312</ele>
        <time>2009-05-31T06:35:50Z</time>
      </trkpt>
      <trkpt lat="44.01257" lon="7.22503">
        <ele>1751.1787109</ele>
        <time>2009-05-31T06:35:53Z</time>
      </trkpt>
      <trkpt lat="44.01242" lon="7.22503">
        <ele>1750.2175293</ele>
        <time>2009-05-31T06:35:56Z</time>
      </trkpt>
      <trkpt lat="44.01228" lon="7.22504">
        <ele>1748.7753906</ele>
        <time>2009-05-31T06:35:59Z</time>
      </trkpt>
      <trkpt lat="44.01224" lon="7.22495">
        <ele>1747.3334961</ele>
        <time>2009-05-31T06:36:01Z</time>
      </trkpt>
      <trkpt lat="44.01217" lon="7.22478">
        <ele>1746.3723145</ele>
        <time>2009-05-31T06:36:05Z</time>
      </trkpt>
      <trkpt lat="44.01212" lon="7.22468">
        <ele>1744.9301758</ele>
        <time>2009-05-31T06:36:07Z</time>
      </trkpt>
      <trkpt lat="44.01198" lon="7.2245">
        <ele>1742.5270996</ele>
        <time>2009-05-31T06:36:12Z</time>
      </trkpt>
      <trkpt lat="44.01191" lon="7.22443">
        <ele>1742.0463867</ele>
        <time>2009-05-31T06:36:14Z</time>
      </trkpt>
      <trkpt lat="44.01177" lon="7.22428">
        <ele>1737.239502</ele>
        <time>2009-05-31T06:36:18Z</time>
      </trkpt>
      <trkpt lat="44.0116" lon="7.22421">
        <ele>1735.7976074</ele>
        <time>2009-05-31T06:36:22Z</time>
      </trkpt>
      <trkpt lat="44.01153" lon="7.22421">
        <ele>1734.8364258</ele>
        <time>2009-05-31T06:36:25Z</time>
      </trkpt>
      <trkpt lat="44.01149" lon="7.22419">
        <ele>1734.8364258</ele>
        <time>2009-05-31T06:36:29Z</time>
      </trkpt>
      <trkpt lat="44.01148" lon="7.22418">
        <ele>1734.8364258</ele>
        <time>2009-05-31T06:36:30Z</time>
      </trkpt>
      <trkpt lat="44.01146" lon="7.22416">
        <ele>1734.8364258</ele>
        <time>2009-05-31T06:36:33Z</time>
      </trkpt>
      <trkpt lat="44.01148" lon="7.22402">
        <ele>1734.8364258</ele>
        <time>2009-05-31T06:36:41Z</time>
      </trkpt>
      <trkpt lat="44.0115" lon="7.2239">
        <ele>1731.4716797</ele>
        <time>2009-05-31T06:36:44Z</time>
      </trkpt>
      <trkpt lat="44.01152" lon="7.2237">
        <ele>1730.0297852</ele>
        <time>2009-05-31T06:36:47Z</time>
      </trkpt>
      <trkpt lat="44.01155" lon="7.22357">
        <ele>1728.1071777</ele>
        <time>2009-05-31T06:36:50Z</time>
      </trkpt>
      <trkpt lat="44.01149" lon="7.22341">
        <ele>1725.2231445</ele>
        <time>2009-05-31T06:36:54Z</time>
      </trkpt>
      <trkpt lat="44.01142" lon="7.22332">
        <ele>1724.2619629</ele>
        <time>2009-05-31T06:36:56Z</time>
      </trkpt>
      <trkpt lat="44.01135" lon="7.22322">
        <ele>1723.3005371</ele>
        <time>2009-05-31T06:36:58Z</time>
      </trkpt>
      <trkpt lat="44.01119" lon="7.22302">
        <ele>1720.8972168</ele>
        <time>2009-05-31T06:37:02Z</time>
      </trkpt>
      <trkpt lat="44.01109" lon="7.2228">
        <ele>1721.8583984</ele>
        <time>2009-05-31T06:37:07Z</time>
      </trkpt>
      <trkpt lat="44.0111" lon="7.2226">
        <ele>1720.4165039</ele>
        <time>2009-05-31T06:37:11Z</time>
      </trkpt>
      <trkpt lat="44.0111" lon="7.2225">
        <ele>1720.8972168</ele>
        <time>2009-05-31T06:37:13Z</time>
      </trkpt>
      <trkpt lat="44.01104" lon="7.22237">
        <ele>1719.4553223</ele>
        <time>2009-05-31T06:37:16Z</time>
      </trkpt>
      <trkpt lat="44.01098" lon="7.22224">
        <ele>1716.5712891</ele>
        <time>2009-05-31T06:37:18Z</time>
      </trkpt>
      <trkpt lat="44.01079" lon="7.22181">
        <ele>1714.1679688</ele>
        <time>2009-05-31T06:37:24Z</time>
      </trkpt>
      <trkpt lat="44.01071" lon="7.22152">
        <ele>1714.1679688</ele>
        <time>2009-05-31T06:37:28Z</time>
      </trkpt>
      <trkpt lat="44.01061" lon="7.22122">
        <ele>1713.2067871</ele>
        <time>2009-05-31T06:37:32Z</time>
      </trkpt>
      <trkpt lat="44.01049" lon="7.22125">
        <ele>1713.2067871</ele>
        <time>2009-05-31T06:37:36Z</time>
      </trkpt>
      <trkpt lat="44.01046" lon="7.22128">
        <ele>1712.7260742</ele>
        <time>2009-05-31T06:37:37Z</time>
      </trkpt>
      <trkpt lat="44.01036" lon="7.22135">
        <ele>1712.7260742</ele>
        <time>2009-05-31T06:37:42Z</time>
      </trkpt>
      <trkpt lat="44.01028" lon="7.22139">
        <ele>1711.2841797</ele>
        <time>2009-05-31T06:37:45Z</time>
      </trkpt>
      <trkpt lat="44.01006" lon="7.22159">
        <ele>1711.7648926</ele>
        <time>2009-05-31T06:37:50Z</time>
      </trkpt>
      <trkpt lat="44.00997" lon="7.22169">
        <ele>1711.7648926</ele>
        <time>2009-05-31T06:37:52Z</time>
      </trkpt>
      <trkpt lat="44.00984" lon="7.22187">
        <ele>1712.7260742</ele>
        <time>2009-05-31T06:37:55Z</time>
      </trkpt>
      <trkpt lat="44.00953" lon="7.22209">
        <ele>1713.2067871</ele>
        <time>2009-05-31T06:38:01Z</time>
      </trkpt>
      <trkpt lat="44.00948" lon="7.22211">
        <ele>1713.2067871</ele>
        <time>2009-05-31T06:38:02Z</time>
      </trkpt>
      <trkpt lat="44.00932" lon="7.22222">
        <ele>1713.2067871</ele>
        <time>2009-05-31T06:38:05Z</time>
      </trkpt>
      <trkpt lat="44.00904" lon="7.22234">
        <ele>1713.6872559</ele>
        <time>2009-05-31T06:38:10Z</time>
      </trkpt>
      <trkpt lat="44.00883" lon="7.22241">
        <ele>1714.1679688</ele>
        <time>2009-05-31T06:38:14Z</time>
      </trkpt>
      <trkpt lat="44.00875" lon="7.22247">
        <ele>1715.1293945</ele>
        <time>2009-05-31T06:38:16Z</time>
      </trkpt>
      <trkpt lat="44.00865" lon="7.22258">
        <ele>1715.6101074</ele>
        <time>2009-05-31T06:38:19Z</time>
      </trkpt>
      <trkpt lat="44.00845" lon="7.22266">
        <ele>1715.6101074</ele>
        <time>2009-05-31T06:38:24Z</time>
      </trkpt>
      <trkpt lat="44.00825" lon="7.22264">
        <ele>1716.5712891</ele>
        <time>2009-05-31T06:38:28Z</time>
      </trkpt>
      <trkpt lat="44.00797" lon="7.22274">
        <ele>1717.5324707</ele>
        <time>2009-05-31T06:38:34Z</time>
      </trkpt>
      <trkpt lat="44.00785" lon="7.2228">
        <ele>1718.9746094</ele>
        <time>2009-05-31T06:38:37Z</time>
      </trkpt>
      <trkpt lat="44.0076" lon="7.223">
        <ele>1720.4165039</ele>
        <time>2009-05-31T06:38:44Z</time>
      </trkpt>
      <trkpt lat="44.00757" lon="7.22302">
        <ele>1720.8972168</ele>
        <time>2009-05-31T06:38:45Z</time>
      </trkpt>
      <trkpt lat="44.00737" lon="7.223">
        <ele>1720.8972168</ele>
        <time>2009-05-31T06:38:50Z</time>
      </trkpt>
      <trkpt lat="44.00734" lon="7.22296">
        <ele>1721.3776855</ele>
        <time>2009-05-31T06:38:51Z</time>
      </trkpt>
      <trkpt lat="44.00711" lon="7.22272">
        <ele>1721.8583984</ele>
        <time>2009-05-31T06:38:58Z</time>
      </trkpt>
      <trkpt lat="44.00689" lon="7.22259">
        <ele>1722.3391113</ele>
        <time>2009-05-31T06:39:04Z</time>
      </trkpt>
      <trkpt lat="44.00674" lon="7.22265">
        <ele>1723.3005371</ele>
        <time>2009-05-31T06:39:08Z</time>
      </trkpt>
      <trkpt lat="44.00669" lon="7.22267">
        <ele>1724.2619629</ele>
        <time>2009-05-31T06:39:09Z</time>
      </trkpt>
      <trkpt lat="44.00648" lon="7.22263">
        <ele>1724.7426758</ele>
        <time>2009-05-31T06:39:14Z</time>
      </trkpt>
      <trkpt lat="44.00636" lon="7.22255">
        <ele>1725.2231445</ele>
        <time>2009-05-31T06:39:17Z</time>
      </trkpt>
      <trkpt lat="44.0061" lon="7.22239">
        <ele>1726.1845703</ele>
        <time>2009-05-31T06:39:24Z</time>
      </trkpt>
      <trkpt lat="44.00603" lon="7.22235">
        <ele>1725.7038574</ele>
        <time>2009-05-31T06:39:26Z</time>
      </trkpt>
      <trkpt lat="44.00583" lon="7.22234">
        <ele>1727.1459961</ele>
        <time>2009-05-31T06:39:31Z</time>
      </trkpt>
      <trkpt lat="44.0057" lon="7.22227">
        <ele>1728.5878906</ele>
        <time>2009-05-31T06:39:35Z</time>
      </trkpt>
      <trkpt lat="44.00559" lon="7.22206">
        <ele>1728.5878906</ele>
        <time>2009-05-31T06:39:40Z</time>
      </trkpt>
      <trkpt lat="44.0055" lon="7.22184">
        <ele>1730.0297852</ele>
        <time>2009-05-31T06:39:45Z</time>
      </trkpt>
      <trkpt lat="44.00535" lon="7.22162">
        <ele>1730.9912109</ele>
        <time>2009-05-31T06:39:51Z</time>
      </trkpt>
      <trkpt lat="44.0052" lon="7.22154">
        <ele>1730.9912109</ele>
        <time>2009-05-31T06:39:55Z</time>
      </trkpt>
      <trkpt lat="44.00491" lon="7.22129">
        <ele>1730.9912109</ele>
        <time>2009-05-31T06:40:03Z</time>
      </trkpt>
      <trkpt lat="44.00478" lon="7.22099">
        <ele>1731.4716797</ele>
        <time>2009-05-31T06:40:09Z</time>
      </trkpt>
      <trkpt lat="44.00463" lon="7.2208">
        <ele>1733.3942871</ele>
        <time>2009-05-31T06:40:14Z</time>
      </trkpt>
      <trkpt lat="44.00446" lon="7.2207">
        <ele>1733.875</ele>
        <time>2009-05-31T06:40:19Z</time>
      </trkpt>
      <trkpt lat="44.00431" lon="7.22062">
        <ele>1734.8364258</ele>
        <time>2009-05-31T06:40:23Z</time>
      </trkpt>
      <trkpt lat="44.00418" lon="7.2205">
        <ele>1735.3168945</ele>
        <time>2009-05-31T06:40:27Z</time>
      </trkpt>
      <trkpt lat="44.00405" lon="7.22023">
        <ele>1735.3168945</ele>
        <time>2009-05-31T06:40:33Z</time>
      </trkpt>
      <trkpt lat="44.00393" lon="7.22001">
        <ele>1735.7976074</ele>
        <time>2009-05-31T06:40:38Z</time>
      </trkpt>
      <trkpt lat="44.00386" lon="7.21997">
        <ele>1736.2783203</ele>
        <time>2009-05-31T06:40:40Z</time>
      </trkpt>
      <trkpt lat="44.00366" lon="7.21997">
        <ele>1738.6816406</ele>
        <time>2009-05-31T06:40:45Z</time>
      </trkpt>
      <trkpt lat="44.0034" lon="7.22007">
        <ele>1738.2009277</ele>
        <time>2009-05-31T06:40:52Z</time>
      </trkpt>
      <trkpt lat="44.00334" lon="7.22011">
        <ele>1737.7202148</ele>
        <time>2009-05-31T06:40:54Z</time>
      </trkpt>
      <trkpt lat="44.00322" lon="7.22006">
        <ele>1734.8364258</ele>
        <time>2009-05-31T06:40:59Z</time>
      </trkpt>
      <trkpt lat="44.00315" lon="7.22002">
        <ele>1730.510498</ele>
        <time>2009-05-31T06:41:02Z</time>
      </trkpt>
      <trkpt lat="44.00308" lon="7.22">
        <ele>1729.0683594</ele>
        <time>2009-05-31T06:41:05Z</time>
      </trkpt>
      <trkpt lat="44.00303" lon="7.21995">
        <ele>1725.2231445</ele>
        <time>2009-05-31T06:41:07Z</time>
      </trkpt>
      <trkpt lat="44.00294" lon="7.21989">
        <ele>1723.3005371</ele>
        <time>2009-05-31T06:41:10Z</time>
      </trkpt>
      <trkpt lat="44.00292" lon="7.21978">
        <ele>1719.935791</ele>
        <time>2009-05-31T06:41:13Z</time>
      </trkpt>
      <trkpt lat="44.00298" lon="7.21963">
        <ele>1717.5324707</ele>
        <time>2009-05-31T06:41:17Z</time>
      </trkpt>
      <trkpt lat="44.00302" lon="7.21947">
        <ele>1712.7260742</ele>
        <time>2009-05-31T06:41:20Z</time>
      </trkpt>
      <trkpt lat="44.00303" lon="7.21943">
        <ele>1712.2453613</ele>
        <time>2009-05-31T06:41:21Z</time>
      </trkpt>
      <trkpt lat="44.00307" lon="7.21939">
        <ele>1711.7648926</ele>
        <time>2009-05-31T06:41:23Z</time>
      </trkpt>
      <trkpt lat="44.00305" lon="7.21931">
        <ele>1709.3615723</ele>
        <time>2009-05-31T06:41:27Z</time>
      </trkpt>
      <trkpt lat="44.00297" lon="7.21925">
        <ele>1706.9580078</ele>
        <time>2009-05-31T06:41:31Z</time>
      </trkpt>
      <trkpt lat="44.00283" lon="7.21923">
        <ele>1702.6320801</ele>
        <time>2009-05-31T06:41:36Z</time>
      </trkpt>
      <trkpt lat="44.00269" lon="7.21927">
        <ele>1699.2675781</ele>
        <time>2009-05-31T06:41:41Z</time>
      </trkpt>
      <trkpt lat="44.00254" lon="7.21929">
        <ele>1695.9030762</ele>
        <time>2009-05-31T06:41:46Z</time>
      </trkpt>
      <trkpt lat="44.0025" lon="7.21929">
        <ele>1694.4609375</ele>
        <time>2009-05-31T06:41:48Z</time>
      </trkpt>
      <trkpt lat="44.00244" lon="7.2193">
        <ele>1692.0578613</ele>
        <time>2009-05-31T06:41:53Z</time>
      </trkpt>
      <trkpt lat="44.00243" lon="7.21926">
        <ele>1691.0961914</ele>
        <time>2009-05-31T06:41:55Z</time>
      </trkpt>
      <trkpt lat="44.00243" lon="7.2192">
        <ele>1688.6931152</ele>
        <time>2009-05-31T06:41:57Z</time>
      </trkpt>
      <trkpt lat="44.00249" lon="7.21908">
        <ele>1687.2509766</ele>
        <time>2009-05-31T06:42:00Z</time>
      </trkpt>
      <trkpt lat="44.00254" lon="7.21895">
        <ele>1685.809082</ele>
        <time>2009-05-31T06:42:03Z</time>
      </trkpt>
      <trkpt lat="44.00258" lon="7.21889">
        <ele>1684.8479004</ele>
        <time>2009-05-31T06:42:06Z</time>
      </trkpt>
      <trkpt lat="44.00262" lon="7.21879">
        <ele>1683.8864746</ele>
        <time>2009-05-31T06:42:10Z</time>
      </trkpt>
      <trkpt lat="44.00264" lon="7.21871">
        <ele>1682.4445801</ele>
        <time>2009-05-31T06:42:13Z</time>
      </trkpt>
      <trkpt lat="44.00265" lon="7.21862">
        <ele>1679.079834</ele>
        <time>2009-05-31T06:42:17Z</time>
      </trkpt>
      <trkpt lat="44.00263" lon="7.21857">
        <ele>1675.7150879</ele>
        <time>2009-05-31T06:42:19Z</time>
      </trkpt>
      <trkpt lat="44.00257" lon="7.21847">
        <ele>1671.869873</ele>
        <time>2009-05-31T06:42:23Z</time>
      </trkpt>
      <trkpt lat="44.00256" lon="7.21844">
        <ele>1670.9086914</ele>
        <time>2009-05-31T06:42:24Z</time>
      </trkpt>
      <trkpt lat="44.00253" lon="7.21833">
        <ele>1667.0634766</ele>
        <time>2009-05-31T06:42:27Z</time>
      </trkpt>
      <trkpt lat="44.0025" lon="7.21828">
        <ele>1666.1020508</ele>
        <time>2009-05-31T06:42:29Z</time>
      </trkpt>
      <trkpt lat="44.00248" lon="7.21817">
        <ele>1663.2182617</ele>
        <time>2009-05-31T06:42:33Z</time>
      </trkpt>
      <trkpt lat="44.00248" lon="7.21806">
        <ele>1660.3342285</ele>
        <time>2009-05-31T06:42:36Z</time>
      </trkpt>
      <trkpt lat="44.00253" lon="7.21788">
        <ele>1656.4887695</ele>
        <time>2009-05-31T06:42:41Z</time>
      </trkpt>
      <trkpt lat="44.00255" lon="7.21785">
        <ele>1656.4887695</ele>
        <time>2009-05-31T06:42:42Z</time>
      </trkpt>
      <trkpt lat="44.00252" lon="7.21779">
        <ele>1655.046875</ele>
        <time>2009-05-31T06:42:44Z</time>
      </trkpt>
      <trkpt lat="44.00249" lon="7.21777">
        <ele>1654.5661621</ele>
        <time>2009-05-31T06:42:45Z</time>
      </trkpt>
      <trkpt lat="44.00236" lon="7.21771">
        <ele>1651.2016602</ele>
        <time>2009-05-31T06:42:49Z</time>
      </trkpt>
      <trkpt lat="44.00231" lon="7.21771">
        <ele>1651.2016602</ele>
        <time>2009-05-31T06:42:50Z</time>
      </trkpt>
      <trkpt lat="44.00227" lon="7.21773">
        <ele>1651.682373</ele>
        <time>2009-05-31T06:42:51Z</time>
      </trkpt>
      <trkpt lat="44.00218" lon="7.21781">
        <ele>1654.0856934</ele>
        <time>2009-05-31T06:42:55Z</time>
      </trkpt>
      <trkpt lat="44.00215" lon="7.21795">
        <ele>1655.5275879</ele>
        <time>2009-05-31T06:42:59Z</time>
      </trkpt>
      <trkpt lat="44.00215" lon="7.21814">
        <ele>1656.4887695</ele>
        <time>2009-05-31T06:43:03Z</time>
      </trkpt>
      <trkpt lat="44.00216" lon="7.21824">
        <ele>1656.4887695</ele>
        <time>2009-05-31T06:43:07Z</time>
      </trkpt>
      <trkpt lat="44.00214" lon="7.21836">
        <ele>1656.9694824</ele>
        <time>2009-05-31T06:43:12Z</time>
      </trkpt>
      <trkpt lat="44.0021" lon="7.21844">
        <ele>1658.8920898</ele>
        <time>2009-05-31T06:43:16Z</time>
      </trkpt>
      <trkpt lat="44.00203" lon="7.21852">
        <ele>1660.3342285</ele>
        <time>2009-05-31T06:43:23Z</time>
      </trkpt>
      <trkpt lat="44.00201" lon="7.21855">
        <ele>1660.8149414</ele>
        <time>2009-05-31T06:43:26Z</time>
      </trkpt>
      <trkpt lat="44.00199" lon="7.21864">
        <ele>1662.2568359</ele>
        <time>2009-05-31T06:43:31Z</time>
      </trkpt>
      <trkpt lat="44.00196" lon="7.21877">
        <ele>1662.7375488</ele>
        <time>2009-05-31T06:43:38Z</time>
      </trkpt>
      <trkpt lat="44.00195" lon="7.21882">
        <ele>1663.6987305</ele>
        <time>2009-05-31T06:43:41Z</time>
      </trkpt>
      <trkpt lat="44.00189" lon="7.21892">
        <ele>1665.621582</ele>
        <time>2009-05-31T06:43:49Z</time>
      </trkpt>
      <trkpt lat="44.00188" lon="7.21904">
        <ele>1667.0634766</ele>
        <time>2009-05-31T06:43:54Z</time>
      </trkpt>
      <trkpt lat="44.00187" lon="7.21907">
        <ele>1667.5439453</ele>
        <time>2009-05-31T06:43:56Z</time>
      </trkpt>
      <trkpt lat="44.00185" lon="7.21921">
        <ele>1668.986084</ele>
        <time>2009-05-31T06:44:04Z</time>
      </trkpt>
      <trkpt lat="44.00185" lon="7.21933">
        <ele>1670.9086914</ele>
        <time>2009-05-31T06:44:10Z</time>
      </trkpt>
      <trkpt lat="44.00183" lon="7.21939">
        <ele>1671.3891602</ele>
        <time>2009-05-31T06:44:13Z</time>
      </trkpt>
      <trkpt lat="44.0018" lon="7.21954">
        <ele>1672.3505859</ele>
        <time>2009-05-31T06:44:22Z</time>
      </trkpt>
      <trkpt lat="44.0018" lon="7.21959">
        <ele>1673.3120117</ele>
        <time>2009-05-31T06:44:27Z</time>
      </trkpt>
      <trkpt lat="44.0018" lon="7.21962">
        <ele>1672.8312988</ele>
        <time>2009-05-31T06:44:29Z</time>
      </trkpt>
      <trkpt lat="44.0018" lon="7.21974">
        <ele>1675.7150879</ele>
        <time>2009-05-31T06:44:36Z</time>
      </trkpt>
      <trkpt lat="44.00181" lon="7.21985">
        <ele>1676.6767578</ele>
        <time>2009-05-31T06:44:41Z</time>
      </trkpt>
      <trkpt lat="44.00182" lon="7.21994">
        <ele>1677.1574707</ele>
        <time>2009-05-31T06:44:46Z</time>
      </trkpt>
      <trkpt lat="44.00182" lon="7.22005">
        <ele>1679.079834</ele>
        <time>2009-05-31T06:44:51Z</time>
      </trkpt>
      <trkpt lat="44.00182" lon="7.22014">
        <ele>1681.4831543</ele>
        <time>2009-05-31T06:44:56Z</time>
      </trkpt>
      <trkpt lat="44.00181" lon="7.22021">
        <ele>1681.0026855</ele>
        <time>2009-05-31T06:45:02Z</time>
      </trkpt>
      <trkpt lat="44.00181" lon="7.22022">
        <ele>1681.9638672</ele>
        <time>2009-05-31T06:45:05Z</time>
      </trkpt>
      <trkpt lat="44.00179" lon="7.22027">
        <ele>1681.9638672</ele>
        <time>2009-05-31T06:45:09Z</time>
      </trkpt>
      <trkpt lat="44.00179" lon="7.22038">
        <ele>1683.4057617</ele>
        <time>2009-05-31T06:45:15Z</time>
      </trkpt>
      <trkpt lat="44.00178" lon="7.22051">
        <ele>1685.3283691</ele>
        <time>2009-05-31T06:45:22Z</time>
      </trkpt>
      <trkpt lat="44.00176" lon="7.22067">
        <ele>1688.2124023</ele>
        <time>2009-05-31T06:45:31Z</time>
      </trkpt>
      <trkpt lat="44.00176" lon="7.22068">
        <ele>1687.7316895</ele>
        <time>2009-05-31T06:45:32Z</time>
      </trkpt>
      <trkpt lat="44.00173" lon="7.22077">
        <ele>1688.2124023</ele>
        <time>2009-05-31T06:45:40Z</time>
      </trkpt>
      <trkpt lat="44.00169" lon="7.22086">
        <ele>1690.1350098</ele>
        <time>2009-05-31T06:45:49Z</time>
      </trkpt>
      <trkpt lat="44.00168" lon="7.22093">
        <ele>1691.5769043</ele>
        <time>2009-05-31T06:45:56Z</time>
      </trkpt>
      <trkpt lat="44.00166" lon="7.22098">
        <ele>1692.0578613</ele>
        <time>2009-05-31T06:46:01Z</time>
      </trkpt>
      <trkpt lat="44.00163" lon="7.22111">
        <ele>1693.4997559</ele>
        <time>2009-05-31T06:46:08Z</time>
      </trkpt>
      <trkpt lat="44.00163" lon="7.2212">
        <ele>1694.9416504</ele>
        <time>2009-05-31T06:46:14Z</time>
      </trkpt>
      <trkpt lat="44.00164" lon="7.2213">
        <ele>1695.4223633</ele>
        <time>2009-05-31T06:46:19Z</time>
      </trkpt>
      <trkpt lat="44.00165" lon="7.22141">
        <ele>1698.3061523</ele>
        <time>2009-05-31T06:46:27Z</time>
      </trkpt>
      <trkpt lat="44.00164" lon="7.22143">
        <ele>1698.3061523</ele>
        <time>2009-05-31T06:46:30Z</time>
      </trkpt>
      <trkpt lat="44.0016" lon="7.22147">
        <ele>1699.748291</ele>
        <time>2009-05-31T06:46:37Z</time>
      </trkpt>
      <trkpt lat="44.00162" lon="7.22158">
        <ele>1701.6708984</ele>
        <time>2009-05-31T06:46:43Z</time>
      </trkpt>
      <trkpt lat="44.00165" lon="7.22164">
        <ele>1703.112793</ele>
        <time>2009-05-31T06:46:47Z</time>
      </trkpt>
      <trkpt lat="44.00169" lon="7.2217">
        <ele>1702.6320801</ele>
        <time>2009-05-31T06:46:52Z</time>
      </trkpt>
      <trkpt lat="44.0017" lon="7.22173">
        <ele>1702.6320801</ele>
        <time>2009-05-31T06:46:54Z</time>
      </trkpt>
      <trkpt lat="44.00171" lon="7.22182">
        <ele>1702.6320801</ele>
        <time>2009-05-31T06:46:59Z</time>
      </trkpt>
      <trkpt lat="44.00168" lon="7.22186">
        <ele>1703.112793</ele>
        <time>2009-05-31T06:47:05Z</time>
      </trkpt>
      <trkpt lat="44.00171" lon="7.22195">
        <ele>1702.6320801</ele>
        <time>2009-05-31T06:47:10Z</time>
      </trkpt>
      <trkpt lat="44.00174" lon="7.22199">
        <ele>1703.5935059</ele>
        <time>2009-05-31T06:47:16Z</time>
      </trkpt>
      <trkpt lat="44.00177" lon="7.22195">
        <ele>1705.5161133</ele>
        <time>2009-05-31T06:47:23Z</time>
      </trkpt>
      <trkpt lat="44.00181" lon="7.22185">
        <ele>1706.9580078</ele>
        <time>2009-05-31T06:47:30Z</time>
      </trkpt>
      <trkpt lat="44.00181" lon="7.22177">
        <ele>1708.4001465</ele>
        <time>2009-05-31T06:47:34Z</time>
      </trkpt>
      <trkpt lat="44.00184" lon="7.22175">
        <ele>1709.3615723</ele>
        <time>2009-05-31T06:47:38Z</time>
      </trkpt>
      <trkpt lat="44.00185" lon="7.22178">
        <ele>1709.842041</ele>
        <time>2009-05-31T06:47:43Z</time>
      </trkpt>
      <trkpt lat="44.00186" lon="7.22185">
        <ele>1710.8034668</ele>
        <time>2009-05-31T06:47:48Z</time>
      </trkpt>
      <trkpt lat="44.00187" lon="7.22188">
        <ele>1711.2841797</ele>
        <time>2009-05-31T06:47:52Z</time>
      </trkpt>
      <trkpt lat="44.00188" lon="7.22194">
        <ele>1711.2841797</ele>
        <time>2009-05-31T06:47:56Z</time>
      </trkpt>
      <trkpt lat="44.00191" lon="7.22204">
        <ele>1712.7260742</ele>
        <time>2009-05-31T06:48:02Z</time>
      </trkpt>
      <trkpt lat="44.0019" lon="7.22209">
        <ele>1713.2067871</ele>
        <time>2009-05-31T06:48:05Z</time>
      </trkpt>
      <trkpt lat="44.00186" lon="7.22217">
        <ele>1714.6486816</ele>
        <time>2009-05-31T06:48:12Z</time>
      </trkpt>
      <trkpt lat="44.00184" lon="7.22223">
        <ele>1714.6486816</ele>
        <time>2009-05-31T06:48:17Z</time>
      </trkpt>
      <trkpt lat="44.0018" lon="7.22234">
        <ele>1716.0905762</ele>
        <time>2009-05-31T06:48:23Z</time>
      </trkpt>
      <trkpt lat="44.00173" lon="7.22245">
        <ele>1717.5324707</ele>
        <time>2009-05-31T06:48:31Z</time>
      </trkpt>
      <trkpt lat="44.00169" lon="7.22255">
        <ele>1718.9746094</ele>
        <time>2009-05-31T06:48:38Z</time>
      </trkpt>
      <trkpt lat="44.00168" lon="7.22266">
        <ele>1718.9746094</ele>
        <time>2009-05-31T06:48:44Z</time>
      </trkpt>
      <trkpt lat="44.00169" lon="7.22277">
        <ele>1719.4553223</ele>
        <time>2009-05-31T06:48:52Z</time>
      </trkpt>
      <trkpt lat="44.00169" lon="7.22282">
        <ele>1718.9746094</ele>
        <time>2009-05-31T06:48:54Z</time>
      </trkpt>
      <trkpt lat="44.00166" lon="7.2229">
        <ele>1718.9746094</ele>
        <time>2009-05-31T06:48:57Z</time>
      </trkpt>
      <trkpt lat="44.00164" lon="7.2231">
        <ele>1719.4553223</ele>
        <time>2009-05-31T06:49:03Z</time>
      </trkpt>
      <trkpt lat="44.00156" lon="7.22322">
        <ele>1719.935791</ele>
        <time>2009-05-31T06:49:08Z</time>
      </trkpt>
      <trkpt lat="44.00154" lon="7.22324">
        <ele>1721.3776855</ele>
        <time>2009-05-31T06:49:09Z</time>
      </trkpt>
      <trkpt lat="44.00154" lon="7.22337">
        <ele>1722.8198242</ele>
        <time>2009-05-31T06:49:14Z</time>
      </trkpt>
      <trkpt lat="44.00157" lon="7.22352">
        <ele>1723.3005371</ele>
        <time>2009-05-31T06:49:19Z</time>
      </trkpt>
      <trkpt lat="44.00157" lon="7.22371">
        <ele>1724.7426758</ele>
        <time>2009-05-31T06:49:26Z</time>
      </trkpt>
      <trkpt lat="44.00157" lon="7.22388">
        <ele>1725.7038574</ele>
        <time>2009-05-31T06:49:32Z</time>
      </trkpt>
      <trkpt lat="44.0016" lon="7.22394">
        <ele>1726.1845703</ele>
        <time>2009-05-31T06:49:35Z</time>
      </trkpt>
      <trkpt lat="44.0016" lon="7.22403">
        <ele>1727.1459961</ele>
        <time>2009-05-31T06:49:39Z</time>
      </trkpt>
      <trkpt lat="44.0016" lon="7.22408">
        <ele>1727.6264648</ele>
        <time>2009-05-31T06:49:41Z</time>
      </trkpt>
      <trkpt lat="44.00161" lon="7.22412">
        <ele>1728.5878906</ele>
        <time>2009-05-31T06:49:45Z</time>
      </trkpt>
      <trkpt lat="44.0016" lon="7.22419">
        <ele>1729.5490723</ele>
        <time>2009-05-31T06:49:50Z</time>
      </trkpt>
      <trkpt lat="44.00156" lon="7.22427">
        <ele>1731.4716797</ele>
        <time>2009-05-31T06:49:59Z</time>
      </trkpt>
      <trkpt lat="44.00148" lon="7.2243">
        <ele>1732.4331055</ele>
        <time>2009-05-31T06:50:06Z</time>
      </trkpt>
      <trkpt lat="44.00143" lon="7.22442">
        <ele>1732.4331055</ele>
        <time>2009-05-31T06:50:14Z</time>
      </trkpt>
      <trkpt lat="44.00144" lon="7.22449">
        <ele>1734.3557129</ele>
        <time>2009-05-31T06:50:18Z</time>
      </trkpt>
      <trkpt lat="44.00144" lon="7.22452">
        <ele>1734.3557129</ele>
        <time>2009-05-31T06:50:20Z</time>
      </trkpt>
      <trkpt lat="44.00145" lon="7.22456">
        <ele>1735.3168945</ele>
        <time>2009-05-31T06:50:22Z</time>
      </trkpt>
      <trkpt lat="44.00147" lon="7.22461">
        <ele>1736.2783203</ele>
        <time>2009-05-31T06:50:25Z</time>
      </trkpt>
      <trkpt lat="44.0015" lon="7.22474">
        <ele>1737.7202148</ele>
        <time>2009-05-31T06:50:34Z</time>
      </trkpt>
      <trkpt lat="44.00141" lon="7.22484">
        <ele>1738.2009277</ele>
        <time>2009-05-31T06:50:43Z</time>
      </trkpt>
      <trkpt lat="44.00138" lon="7.22487">
        <ele>1738.2009277</ele>
        <time>2009-05-31T06:50:48Z</time>
      </trkpt>
      <trkpt lat="44.00135" lon="7.22492">
        <ele>1738.2009277</ele>
        <time>2009-05-31T06:50:50Z</time>
      </trkpt>
      <trkpt lat="44.00135" lon="7.22503">
        <ele>1739.1621094</ele>
        <time>2009-05-31T06:50:55Z</time>
      </trkpt>
      <trkpt lat="44.00136" lon="7.22516">
        <ele>1740.604248</ele>
        <time>2009-05-31T06:51:01Z</time>
      </trkpt>
      <trkpt lat="44.00137" lon="7.22532">
        <ele>1741.5656738</ele>
        <time>2009-05-31T06:51:07Z</time>
      </trkpt>
      <trkpt lat="44.00138" lon="7.22535">
        <ele>1741.5656738</ele>
        <time>2009-05-31T06:51:08Z</time>
      </trkpt>
      <trkpt lat="44.00139" lon="7.22559">
        <ele>1742.0463867</ele>
        <time>2009-05-31T06:51:17Z</time>
      </trkpt>
      <trkpt lat="44.00136" lon="7.22581">
        <ele>1741.5656738</ele>
        <time>2009-05-31T06:51:23Z</time>
      </trkpt>
      <trkpt lat="44.00134" lon="7.226">
        <ele>1740.1237793</ele>
        <time>2009-05-31T06:51:27Z</time>
      </trkpt>
      <trkpt lat="44.00132" lon="7.22613">
        <ele>1739.6428223</ele>
        <time>2009-05-31T06:51:29Z</time>
      </trkpt>
      <trkpt lat="44.00125" lon="7.22633">
        <ele>1738.2009277</ele>
        <time>2009-05-31T06:51:32Z</time>
      </trkpt>
      <trkpt lat="44.00112" lon="7.22653">
        <ele>1738.2009277</ele>
        <time>2009-05-31T06:51:36Z</time>
      </trkpt>
      <trkpt lat="44.00096" lon="7.22689">
        <ele>1737.239502</ele>
        <time>2009-05-31T06:51:42Z</time>
      </trkpt>
      <trkpt lat="44.00093" lon="7.22695">
        <ele>1735.7976074</ele>
        <time>2009-05-31T06:51:43Z</time>
      </trkpt>
      <trkpt lat="44.00089" lon="7.22721">
        <ele>1736.7587891</ele>
        <time>2009-05-31T06:51:47Z</time>
      </trkpt>
      <trkpt lat="44.00074" lon="7.2275">
        <ele>1736.7587891</ele>
        <time>2009-05-31T06:51:52Z</time>
      </trkpt>
      <trkpt lat="44.00066" lon="7.22758">
        <ele>1736.7587891</ele>
        <time>2009-05-31T06:51:54Z</time>
      </trkpt>
      <trkpt lat="44.00057" lon="7.22763">
        <ele>1737.7202148</ele>
        <time>2009-05-31T06:51:56Z</time>
      </trkpt>
      <trkpt lat="44.0005" lon="7.22785">
        <ele>1736.7587891</ele>
        <time>2009-05-31T06:52:00Z</time>
      </trkpt>
      <trkpt lat="44.00052" lon="7.22807">
        <ele>1737.239502</ele>
        <time>2009-05-31T06:52:04Z</time>
      </trkpt>
      <trkpt lat="44.00053" lon="7.22812">
        <ele>1736.7587891</ele>
        <time>2009-05-31T06:52:05Z</time>
      </trkpt>
      <trkpt lat="44.00055" lon="7.22844">
        <ele>1738.2009277</ele>
        <time>2009-05-31T06:52:11Z</time>
      </trkpt>
      <trkpt lat="44.00063" lon="7.2287">
        <ele>1738.2009277</ele>
        <time>2009-05-31T06:52:16Z</time>
      </trkpt>
      <trkpt lat="44.00066" lon="7.22896">
        <ele>1738.6816406</ele>
        <time>2009-05-31T06:52:21Z</time>
      </trkpt>
      <trkpt lat="44.00065" lon="7.22925">
        <ele>1739.6428223</ele>
        <time>2009-05-31T06:52:26Z</time>
      </trkpt>
      <trkpt lat="44.00056" lon="7.22945">
        <ele>1739.6428223</ele>
        <time>2009-05-31T06:52:31Z</time>
      </trkpt>
      <trkpt lat="44.00039" lon="7.22966">
        <ele>1739.6428223</ele>
        <time>2009-05-31T06:52:37Z</time>
      </trkpt>
      <trkpt lat="44.00019" lon="7.22989">
        <ele>1738.2009277</ele>
        <time>2009-05-31T06:52:43Z</time>
      </trkpt>
      <trkpt lat="44" lon="7.23012">
        <ele>1736.7587891</ele>
        <time>2009-05-31T06:52:48Z</time>
      </trkpt>
      <trkpt lat="43.99967" lon="7.23045">
        <ele>1736.2783203</ele>
        <time>2009-05-31T06:52:55Z</time>
      </trkpt>
      <trkpt lat="43.99946" lon="7.23068">
        <ele>1735.3168945</ele>
        <time>2009-05-31T06:52:59Z</time>
      </trkpt>
      <trkpt lat="43.99921" lon="7.23098">
        <ele>1731.4716797</ele>
        <time>2009-05-31T06:53:03Z</time>
      </trkpt>
      <trkpt lat="43.99914" lon="7.23106">
        <ele>1731.4716797</ele>
        <time>2009-05-31T06:53:04Z</time>
      </trkpt>
      <trkpt lat="43.99898" lon="7.23123">
        <ele>1730.510498</ele>
        <time>2009-05-31T06:53:06Z</time>
      </trkpt>
      <trkpt lat="43.99889" lon="7.23131">
        <ele>1729.0683594</ele>
        <time>2009-05-31T06:53:07Z</time>
      </trkpt>
      <trkpt lat="43.99873" lon="7.23141">
        <ele>1728.1071777</ele>
        <time>2009-05-31T06:53:09Z</time>
      </trkpt>
      <trkpt lat="43.99843" lon="7.23165">
        <ele>1724.2619629</ele>
        <time>2009-05-31T06:53:13Z</time>
      </trkpt>
      <trkpt lat="43.99834" lon="7.23194">
        <ele>1722.8198242</ele>
        <time>2009-05-31T06:53:16Z</time>
      </trkpt>
      <trkpt lat="43.99837" lon="7.23215">
        <ele>1721.8583984</ele>
        <time>2009-05-31T06:53:18Z</time>
      </trkpt>
      <trkpt lat="43.99842" lon="7.23224">
        <ele>1721.3776855</ele>
        <time>2009-05-31T06:53:19Z</time>
      </trkpt>
      <trkpt lat="43.99857" lon="7.23269">
        <ele>1716.5712891</ele>
        <time>2009-05-31T06:53:23Z</time>
      </trkpt>
      <trkpt lat="43.99869" lon="7.23322">
        <ele>1713.2067871</ele>
        <time>2009-05-31T06:53:27Z</time>
      </trkpt>
      <trkpt lat="43.99882" lon="7.23376">
        <ele>1708.4001465</ele>
        <time>2009-05-31T06:53:31Z</time>
      </trkpt>
      <trkpt lat="43.99886" lon="7.23389">
        <ele>1707.9194336</ele>
        <time>2009-05-31T06:53:32Z</time>
      </trkpt>
      <trkpt lat="43.99891" lon="7.23416">
        <ele>1705.5161133</ele>
        <time>2009-05-31T06:53:34Z</time>
      </trkpt>
      <trkpt lat="43.99895" lon="7.23442">
        <ele>1703.5935059</ele>
        <time>2009-05-31T06:53:36Z</time>
      </trkpt>
      <trkpt lat="43.99896" lon="7.23456">
        <ele>1701.6708984</ele>
        <time>2009-05-31T06:53:37Z</time>
      </trkpt>
      <trkpt lat="43.99888" lon="7.23506">
        <ele>1696.3837891</ele>
        <time>2009-05-31T06:53:41Z</time>
      </trkpt>
      <trkpt lat="43.99885" lon="7.23518">
        <ele>1696.3837891</ele>
        <time>2009-05-31T06:53:42Z</time>
      </trkpt>
      <trkpt lat="43.99871" lon="7.23578">
        <ele>1695.9030762</ele>
        <time>2009-05-31T06:53:47Z</time>
      </trkpt>
      <trkpt lat="43.99865" lon="7.23597">
        <ele>1695.9030762</ele>
        <time>2009-05-31T06:53:49Z</time>
      </trkpt>
      <trkpt lat="43.99863" lon="7.23599">
        <ele>1695.9030762</ele>
        <time>2009-05-31T06:53:52Z</time>
      </trkpt>
      <trkpt lat="43.99859" lon="7.23602">
        <ele>1695.4223633</ele>
        <time>2009-05-31T06:53:57Z</time>
      </trkpt>
      <trkpt lat="43.99858" lon="7.23603">
        <ele>1694.4609375</ele>
        <time>2009-05-31T06:54:08Z</time>
      </trkpt>
      <trkpt lat="43.99857" lon="7.23602">
        <ele>1694.4609375</ele>
        <time>2009-05-31T06:54:27Z</time>
      </trkpt>
      <trkpt lat="43.99855" lon="7.23599">
        <ele>1691.5769043</ele>
        <time>2009-05-31T06:55:58Z</time>
      </trkpt>
      <trkpt lat="43.99858" lon="7.23601">
        <ele>1693.9804688</ele>
        <time>2009-05-31T06:56:39Z</time>
      </trkpt>
      <trkpt lat="43.99855" lon="7.23605">
        <ele>1693.019043</ele>
        <time>2009-05-31T06:56:44Z</time>
      </trkpt>
      <trkpt lat="43.99854" lon="7.23606">
        <ele>1692.5385742</ele>
        <time>2009-05-31T06:56:47Z</time>
      </trkpt>
      <trkpt lat="43.9985" lon="7.23604">
        <ele>1693.019043</ele>
        <time>2009-05-31T06:56:53Z</time>
      </trkpt>
      <trkpt lat="43.9985" lon="7.23599">
        <ele>1692.0578613</ele>
        <time>2009-05-31T06:56:55Z</time>
      </trkpt>
      <trkpt lat="43.99851" lon="7.23593">
        <ele>1690.6154785</ele>
        <time>2009-05-31T06:56:57Z</time>
      </trkpt>
      <trkpt lat="43.99847" lon="7.23592">
        <ele>1689.173584</ele>
        <time>2009-05-31T06:56:59Z</time>
      </trkpt>
      <trkpt lat="43.99843" lon="7.23581">
        <ele>1687.2509766</ele>
        <time>2009-05-31T06:57:03Z</time>
      </trkpt>
      <trkpt lat="43.99844" lon="7.23573">
        <ele>1685.809082</ele>
        <time>2009-05-31T06:57:05Z</time>
      </trkpt>
      <trkpt lat="43.99843" lon="7.23565">
        <ele>1685.809082</ele>
        <time>2009-05-31T06:57:07Z</time>
      </trkpt>
      <trkpt lat="43.99839" lon="7.23561">
        <ele>1684.3671875</ele>
        <time>2009-05-31T06:57:11Z</time>
      </trkpt>
      <trkpt lat="43.99832" lon="7.23561">
        <ele>1683.4057617</ele>
        <time>2009-05-31T06:57:13Z</time>
      </trkpt>
      <trkpt lat="43.99822" lon="7.23561">
        <ele>1680.0412598</ele>
        <time>2009-05-31T06:57:16Z</time>
      </trkpt>
      <trkpt lat="43.99815" lon="7.23565">
        <ele>1678.1186523</ele>
        <time>2009-05-31T06:57:18Z</time>
      </trkpt>
      <trkpt lat="43.9981" lon="7.23569">
        <ele>1677.1574707</ele>
        <time>2009-05-31T06:57:21Z</time>
      </trkpt>
      <trkpt lat="43.99804" lon="7.23571">
        <ele>1675.7150879</ele>
        <time>2009-05-31T06:57:25Z</time>
      </trkpt>
      <trkpt lat="43.99793" lon="7.23576">
        <ele>1673.7924805</ele>
        <time>2009-05-31T06:57:29Z</time>
      </trkpt>
      <trkpt lat="43.99796" lon="7.2356">
        <ele>1670.9086914</ele>
        <time>2009-05-31T06:57:33Z</time>
      </trkpt>
      <trkpt lat="43.99798" lon="7.23555">
        <ele>1669.4667969</ele>
        <time>2009-05-31T06:57:34Z</time>
      </trkpt>
      <trkpt lat="43.99798" lon="7.23543">
        <ele>1668.0246582</ele>
        <time>2009-05-31T06:57:39Z</time>
      </trkpt>
      <trkpt lat="43.99797" lon="7.23544">
        <ele>1667.5439453</ele>
        <time>2009-05-31T06:57:40Z</time>
      </trkpt>
      <trkpt lat="43.99792" lon="7.23548">
        <ele>1667.0634766</ele>
        <time>2009-05-31T06:57:44Z</time>
      </trkpt>
      <trkpt lat="43.99778" lon="7.2355">
        <ele>1664.1794434</ele>
        <time>2009-05-31T06:57:48Z</time>
      </trkpt>
      <trkpt lat="43.99765" lon="7.23548">
        <ele>1660.8149414</ele>
        <time>2009-05-31T06:57:51Z</time>
      </trkpt>
      <trkpt lat="43.99756" lon="7.23541">
        <ele>1657.9309082</ele>
        <time>2009-05-31T06:57:55Z</time>
      </trkpt>
      <trkpt lat="43.99755" lon="7.23531">
        <ele>1655.046875</ele>
        <time>2009-05-31T06:57:59Z</time>
      </trkpt>
      <trkpt lat="43.99751" lon="7.23526">
        <ele>1653.6049805</ele>
        <time>2009-05-31T06:58:02Z</time>
      </trkpt>
      <trkpt lat="43.99747" lon="7.2352">
        <ele>1651.2016602</ele>
        <time>2009-05-31T06:58:05Z</time>
      </trkpt>
      <trkpt lat="43.99741" lon="7.23518">
        <ele>1648.7983398</ele>
        <time>2009-05-31T06:58:08Z</time>
      </trkpt>
      <trkpt lat="43.99741" lon="7.23504">
        <ele>1645.9145508</ele>
        <time>2009-05-31T06:58:12Z</time>
      </trkpt>
      <trkpt lat="43.9974" lon="7.23494">
        <ele>1643.5109863</ele>
        <time>2009-05-31T06:58:16Z</time>
      </trkpt>
      <trkpt lat="43.99732" lon="7.23497">
        <ele>1641.5883789</ele>
        <time>2009-05-31T06:58:20Z</time>
      </trkpt>
      <trkpt lat="43.99721" lon="7.235">
        <ele>1639.1850586</ele>
        <time>2009-05-31T06:58:24Z</time>
      </trkpt>
      <trkpt lat="43.99719" lon="7.23494">
        <ele>1638.223877</ele>
        <time>2009-05-31T06:58:26Z</time>
      </trkpt>
      <trkpt lat="43.99722" lon="7.23481">
        <ele>1635.3398438</ele>
        <time>2009-05-31T06:58:29Z</time>
      </trkpt>
      <trkpt lat="43.99715" lon="7.23476">
        <ele>1633.4172363</ele>
        <time>2009-05-31T06:58:32Z</time>
      </trkpt>
      <trkpt lat="43.99711" lon="7.23477">
        <ele>1633.4172363</ele>
        <time>2009-05-31T06:58:33Z</time>
      </trkpt>
      <trkpt lat="43.99697" lon="7.23483">
        <ele>1631.0141602</ele>
        <time>2009-05-31T06:58:36Z</time>
      </trkpt>
      <trkpt lat="43.99688" lon="7.23483">
        <ele>1631.0141602</ele>
        <time>2009-05-31T06:58:40Z</time>
      </trkpt>
      <trkpt lat="43.99687" lon="7.23479">
        <ele>1628.6108398</ele>
        <time>2009-05-31T06:58:44Z</time>
      </trkpt>
      <trkpt lat="43.99687" lon="7.23478">
        <ele>1626.2072754</ele>
        <time>2009-05-31T06:58:51Z</time>
      </trkpt>
      <trkpt lat="43.99686" lon="7.23478">
        <ele>1626.2072754</ele>
        <time>2009-05-31T06:58:52Z</time>
      </trkpt>
      <trkpt lat="43.99685" lon="7.23478">
        <ele>1626.2072754</ele>
        <time>2009-05-31T06:58:53Z</time>
      </trkpt>
      <trkpt lat="43.99681" lon="7.23473">
        <ele>1622.8427734</ele>
        <time>2009-05-31T06:58:58Z</time>
      </trkpt>
      <trkpt lat="43.99684" lon="7.23465">
        <ele>1620.920166</ele>
        <time>2009-05-31T06:59:00Z</time>
      </trkpt>
      <trkpt lat="43.99673" lon="7.23465">
        <ele>1618.9975586</ele>
        <time>2009-05-31T06:59:05Z</time>
      </trkpt>
      <trkpt lat="43.9967" lon="7.23468">
        <ele>1618.9975586</ele>
        <time>2009-05-31T06:59:06Z</time>
      </trkpt>
      <trkpt lat="43.99651" lon="7.23479">
        <ele>1615.1523438</ele>
        <time>2009-05-31T06:59:11Z</time>
      </trkpt>
      <trkpt lat="43.99648" lon="7.23479">
        <ele>1615.1523438</ele>
        <time>2009-05-31T06:59:12Z</time>
      </trkpt>
      <trkpt lat="43.99652" lon="7.23462">
        <ele>1612.7490234</ele>
        <time>2009-05-31T06:59:16Z</time>
      </trkpt>
      <trkpt lat="43.99647" lon="7.23455">
        <ele>1610.345459</ele>
        <time>2009-05-31T06:59:20Z</time>
      </trkpt>
      <trkpt lat="43.99639" lon="7.23459">
        <ele>1608.4228516</ele>
        <time>2009-05-31T06:59:23Z</time>
      </trkpt>
      <trkpt lat="43.99639" lon="7.23455">
        <ele>1607.9423828</ele>
        <time>2009-05-31T06:59:25Z</time>
      </trkpt>
      <trkpt lat="43.9964" lon="7.23446">
        <ele>1607.4616699</ele>
        <time>2009-05-31T06:59:27Z</time>
      </trkpt>
      <trkpt lat="43.99634" lon="7.23427">
        <ele>1602.1743164</ele>
        <time>2009-05-31T06:59:32Z</time>
      </trkpt>
      <trkpt lat="43.99619" lon="7.23424">
        <ele>1600.2519531</ele>
        <time>2009-05-31T06:59:36Z</time>
      </trkpt>
      <trkpt lat="43.99613" lon="7.23425">
        <ele>1599.2905273</ele>
        <time>2009-05-31T06:59:37Z</time>
      </trkpt>
      <trkpt lat="43.99601" lon="7.23427">
        <ele>1597.8486328</ele>
        <time>2009-05-31T06:59:39Z</time>
      </trkpt>
      <trkpt lat="43.9958" lon="7.23427">
        <ele>1591.5998535</ele>
        <time>2009-05-31T06:59:42Z</time>
      </trkpt>
      <trkpt lat="43.99574" lon="7.23429">
        <ele>1591.1191406</ele>
        <time>2009-05-31T06:59:43Z</time>
      </trkpt>
      <trkpt lat="43.99559" lon="7.23431">
        <ele>1588.7160645</ele>
        <time>2009-05-31T06:59:46Z</time>
      </trkpt>
      <trkpt lat="43.99554" lon="7.23428">
        <ele>1587.7546387</ele>
        <time>2009-05-31T06:59:48Z</time>
      </trkpt>
      <trkpt lat="43.9956" lon="7.23412">
        <ele>1585.8320312</ele>
        <time>2009-05-31T06:59:51Z</time>
      </trkpt>
      <trkpt lat="43.99562" lon="7.23404">
        <ele>1585.3513184</ele>
        <time>2009-05-31T06:59:52Z</time>
      </trkpt>
      <trkpt lat="43.99557" lon="7.23389">
        <ele>1583.4287109</ele>
        <time>2009-05-31T06:59:54Z</time>
      </trkpt>
      <trkpt lat="43.99551" lon="7.23382">
        <ele>1583.4287109</ele>
        <time>2009-05-31T06:59:55Z</time>
      </trkpt>
      <trkpt lat="43.99528" lon="7.23365">
        <ele>1581.5061035</ele>
        <time>2009-05-31T06:59:58Z</time>
      </trkpt>
      <trkpt lat="43.99495" lon="7.23346">
        <ele>1578.1413574</ele>
        <time>2009-05-31T07:00:02Z</time>
      </trkpt>
      <trkpt lat="43.99483" lon="7.23338">
        <ele>1577.1801758</ele>
        <time>2009-05-31T07:00:04Z</time>
      </trkpt>
      <trkpt lat="43.99475" lon="7.23333">
        <ele>1574.7768555</ele>
        <time>2009-05-31T07:00:06Z</time>
      </trkpt>
      <trkpt lat="43.99471" lon="7.2333">
        <ele>1573.8154297</ele>
        <time>2009-05-31T07:00:07Z</time>
      </trkpt>
      <trkpt lat="43.9946" lon="7.23326">
        <ele>1573.3349609</ele>
        <time>2009-05-31T07:00:09Z</time>
      </trkpt>
      <trkpt lat="43.9945" lon="7.23319">
        <ele>1570.9316406</ele>
        <time>2009-05-31T07:00:11Z</time>
      </trkpt>
      <trkpt lat="43.99435" lon="7.23315">
        <ele>1566.6057129</ele>
        <time>2009-05-31T07:00:14Z</time>
      </trkpt>
      <trkpt lat="43.99426" lon="7.23309">
        <ele>1564.2023926</ele>
        <time>2009-05-31T07:00:16Z</time>
      </trkpt>
      <trkpt lat="43.99415" lon="7.23298">
        <ele>1559.8762207</ele>
        <time>2009-05-31T07:00:19Z</time>
      </trkpt>
      <trkpt lat="43.99406" lon="7.2329">
        <ele>1556.0310059</ele>
        <time>2009-05-31T07:00:22Z</time>
      </trkpt>
      <trkpt lat="43.99401" lon="7.23284">
        <ele>1555.0698242</ele>
        <time>2009-05-31T07:00:24Z</time>
      </trkpt>
      <trkpt lat="43.99393" lon="7.2328">
        <ele>1552.185791</ele>
        <time>2009-05-31T07:00:27Z</time>
      </trkpt>
      <trkpt lat="43.99381" lon="7.23275">
        <ele>1547.8598633</ele>
        <time>2009-05-31T07:00:31Z</time>
      </trkpt>
      <trkpt lat="43.99374" lon="7.23268">
        <ele>1544.4951172</ele>
        <time>2009-05-31T07:00:33Z</time>
      </trkpt>
      <trkpt lat="43.9937" lon="7.23263">
        <ele>1543.5339355</ele>
        <time>2009-05-31T07:00:34Z</time>
      </trkpt>
      <trkpt lat="43.99359" lon="7.23249">
        <ele>1539.2080078</ele>
        <time>2009-05-31T07:00:37Z</time>
      </trkpt>
      <trkpt lat="43.99334" lon="7.23219">
        <ele>1536.3242188</ele>
        <time>2009-05-31T07:00:42Z</time>
      </trkpt>
      <trkpt lat="43.99323" lon="7.23208">
        <ele>1533.9208984</ele>
        <time>2009-05-31T07:00:44Z</time>
      </trkpt>
      <trkpt lat="43.99315" lon="7.23201">
        <ele>1531.0368652</ele>
        <time>2009-05-31T07:00:46Z</time>
      </trkpt>
      <trkpt lat="43.99301" lon="7.2319">
        <ele>1526.7109375</ele>
        <time>2009-05-31T07:00:50Z</time>
      </trkpt>
      <trkpt lat="43.99298" lon="7.23188">
        <ele>1526.7109375</ele>
        <time>2009-05-31T07:00:51Z</time>
      </trkpt>
      <trkpt lat="43.99294" lon="7.23187">
        <ele>1525.7495117</ele>
        <time>2009-05-31T07:00:52Z</time>
      </trkpt>
      <trkpt lat="43.99284" lon="7.23185">
        <ele>1523.3464355</ele>
        <time>2009-05-31T07:00:55Z</time>
      </trkpt>
      <trkpt lat="43.99274" lon="7.23184">
        <ele>1520.4624023</ele>
        <time>2009-05-31T07:00:59Z</time>
      </trkpt>
      <trkpt lat="43.99266" lon="7.23186">
        <ele>1518.059082</ele>
        <time>2009-05-31T07:01:03Z</time>
      </trkpt>
      <trkpt lat="43.99262" lon="7.23186">
        <ele>1516.1364746</ele>
        <time>2009-05-31T07:01:04Z</time>
      </trkpt>
      <trkpt lat="43.99253" lon="7.23185">
        <ele>1513.7329102</ele>
        <time>2009-05-31T07:01:06Z</time>
      </trkpt>
      <trkpt lat="43.9924" lon="7.23181">
        <ele>1508.9265137</ele>
        <time>2009-05-31T07:01:09Z</time>
      </trkpt>
      <trkpt lat="43.99229" lon="7.23178">
        <ele>1507.0039062</ele>
        <time>2009-05-31T07:01:11Z</time>
      </trkpt>
      <trkpt lat="43.99205" lon="7.23162">
        <ele>1504.6005859</ele>
        <time>2009-05-31T07:01:15Z</time>
      </trkpt>
      <trkpt lat="43.99192" lon="7.23155">
        <ele>1502.6779785</ele>
        <time>2009-05-31T07:01:18Z</time>
      </trkpt>
      <trkpt lat="43.99188" lon="7.23156">
        <ele>1502.1972656</ele>
        <time>2009-05-31T07:01:20Z</time>
      </trkpt>
      <trkpt lat="43.99183" lon="7.23162">
        <ele>1498.8325195</ele>
        <time>2009-05-31T07:01:23Z</time>
      </trkpt>
      <trkpt lat="43.99172" lon="7.23166">
        <ele>1494.9873047</ele>
        <time>2009-05-31T07:01:27Z</time>
      </trkpt>
      <trkpt lat="43.99159" lon="7.23166">
        <ele>1492.1035156</ele>
        <time>2009-05-31T07:01:30Z</time>
      </trkpt>
      <trkpt lat="43.99143" lon="7.23169">
        <ele>1490.1809082</ele>
        <time>2009-05-31T07:01:33Z</time>
      </trkpt>
      <trkpt lat="43.99137" lon="7.23169">
        <ele>1489.2194824</ele>
        <time>2009-05-31T07:01:34Z</time>
      </trkpt>
      <trkpt lat="43.99118" lon="7.23173">
        <ele>1487.296875</ele>
        <time>2009-05-31T07:01:37Z</time>
      </trkpt>
      <trkpt lat="43.99113" lon="7.23174">
        <ele>1486.3356934</ele>
        <time>2009-05-31T07:01:38Z</time>
      </trkpt>
      <trkpt lat="43.99097" lon="7.23179">
        <ele>1484.4130859</ele>
        <time>2009-05-31T07:01:42Z</time>
      </trkpt>
      <trkpt lat="43.99087" lon="7.23181">
        <ele>1483.9321289</ele>
        <time>2009-05-31T07:01:44Z</time>
      </trkpt>
      <trkpt lat="43.99067" lon="7.23188">
        <ele>1483.9321289</ele>
        <time>2009-05-31T07:01:48Z</time>
      </trkpt>
      <trkpt lat="43.99056" lon="7.2319">
        <ele>1483.451416</ele>
        <time>2009-05-31T07:01:50Z</time>
      </trkpt>
      <trkpt lat="43.99042" lon="7.23182">
        <ele>1482.4902344</ele>
        <time>2009-05-31T07:01:54Z</time>
      </trkpt>
      <trkpt lat="43.99037" lon="7.23179">
        <ele>1480.0869141</ele>
        <time>2009-05-31T07:01:56Z</time>
      </trkpt>
      <trkpt lat="43.9904" lon="7.23169">
        <ele>1478.1643066</ele>
        <time>2009-05-31T07:02:00Z</time>
      </trkpt>
      <trkpt lat="43.99039" lon="7.23158">
        <ele>1474.3190918</ele>
        <time>2009-05-31T07:02:06Z</time>
      </trkpt>
      <trkpt lat="43.99037" lon="7.2316">
        <ele>1473.8383789</ele>
        <time>2009-05-31T07:02:07Z</time>
      </trkpt>
      <trkpt lat="43.99028" lon="7.23164">
        <ele>1471.9157715</ele>
        <time>2009-05-31T07:02:10Z</time>
      </trkpt>
      <trkpt lat="43.99024" lon="7.23159">
        <ele>1469.0319824</ele>
        <time>2009-05-31T07:02:14Z</time>
      </trkpt>
      <trkpt lat="43.99019" lon="7.23159">
        <ele>1467.5895996</ele>
        <time>2009-05-31T07:02:17Z</time>
      </trkpt>
      <trkpt lat="43.9901" lon="7.23161">
        <ele>1465.1865234</ele>
        <time>2009-05-31T07:02:20Z</time>
      </trkpt>
      <trkpt lat="43.99011" lon="7.23154">
        <ele>1461.8220215</ele>
        <time>2009-05-31T07:02:23Z</time>
      </trkpt>
      <trkpt lat="43.99015" lon="7.23149">
        <ele>1460.3798828</ele>
        <time>2009-05-31T07:02:25Z</time>
      </trkpt>
      <trkpt lat="43.99013" lon="7.23145">
        <ele>1460.3798828</ele>
        <time>2009-05-31T07:02:27Z</time>
      </trkpt>
      <trkpt lat="43.99006" lon="7.23143">
        <ele>1456.534668</ele>
        <time>2009-05-31T07:02:31Z</time>
      </trkpt>
      <trkpt lat="43.98998" lon="7.2314">
        <ele>1454.1315918</ele>
        <time>2009-05-31T07:02:34Z</time>
      </trkpt>
      <trkpt lat="43.98985" lon="7.23135">
        <ele>1451.7280273</ele>
        <time>2009-05-31T07:02:37Z</time>
      </trkpt>
      <trkpt lat="43.98963" lon="7.23135">
        <ele>1448.3632812</ele>
        <time>2009-05-31T07:02:41Z</time>
      </trkpt>
      <trkpt lat="43.98957" lon="7.23137">
        <ele>1447.8828125</ele>
        <time>2009-05-31T07:02:44Z</time>
      </trkpt>
      <trkpt lat="43.98956" lon="7.2314">
        <ele>1447.4020996</ele>
        <time>2009-05-31T07:02:48Z</time>
      </trkpt>
      <trkpt lat="43.98956" lon="7.23144">
        <ele>1446.9213867</ele>
        <time>2009-05-31T07:02:53Z</time>
      </trkpt>
      <trkpt lat="43.98954" lon="7.23141">
        <ele>1444.9987793</ele>
        <time>2009-05-31T07:02:56Z</time>
      </trkpt>
      <trkpt lat="43.98953" lon="7.23141">
        <ele>1443.5568848</ele>
        <time>2009-05-31T07:02:57Z</time>
      </trkpt>
      <trkpt lat="43.98949" lon="7.23145">
        <ele>1441.6342773</ele>
        <time>2009-05-31T07:03:02Z</time>
      </trkpt>
      <trkpt lat="43.9894" lon="7.23153">
        <ele>1439.230957</ele>
        <time>2009-05-31T07:03:06Z</time>
      </trkpt>
      <trkpt lat="43.98938" lon="7.23154">
        <ele>1439.230957</ele>
        <time>2009-05-31T07:03:07Z</time>
      </trkpt>
      <trkpt lat="43.98925" lon="7.23158">
        <ele>1435.8662109</ele>
        <time>2009-05-31T07:03:12Z</time>
      </trkpt>
      <trkpt lat="43.98913" lon="7.23164">
        <ele>1434.9050293</ele>
        <time>2009-05-31T07:03:15Z</time>
      </trkpt>
      <trkpt lat="43.98889" lon="7.23162">
        <ele>1432.9821777</ele>
        <time>2009-05-31T07:03:20Z</time>
      </trkpt>
      <trkpt lat="43.98879" lon="7.23153">
        <ele>1431.0598145</ele>
        <time>2009-05-31T07:03:23Z</time>
      </trkpt>
      <trkpt lat="43.98872" lon="7.23155">
        <ele>1430.0983887</ele>
        <time>2009-05-31T07:03:25Z</time>
      </trkpt>
      <trkpt lat="43.98865" lon="7.23158">
        <ele>1429.1369629</ele>
        <time>2009-05-31T07:03:27Z</time>
      </trkpt>
      <trkpt lat="43.98858" lon="7.23161">
        <ele>1428.1757812</ele>
        <time>2009-05-31T07:03:29Z</time>
      </trkpt>
      <trkpt lat="43.9885" lon="7.23164">
        <ele>1425.291748</ele>
        <time>2009-05-31T07:03:31Z</time>
      </trkpt>
      <trkpt lat="43.98844" lon="7.23164">
        <ele>1422.8886719</ele>
        <time>2009-05-31T07:03:34Z</time>
      </trkpt>
      <trkpt lat="43.98847" lon="7.23158">
        <ele>1421.4465332</ele>
        <time>2009-05-31T07:03:37Z</time>
      </trkpt>
      <trkpt lat="43.98834" lon="7.23154">
        <ele>1418.5625</ele>
        <time>2009-05-31T07:03:42Z</time>
      </trkpt>
      <trkpt lat="43.9882" lon="7.23167">
        <ele>1416.1591797</ele>
        <time>2009-05-31T07:03:48Z</time>
      </trkpt>
      <trkpt lat="43.98818" lon="7.23169">
        <ele>1416.1591797</ele>
        <time>2009-05-31T07:03:49Z</time>
      </trkpt>
      <trkpt lat="43.98806" lon="7.23173">
        <ele>1413.2753906</ele>
        <time>2009-05-31T07:03:54Z</time>
      </trkpt>
      <trkpt lat="43.98807" lon="7.23168">
        <ele>1412.3139648</ele>
        <time>2009-05-31T07:03:56Z</time>
      </trkpt>
      <trkpt lat="43.98805" lon="7.23164">
        <ele>1411.3527832</ele>
        <time>2009-05-31T07:04:02Z</time>
      </trkpt>
      <trkpt lat="43.98805" lon="7.23164">
        <ele>1411.8334961</ele>
        <time>2009-05-31T07:04:05Z</time>
      </trkpt>
      <trkpt lat="43.98799" lon="7.23162">
        <ele>1409.9106445</ele>
        <time>2009-05-31T07:04:09Z</time>
      </trkpt>
      <trkpt lat="43.98796" lon="7.23161">
        <ele>1408.9494629</ele>
        <time>2009-05-31T07:04:11Z</time>
      </trkpt>
      <trkpt lat="43.98795" lon="7.2316">
        <ele>1408.9494629</ele>
        <time>2009-05-31T07:04:12Z</time>
      </trkpt>
      <trkpt lat="43.98793" lon="7.23155">
        <ele>1406.5461426</ele>
        <time>2009-05-31T07:04:18Z</time>
      </trkpt>
      <trkpt lat="43.98794" lon="7.23154">
        <ele>1405.5849609</ele>
        <time>2009-05-31T07:04:20Z</time>
      </trkpt>
      <trkpt lat="43.98795" lon="7.23146">
        <ele>1405.104248</ele>
        <time>2009-05-31T07:04:25Z</time>
      </trkpt>
      <trkpt lat="43.98795" lon="7.23144">
        <ele>1404.6235352</ele>
        <time>2009-05-31T07:04:29Z</time>
      </trkpt>
      <trkpt lat="43.9879" lon="7.23148">
        <ele>1403.1813965</ele>
        <time>2009-05-31T07:04:35Z</time>
      </trkpt>
      <trkpt lat="43.98789" lon="7.23143">
        <ele>1400.7780762</ele>
        <time>2009-05-31T07:04:40Z</time>
      </trkpt>
      <trkpt lat="43.98789" lon="7.23141">
        <ele>1400.2976074</ele>
        <time>2009-05-31T07:04:42Z</time>
      </trkpt>
      <trkpt lat="43.98788" lon="7.23136">
        <ele>1397.4135742</ele>
        <time>2009-05-31T07:04:49Z</time>
      </trkpt>
      <trkpt lat="43.98784" lon="7.23136">
        <ele>1395.4909668</ele>
        <time>2009-05-31T07:04:52Z</time>
      </trkpt>
      <trkpt lat="43.98781" lon="7.2314">
        <ele>1395.4909668</ele>
        <time>2009-05-31T07:04:56Z</time>
      </trkpt>
      <trkpt lat="43.98781" lon="7.23142">
        <ele>1394.0490723</ele>
        <time>2009-05-31T07:04:58Z</time>
      </trkpt>
      <trkpt lat="43.98773" lon="7.23143">
        <ele>1393.0876465</ele>
        <time>2009-05-31T07:05:03Z</time>
      </trkpt>
      <trkpt lat="43.98769" lon="7.23143">
        <ele>1391.1650391</ele>
        <time>2009-05-31T07:05:09Z</time>
      </trkpt>
      <trkpt lat="43.98767" lon="7.23147">
        <ele>1390.2038574</ele>
        <time>2009-05-31T07:05:14Z</time>
      </trkpt>
      <trkpt lat="43.98761" lon="7.23151">
        <ele>1388.7619629</ele>
        <time>2009-05-31T07:05:18Z</time>
      </trkpt>
      <trkpt lat="43.98751" lon="7.23157">
        <ele>1385.8776855</ele>
        <time>2009-05-31T07:05:21Z</time>
      </trkpt>
      <trkpt lat="43.98741" lon="7.23164">
        <ele>1385.3969727</ele>
        <time>2009-05-31T07:05:23Z</time>
      </trkpt>
      <trkpt lat="43.98718" lon="7.2318">
        <ele>1383.4743652</ele>
        <time>2009-05-31T07:05:29Z</time>
      </trkpt>
      <trkpt lat="43.98709" lon="7.23188">
        <ele>1380.1098633</ele>
        <time>2009-05-31T07:05:32Z</time>
      </trkpt>
      <trkpt lat="43.987" lon="7.23199">
        <ele>1376.7453613</ele>
        <time>2009-05-31T07:05:36Z</time>
      </trkpt>
      <trkpt lat="43.98693" lon="7.23205">
        <ele>1376.2646484</ele>
        <time>2009-05-31T07:05:38Z</time>
      </trkpt>
      <trkpt lat="43.98682" lon="7.23209">
        <ele>1374.8227539</ele>
        <time>2009-05-31T07:05:40Z</time>
      </trkpt>
      <trkpt lat="43.98671" lon="7.23212">
        <ele>1374.342041</ele>
        <time>2009-05-31T07:05:42Z</time>
      </trkpt>
      <trkpt lat="43.98649" lon="7.23218">
        <ele>1373.3808594</ele>
        <time>2009-05-31T07:05:47Z</time>
      </trkpt>
      <trkpt lat="43.98635" lon="7.23223">
        <ele>1372.9001465</ele>
        <time>2009-05-31T07:05:52Z</time>
      </trkpt>
      <trkpt lat="43.98612" lon="7.23229">
        <ele>1372.4194336</ele>
        <time>2009-05-31T07:05:58Z</time>
      </trkpt>
      <trkpt lat="43.98598" lon="7.23235">
        <ele>1370.9772949</ele>
        <time>2009-05-31T07:06:02Z</time>
      </trkpt>
      <trkpt lat="43.98588" lon="7.23239">
        <ele>1370.0158691</ele>
        <time>2009-05-31T07:06:06Z</time>
      </trkpt>
      <trkpt lat="43.98584" lon="7.23242">
        <ele>1369.5354004</ele>
        <time>2009-05-31T07:06:11Z</time>
      </trkpt>
      <trkpt lat="43.98581" lon="7.23243">
        <ele>1369.0546875</ele>
        <time>2009-05-31T07:06:13Z</time>
      </trkpt>
      <trkpt lat="43.98575" lon="7.2325">
        <ele>1367.1320801</ele>
        <time>2009-05-31T07:06:15Z</time>
      </trkpt>
      <trkpt lat="43.98563" lon="7.23266">
        <ele>1368.5739746</ele>
        <time>2009-05-31T07:06:19Z</time>
      </trkpt>
      <trkpt lat="43.9855" lon="7.23287">
        <ele>1367.1320801</ele>
        <time>2009-05-31T07:06:24Z</time>
      </trkpt>
      <trkpt lat="43.98545" lon="7.23297">
        <ele>1367.6125488</ele>
        <time>2009-05-31T07:06:26Z</time>
      </trkpt>
      <trkpt lat="43.98529" lon="7.23325">
        <ele>1368.5739746</ele>
        <time>2009-05-31T07:06:31Z</time>
      </trkpt>
      <trkpt lat="43.98508" lon="7.23343">
        <ele>1367.6125488</ele>
        <time>2009-05-31T07:06:35Z</time>
      </trkpt>
      <trkpt lat="43.98489" lon="7.23358">
        <ele>1368.5739746</ele>
        <time>2009-05-31T07:06:40Z</time>
      </trkpt>
      <trkpt lat="43.98478" lon="7.2337">
        <ele>1370.496582</ele>
        <time>2009-05-31T07:06:46Z</time>
      </trkpt>
      <trkpt lat="43.98477" lon="7.23376">
        <ele>1371.9384766</ele>
        <time>2009-05-31T07:06:51Z</time>
      </trkpt>
      <trkpt lat="43.98476" lon="7.23378">
        <ele>1372.4194336</ele>
        <time>2009-05-31T07:06:52Z</time>
      </trkpt>
      <trkpt lat="43.98473" lon="7.23381">
        <ele>1371.9384766</ele>
        <time>2009-05-31T07:06:54Z</time>
      </trkpt>
      <trkpt lat="43.98469" lon="7.23388">
        <ele>1373.8613281</ele>
        <time>2009-05-31T07:06:59Z</time>
      </trkpt>
      <trkpt lat="43.98462" lon="7.234">
        <ele>1376.2646484</ele>
        <time>2009-05-31T07:07:05Z</time>
      </trkpt>
      <trkpt lat="43.98459" lon="7.23404">
        <ele>1378.1872559</ele>
        <time>2009-05-31T07:07:08Z</time>
      </trkpt>
      <trkpt lat="43.98452" lon="7.23413">
        <ele>1378.6679688</ele>
        <time>2009-05-31T07:07:14Z</time>
      </trkpt>
      <trkpt lat="43.98446" lon="7.23422">
        <ele>1380.1098633</ele>
        <time>2009-05-31T07:07:20Z</time>
      </trkpt>
      <trkpt lat="43.98442" lon="7.23429">
        <ele>1381.5517578</ele>
        <time>2009-05-31T07:07:26Z</time>
      </trkpt>
      <trkpt lat="43.98439" lon="7.23438">
        <ele>1382.9936523</ele>
        <time>2009-05-31T07:07:31Z</time>
      </trkpt>
      <trkpt lat="43.98438" lon="7.23439">
        <ele>1382.0324707</ele>
        <time>2009-05-31T07:07:32Z</time>
      </trkpt>
      <trkpt lat="43.98436" lon="7.23446">
        <ele>1383.4743652</ele>
        <time>2009-05-31T07:07:35Z</time>
      </trkpt>
      <trkpt lat="43.98426" lon="7.2346">
        <ele>1383.9550781</ele>
        <time>2009-05-31T07:07:42Z</time>
      </trkpt>
      <trkpt lat="43.98414" lon="7.23469">
        <ele>1384.435791</ele>
        <time>2009-05-31T07:07:47Z</time>
      </trkpt>
      <trkpt lat="43.98395" lon="7.23477">
        <ele>1384.435791</ele>
        <time>2009-05-31T07:07:53Z</time>
      </trkpt>
      <trkpt lat="43.98371" lon="7.23492">
        <ele>1384.435791</ele>
        <time>2009-05-31T07:07:59Z</time>
      </trkpt>
      <trkpt lat="43.98352" lon="7.23508">
        <ele>1383.9550781</ele>
        <time>2009-05-31T07:08:05Z</time>
      </trkpt>
      <trkpt lat="43.98334" lon="7.23525">
        <ele>1383.9550781</ele>
        <time>2009-05-31T07:08:10Z</time>
      </trkpt>
      <trkpt lat="43.9833" lon="7.23528">
        <ele>1383.4743652</ele>
        <time>2009-05-31T07:08:11Z</time>
      </trkpt>
      <trkpt lat="43.98306" lon="7.23543">
        <ele>1383.9550781</ele>
        <time>2009-05-31T07:08:17Z</time>
      </trkpt>
      <trkpt lat="43.98288" lon="7.23551">
        <ele>1383.9550781</ele>
        <time>2009-05-31T07:08:22Z</time>
      </trkpt>
      <trkpt lat="43.98283" lon="7.23553">
        <ele>1383.4743652</ele>
        <time>2009-05-31T07:08:23Z</time>
      </trkpt>
      <trkpt lat="43.98274" lon="7.23559">
        <ele>1383.4743652</ele>
        <time>2009-05-31T07:08:25Z</time>
      </trkpt>
      <trkpt lat="43.98253" lon="7.23576">
        <ele>1383.4743652</ele>
        <time>2009-05-31T07:08:30Z</time>
      </trkpt>
      <trkpt lat="43.98235" lon="7.23591">
        <ele>1383.9550781</ele>
        <time>2009-05-31T07:08:35Z</time>
      </trkpt>
      <trkpt lat="43.98222" lon="7.23599">
        <ele>1383.4743652</ele>
        <time>2009-05-31T07:08:38Z</time>
      </trkpt>
      <trkpt lat="43.98207" lon="7.23612">
        <ele>1385.8776855</ele>
        <time>2009-05-31T07:08:42Z</time>
      </trkpt>
      <trkpt lat="43.982" lon="7.23614">
        <ele>1385.8776855</ele>
        <time>2009-05-31T07:08:44Z</time>
      </trkpt>
      <trkpt lat="43.98187" lon="7.23613">
        <ele>1387.3195801</ele>
        <time>2009-05-31T07:08:48Z</time>
      </trkpt>
      <trkpt lat="43.98172" lon="7.23604">
        <ele>1389.2424316</ele>
        <time>2009-05-31T07:08:54Z</time>
      </trkpt>
      <trkpt lat="43.98163" lon="7.23587">
        <ele>1389.7231445</ele>
        <time>2009-05-31T07:08:59Z</time>
      </trkpt>
      <trkpt lat="43.98159" lon="7.23579">
        <ele>1389.7231445</ele>
        <time>2009-05-31T07:09:01Z</time>
      </trkpt>
      <trkpt lat="43.98139" lon="7.2357">
        <ele>1390.6843262</ele>
        <time>2009-05-31T07:09:07Z</time>
      </trkpt>
      <trkpt lat="43.98136" lon="7.23569">
        <ele>1390.6843262</ele>
        <time>2009-05-31T07:09:08Z</time>
      </trkpt>
      <trkpt lat="43.98116" lon="7.23557">
        <ele>1392.1264648</ele>
        <time>2009-05-31T07:09:15Z</time>
      </trkpt>
      <trkpt lat="43.98102" lon="7.23547">
        <ele>1393.0876465</ele>
        <time>2009-05-31T07:09:20Z</time>
      </trkpt>
      <trkpt lat="43.98086" lon="7.2354">
        <ele>1393.5683594</ele>
        <time>2009-05-31T07:09:25Z</time>
      </trkpt>
      <trkpt lat="43.98073" lon="7.23525">
        <ele>1393.5683594</ele>
        <time>2009-05-31T07:09:30Z</time>
      </trkpt>
      <trkpt lat="43.98064" lon="7.23506">
        <ele>1392.6071777</ele>
        <time>2009-05-31T07:09:34Z</time>
      </trkpt>
      <trkpt lat="43.98059" lon="7.23499">
        <ele>1393.0876465</ele>
        <time>2009-05-31T07:09:36Z</time>
      </trkpt>
      <trkpt lat="43.9804" lon="7.23485">
        <ele>1394.529541</ele>
        <time>2009-05-31T07:09:42Z</time>
      </trkpt>
      <trkpt lat="43.98022" lon="7.23477">
        <ele>1395.0102539</ele>
        <time>2009-05-31T07:09:48Z</time>
      </trkpt>
      <trkpt lat="43.98011" lon="7.23471">
        <ele>1395.4909668</ele>
        <time>2009-05-31T07:09:52Z</time>
      </trkpt>
      <trkpt lat="43.98003" lon="7.23463">
        <ele>1395.9716797</ele>
        <time>2009-05-31T07:09:56Z</time>
      </trkpt>
      <trkpt lat="43.97992" lon="7.23454">
        <ele>1396.9328613</ele>
        <time>2009-05-31T07:10:01Z</time>
      </trkpt>
      <trkpt lat="43.97977" lon="7.23443">
        <ele>1397.8942871</ele>
        <time>2009-05-31T07:10:07Z</time>
      </trkpt>
      <trkpt lat="43.97967" lon="7.23436">
        <ele>1398.3747559</ele>
        <time>2009-05-31T07:10:12Z</time>
      </trkpt>
      <trkpt lat="43.97954" lon="7.23429">
        <ele>1398.3747559</ele>
        <time>2009-05-31T07:10:17Z</time>
      </trkpt>
      <trkpt lat="43.97939" lon="7.23421">
        <ele>1398.8554688</ele>
        <time>2009-05-31T07:10:22Z</time>
      </trkpt>
      <trkpt lat="43.97923" lon="7.23418">
        <ele>1399.3361816</ele>
        <time>2009-05-31T07:10:27Z</time>
      </trkpt>
      <trkpt lat="43.97902" lon="7.23426">
        <ele>1400.2976074</ele>
        <time>2009-05-31T07:10:34Z</time>
      </trkpt>
      <trkpt lat="43.97892" lon="7.23428">
        <ele>1399.8168945</ele>
        <time>2009-05-31T07:10:38Z</time>
      </trkpt>
      <trkpt lat="43.97878" lon="7.23433">
        <ele>1401.739502</ele>
        <time>2009-05-31T07:10:43Z</time>
      </trkpt>
      <trkpt lat="43.97869" lon="7.23441">
        <ele>1402.7006836</ele>
        <time>2009-05-31T07:10:48Z</time>
      </trkpt>
      <trkpt lat="43.97858" lon="7.2345">
        <ele>1403.1813965</ele>
        <time>2009-05-31T07:10:54Z</time>
      </trkpt>
      <trkpt lat="43.9785" lon="7.23454">
        <ele>1404.6235352</ele>
        <time>2009-05-31T07:10:58Z</time>
      </trkpt>
      <trkpt lat="43.9784" lon="7.23462">
        <ele>1405.104248</ele>
        <time>2009-05-31T07:11:03Z</time>
      </trkpt>
      <trkpt lat="43.9783" lon="7.23473">
        <ele>1404.6235352</ele>
        <time>2009-05-31T07:11:07Z</time>
      </trkpt>
      <trkpt lat="43.97821" lon="7.23481">
        <ele>1404.1430664</ele>
        <time>2009-05-31T07:11:10Z</time>
      </trkpt>
      <trkpt lat="43.97796" lon="7.23496">
        <ele>1403.1813965</ele>
        <time>2009-05-31T07:11:16Z</time>
      </trkpt>
      <trkpt lat="43.97781" lon="7.23503">
        <ele>1403.6621094</ele>
        <time>2009-05-31T07:11:20Z</time>
      </trkpt>
      <trkpt lat="43.97773" lon="7.23506">
        <ele>1403.1813965</ele>
        <time>2009-05-31T07:11:22Z</time>
      </trkpt>
      <trkpt lat="43.97765" lon="7.2351">
        <ele>1403.6621094</ele>
        <time>2009-05-31T07:11:24Z</time>
      </trkpt>
      <trkpt lat="43.97744" lon="7.23527">
        <ele>1403.6621094</ele>
        <time>2009-05-31T07:11:30Z</time>
      </trkpt>
      <trkpt lat="43.97738" lon="7.2353">
        <ele>1404.6235352</ele>
        <time>2009-05-31T07:11:32Z</time>
      </trkpt>
      <trkpt lat="43.97733" lon="7.23541">
        <ele>1407.0268555</ele>
        <time>2009-05-31T07:11:37Z</time>
      </trkpt>
      <trkpt lat="43.97733" lon="7.23544">
        <ele>1407.5075684</ele>
        <time>2009-05-31T07:11:38Z</time>
      </trkpt>
      <trkpt lat="43.97729" lon="7.23561">
        <ele>1408.9494629</ele>
        <time>2009-05-31T07:11:44Z</time>
      </trkpt>
      <trkpt lat="43.97722" lon="7.23578">
        <ele>1410.8720703</ele>
        <time>2009-05-31T07:11:50Z</time>
      </trkpt>
      <trkpt lat="43.97721" lon="7.23583">
        <ele>1412.3139648</ele>
        <time>2009-05-31T07:11:52Z</time>
      </trkpt>
      <trkpt lat="43.9772" lon="7.23585">
        <ele>1412.3139648</ele>
        <time>2009-05-31T07:11:53Z</time>
      </trkpt>
      <trkpt lat="43.97715" lon="7.23599">
        <ele>1414.7172852</ele>
        <time>2009-05-31T07:11:59Z</time>
      </trkpt>
      <trkpt lat="43.97709" lon="7.23611">
        <ele>1416.1591797</ele>
        <time>2009-05-31T07:12:05Z</time>
      </trkpt>
      <trkpt lat="43.97705" lon="7.23617">
        <ele>1417.6010742</ele>
        <time>2009-05-31T07:12:08Z</time>
      </trkpt>
      <trkpt lat="43.977" lon="7.23624">
        <ele>1418.0817871</ele>
        <time>2009-05-31T07:12:13Z</time>
      </trkpt>
      <trkpt lat="43.97694" lon="7.23635">
        <ele>1420.4853516</ele>
        <time>2009-05-31T07:12:19Z</time>
      </trkpt>
      <trkpt lat="43.97693" lon="7.23636">
        <ele>1420.4853516</ele>
        <time>2009-05-31T07:12:20Z</time>
      </trkpt>
      <trkpt lat="43.97685" lon="7.23647">
        <ele>1421.4465332</ele>
        <time>2009-05-31T07:12:26Z</time>
      </trkpt>
      <trkpt lat="43.97678" lon="7.23656">
        <ele>1422.8886719</ele>
        <time>2009-05-31T07:12:31Z</time>
      </trkpt>
      <trkpt lat="43.97668" lon="7.23666">
        <ele>1424.8112793</ele>
        <time>2009-05-31T07:12:38Z</time>
      </trkpt>
      <trkpt lat="43.97657" lon="7.23675">
        <ele>1427.6950684</ele>
        <time>2009-05-31T07:12:45Z</time>
      </trkpt>
      <trkpt lat="43.9765" lon="7.23677">
        <ele>1428.1757812</ele>
        <time>2009-05-31T07:12:51Z</time>
      </trkpt>
      <trkpt lat="43.9765" lon="7.23678">
        <ele>1428.1757812</ele>
        <time>2009-05-31T07:12:54Z</time>
      </trkpt>
      <trkpt lat="43.97639" lon="7.23675">
        <ele>1429.6176758</ele>
        <time>2009-05-31T07:13:02Z</time>
      </trkpt>
      <trkpt lat="43.9763" lon="7.23671">
        <ele>1430.0983887</ele>
        <time>2009-05-31T07:13:07Z</time>
      </trkpt>
      <trkpt lat="43.97619" lon="7.23664">
        <ele>1429.6176758</ele>
        <time>2009-05-31T07:13:12Z</time>
      </trkpt>
      <trkpt lat="43.97602" lon="7.2366">
        <ele>1429.1369629</ele>
        <time>2009-05-31T07:13:18Z</time>
      </trkpt>
      <trkpt lat="43.97592" lon="7.23656">
        <ele>1428.6564941</ele>
        <time>2009-05-31T07:13:21Z</time>
      </trkpt>
      <trkpt lat="43.97578" lon="7.23663">
        <ele>1426.7338867</ele>
        <time>2009-05-31T07:13:25Z</time>
      </trkpt>
      <trkpt lat="43.97572" lon="7.23668">
        <ele>1426.7338867</ele>
        <time>2009-05-31T07:13:27Z</time>
      </trkpt>
      <trkpt lat="43.97555" lon="7.23674">
        <ele>1424.8112793</ele>
        <time>2009-05-31T07:13:31Z</time>
      </trkpt>
      <trkpt lat="43.9754" lon="7.23671">
        <ele>1423.3693848</ele>
        <time>2009-05-31T07:13:35Z</time>
      </trkpt>
      <trkpt lat="43.97531" lon="7.23672">
        <ele>1422.407959</ele>
        <time>2009-05-31T07:13:37Z</time>
      </trkpt>
      <trkpt lat="43.97507" lon="7.23678">
        <ele>1420.9660645</ele>
        <time>2009-05-31T07:13:42Z</time>
      </trkpt>
      <trkpt lat="43.97488" lon="7.23687">
        <ele>1419.5239258</ele>
        <time>2009-05-31T07:13:47Z</time>
      </trkpt>
      <trkpt lat="43.97471" lon="7.23692">
        <ele>1418.5625</ele>
        <time>2009-05-31T07:13:51Z</time>
      </trkpt>
      <trkpt lat="43.97454" lon="7.23698">
        <ele>1418.0817871</ele>
        <time>2009-05-31T07:13:55Z</time>
      </trkpt>
      <trkpt lat="43.97435" lon="7.23705">
        <ele>1420.0046387</ele>
        <time>2009-05-31T07:14:00Z</time>
      </trkpt>
      <trkpt lat="43.97419" lon="7.23714">
        <ele>1419.0432129</ele>
        <time>2009-05-31T07:14:04Z</time>
      </trkpt>
      <trkpt lat="43.97404" lon="7.23721">
        <ele>1419.5239258</ele>
        <time>2009-05-31T07:14:08Z</time>
      </trkpt>
      <trkpt lat="43.97393" lon="7.2372">
        <ele>1419.0432129</ele>
        <time>2009-05-31T07:14:11Z</time>
      </trkpt>
      <trkpt lat="43.9738" lon="7.23724">
        <ele>1418.0817871</ele>
        <time>2009-05-31T07:14:14Z</time>
      </trkpt>
      <trkpt lat="43.97357" lon="7.23722">
        <ele>1418.5625</ele>
        <time>2009-05-31T07:14:20Z</time>
      </trkpt>
      <trkpt lat="43.97349" lon="7.23726">
        <ele>1420.4853516</ele>
        <time>2009-05-31T07:14:25Z</time>
      </trkpt>
      <trkpt lat="43.97343" lon="7.2373">
        <ele>1420.9660645</ele>
        <time>2009-05-31T07:14:28Z</time>
      </trkpt>
      <trkpt lat="43.97333" lon="7.23739">
        <ele>1421.4465332</ele>
        <time>2009-05-31T07:14:34Z</time>
      </trkpt>
      <trkpt lat="43.97326" lon="7.2374">
        <ele>1421.9272461</ele>
        <time>2009-05-31T07:14:39Z</time>
      </trkpt>
      <trkpt lat="43.97316" lon="7.23747">
        <ele>1423.8498535</ele>
        <time>2009-05-31T07:14:46Z</time>
      </trkpt>
      <trkpt lat="43.97312" lon="7.2375">
        <ele>1425.7724609</ele>
        <time>2009-05-31T07:14:49Z</time>
      </trkpt>
      <trkpt lat="43.97305" lon="7.23754">
        <ele>1425.7724609</ele>
        <time>2009-05-31T07:14:53Z</time>
      </trkpt>
      <trkpt lat="43.973" lon="7.23773">
        <ele>1424.3305664</ele>
        <time>2009-05-31T07:14:59Z</time>
      </trkpt>
      <trkpt lat="43.97297" lon="7.23785">
        <ele>1422.8886719</ele>
        <time>2009-05-31T07:15:01Z</time>
      </trkpt>
      <trkpt lat="43.97294" lon="7.23801">
        <ele>1420.4853516</ele>
        <time>2009-05-31T07:15:03Z</time>
      </trkpt>
      <trkpt lat="43.97289" lon="7.23818">
        <ele>1419.0432129</ele>
        <time>2009-05-31T07:15:05Z</time>
      </trkpt>
      <trkpt lat="43.97266" lon="7.23853">
        <ele>1417.6010742</ele>
        <time>2009-05-31T07:15:10Z</time>
      </trkpt>
      <trkpt lat="43.9726" lon="7.23858">
        <ele>1417.1206055</ele>
        <time>2009-05-31T07:15:11Z</time>
      </trkpt>
      <trkpt lat="43.97228" lon="7.23878">
        <ele>1416.1591797</ele>
        <time>2009-05-31T07:15:17Z</time>
      </trkpt>
      <trkpt lat="43.9721" lon="7.23894">
        <ele>1415.6787109</ele>
        <time>2009-05-31T07:15:22Z</time>
      </trkpt>
      <trkpt lat="43.97193" lon="7.23909">
        <ele>1415.197998</ele>
        <time>2009-05-31T07:15:26Z</time>
      </trkpt>
      <trkpt lat="43.97188" lon="7.23913">
        <ele>1415.197998</ele>
        <time>2009-05-31T07:15:27Z</time>
      </trkpt>
      <trkpt lat="43.97171" lon="7.23924">
        <ele>1414.2365723</ele>
        <time>2009-05-31T07:15:31Z</time>
      </trkpt>
      <trkpt lat="43.97154" lon="7.23931">
        <ele>1414.7172852</ele>
        <time>2009-05-31T07:15:35Z</time>
      </trkpt>
      <trkpt lat="43.97136" lon="7.23937">
        <ele>1415.6787109</ele>
        <time>2009-05-31T07:15:40Z</time>
      </trkpt>
      <trkpt lat="43.97123" lon="7.23939">
        <ele>1416.1591797</ele>
        <time>2009-05-31T07:15:45Z</time>
      </trkpt>
      <trkpt lat="43.97112" lon="7.23937">
        <ele>1416.6398926</ele>
        <time>2009-05-31T07:15:51Z</time>
      </trkpt>
      <trkpt lat="43.97103" lon="7.23931">
        <ele>1414.2365723</ele>
        <time>2009-05-31T07:15:56Z</time>
      </trkpt>
      <trkpt lat="43.97096" lon="7.23921">
        <ele>1413.7558594</ele>
        <time>2009-05-31T07:16:00Z</time>
      </trkpt>
      <trkpt lat="43.97094" lon="7.23913">
        <ele>1413.7558594</ele>
        <time>2009-05-31T07:16:03Z</time>
      </trkpt>
      <trkpt lat="43.97089" lon="7.239">
        <ele>1413.7558594</ele>
        <time>2009-05-31T07:16:08Z</time>
      </trkpt>
      <trkpt lat="43.97082" lon="7.23887">
        <ele>1412.7946777</ele>
        <time>2009-05-31T07:16:12Z</time>
      </trkpt>
      <trkpt lat="43.97072" lon="7.23872">
        <ele>1411.8334961</ele>
        <time>2009-05-31T07:16:19Z</time>
      </trkpt>
      <trkpt lat="43.97069" lon="7.23867">
        <ele>1410.8720703</ele>
        <time>2009-05-31T07:16:21Z</time>
      </trkpt>
      <trkpt lat="43.97059" lon="7.23845">
        <ele>1411.3527832</ele>
        <time>2009-05-31T07:16:28Z</time>
      </trkpt>
      <trkpt lat="43.97058" lon="7.23843">
        <ele>1411.8334961</ele>
        <time>2009-05-31T07:16:29Z</time>
      </trkpt>
      <trkpt lat="43.97054" lon="7.23834">
        <ele>1411.8334961</ele>
        <time>2009-05-31T07:16:34Z</time>
      </trkpt>
      <trkpt lat="43.97039" lon="7.23838">
        <ele>1409.9106445</ele>
        <time>2009-05-31T07:16:41Z</time>
      </trkpt>
      <trkpt lat="43.97024" lon="7.2383">
        <ele>1408.9494629</ele>
        <time>2009-05-31T07:16:46Z</time>
      </trkpt>
      <trkpt lat="43.97006" lon="7.23818">
        <ele>1408.46875</ele>
        <time>2009-05-31T07:16:52Z</time>
      </trkpt>
      <trkpt lat="43.96998" lon="7.23809">
        <ele>1408.9494629</ele>
        <time>2009-05-31T07:16:56Z</time>
      </trkpt>
      <trkpt lat="43.96988" lon="7.23794">
        <ele>1410.3913574</ele>
        <time>2009-05-31T07:17:03Z</time>
      </trkpt>
      <trkpt lat="43.96985" lon="7.23791">
        <ele>1411.8334961</ele>
        <time>2009-05-31T07:17:08Z</time>
      </trkpt>
      <trkpt lat="43.96979" lon="7.23784">
        <ele>1411.8334961</ele>
        <time>2009-05-31T07:17:14Z</time>
      </trkpt>
      <trkpt lat="43.96978" lon="7.23782">
        <ele>1411.8334961</ele>
        <time>2009-05-31T07:17:15Z</time>
      </trkpt>
      <trkpt lat="43.96974" lon="7.23778">
        <ele>1411.3527832</ele>
        <time>2009-05-31T07:17:19Z</time>
      </trkpt>
      <trkpt lat="43.96962" lon="7.23773">
        <ele>1410.3913574</ele>
        <time>2009-05-31T07:17:26Z</time>
      </trkpt>
      <trkpt lat="43.96948" lon="7.23761">
        <ele>1411.8334961</ele>
        <time>2009-05-31T07:17:32Z</time>
      </trkpt>
      <trkpt lat="43.96933" lon="7.23754">
        <ele>1411.8334961</ele>
        <time>2009-05-31T07:17:38Z</time>
      </trkpt>
      <trkpt lat="43.96929" lon="7.23754">
        <ele>1411.3527832</ele>
        <time>2009-05-31T07:17:39Z</time>
      </trkpt>
      <trkpt lat="43.9691" lon="7.23753">
        <ele>1411.8334961</ele>
        <time>2009-05-31T07:17:44Z</time>
      </trkpt>
      <trkpt lat="43.96893" lon="7.23751">
        <ele>1412.3139648</ele>
        <time>2009-05-31T07:17:50Z</time>
      </trkpt>
      <trkpt lat="43.96878" lon="7.23751">
        <ele>1414.2365723</ele>
        <time>2009-05-31T07:17:56Z</time>
      </trkpt>
      <trkpt lat="43.96875" lon="7.2375">
        <ele>1414.2365723</ele>
        <time>2009-05-31T07:17:59Z</time>
      </trkpt>
      <trkpt lat="43.96861" lon="7.23752">
        <ele>1416.1591797</ele>
        <time>2009-05-31T07:18:07Z</time>
      </trkpt>
      <trkpt lat="43.96848" lon="7.23751">
        <ele>1418.0817871</ele>
        <time>2009-05-31T07:18:14Z</time>
      </trkpt>
      <trkpt lat="43.96844" lon="7.23752">
        <ele>1418.5625</ele>
        <time>2009-05-31T07:18:16Z</time>
      </trkpt>
      <trkpt lat="43.96831" lon="7.23752">
        <ele>1420.0046387</ele>
        <time>2009-05-31T07:18:22Z</time>
      </trkpt>
      <trkpt lat="43.96814" lon="7.23754">
        <ele>1420.4853516</ele>
        <time>2009-05-31T07:18:30Z</time>
      </trkpt>
      <trkpt lat="43.96802" lon="7.23753">
        <ele>1422.8886719</ele>
        <time>2009-05-31T07:18:36Z</time>
      </trkpt>
      <trkpt lat="43.96787" lon="7.23757">
        <ele>1422.8886719</ele>
        <time>2009-05-31T07:18:42Z</time>
      </trkpt>
      <trkpt lat="43.9677" lon="7.23762">
        <ele>1422.8886719</ele>
        <time>2009-05-31T07:18:48Z</time>
      </trkpt>
      <trkpt lat="43.96755" lon="7.23765">
        <ele>1422.8886719</ele>
        <time>2009-05-31T07:18:53Z</time>
      </trkpt>
      <trkpt lat="43.96741" lon="7.23766">
        <ele>1422.8886719</ele>
        <time>2009-05-31T07:18:57Z</time>
      </trkpt>
      <trkpt lat="43.96725" lon="7.23768">
        <ele>1422.407959</ele>
        <time>2009-05-31T07:19:02Z</time>
      </trkpt>
      <trkpt lat="43.9671" lon="7.2377">
        <ele>1421.9272461</ele>
        <time>2009-05-31T07:19:06Z</time>
      </trkpt>
      <trkpt lat="43.9669" lon="7.23765">
        <ele>1420.4853516</ele>
        <time>2009-05-31T07:19:11Z</time>
      </trkpt>
      <trkpt lat="43.96674" lon="7.23767">
        <ele>1420.4853516</ele>
        <time>2009-05-31T07:19:14Z</time>
      </trkpt>
      <trkpt lat="43.96661" lon="7.23776">
        <ele>1421.4465332</ele>
        <time>2009-05-31T07:19:17Z</time>
      </trkpt>
      <trkpt lat="43.9665" lon="7.2378">
        <ele>1421.4465332</ele>
        <time>2009-05-31T07:19:20Z</time>
      </trkpt>
      <trkpt lat="43.96636" lon="7.23782">
        <ele>1422.407959</ele>
        <time>2009-05-31T07:19:24Z</time>
      </trkpt>
      <trkpt lat="43.9662" lon="7.2378">
        <ele>1423.3693848</ele>
        <time>2009-05-31T07:19:30Z</time>
      </trkpt>
      <trkpt lat="43.9661" lon="7.23781">
        <ele>1424.3305664</ele>
        <time>2009-05-31T07:19:35Z</time>
      </trkpt>
      <trkpt lat="43.96596" lon="7.23782">
        <ele>1426.7338867</ele>
        <time>2009-05-31T07:19:43Z</time>
      </trkpt>
      <trkpt lat="43.96579" lon="7.23783">
        <ele>1428.1757812</ele>
        <time>2009-05-31T07:19:51Z</time>
      </trkpt>
      <trkpt lat="43.96568" lon="7.23783">
        <ele>1429.6176758</ele>
        <time>2009-05-31T07:19:58Z</time>
      </trkpt>
      <trkpt lat="43.96559" lon="7.23785">
        <ele>1430.5791016</ele>
        <time>2009-05-31T07:20:04Z</time>
      </trkpt>
      <trkpt lat="43.96547" lon="7.2379">
        <ele>1432.501709</ele>
        <time>2009-05-31T07:20:10Z</time>
      </trkpt>
      <trkpt lat="43.96534" lon="7.23797">
        <ele>1432.501709</ele>
        <time>2009-05-31T07:20:15Z</time>
      </trkpt>
      <trkpt lat="43.96514" lon="7.23807">
        <ele>1433.4628906</ele>
        <time>2009-05-31T07:20:22Z</time>
      </trkpt>
      <trkpt lat="43.96497" lon="7.23819">
        <ele>1435.385498</ele>
        <time>2009-05-31T07:20:30Z</time>
      </trkpt>
      <trkpt lat="43.96485" lon="7.23829">
        <ele>1434.9050293</ele>
        <time>2009-05-31T07:20:36Z</time>
      </trkpt>
      <trkpt lat="43.96468" lon="7.23847">
        <ele>1433.4628906</ele>
        <time>2009-05-31T07:20:42Z</time>
      </trkpt>
      <trkpt lat="43.96447" lon="7.23861">
        <ele>1431.5402832</ele>
        <time>2009-05-31T07:20:47Z</time>
      </trkpt>
      <trkpt lat="43.9643" lon="7.23875">
        <ele>1427.2145996</ele>
        <time>2009-05-31T07:20:51Z</time>
      </trkpt>
      <trkpt lat="43.96411" lon="7.23885">
        <ele>1424.8112793</ele>
        <time>2009-05-31T07:20:55Z</time>
      </trkpt>
      <trkpt lat="43.96399" lon="7.23889">
        <ele>1423.3693848</ele>
        <time>2009-05-31T07:20:58Z</time>
      </trkpt>
      <trkpt lat="43.96378" lon="7.23901">
        <ele>1420.9660645</ele>
        <time>2009-05-31T07:21:02Z</time>
      </trkpt>
      <trkpt lat="43.96366" lon="7.23908">
        <ele>1420.4853516</ele>
        <time>2009-05-31T07:21:04Z</time>
      </trkpt>
      <trkpt lat="43.9634" lon="7.23919">
        <ele>1419.5239258</ele>
        <time>2009-05-31T07:21:08Z</time>
      </trkpt>
      <trkpt lat="43.96309" lon="7.23936">
        <ele>1417.6010742</ele>
        <time>2009-05-31T07:21:13Z</time>
      </trkpt>
      <trkpt lat="43.96303" lon="7.2394">
        <ele>1418.0817871</ele>
        <time>2009-05-31T07:21:14Z</time>
      </trkpt>
      <trkpt lat="43.96279" lon="7.23965">
        <ele>1416.6398926</ele>
        <time>2009-05-31T07:21:19Z</time>
      </trkpt>
      <trkpt lat="43.96268" lon="7.23975">
        <ele>1415.197998</ele>
        <time>2009-05-31T07:21:21Z</time>
      </trkpt>
      <trkpt lat="43.96243" lon="7.23996">
        <ele>1415.6787109</ele>
        <time>2009-05-31T07:21:26Z</time>
      </trkpt>
      <trkpt lat="43.96233" lon="7.24007">
        <ele>1414.7172852</ele>
        <time>2009-05-31T07:21:28Z</time>
      </trkpt>
      <trkpt lat="43.9621" lon="7.2402">
        <ele>1413.7558594</ele>
        <time>2009-05-31T07:21:32Z</time>
      </trkpt>
      <trkpt lat="43.96195" lon="7.24048">
        <ele>1410.3913574</ele>
        <time>2009-05-31T07:21:36Z</time>
      </trkpt>
      <trkpt lat="43.96189" lon="7.24055">
        <ele>1408.9494629</ele>
        <time>2009-05-31T07:21:37Z</time>
      </trkpt>
      <trkpt lat="43.96159" lon="7.24071">
        <ele>1409.4301758</ele>
        <time>2009-05-31T07:21:42Z</time>
      </trkpt>
      <trkpt lat="43.96143" lon="7.2408">
        <ele>1409.4301758</ele>
        <time>2009-05-31T07:21:46Z</time>
      </trkpt>
      <trkpt lat="43.96127" lon="7.24087">
        <ele>1409.4301758</ele>
        <time>2009-05-31T07:21:50Z</time>
      </trkpt>
      <trkpt lat="43.96105" lon="7.24102">
        <ele>1407.0268555</ele>
        <time>2009-05-31T07:21:55Z</time>
      </trkpt>
      <trkpt lat="43.96088" lon="7.2412">
        <ele>1407.9882812</ele>
        <time>2009-05-31T07:22:00Z</time>
      </trkpt>
      <trkpt lat="43.96077" lon="7.24137">
        <ele>1407.9882812</ele>
        <time>2009-05-31T07:22:04Z</time>
      </trkpt>
      <trkpt lat="43.96073" lon="7.24141">
        <ele>1407.5075684</ele>
        <time>2009-05-31T07:22:05Z</time>
      </trkpt>
      <trkpt lat="43.96064" lon="7.24154">
        <ele>1408.46875</ele>
        <time>2009-05-31T07:22:08Z</time>
      </trkpt>
      <trkpt lat="43.9605" lon="7.24182">
        <ele>1407.9882812</ele>
        <time>2009-05-31T07:22:13Z</time>
      </trkpt>
      <trkpt lat="43.96042" lon="7.24199">
        <ele>1407.5075684</ele>
        <time>2009-05-31T07:22:17Z</time>
      </trkpt>
      <trkpt lat="43.96031" lon="7.24216">
        <ele>1407.0268555</ele>
        <time>2009-05-31T07:22:20Z</time>
      </trkpt>
      <trkpt lat="43.96011" lon="7.24234">
        <ele>1407.5075684</ele>
        <time>2009-05-31T07:22:25Z</time>
      </trkpt>
      <trkpt lat="43.95996" lon="7.24247">
        <ele>1407.9882812</ele>
        <time>2009-05-31T07:22:29Z</time>
      </trkpt>
      <trkpt lat="43.95975" lon="7.2427">
        <ele>1406.5461426</ele>
        <time>2009-05-31T07:22:35Z</time>
      </trkpt>
      <trkpt lat="43.95954" lon="7.24283">
        <ele>1407.0268555</ele>
        <time>2009-05-31T07:22:40Z</time>
      </trkpt>
      <trkpt lat="43.95949" lon="7.24284">
        <ele>1406.5461426</ele>
        <time>2009-05-31T07:22:41Z</time>
      </trkpt>
      <trkpt lat="43.95941" lon="7.24287">
        <ele>1406.0654297</ele>
        <time>2009-05-31T07:22:43Z</time>
      </trkpt>
      <trkpt lat="43.95923" lon="7.24296">
        <ele>1407.0268555</ele>
        <time>2009-05-31T07:22:48Z</time>
      </trkpt>
      <trkpt lat="43.95913" lon="7.24298">
        <ele>1407.9882812</ele>
        <time>2009-05-31T07:22:52Z</time>
      </trkpt>
      <trkpt lat="43.95903" lon="7.24298">
        <ele>1409.9106445</ele>
        <time>2009-05-31T07:22:57Z</time>
      </trkpt>
      <trkpt lat="43.95891" lon="7.24302">
        <ele>1410.3913574</ele>
        <time>2009-05-31T07:23:03Z</time>
      </trkpt>
      <trkpt lat="43.9588" lon="7.24308">
        <ele>1412.3139648</ele>
        <time>2009-05-31T07:23:10Z</time>
      </trkpt>
      <trkpt lat="43.95878" lon="7.24308">
        <ele>1412.3139648</ele>
        <time>2009-05-31T07:23:11Z</time>
      </trkpt>
      <trkpt lat="43.95874" lon="7.24308">
        <ele>1413.7558594</ele>
        <time>2009-05-31T07:23:14Z</time>
      </trkpt>
      <trkpt lat="43.95867" lon="7.24311">
        <ele>1414.2365723</ele>
        <time>2009-05-31T07:23:18Z</time>
      </trkpt>
      <trkpt lat="43.95855" lon="7.24313">
        <ele>1415.197998</ele>
        <time>2009-05-31T07:23:24Z</time>
      </trkpt>
      <trkpt lat="43.95854" lon="7.24314">
        <ele>1415.197998</ele>
        <time>2009-05-31T07:23:25Z</time>
      </trkpt>
      <trkpt lat="43.95841" lon="7.24316">
        <ele>1415.6787109</ele>
        <time>2009-05-31T07:23:32Z</time>
      </trkpt>
      <trkpt lat="43.95828" lon="7.24314">
        <ele>1417.1206055</ele>
        <time>2009-05-31T07:23:38Z</time>
      </trkpt>
      <trkpt lat="43.95813" lon="7.24314">
        <ele>1418.5625</ele>
        <time>2009-05-31T07:23:45Z</time>
      </trkpt>
      <trkpt lat="43.958" lon="7.24314">
        <ele>1418.5625</ele>
        <time>2009-05-31T07:23:50Z</time>
      </trkpt>
      <trkpt lat="43.95788" lon="7.24312">
        <ele>1419.5239258</ele>
        <time>2009-05-31T07:23:55Z</time>
      </trkpt>
      <trkpt lat="43.95775" lon="7.24308">
        <ele>1420.0046387</ele>
        <time>2009-05-31T07:24:01Z</time>
      </trkpt>
      <trkpt lat="43.95771" lon="7.24307">
        <ele>1420.4853516</ele>
        <time>2009-05-31T07:24:03Z</time>
      </trkpt>
      <trkpt lat="43.9576" lon="7.24297">
        <ele>1420.0046387</ele>
        <time>2009-05-31T07:24:08Z</time>
      </trkpt>
      <trkpt lat="43.95754" lon="7.24296">
        <ele>1420.9660645</ele>
        <time>2009-05-31T07:24:10Z</time>
      </trkpt>
      <trkpt lat="43.95741" lon="7.24291">
        <ele>1422.8886719</ele>
        <time>2009-05-31T07:24:16Z</time>
      </trkpt>
      <trkpt lat="43.95731" lon="7.2429">
        <ele>1422.407959</ele>
        <time>2009-05-31T07:24:20Z</time>
      </trkpt>
      <trkpt lat="43.95716" lon="7.24287">
        <ele>1422.8886719</ele>
        <time>2009-05-31T07:24:26Z</time>
      </trkpt>
      <trkpt lat="43.95705" lon="7.24284">
        <ele>1422.8886719</ele>
        <time>2009-05-31T07:24:30Z</time>
      </trkpt>
      <trkpt lat="43.95694" lon="7.2428">
        <ele>1424.3305664</ele>
        <time>2009-05-31T07:24:35Z</time>
      </trkpt>
      <trkpt lat="43.95683" lon="7.24275">
        <ele>1424.8112793</ele>
        <time>2009-05-31T07:24:40Z</time>
      </trkpt>
      <trkpt lat="43.95669" lon="7.24269">
        <ele>1425.7724609</ele>
        <time>2009-05-31T07:24:46Z</time>
      </trkpt>
      <trkpt lat="43.95663" lon="7.24264">
        <ele>1426.2531738</ele>
        <time>2009-05-31T07:24:49Z</time>
      </trkpt>
      <trkpt lat="43.95657" lon="7.24257">
        <ele>1427.2145996</ele>
        <time>2009-05-31T07:24:53Z</time>
      </trkpt>
      <trkpt lat="43.95644" lon="7.24245">
        <ele>1428.6564941</ele>
        <time>2009-05-31T07:25:01Z</time>
      </trkpt>
      <trkpt lat="43.95634" lon="7.24238">
        <ele>1430.5791016</ele>
        <time>2009-05-31T07:25:08Z</time>
      </trkpt>
      <trkpt lat="43.9562" lon="7.2423">
        <ele>1430.5791016</ele>
        <time>2009-05-31T07:25:15Z</time>
      </trkpt>
      <trkpt lat="43.95613" lon="7.24226">
        <ele>1432.9821777</ele>
        <time>2009-05-31T07:25:20Z</time>
      </trkpt>
      <trkpt lat="43.95611" lon="7.24226">
        <ele>1432.501709</ele>
        <time>2009-05-31T07:25:26Z</time>
      </trkpt>
      <trkpt lat="43.95608" lon="7.24217">
        <ele>1434.4243164</ele>
        <time>2009-05-31T07:25:32Z</time>
      </trkpt>
      <trkpt lat="43.95605" lon="7.24212">
        <ele>1435.385498</ele>
        <time>2009-05-31T07:25:38Z</time>
      </trkpt>
      <trkpt lat="43.95595" lon="7.24206">
        <ele>1436.347168</ele>
        <time>2009-05-31T07:25:48Z</time>
      </trkpt>
      <trkpt lat="43.95586" lon="7.24205">
        <ele>1436.8276367</ele>
        <time>2009-05-31T07:25:55Z</time>
      </trkpt>
      <trkpt lat="43.95578" lon="7.24204">
        <ele>1438.2697754</ele>
        <time>2009-05-31T07:26:02Z</time>
      </trkpt>
      <trkpt lat="43.95564" lon="7.242">
        <ele>1440.1923828</ele>
        <time>2009-05-31T07:26:08Z</time>
      </trkpt>
      <trkpt lat="43.95554" lon="7.24198">
        <ele>1440.6728516</ele>
        <time>2009-05-31T07:26:12Z</time>
      </trkpt>
      <trkpt lat="43.95542" lon="7.24191">
        <ele>1441.6342773</ele>
        <time>2009-05-31T07:26:19Z</time>
      </trkpt>
      <trkpt lat="43.9553" lon="7.24187">
        <ele>1442.1149902</ele>
        <time>2009-05-31T07:26:25Z</time>
      </trkpt>
      <trkpt lat="43.95521" lon="7.24185">
        <ele>1445.4794922</ele>
        <time>2009-05-31T07:26:29Z</time>
      </trkpt>
      <trkpt lat="43.95513" lon="7.24184">
        <ele>1445.9602051</ele>
        <time>2009-05-31T07:26:35Z</time>
      </trkpt>
      <trkpt lat="43.95511" lon="7.24184">
        <ele>1444.9987793</ele>
        <time>2009-05-31T07:26:48Z</time>
      </trkpt>
      <trkpt lat="43.9551" lon="7.24186">
        <ele>1445.9602051</ele>
        <time>2009-05-31T07:26:54Z</time>
      </trkpt>
      <trkpt lat="43.95505" lon="7.24185">
        <ele>1445.9602051</ele>
        <time>2009-05-31T07:27:00Z</time>
      </trkpt>
      <trkpt lat="43.95496" lon="7.24188">
        <ele>1447.4020996</ele>
        <time>2009-05-31T07:27:07Z</time>
      </trkpt>
      <trkpt lat="43.95493" lon="7.24191">
        <ele>1449.8054199</ele>
        <time>2009-05-31T07:27:13Z</time>
      </trkpt>
      <trkpt lat="43.9549" lon="7.24193">
        <ele>1449.324707</ele>
        <time>2009-05-31T07:27:19Z</time>
      </trkpt>
      <trkpt lat="43.95486" lon="7.24193">
        <ele>1451.2473145</ele>
        <time>2009-05-31T07:27:25Z</time>
      </trkpt>
      <trkpt lat="43.95482" lon="7.24192">
        <ele>1451.7280273</ele>
        <time>2009-05-31T07:27:31Z</time>
      </trkpt>
      <trkpt lat="43.95477" lon="7.24196">
        <ele>1455.0927734</ele>
        <time>2009-05-31T07:27:39Z</time>
      </trkpt>
      <trkpt lat="43.95474" lon="7.24194">
        <ele>1456.0539551</ele>
        <time>2009-05-31T07:27:44Z</time>
      </trkpt>
      <trkpt lat="43.95469" lon="7.24192">
        <ele>1457.9768066</ele>
        <time>2009-05-31T07:27:51Z</time>
      </trkpt>
      <trkpt lat="43.95465" lon="7.24189">
        <ele>1458.4572754</ele>
        <time>2009-05-31T07:28:00Z</time>
      </trkpt>
      <trkpt lat="43.95459" lon="7.24189">
        <ele>1460.3798828</ele>
        <time>2009-05-31T07:28:09Z</time>
      </trkpt>
      <trkpt lat="43.95457" lon="7.24192">
        <ele>1461.8220215</ele>
        <time>2009-05-31T07:28:16Z</time>
      </trkpt>
      <trkpt lat="43.95455" lon="7.24193">
        <ele>1463.7443848</ele>
        <time>2009-05-31T07:28:22Z</time>
      </trkpt>
      <trkpt lat="43.95454" lon="7.24193">
        <ele>1464.7058105</ele>
        <time>2009-05-31T07:28:24Z</time>
      </trkpt>
      <trkpt lat="43.95452" lon="7.242">
        <ele>1465.6672363</ele>
        <time>2009-05-31T07:28:33Z</time>
      </trkpt>
      <trkpt lat="43.95448" lon="7.24202">
        <ele>1466.1477051</ele>
        <time>2009-05-31T07:28:39Z</time>
      </trkpt>
      <trkpt lat="43.95446" lon="7.24204">
        <ele>1467.1091309</ele>
        <time>2009-05-31T07:28:44Z</time>
      </trkpt>
      <trkpt lat="43.95446" lon="7.24209">
        <ele>1468.0705566</ele>
        <time>2009-05-31T07:28:53Z</time>
      </trkpt>
      <trkpt lat="43.95445" lon="7.24211">
        <ele>1469.5126953</ele>
        <time>2009-05-31T07:28:57Z</time>
      </trkpt>
      <trkpt lat="43.95443" lon="7.24215">
        <ele>1471.4350586</ele>
        <time>2009-05-31T07:29:04Z</time>
      </trkpt>
      <trkpt lat="43.95438" lon="7.24217">
        <ele>1473.3579102</ele>
        <time>2009-05-31T07:29:13Z</time>
      </trkpt>
      <trkpt lat="43.95437" lon="7.24218">
        <ele>1474.7998047</ele>
        <time>2009-05-31T07:29:16Z</time>
      </trkpt>
      <trkpt lat="43.95436" lon="7.24223">
        <ele>1476.2416992</ele>
        <time>2009-05-31T07:29:24Z</time>
      </trkpt>
      <trkpt lat="43.95433" lon="7.24226">
        <ele>1477.6835938</ele>
        <time>2009-05-31T07:29:28Z</time>
      </trkpt>
      <trkpt lat="43.9543" lon="7.24229">
        <ele>1478.6450195</ele>
        <time>2009-05-31T07:29:35Z</time>
      </trkpt>
      <trkpt lat="43.95423" lon="7.24234">
        <ele>1480.0869141</ele>
        <time>2009-05-31T07:29:43Z</time>
      </trkpt>
      <trkpt lat="43.9542" lon="7.24238">
        <ele>1481.5288086</ele>
        <time>2009-05-31T07:29:52Z</time>
      </trkpt>
      <trkpt lat="43.95417" lon="7.24242">
        <ele>1482.9707031</ele>
        <time>2009-05-31T07:29:59Z</time>
      </trkpt>
      <trkpt lat="43.95414" lon="7.24246">
        <ele>1484.4130859</ele>
        <time>2009-05-31T07:30:07Z</time>
      </trkpt>
      <trkpt lat="43.95413" lon="7.24249">
        <ele>1485.8549805</ele>
        <time>2009-05-31T07:30:11Z</time>
      </trkpt>
      <trkpt lat="43.9541" lon="7.24253">
        <ele>1486.8161621</ele>
        <time>2009-05-31T07:30:19Z</time>
      </trkpt>
      <trkpt lat="43.95405" lon="7.2426">
        <ele>1488.7390137</ele>
        <time>2009-05-31T07:30:29Z</time>
      </trkpt>
      <trkpt lat="43.954" lon="7.24262">
        <ele>1488.7390137</ele>
        <time>2009-05-31T07:30:36Z</time>
      </trkpt>
      <trkpt lat="43.95398" lon="7.24262">
        <ele>1489.2194824</ele>
        <time>2009-05-31T07:30:40Z</time>
      </trkpt>
      <trkpt lat="43.95386" lon="7.24261">
        <ele>1488.2583008</ele>
        <time>2009-05-31T07:30:46Z</time>
      </trkpt>
      <trkpt lat="43.95374" lon="7.24261">
        <ele>1488.7390137</ele>
        <time>2009-05-31T07:30:51Z</time>
      </trkpt>
      <trkpt lat="43.95358" lon="7.24262">
        <ele>1488.2583008</ele>
        <time>2009-05-31T07:30:56Z</time>
      </trkpt>
      <trkpt lat="43.9535" lon="7.24265">
        <ele>1485.3742676</ele>
        <time>2009-05-31T07:30:58Z</time>
      </trkpt>
      <trkpt lat="43.95338" lon="7.24265">
        <ele>1486.8161621</ele>
        <time>2009-05-31T07:31:02Z</time>
      </trkpt>
      <trkpt lat="43.95337" lon="7.24265">
        <ele>1486.8161621</ele>
        <time>2009-05-31T07:31:03Z</time>
      </trkpt>
      <trkpt lat="43.95334" lon="7.24265">
        <ele>1487.296875</ele>
        <time>2009-05-31T07:31:08Z</time>
      </trkpt>
      <trkpt lat="43.95331" lon="7.24265">
        <ele>1489.2194824</ele>
        <time>2009-05-31T07:31:13Z</time>
      </trkpt>
      <trkpt lat="43.95327" lon="7.24268">
        <ele>1488.7390137</ele>
        <time>2009-05-31T07:31:18Z</time>
      </trkpt>
      <trkpt lat="43.95322" lon="7.24274">
        <ele>1490.1809082</ele>
        <time>2009-05-31T07:31:24Z</time>
      </trkpt>
      <trkpt lat="43.95311" lon="7.24271">
        <ele>1491.1420898</ele>
        <time>2009-05-31T07:31:34Z</time>
      </trkpt>
      <trkpt lat="43.95304" lon="7.24273">
        <ele>1493.0646973</ele>
        <time>2009-05-31T07:31:41Z</time>
      </trkpt>
      <trkpt lat="43.95295" lon="7.24277">
        <ele>1494.026123</ele>
        <time>2009-05-31T07:31:49Z</time>
      </trkpt>
      <trkpt lat="43.95288" lon="7.24278">
        <ele>1496.4294434</ele>
        <time>2009-05-31T07:31:57Z</time>
      </trkpt>
      <trkpt lat="43.95287" lon="7.24278">
        <ele>1496.4294434</ele>
        <time>2009-05-31T07:31:58Z</time>
      </trkpt>
      <trkpt lat="43.95282" lon="7.24275">
        <ele>1497.8713379</ele>
        <time>2009-05-31T07:32:05Z</time>
      </trkpt>
      <trkpt lat="43.95278" lon="7.2427">
        <ele>1498.3518066</ele>
        <time>2009-05-31T07:32:12Z</time>
      </trkpt>
      <trkpt lat="43.9527" lon="7.24276">
        <ele>1498.3518066</ele>
        <time>2009-05-31T07:32:20Z</time>
      </trkpt>
      <trkpt lat="43.95265" lon="7.24282">
        <ele>1498.3518066</ele>
        <time>2009-05-31T07:32:25Z</time>
      </trkpt>
      <trkpt lat="43.95262" lon="7.24286">
        <ele>1497.390625</ele>
        <time>2009-05-31T07:32:30Z</time>
      </trkpt>
      <trkpt lat="43.95258" lon="7.24289">
        <ele>1498.8325195</ele>
        <time>2009-05-31T07:32:36Z</time>
      </trkpt>
      <trkpt lat="43.95249" lon="7.24298">
        <ele>1496.9099121</ele>
        <time>2009-05-31T07:32:40Z</time>
      </trkpt>
      <trkpt lat="43.95246" lon="7.24301">
        <ele>1497.390625</ele>
        <time>2009-05-31T07:32:41Z</time>
      </trkpt>
      <trkpt lat="43.95234" lon="7.24302">
        <ele>1494.9873047</ele>
        <time>2009-05-31T07:32:46Z</time>
      </trkpt>
      <trkpt lat="43.95224" lon="7.24306">
        <ele>1495.4680176</ele>
        <time>2009-05-31T07:32:50Z</time>
      </trkpt>
      <trkpt lat="43.95221" lon="7.24304">
        <ele>1495.4680176</ele>
        <time>2009-05-31T07:32:54Z</time>
      </trkpt>
      <trkpt lat="43.95219" lon="7.24302">
        <ele>1495.9487305</ele>
        <time>2009-05-31T07:33:01Z</time>
      </trkpt>
      <trkpt lat="43.95214" lon="7.24301">
        <ele>1497.390625</ele>
        <time>2009-05-31T07:33:06Z</time>
      </trkpt>
      <trkpt lat="43.95206" lon="7.24304">
        <ele>1498.8325195</ele>
        <time>2009-05-31T07:33:18Z</time>
      </trkpt>
      <trkpt lat="43.95203" lon="7.24298">
        <ele>1501.236084</ele>
        <time>2009-05-31T07:33:25Z</time>
      </trkpt>
      <trkpt lat="43.95197" lon="7.24292">
        <ele>1503.1586914</ele>
        <time>2009-05-31T07:33:34Z</time>
      </trkpt>
      <trkpt lat="43.95191" lon="7.24292">
        <ele>1506.0424805</ele>
        <time>2009-05-31T07:33:42Z</time>
      </trkpt>
      <trkpt lat="43.95192" lon="7.24297">
        <ele>1506.0424805</ele>
        <time>2009-05-31T07:33:49Z</time>
      </trkpt>
      <trkpt lat="43.95196" lon="7.243">
        <ele>1507.4846191</ele>
        <time>2009-05-31T07:33:56Z</time>
      </trkpt>
      <trkpt lat="43.95194" lon="7.24301">
        <ele>1507.965332</ele>
        <time>2009-05-31T07:34:01Z</time>
      </trkpt>
      <trkpt lat="43.95191" lon="7.24301">
        <ele>1509.4072266</ele>
        <time>2009-05-31T07:34:09Z</time>
      </trkpt>
      <trkpt lat="43.95194" lon="7.24305">
        <ele>1511.329834</ele>
        <time>2009-05-31T07:34:17Z</time>
      </trkpt>
      <trkpt lat="43.95192" lon="7.24307">
        <ele>1513.2524414</ele>
        <time>2009-05-31T07:34:22Z</time>
      </trkpt>
      <trkpt lat="43.95188" lon="7.2431">
        <ele>1513.7329102</ele>
        <time>2009-05-31T07:34:30Z</time>
      </trkpt>
      <trkpt lat="43.95186" lon="7.24312">
        <ele>1514.6943359</ele>
        <time>2009-05-31T07:34:36Z</time>
      </trkpt>
      <trkpt lat="43.95183" lon="7.24314">
        <ele>1515.6557617</ele>
        <time>2009-05-31T07:34:42Z</time>
      </trkpt>
      <trkpt lat="43.9518" lon="7.24317">
        <ele>1517.5783691</ele>
        <time>2009-05-31T07:34:47Z</time>
      </trkpt>
      <trkpt lat="43.95177" lon="7.2432">
        <ele>1518.5397949</ele>
        <time>2009-05-31T07:34:56Z</time>
      </trkpt>
      <trkpt lat="43.95175" lon="7.24321">
        <ele>1519.5012207</ele>
        <time>2009-05-31T07:35:01Z</time>
      </trkpt>
      <trkpt lat="43.95173" lon="7.24325">
        <ele>1522.8657227</ele>
        <time>2009-05-31T07:35:09Z</time>
      </trkpt>
      <trkpt lat="43.95172" lon="7.24325">
        <ele>1522.8657227</ele>
        <time>2009-05-31T07:35:10Z</time>
      </trkpt>
      <trkpt lat="43.95174" lon="7.24321">
        <ele>1522.8657227</ele>
        <time>2009-05-31T07:35:17Z</time>
      </trkpt>
      <trkpt lat="43.95177" lon="7.24316">
        <ele>1524.7883301</ele>
        <time>2009-05-31T07:35:28Z</time>
      </trkpt>
      <trkpt lat="43.95173" lon="7.24322">
        <ele>1527.6721191</ele>
        <time>2009-05-31T07:35:44Z</time>
      </trkpt>
      <trkpt lat="43.95173" lon="7.24325">
        <ele>1528.152832</ele>
        <time>2009-05-31T07:35:51Z</time>
      </trkpt>
      <trkpt lat="43.95171" lon="7.24326">
        <ele>1529.1140137</ele>
        <time>2009-05-31T07:35:56Z</time>
      </trkpt>
      <trkpt lat="43.95165" lon="7.24327">
        <ele>1528.6335449</ele>
        <time>2009-05-31T07:36:09Z</time>
      </trkpt>
      <trkpt lat="43.95165" lon="7.24331">
        <ele>1530.0754395</ele>
        <time>2009-05-31T07:36:18Z</time>
      </trkpt>
      <trkpt lat="43.95164" lon="7.24333">
        <ele>1531.0368652</ele>
        <time>2009-05-31T07:36:24Z</time>
      </trkpt>
      <trkpt lat="43.95162" lon="7.24334">
        <ele>1531.9980469</ele>
        <time>2009-05-31T07:36:30Z</time>
      </trkpt>
      <trkpt lat="43.95162" lon="7.24338">
        <ele>1532.9594727</ele>
        <time>2009-05-31T07:36:35Z</time>
      </trkpt>
      <trkpt lat="43.95163" lon="7.24343">
        <ele>1534.8823242</ele>
        <time>2009-05-31T07:36:42Z</time>
      </trkpt>
      <trkpt lat="43.95161" lon="7.24349">
        <ele>1535.8435059</ele>
        <time>2009-05-31T07:36:50Z</time>
      </trkpt>
      <trkpt lat="43.95156" lon="7.24353">
        <ele>1537.2854004</ele>
        <time>2009-05-31T07:36:57Z</time>
      </trkpt>
      <trkpt lat="43.95153" lon="7.24357">
        <ele>1537.7661133</ele>
        <time>2009-05-31T07:37:05Z</time>
      </trkpt>
      <trkpt lat="43.95149" lon="7.24359">
        <ele>1539.6887207</ele>
        <time>2009-05-31T07:37:12Z</time>
      </trkpt>
      <trkpt lat="43.95141" lon="7.24363">
        <ele>1540.6499023</ele>
        <time>2009-05-31T07:37:21Z</time>
      </trkpt>
      <trkpt lat="43.95136" lon="7.24368">
        <ele>1540.1694336</ele>
        <time>2009-05-31T07:37:29Z</time>
      </trkpt>
      <trkpt lat="43.95132" lon="7.24369">
        <ele>1539.6887207</ele>
        <time>2009-05-31T07:37:33Z</time>
      </trkpt>
      <trkpt lat="43.95127" lon="7.24369">
        <ele>1540.6499023</ele>
        <time>2009-05-31T07:37:39Z</time>
      </trkpt>
      <trkpt lat="43.9512" lon="7.24363">
        <ele>1540.6499023</ele>
        <time>2009-05-31T07:37:47Z</time>
      </trkpt>
      <trkpt lat="43.95117" lon="7.24362">
        <ele>1541.6113281</ele>
        <time>2009-05-31T07:37:52Z</time>
      </trkpt>
      <trkpt lat="43.95107" lon="7.24366">
        <ele>1541.6113281</ele>
        <time>2009-05-31T07:38:02Z</time>
      </trkpt>
      <trkpt lat="43.951" lon="7.24372">
        <ele>1543.5339355</ele>
        <time>2009-05-31T07:38:12Z</time>
      </trkpt>
      <trkpt lat="43.95095" lon="7.24372">
        <ele>1544.0146484</ele>
        <time>2009-05-31T07:38:19Z</time>
      </trkpt>
      <trkpt lat="43.9509" lon="7.24369">
        <ele>1544.9758301</ele>
        <time>2009-05-31T07:38:25Z</time>
      </trkpt>
      <trkpt lat="43.95084" lon="7.24366">
        <ele>1544.9758301</ele>
        <time>2009-05-31T07:38:33Z</time>
      </trkpt>
      <trkpt lat="43.95079" lon="7.24362">
        <ele>1545.456543</ele>
        <time>2009-05-31T07:38:41Z</time>
      </trkpt>
      <trkpt lat="43.95077" lon="7.24357">
        <ele>1546.4179688</ele>
        <time>2009-05-31T07:38:48Z</time>
      </trkpt>
      <trkpt lat="43.9507" lon="7.2435">
        <ele>1547.3791504</ele>
        <time>2009-05-31T07:38:55Z</time>
      </trkpt>
      <trkpt lat="43.95063" lon="7.24339">
        <ele>1545.9372559</ele>
        <time>2009-05-31T07:39:03Z</time>
      </trkpt>
      <trkpt lat="43.9506" lon="7.24327">
        <ele>1546.8984375</ele>
        <time>2009-05-31T07:39:09Z</time>
      </trkpt>
      <trkpt lat="43.95056" lon="7.24317">
        <ele>1547.3791504</ele>
        <time>2009-05-31T07:39:15Z</time>
      </trkpt>
      <trkpt lat="43.95053" lon="7.24311">
        <ele>1549.302002</ele>
        <time>2009-05-31T07:39:22Z</time>
      </trkpt>
      <trkpt lat="43.95053" lon="7.2431">
        <ele>1549.7827148</ele>
        <time>2009-05-31T07:39:32Z</time>
      </trkpt>
      <trkpt lat="43.95052" lon="7.24309">
        <ele>1549.302002</ele>
        <time>2009-05-31T07:39:53Z</time>
      </trkpt>
      <trkpt lat="43.95052" lon="7.2431">
        <ele>1549.302002</ele>
        <time>2009-05-31T07:39:54Z</time>
      </trkpt>
      <trkpt lat="43.95046" lon="7.24312">
        <ele>1547.8598633</ele>
        <time>2009-05-31T07:39:57Z</time>
      </trkpt>
      <trkpt lat="43.95041" lon="7.24317">
        <ele>1545.9372559</ele>
        <time>2009-05-31T07:40:00Z</time>
      </trkpt>
      <trkpt lat="43.95036" lon="7.24322">
        <ele>1543.5339355</ele>
        <time>2009-05-31T07:40:03Z</time>
      </trkpt>
      <trkpt lat="43.9503" lon="7.24327">
        <ele>1541.6113281</ele>
        <time>2009-05-31T07:40:06Z</time>
      </trkpt>
      <trkpt lat="43.95019" lon="7.24333">
        <ele>1539.6887207</ele>
        <time>2009-05-31T07:40:10Z</time>
      </trkpt>
      <trkpt lat="43.95014" lon="7.24337">
        <ele>1537.7661133</ele>
        <time>2009-05-31T07:40:13Z</time>
      </trkpt>
      <trkpt lat="43.95003" lon="7.24349">
        <ele>1533.9208984</ele>
        <time>2009-05-31T07:40:19Z</time>
      </trkpt>
      <trkpt lat="43.94996" lon="7.24354">
        <ele>1530.5561523</ele>
        <time>2009-05-31T07:40:22Z</time>
      </trkpt>
      <trkpt lat="43.94993" lon="7.24356">
        <ele>1530.5561523</ele>
        <time>2009-05-31T07:40:23Z</time>
      </trkpt>
      <trkpt lat="43.9499" lon="7.24357">
        <ele>1530.0754395</ele>
        <time>2009-05-31T07:40:26Z</time>
      </trkpt>
      <trkpt lat="43.94981" lon="7.24361">
        <ele>1528.6335449</ele>
        <time>2009-05-31T07:40:33Z</time>
      </trkpt>
      <trkpt lat="43.94969" lon="7.24357">
        <ele>1527.6721191</ele>
        <time>2009-05-31T07:40:38Z</time>
      </trkpt>
      <trkpt lat="43.9496" lon="7.24349">
        <ele>1527.1916504</ele>
        <time>2009-05-31T07:40:42Z</time>
      </trkpt>
      <trkpt lat="43.94956" lon="7.24345">
        <ele>1527.1916504</ele>
        <time>2009-05-31T07:40:44Z</time>
      </trkpt>
      <trkpt lat="43.94945" lon="7.24339">
        <ele>1527.6721191</ele>
        <time>2009-05-31T07:40:49Z</time>
      </trkpt>
      <trkpt lat="43.94933" lon="7.2434">
        <ele>1525.7495117</ele>
        <time>2009-05-31T07:40:55Z</time>
      </trkpt>
      <trkpt lat="43.9493" lon="7.24343">
        <ele>1526.2302246</ele>
        <time>2009-05-31T07:40:56Z</time>
      </trkpt>
      <trkpt lat="43.94923" lon="7.24353">
        <ele>1524.7883301</ele>
        <time>2009-05-31T07:40:59Z</time>
      </trkpt>
      <trkpt lat="43.94912" lon="7.24371">
        <ele>1521.423584</ele>
        <time>2009-05-31T07:41:04Z</time>
      </trkpt>
      <trkpt lat="43.9491" lon="7.24375">
        <ele>1520.9431152</ele>
        <time>2009-05-31T07:41:05Z</time>
      </trkpt>
      <trkpt lat="43.94902" lon="7.24385">
        <ele>1517.5783691</ele>
        <time>2009-05-31T07:41:08Z</time>
      </trkpt>
      <trkpt lat="43.94895" lon="7.24393">
        <ele>1515.1750488</ele>
        <time>2009-05-31T07:41:11Z</time>
      </trkpt>
      <trkpt lat="43.94885" lon="7.24398">
        <ele>1510.8491211</ele>
        <time>2009-05-31T07:41:16Z</time>
      </trkpt>
      <trkpt lat="43.94879" lon="7.244">
        <ele>1508.4458008</ele>
        <time>2009-05-31T07:41:21Z</time>
      </trkpt>
      <trkpt lat="43.94875" lon="7.244">
        <ele>1507.4846191</ele>
        <time>2009-05-31T07:41:23Z</time>
      </trkpt>
      <trkpt lat="43.94874" lon="7.24399">
        <ele>1506.5231934</ele>
        <time>2009-05-31T07:41:25Z</time>
      </trkpt>
      <trkpt lat="43.94878" lon="7.24393">
        <ele>1503.6394043</ele>
        <time>2009-05-31T07:41:31Z</time>
      </trkpt>
      <trkpt lat="43.94879" lon="7.24392">
        <ele>1503.1586914</ele>
        <time>2009-05-31T07:41:32Z</time>
      </trkpt>
      <trkpt lat="43.94882" lon="7.24383">
        <ele>1502.1972656</ele>
        <time>2009-05-31T07:41:40Z</time>
      </trkpt>
      <trkpt lat="43.94881" lon="7.24383">
        <ele>1501.7167969</ele>
        <time>2009-05-31T07:41:43Z</time>
      </trkpt>
      <trkpt lat="43.9488" lon="7.2438">
        <ele>1499.7939453</ele>
        <time>2009-05-31T07:41:48Z</time>
      </trkpt>
      <trkpt lat="43.94881" lon="7.24379">
        <ele>1499.7939453</ele>
        <time>2009-05-31T07:41:49Z</time>
      </trkpt>
      <trkpt lat="43.94885" lon="7.24375">
        <ele>1499.3132324</ele>
        <time>2009-05-31T07:41:53Z</time>
      </trkpt>
      <trkpt lat="43.94887" lon="7.24361">
        <ele>1496.4294434</ele>
        <time>2009-05-31T07:41:58Z</time>
      </trkpt>
      <trkpt lat="43.9489" lon="7.2435">
        <ele>1494.5065918</ele>
        <time>2009-05-31T07:42:02Z</time>
      </trkpt>
      <trkpt lat="43.94892" lon="7.24341">
        <ele>1493.0646973</ele>
        <time>2009-05-31T07:42:06Z</time>
      </trkpt>
      <trkpt lat="43.9489" lon="7.24338">
        <ele>1494.026123</ele>
        <time>2009-05-31T07:42:11Z</time>
      </trkpt>
      <trkpt lat="43.94887" lon="7.24345">
        <ele>1494.5065918</ele>
        <time>2009-05-31T07:42:17Z</time>
      </trkpt>
      <trkpt lat="43.94884" lon="7.2435">
        <ele>1492.1035156</ele>
        <time>2009-05-31T07:42:19Z</time>
      </trkpt>
      <trkpt lat="43.94882" lon="7.24345">
        <ele>1489.7001953</ele>
        <time>2009-05-31T07:42:23Z</time>
      </trkpt>
      <trkpt lat="43.94883" lon="7.24336">
        <ele>1488.7390137</ele>
        <time>2009-05-31T07:42:27Z</time>
      </trkpt>
      <trkpt lat="43.94883" lon="7.24336">
        <ele>1487.7775879</ele>
        <time>2009-05-31T07:42:28Z</time>
      </trkpt>
      <trkpt lat="43.94879" lon="7.24337">
        <ele>1486.3356934</ele>
        <time>2009-05-31T07:42:33Z</time>
      </trkpt>
      <trkpt lat="43.94876" lon="7.2434">
        <ele>1485.3742676</ele>
        <time>2009-05-31T07:42:37Z</time>
      </trkpt>
      <trkpt lat="43.94865" lon="7.24356">
        <ele>1482.4902344</ele>
        <time>2009-05-31T07:42:43Z</time>
      </trkpt>
      <trkpt lat="43.94864" lon="7.24359">
        <ele>1481.5288086</ele>
        <time>2009-05-31T07:42:44Z</time>
      </trkpt>
      <trkpt lat="43.94858" lon="7.24366">
        <ele>1479.6062012</ele>
        <time>2009-05-31T07:42:47Z</time>
      </trkpt>
      <trkpt lat="43.94853" lon="7.24373">
        <ele>1479.6062012</ele>
        <time>2009-05-31T07:42:51Z</time>
      </trkpt>
      <trkpt lat="43.9484" lon="7.24384">
        <ele>1477.6835938</ele>
        <time>2009-05-31T07:42:55Z</time>
      </trkpt>
      <trkpt lat="43.94837" lon="7.24386">
        <ele>1477.6835938</ele>
        <time>2009-05-31T07:42:56Z</time>
      </trkpt>
      <trkpt lat="43.94826" lon="7.24399">
        <ele>1476.2416992</ele>
        <time>2009-05-31T07:43:00Z</time>
      </trkpt>
      <trkpt lat="43.94818" lon="7.24404">
        <ele>1476.2416992</ele>
        <time>2009-05-31T07:43:04Z</time>
      </trkpt>
      <trkpt lat="43.94805" lon="7.24415">
        <ele>1473.3579102</ele>
        <time>2009-05-31T07:43:10Z</time>
      </trkpt>
      <trkpt lat="43.94795" lon="7.24418">
        <ele>1469.9931641</ele>
        <time>2009-05-31T07:43:15Z</time>
      </trkpt>
      <trkpt lat="43.94794" lon="7.24419">
        <ele>1469.9931641</ele>
        <time>2009-05-31T07:43:16Z</time>
      </trkpt>
      <trkpt lat="43.94791" lon="7.24421">
        <ele>1468.5512695</ele>
        <time>2009-05-31T07:43:19Z</time>
      </trkpt>
      <trkpt lat="43.94788" lon="7.24423">
        <ele>1467.5895996</ele>
        <time>2009-05-31T07:43:23Z</time>
      </trkpt>
      <trkpt lat="43.94787" lon="7.2442">
        <ele>1466.1477051</ele>
        <time>2009-05-31T07:43:26Z</time>
      </trkpt>
      <trkpt lat="43.94788" lon="7.24415">
        <ele>1464.7058105</ele>
        <time>2009-05-31T07:43:29Z</time>
      </trkpt>
      <trkpt lat="43.94793" lon="7.24406">
        <ele>1463.263916</ele>
        <time>2009-05-31T07:43:33Z</time>
      </trkpt>
      <trkpt lat="43.94796" lon="7.24394">
        <ele>1460.3798828</ele>
        <time>2009-05-31T07:43:38Z</time>
      </trkpt>
      <trkpt lat="43.9479" lon="7.24395">
        <ele>1458.9379883</ele>
        <time>2009-05-31T07:43:42Z</time>
      </trkpt>
      <trkpt lat="43.94787" lon="7.24397">
        <ele>1458.9379883</ele>
        <time>2009-05-31T07:43:43Z</time>
      </trkpt>
      <trkpt lat="43.94778" lon="7.24403">
        <ele>1457.4960938</ele>
        <time>2009-05-31T07:43:47Z</time>
      </trkpt>
      <trkpt lat="43.94774" lon="7.24399">
        <ele>1455.5734863</ele>
        <time>2009-05-31T07:43:50Z</time>
      </trkpt>
      <trkpt lat="43.94777" lon="7.24389">
        <ele>1451.7280273</ele>
        <time>2009-05-31T07:43:53Z</time>
      </trkpt>
      <trkpt lat="43.94779" lon="7.24382">
        <ele>1447.8828125</ele>
        <time>2009-05-31T07:43:55Z</time>
      </trkpt>
      <trkpt lat="43.94781" lon="7.24378">
        <ele>1448.3632812</ele>
        <time>2009-05-31T07:43:56Z</time>
      </trkpt>
      <trkpt lat="43.94782" lon="7.24367">
        <ele>1444.9987793</ele>
        <time>2009-05-31T07:44:00Z</time>
      </trkpt>
      <trkpt lat="43.9478" lon="7.24367">
        <ele>1444.5180664</ele>
        <time>2009-05-31T07:44:01Z</time>
      </trkpt>
      <trkpt lat="43.94776" lon="7.24368">
        <ele>1443.5568848</ele>
        <time>2009-05-31T07:44:03Z</time>
      </trkpt>
      <trkpt lat="43.94766" lon="7.24371">
        <ele>1439.7116699</ele>
        <time>2009-05-31T07:44:07Z</time>
      </trkpt>
      <trkpt lat="43.94757" lon="7.24372">
        <ele>1435.8662109</ele>
        <time>2009-05-31T07:44:11Z</time>
      </trkpt>
      <trkpt lat="43.94755" lon="7.24366">
        <ele>1433.4628906</ele>
        <time>2009-05-31T07:44:14Z</time>
      </trkpt>
      <trkpt lat="43.94756" lon="7.24358">
        <ele>1432.0209961</ele>
        <time>2009-05-31T07:44:17Z</time>
      </trkpt>
      <trkpt lat="43.94757" lon="7.24353">
        <ele>1431.5402832</ele>
        <time>2009-05-31T07:44:22Z</time>
      </trkpt>
      <trkpt lat="43.94757" lon="7.24353">
        <ele>1431.5402832</ele>
        <time>2009-05-31T07:44:23Z</time>
      </trkpt>
      <trkpt lat="43.94751" lon="7.24349">
        <ele>1429.6176758</ele>
        <time>2009-05-31T07:44:29Z</time>
      </trkpt>
      <trkpt lat="43.94751" lon="7.24349">
        <ele>1428.6564941</ele>
        <time>2009-05-31T07:44:30Z</time>
      </trkpt>
      <trkpt lat="43.94746" lon="7.24352">
        <ele>1426.7338867</ele>
        <time>2009-05-31T07:44:33Z</time>
      </trkpt>
      <trkpt lat="43.94743" lon="7.24352">
        <ele>1425.291748</ele>
        <time>2009-05-31T07:44:35Z</time>
      </trkpt>
      <trkpt lat="43.94736" lon="7.24355">
        <ele>1422.8886719</ele>
        <time>2009-05-31T07:44:39Z</time>
      </trkpt>
      <trkpt lat="43.94732" lon="7.2435">
        <ele>1420.0046387</ele>
        <time>2009-05-31T07:44:42Z</time>
      </trkpt>
      <trkpt lat="43.94727" lon="7.24349">
        <ele>1417.1206055</ele>
        <time>2009-05-31T07:44:45Z</time>
      </trkpt>
      <trkpt lat="43.94724" lon="7.24354">
        <ele>1416.1591797</ele>
        <time>2009-05-31T07:44:48Z</time>
      </trkpt>
      <trkpt lat="43.94719" lon="7.24348">
        <ele>1414.2365723</ele>
        <time>2009-05-31T07:44:52Z</time>
      </trkpt>
      <trkpt lat="43.94716" lon="7.24351">
        <ele>1413.2753906</ele>
        <time>2009-05-31T07:44:55Z</time>
      </trkpt>
      <trkpt lat="43.94715" lon="7.2435">
        <ele>1413.2753906</ele>
        <time>2009-05-31T07:44:56Z</time>
      </trkpt>
      <trkpt lat="43.94713" lon="7.24346">
        <ele>1411.8334961</ele>
        <time>2009-05-31T07:44:59Z</time>
      </trkpt>
      <trkpt lat="43.94709" lon="7.24344">
        <ele>1409.4301758</ele>
        <time>2009-05-31T07:45:03Z</time>
      </trkpt>
      <trkpt lat="43.94708" lon="7.24338">
        <ele>1409.4301758</ele>
        <time>2009-05-31T07:45:07Z</time>
      </trkpt>
      <trkpt lat="43.94706" lon="7.2434">
        <ele>1408.46875</ele>
        <time>2009-05-31T07:45:08Z</time>
      </trkpt>
      <trkpt lat="43.947" lon="7.24339">
        <ele>1405.104248</ele>
        <time>2009-05-31T07:45:13Z</time>
      </trkpt>
      <trkpt lat="43.947" lon="7.24335">
        <ele>1404.1430664</ele>
        <time>2009-05-31T07:45:15Z</time>
      </trkpt>
      <trkpt lat="43.94694" lon="7.24335">
        <ele>1403.1813965</ele>
        <time>2009-05-31T07:45:20Z</time>
      </trkpt>
      <trkpt lat="43.94696" lon="7.24327">
        <ele>1400.2976074</ele>
        <time>2009-05-31T07:45:23Z</time>
      </trkpt>
      <trkpt lat="43.94695" lon="7.24318">
        <ele>1399.3361816</ele>
        <time>2009-05-31T07:45:27Z</time>
      </trkpt>
      <trkpt lat="43.94691" lon="7.24316">
        <ele>1397.8942871</ele>
        <time>2009-05-31T07:45:29Z</time>
      </trkpt>
      <trkpt lat="43.94688" lon="7.24317">
        <ele>1396.9328613</ele>
        <time>2009-05-31T07:45:30Z</time>
      </trkpt>
      <trkpt lat="43.94679" lon="7.24317">
        <ele>1393.5683594</ele>
        <time>2009-05-31T07:45:36Z</time>
      </trkpt>
      <trkpt lat="43.94675" lon="7.24315">
        <ele>1392.1264648</ele>
        <time>2009-05-31T07:45:41Z</time>
      </trkpt>
      <trkpt lat="43.94676" lon="7.24311">
        <ele>1391.1650391</ele>
        <time>2009-05-31T07:45:45Z</time>
      </trkpt>
      <trkpt lat="43.94677" lon="7.24309">
        <ele>1390.6843262</ele>
        <time>2009-05-31T07:45:47Z</time>
      </trkpt>
      <trkpt lat="43.94675" lon="7.24306">
        <ele>1389.7231445</ele>
        <time>2009-05-31T07:45:50Z</time>
      </trkpt>
      <trkpt lat="43.94677" lon="7.24301">
        <ele>1387.800293</ele>
        <time>2009-05-31T07:45:54Z</time>
      </trkpt>
      <trkpt lat="43.94677" lon="7.24298">
        <ele>1385.8776855</ele>
        <time>2009-05-31T07:45:57Z</time>
      </trkpt>
      <trkpt lat="43.94675" lon="7.24295">
        <ele>1385.3969727</ele>
        <time>2009-05-31T07:45:59Z</time>
      </trkpt>
      <trkpt lat="43.94674" lon="7.24295">
        <ele>1384.9165039</ele>
        <time>2009-05-31T07:46:00Z</time>
      </trkpt>
      <trkpt lat="43.94665" lon="7.24291">
        <ele>1381.5517578</ele>
        <time>2009-05-31T07:46:06Z</time>
      </trkpt>
      <trkpt lat="43.94662" lon="7.24289">
        <ele>1382.0324707</ele>
        <time>2009-05-31T07:46:07Z</time>
      </trkpt>
      <trkpt lat="43.94658" lon="7.24287">
        <ele>1381.0712891</ele>
        <time>2009-05-31T07:46:08Z</time>
      </trkpt>
      <trkpt lat="43.94634" lon="7.2426">
        <ele>1378.6679688</ele>
        <time>2009-05-31T07:46:13Z</time>
      </trkpt>
      <trkpt lat="43.94627" lon="7.24246">
        <ele>1377.706543</ele>
        <time>2009-05-31T07:46:15Z</time>
      </trkpt>
      <trkpt lat="43.94618" lon="7.24229">
        <ele>1377.2260742</ele>
        <time>2009-05-31T07:46:18Z</time>
      </trkpt>
      <trkpt lat="43.9461" lon="7.24211">
        <ele>1375.7839355</ele>
        <time>2009-05-31T07:46:22Z</time>
      </trkpt>
      <trkpt lat="43.94608" lon="7.24208">
        <ele>1375.3032227</ele>
        <time>2009-05-31T07:46:23Z</time>
      </trkpt>
      <trkpt lat="43.9459" lon="7.24172">
        <ele>1373.3808594</ele>
        <time>2009-05-31T07:46:30Z</time>
      </trkpt>
      <trkpt lat="43.94581" lon="7.2415">
        <ele>1371.9384766</ele>
        <time>2009-05-31T07:46:34Z</time>
      </trkpt>
      <trkpt lat="43.94576" lon="7.24138">
        <ele>1370.9772949</ele>
        <time>2009-05-31T07:46:36Z</time>
      </trkpt>
      <trkpt lat="43.9457" lon="7.2413">
        <ele>1370.496582</ele>
        <time>2009-05-31T07:46:38Z</time>
      </trkpt>
      <trkpt lat="43.94565" lon="7.2412">
        <ele>1372.4194336</ele>
        <time>2009-05-31T07:46:41Z</time>
      </trkpt>
      <trkpt lat="43.9456" lon="7.24107">
        <ele>1373.8613281</ele>
        <time>2009-05-31T07:46:46Z</time>
      </trkpt>
      <trkpt lat="43.94559" lon="7.24092">
        <ele>1374.342041</ele>
        <time>2009-05-31T07:46:51Z</time>
      </trkpt>
      <trkpt lat="43.9456" lon="7.24084">
        <ele>1373.3808594</ele>
        <time>2009-05-31T07:46:53Z</time>
      </trkpt>
      <trkpt lat="43.9456" lon="7.24069">
        <ele>1372.9001465</ele>
        <time>2009-05-31T07:46:57Z</time>
      </trkpt>
      <trkpt lat="43.9456" lon="7.24063">
        <ele>1373.3808594</ele>
        <time>2009-05-31T07:46:59Z</time>
      </trkpt>
      <trkpt lat="43.94559" lon="7.24042">
        <ele>1373.3808594</ele>
        <time>2009-05-31T07:47:05Z</time>
      </trkpt>
      <trkpt lat="43.94558" lon="7.24018">
        <ele>1371.9384766</ele>
        <time>2009-05-31T07:47:09Z</time>
      </trkpt>
      <trkpt lat="43.94551" lon="7.23993">
        <ele>1372.4194336</ele>
        <time>2009-05-31T07:47:14Z</time>
      </trkpt>
      <trkpt lat="43.94547" lon="7.23981">
        <ele>1374.342041</ele>
        <time>2009-05-31T07:47:19Z</time>
      </trkpt>
      <trkpt lat="43.94546" lon="7.2398">
        <ele>1374.342041</ele>
        <time>2009-05-31T07:47:21Z</time>
      </trkpt>
      <trkpt lat="43.94544" lon="7.23974">
        <ele>1374.342041</ele>
        <time>2009-05-31T07:47:27Z</time>
      </trkpt>
      <trkpt lat="43.94543" lon="7.23974">
        <ele>1374.342041</ele>
        <time>2009-05-31T07:47:29Z</time>
      </trkpt>
      <trkpt lat="43.94532" lon="7.2398">
        <ele>1370.496582</ele>
        <time>2009-05-31T07:47:35Z</time>
      </trkpt>
      <trkpt lat="43.9452" lon="7.23986">
        <ele>1369.5354004</ele>
        <time>2009-05-31T07:47:39Z</time>
      </trkpt>
      <trkpt lat="43.94505" lon="7.23993">
        <ele>1367.6125488</ele>
        <time>2009-05-31T07:47:43Z</time>
      </trkpt>
      <trkpt lat="43.94487" lon="7.24003">
        <ele>1365.6901855</ele>
        <time>2009-05-31T07:47:47Z</time>
      </trkpt>
      <trkpt lat="43.94476" lon="7.24007">
        <ele>1364.7287598</ele>
        <time>2009-05-31T07:47:49Z</time>
      </trkpt>
      <trkpt lat="43.94449" lon="7.24009">
        <ele>1362.8061523</ele>
        <time>2009-05-31T07:47:54Z</time>
      </trkpt>
      <trkpt lat="43.94433" lon="7.2401">
        <ele>1365.2094727</ele>
        <time>2009-05-31T07:47:59Z</time>
      </trkpt>
      <trkpt lat="43.94417" lon="7.24006">
        <ele>1364.2480469</ele>
        <time>2009-05-31T07:48:04Z</time>
      </trkpt>
      <trkpt lat="43.94408" lon="7.24005">
        <ele>1363.767334</ele>
        <time>2009-05-31T07:48:07Z</time>
      </trkpt>
      <trkpt lat="43.944" lon="7.24005">
        <ele>1362.8061523</ele>
        <time>2009-05-31T07:48:09Z</time>
      </trkpt>
      <trkpt lat="43.94396" lon="7.24005">
        <ele>1363.2868652</ele>
        <time>2009-05-31T07:48:10Z</time>
      </trkpt>
      <trkpt lat="43.94366" lon="7.24003">
        <ele>1361.3642578</ele>
        <time>2009-05-31T07:48:16Z</time>
      </trkpt>
      <trkpt lat="43.94345" lon="7.24">
        <ele>1360.402832</ele>
        <time>2009-05-31T07:48:20Z</time>
      </trkpt>
      <trkpt lat="43.94324" lon="7.24002">
        <ele>1359.9221191</ele>
        <time>2009-05-31T07:48:24Z</time>
      </trkpt>
      <trkpt lat="43.94302" lon="7.23995">
        <ele>1359.4416504</ele>
        <time>2009-05-31T07:48:28Z</time>
      </trkpt>
      <trkpt lat="43.9428" lon="7.23983">
        <ele>1357.0383301</ele>
        <time>2009-05-31T07:48:32Z</time>
      </trkpt>
      <trkpt lat="43.94254" lon="7.2398">
        <ele>1355.1154785</ele>
        <time>2009-05-31T07:48:36Z</time>
      </trkpt>
      <trkpt lat="43.94237" lon="7.23964">
        <ele>1354.1542969</ele>
        <time>2009-05-31T07:48:39Z</time>
      </trkpt>
      <trkpt lat="43.9423" lon="7.23937">
        <ele>1351.7509766</ele>
        <time>2009-05-31T07:48:42Z</time>
      </trkpt>
      <trkpt lat="43.94233" lon="7.23908">
        <ele>1350.7895508</ele>
        <time>2009-05-31T07:48:45Z</time>
      </trkpt>
      <trkpt lat="43.94241" lon="7.23857">
        <ele>1345.9831543</ele>
        <time>2009-05-31T07:48:51Z</time>
      </trkpt>
      <trkpt lat="43.94244" lon="7.23847">
        <ele>1345.0217285</ele>
        <time>2009-05-31T07:48:52Z</time>
      </trkpt>
      <trkpt lat="43.94247" lon="7.23828">
        <ele>1343.579834</ele>
        <time>2009-05-31T07:48:54Z</time>
      </trkpt>
      <trkpt lat="43.9425" lon="7.2381">
        <ele>1342.1379395</ele>
        <time>2009-05-31T07:48:56Z</time>
      </trkpt>
      <trkpt lat="43.94253" lon="7.23792">
        <ele>1341.1765137</ele>
        <time>2009-05-31T07:48:58Z</time>
      </trkpt>
      <trkpt lat="43.9426" lon="7.23768">
        <ele>1338.2924805</ele>
        <time>2009-05-31T07:49:01Z</time>
      </trkpt>
      <trkpt lat="43.94269" lon="7.23752">
        <ele>1337.8117676</ele>
        <time>2009-05-31T07:49:03Z</time>
      </trkpt>
      <trkpt lat="43.94279" lon="7.23728">
        <ele>1333.9665527</ele>
        <time>2009-05-31T07:49:06Z</time>
      </trkpt>
      <trkpt lat="43.94279" lon="7.23715">
        <ele>1333.005127</ele>
        <time>2009-05-31T07:49:08Z</time>
      </trkpt>
      <trkpt lat="43.9427" lon="7.23715">
        <ele>1332.0439453</ele>
        <time>2009-05-31T07:49:10Z</time>
      </trkpt>
      <trkpt lat="43.94259" lon="7.23732">
        <ele>1331.0827637</ele>
        <time>2009-05-31T07:49:13Z</time>
      </trkpt>
      <trkpt lat="43.94252" lon="7.2375">
        <ele>1330.1213379</ele>
        <time>2009-05-31T07:49:15Z</time>
      </trkpt>
      <trkpt lat="43.9424" lon="7.23773">
        <ele>1326.7568359</ele>
        <time>2009-05-31T07:49:18Z</time>
      </trkpt>
      <trkpt lat="43.94232" lon="7.23789">
        <ele>1324.3535156</ele>
        <time>2009-05-31T07:49:20Z</time>
      </trkpt>
      <trkpt lat="43.94225" lon="7.23806">
        <ele>1322.4306641</ele>
        <time>2009-05-31T07:49:22Z</time>
      </trkpt>
      <trkpt lat="43.94221" lon="7.23822">
        <ele>1320.5080566</ele>
        <time>2009-05-31T07:49:24Z</time>
      </trkpt>
      <trkpt lat="43.94207" lon="7.23851">
        <ele>1318.1047363</ele>
        <time>2009-05-31T07:49:28Z</time>
      </trkpt>
      <trkpt lat="43.94202" lon="7.23858">
        <ele>1317.1435547</ele>
        <time>2009-05-31T07:49:29Z</time>
      </trkpt>
      <trkpt lat="43.94185" lon="7.23861">
        <ele>1313.7788086</ele>
        <time>2009-05-31T07:49:32Z</time>
      </trkpt>
      <trkpt lat="43.94167" lon="7.23864">
        <ele>1311.3757324</ele>
        <time>2009-05-31T07:49:35Z</time>
      </trkpt>
      <trkpt lat="43.94161" lon="7.23864">
        <ele>1309.453125</ele>
        <time>2009-05-31T07:49:36Z</time>
      </trkpt>
      <trkpt lat="43.94126" lon="7.23854">
        <ele>1305.607666</ele>
        <time>2009-05-31T07:49:41Z</time>
      </trkpt>
      <trkpt lat="43.94112" lon="7.23848">
        <ele>1304.1657715</ele>
        <time>2009-05-31T07:49:43Z</time>
      </trkpt>
      <trkpt lat="43.94099" lon="7.23841">
        <ele>1302.2429199</ele>
        <time>2009-05-31T07:49:45Z</time>
      </trkpt>
      <trkpt lat="43.94084" lon="7.23841">
        <ele>1299.8398438</ele>
        <time>2009-05-31T07:49:48Z</time>
      </trkpt>
      <trkpt lat="43.94077" lon="7.23859">
        <ele>1298.3977051</ele>
        <time>2009-05-31T07:49:51Z</time>
      </trkpt>
      <trkpt lat="43.94077" lon="7.23867">
        <ele>1297.9172363</ele>
        <time>2009-05-31T07:49:52Z</time>
      </trkpt>
      <trkpt lat="43.94076" lon="7.23899">
        <ele>1292.1494141</ele>
        <time>2009-05-31T07:49:56Z</time>
      </trkpt>
      <trkpt lat="43.94068" lon="7.23916">
        <ele>1290.7070312</ele>
        <time>2009-05-31T07:49:59Z</time>
      </trkpt>
      <trkpt lat="43.94053" lon="7.2393">
        <ele>1287.8232422</ele>
        <time>2009-05-31T07:50:02Z</time>
      </trkpt>
      <trkpt lat="43.94027" lon="7.23951">
        <ele>1284.4587402</ele>
        <time>2009-05-31T07:50:07Z</time>
      </trkpt>
      <trkpt lat="43.94009" lon="7.23947">
        <ele>1280.6135254</ele>
        <time>2009-05-31T07:50:10Z</time>
      </trkpt>
      <trkpt lat="43.9399" lon="7.23945">
        <ele>1278.2102051</ele>
        <time>2009-05-31T07:50:13Z</time>
      </trkpt>
      <trkpt lat="43.93966" lon="7.23957">
        <ele>1276.2875977</ele>
        <time>2009-05-31T07:50:18Z</time>
      </trkpt>
      <trkpt lat="43.93947" lon="7.23965">
        <ele>1275.3259277</ele>
        <time>2009-05-31T07:50:22Z</time>
      </trkpt>
      <trkpt lat="43.93943" lon="7.23967">
        <ele>1274.845459</ele>
        <time>2009-05-31T07:50:23Z</time>
      </trkpt>
      <trkpt lat="43.93921" lon="7.23976">
        <ele>1274.3647461</ele>
        <time>2009-05-31T07:50:27Z</time>
      </trkpt>
      <trkpt lat="43.93907" lon="7.23986">
        <ele>1274.845459</ele>
        <time>2009-05-31T07:50:30Z</time>
      </trkpt>
      <trkpt lat="43.93889" lon="7.23993">
        <ele>1273.8840332</ele>
        <time>2009-05-31T07:50:34Z</time>
      </trkpt>
      <trkpt lat="43.93871" lon="7.23992">
        <ele>1273.8840332</ele>
        <time>2009-05-31T07:50:38Z</time>
      </trkpt>
      <trkpt lat="43.93854" lon="7.23977">
        <ele>1271.9614258</ele>
        <time>2009-05-31T07:50:42Z</time>
      </trkpt>
      <trkpt lat="43.93846" lon="7.23978">
        <ele>1270.5195312</ele>
        <time>2009-05-31T07:50:44Z</time>
      </trkpt>
      <trkpt lat="43.93843" lon="7.23982">
        <ele>1270.0388184</ele>
        <time>2009-05-31T07:50:45Z</time>
      </trkpt>
      <trkpt lat="43.93834" lon="7.23986">
        <ele>1269.0776367</ele>
        <time>2009-05-31T07:50:47Z</time>
      </trkpt>
      <trkpt lat="43.93816" lon="7.23975">
        <ele>1266.6743164</ele>
        <time>2009-05-31T07:50:51Z</time>
      </trkpt>
      <trkpt lat="43.93807" lon="7.23976">
        <ele>1265.7131348</ele>
        <time>2009-05-31T07:50:53Z</time>
      </trkpt>
      <trkpt lat="43.93796" lon="7.23991">
        <ele>1262.8291016</ele>
        <time>2009-05-31T07:50:56Z</time>
      </trkpt>
      <trkpt lat="43.93791" lon="7.24017">
        <ele>1260.9064941</ele>
        <time>2009-05-31T07:51:00Z</time>
      </trkpt>
      <trkpt lat="43.93785" lon="7.24044">
        <ele>1258.9836426</ele>
        <time>2009-05-31T07:51:04Z</time>
      </trkpt>
      <trkpt lat="43.93786" lon="7.2406">
        <ele>1255.6191406</ele>
        <time>2009-05-31T07:51:07Z</time>
      </trkpt>
      <trkpt lat="43.93796" lon="7.24082">
        <ele>1253.6965332</ele>
        <time>2009-05-31T07:51:11Z</time>
      </trkpt>
      <trkpt lat="43.93798" lon="7.24124">
        <ele>1251.7739258</ele>
        <time>2009-05-31T07:51:17Z</time>
      </trkpt>
      <trkpt lat="43.93798" lon="7.24148">
        <ele>1248.8898926</ele>
        <time>2009-05-31T07:51:21Z</time>
      </trkpt>
      <trkpt lat="43.93786" lon="7.24167">
        <ele>1246.4868164</ele>
        <time>2009-05-31T07:51:25Z</time>
      </trkpt>
      <trkpt lat="43.93781" lon="7.24185">
        <ele>1246.4868164</ele>
        <time>2009-05-31T07:51:28Z</time>
      </trkpt>
      <trkpt lat="43.93777" lon="7.24203">
        <ele>1244.0834961</ele>
        <time>2009-05-31T07:51:31Z</time>
      </trkpt>
      <trkpt lat="43.93759" lon="7.24228">
        <ele>1241.1992188</ele>
        <time>2009-05-31T07:51:36Z</time>
      </trkpt>
      <trkpt lat="43.9374" lon="7.24236">
        <ele>1238.3154297</ele>
        <time>2009-05-31T07:51:40Z</time>
      </trkpt>
      <trkpt lat="43.93721" lon="7.24241">
        <ele>1236.873291</ele>
        <time>2009-05-31T07:51:44Z</time>
      </trkpt>
      <trkpt lat="43.93716" lon="7.24246">
        <ele>1237.3540039</ele>
        <time>2009-05-31T07:51:45Z</time>
      </trkpt>
      <trkpt lat="43.93708" lon="7.24265">
        <ele>1236.873291</ele>
        <time>2009-05-31T07:51:48Z</time>
      </trkpt>
      <trkpt lat="43.93692" lon="7.24283">
        <ele>1236.3928223</ele>
        <time>2009-05-31T07:51:52Z</time>
      </trkpt>
      <trkpt lat="43.93671" lon="7.24303">
        <ele>1233.0280762</ele>
        <time>2009-05-31T07:51:57Z</time>
      </trkpt>
      <trkpt lat="43.93657" lon="7.24321">
        <ele>1232.0668945</ele>
        <time>2009-05-31T07:52:01Z</time>
      </trkpt>
      <trkpt lat="43.93646" lon="7.24325">
        <ele>1231.1057129</ele>
        <time>2009-05-31T07:52:03Z</time>
      </trkpt>
      <trkpt lat="43.93618" lon="7.24335">
        <ele>1229.6635742</ele>
        <time>2009-05-31T07:52:09Z</time>
      </trkpt>
      <trkpt lat="43.93599" lon="7.24331">
        <ele>1227.7407227</ele>
        <time>2009-05-31T07:52:13Z</time>
      </trkpt>
      <trkpt lat="43.93585" lon="7.24328">
        <ele>1226.779541</ele>
        <time>2009-05-31T07:52:16Z</time>
      </trkpt>
      <trkpt lat="43.93578" lon="7.24336">
        <ele>1226.2988281</ele>
        <time>2009-05-31T07:52:18Z</time>
      </trkpt>
      <trkpt lat="43.93558" lon="7.24351">
        <ele>1226.2988281</ele>
        <time>2009-05-31T07:52:23Z</time>
      </trkpt>
      <trkpt lat="43.93538" lon="7.24346">
        <ele>1226.2988281</ele>
        <time>2009-05-31T07:52:27Z</time>
      </trkpt>
      <trkpt lat="43.9352" lon="7.24345">
        <ele>1226.2988281</ele>
        <time>2009-05-31T07:52:31Z</time>
      </trkpt>
      <trkpt lat="43.93497" lon="7.24337">
        <ele>1226.2988281</ele>
        <time>2009-05-31T07:52:35Z</time>
      </trkpt>
      <trkpt lat="43.93466" lon="7.24316">
        <ele>1225.3374023</ele>
        <time>2009-05-31T07:52:40Z</time>
      </trkpt>
      <trkpt lat="43.93455" lon="7.24309">
        <ele>1225.3374023</ele>
        <time>2009-05-31T07:52:42Z</time>
      </trkpt>
      <trkpt lat="43.93444" lon="7.24302">
        <ele>1224.3762207</ele>
        <time>2009-05-31T07:52:44Z</time>
      </trkpt>
      <trkpt lat="43.93423" lon="7.24303">
        <ele>1223.4150391</ele>
        <time>2009-05-31T07:52:48Z</time>
      </trkpt>
      <trkpt lat="43.93411" lon="7.24317">
        <ele>1222.4536133</ele>
        <time>2009-05-31T07:52:51Z</time>
      </trkpt>
      <trkpt lat="43.93388" lon="7.24331">
        <ele>1218.6083984</ele>
        <time>2009-05-31T07:52:55Z</time>
      </trkpt>
      <trkpt lat="43.93382" lon="7.24336">
        <ele>1218.1276855</ele>
        <time>2009-05-31T07:52:56Z</time>
      </trkpt>
      <trkpt lat="43.93372" lon="7.24345">
        <ele>1216.685791</ele>
        <time>2009-05-31T07:52:58Z</time>
      </trkpt>
      <trkpt lat="43.9336" lon="7.24356">
        <ele>1215.2438965</ele>
        <time>2009-05-31T07:53:01Z</time>
      </trkpt>
      <trkpt lat="43.93349" lon="7.24366">
        <ele>1211.8791504</ele>
        <time>2009-05-31T07:53:04Z</time>
      </trkpt>
      <trkpt lat="43.93342" lon="7.24369">
        <ele>1210.4370117</ele>
        <time>2009-05-31T07:53:06Z</time>
      </trkpt>
      <trkpt lat="43.93328" lon="7.24368">
        <ele>1208.0339355</ele>
        <time>2009-05-31T07:53:11Z</time>
      </trkpt>
      <trkpt lat="43.93325" lon="7.2437">
        <ele>1207.0725098</ele>
        <time>2009-05-31T07:53:12Z</time>
      </trkpt>
      <trkpt lat="43.93308" lon="7.24384">
        <ele>1202.746582</ele>
        <time>2009-05-31T07:53:17Z</time>
      </trkpt>
      <trkpt lat="43.93295" lon="7.24388">
        <ele>1199.3820801</ele>
        <time>2009-05-31T07:53:21Z</time>
      </trkpt>
      <trkpt lat="43.9328" lon="7.24392">
        <ele>1195.0559082</ele>
        <time>2009-05-31T07:53:25Z</time>
      </trkpt>
      <trkpt lat="43.93276" lon="7.24395">
        <ele>1194.5751953</ele>
        <time>2009-05-31T07:53:26Z</time>
      </trkpt>
      <trkpt lat="43.93273" lon="7.24396">
        <ele>1193.1333008</ele>
        <time>2009-05-31T07:53:27Z</time>
      </trkpt>
      <trkpt lat="43.93268" lon="7.24404">
        <ele>1191.6914062</ele>
        <time>2009-05-31T07:53:29Z</time>
      </trkpt>
      <trkpt lat="43.9326" lon="7.2441">
        <ele>1188.3269043</ele>
        <time>2009-05-31T07:53:31Z</time>
      </trkpt>
      <trkpt lat="43.93248" lon="7.24421">
        <ele>1184.0009766</ele>
        <time>2009-05-31T07:53:35Z</time>
      </trkpt>
      <trkpt lat="43.93242" lon="7.24428">
        <ele>1182.0783691</ele>
        <time>2009-05-31T07:53:38Z</time>
      </trkpt>
      <trkpt lat="43.93238" lon="7.24432">
        <ele>1180.1557617</ele>
        <time>2009-05-31T07:53:40Z</time>
      </trkpt>
      <trkpt lat="43.93226" lon="7.24441">
        <ele>1177.7521973</ele>
        <time>2009-05-31T07:53:43Z</time>
      </trkpt>
      <trkpt lat="43.93221" lon="7.24444">
        <ele>1177.7521973</ele>
        <time>2009-05-31T07:53:44Z</time>
      </trkpt>
      <trkpt lat="43.93204" lon="7.24463">
        <ele>1172.9458008</ele>
        <time>2009-05-31T07:53:49Z</time>
      </trkpt>
      <trkpt lat="43.93198" lon="7.24475">
        <ele>1170.0617676</ele>
        <time>2009-05-31T07:53:51Z</time>
      </trkpt>
      <trkpt lat="43.9319" lon="7.24489">
        <ele>1168.1391602</ele>
        <time>2009-05-31T07:53:53Z</time>
      </trkpt>
      <trkpt lat="43.93181" lon="7.24505">
        <ele>1164.2939453</ele>
        <time>2009-05-31T07:53:57Z</time>
      </trkpt>
      <trkpt lat="43.9318" lon="7.24508">
        <ele>1163.3325195</ele>
        <time>2009-05-31T07:53:58Z</time>
      </trkpt>
      <trkpt lat="43.93169" lon="7.24524">
        <ele>1161.4099121</ele>
        <time>2009-05-31T07:54:02Z</time>
      </trkpt>
      <trkpt lat="43.93158" lon="7.24533">
        <ele>1159.4873047</ele>
        <time>2009-05-31T07:54:05Z</time>
      </trkpt>
      <trkpt lat="43.93151" lon="7.24539">
        <ele>1158.0454102</ele>
        <time>2009-05-31T07:54:07Z</time>
      </trkpt>
      <trkpt lat="43.93138" lon="7.24539">
        <ele>1152.7580566</ele>
        <time>2009-05-31T07:54:11Z</time>
      </trkpt>
      <trkpt lat="43.93127" lon="7.24529">
        <ele>1151.796875</ele>
        <time>2009-05-31T07:54:15Z</time>
      </trkpt>
      <trkpt lat="43.9312" lon="7.24523">
        <ele>1149.8742676</ele>
        <time>2009-05-31T07:54:17Z</time>
      </trkpt>
      <trkpt lat="43.93112" lon="7.2452">
        <ele>1146.0288086</ele>
        <time>2009-05-31T07:54:19Z</time>
      </trkpt>
      <trkpt lat="43.93109" lon="7.2452">
        <ele>1146.0288086</ele>
        <time>2009-05-31T07:54:20Z</time>
      </trkpt>
      <trkpt lat="43.93105" lon="7.2452">
        <ele>1145.5480957</ele>
        <time>2009-05-31T07:54:21Z</time>
      </trkpt>
      <trkpt lat="43.93095" lon="7.24522">
        <ele>1144.5866699</ele>
        <time>2009-05-31T07:54:23Z</time>
      </trkpt>
      <trkpt lat="43.9309" lon="7.24524">
        <ele>1143.6254883</ele>
        <time>2009-05-31T07:54:24Z</time>
      </trkpt>
      <trkpt lat="43.93073" lon="7.24527">
        <ele>1143.1447754</ele>
        <time>2009-05-31T07:54:28Z</time>
      </trkpt>
      <trkpt lat="43.93062" lon="7.24515">
        <ele>1142.1835938</ele>
        <time>2009-05-31T07:54:32Z</time>
      </trkpt>
      <trkpt lat="43.93047" lon="7.245">
        <ele>1139.2995605</ele>
        <time>2009-05-31T07:54:36Z</time>
      </trkpt>
      <trkpt lat="43.93033" lon="7.24494">
        <ele>1136.4157715</ele>
        <time>2009-05-31T07:54:39Z</time>
      </trkpt>
      <trkpt lat="43.93029" lon="7.24492">
        <ele>1136.4157715</ele>
        <time>2009-05-31T07:54:40Z</time>
      </trkpt>
      <trkpt lat="43.93017" lon="7.24499">
        <ele>1131.128418</ele>
        <time>2009-05-31T07:54:43Z</time>
      </trkpt>
      <trkpt lat="43.93013" lon="7.24502">
        <ele>1131.6088867</ele>
        <time>2009-05-31T07:54:44Z</time>
      </trkpt>
      <trkpt lat="43.93009" lon="7.24505">
        <ele>1131.6088867</ele>
        <time>2009-05-31T07:54:45Z</time>
      </trkpt>
      <trkpt lat="43.93002" lon="7.24509">
        <ele>1129.2055664</ele>
        <time>2009-05-31T07:54:47Z</time>
      </trkpt>
      <trkpt lat="43.92993" lon="7.2451">
        <ele>1127.2832031</ele>
        <time>2009-05-31T07:54:50Z</time>
      </trkpt>
      <trkpt lat="43.92988" lon="7.24504">
        <ele>1125.8410645</ele>
        <time>2009-05-31T07:54:53Z</time>
      </trkpt>
      <trkpt lat="43.92976" lon="7.245">
        <ele>1122.4765625</ele>
        <time>2009-05-31T07:54:56Z</time>
      </trkpt>
      <trkpt lat="43.92971" lon="7.24499">
        <ele>1121.9958496</ele>
        <time>2009-05-31T07:54:57Z</time>
      </trkpt>
      <trkpt lat="43.92964" lon="7.24498">
        <ele>1121.034668</ele>
        <time>2009-05-31T07:54:59Z</time>
      </trkpt>
      <trkpt lat="43.92957" lon="7.24496">
        <ele>1120.0732422</ele>
        <time>2009-05-31T07:55:01Z</time>
      </trkpt>
      <trkpt lat="43.92946" lon="7.24488">
        <ele>1118.6313477</ele>
        <time>2009-05-31T07:55:04Z</time>
      </trkpt>
      <trkpt lat="43.92934" lon="7.24492">
        <ele>1116.7087402</ele>
        <time>2009-05-31T07:55:07Z</time>
      </trkpt>
      <trkpt lat="43.92929" lon="7.24497">
        <ele>1116.7087402</ele>
        <time>2009-05-31T07:55:08Z</time>
      </trkpt>
      <trkpt lat="43.92919" lon="7.24502">
        <ele>1114.7858887</ele>
        <time>2009-05-31T07:55:12Z</time>
      </trkpt>
      <trkpt lat="43.92916" lon="7.24501">
        <ele>1114.3051758</ele>
        <time>2009-05-31T07:55:13Z</time>
      </trkpt>
      <trkpt lat="43.92893" lon="7.24498">
        <ele>1113.3439941</ele>
        <time>2009-05-31T07:55:19Z</time>
      </trkpt>
      <trkpt lat="43.92885" lon="7.2451">
        <ele>1111.9020996</ele>
        <time>2009-05-31T07:55:22Z</time>
      </trkpt>
      <trkpt lat="43.9287" lon="7.24516">
        <ele>1110.9406738</ele>
        <time>2009-05-31T07:55:26Z</time>
      </trkpt>
      <trkpt lat="43.92857" lon="7.24527">
        <ele>1109.979248</ele>
        <time>2009-05-31T07:55:30Z</time>
      </trkpt>
      <trkpt lat="43.9285" lon="7.24533">
        <ele>1108.5373535</ele>
        <time>2009-05-31T07:55:32Z</time>
      </trkpt>
      <trkpt lat="43.9284" lon="7.24526">
        <ele>1105.1728516</ele>
        <time>2009-05-31T07:55:37Z</time>
      </trkpt>
      <trkpt lat="43.92832" lon="7.24513">
        <ele>1103.730957</ele>
        <time>2009-05-31T07:55:41Z</time>
      </trkpt>
      <trkpt lat="43.92814" lon="7.24516">
        <ele>1101.3276367</ele>
        <time>2009-05-31T07:55:45Z</time>
      </trkpt>
      <trkpt lat="43.92808" lon="7.24519">
        <ele>1100.8469238</ele>
        <time>2009-05-31T07:55:46Z</time>
      </trkpt>
      <trkpt lat="43.92783" lon="7.24531">
        <ele>1098.9240723</ele>
        <time>2009-05-31T07:55:52Z</time>
      </trkpt>
      <trkpt lat="43.92764" lon="7.24532">
        <ele>1097.0014648</ele>
        <time>2009-05-31T07:55:57Z</time>
      </trkpt>
      <trkpt lat="43.9276" lon="7.24533">
        <ele>1096.5209961</ele>
        <time>2009-05-31T07:56:01Z</time>
      </trkpt>
      <trkpt lat="43.92755" lon="7.24535">
        <ele>1095.5595703</ele>
        <time>2009-05-31T07:56:04Z</time>
      </trkpt>
      <trkpt lat="43.92754" lon="7.2454">
        <ele>1094.5981445</ele>
        <time>2009-05-31T07:56:09Z</time>
      </trkpt>
      <trkpt lat="43.92753" lon="7.2454">
        <ele>1094.1176758</ele>
        <time>2009-05-31T07:56:13Z</time>
      </trkpt>
      <trkpt lat="43.9275" lon="7.24538">
        <ele>1093.6369629</ele>
        <time>2009-05-31T07:56:15Z</time>
      </trkpt>
      <trkpt lat="43.92744" lon="7.24521">
        <ele>1090.7529297</ele>
        <time>2009-05-31T07:56:20Z</time>
      </trkpt>
      <trkpt lat="43.92736" lon="7.24505">
        <ele>1087.3884277</ele>
        <time>2009-05-31T07:56:24Z</time>
      </trkpt>
      <trkpt lat="43.92733" lon="7.245">
        <ele>1086.9077148</ele>
        <time>2009-05-31T07:56:25Z</time>
      </trkpt>
      <trkpt lat="43.92728" lon="7.24489">
        <ele>1086.9077148</ele>
        <time>2009-05-31T07:56:27Z</time>
      </trkpt>
      <trkpt lat="43.92724" lon="7.24471">
        <ele>1089.3110352</ele>
        <time>2009-05-31T07:56:32Z</time>
      </trkpt>
      <trkpt lat="43.92722" lon="7.24464">
        <ele>1090.2724609</ele>
        <time>2009-05-31T07:56:36Z</time>
      </trkpt>
      <trkpt lat="43.92711" lon="7.24464">
        <ele>1088.8305664</ele>
        <time>2009-05-31T07:56:43Z</time>
      </trkpt>
      <trkpt lat="43.927" lon="7.24464">
        <ele>1089.791748</ele>
        <time>2009-05-31T07:56:49Z</time>
      </trkpt>
      <trkpt lat="43.92693" lon="7.24463">
        <ele>1091.2336426</ele>
        <time>2009-05-31T07:56:56Z</time>
      </trkpt>
      <trkpt lat="43.92691" lon="7.24462">
        <ele>1092.6757812</ele>
        <time>2009-05-31T07:56:59Z</time>
      </trkpt>
      <trkpt lat="43.9269" lon="7.24462">
        <ele>1093.15625</ele>
        <time>2009-05-31T07:57:00Z</time>
      </trkpt>
      <trkpt lat="43.92684" lon="7.24458">
        <ele>1094.5981445</ele>
        <time>2009-05-31T07:57:07Z</time>
      </trkpt>
      <trkpt lat="43.92683" lon="7.24457">
        <ele>1094.1176758</ele>
        <time>2009-05-31T07:57:08Z</time>
      </trkpt>
      <trkpt lat="43.92671" lon="7.24443">
        <ele>1092.1950684</ele>
        <time>2009-05-31T07:57:14Z</time>
      </trkpt>
      <trkpt lat="43.92661" lon="7.24446">
        <ele>1092.6757812</ele>
        <time>2009-05-31T07:57:17Z</time>
      </trkpt>
      <trkpt lat="43.9264" lon="7.24453">
        <ele>1090.2724609</ele>
        <time>2009-05-31T07:57:21Z</time>
      </trkpt>
      <trkpt lat="43.92627" lon="7.24456">
        <ele>1090.2724609</ele>
        <time>2009-05-31T07:57:24Z</time>
      </trkpt>
      <trkpt lat="43.92623" lon="7.24456">
        <ele>1090.2724609</ele>
        <time>2009-05-31T07:57:25Z</time>
      </trkpt>
      <trkpt lat="43.92611" lon="7.24465">
        <ele>1088.8305664</ele>
        <time>2009-05-31T07:57:29Z</time>
      </trkpt>
      <trkpt lat="43.92608" lon="7.24466">
        <ele>1086.9077148</ele>
        <time>2009-05-31T07:57:30Z</time>
      </trkpt>
      <trkpt lat="43.92598" lon="7.24457">
        <ele>1081.6203613</ele>
        <time>2009-05-31T07:57:35Z</time>
      </trkpt>
      <trkpt lat="43.92592" lon="7.24447">
        <ele>1078.7365723</ele>
        <time>2009-05-31T07:57:38Z</time>
      </trkpt>
      <trkpt lat="43.92589" lon="7.2444">
        <ele>1076.8139648</ele>
        <time>2009-05-31T07:57:40Z</time>
      </trkpt>
      <trkpt lat="43.92586" lon="7.24423">
        <ele>1074.8913574</ele>
        <time>2009-05-31T07:57:44Z</time>
      </trkpt>
      <trkpt lat="43.92579" lon="7.24409">
        <ele>1071.0461426</ele>
        <time>2009-05-31T07:57:49Z</time>
      </trkpt>
      <trkpt lat="43.92576" lon="7.24402">
        <ele>1068.1621094</ele>
        <time>2009-05-31T07:57:52Z</time>
      </trkpt>
      <trkpt lat="43.92567" lon="7.24402">
        <ele>1064.3166504</ele>
        <time>2009-05-31T07:57:58Z</time>
      </trkpt>
      <trkpt lat="43.92565" lon="7.24403">
        <ele>1064.3166504</ele>
        <time>2009-05-31T07:57:59Z</time>
      </trkpt>
      <trkpt lat="43.92563" lon="7.24404">
        <ele>1063.8359375</ele>
        <time>2009-05-31T07:58:00Z</time>
      </trkpt>
      <trkpt lat="43.92548" lon="7.24406">
        <ele>1057.5876465</ele>
        <time>2009-05-31T07:58:05Z</time>
      </trkpt>
      <trkpt lat="43.92538" lon="7.2441">
        <ele>1053.7424316</ele>
        <time>2009-05-31T07:58:09Z</time>
      </trkpt>
      <trkpt lat="43.92536" lon="7.2441">
        <ele>1053.7424316</ele>
        <time>2009-05-31T07:58:10Z</time>
      </trkpt>
      <trkpt lat="43.92534" lon="7.24412">
        <ele>1053.2617188</ele>
        <time>2009-05-31T07:58:14Z</time>
      </trkpt>
      <trkpt lat="43.92539" lon="7.2442">
        <ele>1049.8969727</ele>
        <time>2009-05-31T07:58:20Z</time>
      </trkpt>
      <trkpt lat="43.92546" lon="7.24431">
        <ele>1047.4936523</ele>
        <time>2009-05-31T07:58:25Z</time>
      </trkpt>
      <trkpt lat="43.92545" lon="7.24434">
        <ele>1047.0129395</ele>
        <time>2009-05-31T07:58:28Z</time>
      </trkpt>
      <trkpt lat="43.92541" lon="7.24434">
        <ele>1045.5710449</ele>
        <time>2009-05-31T07:58:33Z</time>
      </trkpt>
      <trkpt lat="43.92535" lon="7.24435">
        <ele>1044.1291504</ele>
        <time>2009-05-31T07:58:36Z</time>
      </trkpt>
      <trkpt lat="43.92529" lon="7.24437">
        <ele>1041.7258301</ele>
        <time>2009-05-31T07:58:38Z</time>
      </trkpt>
      <trkpt lat="43.92512" lon="7.24447">
        <ele>1036.4387207</ele>
        <time>2009-05-31T07:58:42Z</time>
      </trkpt>
      <trkpt lat="43.92498" lon="7.24458">
        <ele>1029.7092285</ele>
        <time>2009-05-31T07:58:45Z</time>
      </trkpt>
      <trkpt lat="43.92486" lon="7.24466">
        <ele>1028.267334</ele>
        <time>2009-05-31T07:58:48Z</time>
      </trkpt>
      <trkpt lat="43.92476" lon="7.24478">
        <ele>1024.4221191</ele>
        <time>2009-05-31T07:58:53Z</time>
      </trkpt>
      <trkpt lat="43.92478" lon="7.24479">
        <ele>1023.9414062</ele>
        <time>2009-05-31T07:58:55Z</time>
      </trkpt>
      <trkpt lat="43.92482" lon="7.24478">
        <ele>1022.4995117</ele>
        <time>2009-05-31T07:58:58Z</time>
      </trkpt>
      <trkpt lat="43.92485" lon="7.24479">
        <ele>1022.4995117</ele>
        <time>2009-05-31T07:59:03Z</time>
      </trkpt>
      <trkpt lat="43.92484" lon="7.24481">
        <ele>1021.0576172</ele>
        <time>2009-05-31T07:59:05Z</time>
      </trkpt>
      <trkpt lat="43.92479" lon="7.24491">
        <ele>1017.692627</ele>
        <time>2009-05-31T07:59:09Z</time>
      </trkpt>
      <trkpt lat="43.92466" lon="7.24498">
        <ele>1013.8474121</ele>
        <time>2009-05-31T07:59:13Z</time>
      </trkpt>
      <trkpt lat="43.92462" lon="7.245">
        <ele>1013.3669434</ele>
        <time>2009-05-31T07:59:14Z</time>
      </trkpt>
      <trkpt lat="43.92446" lon="7.24511">
        <ele>1009.5217285</ele>
        <time>2009-05-31T07:59:20Z</time>
      </trkpt>
      <trkpt lat="43.92454" lon="7.24513">
        <ele>1006.6376953</ele>
        <time>2009-05-31T07:59:24Z</time>
      </trkpt>
      <trkpt lat="43.92454" lon="7.24516">
        <ele>1005.1958008</ele>
        <time>2009-05-31T07:59:26Z</time>
      </trkpt>
      <trkpt lat="43.92447" lon="7.24524">
        <ele>1001.8310547</ele>
        <time>2009-05-31T07:59:32Z</time>
      </trkpt>
      <trkpt lat="43.92442" lon="7.24538">
        <ele>997.0244141</ele>
        <time>2009-05-31T07:59:37Z</time>
      </trkpt>
      <trkpt lat="43.92435" lon="7.24554">
        <ele>993.1791992</ele>
        <time>2009-05-31T07:59:41Z</time>
      </trkpt>
      <trkpt lat="43.92434" lon="7.24557">
        <ele>993.1791992</ele>
        <time>2009-05-31T07:59:42Z</time>
      </trkpt>
      <trkpt lat="43.92428" lon="7.24565">
        <ele>992.6987305</ele>
        <time>2009-05-31T07:59:44Z</time>
      </trkpt>
      <trkpt lat="43.92422" lon="7.24573">
        <ele>990.7758789</ele>
        <time>2009-05-31T07:59:46Z</time>
      </trkpt>
      <trkpt lat="43.92413" lon="7.24578">
        <ele>989.3339844</ele>
        <time>2009-05-31T07:59:48Z</time>
      </trkpt>
      <trkpt lat="43.92405" lon="7.24574">
        <ele>988.8535156</ele>
        <time>2009-05-31T07:59:51Z</time>
      </trkpt>
      <trkpt lat="43.92402" lon="7.24569">
        <ele>988.3728027</ele>
        <time>2009-05-31T07:59:53Z</time>
      </trkpt>
      <trkpt lat="43.92398" lon="7.24565">
        <ele>989.8146973</ele>
        <time>2009-05-31T07:59:55Z</time>
      </trkpt>
      <trkpt lat="43.92396" lon="7.24563">
        <ele>989.8146973</ele>
        <time>2009-05-31T07:59:56Z</time>
      </trkpt>
      <trkpt lat="43.92387" lon="7.24563">
        <ele>990.7758789</ele>
        <time>2009-05-31T08:00:00Z</time>
      </trkpt>
      <trkpt lat="43.92376" lon="7.24559">
        <ele>990.2954102</ele>
        <time>2009-05-31T08:00:05Z</time>
      </trkpt>
      <trkpt lat="43.92371" lon="7.24551">
        <ele>990.2954102</ele>
        <time>2009-05-31T08:00:07Z</time>
      </trkpt>
      <trkpt lat="43.92359" lon="7.24529">
        <ele>988.8535156</ele>
        <time>2009-05-31T08:00:11Z</time>
      </trkpt>
      <trkpt lat="43.92356" lon="7.24525">
        <ele>987.4111328</ele>
        <time>2009-05-31T08:00:12Z</time>
      </trkpt>
      <trkpt lat="43.92349" lon="7.24514">
        <ele>984.0466309</ele>
        <time>2009-05-31T08:00:15Z</time>
      </trkpt>
      <trkpt lat="43.92348" lon="7.24504">
        <ele>980.201416</ele>
        <time>2009-05-31T08:00:19Z</time>
      </trkpt>
      <trkpt lat="43.92348" lon="7.24504">
        <ele>980.201416</ele>
        <time>2009-05-31T08:00:20Z</time>
      </trkpt>
      <trkpt lat="43.92348" lon="7.24504">
        <ele>980.201416</ele>
        <time>2009-05-31T08:00:25Z</time>
      </trkpt>
      <trkpt lat="43.92348" lon="7.24504">
        <ele>979.7207031</ele>
        <time>2009-05-31T08:00:26Z</time>
      </trkpt>
      <trkpt lat="43.92347" lon="7.24506">
        <ele>979.7207031</ele>
        <time>2009-05-31T08:00:28Z</time>
      </trkpt>
      <trkpt lat="43.92346" lon="7.24506">
        <ele>978.7595215</ele>
        <time>2009-05-31T08:00:30Z</time>
      </trkpt>
      <trkpt lat="43.92345" lon="7.24504">
        <ele>978.2788086</ele>
        <time>2009-05-31T08:00:32Z</time>
      </trkpt>
      <trkpt lat="43.92344" lon="7.245">
        <ele>977.317627</ele>
        <time>2009-05-31T08:00:37Z</time>
      </trkpt>
      <trkpt lat="43.92339" lon="7.24489">
        <ele>973.9528809</ele>
        <time>2009-05-31T08:00:42Z</time>
      </trkpt>
      <trkpt lat="43.92337" lon="7.24485">
        <ele>972.5109863</ele>
        <time>2009-05-31T08:00:43Z</time>
      </trkpt>
      <trkpt lat="43.92334" lon="7.24487">
        <ele>971.0688477</ele>
        <time>2009-05-31T08:00:47Z</time>
      </trkpt>
      <trkpt lat="43.92333" lon="7.24492">
        <ele>969.1462402</ele>
        <time>2009-05-31T08:00:51Z</time>
      </trkpt>
      <trkpt lat="43.9233" lon="7.24489">
        <ele>968.6655273</ele>
        <time>2009-05-31T08:00:53Z</time>
      </trkpt>
      <trkpt lat="43.92328" lon="7.24484">
        <ele>967.2236328</ele>
        <time>2009-05-31T08:00:55Z</time>
      </trkpt>
      <trkpt lat="43.92324" lon="7.24478">
        <ele>965.7817383</ele>
        <time>2009-05-31T08:00:58Z</time>
      </trkpt>
      <trkpt lat="43.92323" lon="7.24477">
        <ele>965.3010254</ele>
        <time>2009-05-31T08:01:02Z</time>
      </trkpt>
      <trkpt lat="43.92323" lon="7.24476">
        <ele>965.3010254</ele>
        <time>2009-05-31T08:01:03Z</time>
      </trkpt>
      <trkpt lat="43.92322" lon="7.24474">
        <ele>964.8203125</ele>
        <time>2009-05-31T08:01:05Z</time>
      </trkpt>
      <trkpt lat="43.9232" lon="7.2447">
        <ele>963.378418</ele>
        <time>2009-05-31T08:01:08Z</time>
      </trkpt>
      <trkpt lat="43.92317" lon="7.24467">
        <ele>961.9365234</ele>
        <time>2009-05-31T08:01:13Z</time>
      </trkpt>
      <trkpt lat="43.92316" lon="7.24467">
        <ele>961.4558105</ele>
        <time>2009-05-31T08:01:15Z</time>
      </trkpt>
      <trkpt lat="43.92315" lon="7.24464">
        <ele>960.4943848</ele>
        <time>2009-05-31T08:01:17Z</time>
      </trkpt>
      <trkpt lat="43.92314" lon="7.24453">
        <ele>956.6491699</ele>
        <time>2009-05-31T08:01:20Z</time>
      </trkpt>
      <trkpt lat="43.92313" lon="7.2445">
        <ele>957.1298828</ele>
        <time>2009-05-31T08:01:21Z</time>
      </trkpt>
      <trkpt lat="43.92308" lon="7.24439">
        <ele>955.2070312</ele>
        <time>2009-05-31T08:01:25Z</time>
      </trkpt>
      <trkpt lat="43.9231" lon="7.24426">
        <ele>954.2458496</ele>
        <time>2009-05-31T08:01:28Z</time>
      </trkpt>
      <trkpt lat="43.92314" lon="7.244">
        <ele>952.322998</ele>
        <time>2009-05-31T08:01:34Z</time>
      </trkpt>
      <trkpt lat="43.92313" lon="7.24398">
        <ele>952.322998</ele>
        <time>2009-05-31T08:01:38Z</time>
      </trkpt>
      <trkpt lat="43.92312" lon="7.24396">
        <ele>950.8811035</ele>
        <time>2009-05-31T08:01:40Z</time>
      </trkpt>
      <trkpt lat="43.92304" lon="7.24387">
        <ele>949.439209</ele>
        <time>2009-05-31T08:01:47Z</time>
      </trkpt>
      <trkpt lat="43.92295" lon="7.24389">
        <ele>947.9973145</ele>
        <time>2009-05-31T08:01:53Z</time>
      </trkpt>
      <trkpt lat="43.9229" lon="7.24391">
        <ele>946.074707</ele>
        <time>2009-05-31T08:01:57Z</time>
      </trkpt>
      <trkpt lat="43.92286" lon="7.24391">
        <ele>944.1520996</ele>
        <time>2009-05-31T08:02:00Z</time>
      </trkpt>
      <trkpt lat="43.92281" lon="7.24392">
        <ele>942.7102051</ele>
        <time>2009-05-31T08:02:03Z</time>
      </trkpt>
      <trkpt lat="43.92275" lon="7.24387">
        <ele>940.7873535</ele>
        <time>2009-05-31T08:02:08Z</time>
      </trkpt>
      <trkpt lat="43.92269" lon="7.24385">
        <ele>939.3452148</ele>
        <time>2009-05-31T08:02:10Z</time>
      </trkpt>
      <trkpt lat="43.92267" lon="7.24387">
        <ele>936.9418945</ele>
        <time>2009-05-31T08:02:13Z</time>
      </trkpt>
      <trkpt lat="43.92265" lon="7.24389">
        <ele>934.5388184</ele>
        <time>2009-05-31T08:02:16Z</time>
      </trkpt>
      <trkpt lat="43.92256" lon="7.24385">
        <ele>932.6162109</ele>
        <time>2009-05-31T08:02:20Z</time>
      </trkpt>
      <trkpt lat="43.92252" lon="7.24373">
        <ele>931.1743164</ele>
        <time>2009-05-31T08:02:23Z</time>
      </trkpt>
      <trkpt lat="43.9225" lon="7.24368">
        <ele>931.6547852</ele>
        <time>2009-05-31T08:02:24Z</time>
      </trkpt>
      <trkpt lat="43.92238" lon="7.24365">
        <ele>929.2514648</ele>
        <time>2009-05-31T08:02:27Z</time>
      </trkpt>
      <trkpt lat="43.92223" lon="7.24371">
        <ele>926.8483887</ele>
        <time>2009-05-31T08:02:30Z</time>
      </trkpt>
      <trkpt lat="43.92213" lon="7.24368">
        <ele>924.9257812</ele>
        <time>2009-05-31T08:02:32Z</time>
      </trkpt>
      <trkpt lat="43.92201" lon="7.24354">
        <ele>923.0029297</ele>
        <time>2009-05-31T08:02:36Z</time>
      </trkpt>
      <trkpt lat="43.92193" lon="7.24339">
        <ele>921.0803223</ele>
        <time>2009-05-31T08:02:40Z</time>
      </trkpt>
      <trkpt lat="43.92192" lon="7.24333">
        <ele>920.5996094</ele>
        <time>2009-05-31T08:02:44Z</time>
      </trkpt>
      <trkpt lat="43.9218" lon="7.24327">
        <ele>918.1962891</ele>
        <time>2009-05-31T08:02:49Z</time>
      </trkpt>
      <trkpt lat="43.92167" lon="7.24329">
        <ele>913.8703613</ele>
        <time>2009-05-31T08:02:53Z</time>
      </trkpt>
      <trkpt lat="43.92164" lon="7.2433">
        <ele>913.3898926</ele>
        <time>2009-05-31T08:02:54Z</time>
      </trkpt>
      <trkpt lat="43.92156" lon="7.24339">
        <ele>910.0251465</ele>
        <time>2009-05-31T08:02:58Z</time>
      </trkpt>
      <trkpt lat="43.92151" lon="7.24347">
        <ele>907.1411133</ele>
        <time>2009-05-31T08:03:00Z</time>
      </trkpt>
      <trkpt lat="43.92137" lon="7.24359">
        <ele>903.2958984</ele>
        <time>2009-05-31T08:03:05Z</time>
      </trkpt>
      <trkpt lat="43.92131" lon="7.24372">
        <ele>900.4121094</ele>
        <time>2009-05-31T08:03:08Z</time>
      </trkpt>
      <trkpt lat="43.9212" lon="7.24375">
        <ele>898.4892578</ele>
        <time>2009-05-31T08:03:12Z</time>
      </trkpt>
      <trkpt lat="43.92111" lon="7.24372">
        <ele>896.0861816</ele>
        <time>2009-05-31T08:03:15Z</time>
      </trkpt>
      <trkpt lat="43.92104" lon="7.2437">
        <ele>894.1635742</ele>
        <time>2009-05-31T08:03:17Z</time>
      </trkpt>
      <trkpt lat="43.92098" lon="7.24379">
        <ele>890.3181152</ele>
        <time>2009-05-31T08:03:21Z</time>
      </trkpt>
      <trkpt lat="43.92091" lon="7.24377">
        <ele>886.9533691</ele>
        <time>2009-05-31T08:03:24Z</time>
      </trkpt>
      <trkpt lat="43.9208" lon="7.24372">
        <ele>884.0695801</ele>
        <time>2009-05-31T08:03:28Z</time>
      </trkpt>
      <trkpt lat="43.92075" lon="7.24367">
        <ele>882.6276855</ele>
        <time>2009-05-31T08:03:30Z</time>
      </trkpt>
      <trkpt lat="43.92073" lon="7.24365">
        <ele>879.7436523</ele>
        <time>2009-05-31T08:03:31Z</time>
      </trkpt>
      <trkpt lat="43.92066" lon="7.24366">
        <ele>878.3017578</ele>
        <time>2009-05-31T08:03:34Z</time>
      </trkpt>
      <trkpt lat="43.92063" lon="7.24369">
        <ele>875.8981934</ele>
        <time>2009-05-31T08:03:37Z</time>
      </trkpt>
      <trkpt lat="43.92061" lon="7.24358">
        <ele>874.9370117</ele>
        <time>2009-05-31T08:03:40Z</time>
      </trkpt>
      <trkpt lat="43.92053" lon="7.2435">
        <ele>871.5722656</ele>
        <time>2009-05-31T08:03:43Z</time>
      </trkpt>
      <trkpt lat="43.92052" lon="7.24337">
        <ele>872.5336914</ele>
        <time>2009-05-31T08:03:49Z</time>
      </trkpt>
      <trkpt lat="43.9205" lon="7.24323">
        <ele>873.9755859</ele>
        <time>2009-05-31T08:03:55Z</time>
      </trkpt>
      <trkpt lat="43.92047" lon="7.2432">
        <ele>874.4562988</ele>
        <time>2009-05-31T08:03:59Z</time>
      </trkpt>
      <trkpt lat="43.92041" lon="7.24308">
        <ele>875.8981934</ele>
        <time>2009-05-31T08:04:04Z</time>
      </trkpt>
      <trkpt lat="43.92039" lon="7.24305">
        <ele>876.3791504</ele>
        <time>2009-05-31T08:04:06Z</time>
      </trkpt>
      <trkpt lat="43.92034" lon="7.24295">
        <ele>877.3405762</ele>
        <time>2009-05-31T08:04:12Z</time>
      </trkpt>
      <trkpt lat="43.92022" lon="7.24282">
        <ele>879.7436523</ele>
        <time>2009-05-31T08:04:22Z</time>
      </trkpt>
      <trkpt lat="43.92013" lon="7.24275">
        <ele>881.6662598</ele>
        <time>2009-05-31T08:04:30Z</time>
      </trkpt>
      <trkpt lat="43.9201" lon="7.24274">
        <ele>882.1469727</ele>
        <time>2009-05-31T08:04:35Z</time>
      </trkpt>
      <trkpt lat="43.91999" lon="7.24269">
        <ele>884.550293</ele>
        <time>2009-05-31T08:04:41Z</time>
      </trkpt>
      <trkpt lat="43.9199" lon="7.2426">
        <ele>885.5114746</ele>
        <time>2009-05-31T08:04:46Z</time>
      </trkpt>
      <trkpt lat="43.91981" lon="7.24252">
        <ele>886.4729004</ele>
        <time>2009-05-31T08:04:51Z</time>
      </trkpt>
      <trkpt lat="43.91976" lon="7.24244">
        <ele>887.9147949</ele>
        <time>2009-05-31T08:04:56Z</time>
      </trkpt>
      <trkpt lat="43.91974" lon="7.24239">
        <ele>887.9147949</ele>
        <time>2009-05-31T08:04:59Z</time>
      </trkpt>
      <trkpt lat="43.91969" lon="7.24229">
        <ele>889.3566895</ele>
        <time>2009-05-31T08:05:07Z</time>
      </trkpt>
      <trkpt lat="43.91969" lon="7.24229">
        <ele>889.8374023</ele>
        <time>2009-05-31T08:05:09Z</time>
      </trkpt>
      <trkpt lat="43.91975" lon="7.24231">
        <ele>890.798584</ele>
        <time>2009-05-31T08:05:16Z</time>
      </trkpt>
      <trkpt lat="43.91983" lon="7.24236">
        <ele>892.2409668</ele>
        <time>2009-05-31T08:05:25Z</time>
      </trkpt>
      <trkpt lat="43.91986" lon="7.24237">
        <ele>893.6828613</ele>
        <time>2009-05-31T08:05:28Z</time>
      </trkpt>
      <trkpt lat="43.91991" lon="7.24239">
        <ele>894.644043</ele>
        <time>2009-05-31T08:05:32Z</time>
      </trkpt>
      <trkpt lat="43.91995" lon="7.24237">
        <ele>895.6054688</ele>
        <time>2009-05-31T08:05:36Z</time>
      </trkpt>
      <trkpt lat="43.92003" lon="7.24229">
        <ele>895.6054688</ele>
        <time>2009-05-31T08:05:45Z</time>
      </trkpt>
      <trkpt lat="43.92008" lon="7.24219">
        <ele>896.0861816</ele>
        <time>2009-05-31T08:05:52Z</time>
      </trkpt>
      <trkpt lat="43.92015" lon="7.24214">
        <ele>897.5280762</ele>
        <time>2009-05-31T08:05:59Z</time>
      </trkpt>
      <trkpt lat="43.92026" lon="7.24213">
        <ele>898.0087891</ele>
        <time>2009-05-31T08:06:05Z</time>
      </trkpt>
      <trkpt lat="43.92043" lon="7.24211">
        <ele>898.0087891</ele>
        <time>2009-05-31T08:06:12Z</time>
      </trkpt>
      <trkpt lat="43.92057" lon="7.24208">
        <ele>898.0087891</ele>
        <time>2009-05-31T08:06:18Z</time>
      </trkpt>
      <trkpt lat="43.92065" lon="7.242">
        <ele>898.9699707</ele>
        <time>2009-05-31T08:06:22Z</time>
      </trkpt>
      <trkpt lat="43.92069" lon="7.24186">
        <ele>899.4506836</ele>
        <time>2009-05-31T08:06:27Z</time>
      </trkpt>
      <trkpt lat="43.92073" lon="7.24163">
        <ele>898.9699707</ele>
        <time>2009-05-31T08:06:33Z</time>
      </trkpt>
      <trkpt lat="43.92075" lon="7.24141">
        <ele>899.4506836</ele>
        <time>2009-05-31T08:06:39Z</time>
      </trkpt>
      <trkpt lat="43.92076" lon="7.24121">
        <ele>900.4121094</ele>
        <time>2009-05-31T08:06:45Z</time>
      </trkpt>
      <trkpt lat="43.92082" lon="7.24107">
        <ele>900.8925781</ele>
        <time>2009-05-31T08:06:49Z</time>
      </trkpt>
      <trkpt lat="43.92098" lon="7.24093">
        <ele>902.3344727</ele>
        <time>2009-05-31T08:06:55Z</time>
      </trkpt>
      <trkpt lat="43.92113" lon="7.24085">
        <ele>902.8151855</ele>
        <time>2009-05-31T08:07:00Z</time>
      </trkpt>
      <trkpt lat="43.92116" lon="7.24083">
        <ele>902.8151855</ele>
        <time>2009-05-31T08:07:01Z</time>
      </trkpt>
      <trkpt lat="43.92128" lon="7.24063">
        <ele>902.8151855</ele>
        <time>2009-05-31T08:07:06Z</time>
      </trkpt>
      <trkpt lat="43.92138" lon="7.24038">
        <ele>904.2573242</ele>
        <time>2009-05-31T08:07:12Z</time>
      </trkpt>
      <trkpt lat="43.9214" lon="7.24012">
        <ele>903.7766113</ele>
        <time>2009-05-31T08:07:18Z</time>
      </trkpt>
      <trkpt lat="43.92139" lon="7.24006">
        <ele>903.2958984</ele>
        <time>2009-05-31T08:07:19Z</time>
      </trkpt>
      <trkpt lat="43.9214" lon="7.23977">
        <ele>900.8925781</ele>
        <time>2009-05-31T08:07:23Z</time>
      </trkpt>
      <trkpt lat="43.9214" lon="7.23946">
        <ele>899.9313965</ele>
        <time>2009-05-31T08:07:28Z</time>
      </trkpt>
      <trkpt lat="43.9214" lon="7.23941">
        <ele>900.8925781</ele>
        <time>2009-05-31T08:07:29Z</time>
      </trkpt>
      <trkpt lat="43.92133" lon="7.23912">
        <ele>900.8925781</ele>
        <time>2009-05-31T08:07:35Z</time>
      </trkpt>
      <trkpt lat="43.92127" lon="7.23896">
        <ele>902.3344727</ele>
        <time>2009-05-31T08:07:39Z</time>
      </trkpt>
      <trkpt lat="43.92117" lon="7.2389">
        <ele>902.8151855</ele>
        <time>2009-05-31T08:07:43Z</time>
      </trkpt>
      <trkpt lat="43.92108" lon="7.23891">
        <ele>906.1796875</ele>
        <time>2009-05-31T08:07:47Z</time>
      </trkpt>
      <trkpt lat="43.92106" lon="7.23892">
        <ele>906.1796875</ele>
        <time>2009-05-31T08:07:48Z</time>
      </trkpt>
      <trkpt lat="43.92102" lon="7.23895">
        <ele>907.6218262</ele>
        <time>2009-05-31T08:07:51Z</time>
      </trkpt>
      <trkpt lat="43.92089" lon="7.23898">
        <ele>909.0639648</ele>
        <time>2009-05-31T08:07:58Z</time>
      </trkpt>
      <trkpt lat="43.92077" lon="7.23895">
        <ele>910.0251465</ele>
        <time>2009-05-31T08:08:04Z</time>
      </trkpt>
      <trkpt lat="43.92065" lon="7.23891">
        <ele>911.947998</ele>
        <time>2009-05-31T08:08:12Z</time>
      </trkpt>
      <trkpt lat="43.92054" lon="7.23883">
        <ele>913.3898926</ele>
        <time>2009-05-31T08:08:20Z</time>
      </trkpt>
      <trkpt lat="43.92049" lon="7.2387">
        <ele>913.8703613</ele>
        <time>2009-05-31T08:08:27Z</time>
      </trkpt>
      <trkpt lat="43.92042" lon="7.23854">
        <ele>913.8703613</ele>
        <time>2009-05-31T08:08:34Z</time>
      </trkpt>
      <trkpt lat="43.92032" lon="7.23847">
        <ele>915.3125</ele>
        <time>2009-05-31T08:08:40Z</time>
      </trkpt>
      <trkpt lat="43.92029" lon="7.23844">
        <ele>915.7932129</ele>
        <time>2009-05-31T08:08:42Z</time>
      </trkpt>
      <trkpt lat="43.92027" lon="7.23829">
        <ele>917.7155762</ele>
        <time>2009-05-31T08:08:49Z</time>
      </trkpt>
      <trkpt lat="43.92029" lon="7.23819">
        <ele>918.1962891</ele>
        <time>2009-05-31T08:08:53Z</time>
      </trkpt>
      <trkpt lat="43.92041" lon="7.23803">
        <ele>916.7543945</ele>
        <time>2009-05-31T08:08:58Z</time>
      </trkpt>
      <trkpt lat="43.92044" lon="7.23779">
        <ele>915.7932129</ele>
        <time>2009-05-31T08:09:02Z</time>
      </trkpt>
      <trkpt lat="43.92041" lon="7.23756">
        <ele>915.3125</ele>
        <time>2009-05-31T08:09:07Z</time>
      </trkpt>
      <trkpt lat="43.92034" lon="7.23733">
        <ele>917.2351074</ele>
        <time>2009-05-31T08:09:12Z</time>
      </trkpt>
      <trkpt lat="43.92035" lon="7.2371">
        <ele>916.7543945</ele>
        <time>2009-05-31T08:09:17Z</time>
      </trkpt>
      <trkpt lat="43.92039" lon="7.23678">
        <ele>917.2351074</ele>
        <time>2009-05-31T08:09:24Z</time>
      </trkpt>
      <trkpt lat="43.92045" lon="7.23652">
        <ele>916.7543945</ele>
        <time>2009-05-31T08:09:29Z</time>
      </trkpt>
      <trkpt lat="43.92049" lon="7.23627">
        <ele>917.2351074</ele>
        <time>2009-05-31T08:09:34Z</time>
      </trkpt>
      <trkpt lat="43.92046" lon="7.23604">
        <ele>917.2351074</ele>
        <time>2009-05-31T08:09:39Z</time>
      </trkpt>
      <trkpt lat="43.92044" lon="7.23592">
        <ele>917.2351074</ele>
        <time>2009-05-31T08:09:41Z</time>
      </trkpt>
      <trkpt lat="43.92041" lon="7.23556">
        <ele>917.7155762</ele>
        <time>2009-05-31T08:09:47Z</time>
      </trkpt>
      <trkpt lat="43.9204" lon="7.23529">
        <ele>918.677002</ele>
        <time>2009-05-31T08:09:53Z</time>
      </trkpt>
      <trkpt lat="43.92039" lon="7.23519">
        <ele>920.1188965</ele>
        <time>2009-05-31T08:09:56Z</time>
      </trkpt>
      <trkpt lat="43.92037" lon="7.23501">
        <ele>922.5222168</ele>
        <time>2009-05-31T08:10:02Z</time>
      </trkpt>
      <trkpt lat="43.92032" lon="7.23487">
        <ele>923.9641113</ele>
        <time>2009-05-31T08:10:08Z</time>
      </trkpt>
      <trkpt lat="43.92026" lon="7.2347">
        <ele>926.3676758</ele>
        <time>2009-05-31T08:10:16Z</time>
      </trkpt>
      <trkpt lat="43.92026" lon="7.23468">
        <ele>926.8483887</ele>
        <time>2009-05-31T08:10:17Z</time>
      </trkpt>
      <trkpt lat="43.92022" lon="7.23454">
        <ele>928.7709961</ele>
        <time>2009-05-31T08:10:24Z</time>
      </trkpt>
      <trkpt lat="43.92022" lon="7.23452">
        <ele>929.2514648</ele>
        <time>2009-05-31T08:10:25Z</time>
      </trkpt>
      <trkpt lat="43.92019" lon="7.23434">
        <ele>931.6547852</ele>
        <time>2009-05-31T08:10:34Z</time>
      </trkpt>
      <trkpt lat="43.92025" lon="7.23421">
        <ele>932.135498</ele>
        <time>2009-05-31T08:10:41Z</time>
      </trkpt>
      <trkpt lat="43.92034" lon="7.23412">
        <ele>933.0966797</ele>
        <time>2009-05-31T08:10:48Z</time>
      </trkpt>
      <trkpt lat="43.92046" lon="7.23406">
        <ele>935.5</ele>
        <time>2009-05-31T08:10:56Z</time>
      </trkpt>
      <trkpt lat="43.92061" lon="7.23407">
        <ele>935.5</ele>
        <time>2009-05-31T08:11:03Z</time>
      </trkpt>
      <trkpt lat="43.92077" lon="7.23399">
        <ele>935.5</ele>
        <time>2009-05-31T08:11:08Z</time>
      </trkpt>
      <trkpt lat="43.92087" lon="7.2339">
        <ele>937.4226074</ele>
        <time>2009-05-31T08:11:14Z</time>
      </trkpt>
      <trkpt lat="43.92093" lon="7.23385">
        <ele>938.3840332</ele>
        <time>2009-05-31T08:11:18Z</time>
      </trkpt>
      <trkpt lat="43.92096" lon="7.23382">
        <ele>938.8647461</ele>
        <time>2009-05-31T08:11:23Z</time>
      </trkpt>
      <trkpt lat="43.92098" lon="7.23381">
        <ele>938.3840332</ele>
        <time>2009-05-31T08:11:25Z</time>
      </trkpt>
      <trkpt lat="43.92107" lon="7.23377">
        <ele>939.3452148</ele>
        <time>2009-05-31T08:11:34Z</time>
      </trkpt>
      <trkpt lat="43.92108" lon="7.23375">
        <ele>939.3452148</ele>
        <time>2009-05-31T08:11:37Z</time>
      </trkpt>
      <trkpt lat="43.92106" lon="7.23363">
        <ele>938.8647461</ele>
        <time>2009-05-31T08:11:42Z</time>
      </trkpt>
      <trkpt lat="43.92096" lon="7.23347">
        <ele>938.3840332</ele>
        <time>2009-05-31T08:11:46Z</time>
      </trkpt>
      <trkpt lat="43.9209" lon="7.23314">
        <ele>936.9418945</ele>
        <time>2009-05-31T08:11:51Z</time>
      </trkpt>
      <trkpt lat="43.92096" lon="7.23298">
        <ele>936.9418945</ele>
        <time>2009-05-31T08:11:53Z</time>
      </trkpt>
      <trkpt lat="43.92105" lon="7.23284">
        <ele>935.5</ele>
        <time>2009-05-31T08:11:55Z</time>
      </trkpt>
      <trkpt lat="43.92116" lon="7.23255">
        <ele>935.0195312</ele>
        <time>2009-05-31T08:11:59Z</time>
      </trkpt>
      <trkpt lat="43.92129" lon="7.23246">
        <ele>935.0195312</ele>
        <time>2009-05-31T08:12:02Z</time>
      </trkpt>
      <trkpt lat="43.92135" lon="7.23231">
        <ele>935.9807129</ele>
        <time>2009-05-31T08:12:06Z</time>
      </trkpt>
      <trkpt lat="43.92145" lon="7.23216">
        <ele>937.4226074</ele>
        <time>2009-05-31T08:12:12Z</time>
      </trkpt>
      <trkpt lat="43.92153" lon="7.23212">
        <ele>935.9807129</ele>
        <time>2009-05-31T08:12:14Z</time>
      </trkpt>
      <trkpt lat="43.92171" lon="7.23197">
        <ele>937.9033203</ele>
        <time>2009-05-31T08:12:20Z</time>
      </trkpt>
      <trkpt lat="43.92173" lon="7.23191">
        <ele>938.8647461</ele>
        <time>2009-05-31T08:12:22Z</time>
      </trkpt>
      <trkpt lat="43.92179" lon="7.23178">
        <ele>939.3452148</ele>
        <time>2009-05-31T08:12:29Z</time>
      </trkpt>
      <trkpt lat="43.92189" lon="7.23166">
        <ele>939.8259277</ele>
        <time>2009-05-31T08:12:36Z</time>
      </trkpt>
      <trkpt lat="43.9219" lon="7.23163">
        <ele>940.7873535</ele>
        <time>2009-05-31T08:12:38Z</time>
      </trkpt>
      <trkpt lat="43.92197" lon="7.2315">
        <ele>943.1906738</ele>
        <time>2009-05-31T08:12:46Z</time>
      </trkpt>
      <trkpt lat="43.92205" lon="7.23134">
        <ele>943.6713867</ele>
        <time>2009-05-31T08:12:53Z</time>
      </trkpt>
      <trkpt lat="43.92209" lon="7.23122">
        <ele>943.6713867</ele>
        <time>2009-05-31T08:12:58Z</time>
      </trkpt>
      <trkpt lat="43.92217" lon="7.23111">
        <ele>947.0358887</ele>
        <time>2009-05-31T08:13:05Z</time>
      </trkpt>
      <trkpt lat="43.92228" lon="7.23103">
        <ele>947.9973145</ele>
        <time>2009-05-31T08:13:13Z</time>
      </trkpt>
      <trkpt lat="43.92238" lon="7.23095">
        <ele>947.5166016</ele>
        <time>2009-05-31T08:13:17Z</time>
      </trkpt>
      <trkpt lat="43.92245" lon="7.23086">
        <ele>947.5166016</ele>
        <time>2009-05-31T08:13:21Z</time>
      </trkpt>
      <trkpt lat="43.92247" lon="7.2308">
        <ele>947.0358887</ele>
        <time>2009-05-31T08:13:24Z</time>
      </trkpt>
      <trkpt lat="43.92247" lon="7.23075">
        <ele>948.4777832</ele>
        <time>2009-05-31T08:13:30Z</time>
      </trkpt>
      <trkpt lat="43.92246" lon="7.23072">
        <ele>949.439209</ele>
        <time>2009-05-31T08:13:33Z</time>
      </trkpt>
      <trkpt lat="43.92246" lon="7.23069">
        <ele>950.8811035</ele>
        <time>2009-05-31T08:13:35Z</time>
      </trkpt>
      <trkpt lat="43.92247" lon="7.23065">
        <ele>951.3618164</ele>
        <time>2009-05-31T08:13:41Z</time>
      </trkpt>
      <trkpt lat="43.92248" lon="7.23064">
        <ele>951.8425293</ele>
        <time>2009-05-31T08:13:42Z</time>
      </trkpt>
      <trkpt lat="43.92255" lon="7.23052">
        <ele>950.8811035</ele>
        <time>2009-05-31T08:13:48Z</time>
      </trkpt>
      <trkpt lat="43.92259" lon="7.23037">
        <ele>953.2844238</ele>
        <time>2009-05-31T08:13:55Z</time>
      </trkpt>
      <trkpt lat="43.92262" lon="7.23021">
        <ele>953.7651367</ele>
        <time>2009-05-31T08:14:01Z</time>
      </trkpt>
      <trkpt lat="43.92261" lon="7.23008">
        <ele>952.322998</ele>
        <time>2009-05-31T08:14:04Z</time>
      </trkpt>
      <trkpt lat="43.92262" lon="7.2299">
        <ele>950.8811035</ele>
        <time>2009-05-31T08:14:07Z</time>
      </trkpt>
      <trkpt lat="43.92265" lon="7.22983">
        <ele>950.8811035</ele>
        <time>2009-05-31T08:14:08Z</time>
      </trkpt>
      <trkpt lat="43.92278" lon="7.2296">
        <ele>951.3618164</ele>
        <time>2009-05-31T08:14:13Z</time>
      </trkpt>
      <trkpt lat="43.92289" lon="7.22946">
        <ele>951.8425293</ele>
        <time>2009-05-31T08:14:19Z</time>
      </trkpt>
      <trkpt lat="43.92297" lon="7.22935">
        <ele>953.2844238</ele>
        <time>2009-05-31T08:14:24Z</time>
      </trkpt>
      <trkpt lat="43.92298" lon="7.22932">
        <ele>953.7651367</ele>
        <time>2009-05-31T08:14:25Z</time>
      </trkpt>
      <trkpt lat="43.92304" lon="7.2292">
        <ele>956.6491699</ele>
        <time>2009-05-31T08:14:31Z</time>
      </trkpt>
      <trkpt lat="43.92305" lon="7.22917">
        <ele>957.1298828</ele>
        <time>2009-05-31T08:14:32Z</time>
      </trkpt>
      <trkpt lat="43.92309" lon="7.22904">
        <ele>959.5332031</ele>
        <time>2009-05-31T08:14:38Z</time>
      </trkpt>
      <trkpt lat="43.9231" lon="7.22895">
        <ele>961.4558105</ele>
        <time>2009-05-31T08:14:43Z</time>
      </trkpt>
      <trkpt lat="43.92313" lon="7.22885">
        <ele>962.8977051</ele>
        <time>2009-05-31T08:14:49Z</time>
      </trkpt>
      <trkpt lat="43.92315" lon="7.22868">
        <ele>963.378418</ele>
        <time>2009-05-31T08:14:57Z</time>
      </trkpt>
      <trkpt lat="43.92314" lon="7.22862">
        <ele>963.8588867</ele>
        <time>2009-05-31T08:15:00Z</time>
      </trkpt>
      <trkpt lat="43.92318" lon="7.22858">
        <ele>964.3395996</ele>
        <time>2009-05-31T08:15:04Z</time>
      </trkpt>
      <trkpt lat="43.9233" lon="7.22853">
        <ele>963.8588867</ele>
        <time>2009-05-31T08:15:10Z</time>
      </trkpt>
      <trkpt lat="43.92332" lon="7.22851">
        <ele>964.3395996</ele>
        <time>2009-05-31T08:15:11Z</time>
      </trkpt>
      <trkpt lat="43.92336" lon="7.22847">
        <ele>964.8203125</ele>
        <time>2009-05-31T08:15:13Z</time>
      </trkpt>
      <trkpt lat="43.92343" lon="7.22844">
        <ele>964.8203125</ele>
        <time>2009-05-31T08:15:17Z</time>
      </trkpt>
      <trkpt lat="43.9235" lon="7.22843">
        <ele>965.3010254</ele>
        <time>2009-05-31T08:15:21Z</time>
      </trkpt>
      <trkpt lat="43.92372" lon="7.22847">
        <ele>964.8203125</ele>
        <time>2009-05-31T08:15:29Z</time>
      </trkpt>
      <trkpt lat="43.92383" lon="7.22839">
        <ele>966.262207</ele>
        <time>2009-05-31T08:15:34Z</time>
      </trkpt>
      <trkpt lat="43.92398" lon="7.22835">
        <ele>966.262207</ele>
        <time>2009-05-31T08:15:39Z</time>
      </trkpt>
      <trkpt lat="43.92411" lon="7.22845">
        <ele>966.262207</ele>
        <time>2009-05-31T08:15:44Z</time>
      </trkpt>
      <trkpt lat="43.92427" lon="7.22856">
        <ele>966.262207</ele>
        <time>2009-05-31T08:15:49Z</time>
      </trkpt>
      <trkpt lat="43.9244" lon="7.22858">
        <ele>966.262207</ele>
        <time>2009-05-31T08:15:53Z</time>
      </trkpt>
      <trkpt lat="43.9246" lon="7.22852">
        <ele>967.2236328</ele>
        <time>2009-05-31T08:15:59Z</time>
      </trkpt>
      <trkpt lat="43.92474" lon="7.22842">
        <ele>967.7041016</ele>
        <time>2009-05-31T08:16:05Z</time>
      </trkpt>
      <trkpt lat="43.92488" lon="7.22823">
        <ele>968.1848145</ele>
        <time>2009-05-31T08:16:12Z</time>
      </trkpt>
      <trkpt lat="43.92503" lon="7.2281">
        <ele>968.1848145</ele>
        <time>2009-05-31T08:16:17Z</time>
      </trkpt>
      <trkpt lat="43.92514" lon="7.22805">
        <ele>969.1462402</ele>
        <time>2009-05-31T08:16:21Z</time>
      </trkpt>
      <trkpt lat="43.92523" lon="7.228">
        <ele>970.1074219</ele>
        <time>2009-05-31T08:16:25Z</time>
      </trkpt>
      <trkpt lat="43.92535" lon="7.22795">
        <ele>970.5881348</ele>
        <time>2009-05-31T08:16:29Z</time>
      </trkpt>
      <trkpt lat="43.92541" lon="7.22787">
        <ele>972.0302734</ele>
        <time>2009-05-31T08:16:32Z</time>
      </trkpt>
      <trkpt lat="43.92548" lon="7.22768">
        <ele>972.5109863</ele>
        <time>2009-05-31T08:16:38Z</time>
      </trkpt>
      <trkpt lat="43.92552" lon="7.22751">
        <ele>974.4335938</ele>
        <time>2009-05-31T08:16:44Z</time>
      </trkpt>
      <trkpt lat="43.9255" lon="7.22734">
        <ele>974.4335938</ele>
        <time>2009-05-31T08:16:49Z</time>
      </trkpt>
      <trkpt lat="43.92546" lon="7.22711">
        <ele>973.4724121</ele>
        <time>2009-05-31T08:16:54Z</time>
      </trkpt>
      <trkpt lat="43.92544" lon="7.22706">
        <ele>972.9916992</ele>
        <time>2009-05-31T08:16:55Z</time>
      </trkpt>
      <trkpt lat="43.92538" lon="7.22686">
        <ele>971.5493164</ele>
        <time>2009-05-31T08:16:58Z</time>
      </trkpt>
      <trkpt lat="43.92536" lon="7.2267">
        <ele>971.5493164</ele>
        <time>2009-05-31T08:17:00Z</time>
      </trkpt>
      <trkpt lat="43.92527" lon="7.22641">
        <ele>971.5493164</ele>
        <time>2009-05-31T08:17:05Z</time>
      </trkpt>
      <trkpt lat="43.92516" lon="7.22616">
        <ele>969.6269531</ele>
        <time>2009-05-31T08:17:10Z</time>
      </trkpt>
      <trkpt lat="43.9251" lon="7.22602">
        <ele>968.6655273</ele>
        <time>2009-05-31T08:17:12Z</time>
      </trkpt>
      <trkpt lat="43.92495" lon="7.22564">
        <ele>968.1848145</ele>
        <time>2009-05-31T08:17:18Z</time>
      </trkpt>
      <trkpt lat="43.92481" lon="7.22548">
        <ele>967.7041016</ele>
        <time>2009-05-31T08:17:22Z</time>
      </trkpt>
      <trkpt lat="43.92466" lon="7.22552">
        <ele>967.7041016</ele>
        <time>2009-05-31T08:17:25Z</time>
      </trkpt>
      <trkpt lat="43.92455" lon="7.22557">
        <ele>966.7429199</ele>
        <time>2009-05-31T08:17:27Z</time>
      </trkpt>
      <trkpt lat="43.92436" lon="7.22574">
        <ele>966.7429199</ele>
        <time>2009-05-31T08:17:31Z</time>
      </trkpt>
      <trkpt lat="43.92423" lon="7.22589">
        <ele>968.1848145</ele>
        <time>2009-05-31T08:17:36Z</time>
      </trkpt>
      <trkpt lat="43.9242" lon="7.22589">
        <ele>968.6655273</ele>
        <time>2009-05-31T08:17:37Z</time>
      </trkpt>
      <trkpt lat="43.92398" lon="7.22577">
        <ele>968.1848145</ele>
        <time>2009-05-31T08:17:43Z</time>
      </trkpt>
      <trkpt lat="43.92383" lon="7.22578">
        <ele>969.1462402</ele>
        <time>2009-05-31T08:17:47Z</time>
      </trkpt>
      <trkpt lat="43.92366" lon="7.22577">
        <ele>971.5493164</ele>
        <time>2009-05-31T08:17:52Z</time>
      </trkpt>
      <trkpt lat="43.92363" lon="7.22579">
        <ele>971.0688477</ele>
        <time>2009-05-31T08:17:53Z</time>
      </trkpt>
      <trkpt lat="43.92352" lon="7.2257">
        <ele>972.0302734</ele>
        <time>2009-05-31T08:17:58Z</time>
      </trkpt>
      <trkpt lat="43.92344" lon="7.22555">
        <ele>970.5881348</ele>
        <time>2009-05-31T08:18:02Z</time>
      </trkpt>
      <trkpt lat="43.9234" lon="7.22527">
        <ele>969.1462402</ele>
        <time>2009-05-31T08:18:07Z</time>
      </trkpt>
      <trkpt lat="43.92336" lon="7.2252">
        <ele>970.1074219</ele>
        <time>2009-05-31T08:18:09Z</time>
      </trkpt>
      <trkpt lat="43.92339" lon="7.22505">
        <ele>969.6269531</ele>
        <time>2009-05-31T08:18:13Z</time>
      </trkpt>
      <trkpt lat="43.92345" lon="7.22481">
        <ele>968.6655273</ele>
        <time>2009-05-31T08:18:17Z</time>
      </trkpt>
      <trkpt lat="43.92344" lon="7.22475">
        <ele>969.1462402</ele>
        <time>2009-05-31T08:18:18Z</time>
      </trkpt>
      <trkpt lat="43.9234" lon="7.22453">
        <ele>970.5881348</ele>
        <time>2009-05-31T08:18:24Z</time>
      </trkpt>
      <trkpt lat="43.92328" lon="7.2244">
        <ele>972.0302734</ele>
        <time>2009-05-31T08:18:31Z</time>
      </trkpt>
      <trkpt lat="43.92312" lon="7.22436">
        <ele>971.5493164</ele>
        <time>2009-05-31T08:18:36Z</time>
      </trkpt>
      <trkpt lat="43.92306" lon="7.22436">
        <ele>970.5881348</ele>
        <time>2009-05-31T08:18:38Z</time>
      </trkpt>
      <trkpt lat="43.92302" lon="7.22421">
        <ele>970.5881348</ele>
        <time>2009-05-31T08:18:42Z</time>
      </trkpt>
      <trkpt lat="43.92298" lon="7.224">
        <ele>975.3947754</ele>
        <time>2009-05-31T08:18:48Z</time>
      </trkpt>
      <trkpt lat="43.92296" lon="7.22398">
        <ele>975.3947754</ele>
        <time>2009-05-31T08:18:49Z</time>
      </trkpt>
      <trkpt lat="43.92287" lon="7.22383">
        <ele>977.317627</ele>
        <time>2009-05-31T08:18:56Z</time>
      </trkpt>
      <trkpt lat="43.92278" lon="7.22373">
        <ele>978.7595215</ele>
        <time>2009-05-31T08:19:02Z</time>
      </trkpt>
      <trkpt lat="43.92275" lon="7.2237">
        <ele>979.7207031</ele>
        <time>2009-05-31T08:19:08Z</time>
      </trkpt>
      <trkpt lat="43.92271" lon="7.22363">
        <ele>980.201416</ele>
        <time>2009-05-31T08:19:15Z</time>
      </trkpt>
      <trkpt lat="43.92267" lon="7.22359">
        <ele>981.6433105</ele>
        <time>2009-05-31T08:19:22Z</time>
      </trkpt>
      <trkpt lat="43.92262" lon="7.22357">
        <ele>983.0852051</ele>
        <time>2009-05-31T08:19:28Z</time>
      </trkpt>
      <trkpt lat="43.92257" lon="7.22355">
        <ele>983.565918</ele>
        <time>2009-05-31T08:19:35Z</time>
      </trkpt>
      <trkpt lat="43.92253" lon="7.22353">
        <ele>984.5273438</ele>
        <time>2009-05-31T08:19:39Z</time>
      </trkpt>
      <trkpt lat="43.92246" lon="7.2235">
        <ele>985.0080566</ele>
        <time>2009-05-31T08:19:47Z</time>
      </trkpt>
      <trkpt lat="43.92244" lon="7.22351">
        <ele>984.5273438</ele>
        <time>2009-05-31T08:20:03Z</time>
      </trkpt>
      <trkpt lat="43.92247" lon="7.22346">
        <ele>984.5273438</ele>
        <time>2009-05-31T08:21:23Z</time>
      </trkpt>
      <trkpt lat="43.92241" lon="7.2234">
        <ele>985.4885254</ele>
        <time>2009-05-31T08:21:28Z</time>
      </trkpt>
      <trkpt lat="43.92232" lon="7.22333">
        <ele>986.4499512</ele>
        <time>2009-05-31T08:21:35Z</time>
      </trkpt>
      <trkpt lat="43.92221" lon="7.2233">
        <ele>987.8918457</ele>
        <time>2009-05-31T08:21:42Z</time>
      </trkpt>
      <trkpt lat="43.92213" lon="7.22327">
        <ele>989.3339844</ele>
        <time>2009-05-31T08:21:49Z</time>
      </trkpt>
      <trkpt lat="43.92207" lon="7.22323">
        <ele>991.2565918</ele>
        <time>2009-05-31T08:21:55Z</time>
      </trkpt>
      <trkpt lat="43.92202" lon="7.22322">
        <ele>992.2180176</ele>
        <time>2009-05-31T08:22:01Z</time>
      </trkpt>
      <trkpt lat="43.922" lon="7.22323">
        <ele>991.2565918</ele>
        <time>2009-05-31T08:22:08Z</time>
      </trkpt>
      <trkpt lat="43.92198" lon="7.22325">
        <ele>992.6987305</ele>
        <time>2009-05-31T08:22:31Z</time>
      </trkpt>
      <trkpt lat="43.92186" lon="7.22324">
        <ele>995.5825195</ele>
        <time>2009-05-31T08:22:42Z</time>
      </trkpt>
      <trkpt lat="43.9218" lon="7.22324">
        <ele>997.9858398</ele>
        <time>2009-05-31T08:22:50Z</time>
      </trkpt>
      <trkpt lat="43.92171" lon="7.22325">
        <ele>999.9084473</ele>
        <time>2009-05-31T08:22:58Z</time>
      </trkpt>
      <trkpt lat="43.92164" lon="7.22322">
        <ele>1001.3503418</ele>
        <time>2009-05-31T08:23:07Z</time>
      </trkpt>
      <trkpt lat="43.92158" lon="7.22322">
        <ele>1003.7536621</ele>
        <time>2009-05-31T08:23:15Z</time>
      </trkpt>
      <trkpt lat="43.92153" lon="7.2232">
        <ele>1004.7150879</ele>
        <time>2009-05-31T08:23:21Z</time>
      </trkpt>
      <trkpt lat="43.92146" lon="7.22317">
        <ele>1006.6376953</ele>
        <time>2009-05-31T08:23:30Z</time>
      </trkpt>
      <trkpt lat="43.92141" lon="7.22315">
        <ele>1007.5991211</ele>
        <time>2009-05-31T08:23:38Z</time>
      </trkpt>
      <trkpt lat="43.92136" lon="7.22312">
        <ele>1010.0021973</ele>
        <time>2009-05-31T08:23:46Z</time>
      </trkpt>
      <trkpt lat="43.92133" lon="7.2231">
        <ele>1011.4443359</ele>
        <time>2009-05-31T08:23:53Z</time>
      </trkpt>
      <trkpt lat="43.92132" lon="7.2231">
        <ele>1012.4055176</ele>
        <time>2009-05-31T08:23:55Z</time>
      </trkpt>
      <trkpt lat="43.92126" lon="7.22309">
        <ele>1014.328125</ele>
        <time>2009-05-31T08:24:03Z</time>
      </trkpt>
      <trkpt lat="43.92118" lon="7.22308">
        <ele>1015.7702637</ele>
        <time>2009-05-31T08:24:12Z</time>
      </trkpt>
      <trkpt lat="43.92109" lon="7.22309">
        <ele>1018.6540527</ele>
        <time>2009-05-31T08:24:21Z</time>
      </trkpt>
      <trkpt lat="43.92101" lon="7.22311">
        <ele>1019.6154785</ele>
        <time>2009-05-31T08:24:31Z</time>
      </trkpt>
      <trkpt lat="43.92095" lon="7.22308">
        <ele>1019.1347656</ele>
        <time>2009-05-31T08:24:39Z</time>
      </trkpt>
      <trkpt lat="43.9209" lon="7.22306">
        <ele>1021.5380859</ele>
        <time>2009-05-31T08:24:47Z</time>
      </trkpt>
      <trkpt lat="43.92085" lon="7.22307">
        <ele>1024.4221191</ele>
        <time>2009-05-31T08:24:56Z</time>
      </trkpt>
      <trkpt lat="43.92079" lon="7.2231">
        <ele>1026.8254395</ele>
        <time>2009-05-31T08:25:05Z</time>
      </trkpt>
      <trkpt lat="43.92075" lon="7.2231">
        <ele>1028.7480469</ele>
        <time>2009-05-31T08:25:13Z</time>
      </trkpt>
      <trkpt lat="43.9207" lon="7.22309">
        <ele>1029.7092285</ele>
        <time>2009-05-31T08:25:21Z</time>
      </trkpt>
      <trkpt lat="43.92062" lon="7.22305">
        <ele>1031.1513672</ele>
        <time>2009-05-31T08:25:31Z</time>
      </trkpt>
      <trkpt lat="43.92058" lon="7.22304">
        <ele>1032.1125488</ele>
        <time>2009-05-31T08:25:36Z</time>
      </trkpt>
      <trkpt lat="43.9205" lon="7.22305">
        <ele>1034.5158691</ele>
        <time>2009-05-31T08:25:47Z</time>
      </trkpt>
      <trkpt lat="43.92044" lon="7.22304">
        <ele>1036.9191895</ele>
        <time>2009-05-31T08:25:55Z</time>
      </trkpt>
      <trkpt lat="43.92035" lon="7.223">
        <ele>1037.3999023</ele>
        <time>2009-05-31T08:26:05Z</time>
      </trkpt>
      <trkpt lat="43.92028" lon="7.22297">
        <ele>1038.842041</ele>
        <time>2009-05-31T08:26:13Z</time>
      </trkpt>
      <trkpt lat="43.9202" lon="7.22295">
        <ele>1041.7258301</ele>
        <time>2009-05-31T08:26:23Z</time>
      </trkpt>
      <trkpt lat="43.92019" lon="7.22294">
        <ele>1041.2451172</ele>
        <time>2009-05-31T08:26:24Z</time>
      </trkpt>
      <trkpt lat="43.92016" lon="7.22291">
        <ele>1041.7258301</ele>
        <time>2009-05-31T08:26:28Z</time>
      </trkpt>
      <trkpt lat="43.92008" lon="7.22289">
        <ele>1042.6872559</ele>
        <time>2009-05-31T08:26:35Z</time>
      </trkpt>
      <trkpt lat="43.92" lon="7.22288">
        <ele>1044.6096191</ele>
        <time>2009-05-31T08:26:41Z</time>
      </trkpt>
      <trkpt lat="43.9199" lon="7.22284">
        <ele>1045.5710449</ele>
        <time>2009-05-31T08:26:50Z</time>
      </trkpt>
      <trkpt lat="43.91985" lon="7.22283">
        <ele>1046.5324707</ele>
        <time>2009-05-31T08:26:57Z</time>
      </trkpt>
      <trkpt lat="43.91983" lon="7.22284">
        <ele>1046.5324707</ele>
        <time>2009-05-31T08:27:03Z</time>
      </trkpt>
      <trkpt lat="43.91973" lon="7.22288">
        <ele>1047.9743652</ele>
        <time>2009-05-31T08:27:09Z</time>
      </trkpt>
      <trkpt lat="43.9197" lon="7.22287">
        <ele>1048.454834</ele>
        <time>2009-05-31T08:27:11Z</time>
      </trkpt>
      <trkpt lat="43.91966" lon="7.22279">
        <ele>1048.9355469</ele>
        <time>2009-05-31T08:27:15Z</time>
      </trkpt>
      <trkpt lat="43.91962" lon="7.22264">
        <ele>1048.9355469</ele>
        <time>2009-05-31T08:27:22Z</time>
      </trkpt>
      <trkpt lat="43.91952" lon="7.22255">
        <ele>1050.3776855</ele>
        <time>2009-05-31T08:27:27Z</time>
      </trkpt>
      <trkpt lat="43.91942" lon="7.22249">
        <ele>1051.3388672</ele>
        <time>2009-05-31T08:27:33Z</time>
      </trkpt>
      <trkpt lat="43.91934" lon="7.22244">
        <ele>1052.300293</ele>
        <time>2009-05-31T08:27:39Z</time>
      </trkpt>
      <trkpt lat="43.91926" lon="7.2224">
        <ele>1053.7424316</ele>
        <time>2009-05-31T08:27:45Z</time>
      </trkpt>
      <trkpt lat="43.91923" lon="7.22239">
        <ele>1054.7036133</ele>
        <time>2009-05-31T08:27:47Z</time>
      </trkpt>
      <trkpt lat="43.9192" lon="7.22241">
        <ele>1055.1843262</ele>
        <time>2009-05-31T08:27:54Z</time>
      </trkpt>
      <trkpt lat="43.91918" lon="7.22246">
        <ele>1055.1843262</ele>
        <time>2009-05-31T08:28:10Z</time>
      </trkpt>
      <trkpt lat="43.91918" lon="7.22247">
        <ele>1054.7036133</ele>
        <time>2009-05-31T08:28:11Z</time>
      </trkpt>
      <trkpt lat="43.91915" lon="7.22259">
        <ele>1056.1455078</ele>
        <time>2009-05-31T08:28:18Z</time>
      </trkpt>
      <trkpt lat="43.91906" lon="7.2227">
        <ele>1057.1069336</ele>
        <time>2009-05-31T08:28:25Z</time>
      </trkpt>
      <trkpt lat="43.91901" lon="7.22286">
        <ele>1057.5876465</ele>
        <time>2009-05-31T08:28:30Z</time>
      </trkpt>
      <trkpt lat="43.91901" lon="7.22312">
        <ele>1057.1069336</ele>
        <time>2009-05-31T08:28:37Z</time>
      </trkpt>
      <trkpt lat="43.91902" lon="7.22334">
        <ele>1058.0683594</ele>
        <time>2009-05-31T08:28:43Z</time>
      </trkpt>
      <trkpt lat="43.91907" lon="7.22357">
        <ele>1058.5488281</ele>
        <time>2009-05-31T08:28:49Z</time>
      </trkpt>
      <trkpt lat="43.91913" lon="7.22377">
        <ele>1060.4714355</ele>
        <time>2009-05-31T08:28:55Z</time>
      </trkpt>
      <trkpt lat="43.91913" lon="7.22401">
        <ele>1059.5102539</ele>
        <time>2009-05-31T08:29:01Z</time>
      </trkpt>
      <trkpt lat="43.91908" lon="7.22429">
        <ele>1058.0683594</ele>
        <time>2009-05-31T08:29:05Z</time>
      </trkpt>
      <trkpt lat="43.91902" lon="7.22444">
        <ele>1056.6262207</ele>
        <time>2009-05-31T08:29:07Z</time>
      </trkpt>
      <trkpt lat="43.91884" lon="7.22469">
        <ele>1057.5876465</ele>
        <time>2009-05-31T08:29:13Z</time>
      </trkpt>
      <trkpt lat="43.91867" lon="7.22479">
        <ele>1058.5488281</ele>
        <time>2009-05-31T08:29:18Z</time>
      </trkpt>
      <trkpt lat="43.91848" lon="7.22492">
        <ele>1059.9907227</ele>
        <time>2009-05-31T08:29:24Z</time>
      </trkpt>
      <trkpt lat="43.91826" lon="7.22514">
        <ele>1058.0683594</ele>
        <time>2009-05-31T08:29:29Z</time>
      </trkpt>
      <trkpt lat="43.91797" lon="7.22552">
        <ele>1055.6650391</ele>
        <time>2009-05-31T08:29:36Z</time>
      </trkpt>
      <trkpt lat="43.91776" lon="7.22565">
        <ele>1055.1843262</ele>
        <time>2009-05-31T08:29:40Z</time>
      </trkpt>
      <trkpt lat="43.9174" lon="7.22586">
        <ele>1055.1843262</ele>
        <time>2009-05-31T08:29:47Z</time>
      </trkpt>
      <trkpt lat="43.91734" lon="7.22589">
        <ele>1054.7036133</ele>
        <time>2009-05-31T08:29:48Z</time>
      </trkpt>
      <trkpt lat="43.91727" lon="7.22598">
        <ele>1054.7036133</ele>
        <time>2009-05-31T08:29:50Z</time>
      </trkpt>
      <trkpt lat="43.91716" lon="7.22617">
        <ele>1052.7810059</ele>
        <time>2009-05-31T08:29:53Z</time>
      </trkpt>
      <trkpt lat="43.91709" lon="7.22635">
        <ele>1048.9355469</ele>
        <time>2009-05-31T08:29:55Z</time>
      </trkpt>
      <trkpt lat="43.91697" lon="7.22677">
        <ele>1044.6096191</ele>
        <time>2009-05-31T08:29:59Z</time>
      </trkpt>
      <trkpt lat="43.91691" lon="7.22696">
        <ele>1041.2451172</ele>
        <time>2009-05-31T08:30:01Z</time>
      </trkpt>
      <trkpt lat="43.91688" lon="7.22704">
        <ele>1040.2839355</ele>
        <time>2009-05-31T08:30:02Z</time>
      </trkpt>
      <trkpt lat="43.91684" lon="7.22719">
        <ele>1038.3613281</ele>
        <time>2009-05-31T08:30:04Z</time>
      </trkpt>
      <trkpt lat="43.91683" lon="7.2274">
        <ele>1034.5158691</ele>
        <time>2009-05-31T08:30:06Z</time>
      </trkpt>
      <trkpt lat="43.91681" lon="7.22762">
        <ele>1032.5932617</ele>
        <time>2009-05-31T08:30:08Z</time>
      </trkpt>
      <trkpt lat="43.91672" lon="7.22781">
        <ele>1031.1513672</ele>
        <time>2009-05-31T08:30:11Z</time>
      </trkpt>
      <trkpt lat="43.91663" lon="7.22788">
        <ele>1030.1899414</ele>
        <time>2009-05-31T08:30:13Z</time>
      </trkpt>
      <trkpt lat="43.91659" lon="7.22793">
        <ele>1028.267334</ele>
        <time>2009-05-31T08:30:14Z</time>
      </trkpt>
      <trkpt lat="43.91646" lon="7.22813">
        <ele>1027.7866211</ele>
        <time>2009-05-31T08:30:17Z</time>
      </trkpt>
      <trkpt lat="43.91637" lon="7.22839">
        <ele>1029.2285156</ele>
        <time>2009-05-31T08:30:21Z</time>
      </trkpt>
      <trkpt lat="43.91633" lon="7.22859">
        <ele>1031.6318359</ele>
        <time>2009-05-31T08:30:26Z</time>
      </trkpt>
      <trkpt lat="43.91625" lon="7.2288">
        <ele>1033.5544434</ele>
        <time>2009-05-31T08:30:33Z</time>
      </trkpt>
      <trkpt lat="43.91613" lon="7.22905">
        <ele>1034.996582</ele>
        <time>2009-05-31T08:30:41Z</time>
      </trkpt>
      <trkpt lat="43.91605" lon="7.22922">
        <ele>1035.4770508</ele>
        <time>2009-05-31T08:30:47Z</time>
      </trkpt>
      <trkpt lat="43.91598" lon="7.22943">
        <ele>1036.9191895</ele>
        <time>2009-05-31T08:30:54Z</time>
      </trkpt>
      <trkpt lat="43.916" lon="7.22965">
        <ele>1037.8806152</ele>
        <time>2009-05-31T08:31:01Z</time>
      </trkpt>
      <trkpt lat="43.91601" lon="7.2298">
        <ele>1039.8032227</ele>
        <time>2009-05-31T08:31:06Z</time>
      </trkpt>
      <trkpt lat="43.91601" lon="7.22988">
        <ele>1041.7258301</ele>
        <time>2009-05-31T08:31:09Z</time>
      </trkpt>
      <trkpt lat="43.91605" lon="7.23008">
        <ele>1042.6872559</ele>
        <time>2009-05-31T08:31:17Z</time>
      </trkpt>
      <trkpt lat="43.9161" lon="7.23025">
        <ele>1042.206543</ele>
        <time>2009-05-31T08:31:24Z</time>
      </trkpt>
      <trkpt lat="43.91616" lon="7.23045">
        <ele>1046.0517578</ele>
        <time>2009-05-31T08:31:32Z</time>
      </trkpt>
      <trkpt lat="43.91618" lon="7.23049">
        <ele>1046.5324707</ele>
        <time>2009-05-31T08:31:34Z</time>
      </trkpt>
      <trkpt lat="43.91624" lon="7.23063">
        <ele>1049.4162598</ele>
        <time>2009-05-31T08:31:42Z</time>
      </trkpt>
      <trkpt lat="43.91625" lon="7.23065">
        <ele>1049.8969727</ele>
        <time>2009-05-31T08:31:43Z</time>
      </trkpt>
      <trkpt lat="43.91627" lon="7.23081">
        <ele>1050.8581543</ele>
        <time>2009-05-31T08:31:52Z</time>
      </trkpt>
      <trkpt lat="43.91628" lon="7.23095">
        <ele>1052.7810059</ele>
        <time>2009-05-31T08:31:59Z</time>
      </trkpt>
      <trkpt lat="43.91626" lon="7.23102">
        <ele>1053.7424316</ele>
        <time>2009-05-31T08:32:03Z</time>
      </trkpt>
      <trkpt lat="43.91624" lon="7.23108">
        <ele>1054.7036133</ele>
        <time>2009-05-31T08:32:08Z</time>
      </trkpt>
      <trkpt lat="43.9162" lon="7.2311">
        <ele>1056.6262207</ele>
        <time>2009-05-31T08:32:14Z</time>
      </trkpt>
      <trkpt lat="43.91619" lon="7.23111">
        <ele>1056.6262207</ele>
        <time>2009-05-31T08:32:15Z</time>
      </trkpt>
      <trkpt lat="43.91616" lon="7.2311">
        <ele>1058.0683594</ele>
        <time>2009-05-31T08:32:19Z</time>
      </trkpt>
      <trkpt lat="43.91613" lon="7.23111">
        <ele>1058.5488281</ele>
        <time>2009-05-31T08:32:23Z</time>
      </trkpt>
      <trkpt lat="43.91606" lon="7.23109">
        <ele>1058.0683594</ele>
        <time>2009-05-31T08:32:28Z</time>
      </trkpt>
      <trkpt lat="43.91599" lon="7.23104">
        <ele>1058.0683594</ele>
        <time>2009-05-31T08:32:32Z</time>
      </trkpt>
      <trkpt lat="43.91579" lon="7.23105">
        <ele>1059.029541</ele>
        <time>2009-05-31T08:32:43Z</time>
      </trkpt>
      <trkpt lat="43.91564" lon="7.23115">
        <ele>1059.9907227</ele>
        <time>2009-05-31T08:32:52Z</time>
      </trkpt>
      <trkpt lat="43.9155" lon="7.23128">
        <ele>1061.9135742</ele>
        <time>2009-05-31T08:33:00Z</time>
      </trkpt>
      <trkpt lat="43.91536" lon="7.23139">
        <ele>1062.394043</ele>
        <time>2009-05-31T08:33:07Z</time>
      </trkpt>
      <trkpt lat="43.91521" lon="7.23145">
        <ele>1064.3166504</ele>
        <time>2009-05-31T08:33:14Z</time>
      </trkpt>
      <trkpt lat="43.91505" lon="7.23152">
        <ele>1065.7587891</ele>
        <time>2009-05-31T08:33:22Z</time>
      </trkpt>
      <trkpt lat="43.91487" lon="7.23154">
        <ele>1067.2006836</ele>
        <time>2009-05-31T08:33:30Z</time>
      </trkpt>
      <trkpt lat="43.9147" lon="7.23159">
        <ele>1069.604248</ele>
        <time>2009-05-31T08:33:37Z</time>
      </trkpt>
      <trkpt lat="43.91458" lon="7.23161">
        <ele>1072.0073242</ele>
        <time>2009-05-31T08:33:42Z</time>
      </trkpt>
      <trkpt lat="43.91449" lon="7.23154">
        <ele>1072.0073242</ele>
        <time>2009-05-31T08:33:48Z</time>
      </trkpt>
      <trkpt lat="43.9144" lon="7.23149">
        <ele>1074.4106445</ele>
        <time>2009-05-31T08:33:54Z</time>
      </trkpt>
      <trkpt lat="43.91438" lon="7.23148">
        <ele>1075.3718262</ele>
        <time>2009-05-31T08:33:58Z</time>
      </trkpt>
      <trkpt lat="43.91438" lon="7.23148">
        <ele>1075.8525391</ele>
        <time>2009-05-31T08:34:05Z</time>
      </trkpt>
      <trkpt lat="43.91437" lon="7.23149">
        <ele>1075.8525391</ele>
        <time>2009-05-31T08:34:16Z</time>
      </trkpt>
      <trkpt lat="43.91435" lon="7.23149">
        <ele>1075.8525391</ele>
        <time>2009-05-31T08:34:24Z</time>
      </trkpt>
      <trkpt lat="43.9143" lon="7.23147">
        <ele>1076.333252</ele>
        <time>2009-05-31T08:34:30Z</time>
      </trkpt>
      <trkpt lat="43.91429" lon="7.23146">
        <ele>1076.333252</ele>
        <time>2009-05-31T08:34:31Z</time>
      </trkpt>
      <trkpt lat="43.91425" lon="7.23141">
        <ele>1077.2946777</ele>
        <time>2009-05-31T08:34:35Z</time>
      </trkpt>
      <trkpt lat="43.91415" lon="7.2313">
        <ele>1080.1784668</ele>
        <time>2009-05-31T08:34:45Z</time>
      </trkpt>
      <trkpt lat="43.91409" lon="7.23124">
        <ele>1082.5817871</ele>
        <time>2009-05-31T08:34:52Z</time>
      </trkpt>
      <trkpt lat="43.91404" lon="7.23118">
        <ele>1082.5817871</ele>
        <time>2009-05-31T08:34:59Z</time>
      </trkpt>
      <trkpt lat="43.91403" lon="7.2312">
        <ele>1083.5429688</ele>
        <time>2009-05-31T08:35:02Z</time>
      </trkpt>
      <trkpt lat="43.91406" lon="7.23133">
        <ele>1084.9853516</ele>
        <time>2009-05-31T08:35:12Z</time>
      </trkpt>
      <trkpt lat="43.91406" lon="7.23138">
        <ele>1086.4272461</ele>
        <time>2009-05-31T08:35:16Z</time>
      </trkpt>
      <trkpt lat="43.91404" lon="7.23153">
        <ele>1087.3884277</ele>
        <time>2009-05-31T08:35:27Z</time>
      </trkpt>
      <trkpt lat="43.91401" lon="7.23153">
        <ele>1087.3884277</ele>
        <time>2009-05-31T08:35:32Z</time>
      </trkpt>
      <trkpt lat="43.91396" lon="7.23146">
        <ele>1089.3110352</ele>
        <time>2009-05-31T08:35:40Z</time>
      </trkpt>
      <trkpt lat="43.9139" lon="7.23137">
        <ele>1091.7143555</ele>
        <time>2009-05-31T08:35:49Z</time>
      </trkpt>
      <trkpt lat="43.91387" lon="7.23128">
        <ele>1092.6757812</ele>
        <time>2009-05-31T08:35:56Z</time>
      </trkpt>
      <trkpt lat="43.91379" lon="7.23116">
        <ele>1092.6757812</ele>
        <time>2009-05-31T08:36:06Z</time>
      </trkpt>
      <trkpt lat="43.91378" lon="7.23119">
        <ele>1093.6369629</ele>
        <time>2009-05-31T08:36:12Z</time>
      </trkpt>
      <trkpt lat="43.91378" lon="7.23127">
        <ele>1094.1176758</ele>
        <time>2009-05-31T08:36:19Z</time>
      </trkpt>
      <trkpt lat="43.91379" lon="7.23138">
        <ele>1095.5595703</ele>
        <time>2009-05-31T08:36:27Z</time>
      </trkpt>
      <trkpt lat="43.91377" lon="7.23152">
        <ele>1096.5209961</ele>
        <time>2009-05-31T08:36:36Z</time>
      </trkpt>
      <trkpt lat="43.91376" lon="7.23153">
        <ele>1097.0014648</ele>
        <time>2009-05-31T08:36:38Z</time>
      </trkpt>
      <trkpt lat="43.91374" lon="7.23152">
        <ele>1097.4821777</ele>
        <time>2009-05-31T08:36:40Z</time>
      </trkpt>
      <trkpt lat="43.9137" lon="7.23142">
        <ele>1097.9628906</ele>
        <time>2009-05-31T08:36:48Z</time>
      </trkpt>
      <trkpt lat="43.91363" lon="7.23132">
        <ele>1099.885498</ele>
        <time>2009-05-31T08:36:56Z</time>
      </trkpt>
      <trkpt lat="43.91355" lon="7.23125">
        <ele>1101.3276367</ele>
        <time>2009-05-31T08:37:05Z</time>
      </trkpt>
      <trkpt lat="43.91355" lon="7.23128">
        <ele>1102.7695312</ele>
        <time>2009-05-31T08:37:09Z</time>
      </trkpt>
      <trkpt lat="43.91357" lon="7.2314">
        <ele>1103.730957</ele>
        <time>2009-05-31T08:37:17Z</time>
      </trkpt>
      <trkpt lat="43.91354" lon="7.23146">
        <ele>1102.7695312</ele>
        <time>2009-05-31T08:37:24Z</time>
      </trkpt>
      <trkpt lat="43.9135" lon="7.23148">
        <ele>1105.1728516</ele>
        <time>2009-05-31T08:37:31Z</time>
      </trkpt>
      <trkpt lat="43.91346" lon="7.23142">
        <ele>1107.095459</ele>
        <time>2009-05-31T08:37:38Z</time>
      </trkpt>
      <trkpt lat="43.9134" lon="7.23135">
        <ele>1109.4987793</ele>
        <time>2009-05-31T08:37:46Z</time>
      </trkpt>
      <trkpt lat="43.91336" lon="7.23136">
        <ele>1109.4987793</ele>
        <time>2009-05-31T08:37:52Z</time>
      </trkpt>
      <trkpt lat="43.91336" lon="7.2314">
        <ele>1110.4599609</ele>
        <time>2009-05-31T08:37:58Z</time>
      </trkpt>
      <trkpt lat="43.91337" lon="7.23141">
        <ele>1109.4987793</ele>
        <time>2009-05-31T08:38:00Z</time>
      </trkpt>
      <trkpt lat="43.91335" lon="7.23146">
        <ele>1110.9406738</ele>
        <time>2009-05-31T08:38:06Z</time>
      </trkpt>
      <trkpt lat="43.9133" lon="7.23147">
        <ele>1112.8632812</ele>
        <time>2009-05-31T08:38:15Z</time>
      </trkpt>
      <trkpt lat="43.91326" lon="7.23145">
        <ele>1116.2280273</ele>
        <time>2009-05-31T08:38:22Z</time>
      </trkpt>
      <trkpt lat="43.91325" lon="7.23144">
        <ele>1115.2666016</ele>
        <time>2009-05-31T08:38:24Z</time>
      </trkpt>
      <trkpt lat="43.91322" lon="7.23141">
        <ele>1115.7473145</ele>
        <time>2009-05-31T08:38:27Z</time>
      </trkpt>
      <trkpt lat="43.91315" lon="7.23137">
        <ele>1117.1894531</ele>
        <time>2009-05-31T08:38:35Z</time>
      </trkpt>
      <trkpt lat="43.9131" lon="7.23136">
        <ele>1118.1506348</ele>
        <time>2009-05-31T08:38:42Z</time>
      </trkpt>
      <trkpt lat="43.91311" lon="7.23141">
        <ele>1120.5539551</ele>
        <time>2009-05-31T08:38:49Z</time>
      </trkpt>
      <trkpt lat="43.91313" lon="7.23144">
        <ele>1120.0732422</ele>
        <time>2009-05-31T08:38:52Z</time>
      </trkpt>
      <trkpt lat="43.91313" lon="7.23151">
        <ele>1119.5927734</ele>
        <time>2009-05-31T08:38:59Z</time>
      </trkpt>
      <trkpt lat="43.9131" lon="7.23153">
        <ele>1121.034668</ele>
        <time>2009-05-31T08:39:05Z</time>
      </trkpt>
      <trkpt lat="43.91309" lon="7.23153">
        <ele>1122.4765625</ele>
        <time>2009-05-31T08:39:07Z</time>
      </trkpt>
      <trkpt lat="43.91305" lon="7.23154">
        <ele>1123.918457</ele>
        <time>2009-05-31T08:39:14Z</time>
      </trkpt>
      <trkpt lat="43.91302" lon="7.23154">
        <ele>1124.8798828</ele>
        <time>2009-05-31T08:39:21Z</time>
      </trkpt>
      <trkpt lat="43.91296" lon="7.23152">
        <ele>1127.2832031</ele>
        <time>2009-05-31T08:39:31Z</time>
      </trkpt>
      <trkpt lat="43.91292" lon="7.23153">
        <ele>1127.7636719</ele>
        <time>2009-05-31T08:39:39Z</time>
      </trkpt>
      <trkpt lat="43.91287" lon="7.2315">
        <ele>1129.6862793</ele>
        <time>2009-05-31T08:39:47Z</time>
      </trkpt>
      <trkpt lat="43.9128" lon="7.2314">
        <ele>1130.1669922</ele>
        <time>2009-05-31T08:39:57Z</time>
      </trkpt>
      <trkpt lat="43.91279" lon="7.23135">
        <ele>1131.6088867</ele>
        <time>2009-05-31T08:40:03Z</time>
      </trkpt>
      <trkpt lat="43.91278" lon="7.23136">
        <ele>1132.5705566</ele>
        <time>2009-05-31T08:40:09Z</time>
      </trkpt>
      <trkpt lat="43.91276" lon="7.23141">
        <ele>1132.5705566</ele>
        <time>2009-05-31T08:40:15Z</time>
      </trkpt>
      <trkpt lat="43.91274" lon="7.23139">
        <ele>1134.4931641</ele>
        <time>2009-05-31T08:40:21Z</time>
      </trkpt>
      <trkpt lat="43.91271" lon="7.23141">
        <ele>1135.9350586</ele>
        <time>2009-05-31T08:40:28Z</time>
      </trkpt>
      <trkpt lat="43.9127" lon="7.23145">
        <ele>1135.9350586</ele>
        <time>2009-05-31T08:40:33Z</time>
      </trkpt>
      <trkpt lat="43.9127" lon="7.23151">
        <ele>1137.3769531</ele>
        <time>2009-05-31T08:40:39Z</time>
      </trkpt>
      <trkpt lat="43.9127" lon="7.23162">
        <ele>1137.3769531</ele>
        <time>2009-05-31T08:40:48Z</time>
      </trkpt>
      <trkpt lat="43.91267" lon="7.23175">
        <ele>1138.3383789</ele>
        <time>2009-05-31T08:40:58Z</time>
      </trkpt>
      <trkpt lat="43.91265" lon="7.23171">
        <ele>1139.7802734</ele>
        <time>2009-05-31T08:41:03Z</time>
      </trkpt>
      <trkpt lat="43.91261" lon="7.23163">
        <ele>1140.7414551</ele>
        <time>2009-05-31T08:41:12Z</time>
      </trkpt>
      <trkpt lat="43.91254" lon="7.23151">
        <ele>1143.1447754</ele>
        <time>2009-05-31T08:41:22Z</time>
      </trkpt>
      <trkpt lat="43.9125" lon="7.23141">
        <ele>1144.5866699</ele>
        <time>2009-05-31T08:41:31Z</time>
      </trkpt>
      <trkpt lat="43.91249" lon="7.23148">
        <ele>1144.1062012</ele>
        <time>2009-05-31T08:41:38Z</time>
      </trkpt>
      <trkpt lat="43.91249" lon="7.23153">
        <ele>1145.0673828</ele>
        <time>2009-05-31T08:41:42Z</time>
      </trkpt>
      <trkpt lat="43.9125" lon="7.2316">
        <ele>1145.5480957</ele>
        <time>2009-05-31T08:41:47Z</time>
      </trkpt>
      <trkpt lat="43.9125" lon="7.23165">
        <ele>1146.5095215</ele>
        <time>2009-05-31T08:41:51Z</time>
      </trkpt>
      <trkpt lat="43.91249" lon="7.23174">
        <ele>1146.9899902</ele>
        <time>2009-05-31T08:41:58Z</time>
      </trkpt>
      <trkpt lat="43.91244" lon="7.23185">
        <ele>1148.9128418</ele>
        <time>2009-05-31T08:42:07Z</time>
      </trkpt>
      <trkpt lat="43.91242" lon="7.23179">
        <ele>1151.3161621</ele>
        <time>2009-05-31T08:42:13Z</time>
      </trkpt>
      <trkpt lat="43.91239" lon="7.23172">
        <ele>1152.2773438</ele>
        <time>2009-05-31T08:42:21Z</time>
      </trkpt>
      <trkpt lat="43.91235" lon="7.23166">
        <ele>1152.7580566</ele>
        <time>2009-05-31T08:42:27Z</time>
      </trkpt>
      <trkpt lat="43.91235" lon="7.23164">
        <ele>1153.7194824</ele>
        <time>2009-05-31T08:42:28Z</time>
      </trkpt>
      <trkpt lat="43.91231" lon="7.23161">
        <ele>1153.2387695</ele>
        <time>2009-05-31T08:42:35Z</time>
      </trkpt>
      <trkpt lat="43.91231" lon="7.23165">
        <ele>1154.2001953</ele>
        <time>2009-05-31T08:42:41Z</time>
      </trkpt>
      <trkpt lat="43.91231" lon="7.23168">
        <ele>1155.161377</ele>
        <time>2009-05-31T08:42:43Z</time>
      </trkpt>
      <trkpt lat="43.91231" lon="7.23177">
        <ele>1156.1225586</ele>
        <time>2009-05-31T08:42:49Z</time>
      </trkpt>
      <trkpt lat="43.91227" lon="7.23191">
        <ele>1157.0839844</ele>
        <time>2009-05-31T08:42:59Z</time>
      </trkpt>
      <trkpt lat="43.91221" lon="7.232">
        <ele>1158.5258789</ele>
        <time>2009-05-31T08:43:08Z</time>
      </trkpt>
      <trkpt lat="43.91218" lon="7.23203">
        <ele>1159.0065918</ele>
        <time>2009-05-31T08:43:15Z</time>
      </trkpt>
      <trkpt lat="43.91212" lon="7.23204">
        <ele>1159.4873047</ele>
        <time>2009-05-31T08:43:22Z</time>
      </trkpt>
      <trkpt lat="43.91207" lon="7.23206">
        <ele>1161.890625</ele>
        <time>2009-05-31T08:43:28Z</time>
      </trkpt>
      <trkpt lat="43.91201" lon="7.2321">
        <ele>1163.3325195</ele>
        <time>2009-05-31T08:43:36Z</time>
      </trkpt>
      <trkpt lat="43.91194" lon="7.23213">
        <ele>1164.7746582</ele>
        <time>2009-05-31T08:43:44Z</time>
      </trkpt>
      <trkpt lat="43.91187" lon="7.23216">
        <ele>1166.2165527</ele>
        <time>2009-05-31T08:43:52Z</time>
      </trkpt>
      <trkpt lat="43.91185" lon="7.23216">
        <ele>1167.6584473</ele>
        <time>2009-05-31T08:43:55Z</time>
      </trkpt>
      <trkpt lat="43.9118" lon="7.23215">
        <ele>1168.619873</ele>
        <time>2009-05-31T08:44:02Z</time>
      </trkpt>
      <trkpt lat="43.91175" lon="7.23215">
        <ele>1167.1779785</ele>
        <time>2009-05-31T08:44:09Z</time>
      </trkpt>
      <trkpt lat="43.91174" lon="7.23215">
        <ele>1168.1391602</ele>
        <time>2009-05-31T08:44:10Z</time>
      </trkpt>
      <trkpt lat="43.91167" lon="7.23218">
        <ele>1168.619873</ele>
        <time>2009-05-31T08:44:15Z</time>
      </trkpt>
      <trkpt lat="43.91151" lon="7.23214">
        <ele>1169.5812988</ele>
        <time>2009-05-31T08:44:24Z</time>
      </trkpt>
      <trkpt lat="43.91138" lon="7.23202">
        <ele>1170.5424805</ele>
        <time>2009-05-31T08:44:32Z</time>
      </trkpt>
      <trkpt lat="43.91127" lon="7.23185">
        <ele>1171.5036621</ele>
        <time>2009-05-31T08:44:40Z</time>
      </trkpt>
      <trkpt lat="43.91119" lon="7.23168">
        <ele>1172.4650879</ele>
        <time>2009-05-31T08:44:47Z</time>
      </trkpt>
      <trkpt lat="43.91118" lon="7.23162">
        <ele>1173.4265137</ele>
        <time>2009-05-31T08:44:49Z</time>
      </trkpt>
      <trkpt lat="43.91115" lon="7.23135">
        <ele>1175.348877</ele>
        <time>2009-05-31T08:44:57Z</time>
      </trkpt>
      <trkpt lat="43.91113" lon="7.23109">
        <ele>1176.3103027</ele>
        <time>2009-05-31T08:45:04Z</time>
      </trkpt>
      <trkpt lat="43.91109" lon="7.2308">
        <ele>1178.2329102</ele>
        <time>2009-05-31T08:45:12Z</time>
      </trkpt>
      <trkpt lat="43.911" lon="7.23055">
        <ele>1178.713623</ele>
        <time>2009-05-31T08:45:20Z</time>
      </trkpt>
      <trkpt lat="43.91092" lon="7.23036">
        <ele>1180.1557617</ele>
        <time>2009-05-31T08:45:27Z</time>
      </trkpt>
      <trkpt lat="43.91085" lon="7.23025">
        <ele>1179.6748047</ele>
        <time>2009-05-31T08:45:33Z</time>
      </trkpt>
      <trkpt lat="43.91081" lon="7.23011">
        <ele>1179.1940918</ele>
        <time>2009-05-31T08:45:39Z</time>
      </trkpt>
      <trkpt lat="43.91073" lon="7.22993">
        <ele>1180.1557617</ele>
        <time>2009-05-31T08:45:44Z</time>
      </trkpt>
      <trkpt lat="43.91066" lon="7.22969">
        <ele>1181.1171875</ele>
        <time>2009-05-31T08:45:50Z</time>
      </trkpt>
      <trkpt lat="43.91055" lon="7.22941">
        <ele>1181.5976562</ele>
        <time>2009-05-31T08:45:59Z</time>
      </trkpt>
      <trkpt lat="43.9104" lon="7.22922">
        <ele>1180.6364746</ele>
        <time>2009-05-31T08:46:05Z</time>
      </trkpt>
      <trkpt lat="43.91033" lon="7.22909">
        <ele>1179.1940918</ele>
        <time>2009-05-31T08:46:08Z</time>
      </trkpt>
      <trkpt lat="43.91032" lon="7.22908">
        <ele>1180.1557617</ele>
        <time>2009-05-31T08:46:11Z</time>
      </trkpt>
      <trkpt lat="43.91032" lon="7.22908">
        <ele>1177.7521973</ele>
        <time>2009-05-31T08:46:15Z</time>
      </trkpt>
      <trkpt lat="43.91033" lon="7.2291">
        <ele>1181.1171875</ele>
        <time>2009-05-31T08:48:17Z</time>
      </trkpt>
      <trkpt lat="43.91034" lon="7.22908">
        <ele>1180.1557617</ele>
        <time>2009-05-31T08:49:56Z</time>
      </trkpt>
      <trkpt lat="43.91033" lon="7.22908">
        <ele>1179.6748047</ele>
        <time>2009-05-31T08:50:00Z</time>
      </trkpt>
      <trkpt lat="43.91027" lon="7.22904">
        <ele>1180.6364746</ele>
        <time>2009-05-31T08:50:03Z</time>
      </trkpt>
      <trkpt lat="43.91003" lon="7.22873">
        <ele>1180.6364746</ele>
        <time>2009-05-31T08:50:10Z</time>
      </trkpt>
      <trkpt lat="43.90996" lon="7.22864">
        <ele>1180.6364746</ele>
        <time>2009-05-31T08:50:12Z</time>
      </trkpt>
      <trkpt lat="43.90984" lon="7.22855">
        <ele>1180.1557617</ele>
        <time>2009-05-31T08:50:15Z</time>
      </trkpt>
      <trkpt lat="43.90977" lon="7.22843">
        <ele>1181.1171875</ele>
        <time>2009-05-31T08:50:19Z</time>
      </trkpt>
      <trkpt lat="43.90976" lon="7.2284">
        <ele>1181.1171875</ele>
        <time>2009-05-31T08:50:24Z</time>
      </trkpt>
      <trkpt lat="43.90975" lon="7.22833">
        <ele>1180.6364746</ele>
        <time>2009-05-31T08:50:29Z</time>
      </trkpt>
      <trkpt lat="43.90975" lon="7.22828">
        <ele>1181.5976562</ele>
        <time>2009-05-31T08:50:35Z</time>
      </trkpt>
      <trkpt lat="43.90974" lon="7.22824">
        <ele>1181.1171875</ele>
        <time>2009-05-31T08:50:40Z</time>
      </trkpt>
      <trkpt lat="43.90973" lon="7.22818">
        <ele>1180.1557617</ele>
        <time>2009-05-31T08:50:43Z</time>
      </trkpt>
      <trkpt lat="43.9097" lon="7.2281">
        <ele>1178.713623</ele>
        <time>2009-05-31T08:50:49Z</time>
      </trkpt>
      <trkpt lat="43.90967" lon="7.22802">
        <ele>1178.2329102</ele>
        <time>2009-05-31T08:50:55Z</time>
      </trkpt>
      <trkpt lat="43.90965" lon="7.22798">
        <ele>1176.7910156</ele>
        <time>2009-05-31T08:50:59Z</time>
      </trkpt>
      <trkpt lat="43.90964" lon="7.22793">
        <ele>1172.4650879</ele>
        <time>2009-05-31T08:51:03Z</time>
      </trkpt>
      <trkpt lat="43.90964" lon="7.22792">
        <ele>1177.2717285</ele>
        <time>2009-05-31T08:51:04Z</time>
      </trkpt>
      <trkpt lat="43.90962" lon="7.22786">
        <ele>1171.5036621</ele>
        <time>2009-05-31T08:51:08Z</time>
      </trkpt>
      <trkpt lat="43.90961" lon="7.22785">
        <ele>1172.4650879</ele>
        <time>2009-05-31T08:51:09Z</time>
      </trkpt>
      <trkpt lat="43.90958" lon="7.22783">
        <ele>1170.5424805</ele>
        <time>2009-05-31T08:51:13Z</time>
      </trkpt>
      <trkpt lat="43.90957" lon="7.22771">
        <ele>1169.5812988</ele>
        <time>2009-05-31T08:51:20Z</time>
      </trkpt>
      <trkpt lat="43.90955" lon="7.22756">
        <ele>1170.5424805</ele>
        <time>2009-05-31T08:51:28Z</time>
      </trkpt>
      <trkpt lat="43.90955" lon="7.22753">
        <ele>1171.0231934</ele>
        <time>2009-05-31T08:51:30Z</time>
      </trkpt>
      <trkpt lat="43.90955" lon="7.22748">
        <ele>1171.5036621</ele>
        <time>2009-05-31T08:51:33Z</time>
      </trkpt>
      <trkpt lat="43.90951" lon="7.2274">
        <ele>1170.0617676</ele>
        <time>2009-05-31T08:51:41Z</time>
      </trkpt>
      <trkpt lat="43.90948" lon="7.22734">
        <ele>1167.1779785</ele>
        <time>2009-05-31T08:51:47Z</time>
      </trkpt>
      <trkpt lat="43.90947" lon="7.22725">
        <ele>1167.6584473</ele>
        <time>2009-05-31T08:51:53Z</time>
      </trkpt>
      <trkpt lat="43.90943" lon="7.22719">
        <ele>1164.7746582</ele>
        <time>2009-05-31T08:52:00Z</time>
      </trkpt>
      <trkpt lat="43.90937" lon="7.22712">
        <ele>1162.8518066</ele>
        <time>2009-05-31T08:52:07Z</time>
      </trkpt>
      <trkpt lat="43.90933" lon="7.22702">
        <ele>1161.890625</ele>
        <time>2009-05-31T08:52:14Z</time>
      </trkpt>
      <trkpt lat="43.90933" lon="7.22701">
        <ele>1160.9291992</ele>
        <time>2009-05-31T08:52:15Z</time>
      </trkpt>
      <trkpt lat="43.9093" lon="7.22692">
        <ele>1160.4484863</ele>
        <time>2009-05-31T08:52:21Z</time>
      </trkpt>
      <trkpt lat="43.90929" lon="7.22689">
        <ele>1159.9677734</ele>
        <time>2009-05-31T08:52:24Z</time>
      </trkpt>
      <trkpt lat="43.90924" lon="7.22682">
        <ele>1159.0065918</ele>
        <time>2009-05-31T08:52:29Z</time>
      </trkpt>
      <trkpt lat="43.90919" lon="7.22676">
        <ele>1158.0454102</ele>
        <time>2009-05-31T08:52:33Z</time>
      </trkpt>
      <trkpt lat="43.9091" lon="7.22668">
        <ele>1155.161377</ele>
        <time>2009-05-31T08:52:37Z</time>
      </trkpt>
      <trkpt lat="43.90902" lon="7.22662">
        <ele>1154.2001953</ele>
        <time>2009-05-31T08:52:40Z</time>
      </trkpt>
      <trkpt lat="43.9089" lon="7.22653">
        <ele>1151.3161621</ele>
        <time>2009-05-31T08:52:44Z</time>
      </trkpt>
      <trkpt lat="43.90888" lon="7.22652">
        <ele>1149.8742676</ele>
        <time>2009-05-31T08:52:45Z</time>
      </trkpt>
      <trkpt lat="43.9088" lon="7.22652">
        <ele>1145.5480957</ele>
        <time>2009-05-31T08:52:48Z</time>
      </trkpt>
      <trkpt lat="43.90872" lon="7.22647">
        <ele>1142.6643066</ele>
        <time>2009-05-31T08:52:51Z</time>
      </trkpt>
      <trkpt lat="43.90864" lon="7.22639">
        <ele>1140.7414551</ele>
        <time>2009-05-31T08:52:55Z</time>
      </trkpt>
      <trkpt lat="43.90858" lon="7.22635">
        <ele>1138.8190918</ele>
        <time>2009-05-31T08:52:59Z</time>
      </trkpt>
      <trkpt lat="43.90856" lon="7.22633">
        <ele>1137.3769531</ele>
        <time>2009-05-31T08:53:02Z</time>
      </trkpt>
      <trkpt lat="43.90846" lon="7.22629">
        <ele>1134.973877</ele>
        <time>2009-05-31T08:53:06Z</time>
      </trkpt>
      <trkpt lat="43.90838" lon="7.22625">
        <ele>1130.6477051</ele>
        <time>2009-05-31T08:53:09Z</time>
      </trkpt>
      <trkpt lat="43.9083" lon="7.22616">
        <ele>1126.8024902</ele>
        <time>2009-05-31T08:53:12Z</time>
      </trkpt>
      <trkpt lat="43.90826" lon="7.22614">
        <ele>1126.8024902</ele>
        <time>2009-05-31T08:53:13Z</time>
      </trkpt>
      <trkpt lat="43.90818" lon="7.22605">
        <ele>1123.4379883</ele>
        <time>2009-05-31T08:53:16Z</time>
      </trkpt>
      <trkpt lat="43.90815" lon="7.22601">
        <ele>1122.9572754</ele>
        <time>2009-05-31T08:53:17Z</time>
      </trkpt>
      <trkpt lat="43.908" lon="7.2258">
        <ele>1121.5151367</ele>
        <time>2009-05-31T08:53:22Z</time>
      </trkpt>
      <trkpt lat="43.90789" lon="7.22568">
        <ele>1118.1506348</ele>
        <time>2009-05-31T08:53:26Z</time>
      </trkpt>
      <trkpt lat="43.90785" lon="7.22564">
        <ele>1117.6699219</ele>
        <time>2009-05-31T08:53:27Z</time>
      </trkpt>
      <trkpt lat="43.90773" lon="7.22553">
        <ele>1114.7858887</ele>
        <time>2009-05-31T08:53:31Z</time>
      </trkpt>
      <trkpt lat="43.90769" lon="7.22548">
        <ele>1113.8244629</ele>
        <time>2009-05-31T08:53:33Z</time>
      </trkpt>
      <trkpt lat="43.90765" lon="7.22544">
        <ele>1112.8632812</ele>
        <time>2009-05-31T08:53:37Z</time>
      </trkpt>
      <trkpt lat="43.90761" lon="7.22541">
        <ele>1111.9020996</ele>
        <time>2009-05-31T08:53:39Z</time>
      </trkpt>
      <trkpt lat="43.90759" lon="7.22538">
        <ele>1112.3825684</ele>
        <time>2009-05-31T08:53:40Z</time>
      </trkpt>
      <trkpt lat="43.90757" lon="7.22533">
        <ele>1112.8632812</ele>
        <time>2009-05-31T08:53:44Z</time>
      </trkpt>
      <trkpt lat="43.90752" lon="7.22531">
        <ele>1112.3825684</ele>
        <time>2009-05-31T08:53:52Z</time>
      </trkpt>
      <trkpt lat="43.90748" lon="7.22527">
        <ele>1110.4599609</ele>
        <time>2009-05-31T08:53:58Z</time>
      </trkpt>
      <trkpt lat="43.90746" lon="7.22526">
        <ele>1109.0180664</ele>
        <time>2009-05-31T08:54:01Z</time>
      </trkpt>
      <trkpt lat="43.90742" lon="7.22524">
        <ele>1107.095459</ele>
        <time>2009-05-31T08:54:04Z</time>
      </trkpt>
      <trkpt lat="43.90734" lon="7.22518">
        <ele>1104.6921387</ele>
        <time>2009-05-31T08:54:08Z</time>
      </trkpt>
      <trkpt lat="43.9072" lon="7.22506">
        <ele>1101.8083496</ele>
        <time>2009-05-31T08:54:13Z</time>
      </trkpt>
      <trkpt lat="43.90711" lon="7.225">
        <ele>1100.3664551</ele>
        <time>2009-05-31T08:54:17Z</time>
      </trkpt>
      <trkpt lat="43.90706" lon="7.22498">
        <ele>1098.4433594</ele>
        <time>2009-05-31T08:54:19Z</time>
      </trkpt>
      <trkpt lat="43.90694" lon="7.22491">
        <ele>1094.5981445</ele>
        <time>2009-05-31T08:54:23Z</time>
      </trkpt>
      <trkpt lat="43.90691" lon="7.22486">
        <ele>1093.15625</ele>
        <time>2009-05-31T08:54:25Z</time>
      </trkpt>
      <trkpt lat="43.90681" lon="7.22474">
        <ele>1090.2724609</ele>
        <time>2009-05-31T08:54:31Z</time>
      </trkpt>
      <trkpt lat="43.90673" lon="7.22469">
        <ele>1087.3884277</ele>
        <time>2009-05-31T08:54:34Z</time>
      </trkpt>
      <trkpt lat="43.90665" lon="7.22459">
        <ele>1084.0239258</ele>
        <time>2009-05-31T08:54:39Z</time>
      </trkpt>
      <trkpt lat="43.90659" lon="7.22448">
        <ele>1080.6591797</ele>
        <time>2009-05-31T08:54:42Z</time>
      </trkpt>
      <trkpt lat="43.90654" lon="7.22447">
        <ele>1078.2558594</ele>
        <time>2009-05-31T08:54:45Z</time>
      </trkpt>
      <trkpt lat="43.90649" lon="7.22449">
        <ele>1076.8139648</ele>
        <time>2009-05-31T08:54:47Z</time>
      </trkpt>
      <trkpt lat="43.9064" lon="7.22449">
        <ele>1072.4880371</ele>
        <time>2009-05-31T08:54:51Z</time>
      </trkpt>
      <trkpt lat="43.90632" lon="7.22462">
        <ele>1070.0847168</ele>
        <time>2009-05-31T08:54:55Z</time>
      </trkpt>
      <trkpt lat="43.90631" lon="7.22468">
        <ele>1069.1235352</ele>
        <time>2009-05-31T08:54:56Z</time>
      </trkpt>
      <trkpt lat="43.90624" lon="7.22489">
        <ele>1063.3554688</ele>
        <time>2009-05-31T08:55:00Z</time>
      </trkpt>
      <trkpt lat="43.90618" lon="7.2251">
        <ele>1059.5102539</ele>
        <time>2009-05-31T08:55:03Z</time>
      </trkpt>
      <trkpt lat="43.90614" lon="7.22529">
        <ele>1056.6262207</ele>
        <time>2009-05-31T08:55:06Z</time>
      </trkpt>
      <trkpt lat="43.90613" lon="7.22534">
        <ele>1055.6650391</ele>
        <time>2009-05-31T08:55:07Z</time>
      </trkpt>
      <trkpt lat="43.9061" lon="7.22545">
        <ele>1053.7424316</ele>
        <time>2009-05-31T08:55:09Z</time>
      </trkpt>
      <trkpt lat="43.90606" lon="7.22547">
        <ele>1051.8195801</ele>
        <time>2009-05-31T08:55:11Z</time>
      </trkpt>
      <trkpt lat="43.906" lon="7.22541">
        <ele>1047.4936523</ele>
        <time>2009-05-31T08:55:13Z</time>
      </trkpt>
      <trkpt lat="43.90582" lon="7.22515">
        <ele>1044.6096191</ele>
        <time>2009-05-31T08:55:18Z</time>
      </trkpt>
      <trkpt lat="43.90578" lon="7.22509">
        <ele>1043.6484375</ele>
        <time>2009-05-31T08:55:19Z</time>
      </trkpt>
      <trkpt lat="43.90572" lon="7.22499">
        <ele>1041.2451172</ele>
        <time>2009-05-31T08:55:21Z</time>
      </trkpt>
      <trkpt lat="43.90563" lon="7.22489">
        <ele>1036.9191895</ele>
        <time>2009-05-31T08:55:24Z</time>
      </trkpt>
      <trkpt lat="43.9056" lon="7.225">
        <ele>1035.4770508</ele>
        <time>2009-05-31T08:55:27Z</time>
      </trkpt>
      <trkpt lat="43.90559" lon="7.2252">
        <ele>1032.5932617</ele>
        <time>2009-05-31T08:55:30Z</time>
      </trkpt>
      <trkpt lat="43.90558" lon="7.22543">
        <ele>1028.267334</ele>
        <time>2009-05-31T08:55:34Z</time>
      </trkpt>
      <trkpt lat="43.90558" lon="7.22556">
        <ele>1024.902832</ele>
        <time>2009-05-31T08:55:36Z</time>
      </trkpt>
      <trkpt lat="43.90558" lon="7.22562">
        <ele>1023.9414062</ele>
        <time>2009-05-31T08:55:37Z</time>
      </trkpt>
      <trkpt lat="43.90553" lon="7.22566">
        <ele>1021.5380859</ele>
        <time>2009-05-31T08:55:40Z</time>
      </trkpt>
      <trkpt lat="43.90548" lon="7.22558">
        <ele>1020.5769043</ele>
        <time>2009-05-31T08:55:42Z</time>
      </trkpt>
      <trkpt lat="43.90538" lon="7.2254">
        <ele>1016.2507324</ele>
        <time>2009-05-31T08:55:45Z</time>
      </trkpt>
      <trkpt lat="43.90531" lon="7.22527">
        <ele>1014.8088379</ele>
        <time>2009-05-31T08:55:47Z</time>
      </trkpt>
      <trkpt lat="43.90519" lon="7.22499">
        <ele>1010.963623</ele>
        <time>2009-05-31T08:55:51Z</time>
      </trkpt>
      <trkpt lat="43.90515" lon="7.22484">
        <ele>1010.4829102</ele>
        <time>2009-05-31T08:55:53Z</time>
      </trkpt>
      <trkpt lat="43.9051" lon="7.22458">
        <ele>1010.963623</ele>
        <time>2009-05-31T08:55:57Z</time>
      </trkpt>
      <trkpt lat="43.90497" lon="7.22437">
        <ele>1010.0021973</ele>
        <time>2009-05-31T08:56:01Z</time>
      </trkpt>
      <trkpt lat="43.90492" lon="7.22427">
        <ele>1007.5991211</ele>
        <time>2009-05-31T08:56:03Z</time>
      </trkpt>
      <trkpt lat="43.90488" lon="7.22413">
        <ele>1005.1958008</ele>
        <time>2009-05-31T08:56:07Z</time>
      </trkpt>
      <trkpt lat="43.90486" lon="7.22404">
        <ele>1003.2729492</ele>
        <time>2009-05-31T08:56:09Z</time>
      </trkpt>
      <trkpt lat="43.90475" lon="7.22386">
        <ele>999.4277344</ele>
        <time>2009-05-31T08:56:13Z</time>
      </trkpt>
      <trkpt lat="43.90465" lon="7.22384">
        <ele>997.505127</ele>
        <time>2009-05-31T08:56:15Z</time>
      </trkpt>
      <trkpt lat="43.90447" lon="7.22372">
        <ele>996.5439453</ele>
        <time>2009-05-31T08:56:19Z</time>
      </trkpt>
      <trkpt lat="43.90438" lon="7.22367">
        <ele>994.6210938</ele>
        <time>2009-05-31T08:56:21Z</time>
      </trkpt>
      <trkpt lat="43.90426" lon="7.22365">
        <ele>993.1791992</ele>
        <time>2009-05-31T08:56:23Z</time>
      </trkpt>
      <trkpt lat="43.90413" lon="7.22363">
        <ele>990.2954102</ele>
        <time>2009-05-31T08:56:25Z</time>
      </trkpt>
      <trkpt lat="43.90394" lon="7.22354">
        <ele>986.4499512</ele>
        <time>2009-05-31T08:56:28Z</time>
      </trkpt>
      <trkpt lat="43.90381" lon="7.22349">
        <ele>985.4885254</ele>
        <time>2009-05-31T08:56:30Z</time>
      </trkpt>
      <trkpt lat="43.90358" lon="7.22347">
        <ele>982.6047363</ele>
        <time>2009-05-31T08:56:33Z</time>
      </trkpt>
      <trkpt lat="43.90331" lon="7.22351">
        <ele>979.2399902</ele>
        <time>2009-05-31T08:56:36Z</time>
      </trkpt>
      <trkpt lat="43.90296" lon="7.22366">
        <ele>975.3947754</ele>
        <time>2009-05-31T08:56:40Z</time>
      </trkpt>
      <trkpt lat="43.90289" lon="7.22372">
        <ele>975.8754883</ele>
        <time>2009-05-31T08:56:41Z</time>
      </trkpt>
      <trkpt lat="43.90265" lon="7.22386">
        <ele>973.4724121</ele>
        <time>2009-05-31T08:56:44Z</time>
      </trkpt>
      <trkpt lat="43.90239" lon="7.22408">
        <ele>973.9528809</ele>
        <time>2009-05-31T08:56:48Z</time>
      </trkpt>
      <trkpt lat="43.90214" lon="7.22444">
        <ele>975.8754883</ele>
        <time>2009-05-31T08:56:54Z</time>
      </trkpt>
      <trkpt lat="43.90203" lon="7.22457">
        <ele>974.9143066</ele>
        <time>2009-05-31T08:56:57Z</time>
      </trkpt>
      <trkpt lat="43.90196" lon="7.22484">
        <ele>974.9143066</ele>
        <time>2009-05-31T08:57:01Z</time>
      </trkpt>
      <trkpt lat="43.90202" lon="7.22531">
        <ele>976.8369141</ele>
        <time>2009-05-31T08:57:08Z</time>
      </trkpt>
      <trkpt lat="43.90196" lon="7.2255">
        <ele>976.8369141</ele>
        <time>2009-05-31T08:57:12Z</time>
      </trkpt>
      <trkpt lat="43.90192" lon="7.22551">
        <ele>977.7980957</ele>
        <time>2009-05-31T08:57:14Z</time>
      </trkpt>
      <trkpt lat="43.90182" lon="7.22546">
        <ele>980.6821289</ele>
        <time>2009-05-31T08:57:21Z</time>
      </trkpt>
      <trkpt lat="43.9018" lon="7.22543">
        <ele>982.1240234</ele>
        <time>2009-05-31T08:57:23Z</time>
      </trkpt>
      <trkpt lat="43.90179" lon="7.22541">
        <ele>981.6433105</ele>
        <time>2009-05-31T08:57:24Z</time>
      </trkpt>
      <trkpt lat="43.9017" lon="7.22536">
        <ele>984.0466309</ele>
        <time>2009-05-31T08:57:32Z</time>
      </trkpt>
      <trkpt lat="43.90164" lon="7.2254">
        <ele>985.9692383</ele>
        <time>2009-05-31T08:57:39Z</time>
      </trkpt>
      <trkpt lat="43.90162" lon="7.22546">
        <ele>987.4111328</ele>
        <time>2009-05-31T08:57:44Z</time>
      </trkpt>
      <trkpt lat="43.90157" lon="7.22554">
        <ele>987.4111328</ele>
        <time>2009-05-31T08:57:51Z</time>
      </trkpt>
      <trkpt lat="43.90153" lon="7.22558">
        <ele>988.3728027</ele>
        <time>2009-05-31T08:57:57Z</time>
      </trkpt>
      <trkpt lat="43.9015" lon="7.22562">
        <ele>989.8146973</ele>
        <time>2009-05-31T08:58:04Z</time>
      </trkpt>
      <trkpt lat="43.90147" lon="7.22561">
        <ele>991.2565918</ele>
        <time>2009-05-31T08:58:11Z</time>
      </trkpt>
      <trkpt lat="43.90144" lon="7.2256">
        <ele>992.2180176</ele>
        <time>2009-05-31T08:58:17Z</time>
      </trkpt>
      <trkpt lat="43.9014" lon="7.22561">
        <ele>993.1791992</ele>
        <time>2009-05-31T08:58:21Z</time>
      </trkpt>
      <trkpt lat="43.90138" lon="7.2256">
        <ele>993.1791992</ele>
        <time>2009-05-31T08:58:29Z</time>
      </trkpt>
      <trkpt lat="43.90134" lon="7.22562">
        <ele>994.140625</ele>
        <time>2009-05-31T08:58:34Z</time>
      </trkpt>
      <trkpt lat="43.90132" lon="7.22561">
        <ele>995.1018066</ele>
        <time>2009-05-31T08:58:37Z</time>
      </trkpt>
      <trkpt lat="43.90129" lon="7.22561">
        <ele>996.0632324</ele>
        <time>2009-05-31T08:58:39Z</time>
      </trkpt>
      <trkpt lat="43.90124" lon="7.22558">
        <ele>997.505127</ele>
        <time>2009-05-31T08:58:44Z</time>
      </trkpt>
      <trkpt lat="43.90113" lon="7.22552">
        <ele>1000.3891602</ele>
        <time>2009-05-31T08:58:52Z</time>
      </trkpt>
      <trkpt lat="43.90102" lon="7.22549">
        <ele>1002.7922363</ele>
        <time>2009-05-31T08:59:01Z</time>
      </trkpt>
      <trkpt lat="43.90097" lon="7.22547">
        <ele>1003.2729492</ele>
        <time>2009-05-31T08:59:07Z</time>
      </trkpt>
      <trkpt lat="43.90093" lon="7.22544">
        <ele>1004.7150879</ele>
        <time>2009-05-31T08:59:11Z</time>
      </trkpt>
      <trkpt lat="43.9009" lon="7.22543">
        <ele>1004.7150879</ele>
        <time>2009-05-31T08:59:13Z</time>
      </trkpt>
      <trkpt lat="43.90083" lon="7.22541">
        <ele>1005.1958008</ele>
        <time>2009-05-31T08:59:20Z</time>
      </trkpt>
      <trkpt lat="43.90076" lon="7.22541">
        <ele>1006.1569824</ele>
        <time>2009-05-31T08:59:26Z</time>
      </trkpt>
      <trkpt lat="43.9007" lon="7.22542">
        <ele>1007.5991211</ele>
        <time>2009-05-31T08:59:33Z</time>
      </trkpt>
      <trkpt lat="43.90064" lon="7.22543">
        <ele>1009.5217285</ele>
        <time>2009-05-31T08:59:38Z</time>
      </trkpt>
      <trkpt lat="43.90064" lon="7.22543">
        <ele>1009.5217285</ele>
        <time>2009-05-31T08:59:39Z</time>
      </trkpt>
      <trkpt lat="43.90057" lon="7.22544">
        <ele>1010.963623</ele>
        <time>2009-05-31T08:59:46Z</time>
      </trkpt>
      <trkpt lat="43.90051" lon="7.22546">
        <ele>1011.4443359</ele>
        <time>2009-05-31T08:59:53Z</time>
      </trkpt>
      <trkpt lat="43.90045" lon="7.22546">
        <ele>1013.8474121</ele>
        <time>2009-05-31T08:59:59Z</time>
      </trkpt>
      <trkpt lat="43.90041" lon="7.22548">
        <ele>1013.8474121</ele>
        <time>2009-05-31T09:00:04Z</time>
      </trkpt>
      <trkpt lat="43.90037" lon="7.2255">
        <ele>1013.8474121</ele>
        <time>2009-05-31T09:00:10Z</time>
      </trkpt>
      <trkpt lat="43.90032" lon="7.22557">
        <ele>1014.8088379</ele>
        <time>2009-05-31T09:00:16Z</time>
      </trkpt>
      <trkpt lat="43.90029" lon="7.22566">
        <ele>1017.2121582</ele>
        <time>2009-05-31T09:00:21Z</time>
      </trkpt>
      <trkpt lat="43.90024" lon="7.22574">
        <ele>1019.1347656</ele>
        <time>2009-05-31T09:00:27Z</time>
      </trkpt>
      <trkpt lat="43.90017" lon="7.22581">
        <ele>1019.6154785</ele>
        <time>2009-05-31T09:00:33Z</time>
      </trkpt>
      <trkpt lat="43.90012" lon="7.22586">
        <ele>1020.5769043</ele>
        <time>2009-05-31T09:00:37Z</time>
      </trkpt>
      <trkpt lat="43.90002" lon="7.22589">
        <ele>1022.0187988</ele>
        <time>2009-05-31T09:00:45Z</time>
      </trkpt>
      <trkpt lat="43.89994" lon="7.2259">
        <ele>1022.4995117</ele>
        <time>2009-05-31T09:00:50Z</time>
      </trkpt>
      <trkpt lat="43.89988" lon="7.22601">
        <ele>1025.8640137</ele>
        <time>2009-05-31T09:00:56Z</time>
      </trkpt>
      <trkpt lat="43.89982" lon="7.22605">
        <ele>1027.3061523</ele>
        <time>2009-05-31T09:01:01Z</time>
      </trkpt>
      <trkpt lat="43.89971" lon="7.22611">
        <ele>1027.7866211</ele>
        <time>2009-05-31T09:01:08Z</time>
      </trkpt>
      <trkpt lat="43.8996" lon="7.22618">
        <ele>1029.2285156</ele>
        <time>2009-05-31T09:01:15Z</time>
      </trkpt>
      <trkpt lat="43.89949" lon="7.22623">
        <ele>1029.7092285</ele>
        <time>2009-05-31T09:01:22Z</time>
      </trkpt>
      <trkpt lat="43.89941" lon="7.22629">
        <ele>1029.2285156</ele>
        <time>2009-05-31T09:01:26Z</time>
      </trkpt>
      <trkpt lat="43.89936" lon="7.22638">
        <ele>1030.6706543</ele>
        <time>2009-05-31T09:01:31Z</time>
      </trkpt>
      <trkpt lat="43.8993" lon="7.22645">
        <ele>1032.5932617</ele>
        <time>2009-05-31T09:01:37Z</time>
      </trkpt>
      <trkpt lat="43.89923" lon="7.22654">
        <ele>1034.0351562</ele>
        <time>2009-05-31T09:01:43Z</time>
      </trkpt>
      <trkpt lat="43.89921" lon="7.22655">
        <ele>1034.5158691</ele>
        <time>2009-05-31T09:01:44Z</time>
      </trkpt>
      <trkpt lat="43.89918" lon="7.22659">
        <ele>1034.996582</ele>
        <time>2009-05-31T09:01:47Z</time>
      </trkpt>
      <trkpt lat="43.89912" lon="7.22666">
        <ele>1036.4387207</ele>
        <time>2009-05-31T09:01:53Z</time>
      </trkpt>
      <trkpt lat="43.89905" lon="7.22674">
        <ele>1039.3225098</ele>
        <time>2009-05-31T09:01:59Z</time>
      </trkpt>
      <trkpt lat="43.89899" lon="7.22679">
        <ele>1038.842041</ele>
        <time>2009-05-31T09:02:03Z</time>
      </trkpt>
      <trkpt lat="43.8989" lon="7.22687">
        <ele>1042.206543</ele>
        <time>2009-05-31T09:02:09Z</time>
      </trkpt>
      <trkpt lat="43.89877" lon="7.22697">
        <ele>1043.1677246</ele>
        <time>2009-05-31T09:02:19Z</time>
      </trkpt>
      <trkpt lat="43.89867" lon="7.22696">
        <ele>1044.1291504</ele>
        <time>2009-05-31T09:02:27Z</time>
      </trkpt>
      <trkpt lat="43.89859" lon="7.22691">
        <ele>1047.4936523</ele>
        <time>2009-05-31T09:02:33Z</time>
      </trkpt>
      <trkpt lat="43.89857" lon="7.2269">
        <ele>1047.9743652</ele>
        <time>2009-05-31T09:02:35Z</time>
      </trkpt>
      <trkpt lat="43.89852" lon="7.22687">
        <ele>1048.454834</ele>
        <time>2009-05-31T09:02:39Z</time>
      </trkpt>
      <trkpt lat="43.89844" lon="7.22675">
        <ele>1048.454834</ele>
        <time>2009-05-31T09:02:48Z</time>
      </trkpt>
      <trkpt lat="43.8984" lon="7.22664">
        <ele>1049.4162598</ele>
        <time>2009-05-31T09:02:55Z</time>
      </trkpt>
      <trkpt lat="43.89842" lon="7.22659">
        <ele>1049.4162598</ele>
        <time>2009-05-31T09:02:58Z</time>
      </trkpt>
      <trkpt lat="43.8985" lon="7.2265">
        <ele>1049.8969727</ele>
        <time>2009-05-31T09:03:05Z</time>
      </trkpt>
      <trkpt lat="43.8986" lon="7.22635">
        <ele>1048.454834</ele>
        <time>2009-05-31T09:03:12Z</time>
      </trkpt>
      <trkpt lat="43.89867" lon="7.22608">
        <ele>1049.4162598</ele>
        <time>2009-05-31T09:03:21Z</time>
      </trkpt>
      <trkpt lat="43.89873" lon="7.22571">
        <ele>1050.3776855</ele>
        <time>2009-05-31T09:03:33Z</time>
      </trkpt>
      <trkpt lat="43.89878" lon="7.2254">
        <ele>1052.7810059</ele>
        <time>2009-05-31T09:03:44Z</time>
      </trkpt>
      <trkpt lat="43.89882" lon="7.22511">
        <ele>1054.2231445</ele>
        <time>2009-05-31T09:03:54Z</time>
      </trkpt>
      <trkpt lat="43.89882" lon="7.22491">
        <ele>1055.1843262</ele>
        <time>2009-05-31T09:04:01Z</time>
      </trkpt>
      <trkpt lat="43.89881" lon="7.22482">
        <ele>1057.1069336</ele>
        <time>2009-05-31T09:04:04Z</time>
      </trkpt>
      <trkpt lat="43.89878" lon="7.22458">
        <ele>1059.029541</ele>
        <time>2009-05-31T09:04:13Z</time>
      </trkpt>
      <trkpt lat="43.89874" lon="7.22436">
        <ele>1059.9907227</ele>
        <time>2009-05-31T09:04:21Z</time>
      </trkpt>
      <trkpt lat="43.89869" lon="7.22417">
        <ele>1059.5102539</ele>
        <time>2009-05-31T09:04:28Z</time>
      </trkpt>
      <trkpt lat="43.89865" lon="7.22396">
        <ele>1060.9521484</ele>
        <time>2009-05-31T09:04:35Z</time>
      </trkpt>
      <trkpt lat="43.8986" lon="7.22375">
        <ele>1062.394043</ele>
        <time>2009-05-31T09:04:42Z</time>
      </trkpt>
      <trkpt lat="43.89853" lon="7.22346">
        <ele>1061.9135742</ele>
        <time>2009-05-31T09:04:52Z</time>
      </trkpt>
      <trkpt lat="43.89842" lon="7.22324">
        <ele>1061.9135742</ele>
        <time>2009-05-31T09:04:58Z</time>
      </trkpt>
      <trkpt lat="43.89836" lon="7.22302">
        <ele>1061.9135742</ele>
        <time>2009-05-31T09:05:03Z</time>
      </trkpt>
      <trkpt lat="43.89833" lon="7.22292">
        <ele>1061.9135742</ele>
        <time>2009-05-31T09:05:05Z</time>
      </trkpt>
      <trkpt lat="43.89825" lon="7.22264">
        <ele>1060.9521484</ele>
        <time>2009-05-31T09:05:10Z</time>
      </trkpt>
      <trkpt lat="43.8982" lon="7.2224">
        <ele>1060.9521484</ele>
        <time>2009-05-31T09:05:14Z</time>
      </trkpt>
      <trkpt lat="43.89819" lon="7.22222">
        <ele>1061.9135742</ele>
        <time>2009-05-31T09:05:17Z</time>
      </trkpt>
      <trkpt lat="43.89813" lon="7.22201">
        <ele>1061.9135742</ele>
        <time>2009-05-31T09:05:21Z</time>
      </trkpt>
      <trkpt lat="43.898" lon="7.22167">
        <ele>1061.9135742</ele>
        <time>2009-05-31T09:05:28Z</time>
      </trkpt>
      <trkpt lat="43.8979" lon="7.22144">
        <ele>1061.9135742</ele>
        <time>2009-05-31T09:05:34Z</time>
      </trkpt>
      <trkpt lat="43.89783" lon="7.22124">
        <ele>1062.394043</ele>
        <time>2009-05-31T09:05:39Z</time>
      </trkpt>
      <trkpt lat="43.89778" lon="7.22098">
        <ele>1063.3554688</ele>
        <time>2009-05-31T09:05:45Z</time>
      </trkpt>
      <trkpt lat="43.8977" lon="7.2206">
        <ele>1062.8747559</ele>
        <time>2009-05-31T09:05:53Z</time>
      </trkpt>
      <trkpt lat="43.89764" lon="7.22026">
        <ele>1065.2780762</ele>
        <time>2009-05-31T09:06:01Z</time>
      </trkpt>
      <trkpt lat="43.89751" lon="7.21998">
        <ele>1066.2392578</ele>
        <time>2009-05-31T09:06:09Z</time>
      </trkpt>
      <trkpt lat="43.89739" lon="7.21969">
        <ele>1066.7199707</ele>
        <time>2009-05-31T09:06:17Z</time>
      </trkpt>
      <trkpt lat="43.8973" lon="7.21949">
        <ele>1067.6811523</ele>
        <time>2009-05-31T09:06:23Z</time>
      </trkpt>
      <trkpt lat="43.89721" lon="7.21924">
        <ele>1067.2006836</ele>
        <time>2009-05-31T09:06:29Z</time>
      </trkpt>
      <trkpt lat="43.8971" lon="7.21894">
        <ele>1065.7587891</ele>
        <time>2009-05-31T09:06:36Z</time>
      </trkpt>
      <trkpt lat="43.89703" lon="7.21873">
        <ele>1065.2780762</ele>
        <time>2009-05-31T09:06:41Z</time>
      </trkpt>
      <trkpt lat="43.89701" lon="7.21865">
        <ele>1064.3166504</ele>
        <time>2009-05-31T09:06:43Z</time>
      </trkpt>
      <trkpt lat="43.89699" lon="7.21844">
        <ele>1062.8747559</ele>
        <time>2009-05-31T09:06:48Z</time>
      </trkpt>
      <trkpt lat="43.89693" lon="7.21833">
        <ele>1061.9135742</ele>
        <time>2009-05-31T09:06:51Z</time>
      </trkpt>
      <trkpt lat="43.89689" lon="7.21828">
        <ele>1060.4714355</ele>
        <time>2009-05-31T09:06:53Z</time>
      </trkpt>
      <trkpt lat="43.89679" lon="7.21811">
        <ele>1059.029541</ele>
        <time>2009-05-31T09:06:58Z</time>
      </trkpt>
      <trkpt lat="43.89679" lon="7.21806">
        <ele>1058.5488281</ele>
        <time>2009-05-31T09:06:59Z</time>
      </trkpt>
      <trkpt lat="43.89676" lon="7.21788">
        <ele>1057.1069336</ele>
        <time>2009-05-31T09:07:02Z</time>
      </trkpt>
      <trkpt lat="43.89679" lon="7.21777">
        <ele>1057.1069336</ele>
        <time>2009-05-31T09:07:07Z</time>
      </trkpt>
      <trkpt lat="43.89679" lon="7.21775">
        <ele>1056.6262207</ele>
        <time>2009-05-31T09:07:09Z</time>
      </trkpt>
      <trkpt lat="43.89677" lon="7.21771">
        <ele>1054.2231445</ele>
        <time>2009-05-31T09:07:12Z</time>
      </trkpt>
      <trkpt lat="43.89673" lon="7.21773">
        <ele>1052.7810059</ele>
        <time>2009-05-31T09:07:16Z</time>
      </trkpt>
      <trkpt lat="43.8967" lon="7.21769">
        <ele>1051.3388672</ele>
        <time>2009-05-31T09:07:20Z</time>
      </trkpt>
      <trkpt lat="43.8967" lon="7.21768">
        <ele>1049.8969727</ele>
        <time>2009-05-31T09:07:23Z</time>
      </trkpt>
      <trkpt lat="43.89659" lon="7.21764">
        <ele>1048.454834</ele>
        <time>2009-05-31T09:07:28Z</time>
      </trkpt>
      <trkpt lat="43.89655" lon="7.21761">
        <ele>1047.4936523</ele>
        <time>2009-05-31T09:07:30Z</time>
      </trkpt>
      <trkpt lat="43.8965" lon="7.2176">
        <ele>1045.5710449</ele>
        <time>2009-05-31T09:07:32Z</time>
      </trkpt>
      <trkpt lat="43.89647" lon="7.2176">
        <ele>1044.1291504</ele>
        <time>2009-05-31T09:07:36Z</time>
      </trkpt>
      <trkpt lat="43.89642" lon="7.21758">
        <ele>1043.1677246</ele>
        <time>2009-05-31T09:07:40Z</time>
      </trkpt>
      <trkpt lat="43.8964" lon="7.21756">
        <ele>1045.090332</ele>
        <time>2009-05-31T09:07:44Z</time>
      </trkpt>
      <trkpt lat="43.8964" lon="7.21755">
        <ele>1044.6096191</ele>
        <time>2009-05-31T09:07:45Z</time>
      </trkpt>
      <trkpt lat="43.89636" lon="7.21755">
        <ele>1046.0517578</ele>
        <time>2009-05-31T09:07:49Z</time>
      </trkpt>
      <trkpt lat="43.89625" lon="7.21749">
        <ele>1045.5710449</ele>
        <time>2009-05-31T09:07:59Z</time>
      </trkpt>
      <trkpt lat="43.89613" lon="7.21743">
        <ele>1044.6096191</ele>
        <time>2009-05-31T09:08:03Z</time>
      </trkpt>
      <trkpt lat="43.89606" lon="7.21735">
        <ele>1043.6484375</ele>
        <time>2009-05-31T09:08:05Z</time>
      </trkpt>
      <trkpt lat="43.89599" lon="7.21725">
        <ele>1042.6872559</ele>
        <time>2009-05-31T09:08:07Z</time>
      </trkpt>
      <trkpt lat="43.89585" lon="7.21705">
        <ele>1037.8806152</ele>
        <time>2009-05-31T09:08:11Z</time>
      </trkpt>
      <trkpt lat="43.89579" lon="7.21696">
        <ele>1036.4387207</ele>
        <time>2009-05-31T09:08:13Z</time>
      </trkpt>
      <trkpt lat="43.89573" lon="7.21685">
        <ele>1033.0737305</ele>
        <time>2009-05-31T09:08:15Z</time>
      </trkpt>
      <trkpt lat="43.89562" lon="7.21664">
        <ele>1027.3061523</ele>
        <time>2009-05-31T09:08:19Z</time>
      </trkpt>
      <trkpt lat="43.89555" lon="7.21641">
        <ele>1022.0187988</ele>
        <time>2009-05-31T09:08:23Z</time>
      </trkpt>
      <trkpt lat="43.89555" lon="7.21622">
        <ele>1019.1347656</ele>
        <time>2009-05-31T09:08:27Z</time>
      </trkpt>
      <trkpt lat="43.8955" lon="7.21602">
        <ele>1016.7314453</ele>
        <time>2009-05-31T09:08:31Z</time>
      </trkpt>
      <trkpt lat="43.8954" lon="7.21583">
        <ele>1012.8862305</ele>
        <time>2009-05-31T09:08:35Z</time>
      </trkpt>
      <trkpt lat="43.89532" lon="7.2157">
        <ele>1010.4829102</ele>
        <time>2009-05-31T09:08:38Z</time>
      </trkpt>
      <trkpt lat="43.89528" lon="7.21559">
        <ele>1010.0021973</ele>
        <time>2009-05-31T09:08:40Z</time>
      </trkpt>
      <trkpt lat="43.8952" lon="7.21545">
        <ele>1006.1569824</ele>
        <time>2009-05-31T09:08:43Z</time>
      </trkpt>
      <trkpt lat="43.89518" lon="7.21527">
        <ele>1002.7922363</ele>
        <time>2009-05-31T09:08:47Z</time>
      </trkpt>
      <trkpt lat="43.89516" lon="7.21515">
        <ele>1000.8696289</ele>
        <time>2009-05-31T09:08:49Z</time>
      </trkpt>
      <trkpt lat="43.89515" lon="7.2149">
        <ele>999.4277344</ele>
        <time>2009-05-31T09:08:53Z</time>
      </trkpt>
      <trkpt lat="43.89517" lon="7.21476">
        <ele>997.0244141</ele>
        <time>2009-05-31T09:08:55Z</time>
      </trkpt>
      <trkpt lat="43.89515" lon="7.21453">
        <ele>994.6210938</ele>
        <time>2009-05-31T09:08:58Z</time>
      </trkpt>
      <trkpt lat="43.89508" lon="7.21421">
        <ele>990.7758789</ele>
        <time>2009-05-31T09:09:02Z</time>
      </trkpt>
      <trkpt lat="43.89506" lon="7.21397">
        <ele>987.4111328</ele>
        <time>2009-05-31T09:09:06Z</time>
      </trkpt>
      <trkpt lat="43.89505" lon="7.21393">
        <ele>987.4111328</ele>
        <time>2009-05-31T09:09:07Z</time>
      </trkpt>
      <trkpt lat="43.89499" lon="7.21376">
        <ele>988.8535156</ele>
        <time>2009-05-31T09:09:11Z</time>
      </trkpt>
      <trkpt lat="43.89498" lon="7.21372">
        <ele>988.8535156</ele>
        <time>2009-05-31T09:09:12Z</time>
      </trkpt>
      <trkpt lat="43.89503" lon="7.21354">
        <ele>988.8535156</ele>
        <time>2009-05-31T09:09:16Z</time>
      </trkpt>
      <trkpt lat="43.89504" lon="7.21321">
        <ele>987.4111328</ele>
        <time>2009-05-31T09:09:23Z</time>
      </trkpt>
      <trkpt lat="43.89506" lon="7.21303">
        <ele>985.9692383</ele>
        <time>2009-05-31T09:09:27Z</time>
      </trkpt>
      <trkpt lat="43.89507" lon="7.21286">
        <ele>985.4885254</ele>
        <time>2009-05-31T09:09:31Z</time>
      </trkpt>
      <trkpt lat="43.89507" lon="7.21279">
        <ele>985.0080566</ele>
        <time>2009-05-31T09:09:35Z</time>
      </trkpt>
      <trkpt lat="43.89507" lon="7.21275">
        <ele>984.5273438</ele>
        <time>2009-05-31T09:09:43Z</time>
      </trkpt>
      <trkpt lat="43.89506" lon="7.21267">
        <ele>983.0852051</ele>
        <time>2009-05-31T09:09:48Z</time>
      </trkpt>
      <trkpt lat="43.89505" lon="7.21264">
        <ele>982.6047363</ele>
        <time>2009-05-31T09:09:50Z</time>
      </trkpt>
      <trkpt lat="43.89505" lon="7.21254">
        <ele>980.201416</ele>
        <time>2009-05-31T09:09:56Z</time>
      </trkpt>
      <trkpt lat="43.89504" lon="7.21251">
        <ele>979.2399902</ele>
        <time>2009-05-31T09:09:58Z</time>
      </trkpt>
      <trkpt lat="43.89504" lon="7.21244">
        <ele>979.2399902</ele>
        <time>2009-05-31T09:10:03Z</time>
      </trkpt>
      <trkpt lat="43.89498" lon="7.21233">
        <ele>978.7595215</ele>
        <time>2009-05-31T09:10:08Z</time>
      </trkpt>
      <trkpt lat="43.89493" lon="7.2122">
        <ele>977.7980957</ele>
        <time>2009-05-31T09:10:12Z</time>
      </trkpt>
      <trkpt lat="43.89486" lon="7.21211">
        <ele>974.9143066</ele>
        <time>2009-05-31T09:10:17Z</time>
      </trkpt>
      <trkpt lat="43.8948" lon="7.212">
        <ele>972.0302734</ele>
        <time>2009-05-31T09:10:21Z</time>
      </trkpt>
      <trkpt lat="43.89478" lon="7.21197">
        <ele>970.5881348</ele>
        <time>2009-05-31T09:10:23Z</time>
      </trkpt>
      <trkpt lat="43.89474" lon="7.2119">
        <ele>968.6655273</ele>
        <time>2009-05-31T09:10:26Z</time>
      </trkpt>
      <trkpt lat="43.89473" lon="7.21187">
        <ele>967.2236328</ele>
        <time>2009-05-31T09:10:27Z</time>
      </trkpt>
      <trkpt lat="43.89466" lon="7.21183">
        <ele>966.7429199</ele>
        <time>2009-05-31T09:10:30Z</time>
      </trkpt>
      <trkpt lat="43.89458" lon="7.21174">
        <ele>965.7817383</ele>
        <time>2009-05-31T09:10:33Z</time>
      </trkpt>
      <trkpt lat="43.89456" lon="7.21172">
        <ele>965.3010254</ele>
        <time>2009-05-31T09:10:34Z</time>
      </trkpt>
      <trkpt lat="43.89451" lon="7.2117">
        <ele>965.3010254</ele>
        <time>2009-05-31T09:10:36Z</time>
      </trkpt>
      <trkpt lat="43.8944" lon="7.21162">
        <ele>965.3010254</ele>
        <time>2009-05-31T09:10:41Z</time>
      </trkpt>
      <trkpt lat="43.89433" lon="7.21158">
        <ele>965.3010254</ele>
        <time>2009-05-31T09:10:43Z</time>
      </trkpt>
      <trkpt lat="43.89426" lon="7.21152">
        <ele>964.8203125</ele>
        <time>2009-05-31T09:10:45Z</time>
      </trkpt>
      <trkpt lat="43.89409" lon="7.21132">
        <ele>964.3395996</ele>
        <time>2009-05-31T09:10:50Z</time>
      </trkpt>
      <trkpt lat="43.89406" lon="7.21128">
        <ele>964.8203125</ele>
        <time>2009-05-31T09:10:51Z</time>
      </trkpt>
      <trkpt lat="43.89395" lon="7.21116">
        <ele>963.378418</ele>
        <time>2009-05-31T09:10:54Z</time>
      </trkpt>
      <trkpt lat="43.89377" lon="7.21098">
        <ele>961.4558105</ele>
        <time>2009-05-31T09:10:59Z</time>
      </trkpt>
      <trkpt lat="43.89373" lon="7.21095">
        <ele>961.4558105</ele>
        <time>2009-05-31T09:11:00Z</time>
      </trkpt>
      <trkpt lat="43.89362" lon="7.21084">
        <ele>960.0136719</ele>
        <time>2009-05-31T09:11:03Z</time>
      </trkpt>
      <trkpt lat="43.8934" lon="7.2107">
        <ele>957.1298828</ele>
        <time>2009-05-31T09:11:08Z</time>
      </trkpt>
      <trkpt lat="43.89329" lon="7.21062">
        <ele>956.168457</ele>
        <time>2009-05-31T09:11:11Z</time>
      </trkpt>
      <trkpt lat="43.89309" lon="7.21046">
        <ele>951.3618164</ele>
        <time>2009-05-31T09:11:16Z</time>
      </trkpt>
      <trkpt lat="43.89305" lon="7.21042">
        <ele>950.8811035</ele>
        <time>2009-05-31T09:11:17Z</time>
      </trkpt>
      <trkpt lat="43.89272" lon="7.21024">
        <ele>946.074707</ele>
        <time>2009-05-31T09:11:23Z</time>
      </trkpt>
      <trkpt lat="43.89258" lon="7.21019">
        <ele>944.6325684</ele>
        <time>2009-05-31T09:11:26Z</time>
      </trkpt>
      <trkpt lat="43.89242" lon="7.21011">
        <ele>941.2680664</ele>
        <time>2009-05-31T09:11:29Z</time>
      </trkpt>
      <trkpt lat="43.89238" lon="7.21009">
        <ele>941.2680664</ele>
        <time>2009-05-31T09:11:30Z</time>
      </trkpt>
      <trkpt lat="43.89231" lon="7.21003">
        <ele>939.8259277</ele>
        <time>2009-05-31T09:11:33Z</time>
      </trkpt>
      <trkpt lat="43.89221" lon="7.20993">
        <ele>937.9033203</ele>
        <time>2009-05-31T09:11:37Z</time>
      </trkpt>
      <trkpt lat="43.89206" lon="7.20976">
        <ele>935.0195312</ele>
        <time>2009-05-31T09:11:42Z</time>
      </trkpt>
      <trkpt lat="43.89203" lon="7.20972">
        <ele>933.5773926</ele>
        <time>2009-05-31T09:11:43Z</time>
      </trkpt>
      <trkpt lat="43.89184" lon="7.20956">
        <ele>929.7321777</ele>
        <time>2009-05-31T09:11:47Z</time>
      </trkpt>
      <trkpt lat="43.89155" lon="7.20949">
        <ele>928.2902832</ele>
        <time>2009-05-31T09:11:51Z</time>
      </trkpt>
      <trkpt lat="43.89129" lon="7.20942">
        <ele>925.8869629</ele>
        <time>2009-05-31T09:11:55Z</time>
      </trkpt>
      <trkpt lat="43.89124" lon="7.20941">
        <ele>926.3676758</ele>
        <time>2009-05-31T09:11:56Z</time>
      </trkpt>
      <trkpt lat="43.89109" lon="7.20939">
        <ele>927.8095703</ele>
        <time>2009-05-31T09:11:59Z</time>
      </trkpt>
      <trkpt lat="43.89096" lon="7.2093">
        <ele>932.6162109</ele>
        <time>2009-05-31T09:12:04Z</time>
      </trkpt>
      <trkpt lat="43.89083" lon="7.20919">
        <ele>926.3676758</ele>
        <time>2009-05-31T09:12:07Z</time>
      </trkpt>
      <trkpt lat="43.89062" lon="7.20894">
        <ele>923.4836426</ele>
        <time>2009-05-31T09:12:12Z</time>
      </trkpt>
      <trkpt lat="43.89046" lon="7.20866">
        <ele>922.0415039</ele>
        <time>2009-05-31T09:12:17Z</time>
      </trkpt>
      <trkpt lat="43.89043" lon="7.2085">
        <ele>923.4836426</ele>
        <time>2009-05-31T09:12:21Z</time>
      </trkpt>
      <trkpt lat="43.89042" lon="7.20844">
        <ele>923.4836426</ele>
        <time>2009-05-31T09:12:24Z</time>
      </trkpt>
      <trkpt lat="43.89034" lon="7.20823">
        <ele>924.4450684</ele>
        <time>2009-05-31T09:12:31Z</time>
      </trkpt>
      <trkpt lat="43.89032" lon="7.2082">
        <ele>924.9257812</ele>
        <time>2009-05-31T09:12:34Z</time>
      </trkpt>
      <trkpt lat="43.89029" lon="7.20811">
        <ele>924.4450684</ele>
        <time>2009-05-31T09:12:39Z</time>
      </trkpt>
      <trkpt lat="43.89025" lon="7.20804">
        <ele>925.8869629</ele>
        <time>2009-05-31T09:12:45Z</time>
      </trkpt>
      <trkpt lat="43.89012" lon="7.20794">
        <ele>925.40625</ele>
        <time>2009-05-31T09:12:50Z</time>
      </trkpt>
      <trkpt lat="43.88994" lon="7.20787">
        <ele>921.0803223</ele>
        <time>2009-05-31T09:12:55Z</time>
      </trkpt>
      <trkpt lat="43.88975" lon="7.20777">
        <ele>916.7543945</ele>
        <time>2009-05-31T09:13:00Z</time>
      </trkpt>
      <trkpt lat="43.88964" lon="7.20767">
        <ele>912.4284668</ele>
        <time>2009-05-31T09:13:04Z</time>
      </trkpt>
      <trkpt lat="43.88956" lon="7.20762">
        <ele>908.1027832</ele>
        <time>2009-05-31T09:13:06Z</time>
      </trkpt>
      <trkpt lat="43.88943" lon="7.20751">
        <ele>906.1796875</ele>
        <time>2009-05-31T09:13:10Z</time>
      </trkpt>
      <trkpt lat="43.88937" lon="7.20745">
        <ele>905.2185059</ele>
        <time>2009-05-31T09:13:12Z</time>
      </trkpt>
      <trkpt lat="43.88932" lon="7.2074">
        <ele>903.2958984</ele>
        <time>2009-05-31T09:13:15Z</time>
      </trkpt>
      <trkpt lat="43.88931" lon="7.20738">
        <ele>902.8151855</ele>
        <time>2009-05-31T09:13:16Z</time>
      </trkpt>
      <trkpt lat="43.88928" lon="7.20737">
        <ele>902.3344727</ele>
        <time>2009-05-31T09:13:20Z</time>
      </trkpt>
      <trkpt lat="43.88925" lon="7.20736">
        <ele>900.8925781</ele>
        <time>2009-05-31T09:13:25Z</time>
      </trkpt>
      <trkpt lat="43.88923" lon="7.20734">
        <ele>900.4121094</ele>
        <time>2009-05-31T09:13:27Z</time>
      </trkpt>
      <trkpt lat="43.88917" lon="7.20728">
        <ele>898.0087891</ele>
        <time>2009-05-31T09:13:33Z</time>
      </trkpt>
      <trkpt lat="43.88916" lon="7.20723">
        <ele>896.5668945</ele>
        <time>2009-05-31T09:13:36Z</time>
      </trkpt>
      <trkpt lat="43.88913" lon="7.20718">
        <ele>894.644043</ele>
        <time>2009-05-31T09:13:40Z</time>
      </trkpt>
      <trkpt lat="43.88903" lon="7.20709">
        <ele>892.7216797</ele>
        <time>2009-05-31T09:13:43Z</time>
      </trkpt>
      <trkpt lat="43.88888" lon="7.20698">
        <ele>888.3955078</ele>
        <time>2009-05-31T09:13:47Z</time>
      </trkpt>
      <trkpt lat="43.88885" lon="7.20696">
        <ele>888.8762207</ele>
        <time>2009-05-31T09:13:48Z</time>
      </trkpt>
      <trkpt lat="43.88873" lon="7.20689">
        <ele>886.9533691</ele>
        <time>2009-05-31T09:13:51Z</time>
      </trkpt>
      <trkpt lat="43.88864" lon="7.20685">
        <ele>883.5888672</ele>
        <time>2009-05-31T09:13:53Z</time>
      </trkpt>
      <trkpt lat="43.88857" lon="7.20684">
        <ele>881.6662598</ele>
        <time>2009-05-31T09:13:55Z</time>
      </trkpt>
      <trkpt lat="43.88847" lon="7.20683">
        <ele>880.2243652</ele>
        <time>2009-05-31T09:13:59Z</time>
      </trkpt>
      <trkpt lat="43.88844" lon="7.2067">
        <ele>878.3017578</ele>
        <time>2009-05-31T09:14:03Z</time>
      </trkpt>
      <trkpt lat="43.88845" lon="7.20648">
        <ele>877.8210449</ele>
        <time>2009-05-31T09:14:07Z</time>
      </trkpt>
      <trkpt lat="43.88845" lon="7.20642">
        <ele>876.3791504</ele>
        <time>2009-05-31T09:14:08Z</time>
      </trkpt>
      <trkpt lat="43.88844" lon="7.20619">
        <ele>874.9370117</ele>
        <time>2009-05-31T09:14:11Z</time>
      </trkpt>
      <trkpt lat="43.8885" lon="7.2059">
        <ele>873.4951172</ele>
        <time>2009-05-31T09:14:15Z</time>
      </trkpt>
      <trkpt lat="43.88857" lon="7.20565">
        <ele>871.5722656</ele>
        <time>2009-05-31T09:14:19Z</time>
      </trkpt>
      <trkpt lat="43.8886" lon="7.2054">
        <ele>870.611084</ele>
        <time>2009-05-31T09:14:23Z</time>
      </trkpt>
      <trkpt lat="43.88859" lon="7.20527">
        <ele>869.1691895</ele>
        <time>2009-05-31T09:14:25Z</time>
      </trkpt>
      <trkpt lat="43.88849" lon="7.20512">
        <ele>868.2077637</ele>
        <time>2009-05-31T09:14:28Z</time>
      </trkpt>
      <trkpt lat="43.88829" lon="7.20494">
        <ele>865.3239746</ele>
        <time>2009-05-31T09:14:32Z</time>
      </trkpt>
      <trkpt lat="43.88814" lon="7.20481">
        <ele>861.9594727</ele>
        <time>2009-05-31T09:14:35Z</time>
      </trkpt>
      <trkpt lat="43.88804" lon="7.20473">
        <ele>859.5559082</ele>
        <time>2009-05-31T09:14:37Z</time>
      </trkpt>
      <trkpt lat="43.88788" lon="7.20463">
        <ele>856.671875</ele>
        <time>2009-05-31T09:14:40Z</time>
      </trkpt>
      <trkpt lat="43.8877" lon="7.20457">
        <ele>854.2687988</ele>
        <time>2009-05-31T09:14:43Z</time>
      </trkpt>
      <trkpt lat="43.88756" lon="7.20451">
        <ele>853.307373</ele>
        <time>2009-05-31T09:14:45Z</time>
      </trkpt>
      <trkpt lat="43.88734" lon="7.20443">
        <ele>851.3847656</ele>
        <time>2009-05-31T09:14:49Z</time>
      </trkpt>
      <trkpt lat="43.88731" lon="7.20442">
        <ele>850.423584</ele>
        <time>2009-05-31T09:14:50Z</time>
      </trkpt>
      <trkpt lat="43.8872" lon="7.20445">
        <ele>849.4621582</ele>
        <time>2009-05-31T09:14:53Z</time>
      </trkpt>
      <trkpt lat="43.88698" lon="7.20446">
        <ele>846.5783691</ele>
        <time>2009-05-31T09:14:57Z</time>
      </trkpt>
      <trkpt lat="43.88674" lon="7.20453">
        <ele>839.3681641</ele>
        <time>2009-05-31T09:15:02Z</time>
      </trkpt>
      <trkpt lat="43.88658" lon="7.20457">
        <ele>835.5229492</ele>
        <time>2009-05-31T09:15:05Z</time>
      </trkpt>
      <trkpt lat="43.88646" lon="7.20461">
        <ele>832.1584473</ele>
        <time>2009-05-31T09:15:08Z</time>
      </trkpt>
      <trkpt lat="43.88643" lon="7.20461">
        <ele>831.6777344</ele>
        <time>2009-05-31T09:15:09Z</time>
      </trkpt>
      <trkpt lat="43.88624" lon="7.20467">
        <ele>828.3132324</ele>
        <time>2009-05-31T09:15:13Z</time>
      </trkpt>
      <trkpt lat="43.88613" lon="7.20467">
        <ele>827.3518066</ele>
        <time>2009-05-31T09:15:15Z</time>
      </trkpt>
      <trkpt lat="43.8859" lon="7.20465">
        <ele>825.909668</ele>
        <time>2009-05-31T09:15:20Z</time>
      </trkpt>
      <trkpt lat="43.88586" lon="7.20464">
        <ele>826.3903809</ele>
        <time>2009-05-31T09:15:23Z</time>
      </trkpt>
      <trkpt lat="43.88575" lon="7.20463">
        <ele>825.909668</ele>
        <time>2009-05-31T09:15:28Z</time>
      </trkpt>
      <trkpt lat="43.88562" lon="7.20463">
        <ele>823.9870605</ele>
        <time>2009-05-31T09:15:32Z</time>
      </trkpt>
      <trkpt lat="43.88556" lon="7.20464">
        <ele>822.545166</ele>
        <time>2009-05-31T09:15:34Z</time>
      </trkpt>
      <trkpt lat="43.88545" lon="7.20467">
        <ele>821.5837402</ele>
        <time>2009-05-31T09:15:37Z</time>
      </trkpt>
      <trkpt lat="43.88527" lon="7.20471">
        <ele>822.545166</ele>
        <time>2009-05-31T09:15:42Z</time>
      </trkpt>
      <trkpt lat="43.88524" lon="7.20471">
        <ele>822.545166</ele>
        <time>2009-05-31T09:15:43Z</time>
      </trkpt>
      <trkpt lat="43.88518" lon="7.20473">
        <ele>822.0644531</ele>
        <time>2009-05-31T09:15:45Z</time>
      </trkpt>
      <trkpt lat="43.885" lon="7.20473">
        <ele>820.6225586</ele>
        <time>2009-05-31T09:15:49Z</time>
      </trkpt>
      <trkpt lat="43.88487" lon="7.20465">
        <ele>822.0644531</ele>
        <time>2009-05-31T09:15:53Z</time>
      </trkpt>
      <trkpt lat="43.8847" lon="7.20471">
        <ele>822.0644531</ele>
        <time>2009-05-31T09:16:00Z</time>
      </trkpt>
      <trkpt lat="43.88464" lon="7.20473">
        <ele>821.1032715</ele>
        <time>2009-05-31T09:16:02Z</time>
      </trkpt>
      <trkpt lat="43.88451" lon="7.20492">
        <ele>820.6225586</ele>
        <time>2009-05-31T09:16:07Z</time>
      </trkpt>
      <trkpt lat="43.88449" lon="7.20495">
        <ele>820.6225586</ele>
        <time>2009-05-31T09:16:08Z</time>
      </trkpt>
      <trkpt lat="43.88431" lon="7.20518">
        <ele>821.5837402</ele>
        <time>2009-05-31T09:16:15Z</time>
      </trkpt>
      <trkpt lat="43.88417" lon="7.20532">
        <ele>821.5837402</ele>
        <time>2009-05-31T09:16:21Z</time>
      </trkpt>
      <trkpt lat="43.88402" lon="7.20545">
        <ele>821.1032715</ele>
        <time>2009-05-31T09:16:27Z</time>
      </trkpt>
      <trkpt lat="43.88387" lon="7.20557">
        <ele>823.0258789</ele>
        <time>2009-05-31T09:16:33Z</time>
      </trkpt>
      <trkpt lat="43.88373" lon="7.20569">
        <ele>825.909668</ele>
        <time>2009-05-31T09:16:39Z</time>
      </trkpt>
      <trkpt lat="43.88358" lon="7.20579">
        <ele>826.3903809</ele>
        <time>2009-05-31T09:16:44Z</time>
      </trkpt>
      <trkpt lat="43.88356" lon="7.20581">
        <ele>826.8710938</ele>
        <time>2009-05-31T09:16:45Z</time>
      </trkpt>
      <trkpt lat="43.88338" lon="7.20589">
        <ele>826.8710938</ele>
        <time>2009-05-31T09:16:52Z</time>
      </trkpt>
      <trkpt lat="43.88323" lon="7.20593">
        <ele>825.909668</ele>
        <time>2009-05-31T09:16:57Z</time>
      </trkpt>
      <trkpt lat="43.88309" lon="7.20597">
        <ele>826.8710938</ele>
        <time>2009-05-31T09:17:03Z</time>
      </trkpt>
      <trkpt lat="43.8829" lon="7.20601">
        <ele>828.7939453</ele>
        <time>2009-05-31T09:17:11Z</time>
      </trkpt>
      <trkpt lat="43.88287" lon="7.20601">
        <ele>828.7939453</ele>
        <time>2009-05-31T09:17:12Z</time>
      </trkpt>
      <trkpt lat="43.88285" lon="7.20602">
        <ele>828.7939453</ele>
        <time>2009-05-31T09:17:13Z</time>
      </trkpt>
      <trkpt lat="43.88277" lon="7.20606">
        <ele>827.3518066</ele>
        <time>2009-05-31T09:17:15Z</time>
      </trkpt>
      <trkpt lat="43.88263" lon="7.20614">
        <ele>826.3903809</ele>
        <time>2009-05-31T09:17:18Z</time>
      </trkpt>
      <trkpt lat="43.88237" lon="7.20622">
        <ele>824.4677734</ele>
        <time>2009-05-31T09:17:23Z</time>
      </trkpt>
      <trkpt lat="43.88217" lon="7.20632">
        <ele>824.4677734</ele>
        <time>2009-05-31T09:17:27Z</time>
      </trkpt>
      <trkpt lat="43.88208" lon="7.20646">
        <ele>825.4289551</ele>
        <time>2009-05-31T09:17:30Z</time>
      </trkpt>
      <trkpt lat="43.88197" lon="7.20649">
        <ele>824.9484863</ele>
        <time>2009-05-31T09:17:34Z</time>
      </trkpt>
      <trkpt lat="43.88172" lon="7.20649">
        <ele>824.9484863</ele>
        <time>2009-05-31T09:17:40Z</time>
      </trkpt>
      <trkpt lat="43.8816" lon="7.20647">
        <ele>823.5065918</ele>
        <time>2009-05-31T09:17:43Z</time>
      </trkpt>
      <trkpt lat="43.88138" lon="7.20648">
        <ele>823.9870605</ele>
        <time>2009-05-31T09:17:48Z</time>
      </trkpt>
      <trkpt lat="43.88125" lon="7.20645">
        <ele>823.0258789</ele>
        <time>2009-05-31T09:17:51Z</time>
      </trkpt>
      <trkpt lat="43.88099" lon="7.20638">
        <ele>823.0258789</ele>
        <time>2009-05-31T09:17:57Z</time>
      </trkpt>
      <trkpt lat="43.88076" lon="7.20633">
        <ele>823.9870605</ele>
        <time>2009-05-31T09:18:03Z</time>
      </trkpt>
      <trkpt lat="43.88053" lon="7.2063">
        <ele>826.3903809</ele>
        <time>2009-05-31T09:18:09Z</time>
      </trkpt>
      <trkpt lat="43.8805" lon="7.2063">
        <ele>826.3903809</ele>
        <time>2009-05-31T09:18:10Z</time>
      </trkpt>
      <trkpt lat="43.8803" lon="7.20632">
        <ele>826.3903809</ele>
        <time>2009-05-31T09:18:15Z</time>
      </trkpt>
      <trkpt lat="43.88026" lon="7.20632">
        <ele>825.4289551</ele>
        <time>2009-05-31T09:18:16Z</time>
      </trkpt>
      <trkpt lat="43.88" lon="7.20626">
        <ele>824.9484863</ele>
        <time>2009-05-31T09:18:22Z</time>
      </trkpt>
      <trkpt lat="43.87983" lon="7.20618">
        <ele>824.4677734</ele>
        <time>2009-05-31T09:18:26Z</time>
      </trkpt>
      <trkpt lat="43.87964" lon="7.20619">
        <ele>824.4677734</ele>
        <time>2009-05-31T09:18:30Z</time>
      </trkpt>
      <trkpt lat="43.87938" lon="7.2062">
        <ele>823.5065918</ele>
        <time>2009-05-31T09:18:35Z</time>
      </trkpt>
      <trkpt lat="43.87928" lon="7.20622">
        <ele>823.9870605</ele>
        <time>2009-05-31T09:18:37Z</time>
      </trkpt>
      <trkpt lat="43.87909" lon="7.20626">
        <ele>823.5065918</ele>
        <time>2009-05-31T09:18:41Z</time>
      </trkpt>
      <trkpt lat="43.8789" lon="7.20637">
        <ele>821.1032715</ele>
        <time>2009-05-31T09:18:46Z</time>
      </trkpt>
      <trkpt lat="43.87875" lon="7.20655">
        <ele>820.1418457</ele>
        <time>2009-05-31T09:18:50Z</time>
      </trkpt>
      <trkpt lat="43.87863" lon="7.20684">
        <ele>819.661377</ele>
        <time>2009-05-31T09:18:55Z</time>
      </trkpt>
      <trkpt lat="43.8785" lon="7.20708">
        <ele>819.1806641</ele>
        <time>2009-05-31T09:19:00Z</time>
      </trkpt>
      <trkpt lat="43.87843" lon="7.20713">
        <ele>818.2192383</ele>
        <time>2009-05-31T09:19:02Z</time>
      </trkpt>
      <trkpt lat="43.87833" lon="7.20727">
        <ele>815.3354492</ele>
        <time>2009-05-31T09:19:05Z</time>
      </trkpt>
      <trkpt lat="43.87828" lon="7.20733">
        <ele>814.8547363</ele>
        <time>2009-05-31T09:19:06Z</time>
      </trkpt>
      <trkpt lat="43.87792" lon="7.20754">
        <ele>813.8933105</ele>
        <time>2009-05-31T09:19:13Z</time>
      </trkpt>
      <trkpt lat="43.87787" lon="7.20756">
        <ele>813.4128418</ele>
        <time>2009-05-31T09:19:14Z</time>
      </trkpt>
      <trkpt lat="43.87777" lon="7.20757">
        <ele>811.9707031</ele>
        <time>2009-05-31T09:19:16Z</time>
      </trkpt>
      <trkpt lat="43.87749" lon="7.2077">
        <ele>810.0478516</ele>
        <time>2009-05-31T09:19:21Z</time>
      </trkpt>
      <trkpt lat="43.87743" lon="7.20773">
        <ele>810.0478516</ele>
        <time>2009-05-31T09:19:22Z</time>
      </trkpt>
      <trkpt lat="43.87725" lon="7.20777">
        <ele>807.6447754</ele>
        <time>2009-05-31T09:19:25Z</time>
      </trkpt>
      <trkpt lat="43.87711" lon="7.20781">
        <ele>805.722168</ele>
        <time>2009-05-31T09:19:27Z</time>
      </trkpt>
      <trkpt lat="43.87689" lon="7.20792">
        <ele>802.8381348</ele>
        <time>2009-05-31T09:19:31Z</time>
      </trkpt>
      <trkpt lat="43.87676" lon="7.20796">
        <ele>798.9929199</ele>
        <time>2009-05-31T09:19:34Z</time>
      </trkpt>
      <trkpt lat="43.87668" lon="7.208">
        <ele>795.6281738</ele>
        <time>2009-05-31T09:19:36Z</time>
      </trkpt>
      <trkpt lat="43.87652" lon="7.20801">
        <ele>792.2636719</ele>
        <time>2009-05-31T09:19:39Z</time>
      </trkpt>
      <trkpt lat="43.87647" lon="7.20799">
        <ele>792.2636719</ele>
        <time>2009-05-31T09:19:40Z</time>
      </trkpt>
      <trkpt lat="43.87636" lon="7.20797">
        <ele>789.3796387</ele>
        <time>2009-05-31T09:19:42Z</time>
      </trkpt>
      <trkpt lat="43.87622" lon="7.20799">
        <ele>785.5344238</ele>
        <time>2009-05-31T09:19:45Z</time>
      </trkpt>
      <trkpt lat="43.87618" lon="7.20799">
        <ele>785.5344238</ele>
        <time>2009-05-31T09:19:46Z</time>
      </trkpt>
      <trkpt lat="43.87609" lon="7.20801">
        <ele>784.0925293</ele>
        <time>2009-05-31T09:19:48Z</time>
      </trkpt>
      <trkpt lat="43.87595" lon="7.20806">
        <ele>781.2087402</ele>
        <time>2009-05-31T09:19:51Z</time>
      </trkpt>
      <trkpt lat="43.87582" lon="7.20809">
        <ele>776.4018555</ele>
        <time>2009-05-31T09:19:54Z</time>
      </trkpt>
      <trkpt lat="43.87574" lon="7.20809">
        <ele>773.9985352</ele>
        <time>2009-05-31T09:19:56Z</time>
      </trkpt>
      <trkpt lat="43.87556" lon="7.20808">
        <ele>771.5952148</ele>
        <time>2009-05-31T09:20:01Z</time>
      </trkpt>
      <trkpt lat="43.87545" lon="7.20807">
        <ele>768.7114258</ele>
        <time>2009-05-31T09:20:04Z</time>
      </trkpt>
      <trkpt lat="43.87536" lon="7.20805">
        <ele>767.2695312</ele>
        <time>2009-05-31T09:20:06Z</time>
      </trkpt>
      <trkpt lat="43.87515" lon="7.20803">
        <ele>761.9821777</ele>
        <time>2009-05-31T09:20:10Z</time>
      </trkpt>
      <trkpt lat="43.87501" lon="7.20802">
        <ele>760.5400391</ele>
        <time>2009-05-31T09:20:13Z</time>
      </trkpt>
      <trkpt lat="43.87483" lon="7.20805">
        <ele>757.65625</ele>
        <time>2009-05-31T09:20:17Z</time>
      </trkpt>
      <trkpt lat="43.87471" lon="7.20801">
        <ele>754.7722168</ele>
        <time>2009-05-31T09:20:20Z</time>
      </trkpt>
      <trkpt lat="43.87451" lon="7.20801">
        <ele>751.8884277</ele>
        <time>2009-05-31T09:20:24Z</time>
      </trkpt>
      <trkpt lat="43.87439" lon="7.20801">
        <ele>750.4465332</ele>
        <time>2009-05-31T09:20:26Z</time>
      </trkpt>
      <trkpt lat="43.87426" lon="7.208">
        <ele>748.0432129</ele>
        <time>2009-05-31T09:20:28Z</time>
      </trkpt>
      <trkpt lat="43.87413" lon="7.20797">
        <ele>745.6396484</ele>
        <time>2009-05-31T09:20:30Z</time>
      </trkpt>
      <trkpt lat="43.874" lon="7.20795">
        <ele>745.6396484</ele>
        <time>2009-05-31T09:20:32Z</time>
      </trkpt>
      <trkpt lat="43.87384" lon="7.20797">
        <ele>744.6782227</ele>
        <time>2009-05-31T09:20:35Z</time>
      </trkpt>
      <trkpt lat="43.87375" lon="7.20796">
        <ele>742.7558594</ele>
        <time>2009-05-31T09:20:37Z</time>
      </trkpt>
      <trkpt lat="43.87366" lon="7.20795">
        <ele>741.3137207</ele>
        <time>2009-05-31T09:20:39Z</time>
      </trkpt>
      <trkpt lat="43.87359" lon="7.20799">
        <ele>739.8718262</ele>
        <time>2009-05-31T09:20:41Z</time>
      </trkpt>
      <trkpt lat="43.87349" lon="7.2081">
        <ele>735.0654297</ele>
        <time>2009-05-31T09:20:44Z</time>
      </trkpt>
      <trkpt lat="43.87334" lon="7.20818">
        <ele>730.2585449</ele>
        <time>2009-05-31T09:20:48Z</time>
      </trkpt>
      <trkpt lat="43.87327" lon="7.20819">
        <ele>728.8166504</ele>
        <time>2009-05-31T09:20:50Z</time>
      </trkpt>
      <trkpt lat="43.87318" lon="7.20819">
        <ele>727.3747559</ele>
        <time>2009-05-31T09:20:52Z</time>
      </trkpt>
      <trkpt lat="43.87302" lon="7.20824">
        <ele>725.9326172</ele>
        <time>2009-05-31T09:20:55Z</time>
      </trkpt>
      <trkpt lat="43.87287" lon="7.20831">
        <ele>721.1262207</ele>
        <time>2009-05-31T09:20:58Z</time>
      </trkpt>
      <trkpt lat="43.87282" lon="7.20833">
        <ele>721.1262207</ele>
        <time>2009-05-31T09:20:59Z</time>
      </trkpt>
      <trkpt lat="43.87271" lon="7.20836">
        <ele>720.1647949</ele>
        <time>2009-05-31T09:21:03Z</time>
      </trkpt>
      <trkpt lat="43.87258" lon="7.20832">
        <ele>717.2810059</ele>
        <time>2009-05-31T09:21:06Z</time>
      </trkpt>
      <trkpt lat="43.87248" lon="7.20834">
        <ele>717.2810059</ele>
        <time>2009-05-31T09:21:08Z</time>
      </trkpt>
      <trkpt lat="43.87231" lon="7.20832">
        <ele>715.8388672</ele>
        <time>2009-05-31T09:21:11Z</time>
      </trkpt>
      <trkpt lat="43.87211" lon="7.20834">
        <ele>711.9936523</ele>
        <time>2009-05-31T09:21:15Z</time>
      </trkpt>
      <trkpt lat="43.87209" lon="7.20833">
        <ele>712.4741211</ele>
        <time>2009-05-31T09:21:16Z</time>
      </trkpt>
      <trkpt lat="43.872" lon="7.20826">
        <ele>708.6289062</ele>
        <time>2009-05-31T09:21:20Z</time>
      </trkpt>
      <trkpt lat="43.87189" lon="7.20819">
        <ele>705.7451172</ele>
        <time>2009-05-31T09:21:23Z</time>
      </trkpt>
      <trkpt lat="43.87176" lon="7.20813">
        <ele>701.8999023</ele>
        <time>2009-05-31T09:21:26Z</time>
      </trkpt>
      <trkpt lat="43.87165" lon="7.2082">
        <ele>701.4191895</ele>
        <time>2009-05-31T09:21:30Z</time>
      </trkpt>
      <trkpt lat="43.87167" lon="7.2084">
        <ele>699.9770508</ele>
        <time>2009-05-31T09:21:35Z</time>
      </trkpt>
      <trkpt lat="43.87168" lon="7.20844">
        <ele>700.9384766</ele>
        <time>2009-05-31T09:21:36Z</time>
      </trkpt>
      <trkpt lat="43.87173" lon="7.20859">
        <ele>700.9384766</ele>
        <time>2009-05-31T09:21:40Z</time>
      </trkpt>
      <trkpt lat="43.87184" lon="7.20876">
        <ele>699.9770508</ele>
        <time>2009-05-31T09:21:44Z</time>
      </trkpt>
      <trkpt lat="43.87194" lon="7.20881">
        <ele>700.9384766</ele>
        <time>2009-05-31T09:21:48Z</time>
      </trkpt>
      <trkpt lat="43.87203" lon="7.20882">
        <ele>701.4191895</ele>
        <time>2009-05-31T09:21:53Z</time>
      </trkpt>
      <trkpt lat="43.87216" lon="7.20884">
        <ele>701.4191895</ele>
        <time>2009-05-31T09:21:59Z</time>
      </trkpt>
      <trkpt lat="43.87229" lon="7.20887">
        <ele>700.9384766</ele>
        <time>2009-05-31T09:22:03Z</time>
      </trkpt>
      <trkpt lat="43.87246" lon="7.20889">
        <ele>699.9770508</ele>
        <time>2009-05-31T09:22:07Z</time>
      </trkpt>
      <trkpt lat="43.87264" lon="7.20893">
        <ele>697.5737305</ele>
        <time>2009-05-31T09:22:11Z</time>
      </trkpt>
      <trkpt lat="43.87282" lon="7.20895">
        <ele>698.5349121</ele>
        <time>2009-05-31T09:22:15Z</time>
      </trkpt>
      <trkpt lat="43.873" lon="7.20895">
        <ele>699.9770508</ele>
        <time>2009-05-31T09:22:20Z</time>
      </trkpt>
      <trkpt lat="43.87311" lon="7.20898">
        <ele>699.015625</ele>
        <time>2009-05-31T09:22:23Z</time>
      </trkpt>
      <trkpt lat="43.87348" lon="7.20906">
        <ele>695.651123</ele>
        <time>2009-05-31T09:22:31Z</time>
      </trkpt>
      <trkpt lat="43.87383" lon="7.20909">
        <ele>695.1704102</ele>
        <time>2009-05-31T09:22:38Z</time>
      </trkpt>
      <trkpt lat="43.87401" lon="7.20929">
        <ele>694.2092285</ele>
        <time>2009-05-31T09:22:43Z</time>
      </trkpt>
      <trkpt lat="43.87404" lon="7.20934">
        <ele>694.2092285</ele>
        <time>2009-05-31T09:22:44Z</time>
      </trkpt>
      <trkpt lat="43.87422" lon="7.20955">
        <ele>694.2092285</ele>
        <time>2009-05-31T09:22:49Z</time>
      </trkpt>
      <trkpt lat="43.8744" lon="7.2097">
        <ele>695.1704102</ele>
        <time>2009-05-31T09:22:54Z</time>
      </trkpt>
      <trkpt lat="43.87467" lon="7.20983">
        <ele>694.6896973</ele>
        <time>2009-05-31T09:23:01Z</time>
      </trkpt>
      <trkpt lat="43.87478" lon="7.20994">
        <ele>693.2478027</ele>
        <time>2009-05-31T09:23:04Z</time>
      </trkpt>
      <trkpt lat="43.875" lon="7.21008">
        <ele>692.2866211</ele>
        <time>2009-05-31T09:23:10Z</time>
      </trkpt>
      <trkpt lat="43.87517" lon="7.21026">
        <ele>691.8059082</ele>
        <time>2009-05-31T09:23:15Z</time>
      </trkpt>
      <trkpt lat="43.87521" lon="7.21043">
        <ele>692.2866211</ele>
        <time>2009-05-31T09:23:19Z</time>
      </trkpt>
      <trkpt lat="43.87528" lon="7.21056">
        <ele>692.767334</ele>
        <time>2009-05-31T09:23:23Z</time>
      </trkpt>
      <trkpt lat="43.87531" lon="7.21061">
        <ele>693.2478027</ele>
        <time>2009-05-31T09:23:25Z</time>
      </trkpt>
      <trkpt lat="43.87537" lon="7.21063">
        <ele>694.6896973</ele>
        <time>2009-05-31T09:23:29Z</time>
      </trkpt>
      <trkpt lat="43.8754" lon="7.21064">
        <ele>695.651123</ele>
        <time>2009-05-31T09:23:33Z</time>
      </trkpt>
      <trkpt lat="43.87553" lon="7.2107">
        <ele>698.0544434</ele>
        <time>2009-05-31T09:23:43Z</time>
      </trkpt>
      <trkpt lat="43.87563" lon="7.21073">
        <ele>698.5349121</ele>
        <time>2009-05-31T09:23:52Z</time>
      </trkpt>
      <trkpt lat="43.87567" lon="7.21076">
        <ele>699.015625</ele>
        <time>2009-05-31T09:23:58Z</time>
      </trkpt>
      <trkpt lat="43.87585" lon="7.21084">
        <ele>699.015625</ele>
        <time>2009-05-31T09:24:05Z</time>
      </trkpt>
      <trkpt lat="43.8759" lon="7.21086">
        <ele>699.9770508</ele>
        <time>2009-05-31T09:24:07Z</time>
      </trkpt>
      <trkpt lat="43.8761" lon="7.21094">
        <ele>700.9384766</ele>
        <time>2009-05-31T09:24:15Z</time>
      </trkpt>
      <trkpt lat="43.87624" lon="7.211">
        <ele>700.9384766</ele>
        <time>2009-05-31T09:24:21Z</time>
      </trkpt>
      <trkpt lat="43.87642" lon="7.21109">
        <ele>701.8999023</ele>
        <time>2009-05-31T09:24:27Z</time>
      </trkpt>
      <trkpt lat="43.87658" lon="7.21123">
        <ele>702.861084</ele>
        <time>2009-05-31T09:24:33Z</time>
      </trkpt>
      <trkpt lat="43.87669" lon="7.2114">
        <ele>704.3032227</ele>
        <time>2009-05-31T09:24:40Z</time>
      </trkpt>
      <trkpt lat="43.87674" lon="7.21153">
        <ele>705.2644043</ele>
        <time>2009-05-31T09:24:45Z</time>
      </trkpt>
      <trkpt lat="43.87683" lon="7.21166">
        <ele>704.3032227</ele>
        <time>2009-05-31T09:24:51Z</time>
      </trkpt>
      <trkpt lat="43.8769" lon="7.21174">
        <ele>703.3417969</ele>
        <time>2009-05-31T09:24:54Z</time>
      </trkpt>
      <trkpt lat="43.87702" lon="7.2118">
        <ele>701.4191895</ele>
        <time>2009-05-31T09:24:58Z</time>
      </trkpt>
      <trkpt lat="43.87713" lon="7.21181">
        <ele>701.4191895</ele>
        <time>2009-05-31T09:25:02Z</time>
      </trkpt>
      <trkpt lat="43.87723" lon="7.21191">
        <ele>702.3803711</ele>
        <time>2009-05-31T09:25:08Z</time>
      </trkpt>
      <trkpt lat="43.87732" lon="7.21205">
        <ele>701.8999023</ele>
        <time>2009-05-31T09:25:14Z</time>
      </trkpt>
      <trkpt lat="43.87741" lon="7.21222">
        <ele>703.8225098</ele>
        <time>2009-05-31T09:25:21Z</time>
      </trkpt>
      <trkpt lat="43.87746" lon="7.21235">
        <ele>704.3032227</ele>
        <time>2009-05-31T09:25:27Z</time>
      </trkpt>
      <trkpt lat="43.87748" lon="7.21238">
        <ele>705.2644043</ele>
        <time>2009-05-31T09:25:32Z</time>
      </trkpt>
      <trkpt lat="43.87752" lon="7.21245">
        <ele>706.7062988</ele>
        <time>2009-05-31T09:25:39Z</time>
      </trkpt>
      <trkpt lat="43.87756" lon="7.21251">
        <ele>707.6677246</ele>
        <time>2009-05-31T09:25:47Z</time>
      </trkpt>
      <trkpt lat="43.87763" lon="7.21255">
        <ele>710.0708008</ele>
        <time>2009-05-31T09:25:56Z</time>
      </trkpt>
      <trkpt lat="43.87767" lon="7.21256">
        <ele>711.0322266</ele>
        <time>2009-05-31T09:26:00Z</time>
      </trkpt>
      <trkpt lat="43.87776" lon="7.21258">
        <ele>711.5129395</ele>
        <time>2009-05-31T09:26:09Z</time>
      </trkpt>
      <trkpt lat="43.87786" lon="7.21256">
        <ele>712.954834</ele>
        <time>2009-05-31T09:26:20Z</time>
      </trkpt>
      <trkpt lat="43.87791" lon="7.21254">
        <ele>713.9160156</ele>
        <time>2009-05-31T09:26:26Z</time>
      </trkpt>
      <trkpt lat="43.87804" lon="7.21246">
        <ele>716.3195801</ele>
        <time>2009-05-31T09:26:34Z</time>
      </trkpt>
      <trkpt lat="43.87815" lon="7.21232">
        <ele>715.8388672</ele>
        <time>2009-05-31T09:26:42Z</time>
      </trkpt>
      <trkpt lat="43.87819" lon="7.21227">
        <ele>717.2810059</ele>
        <time>2009-05-31T09:26:45Z</time>
      </trkpt>
      <trkpt lat="43.8783" lon="7.21215">
        <ele>719.2036133</ele>
        <time>2009-05-31T09:26:53Z</time>
      </trkpt>
      <trkpt lat="43.87838" lon="7.21206">
        <ele>718.7229004</ele>
        <time>2009-05-31T09:26:58Z</time>
      </trkpt>
      <trkpt lat="43.8784" lon="7.212">
        <ele>719.2036133</ele>
        <time>2009-05-31T09:27:04Z</time>
      </trkpt>
      <trkpt lat="43.87845" lon="7.21193">
        <ele>719.2036133</ele>
        <time>2009-05-31T09:27:09Z</time>
      </trkpt>
      <trkpt lat="43.87857" lon="7.21178">
        <ele>719.2036133</ele>
        <time>2009-05-31T09:27:16Z</time>
      </trkpt>
      <trkpt lat="43.87867" lon="7.21166">
        <ele>721.1262207</ele>
        <time>2009-05-31T09:27:22Z</time>
      </trkpt>
      <trkpt lat="43.87869" lon="7.21164">
        <ele>720.6455078</ele>
        <time>2009-05-31T09:27:23Z</time>
      </trkpt>
      <trkpt lat="43.87871" lon="7.2116">
        <ele>721.1262207</ele>
        <time>2009-05-31T09:27:25Z</time>
      </trkpt>
      <trkpt lat="43.87881" lon="7.21155">
        <ele>719.6843262</ele>
        <time>2009-05-31T09:27:29Z</time>
      </trkpt>
      <trkpt lat="43.87884" lon="7.21153">
        <ele>720.6455078</ele>
        <time>2009-05-31T09:27:30Z</time>
      </trkpt>
      <trkpt lat="43.879" lon="7.21144">
        <ele>720.1647949</ele>
        <time>2009-05-31T09:27:36Z</time>
      </trkpt>
      <trkpt lat="43.87913" lon="7.21139">
        <ele>719.2036133</ele>
        <time>2009-05-31T09:27:41Z</time>
      </trkpt>
      <trkpt lat="43.87919" lon="7.21138">
        <ele>719.2036133</ele>
        <time>2009-05-31T09:27:43Z</time>
      </trkpt>
      <trkpt lat="43.87933" lon="7.21131">
        <ele>718.2421875</ele>
        <time>2009-05-31T09:27:48Z</time>
      </trkpt>
      <trkpt lat="43.87942" lon="7.21128">
        <ele>719.2036133</ele>
        <time>2009-05-31T09:27:51Z</time>
      </trkpt>
      <trkpt lat="43.87953" lon="7.21132">
        <ele>717.7614746</ele>
        <time>2009-05-31T09:27:55Z</time>
      </trkpt>
      <trkpt lat="43.87965" lon="7.21135">
        <ele>717.7614746</ele>
        <time>2009-05-31T09:27:58Z</time>
      </trkpt>
      <trkpt lat="43.87974" lon="7.21137">
        <ele>716.800293</ele>
        <time>2009-05-31T09:28:00Z</time>
      </trkpt>
      <trkpt lat="43.87991" lon="7.2114">
        <ele>716.3195801</ele>
        <time>2009-05-31T09:28:04Z</time>
      </trkpt>
      <trkpt lat="43.88007" lon="7.21134">
        <ele>715.8388672</ele>
        <time>2009-05-31T09:28:08Z</time>
      </trkpt>
      <trkpt lat="43.88026" lon="7.21126">
        <ele>712.954834</ele>
        <time>2009-05-31T09:28:12Z</time>
      </trkpt>
      <trkpt lat="43.88046" lon="7.2111">
        <ele>714.8774414</ele>
        <time>2009-05-31T09:28:18Z</time>
      </trkpt>
      <trkpt lat="43.88058" lon="7.21097">
        <ele>714.3967285</ele>
        <time>2009-05-31T09:28:23Z</time>
      </trkpt>
      <trkpt lat="43.8807" lon="7.21093">
        <ele>713.4355469</ele>
        <time>2009-05-31T09:28:27Z</time>
      </trkpt>
      <trkpt lat="43.88084" lon="7.21089">
        <ele>714.3967285</ele>
        <time>2009-05-31T09:28:31Z</time>
      </trkpt>
      <trkpt lat="43.88099" lon="7.21083">
        <ele>714.8774414</ele>
        <time>2009-05-31T09:28:37Z</time>
      </trkpt>
      <trkpt lat="43.88104" lon="7.21081">
        <ele>715.8388672</ele>
        <time>2009-05-31T09:28:39Z</time>
      </trkpt>
      <trkpt lat="43.88118" lon="7.21082">
        <ele>712.4741211</ele>
        <time>2009-05-31T09:28:43Z</time>
      </trkpt>
      <trkpt lat="43.88122" lon="7.21081">
        <ele>712.954834</ele>
        <time>2009-05-31T09:28:44Z</time>
      </trkpt>
      <trkpt lat="43.88132" lon="7.21074">
        <ele>713.4355469</ele>
        <time>2009-05-31T09:28:48Z</time>
      </trkpt>
      <trkpt lat="43.88135" lon="7.21073">
        <ele>713.4355469</ele>
        <time>2009-05-31T09:28:49Z</time>
      </trkpt>
      <trkpt lat="43.88146" lon="7.21068">
        <ele>711.9936523</ele>
        <time>2009-05-31T09:28:52Z</time>
      </trkpt>
      <trkpt lat="43.88158" lon="7.21064">
        <ele>711.0322266</ele>
        <time>2009-05-31T09:28:55Z</time>
      </trkpt>
      <trkpt lat="43.88173" lon="7.21062">
        <ele>708.1484375</ele>
        <time>2009-05-31T09:28:59Z</time>
      </trkpt>
      <trkpt lat="43.88191" lon="7.21053">
        <ele>707.6677246</ele>
        <time>2009-05-31T09:29:04Z</time>
      </trkpt>
      <trkpt lat="43.88192" lon="7.21052">
        <ele>708.6289062</ele>
        <time>2009-05-31T09:29:05Z</time>
      </trkpt>
      <trkpt lat="43.88198" lon="7.21047">
        <ele>709.590332</ele>
        <time>2009-05-31T09:29:07Z</time>
      </trkpt>
      <trkpt lat="43.88205" lon="7.21042">
        <ele>710.5515137</ele>
        <time>2009-05-31T09:29:11Z</time>
      </trkpt>
      <trkpt lat="43.88217" lon="7.21036">
        <ele>711.0322266</ele>
        <time>2009-05-31T09:29:17Z</time>
      </trkpt>
      <trkpt lat="43.88234" lon="7.21031">
        <ele>710.5515137</ele>
        <time>2009-05-31T09:29:25Z</time>
      </trkpt>
      <trkpt lat="43.88242" lon="7.2103">
        <ele>710.5515137</ele>
        <time>2009-05-31T09:29:30Z</time>
      </trkpt>
      <trkpt lat="43.88253" lon="7.21032">
        <ele>708.6289062</ele>
        <time>2009-05-31T09:29:36Z</time>
      </trkpt>
      <trkpt lat="43.88262" lon="7.21034">
        <ele>708.6289062</ele>
        <time>2009-05-31T09:29:41Z</time>
      </trkpt>
      <trkpt lat="43.88276" lon="7.21036">
        <ele>707.1870117</ele>
        <time>2009-05-31T09:29:46Z</time>
      </trkpt>
      <trkpt lat="43.88291" lon="7.21034">
        <ele>705.7451172</ele>
        <time>2009-05-31T09:29:50Z</time>
      </trkpt>
      <trkpt lat="43.88299" lon="7.2103">
        <ele>704.7836914</ele>
        <time>2009-05-31T09:29:52Z</time>
      </trkpt>
      <trkpt lat="43.88307" lon="7.21024">
        <ele>705.2644043</ele>
        <time>2009-05-31T09:29:54Z</time>
      </trkpt>
      <trkpt lat="43.8832" lon="7.21008">
        <ele>705.2644043</ele>
        <time>2009-05-31T09:29:59Z</time>
      </trkpt>
      <trkpt lat="43.88333" lon="7.20998">
        <ele>705.2644043</ele>
        <time>2009-05-31T09:30:04Z</time>
      </trkpt>
      <trkpt lat="43.8834" lon="7.20992">
        <ele>703.8225098</ele>
        <time>2009-05-31T09:30:06Z</time>
      </trkpt>
      <trkpt lat="43.88355" lon="7.20976">
        <ele>704.3032227</ele>
        <time>2009-05-31T09:30:11Z</time>
      </trkpt>
      <trkpt lat="43.88371" lon="7.20965">
        <ele>701.4191895</ele>
        <time>2009-05-31T09:30:17Z</time>
      </trkpt>
      <trkpt lat="43.88376" lon="7.20964">
        <ele>699.9770508</ele>
        <time>2009-05-31T09:30:20Z</time>
      </trkpt>
      <trkpt lat="43.8838" lon="7.20965">
        <ele>699.9770508</ele>
        <time>2009-05-31T09:30:25Z</time>
      </trkpt>
      <trkpt lat="43.88386" lon="7.20965">
        <ele>700.9384766</ele>
        <time>2009-05-31T09:30:31Z</time>
      </trkpt>
      <trkpt lat="43.88388" lon="7.20965">
        <ele>700.4580078</ele>
        <time>2009-05-31T09:30:32Z</time>
      </trkpt>
      <trkpt lat="43.88394" lon="7.20971">
        <ele>700.4580078</ele>
        <time>2009-05-31T09:30:37Z</time>
      </trkpt>
      <trkpt lat="43.88401" lon="7.20976">
        <ele>701.4191895</ele>
        <time>2009-05-31T09:30:43Z</time>
      </trkpt>
      <trkpt lat="43.88394" lon="7.20982">
        <ele>700.4580078</ele>
        <time>2009-05-31T09:30:49Z</time>
      </trkpt>
      <trkpt lat="43.88391" lon="7.20983">
        <ele>701.8999023</ele>
        <time>2009-05-31T09:30:51Z</time>
      </trkpt>
      <trkpt lat="43.88385" lon="7.20992">
        <ele>702.3803711</ele>
        <time>2009-05-31T09:30:57Z</time>
      </trkpt>
      <trkpt lat="43.8838" lon="7.20998">
        <ele>699.4963379</ele>
        <time>2009-05-31T09:30:59Z</time>
      </trkpt>
      <trkpt lat="43.88377" lon="7.21021">
        <ele>699.4963379</ele>
        <time>2009-05-31T09:31:03Z</time>
      </trkpt>
      <trkpt lat="43.88379" lon="7.21039">
        <ele>699.015625</ele>
        <time>2009-05-31T09:31:06Z</time>
      </trkpt>
      <trkpt lat="43.88387" lon="7.21067">
        <ele>696.6125488</ele>
        <time>2009-05-31T09:31:11Z</time>
      </trkpt>
      <trkpt lat="43.88397" lon="7.21074">
        <ele>695.1704102</ele>
        <time>2009-05-31T09:31:15Z</time>
      </trkpt>
      <trkpt lat="43.88398" lon="7.21078">
        <ele>694.2092285</ele>
        <time>2009-05-31T09:31:16Z</time>
      </trkpt>
      <trkpt lat="43.88397" lon="7.21089">
        <ele>694.2092285</ele>
        <time>2009-05-31T09:31:18Z</time>
      </trkpt>
      <trkpt lat="43.8839" lon="7.21117">
        <ele>694.2092285</ele>
        <time>2009-05-31T09:31:24Z</time>
      </trkpt>
      <trkpt lat="43.88394" lon="7.21139">
        <ele>693.2478027</ele>
        <time>2009-05-31T09:31:28Z</time>
      </trkpt>
      <trkpt lat="43.88401" lon="7.21157">
        <ele>691.3251953</ele>
        <time>2009-05-31T09:31:32Z</time>
      </trkpt>
      <trkpt lat="43.88401" lon="7.2116">
        <ele>691.3251953</ele>
        <time>2009-05-31T09:31:33Z</time>
      </trkpt>
      <trkpt lat="43.88392" lon="7.21168">
        <ele>692.767334</ele>
        <time>2009-05-31T09:31:37Z</time>
      </trkpt>
      <trkpt lat="43.88374" lon="7.21182">
        <ele>694.6896973</ele>
        <time>2009-05-31T09:31:45Z</time>
      </trkpt>
      <trkpt lat="43.88362" lon="7.21195">
        <ele>694.6896973</ele>
        <time>2009-05-31T09:31:51Z</time>
      </trkpt>
      <trkpt lat="43.88353" lon="7.21213">
        <ele>695.1704102</ele>
        <time>2009-05-31T09:31:57Z</time>
      </trkpt>
      <trkpt lat="43.8835" lon="7.21238">
        <ele>695.1704102</ele>
        <time>2009-05-31T09:32:03Z</time>
      </trkpt>
      <trkpt lat="43.88349" lon="7.21256">
        <ele>695.1704102</ele>
        <time>2009-05-31T09:32:08Z</time>
      </trkpt>
      <trkpt lat="43.88342" lon="7.21271">
        <ele>691.8059082</ele>
        <time>2009-05-31T09:32:13Z</time>
      </trkpt>
      <trkpt lat="43.88339" lon="7.21278">
        <ele>690.8444824</ele>
        <time>2009-05-31T09:32:15Z</time>
      </trkpt>
      <trkpt lat="43.88337" lon="7.21294">
        <ele>689.8833008</ele>
        <time>2009-05-31T09:32:18Z</time>
      </trkpt>
      <trkpt lat="43.8834" lon="7.21326">
        <ele>688.9221191</ele>
        <time>2009-05-31T09:32:23Z</time>
      </trkpt>
      <trkpt lat="43.88339" lon="7.21344">
        <ele>689.4025879</ele>
        <time>2009-05-31T09:32:26Z</time>
      </trkpt>
      <trkpt lat="43.88336" lon="7.21353">
        <ele>690.3640137</ele>
        <time>2009-05-31T09:32:28Z</time>
      </trkpt>
      <trkpt lat="43.88336" lon="7.2136">
        <ele>689.8833008</ele>
        <time>2009-05-31T09:32:30Z</time>
      </trkpt>
      <trkpt lat="43.88336" lon="7.21377">
        <ele>687.9606934</ele>
        <time>2009-05-31T09:32:35Z</time>
      </trkpt>
      <trkpt lat="43.88338" lon="7.21385">
        <ele>686.0380859</ele>
        <time>2009-05-31T09:32:39Z</time>
      </trkpt>
      <trkpt lat="43.88341" lon="7.2139">
        <ele>685.557373</ele>
        <time>2009-05-31T09:32:43Z</time>
      </trkpt>
      <trkpt lat="43.88349" lon="7.21401">
        <ele>681.7119141</ele>
        <time>2009-05-31T09:32:48Z</time>
      </trkpt>
      <trkpt lat="43.88351" lon="7.21403">
        <ele>682.192627</ele>
        <time>2009-05-31T09:32:49Z</time>
      </trkpt>
      <trkpt lat="43.88354" lon="7.21409">
        <ele>680.7507324</ele>
        <time>2009-05-31T09:32:52Z</time>
      </trkpt>
      <trkpt lat="43.88353" lon="7.21415">
        <ele>677.8666992</ele>
        <time>2009-05-31T09:32:54Z</time>
      </trkpt>
      <trkpt lat="43.8835" lon="7.21428">
        <ele>674.0214844</ele>
        <time>2009-05-31T09:32:58Z</time>
      </trkpt>
      <trkpt lat="43.88349" lon="7.21432">
        <ele>672.5795898</ele>
        <time>2009-05-31T09:32:59Z</time>
      </trkpt>
      <trkpt lat="43.88357" lon="7.21449">
        <ele>670.1762695</ele>
        <time>2009-05-31T09:33:02Z</time>
      </trkpt>
      <trkpt lat="43.88363" lon="7.21467">
        <ele>670.1762695</ele>
        <time>2009-05-31T09:33:06Z</time>
      </trkpt>
      <trkpt lat="43.88363" lon="7.21471">
        <ele>669.2150879</ele>
        <time>2009-05-31T09:33:10Z</time>
      </trkpt>
      <trkpt lat="43.88363" lon="7.2147">
        <ele>669.2150879</ele>
        <time>2009-05-31T09:33:11Z</time>
      </trkpt>
      <trkpt lat="43.88362" lon="7.21472">
        <ele>666.8115234</ele>
        <time>2009-05-31T09:33:16Z</time>
      </trkpt>
      <trkpt lat="43.88363" lon="7.21475">
        <ele>666.3308105</ele>
        <time>2009-05-31T09:33:19Z</time>
      </trkpt>
      <trkpt lat="43.88366" lon="7.21492">
        <ele>663.4470215</ele>
        <time>2009-05-31T09:33:24Z</time>
      </trkpt>
      <trkpt lat="43.88371" lon="7.21513">
        <ele>659.6018066</ele>
        <time>2009-05-31T09:33:29Z</time>
      </trkpt>
      <trkpt lat="43.88372" lon="7.21516">
        <ele>659.6018066</ele>
        <time>2009-05-31T09:33:30Z</time>
      </trkpt>
      <trkpt lat="43.88374" lon="7.21524">
        <ele>655.2758789</ele>
        <time>2009-05-31T09:33:33Z</time>
      </trkpt>
      <trkpt lat="43.88376" lon="7.2153">
        <ele>654.3146973</ele>
        <time>2009-05-31T09:33:35Z</time>
      </trkpt>
      <trkpt lat="43.8838" lon="7.21533">
        <ele>653.8339844</ele>
        <time>2009-05-31T09:33:36Z</time>
      </trkpt>
      <trkpt lat="43.88397" lon="7.21559">
        <ele>650.4692383</ele>
        <time>2009-05-31T09:33:40Z</time>
      </trkpt>
      <trkpt lat="43.88402" lon="7.21566">
        <ele>648.065918</ele>
        <time>2009-05-31T09:33:41Z</time>
      </trkpt>
      <trkpt lat="43.88413" lon="7.21581">
        <ele>646.1433105</ele>
        <time>2009-05-31T09:33:44Z</time>
      </trkpt>
      <trkpt lat="43.88432" lon="7.21603">
        <ele>643.2592773</ele>
        <time>2009-05-31T09:33:48Z</time>
      </trkpt>
      <trkpt lat="43.88437" lon="7.21608">
        <ele>642.7788086</ele>
        <time>2009-05-31T09:33:49Z</time>
      </trkpt>
      <trkpt lat="43.88448" lon="7.21624">
        <ele>639.4140625</ele>
        <time>2009-05-31T09:33:53Z</time>
      </trkpt>
      <trkpt lat="43.88453" lon="7.21634">
        <ele>637.972168</ele>
        <time>2009-05-31T09:33:55Z</time>
      </trkpt>
      <trkpt lat="43.8846" lon="7.21643">
        <ele>637.972168</ele>
        <time>2009-05-31T09:33:57Z</time>
      </trkpt>
      <trkpt lat="43.88475" lon="7.21673">
        <ele>637.4914551</ele>
        <time>2009-05-31T09:34:03Z</time>
      </trkpt>
      <trkpt lat="43.88481" lon="7.21688">
        <ele>637.4914551</ele>
        <time>2009-05-31T09:34:06Z</time>
      </trkpt>
      <trkpt lat="43.8849" lon="7.21705">
        <ele>636.0495605</ele>
        <time>2009-05-31T09:34:09Z</time>
      </trkpt>
      <trkpt lat="43.88494" lon="7.21733">
        <ele>634.126709</ele>
        <time>2009-05-31T09:34:13Z</time>
      </trkpt>
      <trkpt lat="43.88492" lon="7.21754">
        <ele>634.126709</ele>
        <time>2009-05-31T09:34:16Z</time>
      </trkpt>
      <trkpt lat="43.88482" lon="7.21784">
        <ele>634.126709</ele>
        <time>2009-05-31T09:34:22Z</time>
      </trkpt>
      <trkpt lat="43.88472" lon="7.218">
        <ele>635.0881348</ele>
        <time>2009-05-31T09:34:27Z</time>
      </trkpt>
      <trkpt lat="43.8847" lon="7.21816">
        <ele>635.5686035</ele>
        <time>2009-05-31T09:34:32Z</time>
      </trkpt>
      <trkpt lat="43.88469" lon="7.21821">
        <ele>637.0107422</ele>
        <time>2009-05-31T09:34:35Z</time>
      </trkpt>
      <trkpt lat="43.88471" lon="7.21829">
        <ele>639.8947754</ele>
        <time>2009-05-31T09:34:43Z</time>
      </trkpt>
      <trkpt lat="43.88471" lon="7.2183">
        <ele>639.8947754</ele>
        <time>2009-05-31T09:34:44Z</time>
      </trkpt>
      <trkpt lat="43.88471" lon="7.21833">
        <ele>639.8947754</ele>
        <time>2009-05-31T09:34:48Z</time>
      </trkpt>
      <trkpt lat="43.8847" lon="7.21841">
        <ele>639.8947754</ele>
        <time>2009-05-31T09:34:56Z</time>
      </trkpt>
      <trkpt lat="43.88469" lon="7.21848">
        <ele>639.8947754</ele>
        <time>2009-05-31T09:35:01Z</time>
      </trkpt>
      <trkpt lat="43.88467" lon="7.21865">
        <ele>640.3754883</ele>
        <time>2009-05-31T09:35:07Z</time>
      </trkpt>
      <trkpt lat="43.88465" lon="7.21891">
        <ele>641.3366699</ele>
        <time>2009-05-31T09:35:15Z</time>
      </trkpt>
      <trkpt lat="43.88463" lon="7.21908">
        <ele>640.855957</ele>
        <time>2009-05-31T09:35:21Z</time>
      </trkpt>
      <trkpt lat="43.88458" lon="7.21926">
        <ele>637.4914551</ele>
        <time>2009-05-31T09:35:25Z</time>
      </trkpt>
      <trkpt lat="43.88458" lon="7.21933">
        <ele>637.972168</ele>
        <time>2009-05-31T09:35:26Z</time>
      </trkpt>
      <trkpt lat="43.88459" lon="7.21945">
        <ele>638.9335938</ele>
        <time>2009-05-31T09:35:32Z</time>
      </trkpt>
      <trkpt lat="43.88462" lon="7.21958">
        <ele>640.855957</ele>
        <time>2009-05-31T09:35:40Z</time>
      </trkpt>
      <trkpt lat="43.88466" lon="7.21973">
        <ele>642.7788086</ele>
        <time>2009-05-31T09:35:51Z</time>
      </trkpt>
      <trkpt lat="43.88468" lon="7.21982">
        <ele>643.7399902</ele>
        <time>2009-05-31T09:36:00Z</time>
      </trkpt>
      <trkpt lat="43.8847" lon="7.21991">
        <ele>645.6625977</ele>
        <time>2009-05-31T09:36:07Z</time>
      </trkpt>
      <trkpt lat="43.88471" lon="7.21993">
        <ele>645.6625977</ele>
        <time>2009-05-31T09:36:08Z</time>
      </trkpt>
      <trkpt lat="43.88474" lon="7.21998">
        <ele>647.5852051</ele>
        <time>2009-05-31T09:36:15Z</time>
      </trkpt>
      <trkpt lat="43.88477" lon="7.22003">
        <ele>648.5463867</ele>
        <time>2009-05-31T09:36:23Z</time>
      </trkpt>
      <trkpt lat="43.88478" lon="7.22005">
        <ele>648.5463867</ele>
        <time>2009-05-31T09:36:38Z</time>
      </trkpt>
      <trkpt lat="43.88478" lon="7.22005">
        <ele>648.5463867</ele>
        <time>2009-05-31T09:36:44Z</time>
      </trkpt>
      <trkpt lat="43.88478" lon="7.22006">
        <ele>647.5852051</ele>
        <time>2009-05-31T09:37:36Z</time>
      </trkpt>
      <trkpt lat="43.88479" lon="7.22005">
        <ele>647.5852051</ele>
        <time>2009-05-31T09:37:57Z</time>
      </trkpt>
      <trkpt lat="43.88481" lon="7.22007">
        <ele>649.5078125</ele>
        <time>2009-05-31T09:38:04Z</time>
      </trkpt>
      <trkpt lat="43.88487" lon="7.22011">
        <ele>649.9885254</ele>
        <time>2009-05-31T09:38:10Z</time>
      </trkpt>
      <trkpt lat="43.88491" lon="7.22013">
        <ele>650.4692383</ele>
        <time>2009-05-31T09:38:16Z</time>
      </trkpt>
      <trkpt lat="43.88495" lon="7.2202">
        <ele>650.949707</ele>
        <time>2009-05-31T09:38:24Z</time>
      </trkpt>
      <trkpt lat="43.88501" lon="7.22031">
        <ele>654.3146973</ele>
        <time>2009-05-31T09:38:35Z</time>
      </trkpt>
      <trkpt lat="43.88506" lon="7.22039">
        <ele>655.7565918</ele>
        <time>2009-05-31T09:38:44Z</time>
      </trkpt>
      <trkpt lat="43.88508" lon="7.22043">
        <ele>656.7177734</ele>
        <time>2009-05-31T09:38:48Z</time>
      </trkpt>
      <trkpt lat="43.88512" lon="7.22052">
        <ele>657.6791992</ele>
        <time>2009-05-31T09:38:57Z</time>
      </trkpt>
      <trkpt lat="43.88516" lon="7.22058">
        <ele>659.1210938</ele>
        <time>2009-05-31T09:39:04Z</time>
      </trkpt>
      <trkpt lat="43.88522" lon="7.22068">
        <ele>660.5629883</ele>
        <time>2009-05-31T09:39:13Z</time>
      </trkpt>
      <trkpt lat="43.88527" lon="7.22075">
        <ele>661.0437012</ele>
        <time>2009-05-31T09:39:22Z</time>
      </trkpt>
      <trkpt lat="43.88532" lon="7.22079">
        <ele>663.4470215</ele>
        <time>2009-05-31T09:39:31Z</time>
      </trkpt>
      <trkpt lat="43.88535" lon="7.22085">
        <ele>664.4082031</ele>
        <time>2009-05-31T09:39:40Z</time>
      </trkpt>
      <trkpt lat="43.88536" lon="7.22087">
        <ele>665.3696289</ele>
        <time>2009-05-31T09:39:42Z</time>
      </trkpt>
      <trkpt lat="43.88542" lon="7.22098">
        <ele>666.3308105</ele>
        <time>2009-05-31T09:39:53Z</time>
      </trkpt>
      <trkpt lat="43.88547" lon="7.22107">
        <ele>666.3308105</ele>
        <time>2009-05-31T09:40:01Z</time>
      </trkpt>
      <trkpt lat="43.88551" lon="7.22116">
        <ele>667.7727051</ele>
        <time>2009-05-31T09:40:09Z</time>
      </trkpt>
      <trkpt lat="43.88559" lon="7.22127">
        <ele>668.2536621</ele>
        <time>2009-05-31T09:40:19Z</time>
      </trkpt>
      <trkpt lat="43.88566" lon="7.22136">
        <ele>667.7727051</ele>
        <time>2009-05-31T09:40:27Z</time>
      </trkpt>
      <trkpt lat="43.8857" lon="7.22141">
        <ele>668.2536621</ele>
        <time>2009-05-31T09:40:35Z</time>
      </trkpt>
      <trkpt lat="43.88573" lon="7.22144">
        <ele>668.734375</ele>
        <time>2009-05-31T09:40:39Z</time>
      </trkpt>
      <trkpt lat="43.88581" lon="7.22152">
        <ele>668.734375</ele>
        <time>2009-05-31T09:40:49Z</time>
      </trkpt>
      <trkpt lat="43.88582" lon="7.22153">
        <ele>670.1762695</ele>
        <time>2009-05-31T09:40:55Z</time>
      </trkpt>
      <trkpt lat="43.88582" lon="7.22154">
        <ele>670.1762695</ele>
        <time>2009-05-31T09:41:02Z</time>
      </trkpt>
      <trkpt lat="43.88585" lon="7.22158">
        <ele>670.1762695</ele>
        <time>2009-05-31T09:41:20Z</time>
      </trkpt>
      <trkpt lat="43.8859" lon="7.22163">
        <ele>670.1762695</ele>
        <time>2009-05-31T09:41:28Z</time>
      </trkpt>
      <trkpt lat="43.88593" lon="7.2217">
        <ele>670.6569824</ele>
        <time>2009-05-31T09:41:33Z</time>
      </trkpt>
      <trkpt lat="43.88599" lon="7.22179">
        <ele>671.6181641</ele>
        <time>2009-05-31T09:41:39Z</time>
      </trkpt>
      <trkpt lat="43.88606" lon="7.2219">
        <ele>672.098877</ele>
        <time>2009-05-31T09:41:46Z</time>
      </trkpt>
      <trkpt lat="43.88611" lon="7.22197">
        <ele>672.5795898</ele>
        <time>2009-05-31T09:41:51Z</time>
      </trkpt>
      <trkpt lat="43.88618" lon="7.22202">
        <ele>674.9829102</ele>
        <time>2009-05-31T09:41:57Z</time>
      </trkpt>
      <trkpt lat="43.88618" lon="7.22203">
        <ele>675.4633789</ele>
        <time>2009-05-31T09:42:00Z</time>
      </trkpt>
      <trkpt lat="43.88624" lon="7.2221">
        <ele>675.9440918</ele>
        <time>2009-05-31T09:42:09Z</time>
      </trkpt>
      <trkpt lat="43.88628" lon="7.22215">
        <ele>675.9440918</ele>
        <time>2009-05-31T09:42:15Z</time>
      </trkpt>
      <trkpt lat="43.88635" lon="7.22218">
        <ele>675.4633789</ele>
        <time>2009-05-31T09:42:21Z</time>
      </trkpt>
      <trkpt lat="43.88645" lon="7.2222">
        <ele>674.5021973</ele>
        <time>2009-05-31T09:42:29Z</time>
      </trkpt>
      <trkpt lat="43.88653" lon="7.22229">
        <ele>675.9440918</ele>
        <time>2009-05-31T09:42:38Z</time>
      </trkpt>
      <trkpt lat="43.8866" lon="7.22234">
        <ele>677.3862305</ele>
        <time>2009-05-31T09:42:47Z</time>
      </trkpt>
      <trkpt lat="43.88669" lon="7.22237">
        <ele>677.8666992</ele>
        <time>2009-05-31T09:42:56Z</time>
      </trkpt>
      <trkpt lat="43.88676" lon="7.22242">
        <ele>678.3474121</ele>
        <time>2009-05-31T09:43:04Z</time>
      </trkpt>
      <trkpt lat="43.88684" lon="7.22249">
        <ele>679.7893066</ele>
        <time>2009-05-31T09:43:12Z</time>
      </trkpt>
      <trkpt lat="43.88688" lon="7.22252">
        <ele>680.7507324</ele>
        <time>2009-05-31T09:43:18Z</time>
      </trkpt>
      <trkpt lat="43.8869" lon="7.22255">
        <ele>680.2700195</ele>
        <time>2009-05-31T09:43:23Z</time>
      </trkpt>
      <trkpt lat="43.88695" lon="7.22271">
        <ele>677.8666992</ele>
        <time>2009-05-31T09:43:29Z</time>
      </trkpt>
      <trkpt lat="43.88697" lon="7.22277">
        <ele>677.3862305</ele>
        <time>2009-05-31T09:43:31Z</time>
      </trkpt>
      <trkpt lat="43.887" lon="7.22287">
        <ele>676.9055176</ele>
        <time>2009-05-31T09:43:37Z</time>
      </trkpt>
      <trkpt lat="43.88702" lon="7.22292">
        <ele>676.4248047</ele>
        <time>2009-05-31T09:43:43Z</time>
      </trkpt>
      <trkpt lat="43.88704" lon="7.22301">
        <ele>675.4633789</ele>
        <time>2009-05-31T09:43:49Z</time>
      </trkpt>
      <trkpt lat="43.88705" lon="7.22301">
        <ele>675.4633789</ele>
        <time>2009-05-31T09:43:55Z</time>
      </trkpt>
      <trkpt lat="43.8871" lon="7.22313">
        <ele>675.4633789</ele>
        <time>2009-05-31T09:44:01Z</time>
      </trkpt>
      <trkpt lat="43.88717" lon="7.22317">
        <ele>674.9829102</ele>
        <time>2009-05-31T09:44:04Z</time>
      </trkpt>
      <trkpt lat="43.88719" lon="7.22318">
        <ele>674.9829102</ele>
        <time>2009-05-31T09:44:06Z</time>
      </trkpt>
      <trkpt lat="43.8872" lon="7.22325">
        <ele>673.5410156</ele>
        <time>2009-05-31T09:44:10Z</time>
      </trkpt>
      <trkpt lat="43.88711" lon="7.22342">
        <ele>672.5795898</ele>
        <time>2009-05-31T09:44:16Z</time>
      </trkpt>
      <trkpt lat="43.88707" lon="7.22355">
        <ele>669.2150879</ele>
        <time>2009-05-31T09:44:19Z</time>
      </trkpt>
      <trkpt lat="43.88705" lon="7.22359">
        <ele>668.2536621</ele>
        <time>2009-05-31T09:44:20Z</time>
      </trkpt>
      <trkpt lat="43.88697" lon="7.22362">
        <ele>664.888916</ele>
        <time>2009-05-31T09:44:24Z</time>
      </trkpt>
      <trkpt lat="43.88694" lon="7.22367">
        <ele>663.4470215</ele>
        <time>2009-05-31T09:44:27Z</time>
      </trkpt>
      <trkpt lat="43.88692" lon="7.22377">
        <ele>660.5629883</ele>
        <time>2009-05-31T09:44:30Z</time>
      </trkpt>
      <trkpt lat="43.88693" lon="7.22382">
        <ele>659.6018066</ele>
        <time>2009-05-31T09:44:32Z</time>
      </trkpt>
      <trkpt lat="43.88694" lon="7.22387">
        <ele>659.1210938</ele>
        <time>2009-05-31T09:44:36Z</time>
      </trkpt>
      <trkpt lat="43.88696" lon="7.22395">
        <ele>657.1984863</ele>
        <time>2009-05-31T09:44:38Z</time>
      </trkpt>
      <trkpt lat="43.887" lon="7.2241">
        <ele>655.7565918</ele>
        <time>2009-05-31T09:44:41Z</time>
      </trkpt>
      <trkpt lat="43.88704" lon="7.22435">
        <ele>653.3532715</ele>
        <time>2009-05-31T09:44:45Z</time>
      </trkpt>
      <trkpt lat="43.88706" lon="7.22461">
        <ele>651.4304199</ele>
        <time>2009-05-31T09:44:49Z</time>
      </trkpt>
      <trkpt lat="43.88711" lon="7.22478">
        <ele>649.5078125</ele>
        <time>2009-05-31T09:44:52Z</time>
      </trkpt>
      <trkpt lat="43.88713" lon="7.22494">
        <ele>645.6625977</ele>
        <time>2009-05-31T09:44:55Z</time>
      </trkpt>
      <trkpt lat="43.88711" lon="7.22503">
        <ele>644.2207031</ele>
        <time>2009-05-31T09:44:57Z</time>
      </trkpt>
      <trkpt lat="43.88708" lon="7.22517">
        <ele>641.8173828</ele>
        <time>2009-05-31T09:45:00Z</time>
      </trkpt>
      <trkpt lat="43.8871" lon="7.22534">
        <ele>637.0107422</ele>
        <time>2009-05-31T09:45:04Z</time>
      </trkpt>
      <trkpt lat="43.8871" lon="7.22542">
        <ele>635.5686035</ele>
        <time>2009-05-31T09:45:06Z</time>
      </trkpt>
      <trkpt lat="43.8871" lon="7.22549">
        <ele>634.126709</ele>
        <time>2009-05-31T09:45:08Z</time>
      </trkpt>
      <trkpt lat="43.88707" lon="7.2256">
        <ele>632.2041016</ele>
        <time>2009-05-31T09:45:11Z</time>
      </trkpt>
      <trkpt lat="43.88708" lon="7.22565">
        <ele>631.7233887</ele>
        <time>2009-05-31T09:45:12Z</time>
      </trkpt>
      <trkpt lat="43.8871" lon="7.22574">
        <ele>630.2814941</ele>
        <time>2009-05-31T09:45:14Z</time>
      </trkpt>
      <trkpt lat="43.8872" lon="7.22584">
        <ele>628.8395996</ele>
        <time>2009-05-31T09:45:18Z</time>
      </trkpt>
      <trkpt lat="43.88727" lon="7.22594">
        <ele>624.9943848</ele>
        <time>2009-05-31T09:45:21Z</time>
      </trkpt>
      <trkpt lat="43.88729" lon="7.22602">
        <ele>623.5524902</ele>
        <time>2009-05-31T09:45:24Z</time>
      </trkpt>
      <trkpt lat="43.88732" lon="7.22608">
        <ele>620.1877441</ele>
        <time>2009-05-31T09:45:26Z</time>
      </trkpt>
      <trkpt lat="43.88732" lon="7.22612">
        <ele>619.7070312</ele>
        <time>2009-05-31T09:45:27Z</time>
      </trkpt>
      <trkpt lat="43.88731" lon="7.22614">
        <ele>619.2263184</ele>
        <time>2009-05-31T09:45:30Z</time>
      </trkpt>
      <trkpt lat="43.8873" lon="7.22614">
        <ele>619.2263184</ele>
        <time>2009-05-31T09:45:31Z</time>
      </trkpt>
      <trkpt lat="43.88727" lon="7.22616">
        <ele>618.2648926</ele>
        <time>2009-05-31T09:45:37Z</time>
      </trkpt>
      <trkpt lat="43.88729" lon="7.22628">
        <ele>615.3811035</ele>
        <time>2009-05-31T09:45:41Z</time>
      </trkpt>
      <trkpt lat="43.88729" lon="7.22629">
        <ele>614.9003906</ele>
        <time>2009-05-31T09:45:42Z</time>
      </trkpt>
      <trkpt lat="43.88725" lon="7.22633">
        <ele>612.9777832</ele>
        <time>2009-05-31T09:45:46Z</time>
      </trkpt>
      <trkpt lat="43.88719" lon="7.22631">
        <ele>611.5358887</ele>
        <time>2009-05-31T09:45:49Z</time>
      </trkpt>
      <trkpt lat="43.88719" lon="7.22632">
        <ele>610.5744629</ele>
        <time>2009-05-31T09:45:50Z</time>
      </trkpt>
      <trkpt lat="43.8872" lon="7.22643">
        <ele>609.6132812</ele>
        <time>2009-05-31T09:45:54Z</time>
      </trkpt>
      <trkpt lat="43.88718" lon="7.22659">
        <ele>605.2873535</ele>
        <time>2009-05-31T09:45:58Z</time>
      </trkpt>
      <trkpt lat="43.88716" lon="7.22667">
        <ele>603.8452148</ele>
        <time>2009-05-31T09:46:00Z</time>
      </trkpt>
      <trkpt lat="43.88712" lon="7.22687">
        <ele>600.4807129</ele>
        <time>2009-05-31T09:46:05Z</time>
      </trkpt>
      <trkpt lat="43.88713" lon="7.22706">
        <ele>598.0773926</ele>
        <time>2009-05-31T09:46:10Z</time>
      </trkpt>
      <trkpt lat="43.88715" lon="7.22719">
        <ele>596.635498</ele>
        <time>2009-05-31T09:46:15Z</time>
      </trkpt>
      <trkpt lat="43.88713" lon="7.2273">
        <ele>593.270752</ele>
        <time>2009-05-31T09:46:18Z</time>
      </trkpt>
      <trkpt lat="43.88713" lon="7.22735">
        <ele>593.270752</ele>
        <time>2009-05-31T09:46:19Z</time>
      </trkpt>
      <trkpt lat="43.88713" lon="7.22747">
        <ele>588.9450684</ele>
        <time>2009-05-31T09:46:23Z</time>
      </trkpt>
      <trkpt lat="43.88709" lon="7.22757">
        <ele>585.5800781</ele>
        <time>2009-05-31T09:46:26Z</time>
      </trkpt>
      <trkpt lat="43.88708" lon="7.22759">
        <ele>585.0996094</ele>
        <time>2009-05-31T09:46:27Z</time>
      </trkpt>
      <trkpt lat="43.88706" lon="7.22762">
        <ele>584.1381836</ele>
        <time>2009-05-31T09:46:29Z</time>
      </trkpt>
      <trkpt lat="43.88705" lon="7.22763">
        <ele>584.1381836</ele>
        <time>2009-05-31T09:46:32Z</time>
      </trkpt>
      <trkpt lat="43.88702" lon="7.22764">
        <ele>582.6962891</ele>
        <time>2009-05-31T09:46:35Z</time>
      </trkpt>
      <trkpt lat="43.887" lon="7.22769">
        <ele>582.2155762</ele>
        <time>2009-05-31T09:46:40Z</time>
      </trkpt>
      <trkpt lat="43.88699" lon="7.22775">
        <ele>581.7348633</ele>
        <time>2009-05-31T09:46:48Z</time>
      </trkpt>
      <trkpt lat="43.88696" lon="7.22778">
        <ele>580.7736816</ele>
        <time>2009-05-31T09:46:55Z</time>
      </trkpt>
      <trkpt lat="43.88694" lon="7.2278">
        <ele>579.8122559</ele>
        <time>2009-05-31T09:47:00Z</time>
      </trkpt>
      <trkpt lat="43.88695" lon="7.22778">
        <ele>579.8122559</ele>
        <time>2009-05-31T09:47:02Z</time>
      </trkpt>
      <trkpt lat="43.88695" lon="7.2277">
        <ele>575.967041</ele>
        <time>2009-05-31T09:47:07Z</time>
      </trkpt>
      <trkpt lat="43.88693" lon="7.2277">
        <ele>575.967041</ele>
        <time>2009-05-31T09:47:11Z</time>
      </trkpt>
      <trkpt lat="43.88693" lon="7.22772">
        <ele>575.0058594</ele>
        <time>2009-05-31T09:47:14Z</time>
      </trkpt>
      <trkpt lat="43.88689" lon="7.22781">
        <ele>573.5639648</ele>
        <time>2009-05-31T09:47:18Z</time>
      </trkpt>
      <trkpt lat="43.88682" lon="7.22777">
        <ele>571.1604004</ele>
        <time>2009-05-31T09:47:22Z</time>
      </trkpt>
      <trkpt lat="43.88677" lon="7.22767">
        <ele>567.7956543</ele>
        <time>2009-05-31T09:47:25Z</time>
      </trkpt>
      <trkpt lat="43.88675" lon="7.22762">
        <ele>567.7956543</ele>
        <time>2009-05-31T09:47:28Z</time>
      </trkpt>
      <trkpt lat="43.88675" lon="7.22761">
        <ele>567.7956543</ele>
        <time>2009-05-31T09:47:29Z</time>
      </trkpt>
      <trkpt lat="43.88676" lon="7.22756">
        <ele>566.8344727</ele>
        <time>2009-05-31T09:47:32Z</time>
      </trkpt>
      <trkpt lat="43.88668" lon="7.22743">
        <ele>564.4311523</ele>
        <time>2009-05-31T09:47:37Z</time>
      </trkpt>
      <trkpt lat="43.88665" lon="7.22736">
        <ele>564.4311523</ele>
        <time>2009-05-31T09:47:39Z</time>
      </trkpt>
      <trkpt lat="43.88656" lon="7.22735">
        <ele>562.9892578</ele>
        <time>2009-05-31T09:47:42Z</time>
      </trkpt>
      <trkpt lat="43.88651" lon="7.22739">
        <ele>562.0280762</ele>
        <time>2009-05-31T09:47:43Z</time>
      </trkpt>
      <trkpt lat="43.88628" lon="7.22751">
        <ele>559.144043</ele>
        <time>2009-05-31T09:47:47Z</time>
      </trkpt>
      <trkpt lat="43.88616" lon="7.22755">
        <ele>558.1828613</ele>
        <time>2009-05-31T09:47:51Z</time>
      </trkpt>
      <trkpt lat="43.88615" lon="7.22753">
        <ele>557.2214355</ele>
        <time>2009-05-31T09:47:54Z</time>
      </trkpt>
      <trkpt lat="43.88609" lon="7.22764">
        <ele>555.7792969</ele>
        <time>2009-05-31T09:48:00Z</time>
      </trkpt>
      <trkpt lat="43.88606" lon="7.22768">
        <ele>554.3374023</ele>
        <time>2009-05-31T09:48:01Z</time>
      </trkpt>
      <trkpt lat="43.886" lon="7.2278">
        <ele>553.8566895</ele>
        <time>2009-05-31T09:48:03Z</time>
      </trkpt>
      <trkpt lat="43.88592" lon="7.22792">
        <ele>552.8952637</ele>
        <time>2009-05-31T09:48:05Z</time>
      </trkpt>
      <trkpt lat="43.88584" lon="7.22808">
        <ele>552.8952637</ele>
        <time>2009-05-31T09:48:08Z</time>
      </trkpt>
      <trkpt lat="43.88589" lon="7.22821">
        <ele>551.934082</ele>
        <time>2009-05-31T09:48:13Z</time>
      </trkpt>
      <trkpt lat="43.88599" lon="7.22823">
        <ele>549.0500488</ele>
        <time>2009-05-31T09:48:17Z</time>
      </trkpt>
      <trkpt lat="43.88603" lon="7.22826">
        <ele>547.6081543</ele>
        <time>2009-05-31T09:48:20Z</time>
      </trkpt>
      <trkpt lat="43.88603" lon="7.22833">
        <ele>546.6468506</ele>
        <time>2009-05-31T09:48:22Z</time>
      </trkpt>
      <trkpt lat="43.88602" lon="7.22837">
        <ele>546.1662598</ele>
        <time>2009-05-31T09:48:24Z</time>
      </trkpt>
      <trkpt lat="43.88606" lon="7.22839">
        <ele>545.6855469</ele>
        <time>2009-05-31T09:48:28Z</time>
      </trkpt>
      <trkpt lat="43.88607" lon="7.2284">
        <ele>544.2436523</ele>
        <time>2009-05-31T09:48:29Z</time>
      </trkpt>
      <trkpt lat="43.88613" lon="7.22857">
        <ele>541.84021</ele>
        <time>2009-05-31T09:48:35Z</time>
      </trkpt>
      <trkpt lat="43.88619" lon="7.22872">
        <ele>541.3594971</ele>
        <time>2009-05-31T09:48:40Z</time>
      </trkpt>
      <trkpt lat="43.88621" lon="7.22876">
        <ele>541.84021</ele>
        <time>2009-05-31T09:48:42Z</time>
      </trkpt>
      <trkpt lat="43.88621" lon="7.22887">
        <ele>539.9176025</ele>
        <time>2009-05-31T09:48:47Z</time>
      </trkpt>
      <trkpt lat="43.88628" lon="7.22894">
        <ele>537.9949951</ele>
        <time>2009-05-31T09:48:51Z</time>
      </trkpt>
      <trkpt lat="43.88633" lon="7.22899">
        <ele>537.5142822</ele>
        <time>2009-05-31T09:48:54Z</time>
      </trkpt>
      <trkpt lat="43.8863" lon="7.22918">
        <ele>534.6303711</ele>
        <time>2009-05-31T09:48:59Z</time>
      </trkpt>
      <trkpt lat="43.88624" lon="7.22931">
        <ele>532.2270508</ele>
        <time>2009-05-31T09:49:03Z</time>
      </trkpt>
      <trkpt lat="43.8862" lon="7.22947">
        <ele>527.4204102</ele>
        <time>2009-05-31T09:49:07Z</time>
      </trkpt>
      <trkpt lat="43.88619" lon="7.2296">
        <ele>525.0172119</ele>
        <time>2009-05-31T09:49:10Z</time>
      </trkpt>
      <trkpt lat="43.88619" lon="7.22974">
        <ele>521.1719971</ele>
        <time>2009-05-31T09:49:13Z</time>
      </trkpt>
      <trkpt lat="43.88619" lon="7.22979">
        <ele>521.1719971</ele>
        <time>2009-05-31T09:49:14Z</time>
      </trkpt>
      <trkpt lat="43.88619" lon="7.22995">
        <ele>518.2878418</ele>
        <time>2009-05-31T09:49:17Z</time>
      </trkpt>
      <trkpt lat="43.88618" lon="7.23007">
        <ele>516.8459473</ele>
        <time>2009-05-31T09:49:20Z</time>
      </trkpt>
      <trkpt lat="43.88625" lon="7.23016">
        <ele>514.442627</ele>
        <time>2009-05-31T09:49:23Z</time>
      </trkpt>
      <trkpt lat="43.88628" lon="7.23022">
        <ele>512.5200195</ele>
        <time>2009-05-31T09:49:25Z</time>
      </trkpt>
      <trkpt lat="43.88628" lon="7.23034">
        <ele>509.6361084</ele>
        <time>2009-05-31T09:49:30Z</time>
      </trkpt>
      <trkpt lat="43.88621" lon="7.23046">
        <ele>502.4261475</ele>
        <time>2009-05-31T09:49:34Z</time>
      </trkpt>
      <trkpt lat="43.88617" lon="7.23057">
        <ele>499.0615234</ele>
        <time>2009-05-31T09:49:37Z</time>
      </trkpt>
      <trkpt lat="43.88616" lon="7.23065">
        <ele>495.6968994</ele>
        <time>2009-05-31T09:49:39Z</time>
      </trkpt>
      <trkpt lat="43.88623" lon="7.23074">
        <ele>493.774292</ele>
        <time>2009-05-31T09:49:43Z</time>
      </trkpt>
      <trkpt lat="43.88635" lon="7.23074">
        <ele>490.40979</ele>
        <time>2009-05-31T09:49:48Z</time>
      </trkpt>
      <trkpt lat="43.88644" lon="7.23078">
        <ele>488.4871826</ele>
        <time>2009-05-31T09:49:51Z</time>
      </trkpt>
      <trkpt lat="43.88647" lon="7.23079">
        <ele>486.5644531</ele>
        <time>2009-05-31T09:49:52Z</time>
      </trkpt>
      <trkpt lat="43.88662" lon="7.23074">
        <ele>484.1611328</ele>
        <time>2009-05-31T09:49:57Z</time>
      </trkpt>
      <trkpt lat="43.88665" lon="7.2308">
        <ele>482.7192383</ele>
        <time>2009-05-31T09:49:59Z</time>
      </trkpt>
      <trkpt lat="43.88673" lon="7.23098">
        <ele>479.835083</ele>
        <time>2009-05-31T09:50:04Z</time>
      </trkpt>
      <trkpt lat="43.88675" lon="7.23101">
        <ele>478.8739014</ele>
        <time>2009-05-31T09:50:05Z</time>
      </trkpt>
      <trkpt lat="43.88676" lon="7.23114">
        <ele>477.9124756</ele>
        <time>2009-05-31T09:50:09Z</time>
      </trkpt>
      <trkpt lat="43.88677" lon="7.23118">
        <ele>476.4705811</ele>
        <time>2009-05-31T09:50:10Z</time>
      </trkpt>
      <trkpt lat="43.88682" lon="7.23127">
        <ele>474.5479736</ele>
        <time>2009-05-31T09:50:13Z</time>
      </trkpt>
      <trkpt lat="43.8869" lon="7.2313">
        <ele>472.1446533</ele>
        <time>2009-05-31T09:50:17Z</time>
      </trkpt>
      <trkpt lat="43.88697" lon="7.23137">
        <ele>471.6639404</ele>
        <time>2009-05-31T09:50:20Z</time>
      </trkpt>
      <trkpt lat="43.88713" lon="7.23157">
        <ele>471.6639404</ele>
        <time>2009-05-31T09:50:25Z</time>
      </trkpt>
      <trkpt lat="43.88722" lon="7.23176">
        <ele>469.2607422</ele>
        <time>2009-05-31T09:50:29Z</time>
      </trkpt>
      <trkpt lat="43.88731" lon="7.23187">
        <ele>467.8187256</ele>
        <time>2009-05-31T09:50:32Z</time>
      </trkpt>
      <trkpt lat="43.88743" lon="7.23198">
        <ele>464.4541016</ele>
        <time>2009-05-31T09:50:35Z</time>
      </trkpt>
      <trkpt lat="43.88757" lon="7.23216">
        <ele>463.012085</ele>
        <time>2009-05-31T09:50:40Z</time>
      </trkpt>
      <trkpt lat="43.88759" lon="7.23225">
        <ele>460.6087646</ele>
        <time>2009-05-31T09:50:46Z</time>
      </trkpt>
      <trkpt lat="43.8876" lon="7.23228">
        <ele>460.6087646</ele>
        <time>2009-05-31T09:50:48Z</time>
      </trkpt>
      <trkpt lat="43.88759" lon="7.23237">
        <ele>457.7249756</ele>
        <time>2009-05-31T09:50:51Z</time>
      </trkpt>
      <trkpt lat="43.88764" lon="7.23248">
        <ele>454.3602295</ele>
        <time>2009-05-31T09:50:54Z</time>
      </trkpt>
      <trkpt lat="43.88767" lon="7.23252">
        <ele>453.8796387</ele>
        <time>2009-05-31T09:50:55Z</time>
      </trkpt>
      <trkpt lat="43.8877" lon="7.23262">
        <ele>450.9956055</ele>
        <time>2009-05-31T09:50:59Z</time>
      </trkpt>
      <trkpt lat="43.88765" lon="7.23261">
        <ele>449.5537109</ele>
        <time>2009-05-31T09:51:01Z</time>
      </trkpt>
      <trkpt lat="43.88763" lon="7.23262">
        <ele>448.5924072</ele>
        <time>2009-05-31T09:51:03Z</time>
      </trkpt>
      <trkpt lat="43.88764" lon="7.23264">
        <ele>447.6309814</ele>
        <time>2009-05-31T09:51:04Z</time>
      </trkpt>
      <trkpt lat="43.88769" lon="7.23268">
        <ele>447.1502686</ele>
        <time>2009-05-31T09:51:06Z</time>
      </trkpt>
      <trkpt lat="43.88777" lon="7.23274">
        <ele>444.2664795</ele>
        <time>2009-05-31T09:51:10Z</time>
      </trkpt>
      <trkpt lat="43.88778" lon="7.23276">
        <ele>444.2664795</ele>
        <time>2009-05-31T09:51:13Z</time>
      </trkpt>
      <trkpt lat="43.88778" lon="7.23284">
        <ele>441.8631592</ele>
        <time>2009-05-31T09:51:19Z</time>
      </trkpt>
      <trkpt lat="43.88777" lon="7.23284">
        <ele>441.8631592</ele>
        <time>2009-05-31T09:51:20Z</time>
      </trkpt>
      <trkpt lat="43.88775" lon="7.23284">
        <ele>441.3824463</ele>
        <time>2009-05-31T09:51:21Z</time>
      </trkpt>
      <trkpt lat="43.88769" lon="7.23283">
        <ele>438.979126</ele>
        <time>2009-05-31T09:51:27Z</time>
      </trkpt>
      <trkpt lat="43.8877" lon="7.23283">
        <ele>439.4597168</ele>
        <time>2009-05-31T09:51:29Z</time>
      </trkpt>
      <trkpt lat="43.88773" lon="7.23285">
        <ele>437.0565186</ele>
        <time>2009-05-31T09:51:32Z</time>
      </trkpt>
      <trkpt lat="43.8877" lon="7.23285">
        <ele>436.5759277</ele>
        <time>2009-05-31T09:51:37Z</time>
      </trkpt>
      <trkpt lat="43.88759" lon="7.23288">
        <ele>433.2113037</ele>
        <time>2009-05-31T09:51:41Z</time>
      </trkpt>
      <trkpt lat="43.88751" lon="7.23287">
        <ele>429.8465576</ele>
        <time>2009-05-31T09:51:45Z</time>
      </trkpt>
      <trkpt lat="43.88747" lon="7.23297">
        <ele>426.9627686</ele>
        <time>2009-05-31T09:51:48Z</time>
      </trkpt>
      <trkpt lat="43.88745" lon="7.23301">
        <ele>426.9627686</ele>
        <time>2009-05-31T09:51:49Z</time>
      </trkpt>
      <trkpt lat="43.88741" lon="7.23312">
        <ele>426.0013428</ele>
        <time>2009-05-31T09:51:53Z</time>
      </trkpt>
      <trkpt lat="43.88733" lon="7.23309">
        <ele>425.520752</ele>
        <time>2009-05-31T09:51:56Z</time>
      </trkpt>
      <trkpt lat="43.88726" lon="7.23309">
        <ele>424.5594482</ele>
        <time>2009-05-31T09:51:59Z</time>
      </trkpt>
      <trkpt lat="43.88717" lon="7.23302">
        <ele>422.1560059</ele>
        <time>2009-05-31T09:52:03Z</time>
      </trkpt>
      <trkpt lat="43.88709" lon="7.23294">
        <ele>418.7915039</ele>
        <time>2009-05-31T09:52:06Z</time>
      </trkpt>
      <trkpt lat="43.88706" lon="7.23293">
        <ele>417.8302002</ele>
        <time>2009-05-31T09:52:07Z</time>
      </trkpt>
      <trkpt lat="43.88687" lon="7.23298">
        <ele>413.9848633</ele>
        <time>2009-05-31T09:52:12Z</time>
      </trkpt>
      <trkpt lat="43.88684" lon="7.23305">
        <ele>413.0235596</ele>
        <time>2009-05-31T09:52:14Z</time>
      </trkpt>
      <trkpt lat="43.88673" lon="7.23312">
        <ele>410.1396484</ele>
        <time>2009-05-31T09:52:17Z</time>
      </trkpt>
      <trkpt lat="43.88669" lon="7.23314">
        <ele>409.6590576</ele>
        <time>2009-05-31T09:52:18Z</time>
      </trkpt>
      <trkpt lat="43.88656" lon="7.23324">
        <ele>407.2556152</ele>
        <time>2009-05-31T09:52:21Z</time>
      </trkpt>
      <trkpt lat="43.88648" lon="7.2333">
        <ele>406.2943115</ele>
        <time>2009-05-31T09:52:23Z</time>
      </trkpt>
      <trkpt lat="43.88629" lon="7.23344">
        <ele>401.0070801</ele>
        <time>2009-05-31T09:52:28Z</time>
      </trkpt>
      <trkpt lat="43.88618" lon="7.23353">
        <ele>399.0843506</ele>
        <time>2009-05-31T09:52:32Z</time>
      </trkpt>
      <trkpt lat="43.88615" lon="7.23356">
        <ele>397.6424561</ele>
        <time>2009-05-31T09:52:33Z</time>
      </trkpt>
      <trkpt lat="43.88613" lon="7.23365">
        <ele>397.1617432</ele>
        <time>2009-05-31T09:52:38Z</time>
      </trkpt>
      <trkpt lat="43.88614" lon="7.23381">
        <ele>397.6424561</ele>
        <time>2009-05-31T09:52:44Z</time>
      </trkpt>
      <trkpt lat="43.88613" lon="7.23386">
        <ele>397.6424561</ele>
        <time>2009-05-31T09:52:48Z</time>
      </trkpt>
      <trkpt lat="43.88614" lon="7.23385">
        <ele>397.6424561</ele>
        <time>2009-05-31T09:52:52Z</time>
      </trkpt>
      <trkpt lat="43.88614" lon="7.23384">
        <ele>396.6811523</ele>
        <time>2009-05-31T09:53:02Z</time>
      </trkpt>
      <trkpt lat="43.88615" lon="7.23387">
        <ele>398.6037598</ele>
        <time>2009-05-31T09:53:04Z</time>
      </trkpt>
      <trkpt lat="43.88615" lon="7.23394">
        <ele>399.0843506</ele>
        <time>2009-05-31T09:53:10Z</time>
      </trkpt>
      <trkpt lat="43.88607" lon="7.23408">
        <ele>396.6811523</ele>
        <time>2009-05-31T09:53:16Z</time>
      </trkpt>
      <trkpt lat="43.88602" lon="7.23415">
        <ele>401.487793</ele>
        <time>2009-05-31T09:53:18Z</time>
      </trkpt>
      <trkpt lat="43.886" lon="7.23419">
        <ele>397.1617432</ele>
        <time>2009-05-31T09:53:19Z</time>
      </trkpt>
      <trkpt lat="43.88593" lon="7.23431">
        <ele>397.1617432</ele>
        <time>2009-05-31T09:53:22Z</time>
      </trkpt>
      <trkpt lat="43.88578" lon="7.23454">
        <ele>397.1617432</ele>
        <time>2009-05-31T09:53:27Z</time>
      </trkpt>
      <trkpt lat="43.88556" lon="7.23482">
        <ele>397.6424561</ele>
        <time>2009-05-31T09:53:34Z</time>
      </trkpt>
      <trkpt lat="43.88542" lon="7.23501">
        <ele>399.5650635</ele>
        <time>2009-05-31T09:53:39Z</time>
      </trkpt>
      <trkpt lat="43.88528" lon="7.23512">
        <ele>400.0458984</ele>
        <time>2009-05-31T09:53:44Z</time>
      </trkpt>
      <trkpt lat="43.88512" lon="7.23524">
        <ele>401.0070801</ele>
        <time>2009-05-31T09:53:51Z</time>
      </trkpt>
      <trkpt lat="43.88501" lon="7.23531">
        <ele>402.9296875</ele>
        <time>2009-05-31T09:53:56Z</time>
      </trkpt>
      <trkpt lat="43.88484" lon="7.23547">
        <ele>404.3717041</ele>
        <time>2009-05-31T09:54:05Z</time>
      </trkpt>
      <trkpt lat="43.8848" lon="7.2355">
        <ele>405.3330078</ele>
        <time>2009-05-31T09:54:07Z</time>
      </trkpt>
      <trkpt lat="43.88464" lon="7.23563">
        <ele>406.7749023</ele>
        <time>2009-05-31T09:54:16Z</time>
      </trkpt>
      <trkpt lat="43.8846" lon="7.23573">
        <ele>408.6976318</ele>
        <time>2009-05-31T09:54:22Z</time>
      </trkpt>
      <trkpt lat="43.88457" lon="7.23589">
        <ele>410.1396484</ele>
        <time>2009-05-31T09:54:31Z</time>
      </trkpt>
      <trkpt lat="43.88457" lon="7.23604">
        <ele>411.1009521</ele>
        <time>2009-05-31T09:54:38Z</time>
      </trkpt>
      <trkpt lat="43.88458" lon="7.23618">
        <ele>412.5428467</ele>
        <time>2009-05-31T09:54:44Z</time>
      </trkpt>
      <trkpt lat="43.88457" lon="7.23639">
        <ele>413.0235596</ele>
        <time>2009-05-31T09:54:53Z</time>
      </trkpt>
      <trkpt lat="43.88456" lon="7.23647">
        <ele>413.9848633</ele>
        <time>2009-05-31T09:54:59Z</time>
      </trkpt>
      <trkpt lat="43.88459" lon="7.23645">
        <ele>414.946167</ele>
        <time>2009-05-31T09:55:04Z</time>
      </trkpt>
      <trkpt lat="43.88461" lon="7.23645">
        <ele>415.4268799</ele>
        <time>2009-05-31T09:55:10Z</time>
      </trkpt>
      <trkpt lat="43.8846" lon="7.23648">
        <ele>416.3881836</ele>
        <time>2009-05-31T09:55:13Z</time>
      </trkpt>
      <trkpt lat="43.88462" lon="7.23654">
        <ele>417.8302002</ele>
        <time>2009-05-31T09:55:20Z</time>
      </trkpt>
      <trkpt lat="43.88466" lon="7.2366">
        <ele>417.8302002</ele>
        <time>2009-05-31T09:55:26Z</time>
      </trkpt>
      <trkpt lat="43.88468" lon="7.2367">
        <ele>419.2722168</ele>
        <time>2009-05-31T09:55:37Z</time>
      </trkpt>
      <trkpt lat="43.88469" lon="7.23674">
        <ele>418.7915039</ele>
        <time>2009-05-31T09:56:24Z</time>
      </trkpt>
      <trkpt lat="43.8847" lon="7.23681">
        <ele>419.2722168</ele>
        <time>2009-05-31T09:56:38Z</time>
      </trkpt>
      <trkpt lat="43.88475" lon="7.23694">
        <ele>420.7141113</ele>
        <time>2009-05-31T09:56:45Z</time>
      </trkpt>
      <trkpt lat="43.8848" lon="7.23714">
        <ele>421.1948242</ele>
        <time>2009-05-31T09:56:52Z</time>
      </trkpt>
      <trkpt lat="43.88484" lon="7.23732">
        <ele>420.2333984</ele>
        <time>2009-05-31T09:56:58Z</time>
      </trkpt>
      <trkpt lat="43.88489" lon="7.23748">
        <ele>422.6367188</ele>
        <time>2009-05-31T09:57:04Z</time>
      </trkpt>
      <trkpt lat="43.88488" lon="7.23762">
        <ele>424.0787354</ele>
        <time>2009-05-31T09:57:10Z</time>
      </trkpt>
      <trkpt lat="43.88488" lon="7.23774">
        <ele>424.0787354</ele>
        <time>2009-05-31T09:57:15Z</time>
      </trkpt>
      <trkpt lat="43.88483" lon="7.23788">
        <ele>423.5980225</ele>
        <time>2009-05-31T09:57:21Z</time>
      </trkpt>
      <trkpt lat="43.88477" lon="7.23807">
        <ele>423.1174316</ele>
        <time>2009-05-31T09:57:26Z</time>
      </trkpt>
      <trkpt lat="43.88477" lon="7.23809">
        <ele>423.5980225</ele>
        <time>2009-05-31T09:57:29Z</time>
      </trkpt>
      <trkpt lat="43.88477" lon="7.23816">
        <ele>424.5594482</ele>
        <time>2009-05-31T09:57:36Z</time>
      </trkpt>
      <trkpt lat="43.88479" lon="7.23824">
        <ele>425.0401611</ele>
        <time>2009-05-31T09:57:43Z</time>
      </trkpt>
      <trkpt lat="43.88482" lon="7.23835">
        <ele>426.9627686</ele>
        <time>2009-05-31T09:57:51Z</time>
      </trkpt>
      <trkpt lat="43.88483" lon="7.23843">
        <ele>428.885376</ele>
        <time>2009-05-31T09:57:58Z</time>
      </trkpt>
      <trkpt lat="43.88482" lon="7.23852">
        <ele>429.3659668</ele>
        <time>2009-05-31T09:58:05Z</time>
      </trkpt>
      <trkpt lat="43.88482" lon="7.23855">
        <ele>429.3659668</ele>
        <time>2009-05-31T09:58:10Z</time>
      </trkpt>
      <trkpt lat="43.88482" lon="7.23867">
        <ele>429.3659668</ele>
        <time>2009-05-31T09:58:15Z</time>
      </trkpt>
      <trkpt lat="43.88481" lon="7.23886">
        <ele>429.3659668</ele>
        <time>2009-05-31T09:58:21Z</time>
      </trkpt>
      <trkpt lat="43.88479" lon="7.23903">
        <ele>429.3659668</ele>
        <time>2009-05-31T09:58:27Z</time>
      </trkpt>
      <trkpt lat="43.88476" lon="7.23916">
        <ele>429.3659668</ele>
        <time>2009-05-31T09:58:32Z</time>
      </trkpt>
      <trkpt lat="43.88475" lon="7.23931">
        <ele>428.885376</ele>
        <time>2009-05-31T09:58:37Z</time>
      </trkpt>
      <trkpt lat="43.88476" lon="7.23946">
        <ele>428.4046631</ele>
        <time>2009-05-31T09:58:42Z</time>
      </trkpt>
      <trkpt lat="43.88478" lon="7.23964">
        <ele>427.9239502</ele>
        <time>2009-05-31T09:58:47Z</time>
      </trkpt>
      <trkpt lat="43.8848" lon="7.23974">
        <ele>427.4433594</ele>
        <time>2009-05-31T09:58:52Z</time>
      </trkpt>
      <trkpt lat="43.88481" lon="7.23991">
        <ele>427.9239502</ele>
        <time>2009-05-31T09:58:57Z</time>
      </trkpt>
      <trkpt lat="43.88485" lon="7.24011">
        <ele>426.4820557</ele>
        <time>2009-05-31T09:59:02Z</time>
      </trkpt>
      <trkpt lat="43.88493" lon="7.24027">
        <ele>426.0013428</ele>
        <time>2009-05-31T09:59:07Z</time>
      </trkpt>
      <trkpt lat="43.88498" lon="7.24038">
        <ele>426.9627686</ele>
        <time>2009-05-31T09:59:12Z</time>
      </trkpt>
      <trkpt lat="43.88506" lon="7.24044">
        <ele>427.9239502</ele>
        <time>2009-05-31T09:59:18Z</time>
      </trkpt>
      <trkpt lat="43.88515" lon="7.24051">
        <ele>426.0013428</ele>
        <time>2009-05-31T09:59:23Z</time>
      </trkpt>
      <trkpt lat="43.88528" lon="7.24062">
        <ele>424.5594482</ele>
        <time>2009-05-31T09:59:30Z</time>
      </trkpt>
      <trkpt lat="43.88537" lon="7.24075">
        <ele>424.0787354</ele>
        <time>2009-05-31T09:59:35Z</time>
      </trkpt>
      <trkpt lat="43.8854" lon="7.24079">
        <ele>424.0787354</ele>
        <time>2009-05-31T09:59:37Z</time>
      </trkpt>
      <trkpt lat="43.8854" lon="7.24082">
        <ele>423.5980225</ele>
        <time>2009-05-31T09:59:39Z</time>
      </trkpt>
      <trkpt lat="43.88531" lon="7.24076">
        <ele>421.675415</ele>
        <time>2009-05-31T09:59:44Z</time>
      </trkpt>
      <trkpt lat="43.88522" lon="7.2407">
        <ele>419.7528076</ele>
        <time>2009-05-31T09:59:47Z</time>
      </trkpt>
      <trkpt lat="43.88505" lon="7.24068">
        <ele>416.3881836</ele>
        <time>2009-05-31T09:59:52Z</time>
      </trkpt>
      <trkpt lat="43.88498" lon="7.24068">
        <ele>415.4268799</ele>
        <time>2009-05-31T09:59:54Z</time>
      </trkpt>
      <trkpt lat="43.88479" lon="7.24064">
        <ele>410.1396484</ele>
        <time>2009-05-31T10:00:00Z</time>
      </trkpt>
      <trkpt lat="43.88471" lon="7.2405">
        <ele>406.7749023</ele>
        <time>2009-05-31T10:00:04Z</time>
      </trkpt>
      <trkpt lat="43.88463" lon="7.24038">
        <ele>404.8522949</ele>
        <time>2009-05-31T10:00:08Z</time>
      </trkpt>
      <trkpt lat="43.88458" lon="7.24026">
        <ele>402.4490967</ele>
        <time>2009-05-31T10:00:11Z</time>
      </trkpt>
      <trkpt lat="43.88452" lon="7.2401">
        <ele>400.5264893</ele>
        <time>2009-05-31T10:00:14Z</time>
      </trkpt>
      <trkpt lat="43.88446" lon="7.23993">
        <ele>399.0843506</ele>
        <time>2009-05-31T10:00:17Z</time>
      </trkpt>
      <trkpt lat="43.88443" lon="7.23984">
        <ele>397.1617432</ele>
        <time>2009-05-31T10:00:19Z</time>
      </trkpt>
      <trkpt lat="43.8844" lon="7.23974">
        <ele>396.6811523</ele>
        <time>2009-05-31T10:00:21Z</time>
      </trkpt>
      <trkpt lat="43.88435" lon="7.23964">
        <ele>395.7198486</ele>
        <time>2009-05-31T10:00:23Z</time>
      </trkpt>
      <trkpt lat="43.88433" lon="7.2396">
        <ele>393.7972412</ele>
        <time>2009-05-31T10:00:24Z</time>
      </trkpt>
      <trkpt lat="43.8842" lon="7.2393">
        <ele>392.3553467</ele>
        <time>2009-05-31T10:00:29Z</time>
      </trkpt>
      <trkpt lat="43.88411" lon="7.23913">
        <ele>389.9519043</ele>
        <time>2009-05-31T10:00:33Z</time>
      </trkpt>
      <trkpt lat="43.88408" lon="7.23898">
        <ele>388.0292969</ele>
        <time>2009-05-31T10:00:37Z</time>
      </trkpt>
      <trkpt lat="43.88405" lon="7.23887">
        <ele>385.6259766</ele>
        <time>2009-05-31T10:00:40Z</time>
      </trkpt>
      <trkpt lat="43.88404" lon="7.23881">
        <ele>384.184082</ele>
        <time>2009-05-31T10:00:42Z</time>
      </trkpt>
      <trkpt lat="43.88402" lon="7.23881">
        <ele>382.7420654</ele>
        <time>2009-05-31T10:00:45Z</time>
      </trkpt>
      <trkpt lat="43.88401" lon="7.23882">
        <ele>382.2613525</ele>
        <time>2009-05-31T10:00:47Z</time>
      </trkpt>
      <trkpt lat="43.88395" lon="7.23897">
        <ele>379.8580322</ele>
        <time>2009-05-31T10:00:52Z</time>
      </trkpt>
      <trkpt lat="43.88393" lon="7.23902">
        <ele>379.8580322</ele>
        <time>2009-05-31T10:00:55Z</time>
      </trkpt>
      <trkpt lat="43.88389" lon="7.23892">
        <ele>378.4161377</ele>
        <time>2009-05-31T10:00:58Z</time>
      </trkpt>
      <trkpt lat="43.88389" lon="7.23887">
        <ele>376.9742432</ele>
        <time>2009-05-31T10:00:59Z</time>
      </trkpt>
      <trkpt lat="43.8839" lon="7.2387">
        <ele>373.6094971</ele>
        <time>2009-05-31T10:01:03Z</time>
      </trkpt>
      <trkpt lat="43.8839" lon="7.23867">
        <ele>373.1289062</ele>
        <time>2009-05-31T10:01:04Z</time>
      </trkpt>
      <trkpt lat="43.88386" lon="7.23852">
        <ele>369.2836914</ele>
        <time>2009-05-31T10:01:08Z</time>
      </trkpt>
      <trkpt lat="43.88381" lon="7.23843">
        <ele>367.8415527</ele>
        <time>2009-05-31T10:01:10Z</time>
      </trkpt>
      <trkpt lat="43.88373" lon="7.23825">
        <ele>365.4383545</ele>
        <time>2009-05-31T10:01:13Z</time>
      </trkpt>
      <trkpt lat="43.88368" lon="7.23813">
        <ele>364.4769287</ele>
        <time>2009-05-31T10:01:15Z</time>
      </trkpt>
      <trkpt lat="43.88363" lon="7.23799">
        <ele>363.9963379</ele>
        <time>2009-05-31T10:01:17Z</time>
      </trkpt>
      <trkpt lat="43.88359" lon="7.23785">
        <ele>362.5543213</ele>
        <time>2009-05-31T10:01:19Z</time>
      </trkpt>
      <trkpt lat="43.88351" lon="7.23761">
        <ele>362.0737305</ele>
        <time>2009-05-31T10:01:22Z</time>
      </trkpt>
      <trkpt lat="43.88332" lon="7.23726">
        <ele>361.1124268</ele>
        <time>2009-05-31T10:01:28Z</time>
      </trkpt>
      <trkpt lat="43.88328" lon="7.2371">
        <ele>360.6317139</ele>
        <time>2009-05-31T10:01:31Z</time>
      </trkpt>
      <trkpt lat="43.88322" lon="7.23689">
        <ele>361.1124268</ele>
        <time>2009-05-31T10:01:38Z</time>
      </trkpt>
      <trkpt lat="43.88316" lon="7.23672">
        <ele>361.5931396</ele>
        <time>2009-05-31T10:01:43Z</time>
      </trkpt>
      <trkpt lat="43.88307" lon="7.23659">
        <ele>361.5931396</ele>
        <time>2009-05-31T10:01:48Z</time>
      </trkpt>
      <trkpt lat="43.88301" lon="7.23628">
        <ele>361.1124268</ele>
        <time>2009-05-31T10:01:56Z</time>
      </trkpt>
      <trkpt lat="43.88301" lon="7.23609">
        <ele>360.151123</ele>
        <time>2009-05-31T10:02:01Z</time>
      </trkpt>
      <trkpt lat="43.88299" lon="7.23603">
        <ele>359.1896973</ele>
        <time>2009-05-31T10:02:03Z</time>
      </trkpt>
      <trkpt lat="43.88293" lon="7.23594">
        <ele>356.3057861</ele>
        <time>2009-05-31T10:02:06Z</time>
      </trkpt>
      <trkpt lat="43.8829" lon="7.23591">
        <ele>355.3444824</ele>
        <time>2009-05-31T10:02:07Z</time>
      </trkpt>
      <trkpt lat="43.88282" lon="7.23585">
        <ele>352.9411621</ele>
        <time>2009-05-31T10:02:09Z</time>
      </trkpt>
      <trkpt lat="43.88271" lon="7.23577">
        <ele>350.057251</ele>
        <time>2009-05-31T10:02:11Z</time>
      </trkpt>
      <trkpt lat="43.88258" lon="7.23569">
        <ele>346.692627</ele>
        <time>2009-05-31T10:02:14Z</time>
      </trkpt>
      <trkpt lat="43.88241" lon="7.23554">
        <ele>342.3666992</ele>
        <time>2009-05-31T10:02:17Z</time>
      </trkpt>
      <trkpt lat="43.88228" lon="7.2353">
        <ele>340.9246826</ele>
        <time>2009-05-31T10:02:21Z</time>
      </trkpt>
      <trkpt lat="43.88223" lon="7.23523">
        <ele>338.5214844</ele>
        <time>2009-05-31T10:02:23Z</time>
      </trkpt>
      <trkpt lat="43.88219" lon="7.23518">
        <ele>337.5600586</ele>
        <time>2009-05-31T10:02:25Z</time>
      </trkpt>
      <trkpt lat="43.8821" lon="7.23517">
        <ele>335.6373291</ele>
        <time>2009-05-31T10:02:28Z</time>
      </trkpt>
      <trkpt lat="43.88202" lon="7.2351">
        <ele>332.75354</ele>
        <time>2009-05-31T10:02:31Z</time>
      </trkpt>
      <trkpt lat="43.88201" lon="7.23505">
        <ele>331.3115234</ele>
        <time>2009-05-31T10:02:32Z</time>
      </trkpt>
      <trkpt lat="43.88192" lon="7.2347">
        <ele>326.0241699</ele>
        <time>2009-05-31T10:02:38Z</time>
      </trkpt>
      <trkpt lat="43.88192" lon="7.23456">
        <ele>322.659668</ele>
        <time>2009-05-31T10:02:41Z</time>
      </trkpt>
      <trkpt lat="43.88194" lon="7.23453">
        <ele>320.7370605</ele>
        <time>2009-05-31T10:02:42Z</time>
      </trkpt>
      <trkpt lat="43.88188" lon="7.23451">
        <ele>318.8143311</ele>
        <time>2009-05-31T10:02:46Z</time>
      </trkpt>
      <trkpt lat="43.88179" lon="7.23453">
        <ele>316.8917236</ele>
        <time>2009-05-31T10:02:49Z</time>
      </trkpt>
      <trkpt lat="43.88183" lon="7.23445">
        <ele>314.4884033</ele>
        <time>2009-05-31T10:02:52Z</time>
      </trkpt>
      <trkpt lat="43.88188" lon="7.23436">
        <ele>313.5272217</ele>
        <time>2009-05-31T10:02:54Z</time>
      </trkpt>
      <trkpt lat="43.88185" lon="7.23432">
        <ele>313.5272217</ele>
        <time>2009-05-31T10:02:56Z</time>
      </trkpt>
      <trkpt lat="43.88168" lon="7.23427">
        <ele>310.1624756</ele>
        <time>2009-05-31T10:02:59Z</time>
      </trkpt>
      <trkpt lat="43.88145" lon="7.23416">
        <ele>307.2785645</ele>
        <time>2009-05-31T10:03:03Z</time>
      </trkpt>
      <trkpt lat="43.8814" lon="7.23415">
        <ele>305.8366699</ele>
        <time>2009-05-31T10:03:04Z</time>
      </trkpt>
      <trkpt lat="43.88118" lon="7.23411">
        <ele>301.5106201</ele>
        <time>2009-05-31T10:03:09Z</time>
      </trkpt>
      <trkpt lat="43.88114" lon="7.23412">
        <ele>300.5493164</ele>
        <time>2009-05-31T10:03:10Z</time>
      </trkpt>
      <trkpt lat="43.88108" lon="7.23416">
        <ele>298.1461182</ele>
        <time>2009-05-31T10:03:12Z</time>
      </trkpt>
      <trkpt lat="43.88099" lon="7.23429">
        <ele>298.1461182</ele>
        <time>2009-05-31T10:03:16Z</time>
      </trkpt>
      <trkpt lat="43.881" lon="7.23423">
        <ele>298.1461182</ele>
        <time>2009-05-31T10:03:18Z</time>
      </trkpt>
      <trkpt lat="43.8811" lon="7.23403">
        <ele>296.2235107</ele>
        <time>2009-05-31T10:03:22Z</time>
      </trkpt>
      <trkpt lat="43.88107" lon="7.23397">
        <ele>294.7813721</ele>
        <time>2009-05-31T10:03:25Z</time>
      </trkpt>
      <trkpt lat="43.88096" lon="7.23399">
        <ele>291.8974609</ele>
        <time>2009-05-31T10:03:29Z</time>
      </trkpt>
      <trkpt lat="43.88099" lon="7.23389">
        <ele>289.9748535</ele>
        <time>2009-05-31T10:03:32Z</time>
      </trkpt>
      <trkpt lat="43.88102" lon="7.23388">
        <ele>289.0135498</ele>
        <time>2009-05-31T10:03:34Z</time>
      </trkpt>
      <trkpt lat="43.88105" lon="7.23386">
        <ele>287.0908203</ele>
        <time>2009-05-31T10:03:37Z</time>
      </trkpt>
      <trkpt lat="43.88102" lon="7.23379">
        <ele>285.6488037</ele>
        <time>2009-05-31T10:03:41Z</time>
      </trkpt>
      <trkpt lat="43.88107" lon="7.23379">
        <ele>283.7261963</ele>
        <time>2009-05-31T10:03:45Z</time>
      </trkpt>
      <trkpt lat="43.88102" lon="7.23375">
        <ele>281.8035889</ele>
        <time>2009-05-31T10:03:48Z</time>
      </trkpt>
      <trkpt lat="43.88099" lon="7.23374">
        <ele>281.322998</ele>
        <time>2009-05-31T10:03:49Z</time>
      </trkpt>
      <trkpt lat="43.88092" lon="7.23373">
        <ele>279.8808594</ele>
        <time>2009-05-31T10:03:51Z</time>
      </trkpt>
      <trkpt lat="43.88088" lon="7.23372">
        <ele>278.9196777</ele>
        <time>2009-05-31T10:03:52Z</time>
      </trkpt>
      <trkpt lat="43.88089" lon="7.23359">
        <ele>278.4389648</ele>
        <time>2009-05-31T10:03:55Z</time>
      </trkpt>
      <trkpt lat="43.88101" lon="7.23355">
        <ele>276.0356445</ele>
        <time>2009-05-31T10:03:58Z</time>
      </trkpt>
      <trkpt lat="43.8811" lon="7.23351">
        <ele>272.6711426</ele>
        <time>2009-05-31T10:04:01Z</time>
      </trkpt>
      <trkpt lat="43.88113" lon="7.2335">
        <ele>273.1518555</ele>
        <time>2009-05-31T10:04:02Z</time>
      </trkpt>
      <trkpt lat="43.88125" lon="7.23349">
        <ele>269.7871094</ele>
        <time>2009-05-31T10:04:05Z</time>
      </trkpt>
      <trkpt lat="43.88134" lon="7.23349">
        <ele>268.3450928</ele>
        <time>2009-05-31T10:04:07Z</time>
      </trkpt>
      <trkpt lat="43.88149" lon="7.23347">
        <ele>265.9418945</ele>
        <time>2009-05-31T10:04:12Z</time>
      </trkpt>
      <trkpt lat="43.88156" lon="7.23341">
        <ele>264.9805908</ele>
        <time>2009-05-31T10:04:15Z</time>
      </trkpt>
      <trkpt lat="43.88157" lon="7.2333">
        <ele>263.0578613</ele>
        <time>2009-05-31T10:04:19Z</time>
      </trkpt>
      <trkpt lat="43.88151" lon="7.23325">
        <ele>263.5385742</ele>
        <time>2009-05-31T10:04:22Z</time>
      </trkpt>
      <trkpt lat="43.88134" lon="7.23314">
        <ele>262.5771484</ele>
        <time>2009-05-31T10:04:28Z</time>
      </trkpt>
      <trkpt lat="43.88113" lon="7.23305">
        <ele>263.0578613</ele>
        <time>2009-05-31T10:04:34Z</time>
      </trkpt>
      <trkpt lat="43.881" lon="7.23287">
        <ele>262.0965576</ele>
        <time>2009-05-31T10:04:40Z</time>
      </trkpt>
      <trkpt lat="43.8809" lon="7.23277">
        <ele>262.5771484</ele>
        <time>2009-05-31T10:04:45Z</time>
      </trkpt>
      <trkpt lat="43.88085" lon="7.23276">
        <ele>260.654541</ele>
        <time>2009-05-31T10:04:47Z</time>
      </trkpt>
      <trkpt lat="43.88076" lon="7.23273">
        <ele>259.6933594</ele>
        <time>2009-05-31T10:04:49Z</time>
      </trkpt>
      <trkpt lat="43.88065" lon="7.23271">
        <ele>255.8480225</ele>
        <time>2009-05-31T10:04:51Z</time>
      </trkpt>
      <trkpt lat="43.88038" lon="7.23278">
        <ele>252.4833984</ele>
        <time>2009-05-31T10:04:56Z</time>
      </trkpt>
      <trkpt lat="43.88024" lon="7.23274">
        <ele>250.560791</ele>
        <time>2009-05-31T10:04:59Z</time>
      </trkpt>
      <trkpt lat="43.88018" lon="7.23265">
        <ele>250.0802002</ele>
        <time>2009-05-31T10:05:02Z</time>
      </trkpt>
      <trkpt lat="43.88013" lon="7.23261">
        <ele>249.1187744</ele>
        <time>2009-05-31T10:05:04Z</time>
      </trkpt>
      <trkpt lat="43.87987" lon="7.23253">
        <ele>244.3122559</ele>
        <time>2009-05-31T10:05:09Z</time>
      </trkpt>
      <trkpt lat="43.8798" lon="7.2326">
        <ele>243.3508301</ele>
        <time>2009-05-31T10:05:11Z</time>
      </trkpt>
      <trkpt lat="43.87976" lon="7.23268">
        <ele>240.9476318</ele>
        <time>2009-05-31T10:05:13Z</time>
      </trkpt>
      <trkpt lat="43.87972" lon="7.23274">
        <ele>239.5054932</ele>
        <time>2009-05-31T10:05:15Z</time>
      </trkpt>
      <trkpt lat="43.87969" lon="7.23277">
        <ele>237.5828857</ele>
        <time>2009-05-31T10:05:19Z</time>
      </trkpt>
      <trkpt lat="43.87967" lon="7.23265">
        <ele>235.6602783</ele>
        <time>2009-05-31T10:05:22Z</time>
      </trkpt>
      <trkpt lat="43.87964" lon="7.23254">
        <ele>232.7764893</ele>
        <time>2009-05-31T10:05:24Z</time>
      </trkpt>
      <trkpt lat="43.8796" lon="7.23221">
        <ele>231.3343506</ele>
        <time>2009-05-31T10:05:29Z</time>
      </trkpt>
      <trkpt lat="43.87959" lon="7.23196">
        <ele>230.8537598</ele>
        <time>2009-05-31T10:05:34Z</time>
      </trkpt>
      <trkpt lat="43.87956" lon="7.23187">
        <ele>227.0085449</ele>
        <time>2009-05-31T10:05:37Z</time>
      </trkpt>
      <trkpt lat="43.87954" lon="7.23172">
        <ele>225.0859375</ele>
        <time>2009-05-31T10:05:40Z</time>
      </trkpt>
      <trkpt lat="43.87952" lon="7.23148">
        <ele>225.0859375</ele>
        <time>2009-05-31T10:05:45Z</time>
      </trkpt>
      <trkpt lat="43.87948" lon="7.23128">
        <ele>222.2017822</ele>
        <time>2009-05-31T10:05:50Z</time>
      </trkpt>
      <trkpt lat="43.87946" lon="7.23125">
        <ele>221.7211914</ele>
        <time>2009-05-31T10:05:51Z</time>
      </trkpt>
      <trkpt lat="43.87945" lon="7.23137">
        <ele>221.2406006</ele>
        <time>2009-05-31T10:05:55Z</time>
      </trkpt>
      <trkpt lat="43.87946" lon="7.23179">
        <ele>218.3565674</ele>
        <time>2009-05-31T10:06:01Z</time>
      </trkpt>
      <trkpt lat="43.87948" lon="7.23228">
        <ele>214.5112305</ele>
        <time>2009-05-31T10:06:06Z</time>
      </trkpt>
      <trkpt lat="43.87949" lon="7.23238">
        <ele>214.0306396</ele>
        <time>2009-05-31T10:06:07Z</time>
      </trkpt>
      <trkpt lat="43.87943" lon="7.23257">
        <ele>214.5112305</ele>
        <time>2009-05-31T10:06:10Z</time>
      </trkpt>
      <trkpt lat="43.87939" lon="7.23253">
        <ele>213.5500488</ele>
        <time>2009-05-31T10:06:12Z</time>
      </trkpt>
      <trkpt lat="43.87936" lon="7.23241">
        <ele>212.588623</ele>
        <time>2009-05-31T10:06:14Z</time>
      </trkpt>
      <trkpt lat="43.87933" lon="7.23215">
        <ele>212.1080322</ele>
        <time>2009-05-31T10:06:17Z</time>
      </trkpt>
      <trkpt lat="43.87923" lon="7.23173">
        <ele>208.2628174</ele>
        <time>2009-05-31T10:06:21Z</time>
      </trkpt>
      <trkpt lat="43.87917" lon="7.23149">
        <ele>204.4174805</ele>
        <time>2009-05-31T10:06:24Z</time>
      </trkpt>
      <trkpt lat="43.87915" lon="7.23145">
        <ele>204.8980713</ele>
        <time>2009-05-31T10:06:25Z</time>
      </trkpt>
      <trkpt lat="43.8791" lon="7.23136">
        <ele>202.494873</ele>
        <time>2009-05-31T10:06:29Z</time>
      </trkpt>
      <trkpt lat="43.87907" lon="7.23133">
        <ele>202.494873</ele>
        <time>2009-05-31T10:06:30Z</time>
      </trkpt>
      <trkpt lat="43.87895" lon="7.23126">
        <ele>201.0528564</ele>
        <time>2009-05-31T10:06:34Z</time>
      </trkpt>
      <trkpt lat="43.87887" lon="7.23127">
        <ele>200.5722656</ele>
        <time>2009-05-31T10:06:38Z</time>
      </trkpt>
      <trkpt lat="43.87884" lon="7.2313">
        <ele>202.0142822</ele>
        <time>2009-05-31T10:06:44Z</time>
      </trkpt>
      <trkpt lat="43.87878" lon="7.23134">
        <ele>202.494873</ele>
        <time>2009-05-31T10:06:50Z</time>
      </trkpt>
      <trkpt lat="43.87867" lon="7.23137">
        <ele>202.494873</ele>
        <time>2009-05-31T10:06:58Z</time>
      </trkpt>
      <trkpt lat="43.8786" lon="7.23138">
        <ele>202.9754639</ele>
        <time>2009-05-31T10:07:04Z</time>
      </trkpt>
      <trkpt lat="43.87856" lon="7.23138">
        <ele>202.9754639</ele>
        <time>2009-05-31T10:07:09Z</time>
      </trkpt>
      <trkpt lat="43.87846" lon="7.23141">
        <ele>202.9754639</ele>
        <time>2009-05-31T10:07:15Z</time>
      </trkpt>
      <trkpt lat="43.87845" lon="7.23142">
        <ele>202.9754639</ele>
        <time>2009-05-31T10:07:17Z</time>
      </trkpt>
      <trkpt lat="43.87845" lon="7.23147">
        <ele>202.494873</ele>
        <time>2009-05-31T10:07:21Z</time>
      </trkpt>
      <trkpt lat="43.87849" lon="7.23157">
        <ele>204.8980713</ele>
        <time>2009-05-31T10:07:29Z</time>
      </trkpt>
      <trkpt lat="43.87849" lon="7.23162">
        <ele>205.8594971</ele>
        <time>2009-05-31T10:07:35Z</time>
      </trkpt>
      <trkpt lat="43.87849" lon="7.23164">
        <ele>205.3787842</ele>
        <time>2009-05-31T10:07:40Z</time>
      </trkpt>
      <trkpt lat="43.87848" lon="7.23167">
        <ele>205.3787842</ele>
        <time>2009-05-31T10:07:42Z</time>
      </trkpt>
      <trkpt lat="43.87844" lon="7.23173">
        <ele>207.7821045</ele>
        <time>2009-05-31T10:07:47Z</time>
      </trkpt>
      <trkpt lat="43.87841" lon="7.23181">
        <ele>208.7434082</ele>
        <time>2009-05-31T10:07:53Z</time>
      </trkpt>
      <trkpt lat="43.8784" lon="7.23187">
        <ele>209.2241211</ele>
        <time>2009-05-31T10:07:58Z</time>
      </trkpt>
      <trkpt lat="43.87839" lon="7.23192">
        <ele>211.1467285</ele>
        <time>2009-05-31T10:08:02Z</time>
      </trkpt>
      <trkpt lat="43.87837" lon="7.23199">
        <ele>211.1467285</ele>
        <time>2009-05-31T10:08:07Z</time>
      </trkpt>
      <trkpt lat="43.87834" lon="7.23198">
        <ele>213.0693359</ele>
        <time>2009-05-31T10:08:13Z</time>
      </trkpt>
      <trkpt lat="43.87832" lon="7.23193">
        <ele>213.5500488</ele>
        <time>2009-05-31T10:08:18Z</time>
      </trkpt>
      <trkpt lat="43.87831" lon="7.23187">
        <ele>214.9919434</ele>
        <time>2009-05-31T10:08:22Z</time>
      </trkpt>
      <trkpt lat="43.87831" lon="7.23177">
        <ele>215.9532471</ele>
        <time>2009-05-31T10:08:29Z</time>
      </trkpt>
      <trkpt lat="43.87828" lon="7.23169">
        <ele>216.9146729</ele>
        <time>2009-05-31T10:08:36Z</time>
      </trkpt>
      <trkpt lat="43.87827" lon="7.23162">
        <ele>217.3953857</ele>
        <time>2009-05-31T10:08:43Z</time>
      </trkpt>
      <trkpt lat="43.87825" lon="7.23152">
        <ele>219.3179932</ele>
        <time>2009-05-31T10:08:50Z</time>
      </trkpt>
      <trkpt lat="43.87824" lon="7.23148">
        <ele>220.7598877</ele>
        <time>2009-05-31T10:08:53Z</time>
      </trkpt>
      <trkpt lat="43.8782" lon="7.2314">
        <ele>221.7211914</ele>
        <time>2009-05-31T10:09:00Z</time>
      </trkpt>
      <trkpt lat="43.87818" lon="7.23137">
        <ele>222.6824951</ele>
        <time>2009-05-31T10:09:03Z</time>
      </trkpt>
      <trkpt lat="43.87818" lon="7.23124">
        <ele>224.1245117</ele>
        <time>2009-05-31T10:09:12Z</time>
      </trkpt>
      <trkpt lat="43.87817" lon="7.23119">
        <ele>225.0859375</ele>
        <time>2009-05-31T10:09:17Z</time>
      </trkpt>
      <trkpt lat="43.87815" lon="7.2311">
        <ele>226.527832</ele>
        <time>2009-05-31T10:09:24Z</time>
      </trkpt>
      <trkpt lat="43.87815" lon="7.23099">
        <ele>227.0085449</ele>
        <time>2009-05-31T10:09:33Z</time>
      </trkpt>
      <trkpt lat="43.87814" lon="7.23091">
        <ele>228.4504395</ele>
        <time>2009-05-31T10:09:40Z</time>
      </trkpt>
      <trkpt lat="43.87811" lon="7.23084">
        <ele>230.3730469</ele>
        <time>2009-05-31T10:09:48Z</time>
      </trkpt>
      <trkpt lat="43.87809" lon="7.2308">
        <ele>231.8149414</ele>
        <time>2009-05-31T10:09:54Z</time>
      </trkpt>
      <trkpt lat="43.87803" lon="7.23078">
        <ele>233.2570801</ele>
        <time>2009-05-31T10:10:03Z</time>
      </trkpt>
      <trkpt lat="43.87797" lon="7.23076">
        <ele>234.2183838</ele>
        <time>2009-05-31T10:10:11Z</time>
      </trkpt>
      <trkpt lat="43.87795" lon="7.23078">
        <ele>235.1796875</ele>
        <time>2009-05-31T10:10:18Z</time>
      </trkpt>
      <trkpt lat="43.87797" lon="7.23081">
        <ele>235.1796875</ele>
        <time>2009-05-31T10:10:23Z</time>
      </trkpt>
      <trkpt lat="43.87796" lon="7.23085">
        <ele>236.6217041</ele>
        <time>2009-05-31T10:10:28Z</time>
      </trkpt>
      <trkpt lat="43.87795" lon="7.23085">
        <ele>236.6217041</ele>
        <time>2009-05-31T10:10:29Z</time>
      </trkpt>
      <trkpt lat="43.87793" lon="7.23082">
        <ele>238.0635986</ele>
        <time>2009-05-31T10:10:35Z</time>
      </trkpt>
      <trkpt lat="43.87791" lon="7.2308">
        <ele>239.0249023</ele>
        <time>2009-05-31T10:10:39Z</time>
      </trkpt>
      <trkpt lat="43.87786" lon="7.23076">
        <ele>240.467041</ele>
        <time>2009-05-31T10:10:46Z</time>
      </trkpt>
      <trkpt lat="43.87783" lon="7.23072">
        <ele>240.9476318</ele>
        <time>2009-05-31T10:10:50Z</time>
      </trkpt>
      <trkpt lat="43.87778" lon="7.23066">
        <ele>241.4282227</ele>
        <time>2009-05-31T10:10:57Z</time>
      </trkpt>
      <trkpt lat="43.87773" lon="7.23061">
        <ele>241.9089355</ele>
        <time>2009-05-31T10:11:05Z</time>
      </trkpt>
      <trkpt lat="43.87767" lon="7.23054">
        <ele>242.8702393</ele>
        <time>2009-05-31T10:11:14Z</time>
      </trkpt>
      <trkpt lat="43.87761" lon="7.23047">
        <ele>243.831543</ele>
        <time>2009-05-31T10:11:24Z</time>
      </trkpt>
      <trkpt lat="43.87757" lon="7.23044">
        <ele>245.2734375</ele>
        <time>2009-05-31T10:11:33Z</time>
      </trkpt>
      <trkpt lat="43.87754" lon="7.23042">
        <ele>246.2348633</ele>
        <time>2009-05-31T10:11:41Z</time>
      </trkpt>
      <trkpt lat="43.87749" lon="7.23042">
        <ele>247.1960449</ele>
        <time>2009-05-31T10:11:49Z</time>
      </trkpt>
      <trkpt lat="43.87745" lon="7.23041">
        <ele>248.1575928</ele>
        <time>2009-05-31T10:11:55Z</time>
      </trkpt>
      <trkpt lat="43.87742" lon="7.23039">
        <ele>249.5994873</ele>
        <time>2009-05-31T10:12:02Z</time>
      </trkpt>
      <trkpt lat="43.87737" lon="7.23035">
        <ele>252.0028076</ele>
        <time>2009-05-31T10:12:13Z</time>
      </trkpt>
      <trkpt lat="43.87735" lon="7.23028">
        <ele>250.560791</ele>
        <time>2009-05-31T10:12:19Z</time>
      </trkpt>
      <trkpt lat="43.87729" lon="7.2302">
        <ele>250.0802002</ele>
        <time>2009-05-31T10:12:22Z</time>
      </trkpt>
      <trkpt lat="43.87724" lon="7.23017">
        <ele>251.0413818</ele>
        <time>2009-05-31T10:12:27Z</time>
      </trkpt>
      <trkpt lat="43.87719" lon="7.23017">
        <ele>252.0028076</ele>
        <time>2009-05-31T10:12:34Z</time>
      </trkpt>
      <trkpt lat="43.87712" lon="7.23016">
        <ele>253.4447021</ele>
        <time>2009-05-31T10:12:42Z</time>
      </trkpt>
      <trkpt lat="43.87706" lon="7.23015">
        <ele>253.925415</ele>
        <time>2009-05-31T10:12:50Z</time>
      </trkpt>
      <trkpt lat="43.87704" lon="7.23015">
        <ele>255.3673096</ele>
        <time>2009-05-31T10:12:53Z</time>
      </trkpt>
      <trkpt lat="43.877" lon="7.23012">
        <ele>255.8480225</ele>
        <time>2009-05-31T10:13:00Z</time>
      </trkpt>
      <trkpt lat="43.87699" lon="7.23011">
        <ele>255.8480225</ele>
        <time>2009-05-31T10:13:02Z</time>
      </trkpt>
      <trkpt lat="43.8769" lon="7.23007">
        <ele>257.770752</ele>
        <time>2009-05-31T10:13:11Z</time>
      </trkpt>
      <trkpt lat="43.87683" lon="7.23005">
        <ele>260.1739502</ele>
        <time>2009-05-31T10:13:18Z</time>
      </trkpt>
      <trkpt lat="43.87681" lon="7.23003">
        <ele>260.1739502</ele>
        <time>2009-05-31T10:13:20Z</time>
      </trkpt>
      <trkpt lat="43.8767" lon="7.22988">
        <ele>261.1352539</ele>
        <time>2009-05-31T10:13:29Z</time>
      </trkpt>
      <trkpt lat="43.87662" lon="7.22979">
        <ele>263.0578613</ele>
        <time>2009-05-31T10:13:38Z</time>
      </trkpt>
      <trkpt lat="43.87657" lon="7.22974">
        <ele>264.0192871</ele>
        <time>2009-05-31T10:13:46Z</time>
      </trkpt>
      <trkpt lat="43.87653" lon="7.22972">
        <ele>265.4613037</ele>
        <time>2009-05-31T10:13:52Z</time>
      </trkpt>
      <trkpt lat="43.87651" lon="7.22969">
        <ele>264.9805908</ele>
        <time>2009-05-31T10:13:56Z</time>
      </trkpt>
      <trkpt lat="43.87647" lon="7.22965">
        <ele>266.4224854</ele>
        <time>2009-05-31T10:14:02Z</time>
      </trkpt>
      <trkpt lat="43.87643" lon="7.22958">
        <ele>267.3839111</ele>
        <time>2009-05-31T10:14:09Z</time>
      </trkpt>
      <trkpt lat="43.87639" lon="7.22951">
        <ele>267.864502</ele>
        <time>2009-05-31T10:14:16Z</time>
      </trkpt>
      <trkpt lat="43.87638" lon="7.22942">
        <ele>267.864502</ele>
        <time>2009-05-31T10:14:20Z</time>
      </trkpt>
      <trkpt lat="43.87628" lon="7.22917">
        <ele>269.7871094</ele>
        <time>2009-05-31T10:14:30Z</time>
      </trkpt>
      <trkpt lat="43.87617" lon="7.22898">
        <ele>271.7097168</ele>
        <time>2009-05-31T10:14:39Z</time>
      </trkpt>
      <trkpt lat="43.87609" lon="7.22885">
        <ele>273.1518555</ele>
        <time>2009-05-31T10:14:47Z</time>
      </trkpt>
      <trkpt lat="43.87603" lon="7.22869">
        <ele>273.1518555</ele>
        <time>2009-05-31T10:14:54Z</time>
      </trkpt>
      <trkpt lat="43.87592" lon="7.22861">
        <ele>273.1518555</ele>
        <time>2009-05-31T10:15:00Z</time>
      </trkpt>
      <trkpt lat="43.87576" lon="7.22859">
        <ele>275.0744629</ele>
        <time>2009-05-31T10:15:09Z</time>
      </trkpt>
      <trkpt lat="43.87563" lon="7.22857">
        <ele>275.5550537</ele>
        <time>2009-05-31T10:15:16Z</time>
      </trkpt>
      <trkpt lat="43.8755" lon="7.2285">
        <ele>275.5550537</ele>
        <time>2009-05-31T10:15:22Z</time>
      </trkpt>
      <trkpt lat="43.87546" lon="7.22835">
        <ele>276.0356445</ele>
        <time>2009-05-31T10:15:27Z</time>
      </trkpt>
      <trkpt lat="43.87551" lon="7.22822">
        <ele>276.9970703</ele>
        <time>2009-05-31T10:15:33Z</time>
      </trkpt>
      <trkpt lat="43.87551" lon="7.22822">
        <ele>277.4776611</ele>
        <time>2009-05-31T10:15:39Z</time>
      </trkpt>
      <trkpt lat="43.87556" lon="7.22814">
        <ele>278.4389648</ele>
        <time>2009-05-31T10:15:46Z</time>
      </trkpt>
      <trkpt lat="43.87561" lon="7.22803">
        <ele>280.3616943</ele>
        <time>2009-05-31T10:15:54Z</time>
      </trkpt>
      <trkpt lat="43.87564" lon="7.22791">
        <ele>281.8035889</ele>
        <time>2009-05-31T10:16:04Z</time>
      </trkpt>
      <trkpt lat="43.87566" lon="7.22783">
        <ele>282.7650146</ele>
        <time>2009-05-31T10:16:11Z</time>
      </trkpt>
      <trkpt lat="43.87567" lon="7.22772">
        <ele>285.6488037</ele>
        <time>2009-05-31T10:16:20Z</time>
      </trkpt>
      <trkpt lat="43.87567" lon="7.22763">
        <ele>287.0908203</ele>
        <time>2009-05-31T10:16:27Z</time>
      </trkpt>
      <trkpt lat="43.87565" lon="7.22755">
        <ele>287.5714111</ele>
        <time>2009-05-31T10:16:34Z</time>
      </trkpt>
      <trkpt lat="43.87562" lon="7.22744">
        <ele>289.4941406</ele>
        <time>2009-05-31T10:16:43Z</time>
      </trkpt>
      <trkpt lat="43.87559" lon="7.22735">
        <ele>290.9361572</ele>
        <time>2009-05-31T10:16:52Z</time>
      </trkpt>
      <trkpt lat="43.87555" lon="7.22726">
        <ele>291.8974609</ele>
        <time>2009-05-31T10:17:02Z</time>
      </trkpt>
      <trkpt lat="43.8755" lon="7.22721">
        <ele>293.3393555</ele>
        <time>2009-05-31T10:17:11Z</time>
      </trkpt>
      <trkpt lat="43.87545" lon="7.22714">
        <ele>295.2619629</ele>
        <time>2009-05-31T10:17:20Z</time>
      </trkpt>
      <trkpt lat="43.87541" lon="7.22708">
        <ele>297.1846924</ele>
        <time>2009-05-31T10:17:28Z</time>
      </trkpt>
      <trkpt lat="43.87538" lon="7.22705">
        <ele>298.1461182</ele>
        <time>2009-05-31T10:17:35Z</time>
      </trkpt>
      <trkpt lat="43.87538" lon="7.22713">
        <ele>298.1461182</ele>
        <time>2009-05-31T10:17:43Z</time>
      </trkpt>
      <trkpt lat="43.87539" lon="7.2272">
        <ele>299.5880127</ele>
        <time>2009-05-31T10:17:51Z</time>
      </trkpt>
      <trkpt lat="43.8754" lon="7.22722">
        <ele>299.1072998</ele>
        <time>2009-05-31T10:17:53Z</time>
      </trkpt>
      <trkpt lat="43.87541" lon="7.22733">
        <ele>300.5493164</ele>
        <time>2009-05-31T10:18:01Z</time>
      </trkpt>
      <trkpt lat="43.87542" lon="7.22742">
        <ele>302.9525146</ele>
        <time>2009-05-31T10:18:08Z</time>
      </trkpt>
      <trkpt lat="43.87539" lon="7.22751">
        <ele>303.4332275</ele>
        <time>2009-05-31T10:18:16Z</time>
      </trkpt>
      <trkpt lat="43.87539" lon="7.22759">
        <ele>305.355957</ele>
        <time>2009-05-31T10:18:23Z</time>
      </trkpt>
      <trkpt lat="43.87538" lon="7.22766">
        <ele>305.355957</ele>
        <time>2009-05-31T10:18:30Z</time>
      </trkpt>
      <trkpt lat="43.87536" lon="7.22764">
        <ele>306.3172607</ele>
        <time>2009-05-31T10:18:36Z</time>
      </trkpt>
      <trkpt lat="43.87533" lon="7.22752">
        <ele>308.2398682</ele>
        <time>2009-05-31T10:18:45Z</time>
      </trkpt>
      <trkpt lat="43.87529" lon="7.22743">
        <ele>309.6818848</ele>
        <time>2009-05-31T10:18:53Z</time>
      </trkpt>
      <trkpt lat="43.87526" lon="7.22735">
        <ele>311.1237793</ele>
        <time>2009-05-31T10:19:00Z</time>
      </trkpt>
      <trkpt lat="43.87525" lon="7.22734">
        <ele>311.1237793</ele>
        <time>2009-05-31T10:19:01Z</time>
      </trkpt>
      <trkpt lat="43.87524" lon="7.22729">
        <ele>311.6044922</ele>
        <time>2009-05-31T10:19:07Z</time>
      </trkpt>
      <trkpt lat="43.8752" lon="7.22723">
        <ele>313.0465088</ele>
        <time>2009-05-31T10:19:14Z</time>
      </trkpt>
      <trkpt lat="43.87519" lon="7.22726">
        <ele>314.0078125</ele>
        <time>2009-05-31T10:19:19Z</time>
      </trkpt>
      <trkpt lat="43.87517" lon="7.22734">
        <ele>314.4884033</ele>
        <time>2009-05-31T10:19:26Z</time>
      </trkpt>
      <trkpt lat="43.87518" lon="7.22741">
        <ele>314.9691162</ele>
        <time>2009-05-31T10:19:32Z</time>
      </trkpt>
      <trkpt lat="43.87518" lon="7.22748">
        <ele>316.4110107</ele>
        <time>2009-05-31T10:19:39Z</time>
      </trkpt>
      <trkpt lat="43.87514" lon="7.22751">
        <ele>317.3724365</ele>
        <time>2009-05-31T10:19:47Z</time>
      </trkpt>
      <trkpt lat="43.87511" lon="7.22745">
        <ele>318.8143311</ele>
        <time>2009-05-31T10:19:54Z</time>
      </trkpt>
      <trkpt lat="43.87507" lon="7.22736">
        <ele>320.7370605</ele>
        <time>2009-05-31T10:20:03Z</time>
      </trkpt>
      <trkpt lat="43.87504" lon="7.22729">
        <ele>321.6983643</ele>
        <time>2009-05-31T10:20:11Z</time>
      </trkpt>
      <trkpt lat="43.87501" lon="7.22722">
        <ele>322.659668</ele>
        <time>2009-05-31T10:20:19Z</time>
      </trkpt>
      <trkpt lat="43.87499" lon="7.22712">
        <ele>323.6209717</ele>
        <time>2009-05-31T10:20:28Z</time>
      </trkpt>
      <trkpt lat="43.87498" lon="7.22713">
        <ele>324.5822754</ele>
        <time>2009-05-31T10:20:33Z</time>
      </trkpt>
      <trkpt lat="43.87498" lon="7.22721">
        <ele>326.0241699</ele>
        <time>2009-05-31T10:20:41Z</time>
      </trkpt>
      <trkpt lat="43.87498" lon="7.22729">
        <ele>327.4661865</ele>
        <time>2009-05-31T10:20:48Z</time>
      </trkpt>
      <trkpt lat="43.87499" lon="7.22736">
        <ele>329.388916</ele>
        <time>2009-05-31T10:20:56Z</time>
      </trkpt>
      <trkpt lat="43.87497" lon="7.22742">
        <ele>329.8695068</ele>
        <time>2009-05-31T10:21:03Z</time>
      </trkpt>
      <trkpt lat="43.87494" lon="7.22749">
        <ele>330.8309326</ele>
        <time>2009-05-31T10:21:10Z</time>
      </trkpt>
      <trkpt lat="43.87491" lon="7.22751">
        <ele>331.7921143</ele>
        <time>2009-05-31T10:21:16Z</time>
      </trkpt>
      <trkpt lat="43.87487" lon="7.22748">
        <ele>331.7921143</ele>
        <time>2009-05-31T10:21:22Z</time>
      </trkpt>
      <trkpt lat="43.87487" lon="7.22742">
        <ele>332.2728271</ele>
        <time>2009-05-31T10:21:28Z</time>
      </trkpt>
      <trkpt lat="43.87487" lon="7.22734">
        <ele>334.1954346</ele>
        <time>2009-05-31T10:21:35Z</time>
      </trkpt>
      <trkpt lat="43.87486" lon="7.22726">
        <ele>334.6761475</ele>
        <time>2009-05-31T10:21:43Z</time>
      </trkpt>
      <trkpt lat="43.87482" lon="7.22717">
        <ele>335.1567383</ele>
        <time>2009-05-31T10:21:51Z</time>
      </trkpt>
      <trkpt lat="43.8748" lon="7.22704">
        <ele>337.0794678</ele>
        <time>2009-05-31T10:22:01Z</time>
      </trkpt>
      <trkpt lat="43.8748" lon="7.22697">
        <ele>338.0407715</ele>
        <time>2009-05-31T10:22:08Z</time>
      </trkpt>
      <trkpt lat="43.87479" lon="7.22688">
        <ele>339.0020752</ele>
        <time>2009-05-31T10:22:16Z</time>
      </trkpt>
      <trkpt lat="43.87478" lon="7.22695">
        <ele>339.0020752</ele>
        <time>2009-05-31T10:22:22Z</time>
      </trkpt>
      <trkpt lat="43.87479" lon="7.22701">
        <ele>339.9633789</ele>
        <time>2009-05-31T10:22:30Z</time>
      </trkpt>
      <trkpt lat="43.87477" lon="7.22705">
        <ele>340.9246826</ele>
        <time>2009-05-31T10:22:38Z</time>
      </trkpt>
      <trkpt lat="43.87476" lon="7.22709">
        <ele>342.3666992</ele>
        <time>2009-05-31T10:22:46Z</time>
      </trkpt>
      <trkpt lat="43.87474" lon="7.2271">
        <ele>342.84729</ele>
        <time>2009-05-31T10:22:54Z</time>
      </trkpt>
      <trkpt lat="43.8747" lon="7.2271">
        <ele>342.84729</ele>
        <time>2009-05-31T10:24:06Z</time>
      </trkpt>
      <trkpt lat="43.87472" lon="7.22712">
        <ele>342.84729</ele>
        <time>2009-05-31T10:24:56Z</time>
      </trkpt>
      <trkpt lat="43.87472" lon="7.22715">
        <ele>342.84729</ele>
        <time>2009-05-31T10:25:00Z</time>
      </trkpt>
      <trkpt lat="43.87473" lon="7.2272">
        <ele>343.8085938</ele>
        <time>2009-05-31T10:25:07Z</time>
      </trkpt>
      <trkpt lat="43.87474" lon="7.22721">
        <ele>343.8085938</ele>
        <time>2009-05-31T10:25:08Z</time>
      </trkpt>
      <trkpt lat="43.87473" lon="7.22727">
        <ele>344.2894287</ele>
        <time>2009-05-31T10:25:15Z</time>
      </trkpt>
      <trkpt lat="43.87472" lon="7.22728">
        <ele>345.2506104</ele>
        <time>2009-05-31T10:25:20Z</time>
      </trkpt>
      <trkpt lat="43.8747" lon="7.22725">
        <ele>346.2120361</ele>
        <time>2009-05-31T10:25:26Z</time>
      </trkpt>
      <trkpt lat="43.87466" lon="7.2272">
        <ele>346.692627</ele>
        <time>2009-05-31T10:25:34Z</time>
      </trkpt>
      <trkpt lat="43.87464" lon="7.22712">
        <ele>347.1732178</ele>
        <time>2009-05-31T10:25:42Z</time>
      </trkpt>
      <trkpt lat="43.8746" lon="7.22709">
        <ele>349.5765381</ele>
        <time>2009-05-31T10:25:51Z</time>
      </trkpt>
      <trkpt lat="43.8746" lon="7.2271">
        <ele>349.5765381</ele>
        <time>2009-05-31T10:25:52Z</time>
      </trkpt>
      <trkpt lat="43.8746" lon="7.22717">
        <ele>350.5378418</ele>
        <time>2009-05-31T10:26:01Z</time>
      </trkpt>
      <trkpt lat="43.87458" lon="7.22723">
        <ele>351.9798584</ele>
        <time>2009-05-31T10:26:09Z</time>
      </trkpt>
      <trkpt lat="43.87455" lon="7.22723">
        <ele>352.4605713</ele>
        <time>2009-05-31T10:26:16Z</time>
      </trkpt>
      <trkpt lat="43.87455" lon="7.22719">
        <ele>353.9025879</ele>
        <time>2009-05-31T10:26:24Z</time>
      </trkpt>
      <trkpt lat="43.87454" lon="7.22716">
        <ele>354.8637695</ele>
        <time>2009-05-31T10:26:30Z</time>
      </trkpt>
      <trkpt lat="43.87453" lon="7.22712">
        <ele>355.8251953</ele>
        <time>2009-05-31T10:26:37Z</time>
      </trkpt>
      <trkpt lat="43.87451" lon="7.22704">
        <ele>356.3057861</ele>
        <time>2009-05-31T10:26:45Z</time>
      </trkpt>
      <trkpt lat="43.87452" lon="7.22699">
        <ele>355.8251953</ele>
        <time>2009-05-31T10:26:52Z</time>
      </trkpt>
      <trkpt lat="43.87453" lon="7.22694">
        <ele>356.3057861</ele>
        <time>2009-05-31T10:26:57Z</time>
      </trkpt>
      <trkpt lat="43.87456" lon="7.22683">
        <ele>356.786377</ele>
        <time>2009-05-31T10:27:05Z</time>
      </trkpt>
      <trkpt lat="43.87457" lon="7.22675">
        <ele>358.2283936</ele>
        <time>2009-05-31T10:27:13Z</time>
      </trkpt>
      <trkpt lat="43.87455" lon="7.22671">
        <ele>359.1896973</ele>
        <time>2009-05-31T10:27:19Z</time>
      </trkpt>
      <trkpt lat="43.87457" lon="7.22663">
        <ele>360.151123</ele>
        <time>2009-05-31T10:27:27Z</time>
      </trkpt>
      <trkpt lat="43.87457" lon="7.22657">
        <ele>360.6317139</ele>
        <time>2009-05-31T10:27:33Z</time>
      </trkpt>
      <trkpt lat="43.87456" lon="7.22651">
        <ele>362.0737305</ele>
        <time>2009-05-31T10:27:40Z</time>
      </trkpt>
      <trkpt lat="43.87455" lon="7.2264">
        <ele>362.0737305</ele>
        <time>2009-05-31T10:27:48Z</time>
      </trkpt>
      <trkpt lat="43.8745" lon="7.22636">
        <ele>363.0350342</ele>
        <time>2009-05-31T10:27:56Z</time>
      </trkpt>
      <trkpt lat="43.87447" lon="7.22632">
        <ele>363.9963379</ele>
        <time>2009-05-31T10:28:03Z</time>
      </trkpt>
      <trkpt lat="43.87445" lon="7.22634">
        <ele>364.4769287</ele>
        <time>2009-05-31T10:28:09Z</time>
      </trkpt>
      <trkpt lat="43.87444" lon="7.22637">
        <ele>364.9576416</ele>
        <time>2009-05-31T10:28:15Z</time>
      </trkpt>
      <trkpt lat="43.87445" lon="7.22644">
        <ele>365.9189453</ele>
        <time>2009-05-31T10:28:24Z</time>
      </trkpt>
      <trkpt lat="43.87445" lon="7.22648">
        <ele>366.3995361</ele>
        <time>2009-05-31T10:28:32Z</time>
      </trkpt>
      <trkpt lat="43.87442" lon="7.22648">
        <ele>366.3995361</ele>
        <time>2009-05-31T10:28:38Z</time>
      </trkpt>
      <trkpt lat="43.87438" lon="7.22644">
        <ele>367.8415527</ele>
        <time>2009-05-31T10:28:45Z</time>
      </trkpt>
      <trkpt lat="43.87437" lon="7.22643">
        <ele>368.3222656</ele>
        <time>2009-05-31T10:28:46Z</time>
      </trkpt>
      <trkpt lat="43.87432" lon="7.22635">
        <ele>369.2836914</ele>
        <time>2009-05-31T10:28:56Z</time>
      </trkpt>
      <trkpt lat="43.87429" lon="7.22634">
        <ele>369.7642822</ele>
        <time>2009-05-31T10:29:03Z</time>
      </trkpt>
      <trkpt lat="43.87426" lon="7.22632">
        <ele>370.244873</ele>
        <time>2009-05-31T10:29:11Z</time>
      </trkpt>
      <trkpt lat="43.87422" lon="7.2263">
        <ele>372.1674805</ele>
        <time>2009-05-31T10:29:17Z</time>
      </trkpt>
      <trkpt lat="43.87418" lon="7.2263">
        <ele>372.6481934</ele>
        <time>2009-05-31T10:29:24Z</time>
      </trkpt>
      <trkpt lat="43.87413" lon="7.22629">
        <ele>373.1289062</ele>
        <time>2009-05-31T10:29:30Z</time>
      </trkpt>
      <trkpt lat="43.8741" lon="7.2263">
        <ele>374.5708008</ele>
        <time>2009-05-31T10:29:38Z</time>
      </trkpt>
      <trkpt lat="43.87407" lon="7.22632">
        <ele>375.0515137</ele>
        <time>2009-05-31T10:29:44Z</time>
      </trkpt>
      <trkpt lat="43.87402" lon="7.22636">
        <ele>376.4935303</ele>
        <time>2009-05-31T10:29:52Z</time>
      </trkpt>
      <trkpt lat="43.87394" lon="7.22642">
        <ele>376.9742432</ele>
        <time>2009-05-31T10:30:03Z</time>
      </trkpt>
      <trkpt lat="43.87387" lon="7.22649">
        <ele>377.454834</ele>
        <time>2009-05-31T10:30:12Z</time>
      </trkpt>
      <trkpt lat="43.87386" lon="7.22651">
        <ele>378.4161377</ele>
        <time>2009-05-31T10:30:14Z</time>
      </trkpt>
      <trkpt lat="43.8738" lon="7.22659">
        <ele>379.8580322</ele>
        <time>2009-05-31T10:30:23Z</time>
      </trkpt>
      <trkpt lat="43.87378" lon="7.22662">
        <ele>379.8580322</ele>
        <time>2009-05-31T10:30:27Z</time>
      </trkpt>
      <trkpt lat="43.87373" lon="7.22667">
        <ele>380.819458</ele>
        <time>2009-05-31T10:30:35Z</time>
      </trkpt>
      <trkpt lat="43.87366" lon="7.22673">
        <ele>381.7806396</ele>
        <time>2009-05-31T10:30:44Z</time>
      </trkpt>
      <trkpt lat="43.87363" lon="7.22675">
        <ele>382.7420654</ele>
        <time>2009-05-31T10:30:49Z</time>
      </trkpt>
      <trkpt lat="43.87361" lon="7.22676">
        <ele>383.7032471</ele>
        <time>2009-05-31T10:30:56Z</time>
      </trkpt>
      <trkpt lat="43.87355" lon="7.22676">
        <ele>383.7032471</ele>
        <time>2009-05-31T10:31:04Z</time>
      </trkpt>
      <trkpt lat="43.8735" lon="7.22677">
        <ele>384.6647949</ele>
        <time>2009-05-31T10:31:13Z</time>
      </trkpt>
      <trkpt lat="43.87346" lon="7.2268">
        <ele>384.184082</ele>
        <time>2009-05-31T10:31:22Z</time>
      </trkpt>
      <trkpt lat="43.87344" lon="7.22682">
        <ele>387.0679932</ele>
        <time>2009-05-31T10:31:28Z</time>
      </trkpt>
      <trkpt lat="43.87342" lon="7.22685">
        <ele>388.5100098</ele>
        <time>2009-05-31T10:31:34Z</time>
      </trkpt>
      <trkpt lat="43.87337" lon="7.22686">
        <ele>388.5100098</ele>
        <time>2009-05-31T10:31:42Z</time>
      </trkpt>
      <trkpt lat="43.87331" lon="7.22687">
        <ele>389.9519043</ele>
        <time>2009-05-31T10:31:51Z</time>
      </trkpt>
      <trkpt lat="43.87326" lon="7.22687">
        <ele>391.8745117</ele>
        <time>2009-05-31T10:32:01Z</time>
      </trkpt>
      <trkpt lat="43.87321" lon="7.22683">
        <ele>392.8359375</ele>
        <time>2009-05-31T10:32:10Z</time>
      </trkpt>
      <trkpt lat="43.87317" lon="7.22681">
        <ele>393.7972412</ele>
        <time>2009-05-31T10:32:16Z</time>
      </trkpt>
      <trkpt lat="43.87312" lon="7.22676">
        <ele>394.2779541</ele>
        <time>2009-05-31T10:32:24Z</time>
      </trkpt>
      <trkpt lat="43.87308" lon="7.2267">
        <ele>395.2391357</ele>
        <time>2009-05-31T10:32:33Z</time>
      </trkpt>
      <trkpt lat="43.87305" lon="7.22663">
        <ele>396.2005615</ele>
        <time>2009-05-31T10:32:41Z</time>
      </trkpt>
      <trkpt lat="43.87303" lon="7.22658">
        <ele>395.7198486</ele>
        <time>2009-05-31T10:32:46Z</time>
      </trkpt>
      <trkpt lat="43.87295" lon="7.22647">
        <ele>396.6811523</ele>
        <time>2009-05-31T10:32:57Z</time>
      </trkpt>
      <trkpt lat="43.8729" lon="7.22642">
        <ele>397.6424561</ele>
        <time>2009-05-31T10:33:05Z</time>
      </trkpt>
      <trkpt lat="43.87285" lon="7.22635">
        <ele>399.5650635</ele>
        <time>2009-05-31T10:33:17Z</time>
      </trkpt>
      <trkpt lat="43.87279" lon="7.22628">
        <ele>401.0070801</ele>
        <time>2009-05-31T10:33:29Z</time>
      </trkpt>
      <trkpt lat="43.87278" lon="7.22625">
        <ele>401.0070801</ele>
        <time>2009-05-31T10:33:35Z</time>
      </trkpt>
      <trkpt lat="43.87275" lon="7.22616">
        <ele>401.487793</ele>
        <time>2009-05-31T10:33:43Z</time>
      </trkpt>
      <trkpt lat="43.87271" lon="7.22609">
        <ele>403.4104004</ele>
        <time>2009-05-31T10:33:52Z</time>
      </trkpt>
      <trkpt lat="43.87268" lon="7.226">
        <ele>404.3717041</ele>
        <time>2009-05-31T10:34:00Z</time>
      </trkpt>
      <trkpt lat="43.87262" lon="7.22587">
        <ele>405.8137207</ele>
        <time>2009-05-31T10:34:11Z</time>
      </trkpt>
      <trkpt lat="43.8726" lon="7.22583">
        <ele>406.7749023</ele>
        <time>2009-05-31T10:34:19Z</time>
      </trkpt>
      <trkpt lat="43.87256" lon="7.22581">
        <ele>406.7749023</ele>
        <time>2009-05-31T10:35:06Z</time>
      </trkpt>
      <trkpt lat="43.87251" lon="7.22576">
        <ele>408.6976318</ele>
        <time>2009-05-31T10:35:15Z</time>
      </trkpt>
      <trkpt lat="43.87246" lon="7.22569">
        <ele>409.6590576</ele>
        <time>2009-05-31T10:35:24Z</time>
      </trkpt>
      <trkpt lat="43.87242" lon="7.22565">
        <ele>408.6976318</ele>
        <time>2009-05-31T10:35:29Z</time>
      </trkpt>
      <trkpt lat="43.87238" lon="7.2256">
        <ele>410.1396484</ele>
        <time>2009-05-31T10:35:35Z</time>
      </trkpt>
      <trkpt lat="43.87232" lon="7.22554">
        <ele>410.6202393</ele>
        <time>2009-05-31T10:35:43Z</time>
      </trkpt>
      <trkpt lat="43.87227" lon="7.22548">
        <ele>410.6202393</ele>
        <time>2009-05-31T10:35:51Z</time>
      </trkpt>
      <trkpt lat="43.87222" lon="7.22543">
        <ele>411.581665</ele>
        <time>2009-05-31T10:35:59Z</time>
      </trkpt>
      <trkpt lat="43.87216" lon="7.2254">
        <ele>412.5428467</ele>
        <time>2009-05-31T10:36:08Z</time>
      </trkpt>
      <trkpt lat="43.87214" lon="7.22535">
        <ele>413.0235596</ele>
        <time>2009-05-31T10:36:13Z</time>
      </trkpt>
      <trkpt lat="43.87213" lon="7.22529">
        <ele>413.5042725</ele>
        <time>2009-05-31T10:36:19Z</time>
      </trkpt>
      <trkpt lat="43.87211" lon="7.22523">
        <ele>414.4654541</ele>
        <time>2009-05-31T10:36:28Z</time>
      </trkpt>
      <trkpt lat="43.87207" lon="7.22517">
        <ele>417.3496094</ele>
        <time>2009-05-31T10:36:36Z</time>
      </trkpt>
      <trkpt lat="43.87203" lon="7.22511">
        <ele>417.3496094</ele>
        <time>2009-05-31T10:36:44Z</time>
      </trkpt>
      <trkpt lat="43.872" lon="7.22507">
        <ele>418.7915039</ele>
        <time>2009-05-31T10:36:49Z</time>
      </trkpt>
      <trkpt lat="43.87197" lon="7.22504">
        <ele>419.2722168</ele>
        <time>2009-05-31T10:36:55Z</time>
      </trkpt>
      <trkpt lat="43.87193" lon="7.225">
        <ele>419.2722168</ele>
        <time>2009-05-31T10:37:01Z</time>
      </trkpt>
      <trkpt lat="43.87192" lon="7.22499">
        <ele>420.2333984</ele>
        <time>2009-05-31T10:37:10Z</time>
      </trkpt>
      <trkpt lat="43.8719" lon="7.22503">
        <ele>419.7528076</ele>
        <time>2009-05-31T10:37:32Z</time>
      </trkpt>
      <trkpt lat="43.87188" lon="7.22513">
        <ele>421.1948242</ele>
        <time>2009-05-31T10:37:41Z</time>
      </trkpt>
      <trkpt lat="43.87185" lon="7.22523">
        <ele>422.1560059</ele>
        <time>2009-05-31T10:37:51Z</time>
      </trkpt>
      <trkpt lat="43.87179" lon="7.2253">
        <ele>423.1174316</ele>
        <time>2009-05-31T10:38:00Z</time>
      </trkpt>
      <trkpt lat="43.87171" lon="7.22535">
        <ele>424.5594482</ele>
        <time>2009-05-31T10:38:09Z</time>
      </trkpt>
      <trkpt lat="43.87164" lon="7.22541">
        <ele>424.5594482</ele>
        <time>2009-05-31T10:38:18Z</time>
      </trkpt>
      <trkpt lat="43.87157" lon="7.22546">
        <ele>424.5594482</ele>
        <time>2009-05-31T10:38:27Z</time>
      </trkpt>
      <trkpt lat="43.87148" lon="7.22554">
        <ele>426.9627686</ele>
        <time>2009-05-31T10:38:38Z</time>
      </trkpt>
      <trkpt lat="43.87142" lon="7.2256">
        <ele>426.4820557</ele>
        <time>2009-05-31T10:38:47Z</time>
      </trkpt>
      <trkpt lat="43.87136" lon="7.22567">
        <ele>426.0013428</ele>
        <time>2009-05-31T10:38:55Z</time>
      </trkpt>
      <trkpt lat="43.87133" lon="7.22572">
        <ele>426.0013428</ele>
        <time>2009-05-31T10:39:03Z</time>
      </trkpt>
      <trkpt lat="43.87133" lon="7.22573">
        <ele>426.0013428</ele>
        <time>2009-05-31T10:39:29Z</time>
      </trkpt>
      <trkpt lat="43.87126" lon="7.22582">
        <ele>426.9627686</ele>
        <time>2009-05-31T10:39:36Z</time>
      </trkpt>
      <trkpt lat="43.87119" lon="7.2259">
        <ele>427.4433594</ele>
        <time>2009-05-31T10:39:42Z</time>
      </trkpt>
      <trkpt lat="43.87109" lon="7.22603">
        <ele>427.9239502</ele>
        <time>2009-05-31T10:39:50Z</time>
      </trkpt>
      <trkpt lat="43.87099" lon="7.22621">
        <ele>428.885376</ele>
        <time>2009-05-31T10:39:58Z</time>
      </trkpt>
      <trkpt lat="43.8709" lon="7.2264">
        <ele>428.885376</ele>
        <time>2009-05-31T10:40:07Z</time>
      </trkpt>
      <trkpt lat="43.87088" lon="7.22649">
        <ele>428.885376</ele>
        <time>2009-05-31T10:40:11Z</time>
      </trkpt>
      <trkpt lat="43.87081" lon="7.22654">
        <ele>429.3659668</ele>
        <time>2009-05-31T10:40:15Z</time>
      </trkpt>
      <trkpt lat="43.87075" lon="7.22645">
        <ele>429.8465576</ele>
        <time>2009-05-31T10:40:21Z</time>
      </trkpt>
      <trkpt lat="43.87067" lon="7.2263">
        <ele>430.8079834</ele>
        <time>2009-05-31T10:40:28Z</time>
      </trkpt>
      <trkpt lat="43.87061" lon="7.2262">
        <ele>432.25</ele>
        <time>2009-05-31T10:40:35Z</time>
      </trkpt>
      <trkpt lat="43.87058" lon="7.22609">
        <ele>433.6918945</ele>
        <time>2009-05-31T10:40:41Z</time>
      </trkpt>
      <trkpt lat="43.87057" lon="7.22607">
        <ele>432.7307129</ele>
        <time>2009-05-31T10:40:46Z</time>
      </trkpt>
      <trkpt lat="43.87055" lon="7.22605">
        <ele>434.6533203</ele>
        <time>2009-05-31T10:40:49Z</time>
      </trkpt>
      <trkpt lat="43.87051" lon="7.22602">
        <ele>434.6533203</ele>
        <time>2009-05-31T10:40:56Z</time>
      </trkpt>
      <trkpt lat="43.87046" lon="7.22599">
        <ele>436.0952148</ele>
        <time>2009-05-31T10:41:04Z</time>
      </trkpt>
      <trkpt lat="43.87041" lon="7.22594">
        <ele>437.5371094</ele>
        <time>2009-05-31T10:41:13Z</time>
      </trkpt>
      <trkpt lat="43.87036" lon="7.22588">
        <ele>438.0178223</ele>
        <time>2009-05-31T10:41:23Z</time>
      </trkpt>
      <trkpt lat="43.87031" lon="7.22584">
        <ele>439.4597168</ele>
        <time>2009-05-31T10:41:31Z</time>
      </trkpt>
      <trkpt lat="43.87029" lon="7.22584">
        <ele>439.9404297</ele>
        <time>2009-05-31T10:41:38Z</time>
      </trkpt>
      <trkpt lat="43.87019" lon="7.22583">
        <ele>441.3824463</ele>
        <time>2009-05-31T10:41:45Z</time>
      </trkpt>
      <trkpt lat="43.8701" lon="7.22582">
        <ele>441.8631592</ele>
        <time>2009-05-31T10:41:52Z</time>
      </trkpt>
      <trkpt lat="43.87" lon="7.22584">
        <ele>443.3050537</ele>
        <time>2009-05-31T10:41:59Z</time>
      </trkpt>
      <trkpt lat="43.86997" lon="7.22584">
        <ele>443.3050537</ele>
        <time>2009-05-31T10:42:04Z</time>
      </trkpt>
      <trkpt lat="43.86994" lon="7.22585">
        <ele>444.7470703</ele>
        <time>2009-05-31T10:42:08Z</time>
      </trkpt>
      <trkpt lat="43.86991" lon="7.22589">
        <ele>445.2276611</ele>
        <time>2009-05-31T10:42:14Z</time>
      </trkpt>
      <trkpt lat="43.86996" lon="7.22589">
        <ele>446.1890869</ele>
        <time>2009-05-31T10:42:23Z</time>
      </trkpt>
      <trkpt lat="43.87001" lon="7.22592">
        <ele>447.1502686</ele>
        <time>2009-05-31T10:42:31Z</time>
      </trkpt>
      <trkpt lat="43.87001" lon="7.22594">
        <ele>447.1502686</ele>
        <time>2009-05-31T10:42:33Z</time>
      </trkpt>
      <trkpt lat="43.87007" lon="7.22606">
        <ele>448.1118164</ele>
        <time>2009-05-31T10:42:42Z</time>
      </trkpt>
      <trkpt lat="43.87012" lon="7.22614">
        <ele>448.1118164</ele>
        <time>2009-05-31T10:42:50Z</time>
      </trkpt>
      <trkpt lat="43.87017" lon="7.22624">
        <ele>450.5150146</ele>
        <time>2009-05-31T10:42:59Z</time>
      </trkpt>
      <trkpt lat="43.87013" lon="7.22622">
        <ele>451.9570312</ele>
        <time>2009-05-31T10:43:05Z</time>
      </trkpt>
      <trkpt lat="43.8701" lon="7.22617">
        <ele>451.9570312</ele>
        <time>2009-05-31T10:43:12Z</time>
      </trkpt>
      <trkpt lat="43.87005" lon="7.22617">
        <ele>453.3989258</ele>
        <time>2009-05-31T10:43:19Z</time>
      </trkpt>
      <trkpt lat="43.87001" lon="7.22616">
        <ele>453.8796387</ele>
        <time>2009-05-31T10:43:25Z</time>
      </trkpt>
      <trkpt lat="43.86996" lon="7.22615">
        <ele>454.3602295</ele>
        <time>2009-05-31T10:43:33Z</time>
      </trkpt>
      <trkpt lat="43.86992" lon="7.22615">
        <ele>455.8022461</ele>
        <time>2009-05-31T10:43:39Z</time>
      </trkpt>
      <trkpt lat="43.86988" lon="7.22617">
        <ele>456.7635498</ele>
        <time>2009-05-31T10:43:47Z</time>
      </trkpt>
      <trkpt lat="43.86985" lon="7.22617">
        <ele>457.2442627</ele>
        <time>2009-05-31T10:43:53Z</time>
      </trkpt>
      <trkpt lat="43.86983" lon="7.22617">
        <ele>458.6861572</ele>
        <time>2009-05-31T10:43:56Z</time>
      </trkpt>
      <trkpt lat="43.8698" lon="7.22617">
        <ele>458.6861572</ele>
        <time>2009-05-31T10:44:02Z</time>
      </trkpt>
      <trkpt lat="43.86974" lon="7.22621">
        <ele>459.647583</ele>
        <time>2009-05-31T10:44:11Z</time>
      </trkpt>
      <trkpt lat="43.86968" lon="7.22623">
        <ele>460.1281738</ele>
        <time>2009-05-31T10:44:18Z</time>
      </trkpt>
      <trkpt lat="43.86964" lon="7.22624">
        <ele>461.0894775</ele>
        <time>2009-05-31T10:44:24Z</time>
      </trkpt>
      <trkpt lat="43.8696" lon="7.22624">
        <ele>461.5701904</ele>
        <time>2009-05-31T10:44:30Z</time>
      </trkpt>
      <trkpt lat="43.86956" lon="7.22625">
        <ele>462.5313721</ele>
        <time>2009-05-31T10:44:37Z</time>
      </trkpt>
      <trkpt lat="43.86951" lon="7.22627">
        <ele>463.012085</ele>
        <time>2009-05-31T10:44:43Z</time>
      </trkpt>
      <trkpt lat="43.86947" lon="7.2263">
        <ele>463.012085</ele>
        <time>2009-05-31T10:44:50Z</time>
      </trkpt>
      <trkpt lat="43.86942" lon="7.22633">
        <ele>463.4927979</ele>
        <time>2009-05-31T10:45:03Z</time>
      </trkpt>
      <trkpt lat="43.86937" lon="7.22635">
        <ele>464.4541016</ele>
        <time>2009-05-31T10:45:10Z</time>
      </trkpt>
      <trkpt lat="43.86934" lon="7.22636">
        <ele>465.8961182</ele>
        <time>2009-05-31T10:45:17Z</time>
      </trkpt>
      <trkpt lat="43.86929" lon="7.2264">
        <ele>466.376709</ele>
        <time>2009-05-31T10:45:26Z</time>
      </trkpt>
      <trkpt lat="43.86923" lon="7.22643">
        <ele>466.376709</ele>
        <time>2009-05-31T10:45:34Z</time>
      </trkpt>
      <trkpt lat="43.86917" lon="7.22649">
        <ele>467.3381348</ele>
        <time>2009-05-31T10:45:43Z</time>
      </trkpt>
      <trkpt lat="43.86912" lon="7.22655">
        <ele>468.7800293</ele>
        <time>2009-05-31T10:45:52Z</time>
      </trkpt>
      <trkpt lat="43.8691" lon="7.22659">
        <ele>469.741333</ele>
        <time>2009-05-31T10:45:59Z</time>
      </trkpt>
      <trkpt lat="43.86907" lon="7.22665">
        <ele>470.2219238</ele>
        <time>2009-05-31T10:46:06Z</time>
      </trkpt>
      <trkpt lat="43.86903" lon="7.2267">
        <ele>470.7026367</ele>
        <time>2009-05-31T10:46:14Z</time>
      </trkpt>
      <trkpt lat="43.86901" lon="7.22664">
        <ele>470.7026367</ele>
        <time>2009-05-31T10:46:25Z</time>
      </trkpt>
      <trkpt lat="43.86899" lon="7.22662">
        <ele>470.7026367</ele>
        <time>2009-05-31T10:46:31Z</time>
      </trkpt>
      <trkpt lat="43.86898" lon="7.22665">
        <ele>472.1446533</ele>
        <time>2009-05-31T10:46:37Z</time>
      </trkpt>
      <trkpt lat="43.86896" lon="7.22674">
        <ele>473.1060791</ele>
        <time>2009-05-31T10:46:45Z</time>
      </trkpt>
      <trkpt lat="43.86891" lon="7.22683">
        <ele>472.6253662</ele>
        <time>2009-05-31T10:46:54Z</time>
      </trkpt>
      <trkpt lat="43.86887" lon="7.22686">
        <ele>473.5866699</ele>
        <time>2009-05-31T10:47:01Z</time>
      </trkpt>
      <trkpt lat="43.86884" lon="7.22688">
        <ele>474.0672607</ele>
        <time>2009-05-31T10:47:09Z</time>
      </trkpt>
      <trkpt lat="43.86881" lon="7.22691">
        <ele>474.5479736</ele>
        <time>2009-05-31T10:47:15Z</time>
      </trkpt>
      <trkpt lat="43.86876" lon="7.22696">
        <ele>475.5092773</ele>
        <time>2009-05-31T10:47:23Z</time>
      </trkpt>
      <trkpt lat="43.86869" lon="7.22699">
        <ele>476.9512939</ele>
        <time>2009-05-31T10:47:30Z</time>
      </trkpt>
      <trkpt lat="43.8686" lon="7.22708">
        <ele>476.9512939</ele>
        <time>2009-05-31T10:47:41Z</time>
      </trkpt>
      <trkpt lat="43.86855" lon="7.22714">
        <ele>477.4318848</ele>
        <time>2009-05-31T10:47:51Z</time>
      </trkpt>
      <trkpt lat="43.86856" lon="7.22721">
        <ele>479.3544922</ele>
        <time>2009-05-31T10:47:59Z</time>
      </trkpt>
      <trkpt lat="43.86855" lon="7.22728">
        <ele>479.3544922</ele>
        <time>2009-05-31T10:48:06Z</time>
      </trkpt>
      <trkpt lat="43.86855" lon="7.22732">
        <ele>479.3544922</ele>
        <time>2009-05-31T10:48:10Z</time>
      </trkpt>
      <trkpt lat="43.86856" lon="7.22741">
        <ele>480.315918</ele>
        <time>2009-05-31T10:48:18Z</time>
      </trkpt>
      <trkpt lat="43.86859" lon="7.22749">
        <ele>481.7578125</ele>
        <time>2009-05-31T10:48:27Z</time>
      </trkpt>
      <trkpt lat="43.8686" lon="7.22757">
        <ele>483.1998291</ele>
        <time>2009-05-31T10:48:35Z</time>
      </trkpt>
      <trkpt lat="43.8686" lon="7.22758">
        <ele>482.2385254</ele>
        <time>2009-05-31T10:48:36Z</time>
      </trkpt>
      <trkpt lat="43.86852" lon="7.22762">
        <ele>483.6804199</ele>
        <time>2009-05-31T10:48:45Z</time>
      </trkpt>
      <trkpt lat="43.86845" lon="7.22766">
        <ele>485.1224365</ele>
        <time>2009-05-31T10:48:53Z</time>
      </trkpt>
      <trkpt lat="43.86841" lon="7.2277">
        <ele>485.6030273</ele>
        <time>2009-05-31T10:49:00Z</time>
      </trkpt>
      <trkpt lat="43.86836" lon="7.22776">
        <ele>486.0837402</ele>
        <time>2009-05-31T10:49:08Z</time>
      </trkpt>
      <trkpt lat="43.86831" lon="7.22775">
        <ele>485.6030273</ele>
        <time>2009-05-31T10:49:14Z</time>
      </trkpt>
      <trkpt lat="43.86823" lon="7.22783">
        <ele>488.0064697</ele>
        <time>2009-05-31T10:49:24Z</time>
      </trkpt>
      <trkpt lat="43.86819" lon="7.22793">
        <ele>488.9677734</ele>
        <time>2009-05-31T10:49:34Z</time>
      </trkpt>
      <trkpt lat="43.86817" lon="7.228">
        <ele>490.40979</ele>
        <time>2009-05-31T10:49:42Z</time>
      </trkpt>
      <trkpt lat="43.86812" lon="7.22806">
        <ele>490.8903809</ele>
        <time>2009-05-31T10:49:50Z</time>
      </trkpt>
      <trkpt lat="43.86808" lon="7.22813">
        <ele>491.3709717</ele>
        <time>2009-05-31T10:49:58Z</time>
      </trkpt>
      <trkpt lat="43.86804" lon="7.22817">
        <ele>491.8516846</ele>
        <time>2009-05-31T10:50:05Z</time>
      </trkpt>
      <trkpt lat="43.86799" lon="7.2282">
        <ele>492.3323975</ele>
        <time>2009-05-31T10:50:11Z</time>
      </trkpt>
      <trkpt lat="43.86793" lon="7.22826">
        <ele>493.2935791</ele>
        <time>2009-05-31T10:50:19Z</time>
      </trkpt>
      <trkpt lat="43.86787" lon="7.22828">
        <ele>494.7355957</ele>
        <time>2009-05-31T10:50:28Z</time>
      </trkpt>
      <trkpt lat="43.86779" lon="7.22829">
        <ele>495.6968994</ele>
        <time>2009-05-31T10:50:37Z</time>
      </trkpt>
      <trkpt lat="43.86774" lon="7.22826">
        <ele>495.6968994</ele>
        <time>2009-05-31T10:50:45Z</time>
      </trkpt>
      <trkpt lat="43.86772" lon="7.22828">
        <ele>496.6583252</ele>
        <time>2009-05-31T10:50:54Z</time>
      </trkpt>
      <trkpt lat="43.86767" lon="7.22829">
        <ele>497.6196289</ele>
        <time>2009-05-31T10:51:01Z</time>
      </trkpt>
      <trkpt lat="43.86765" lon="7.22831">
        <ele>497.6196289</ele>
        <time>2009-05-31T10:51:10Z</time>
      </trkpt>
      <trkpt lat="43.86766" lon="7.22831">
        <ele>497.6196289</ele>
        <time>2009-05-31T10:51:19Z</time>
      </trkpt>
      <trkpt lat="43.86764" lon="7.22832">
        <ele>498.5809326</ele>
        <time>2009-05-31T10:51:21Z</time>
      </trkpt>
      <trkpt lat="43.86759" lon="7.22831">
        <ele>498.5809326</ele>
        <time>2009-05-31T10:51:26Z</time>
      </trkpt>
      <trkpt lat="43.86749" lon="7.22834">
        <ele>500.0229492</ele>
        <time>2009-05-31T10:51:34Z</time>
      </trkpt>
      <trkpt lat="43.86739" lon="7.22838">
        <ele>500.50354</ele>
        <time>2009-05-31T10:51:42Z</time>
      </trkpt>
      <trkpt lat="43.86729" lon="7.22845">
        <ele>500.9841309</ele>
        <time>2009-05-31T10:51:49Z</time>
      </trkpt>
      <trkpt lat="43.86719" lon="7.2285">
        <ele>504.348877</ele>
        <time>2009-05-31T10:51:57Z</time>
      </trkpt>
      <trkpt lat="43.8671" lon="7.2285">
        <ele>505.3101807</ele>
        <time>2009-05-31T10:52:05Z</time>
      </trkpt>
      <trkpt lat="43.867" lon="7.2284">
        <ele>505.7908936</ele>
        <time>2009-05-31T10:52:13Z</time>
      </trkpt>
      <trkpt lat="43.86689" lon="7.22832">
        <ele>505.3101807</ele>
        <time>2009-05-31T10:52:22Z</time>
      </trkpt>
      <trkpt lat="43.86676" lon="7.22831">
        <ele>506.2714844</ele>
        <time>2009-05-31T10:52:29Z</time>
      </trkpt>
      <trkpt lat="43.86662" lon="7.22835">
        <ele>505.7908936</ele>
        <time>2009-05-31T10:52:38Z</time>
      </trkpt>
      <trkpt lat="43.86653" lon="7.2284">
        <ele>507.2327881</ele>
        <time>2009-05-31T10:52:45Z</time>
      </trkpt>
      <trkpt lat="43.86642" lon="7.22848">
        <ele>508.6746826</ele>
        <time>2009-05-31T10:52:54Z</time>
      </trkpt>
      <trkpt lat="43.86634" lon="7.22856">
        <ele>510.1166992</ele>
        <time>2009-05-31T10:53:02Z</time>
      </trkpt>
      <trkpt lat="43.86631" lon="7.22859">
        <ele>511.5587158</ele>
        <time>2009-05-31T10:53:05Z</time>
      </trkpt>
      <trkpt lat="43.8662" lon="7.22868">
        <ele>513.0007324</ele>
        <time>2009-05-31T10:53:14Z</time>
      </trkpt>
      <trkpt lat="43.86617" lon="7.22877">
        <ele>513.9620361</ele>
        <time>2009-05-31T10:53:20Z</time>
      </trkpt>
      <trkpt lat="43.86618" lon="7.2288">
        <ele>514.442627</ele>
        <time>2009-05-31T10:53:27Z</time>
      </trkpt>
      <trkpt lat="43.86615" lon="7.22886">
        <ele>514.442627</ele>
        <time>2009-05-31T10:53:33Z</time>
      </trkpt>
      <trkpt lat="43.86615" lon="7.22894">
        <ele>515.8846436</ele>
        <time>2009-05-31T10:53:41Z</time>
      </trkpt>
      <trkpt lat="43.86616" lon="7.22896">
        <ele>516.8459473</ele>
        <time>2009-05-31T10:53:47Z</time>
      </trkpt>
      <trkpt lat="43.86616" lon="7.22892">
        <ele>518.2878418</ele>
        <time>2009-05-31T10:53:54Z</time>
      </trkpt>
      <trkpt lat="43.86617" lon="7.22891">
        <ele>519.2492676</ele>
        <time>2009-05-31T10:54:00Z</time>
      </trkpt>
      <trkpt lat="43.8662" lon="7.22884">
        <ele>520.2105713</ele>
        <time>2009-05-31T10:54:11Z</time>
      </trkpt>
      <trkpt lat="43.86624" lon="7.2288">
        <ele>521.1719971</ele>
        <time>2009-05-31T10:54:19Z</time>
      </trkpt>
      <trkpt lat="43.8663" lon="7.2288">
        <ele>522.6138916</ele>
        <time>2009-05-31T10:54:29Z</time>
      </trkpt>
      <trkpt lat="43.86635" lon="7.22881">
        <ele>523.0946045</ele>
        <time>2009-05-31T10:54:37Z</time>
      </trkpt>
      <trkpt lat="43.86641" lon="7.22881">
        <ele>524.0557861</ele>
        <time>2009-05-31T10:54:45Z</time>
      </trkpt>
      <trkpt lat="43.86647" lon="7.2288">
        <ele>525.4978027</ele>
        <time>2009-05-31T10:54:53Z</time>
      </trkpt>
      <trkpt lat="43.86655" lon="7.22885">
        <ele>525.9783936</ele>
        <time>2009-05-31T10:55:03Z</time>
      </trkpt>
      <trkpt lat="43.86659" lon="7.22888">
        <ele>526.9398193</ele>
        <time>2009-05-31T10:55:10Z</time>
      </trkpt>
      <trkpt lat="43.86666" lon="7.22891">
        <ele>527.901001</ele>
        <time>2009-05-31T10:55:20Z</time>
      </trkpt>
      <trkpt lat="43.86672" lon="7.22895">
        <ele>529.3431396</ele>
        <time>2009-05-31T10:55:29Z</time>
      </trkpt>
      <trkpt lat="43.86674" lon="7.22899">
        <ele>529.3431396</ele>
        <time>2009-05-31T10:55:37Z</time>
      </trkpt>
      <trkpt lat="43.86675" lon="7.22902">
        <ele>529.3431396</ele>
        <time>2009-05-31T10:55:42Z</time>
      </trkpt>
      <trkpt lat="43.86679" lon="7.2291">
        <ele>530.3044434</ele>
        <time>2009-05-31T10:55:51Z</time>
      </trkpt>
      <trkpt lat="43.86682" lon="7.22917">
        <ele>530.3044434</ele>
        <time>2009-05-31T10:55:57Z</time>
      </trkpt>
      <trkpt lat="43.86683" lon="7.22922">
        <ele>530.7851562</ele>
        <time>2009-05-31T10:56:03Z</time>
      </trkpt>
      <trkpt lat="43.86685" lon="7.22924">
        <ele>530.7851562</ele>
        <time>2009-05-31T10:56:11Z</time>
      </trkpt>
      <trkpt lat="43.86689" lon="7.2293">
        <ele>531.2657471</ele>
        <time>2009-05-31T10:56:19Z</time>
      </trkpt>
      <trkpt lat="43.86691" lon="7.22933">
        <ele>529.8237305</ele>
        <time>2009-05-31T10:56:26Z</time>
      </trkpt>
      <trkpt lat="43.86694" lon="7.22939">
        <ele>528.3818359</ele>
        <time>2009-05-31T10:56:29Z</time>
      </trkpt>
      <trkpt lat="43.86702" lon="7.22942">
        <ele>528.8625488</ele>
        <time>2009-05-31T10:56:33Z</time>
      </trkpt>
      <trkpt lat="43.86707" lon="7.22937">
        <ele>528.8625488</ele>
        <time>2009-05-31T10:56:40Z</time>
      </trkpt>
      <trkpt lat="43.86712" lon="7.22928">
        <ele>530.7851562</ele>
        <time>2009-05-31T10:56:50Z</time>
      </trkpt>
      <trkpt lat="43.86717" lon="7.2292">
        <ele>532.7077637</ele>
        <time>2009-05-31T10:56:59Z</time>
      </trkpt>
      <trkpt lat="43.86722" lon="7.22915">
        <ele>533.1883545</ele>
        <time>2009-05-31T10:57:07Z</time>
      </trkpt>
      <trkpt lat="43.86729" lon="7.22913">
        <ele>534.1496582</ele>
        <time>2009-05-31T10:57:16Z</time>
      </trkpt>
      <trkpt lat="43.86735" lon="7.22911">
        <ele>535.5915527</ele>
        <time>2009-05-31T10:57:24Z</time>
      </trkpt>
      <trkpt lat="43.86739" lon="7.22913">
        <ele>536.0723877</ele>
        <time>2009-05-31T10:57:31Z</time>
      </trkpt>
      <trkpt lat="43.86739" lon="7.22913">
        <ele>536.0723877</ele>
        <time>2009-05-31T10:57:41Z</time>
      </trkpt>
      <trkpt lat="43.86743" lon="7.22918">
        <ele>537.5142822</ele>
        <time>2009-05-31T10:57:51Z</time>
      </trkpt>
      <trkpt lat="43.86746" lon="7.22919">
        <ele>537.9949951</ele>
        <time>2009-05-31T10:57:56Z</time>
      </trkpt>
      <trkpt lat="43.86751" lon="7.22917">
        <ele>538.9562988</ele>
        <time>2009-05-31T10:58:03Z</time>
      </trkpt>
      <trkpt lat="43.86754" lon="7.22916">
        <ele>537.9949951</ele>
        <time>2009-05-31T10:58:09Z</time>
      </trkpt>
      <trkpt lat="43.86757" lon="7.22917">
        <ele>538.9562988</ele>
        <time>2009-05-31T10:58:17Z</time>
      </trkpt>
      <trkpt lat="43.86761" lon="7.22919">
        <ele>539.4368896</ele>
        <time>2009-05-31T10:58:29Z</time>
      </trkpt>
      <trkpt lat="43.86771" lon="7.22917">
        <ele>539.4368896</ele>
        <time>2009-05-31T10:58:37Z</time>
      </trkpt>
      <trkpt lat="43.86778" lon="7.22916">
        <ele>540.8789062</ele>
        <time>2009-05-31T10:58:42Z</time>
      </trkpt>
      <trkpt lat="43.86785" lon="7.22917">
        <ele>541.84021</ele>
        <time>2009-05-31T10:58:49Z</time>
      </trkpt>
      <trkpt lat="43.86788" lon="7.22918">
        <ele>542.3209229</ele>
        <time>2009-05-31T10:58:57Z</time>
      </trkpt>
      <trkpt lat="43.86789" lon="7.22921">
        <ele>542.8015137</ele>
        <time>2009-05-31T10:59:07Z</time>
      </trkpt>
      <trkpt lat="43.86792" lon="7.22921">
        <ele>543.2821045</ele>
        <time>2009-05-31T10:59:13Z</time>
      </trkpt>
      <trkpt lat="43.86797" lon="7.22923">
        <ele>544.7242432</ele>
        <time>2009-05-31T10:59:21Z</time>
      </trkpt>
      <trkpt lat="43.86802" lon="7.22925">
        <ele>546.1662598</ele>
        <time>2009-05-31T10:59:29Z</time>
      </trkpt>
      <trkpt lat="43.86806" lon="7.22925">
        <ele>547.1274414</ele>
        <time>2009-05-31T10:59:36Z</time>
      </trkpt>
      <trkpt lat="43.86811" lon="7.22926">
        <ele>547.6081543</ele>
        <time>2009-05-31T10:59:43Z</time>
      </trkpt>
      <trkpt lat="43.86816" lon="7.22927">
        <ele>548.0888672</ele>
        <time>2009-05-31T10:59:50Z</time>
      </trkpt>
      <trkpt lat="43.86822" lon="7.22926">
        <ele>548.5693359</ele>
        <time>2009-05-31T10:59:59Z</time>
      </trkpt>
      <trkpt lat="43.86825" lon="7.22925">
        <ele>549.0500488</ele>
        <time>2009-05-31T11:00:05Z</time>
      </trkpt>
      <trkpt lat="43.86831" lon="7.22923">
        <ele>550.0114746</ele>
        <time>2009-05-31T11:00:22Z</time>
      </trkpt>
      <trkpt lat="43.86833" lon="7.22924">
        <ele>550.4921875</ele>
        <time>2009-05-31T11:00:27Z</time>
      </trkpt>
      <trkpt lat="43.86838" lon="7.22921">
        <ele>550.4921875</ele>
        <time>2009-05-31T11:00:35Z</time>
      </trkpt>
      <trkpt lat="43.86843" lon="7.22917">
        <ele>550.9726562</ele>
        <time>2009-05-31T11:00:42Z</time>
      </trkpt>
      <trkpt lat="43.86845" lon="7.22916">
        <ele>550.9726562</ele>
        <time>2009-05-31T11:00:44Z</time>
      </trkpt>
      <trkpt lat="43.86852" lon="7.22913">
        <ele>551.4533691</ele>
        <time>2009-05-31T11:00:53Z</time>
      </trkpt>
      <trkpt lat="43.86858" lon="7.22914">
        <ele>552.4145508</ele>
        <time>2009-05-31T11:01:00Z</time>
      </trkpt>
      <trkpt lat="43.86862" lon="7.22913">
        <ele>553.8566895</ele>
        <time>2009-05-31T11:01:07Z</time>
      </trkpt>
      <trkpt lat="43.86867" lon="7.22914">
        <ele>553.8566895</ele>
        <time>2009-05-31T11:01:14Z</time>
      </trkpt>
      <trkpt lat="43.86872" lon="7.22918">
        <ele>554.3374023</ele>
        <time>2009-05-31T11:01:24Z</time>
      </trkpt>
      <trkpt lat="43.86877" lon="7.22921">
        <ele>555.298584</ele>
        <time>2009-05-31T11:01:32Z</time>
      </trkpt>
      <trkpt lat="43.86883" lon="7.22924">
        <ele>555.7792969</ele>
        <time>2009-05-31T11:01:41Z</time>
      </trkpt>
      <trkpt lat="43.86888" lon="7.22926">
        <ele>556.7407227</ele>
        <time>2009-05-31T11:01:49Z</time>
      </trkpt>
      <trkpt lat="43.86892" lon="7.22928">
        <ele>557.7021484</ele>
        <time>2009-05-31T11:01:56Z</time>
      </trkpt>
      <trkpt lat="43.86899" lon="7.22927">
        <ele>557.2214355</ele>
        <time>2009-05-31T11:02:03Z</time>
      </trkpt>
      <trkpt lat="43.86904" lon="7.22926">
        <ele>557.7021484</ele>
        <time>2009-05-31T11:02:11Z</time>
      </trkpt>
      <trkpt lat="43.86912" lon="7.22923">
        <ele>558.6633301</ele>
        <time>2009-05-31T11:02:21Z</time>
      </trkpt>
      <trkpt lat="43.86914" lon="7.22922">
        <ele>558.6633301</ele>
        <time>2009-05-31T11:02:28Z</time>
      </trkpt>
      <trkpt lat="43.86918" lon="7.22924">
        <ele>559.144043</ele>
        <time>2009-05-31T11:02:36Z</time>
      </trkpt>
      <trkpt lat="43.86923" lon="7.22928">
        <ele>561.0666504</ele>
        <time>2009-05-31T11:02:44Z</time>
      </trkpt>
      <trkpt lat="43.8693" lon="7.22924">
        <ele>561.5473633</ele>
        <time>2009-05-31T11:02:52Z</time>
      </trkpt>
      <trkpt lat="43.86935" lon="7.22918">
        <ele>562.9892578</ele>
        <time>2009-05-31T11:03:00Z</time>
      </trkpt>
      <trkpt lat="43.86939" lon="7.22912">
        <ele>563.9504395</ele>
        <time>2009-05-31T11:03:08Z</time>
      </trkpt>
      <trkpt lat="43.86944" lon="7.22905">
        <ele>565.3925781</ele>
        <time>2009-05-31T11:03:17Z</time>
      </trkpt>
      <trkpt lat="43.8695" lon="7.229">
        <ele>567.3151855</ele>
        <time>2009-05-31T11:03:26Z</time>
      </trkpt>
      <trkpt lat="43.86953" lon="7.229">
        <ele>566.3537598</ele>
        <time>2009-05-31T11:03:32Z</time>
      </trkpt>
      <trkpt lat="43.86953" lon="7.229">
        <ele>567.3151855</ele>
        <time>2009-05-31T11:03:33Z</time>
      </trkpt>
      <trkpt lat="43.86959" lon="7.22908">
        <ele>566.8344727</ele>
        <time>2009-05-31T11:03:40Z</time>
      </trkpt>
      <trkpt lat="43.86957" lon="7.22914">
        <ele>567.3151855</ele>
        <time>2009-05-31T11:03:44Z</time>
      </trkpt>
      <trkpt lat="43.86954" lon="7.22926">
        <ele>569.237793</ele>
        <time>2009-05-31T11:03:52Z</time>
      </trkpt>
      <trkpt lat="43.86954" lon="7.2293">
        <ele>569.237793</ele>
        <time>2009-05-31T11:03:58Z</time>
      </trkpt>
      <trkpt lat="43.86954" lon="7.22937">
        <ele>570.6796875</ele>
        <time>2009-05-31T11:04:05Z</time>
      </trkpt>
      <trkpt lat="43.86954" lon="7.22942">
        <ele>572.1218262</ele>
        <time>2009-05-31T11:04:12Z</time>
      </trkpt>
      <trkpt lat="43.86953" lon="7.22944">
        <ele>570.1989746</ele>
        <time>2009-05-31T11:04:19Z</time>
      </trkpt>
      <trkpt lat="43.86954" lon="7.22947">
        <ele>572.6025391</ele>
        <time>2009-05-31T11:04:29Z</time>
      </trkpt>
      <trkpt lat="43.86952" lon="7.22951">
        <ele>572.1218262</ele>
        <time>2009-05-31T11:04:33Z</time>
      </trkpt>
      <trkpt lat="43.86947" lon="7.2296">
        <ele>573.083252</ele>
        <time>2009-05-31T11:04:41Z</time>
      </trkpt>
      <trkpt lat="43.86945" lon="7.22963">
        <ele>573.083252</ele>
        <time>2009-05-31T11:04:49Z</time>
      </trkpt>
      <trkpt lat="43.86944" lon="7.22963">
        <ele>572.6025391</ele>
        <time>2009-05-31T11:04:50Z</time>
      </trkpt>
      <trkpt lat="43.86932" lon="7.22964">
        <ele>571.6408691</ele>
        <time>2009-05-31T11:04:57Z</time>
      </trkpt>
      <trkpt lat="43.86922" lon="7.22965">
        <ele>571.1604004</ele>
        <time>2009-05-31T11:05:01Z</time>
      </trkpt>
      <trkpt lat="43.8692" lon="7.22966">
        <ele>572.6025391</ele>
        <time>2009-05-31T11:05:03Z</time>
      </trkpt>
      <trkpt lat="43.86906" lon="7.22967">
        <ele>570.6796875</ele>
        <time>2009-05-31T11:05:09Z</time>
      </trkpt>
      <trkpt lat="43.869" lon="7.22966">
        <ele>571.6408691</ele>
        <time>2009-05-31T11:05:13Z</time>
      </trkpt>
      <trkpt lat="43.86891" lon="7.22966">
        <ele>571.6408691</ele>
        <time>2009-05-31T11:05:19Z</time>
      </trkpt>
      <trkpt lat="43.86885" lon="7.22965">
        <ele>572.1218262</ele>
        <time>2009-05-31T11:05:24Z</time>
      </trkpt>
      <trkpt lat="43.86878" lon="7.22967">
        <ele>572.6025391</ele>
        <time>2009-05-31T11:05:31Z</time>
      </trkpt>
      <trkpt lat="43.86876" lon="7.22968">
        <ele>573.083252</ele>
        <time>2009-05-31T11:05:32Z</time>
      </trkpt>
      <trkpt lat="43.86867" lon="7.2297">
        <ele>574.5251465</ele>
        <time>2009-05-31T11:05:40Z</time>
      </trkpt>
      <trkpt lat="43.86857" lon="7.22976">
        <ele>575.0058594</ele>
        <time>2009-05-31T11:05:48Z</time>
      </trkpt>
      <trkpt lat="43.86856" lon="7.22977">
        <ele>575.967041</ele>
        <time>2009-05-31T11:05:49Z</time>
      </trkpt>
      <trkpt lat="43.86847" lon="7.22979">
        <ele>575.4863281</ele>
        <time>2009-05-31T11:05:55Z</time>
      </trkpt>
      <trkpt lat="43.86842" lon="7.22983">
        <ele>575.4863281</ele>
        <time>2009-05-31T11:05:58Z</time>
      </trkpt>
      <trkpt lat="43.86836" lon="7.22984">
        <ele>575.967041</ele>
        <time>2009-05-31T11:06:02Z</time>
      </trkpt>
      <trkpt lat="43.86827" lon="7.22993">
        <ele>576.9284668</ele>
        <time>2009-05-31T11:06:10Z</time>
      </trkpt>
      <trkpt lat="43.86819" lon="7.22995">
        <ele>577.4091797</ele>
        <time>2009-05-31T11:06:16Z</time>
      </trkpt>
      <trkpt lat="43.86817" lon="7.22997">
        <ele>578.8510742</ele>
        <time>2009-05-31T11:06:18Z</time>
      </trkpt>
      <trkpt lat="43.86806" lon="7.22997">
        <ele>579.331543</ele>
        <time>2009-05-31T11:06:25Z</time>
      </trkpt>
      <trkpt lat="43.86797" lon="7.23">
        <ele>579.8122559</ele>
        <time>2009-05-31T11:06:32Z</time>
      </trkpt>
      <trkpt lat="43.8679" lon="7.23003">
        <ele>581.2543945</ele>
        <time>2009-05-31T11:06:37Z</time>
      </trkpt>
      <trkpt lat="43.86781" lon="7.2301">
        <ele>582.6962891</ele>
        <time>2009-05-31T11:06:45Z</time>
      </trkpt>
      <trkpt lat="43.8678" lon="7.23012">
        <ele>582.6962891</ele>
        <time>2009-05-31T11:06:49Z</time>
      </trkpt>
      <trkpt lat="43.86778" lon="7.23012">
        <ele>583.6574707</ele>
        <time>2009-05-31T11:06:57Z</time>
      </trkpt>
      <trkpt lat="43.86776" lon="7.23015">
        <ele>584.1381836</ele>
        <time>2009-05-31T11:07:12Z</time>
      </trkpt>
      <trkpt lat="43.86773" lon="7.2302">
        <ele>585.5800781</ele>
        <time>2009-05-31T11:07:20Z</time>
      </trkpt>
      <trkpt lat="43.86772" lon="7.23021">
        <ele>586.060791</ele>
        <time>2009-05-31T11:07:27Z</time>
      </trkpt>
      <trkpt lat="43.86769" lon="7.23026">
        <ele>585.0996094</ele>
        <time>2009-05-31T11:07:42Z</time>
      </trkpt>
      <trkpt lat="43.86767" lon="7.23028">
        <ele>584.6188965</ele>
        <time>2009-05-31T11:07:49Z</time>
      </trkpt>
      <trkpt lat="43.86764" lon="7.2303">
        <ele>586.060791</ele>
        <time>2009-05-31T11:07:56Z</time>
      </trkpt>
      <trkpt lat="43.86761" lon="7.23034">
        <ele>585.5800781</ele>
        <time>2009-05-31T11:08:06Z</time>
      </trkpt>
      <trkpt lat="43.8676" lon="7.23036">
        <ele>587.0219727</ele>
        <time>2009-05-31T11:08:09Z</time>
      </trkpt>
      <trkpt lat="43.86757" lon="7.23039">
        <ele>588.4643555</ele>
        <time>2009-05-31T11:08:16Z</time>
      </trkpt>
      <trkpt lat="43.86756" lon="7.2304">
        <ele>587.5026855</ele>
        <time>2009-05-31T11:08:34Z</time>
      </trkpt>
      <trkpt lat="43.86754" lon="7.23041">
        <ele>588.4643555</ele>
        <time>2009-05-31T11:09:02Z</time>
      </trkpt>
      <trkpt lat="43.86751" lon="7.23043">
        <ele>589.4255371</ele>
        <time>2009-05-31T11:09:07Z</time>
      </trkpt>
      <trkpt lat="43.86747" lon="7.23049">
        <ele>590.8674316</ele>
        <time>2009-05-31T11:09:15Z</time>
      </trkpt>
      <trkpt lat="43.86743" lon="7.23059">
        <ele>591.3481445</ele>
        <time>2009-05-31T11:09:25Z</time>
      </trkpt>
      <trkpt lat="43.86737" lon="7.23065">
        <ele>592.3095703</ele>
        <time>2009-05-31T11:09:34Z</time>
      </trkpt>
      <trkpt lat="43.86733" lon="7.23071">
        <ele>593.270752</ele>
        <time>2009-05-31T11:09:41Z</time>
      </trkpt>
      <trkpt lat="43.86729" lon="7.23075">
        <ele>593.270752</ele>
        <time>2009-05-31T11:09:49Z</time>
      </trkpt>
      <trkpt lat="43.86728" lon="7.23077">
        <ele>593.7514648</ele>
        <time>2009-05-31T11:09:58Z</time>
      </trkpt>
      <trkpt lat="43.86722" lon="7.2308">
        <ele>592.3095703</ele>
        <time>2009-05-31T11:10:02Z</time>
      </trkpt>
      <trkpt lat="43.86715" lon="7.23084">
        <ele>592.7902832</ele>
        <time>2009-05-31T11:10:06Z</time>
      </trkpt>
      <trkpt lat="43.86705" lon="7.23087">
        <ele>592.3095703</ele>
        <time>2009-05-31T11:10:11Z</time>
      </trkpt>
      <trkpt lat="43.86695" lon="7.23095">
        <ele>593.270752</ele>
        <time>2009-05-31T11:10:18Z</time>
      </trkpt>
      <trkpt lat="43.86691" lon="7.23096">
        <ele>593.270752</ele>
        <time>2009-05-31T11:10:21Z</time>
      </trkpt>
      <trkpt lat="43.86682" lon="7.23107">
        <ele>593.7514648</ele>
        <time>2009-05-31T11:10:28Z</time>
      </trkpt>
      <trkpt lat="43.86675" lon="7.2312">
        <ele>593.270752</ele>
        <time>2009-05-31T11:10:33Z</time>
      </trkpt>
      <trkpt lat="43.86668" lon="7.23138">
        <ele>592.3095703</ele>
        <time>2009-05-31T11:10:38Z</time>
      </trkpt>
      <trkpt lat="43.86663" lon="7.23151">
        <ele>592.7902832</ele>
        <time>2009-05-31T11:10:44Z</time>
      </trkpt>
      <trkpt lat="43.86658" lon="7.2316">
        <ele>593.270752</ele>
        <time>2009-05-31T11:10:49Z</time>
      </trkpt>
      <trkpt lat="43.86652" lon="7.23169">
        <ele>592.7902832</ele>
        <time>2009-05-31T11:10:54Z</time>
      </trkpt>
      <trkpt lat="43.86646" lon="7.23183">
        <ele>592.7902832</ele>
        <time>2009-05-31T11:10:58Z</time>
      </trkpt>
      <trkpt lat="43.86637" lon="7.23195">
        <ele>592.7902832</ele>
        <time>2009-05-31T11:11:04Z</time>
      </trkpt>
      <trkpt lat="43.86629" lon="7.23207">
        <ele>593.270752</ele>
        <time>2009-05-31T11:11:09Z</time>
      </trkpt>
      <trkpt lat="43.86624" lon="7.23216">
        <ele>595.1933594</ele>
        <time>2009-05-31T11:11:13Z</time>
      </trkpt>
      <trkpt lat="43.86618" lon="7.23217">
        <ele>594.2321777</ele>
        <time>2009-05-31T11:11:17Z</time>
      </trkpt>
      <trkpt lat="43.86613" lon="7.23217">
        <ele>593.7514648</ele>
        <time>2009-05-31T11:11:19Z</time>
      </trkpt>
      <trkpt lat="43.86609" lon="7.23215">
        <ele>592.7902832</ele>
        <time>2009-05-31T11:11:21Z</time>
      </trkpt>
      <trkpt lat="43.86609" lon="7.23215">
        <ele>595.6740723</ele>
        <time>2009-05-31T11:11:22Z</time>
      </trkpt>
      <trkpt lat="43.86608" lon="7.23212">
        <ele>594.2321777</ele>
        <time>2009-05-31T11:11:30Z</time>
      </trkpt>
      <trkpt lat="43.86603" lon="7.23212">
        <ele>596.1547852</ele>
        <time>2009-05-31T11:11:37Z</time>
      </trkpt>
      <trkpt lat="43.866" lon="7.23211">
        <ele>596.1547852</ele>
        <time>2009-05-31T11:11:41Z</time>
      </trkpt>
      <trkpt lat="43.86593" lon="7.23213">
        <ele>596.635498</ele>
        <time>2009-05-31T11:11:49Z</time>
      </trkpt>
      <trkpt lat="43.86586" lon="7.23211">
        <ele>598.0773926</ele>
        <time>2009-05-31T11:11:59Z</time>
      </trkpt>
      <trkpt lat="43.86582" lon="7.23214">
        <ele>597.1159668</ele>
        <time>2009-05-31T11:12:07Z</time>
      </trkpt>
      <trkpt lat="43.8658" lon="7.23215">
        <ele>599.0385742</ele>
        <time>2009-05-31T11:12:10Z</time>
      </trkpt>
      <trkpt lat="43.86576" lon="7.23216">
        <ele>598.5578613</ele>
        <time>2009-05-31T11:12:17Z</time>
      </trkpt>
      <trkpt lat="43.86573" lon="7.23216">
        <ele>601.9226074</ele>
        <time>2009-05-31T11:12:21Z</time>
      </trkpt>
      <trkpt lat="43.86569" lon="7.23216">
        <ele>602.8837891</ele>
        <time>2009-05-31T11:12:30Z</time>
      </trkpt>
      <trkpt lat="43.86566" lon="7.23218">
        <ele>603.8452148</ele>
        <time>2009-05-31T11:12:36Z</time>
      </trkpt>
      <trkpt lat="43.86564" lon="7.2322">
        <ele>602.4030762</ele>
        <time>2009-05-31T11:12:50Z</time>
      </trkpt>
      <trkpt lat="43.86556" lon="7.23221">
        <ele>603.8452148</ele>
        <time>2009-05-31T11:13:02Z</time>
      </trkpt>
      <trkpt lat="43.86552" lon="7.23221">
        <ele>607.2099609</ele>
        <time>2009-05-31T11:13:11Z</time>
      </trkpt>
      <trkpt lat="43.86549" lon="7.23222">
        <ele>608.6518555</ele>
        <time>2009-05-31T11:13:18Z</time>
      </trkpt>
      <trkpt lat="43.86546" lon="7.23224">
        <ele>609.1325684</ele>
        <time>2009-05-31T11:13:26Z</time>
      </trkpt>
      <trkpt lat="43.86546" lon="7.23227">
        <ele>609.1325684</ele>
        <time>2009-05-31T11:13:39Z</time>
      </trkpt>
      <trkpt lat="43.86545" lon="7.23229">
        <ele>609.6132812</ele>
        <time>2009-05-31T11:14:08Z</time>
      </trkpt>
      <trkpt lat="43.86546" lon="7.23228">
        <ele>609.1325684</ele>
        <time>2009-05-31T11:14:22Z</time>
      </trkpt>
      <trkpt lat="43.86543" lon="7.23231">
        <ele>607.2099609</ele>
        <time>2009-05-31T11:15:22Z</time>
      </trkpt>
      <trkpt lat="43.86544" lon="7.23231">
        <ele>608.1713867</ele>
        <time>2009-05-31T11:15:42Z</time>
      </trkpt>
      <trkpt lat="43.86544" lon="7.23231">
        <ele>609.1325684</ele>
        <time>2009-05-31T11:16:13Z</time>
      </trkpt>
      <trkpt lat="43.86538" lon="7.23227">
        <ele>609.6132812</ele>
        <time>2009-05-31T11:16:35Z</time>
      </trkpt>
      <trkpt lat="43.86545" lon="7.23237">
        <ele>608.1713867</ele>
        <time>2009-05-31T11:17:58Z</time>
      </trkpt>
      <trkpt lat="43.86546" lon="7.23237">
        <ele>607.6906738</ele>
        <time>2009-05-31T11:18:39Z</time>
      </trkpt>
      <trkpt lat="43.86544" lon="7.23236">
        <ele>609.6132812</ele>
        <time>2009-05-31T11:19:00Z</time>
      </trkpt>
      <trkpt lat="43.86539" lon="7.23233">
        <ele>608.1713867</ele>
        <time>2009-05-31T11:20:01Z</time>
      </trkpt>
      <trkpt lat="43.86541" lon="7.23233">
        <ele>608.1713867</ele>
        <time>2009-05-31T11:20:52Z</time>
      </trkpt>
      <trkpt lat="43.86543" lon="7.23234">
        <ele>608.1713867</ele>
        <time>2009-05-31T11:21:43Z</time>
      </trkpt>
      <trkpt lat="43.86542" lon="7.23233">
        <ele>609.1325684</ele>
        <time>2009-05-31T11:21:58Z</time>
      </trkpt>
      <trkpt lat="43.8654" lon="7.23232">
        <ele>607.6906738</ele>
        <time>2009-05-31T11:22:08Z</time>
      </trkpt>
      <trkpt lat="43.86543" lon="7.23231">
        <ele>606.729248</ele>
        <time>2009-05-31T11:22:33Z</time>
      </trkpt>
      <trkpt lat="43.86548" lon="7.23233">
        <ele>607.2099609</ele>
        <time>2009-05-31T11:23:01Z</time>
      </trkpt>
      <trkpt lat="43.86555" lon="7.23237">
        <ele>608.6518555</ele>
        <time>2009-05-31T11:23:11Z</time>
      </trkpt>
      <trkpt lat="43.86558" lon="7.23242">
        <ele>610.09375</ele>
        <time>2009-05-31T11:23:18Z</time>
      </trkpt>
      <trkpt lat="43.86564" lon="7.23246">
        <ele>612.0166016</ele>
        <time>2009-05-31T11:23:28Z</time>
      </trkpt>
      <trkpt lat="43.86565" lon="7.23247">
        <ele>613.9389648</ele>
        <time>2009-05-31T11:23:30Z</time>
      </trkpt>
      <trkpt lat="43.86569" lon="7.2325">
        <ele>614.4196777</ele>
        <time>2009-05-31T11:23:37Z</time>
      </trkpt>
      <trkpt lat="43.86568" lon="7.23252">
        <ele>614.4196777</ele>
        <time>2009-05-31T11:23:45Z</time>
      </trkpt>
      <trkpt lat="43.86568" lon="7.23257">
        <ele>615.3811035</ele>
        <time>2009-05-31T11:23:53Z</time>
      </trkpt>
      <trkpt lat="43.86569" lon="7.23263">
        <ele>615.3811035</ele>
        <time>2009-05-31T11:24:03Z</time>
      </trkpt>
      <trkpt lat="43.8657" lon="7.23266">
        <ele>616.3422852</ele>
        <time>2009-05-31T11:24:10Z</time>
      </trkpt>
      <trkpt lat="43.86571" lon="7.23265">
        <ele>615.8618164</ele>
        <time>2009-05-31T11:24:20Z</time>
      </trkpt>
      <trkpt lat="43.86571" lon="7.23265">
        <ele>617.3037109</ele>
        <time>2009-05-31T11:24:22Z</time>
      </trkpt>
      <trkpt lat="43.86569" lon="7.23272">
        <ele>617.3037109</ele>
        <time>2009-05-31T11:24:38Z</time>
      </trkpt>
      <trkpt lat="43.8657" lon="7.23275">
        <ele>616.822998</ele>
        <time>2009-05-31T11:25:13Z</time>
      </trkpt>
      <trkpt lat="43.86573" lon="7.23278">
        <ele>618.7456055</ele>
        <time>2009-05-31T11:25:22Z</time>
      </trkpt>
      <trkpt lat="43.86576" lon="7.23279">
        <ele>620.668457</ele>
        <time>2009-05-31T11:25:29Z</time>
      </trkpt>
      <trkpt lat="43.86581" lon="7.23282">
        <ele>622.5910645</ele>
        <time>2009-05-31T11:25:38Z</time>
      </trkpt>
      <trkpt lat="43.86585" lon="7.23284">
        <ele>622.5910645</ele>
        <time>2009-05-31T11:25:46Z</time>
      </trkpt>
      <trkpt lat="43.86588" lon="7.23286">
        <ele>624.032959</ele>
        <time>2009-05-31T11:25:54Z</time>
      </trkpt>
      <trkpt lat="43.86592" lon="7.23288">
        <ele>624.5136719</ele>
        <time>2009-05-31T11:26:02Z</time>
      </trkpt>
      <trkpt lat="43.86597" lon="7.2329">
        <ele>625.9555664</ele>
        <time>2009-05-31T11:26:12Z</time>
      </trkpt>
      <trkpt lat="43.86601" lon="7.23293">
        <ele>627.3977051</ele>
        <time>2009-05-31T11:26:21Z</time>
      </trkpt>
      <trkpt lat="43.86603" lon="7.23297">
        <ele>627.8781738</ele>
        <time>2009-05-31T11:26:30Z</time>
      </trkpt>
      <trkpt lat="43.86605" lon="7.23298">
        <ele>627.8781738</ele>
        <time>2009-05-31T11:26:38Z</time>
      </trkpt>
      <trkpt lat="43.86607" lon="7.23301">
        <ele>628.3588867</ele>
        <time>2009-05-31T11:26:46Z</time>
      </trkpt>
      <trkpt lat="43.86609" lon="7.23302">
        <ele>629.8007812</ele>
        <time>2009-05-31T11:26:52Z</time>
      </trkpt>
      <trkpt lat="43.86613" lon="7.23303">
        <ele>630.2814941</ele>
        <time>2009-05-31T11:26:59Z</time>
      </trkpt>
      <trkpt lat="43.86617" lon="7.23302">
        <ele>631.7233887</ele>
        <time>2009-05-31T11:27:08Z</time>
      </trkpt>
      <trkpt lat="43.86617" lon="7.23304">
        <ele>633.1652832</ele>
        <time>2009-05-31T11:27:15Z</time>
      </trkpt>
      <trkpt lat="43.86613" lon="7.23306">
        <ele>633.1652832</ele>
        <time>2009-05-31T11:27:24Z</time>
      </trkpt>
      <trkpt lat="43.86613" lon="7.2331">
        <ele>633.6459961</ele>
        <time>2009-05-31T11:27:32Z</time>
      </trkpt>
      <trkpt lat="43.86616" lon="7.23313">
        <ele>634.126709</ele>
        <time>2009-05-31T11:27:40Z</time>
      </trkpt>
      <trkpt lat="43.86619" lon="7.23313">
        <ele>635.5686035</ele>
        <time>2009-05-31T11:27:49Z</time>
      </trkpt>
      <trkpt lat="43.86621" lon="7.23314">
        <ele>636.5302734</ele>
        <time>2009-05-31T11:27:52Z</time>
      </trkpt>
      <trkpt lat="43.86625" lon="7.23317">
        <ele>637.4914551</ele>
        <time>2009-05-31T11:28:01Z</time>
      </trkpt>
      <trkpt lat="43.86631" lon="7.23316">
        <ele>638.9335938</ele>
        <time>2009-05-31T11:28:11Z</time>
      </trkpt>
      <trkpt lat="43.86638" lon="7.23314">
        <ele>638.4528809</ele>
        <time>2009-05-31T11:28:20Z</time>
      </trkpt>
      <trkpt lat="43.86647" lon="7.23311">
        <ele>639.4140625</ele>
        <time>2009-05-31T11:28:30Z</time>
      </trkpt>
      <trkpt lat="43.86654" lon="7.2331">
        <ele>640.3754883</ele>
        <time>2009-05-31T11:28:39Z</time>
      </trkpt>
      <trkpt lat="43.86661" lon="7.2331">
        <ele>642.2980957</ele>
        <time>2009-05-31T11:28:50Z</time>
      </trkpt>
      <trkpt lat="43.86668" lon="7.23305">
        <ele>642.2980957</ele>
        <time>2009-05-31T11:29:02Z</time>
      </trkpt>
      <trkpt lat="43.86674" lon="7.23302">
        <ele>644.2207031</ele>
        <time>2009-05-31T11:29:12Z</time>
      </trkpt>
      <trkpt lat="43.86679" lon="7.233">
        <ele>647.1044922</ele>
        <time>2009-05-31T11:29:21Z</time>
      </trkpt>
      <trkpt lat="43.86684" lon="7.23298">
        <ele>648.5463867</ele>
        <time>2009-05-31T11:29:30Z</time>
      </trkpt>
      <trkpt lat="43.86687" lon="7.23296">
        <ele>648.5463867</ele>
        <time>2009-05-31T11:29:38Z</time>
      </trkpt>
      <trkpt lat="43.8669" lon="7.23295">
        <ele>651.4304199</ele>
        <time>2009-05-31T11:29:44Z</time>
      </trkpt>
      <trkpt lat="43.86694" lon="7.23293">
        <ele>652.3918457</ele>
        <time>2009-05-31T11:29:53Z</time>
      </trkpt>
      <trkpt lat="43.86699" lon="7.23289">
        <ele>654.3146973</ele>
        <time>2009-05-31T11:30:02Z</time>
      </trkpt>
      <trkpt lat="43.86703" lon="7.23287">
        <ele>654.795166</ele>
        <time>2009-05-31T11:30:10Z</time>
      </trkpt>
      <trkpt lat="43.86709" lon="7.23286">
        <ele>656.2370605</ele>
        <time>2009-05-31T11:30:21Z</time>
      </trkpt>
      <trkpt lat="43.86715" lon="7.23284">
        <ele>657.6791992</ele>
        <time>2009-05-31T11:30:31Z</time>
      </trkpt>
      <trkpt lat="43.86721" lon="7.23282">
        <ele>658.6403809</ele>
        <time>2009-05-31T11:30:41Z</time>
      </trkpt>
      <trkpt lat="43.86726" lon="7.23281">
        <ele>661.0437012</ele>
        <time>2009-05-31T11:30:50Z</time>
      </trkpt>
      <trkpt lat="43.8673" lon="7.23281">
        <ele>662.005127</ele>
        <time>2009-05-31T11:30:58Z</time>
      </trkpt>
      <trkpt lat="43.86734" lon="7.23277">
        <ele>663.4470215</ele>
        <time>2009-05-31T11:31:06Z</time>
      </trkpt>
      <trkpt lat="43.86741" lon="7.23274">
        <ele>663.9274902</ele>
        <time>2009-05-31T11:31:16Z</time>
      </trkpt>
      <trkpt lat="43.86746" lon="7.23275">
        <ele>666.3308105</ele>
        <time>2009-05-31T11:31:23Z</time>
      </trkpt>
      <trkpt lat="43.86746" lon="7.23279">
        <ele>667.2922363</ele>
        <time>2009-05-31T11:31:32Z</time>
      </trkpt>
      <trkpt lat="43.86744" lon="7.23282">
        <ele>666.8115234</ele>
        <time>2009-05-31T11:31:38Z</time>
      </trkpt>
      <trkpt lat="43.86744" lon="7.23282">
        <ele>666.8115234</ele>
        <time>2009-05-31T11:31:43Z</time>
      </trkpt>
      <trkpt lat="43.86741" lon="7.23283">
        <ele>667.2922363</ele>
        <time>2009-05-31T11:32:06Z</time>
      </trkpt>
      <trkpt lat="43.8673" lon="7.23293">
        <ele>666.8115234</ele>
        <time>2009-05-31T11:32:13Z</time>
      </trkpt>
      <trkpt lat="43.86715" lon="7.23308">
        <ele>665.3696289</ele>
        <time>2009-05-31T11:32:21Z</time>
      </trkpt>
      <trkpt lat="43.86706" lon="7.23318">
        <ele>665.8503418</ele>
        <time>2009-05-31T11:32:26Z</time>
      </trkpt>
      <trkpt lat="43.86694" lon="7.23334">
        <ele>664.888916</ele>
        <time>2009-05-31T11:32:34Z</time>
      </trkpt>
      <trkpt lat="43.86683" lon="7.23347">
        <ele>664.4082031</ele>
        <time>2009-05-31T11:32:40Z</time>
      </trkpt>
      <trkpt lat="43.86676" lon="7.23354">
        <ele>665.8503418</ele>
        <time>2009-05-31T11:32:43Z</time>
      </trkpt>
      <trkpt lat="43.8666" lon="7.23366">
        <ele>665.3696289</ele>
        <time>2009-05-31T11:32:50Z</time>
      </trkpt>
      <trkpt lat="43.86642" lon="7.23374">
        <ele>664.4082031</ele>
        <time>2009-05-31T11:32:57Z</time>
      </trkpt>
      <trkpt lat="43.8663" lon="7.23375">
        <ele>664.888916</ele>
        <time>2009-05-31T11:33:02Z</time>
      </trkpt>
      <trkpt lat="43.86607" lon="7.23377">
        <ele>665.3696289</ele>
        <time>2009-05-31T11:33:09Z</time>
      </trkpt>
      <trkpt lat="43.86585" lon="7.23378">
        <ele>663.9274902</ele>
        <time>2009-05-31T11:33:16Z</time>
      </trkpt>
      <trkpt lat="43.86566" lon="7.23385">
        <ele>664.888916</ele>
        <time>2009-05-31T11:33:22Z</time>
      </trkpt>
      <trkpt lat="43.86548" lon="7.23399">
        <ele>664.888916</ele>
        <time>2009-05-31T11:33:29Z</time>
      </trkpt>
      <trkpt lat="43.86534" lon="7.23414">
        <ele>663.9274902</ele>
        <time>2009-05-31T11:33:35Z</time>
      </trkpt>
      <trkpt lat="43.86515" lon="7.23441">
        <ele>663.4470215</ele>
        <time>2009-05-31T11:33:43Z</time>
      </trkpt>
      <trkpt lat="43.865" lon="7.23466">
        <ele>662.9663086</ele>
        <time>2009-05-31T11:33:50Z</time>
      </trkpt>
      <trkpt lat="43.86488" lon="7.23492">
        <ele>663.9274902</ele>
        <time>2009-05-31T11:33:57Z</time>
      </trkpt>
      <trkpt lat="43.8648" lon="7.23519">
        <ele>662.4855957</ele>
        <time>2009-05-31T11:34:03Z</time>
      </trkpt>
      <trkpt lat="43.86478" lon="7.23543">
        <ele>662.4855957</ele>
        <time>2009-05-31T11:34:08Z</time>
      </trkpt>
      <trkpt lat="43.86478" lon="7.23563">
        <ele>662.9663086</ele>
        <time>2009-05-31T11:34:13Z</time>
      </trkpt>
      <trkpt lat="43.86473" lon="7.23589">
        <ele>662.005127</ele>
        <time>2009-05-31T11:34:19Z</time>
      </trkpt>
      <trkpt lat="43.86466" lon="7.23604">
        <ele>662.4855957</ele>
        <time>2009-05-31T11:34:23Z</time>
      </trkpt>
      <trkpt lat="43.86457" lon="7.23621">
        <ele>661.5244141</ele>
        <time>2009-05-31T11:34:28Z</time>
      </trkpt>
      <trkpt lat="43.86441" lon="7.23653">
        <ele>660.5629883</ele>
        <time>2009-05-31T11:34:36Z</time>
      </trkpt>
      <trkpt lat="43.86425" lon="7.23682">
        <ele>661.0437012</ele>
        <time>2009-05-31T11:34:44Z</time>
      </trkpt>
      <trkpt lat="43.86409" lon="7.23712">
        <ele>661.0437012</ele>
        <time>2009-05-31T11:34:53Z</time>
      </trkpt>
      <trkpt lat="43.86402" lon="7.23733">
        <ele>660.5629883</ele>
        <time>2009-05-31T11:34:58Z</time>
      </trkpt>
      <trkpt lat="43.86393" lon="7.2376">
        <ele>660.5629883</ele>
        <time>2009-05-31T11:35:04Z</time>
      </trkpt>
      <trkpt lat="43.8638" lon="7.23766">
        <ele>660.0822754</ele>
        <time>2009-05-31T11:35:08Z</time>
      </trkpt>
      <trkpt lat="43.86362" lon="7.23754">
        <ele>659.6018066</ele>
        <time>2009-05-31T11:35:14Z</time>
      </trkpt>
      <trkpt lat="43.86354" lon="7.23741">
        <ele>660.5629883</ele>
        <time>2009-05-31T11:35:19Z</time>
      </trkpt>
      <trkpt lat="43.86349" lon="7.23731">
        <ele>659.6018066</ele>
        <time>2009-05-31T11:35:22Z</time>
      </trkpt>
      <trkpt lat="43.86338" lon="7.23722">
        <ele>660.5629883</ele>
        <time>2009-05-31T11:35:26Z</time>
      </trkpt>
      <trkpt lat="43.86323" lon="7.23723">
        <ele>660.0822754</ele>
        <time>2009-05-31T11:35:30Z</time>
      </trkpt>
      <trkpt lat="43.86292" lon="7.23741">
        <ele>659.1210938</ele>
        <time>2009-05-31T11:35:39Z</time>
      </trkpt>
      <trkpt lat="43.8627" lon="7.23757">
        <ele>659.1210938</ele>
        <time>2009-05-31T11:35:46Z</time>
      </trkpt>
      <trkpt lat="43.8625" lon="7.23767">
        <ele>659.6018066</ele>
        <time>2009-05-31T11:35:52Z</time>
      </trkpt>
      <trkpt lat="43.86224" lon="7.23779">
        <ele>659.1210938</ele>
        <time>2009-05-31T11:35:59Z</time>
      </trkpt>
      <trkpt lat="43.862" lon="7.23788">
        <ele>659.1210938</ele>
        <time>2009-05-31T11:36:06Z</time>
      </trkpt>
      <trkpt lat="43.86178" lon="7.23795">
        <ele>659.6018066</ele>
        <time>2009-05-31T11:36:13Z</time>
      </trkpt>
      <trkpt lat="43.86173" lon="7.23794">
        <ele>660.0822754</ele>
        <time>2009-05-31T11:36:15Z</time>
      </trkpt>
      <trkpt lat="43.86165" lon="7.23775">
        <ele>659.1210938</ele>
        <time>2009-05-31T11:36:21Z</time>
      </trkpt>
      <trkpt lat="43.86166" lon="7.23768">
        <ele>658.6403809</ele>
        <time>2009-05-31T11:36:23Z</time>
      </trkpt>
      <trkpt lat="43.86169" lon="7.23734">
        <ele>658.6403809</ele>
        <time>2009-05-31T11:36:31Z</time>
      </trkpt>
      <trkpt lat="43.86172" lon="7.23707">
        <ele>658.6403809</ele>
        <time>2009-05-31T11:36:38Z</time>
      </trkpt>
      <trkpt lat="43.8617" lon="7.23682">
        <ele>657.1984863</ele>
        <time>2009-05-31T11:36:44Z</time>
      </trkpt>
      <trkpt lat="43.86169" lon="7.23678">
        <ele>658.6403809</ele>
        <time>2009-05-31T11:36:47Z</time>
      </trkpt>
      <trkpt lat="43.86167" lon="7.23675">
        <ele>660.5629883</ele>
        <time>2009-05-31T11:36:51Z</time>
      </trkpt>
      <trkpt lat="43.86163" lon="7.23671">
        <ele>662.005127</ele>
        <time>2009-05-31T11:36:59Z</time>
      </trkpt>
      <trkpt lat="43.86159" lon="7.23665">
        <ele>663.4470215</ele>
        <time>2009-05-31T11:37:06Z</time>
      </trkpt>
      <trkpt lat="43.86154" lon="7.23662">
        <ele>665.8503418</ele>
        <time>2009-05-31T11:37:12Z</time>
      </trkpt>
      <trkpt lat="43.86153" lon="7.23662">
        <ele>665.8503418</ele>
        <time>2009-05-31T11:37:13Z</time>
      </trkpt>
      <trkpt lat="43.86148" lon="7.23664">
        <ele>666.3308105</ele>
        <time>2009-05-31T11:37:22Z</time>
      </trkpt>
      <trkpt lat="43.86147" lon="7.23666">
        <ele>665.3696289</ele>
        <time>2009-05-31T11:37:30Z</time>
      </trkpt>
      <trkpt lat="43.86147" lon="7.23672">
        <ele>666.8115234</ele>
        <time>2009-05-31T11:37:34Z</time>
      </trkpt>
      <trkpt lat="43.86151" lon="7.23682">
        <ele>667.7727051</ele>
        <time>2009-05-31T11:37:42Z</time>
      </trkpt>
      <trkpt lat="43.86154" lon="7.23698">
        <ele>667.2922363</ele>
        <time>2009-05-31T11:37:50Z</time>
      </trkpt>
      <trkpt lat="43.86153" lon="7.23711">
        <ele>668.2536621</ele>
        <time>2009-05-31T11:37:56Z</time>
      </trkpt>
      <trkpt lat="43.86151" lon="7.23732">
        <ele>667.2922363</ele>
        <time>2009-05-31T11:38:03Z</time>
      </trkpt>
      <trkpt lat="43.86145" lon="7.23759">
        <ele>669.2150879</ele>
        <time>2009-05-31T11:38:12Z</time>
      </trkpt>
      <trkpt lat="43.86143" lon="7.23769">
        <ele>670.1762695</ele>
        <time>2009-05-31T11:38:16Z</time>
      </trkpt>
      <trkpt lat="43.86141" lon="7.23778">
        <ele>669.6958008</ele>
        <time>2009-05-31T11:38:20Z</time>
      </trkpt>
      <trkpt lat="43.86135" lon="7.23799">
        <ele>671.1376953</ele>
        <time>2009-05-31T11:38:29Z</time>
      </trkpt>
      <trkpt lat="43.86128" lon="7.2382">
        <ele>671.1376953</ele>
        <time>2009-05-31T11:38:38Z</time>
      </trkpt>
      <trkpt lat="43.86123" lon="7.23838">
        <ele>673.0603027</ele>
        <time>2009-05-31T11:38:46Z</time>
      </trkpt>
      <trkpt lat="43.86124" lon="7.23855">
        <ele>674.9829102</ele>
        <time>2009-05-31T11:38:54Z</time>
      </trkpt>
      <trkpt lat="43.86128" lon="7.2387">
        <ele>676.9055176</ele>
        <time>2009-05-31T11:39:02Z</time>
      </trkpt>
      <trkpt lat="43.8613" lon="7.23884">
        <ele>677.8666992</ele>
        <time>2009-05-31T11:39:10Z</time>
      </trkpt>
      <trkpt lat="43.86132" lon="7.23904">
        <ele>680.2700195</ele>
        <time>2009-05-31T11:39:21Z</time>
      </trkpt>
      <trkpt lat="43.8613" lon="7.23918">
        <ele>683.1538086</ele>
        <time>2009-05-31T11:39:30Z</time>
      </trkpt>
      <trkpt lat="43.86129" lon="7.23931">
        <ele>683.1538086</ele>
        <time>2009-05-31T11:39:38Z</time>
      </trkpt>
      <trkpt lat="43.86132" lon="7.23942">
        <ele>685.0769043</ele>
        <time>2009-05-31T11:39:46Z</time>
      </trkpt>
      <trkpt lat="43.86132" lon="7.23945">
        <ele>686.0380859</ele>
        <time>2009-05-31T11:39:48Z</time>
      </trkpt>
      <trkpt lat="43.86135" lon="7.23959">
        <ele>686.5187988</ele>
        <time>2009-05-31T11:39:56Z</time>
      </trkpt>
      <trkpt lat="43.8614" lon="7.23974">
        <ele>687.4799805</ele>
        <time>2009-05-31T11:40:04Z</time>
      </trkpt>
      <trkpt lat="43.8614" lon="7.23988">
        <ele>686.9992676</ele>
        <time>2009-05-31T11:40:11Z</time>
      </trkpt>
      <trkpt lat="43.86139" lon="7.23996">
        <ele>688.4414062</ele>
        <time>2009-05-31T11:40:15Z</time>
      </trkpt>
      <trkpt lat="43.86134" lon="7.24009">
        <ele>688.9221191</ele>
        <time>2009-05-31T11:40:22Z</time>
      </trkpt>
      <trkpt lat="43.86133" lon="7.24028">
        <ele>687.4799805</ele>
        <time>2009-05-31T11:40:27Z</time>
      </trkpt>
      <trkpt lat="43.86136" lon="7.24037">
        <ele>686.5187988</ele>
        <time>2009-05-31T11:40:29Z</time>
      </trkpt>
      <trkpt lat="43.8615" lon="7.24069">
        <ele>685.557373</ele>
        <time>2009-05-31T11:40:36Z</time>
      </trkpt>
      <trkpt lat="43.86156" lon="7.24068">
        <ele>684.5961914</ele>
        <time>2009-05-31T11:40:40Z</time>
      </trkpt>
      <trkpt lat="43.86157" lon="7.24066">
        <ele>685.557373</ele>
        <time>2009-05-31T11:40:41Z</time>
      </trkpt>
      <trkpt lat="43.86173" lon="7.24041">
        <ele>685.557373</ele>
        <time>2009-05-31T11:40:50Z</time>
      </trkpt>
      <trkpt lat="43.86189" lon="7.24014">
        <ele>686.0380859</ele>
        <time>2009-05-31T11:40:57Z</time>
      </trkpt>
      <trkpt lat="43.86196" lon="7.23993">
        <ele>687.4799805</ele>
        <time>2009-05-31T11:41:02Z</time>
      </trkpt>
      <trkpt lat="43.86194" lon="7.23971">
        <ele>686.9992676</ele>
        <time>2009-05-31T11:41:07Z</time>
      </trkpt>
      <trkpt lat="43.86201" lon="7.23955">
        <ele>686.9992676</ele>
        <time>2009-05-31T11:41:11Z</time>
      </trkpt>
      <trkpt lat="43.86215" lon="7.23934">
        <ele>686.9992676</ele>
        <time>2009-05-31T11:41:18Z</time>
      </trkpt>
      <trkpt lat="43.86221" lon="7.23911">
        <ele>686.9992676</ele>
        <time>2009-05-31T11:41:25Z</time>
      </trkpt>
      <trkpt lat="43.86238" lon="7.23889">
        <ele>686.9992676</ele>
        <time>2009-05-31T11:41:32Z</time>
      </trkpt>
      <trkpt lat="43.86255" lon="7.23871">
        <ele>688.9221191</ele>
        <time>2009-05-31T11:41:40Z</time>
      </trkpt>
      <trkpt lat="43.8627" lon="7.2386">
        <ele>691.8059082</ele>
        <time>2009-05-31T11:41:47Z</time>
      </trkpt>
      <trkpt lat="43.86289" lon="7.23847">
        <ele>692.767334</ele>
        <time>2009-05-31T11:41:55Z</time>
      </trkpt>
      <trkpt lat="43.86308" lon="7.23835">
        <ele>692.2866211</ele>
        <time>2009-05-31T11:42:01Z</time>
      </trkpt>
      <trkpt lat="43.86321" lon="7.2384">
        <ele>692.767334</ele>
        <time>2009-05-31T11:42:05Z</time>
      </trkpt>
      <trkpt lat="43.86329" lon="7.2386">
        <ele>693.7285156</ele>
        <time>2009-05-31T11:42:10Z</time>
      </trkpt>
      <trkpt lat="43.8634" lon="7.23892">
        <ele>695.1704102</ele>
        <time>2009-05-31T11:42:18Z</time>
      </trkpt>
      <trkpt lat="43.86352" lon="7.23904">
        <ele>696.6125488</ele>
        <time>2009-05-31T11:42:24Z</time>
      </trkpt>
      <trkpt lat="43.86367" lon="7.23909">
        <ele>697.0930176</ele>
        <time>2009-05-31T11:42:32Z</time>
      </trkpt>
      <trkpt lat="43.86391" lon="7.23911">
        <ele>698.5349121</ele>
        <time>2009-05-31T11:42:43Z</time>
      </trkpt>
      <trkpt lat="43.86406" lon="7.23921">
        <ele>700.4580078</ele>
        <time>2009-05-31T11:42:51Z</time>
      </trkpt>
      <trkpt lat="43.86424" lon="7.23926">
        <ele>701.4191895</ele>
        <time>2009-05-31T11:43:00Z</time>
      </trkpt>
      <trkpt lat="43.86443" lon="7.23924">
        <ele>702.3803711</ele>
        <time>2009-05-31T11:43:09Z</time>
      </trkpt>
      <trkpt lat="43.8646" lon="7.23923">
        <ele>705.7451172</ele>
        <time>2009-05-31T11:43:18Z</time>
      </trkpt>
      <trkpt lat="43.86476" lon="7.23921">
        <ele>706.7062988</ele>
        <time>2009-05-31T11:43:27Z</time>
      </trkpt>
      <trkpt lat="43.86497" lon="7.23917">
        <ele>708.6289062</ele>
        <time>2009-05-31T11:43:38Z</time>
      </trkpt>
      <trkpt lat="43.86507" lon="7.23904">
        <ele>709.1096191</ele>
        <time>2009-05-31T11:43:45Z</time>
      </trkpt>
      <trkpt lat="43.86514" lon="7.23888">
        <ele>710.0708008</ele>
        <time>2009-05-31T11:43:52Z</time>
      </trkpt>
      <trkpt lat="43.86525" lon="7.23869">
        <ele>711.9936523</ele>
        <time>2009-05-31T11:44:01Z</time>
      </trkpt>
      <trkpt lat="43.86539" lon="7.23853">
        <ele>713.4355469</ele>
        <time>2009-05-31T11:44:11Z</time>
      </trkpt>
      <trkpt lat="43.86549" lon="7.23852">
        <ele>716.3195801</ele>
        <time>2009-05-31T11:44:17Z</time>
      </trkpt>
      <trkpt lat="43.86554" lon="7.23854">
        <ele>714.8774414</ele>
        <time>2009-05-31T11:44:20Z</time>
      </trkpt>
      <trkpt lat="43.86569" lon="7.23861">
        <ele>716.800293</ele>
        <time>2009-05-31T11:44:29Z</time>
      </trkpt>
      <trkpt lat="43.86587" lon="7.23869">
        <ele>718.2421875</ele>
        <time>2009-05-31T11:44:39Z</time>
      </trkpt>
      <trkpt lat="43.86598" lon="7.23876">
        <ele>719.2036133</ele>
        <time>2009-05-31T11:44:46Z</time>
      </trkpt>
      <trkpt lat="43.86608" lon="7.23885">
        <ele>720.6455078</ele>
        <time>2009-05-31T11:44:53Z</time>
      </trkpt>
      <trkpt lat="43.86612" lon="7.2389">
        <ele>721.6066895</ele>
        <time>2009-05-31T11:44:56Z</time>
      </trkpt>
      <trkpt lat="43.86622" lon="7.23909">
        <ele>723.529541</ele>
        <time>2009-05-31T11:45:05Z</time>
      </trkpt>
      <trkpt lat="43.86627" lon="7.23927">
        <ele>724.4907227</ele>
        <time>2009-05-31T11:45:13Z</time>
      </trkpt>
      <trkpt lat="43.86632" lon="7.23941">
        <ele>726.4133301</ele>
        <time>2009-05-31T11:45:20Z</time>
      </trkpt>
      <trkpt lat="43.86635" lon="7.23955">
        <ele>726.894043</ele>
        <time>2009-05-31T11:45:27Z</time>
      </trkpt>
      <trkpt lat="43.86642" lon="7.23972">
        <ele>726.894043</ele>
        <time>2009-05-31T11:45:36Z</time>
      </trkpt>
      <trkpt lat="43.86644" lon="7.23976">
        <ele>727.8552246</ele>
        <time>2009-05-31T11:45:38Z</time>
      </trkpt>
      <trkpt lat="43.86657" lon="7.23993">
        <ele>729.2971191</ele>
        <time>2009-05-31T11:45:49Z</time>
      </trkpt>
      <trkpt lat="43.86669" lon="7.24003">
        <ele>730.7392578</ele>
        <time>2009-05-31T11:45:57Z</time>
      </trkpt>
      <trkpt lat="43.86681" lon="7.24016">
        <ele>733.623291</ele>
        <time>2009-05-31T11:46:07Z</time>
      </trkpt>
      <trkpt lat="43.86686" lon="7.24031">
        <ele>735.0654297</ele>
        <time>2009-05-31T11:46:14Z</time>
      </trkpt>
      <trkpt lat="43.86688" lon="7.24053">
        <ele>736.0266113</ele>
        <time>2009-05-31T11:46:24Z</time>
      </trkpt>
      <trkpt lat="43.86682" lon="7.2407">
        <ele>736.987793</ele>
        <time>2009-05-31T11:46:32Z</time>
      </trkpt>
      <trkpt lat="43.86674" lon="7.24086">
        <ele>736.987793</ele>
        <time>2009-05-31T11:46:40Z</time>
      </trkpt>
      <trkpt lat="43.86666" lon="7.24105">
        <ele>738.9106445</ele>
        <time>2009-05-31T11:46:50Z</time>
      </trkpt>
      <trkpt lat="43.86657" lon="7.24116">
        <ele>739.3911133</ele>
        <time>2009-05-31T11:46:57Z</time>
      </trkpt>
      <trkpt lat="43.86647" lon="7.24122">
        <ele>739.8718262</ele>
        <time>2009-05-31T11:47:05Z</time>
      </trkpt>
      <trkpt lat="43.86634" lon="7.24134">
        <ele>738.4299316</ele>
        <time>2009-05-31T11:47:14Z</time>
      </trkpt>
      <trkpt lat="43.86621" lon="7.24146">
        <ele>738.9106445</ele>
        <time>2009-05-31T11:47:21Z</time>
      </trkpt>
      <trkpt lat="43.86608" lon="7.24155">
        <ele>740.3525391</ele>
        <time>2009-05-31T11:47:29Z</time>
      </trkpt>
      <trkpt lat="43.86592" lon="7.24166">
        <ele>741.3137207</ele>
        <time>2009-05-31T11:47:39Z</time>
      </trkpt>
      <trkpt lat="43.86579" lon="7.24175">
        <ele>743.2363281</ele>
        <time>2009-05-31T11:47:47Z</time>
      </trkpt>
      <trkpt lat="43.86567" lon="7.24178">
        <ele>743.717041</ele>
        <time>2009-05-31T11:47:54Z</time>
      </trkpt>
      <trkpt lat="43.86551" lon="7.24184">
        <ele>744.6782227</ele>
        <time>2009-05-31T11:48:03Z</time>
      </trkpt>
      <trkpt lat="43.86539" lon="7.24191">
        <ele>746.1203613</ele>
        <time>2009-05-31T11:48:11Z</time>
      </trkpt>
      <trkpt lat="43.86523" lon="7.24195">
        <ele>747.5622559</ele>
        <time>2009-05-31T11:48:21Z</time>
      </trkpt>
      <trkpt lat="43.86507" lon="7.24198">
        <ele>749.9658203</ele>
        <time>2009-05-31T11:48:31Z</time>
      </trkpt>
      <trkpt lat="43.86497" lon="7.242">
        <ele>750.927002</ele>
        <time>2009-05-31T11:48:38Z</time>
      </trkpt>
      <trkpt lat="43.86485" lon="7.24206">
        <ele>752.3688965</ele>
        <time>2009-05-31T11:48:47Z</time>
      </trkpt>
      <trkpt lat="43.86476" lon="7.24217">
        <ele>752.8496094</ele>
        <time>2009-05-31T11:48:55Z</time>
      </trkpt>
      <trkpt lat="43.86468" lon="7.24232">
        <ele>754.291748</ele>
        <time>2009-05-31T11:49:04Z</time>
      </trkpt>
      <trkpt lat="43.86457" lon="7.24249">
        <ele>755.7336426</ele>
        <time>2009-05-31T11:49:14Z</time>
      </trkpt>
      <trkpt lat="43.86449" lon="7.24264">
        <ele>756.6948242</ele>
        <time>2009-05-31T11:49:23Z</time>
      </trkpt>
      <trkpt lat="43.86443" lon="7.2428">
        <ele>757.65625</ele>
        <time>2009-05-31T11:49:31Z</time>
      </trkpt>
      <trkpt lat="43.86439" lon="7.243">
        <ele>759.0981445</ele>
        <time>2009-05-31T11:49:41Z</time>
      </trkpt>
      <trkpt lat="43.86435" lon="7.24318">
        <ele>760.0593262</ele>
        <time>2009-05-31T11:49:51Z</time>
      </trkpt>
      <trkpt lat="43.86428" lon="7.24333">
        <ele>761.9821777</ele>
        <time>2009-05-31T11:50:01Z</time>
      </trkpt>
      <trkpt lat="43.86422" lon="7.24343">
        <ele>762.9433594</ele>
        <time>2009-05-31T11:50:09Z</time>
      </trkpt>
      <trkpt lat="43.86411" lon="7.24358">
        <ele>764.8662109</ele>
        <time>2009-05-31T11:50:19Z</time>
      </trkpt>
      <trkpt lat="43.86403" lon="7.24372">
        <ele>764.8662109</ele>
        <time>2009-05-31T11:50:26Z</time>
      </trkpt>
      <trkpt lat="43.86395" lon="7.24389">
        <ele>765.8276367</ele>
        <time>2009-05-31T11:50:35Z</time>
      </trkpt>
      <trkpt lat="43.86389" lon="7.24411">
        <ele>766.7888184</ele>
        <time>2009-05-31T11:50:46Z</time>
      </trkpt>
      <trkpt lat="43.86388" lon="7.2442">
        <ele>768.2307129</ele>
        <time>2009-05-31T11:50:50Z</time>
      </trkpt>
      <trkpt lat="43.86389" lon="7.24439">
        <ele>769.1921387</ele>
        <time>2009-05-31T11:50:59Z</time>
      </trkpt>
      <trkpt lat="43.86394" lon="7.24455">
        <ele>771.5952148</ele>
        <time>2009-05-31T11:51:07Z</time>
      </trkpt>
      <trkpt lat="43.86399" lon="7.24473">
        <ele>771.5952148</ele>
        <time>2009-05-31T11:51:16Z</time>
      </trkpt>
      <trkpt lat="43.86407" lon="7.24495">
        <ele>773.5180664</ele>
        <time>2009-05-31T11:51:27Z</time>
      </trkpt>
      <trkpt lat="43.86412" lon="7.2451">
        <ele>774.9599609</ele>
        <time>2009-05-31T11:51:35Z</time>
      </trkpt>
      <trkpt lat="43.8642" lon="7.24528">
        <ele>775.9211426</ele>
        <time>2009-05-31T11:51:45Z</time>
      </trkpt>
      <trkpt lat="43.86422" lon="7.24531">
        <ele>777.3632812</ele>
        <time>2009-05-31T11:51:47Z</time>
      </trkpt>
      <trkpt lat="43.86433" lon="7.24549">
        <ele>779.2856445</ele>
        <time>2009-05-31T11:51:59Z</time>
      </trkpt>
      <trkpt lat="43.86439" lon="7.24562">
        <ele>779.7663574</ele>
        <time>2009-05-31T11:52:07Z</time>
      </trkpt>
      <trkpt lat="43.86444" lon="7.24579">
        <ele>782.1699219</ele>
        <time>2009-05-31T11:52:16Z</time>
      </trkpt>
      <trkpt lat="43.86445" lon="7.24593">
        <ele>783.6118164</ele>
        <time>2009-05-31T11:52:24Z</time>
      </trkpt>
      <trkpt lat="43.86444" lon="7.24611">
        <ele>783.6118164</ele>
        <time>2009-05-31T11:52:33Z</time>
      </trkpt>
      <trkpt lat="43.86442" lon="7.24631">
        <ele>784.5732422</ele>
        <time>2009-05-31T11:52:43Z</time>
      </trkpt>
      <trkpt lat="43.86437" lon="7.24656">
        <ele>786.0151367</ele>
        <time>2009-05-31T11:52:55Z</time>
      </trkpt>
      <trkpt lat="43.86431" lon="7.24674">
        <ele>786.9763184</ele>
        <time>2009-05-31T11:53:05Z</time>
      </trkpt>
      <trkpt lat="43.86427" lon="7.24687">
        <ele>788.8991699</ele>
        <time>2009-05-31T11:53:13Z</time>
      </trkpt>
      <trkpt lat="43.86423" lon="7.24699">
        <ele>789.8603516</ele>
        <time>2009-05-31T11:53:20Z</time>
      </trkpt>
      <trkpt lat="43.86417" lon="7.24716">
        <ele>790.8215332</ele>
        <time>2009-05-31T11:53:29Z</time>
      </trkpt>
      <trkpt lat="43.86412" lon="7.2473">
        <ele>792.2636719</ele>
        <time>2009-05-31T11:53:37Z</time>
      </trkpt>
      <trkpt lat="43.86407" lon="7.24746">
        <ele>793.2248535</ele>
        <time>2009-05-31T11:53:45Z</time>
      </trkpt>
      <trkpt lat="43.86401" lon="7.24764">
        <ele>794.1862793</ele>
        <time>2009-05-31T11:53:54Z</time>
      </trkpt>
      <trkpt lat="43.86395" lon="7.2478">
        <ele>795.6281738</ele>
        <time>2009-05-31T11:54:02Z</time>
      </trkpt>
      <trkpt lat="43.86391" lon="7.24795">
        <ele>797.0703125</ele>
        <time>2009-05-31T11:54:10Z</time>
      </trkpt>
      <trkpt lat="43.86386" lon="7.24816">
        <ele>798.9929199</ele>
        <time>2009-05-31T11:54:21Z</time>
      </trkpt>
      <trkpt lat="43.8638" lon="7.24838">
        <ele>800.4350586</ele>
        <time>2009-05-31T11:54:33Z</time>
      </trkpt>
      <trkpt lat="43.86378" lon="7.24848">
        <ele>801.8769531</ele>
        <time>2009-05-31T11:54:38Z</time>
      </trkpt>
      <trkpt lat="43.86376" lon="7.24855">
        <ele>801.8769531</ele>
        <time>2009-05-31T11:54:42Z</time>
      </trkpt>
      <trkpt lat="43.86373" lon="7.24868">
        <ele>803.3188477</ele>
        <time>2009-05-31T11:54:49Z</time>
      </trkpt>
      <trkpt lat="43.8637" lon="7.24888">
        <ele>804.7607422</ele>
        <time>2009-05-31T11:54:59Z</time>
      </trkpt>
      <trkpt lat="43.86368" lon="7.24907">
        <ele>806.2026367</ele>
        <time>2009-05-31T11:55:09Z</time>
      </trkpt>
      <trkpt lat="43.86366" lon="7.24929">
        <ele>807.6447754</ele>
        <time>2009-05-31T11:55:20Z</time>
      </trkpt>
      <trkpt lat="43.86365" lon="7.24946">
        <ele>808.1254883</ele>
        <time>2009-05-31T11:55:28Z</time>
      </trkpt>
      <trkpt lat="43.86365" lon="7.24967">
        <ele>811.0092773</ele>
        <time>2009-05-31T11:55:38Z</time>
      </trkpt>
      <trkpt lat="43.86366" lon="7.24988">
        <ele>812.451416</ele>
        <time>2009-05-31T11:55:48Z</time>
      </trkpt>
      <trkpt lat="43.86368" lon="7.25011">
        <ele>813.8933105</ele>
        <time>2009-05-31T11:55:59Z</time>
      </trkpt>
      <trkpt lat="43.86371" lon="7.2503">
        <ele>814.8547363</ele>
        <time>2009-05-31T11:56:09Z</time>
      </trkpt>
      <trkpt lat="43.86374" lon="7.25045">
        <ele>815.3354492</ele>
        <time>2009-05-31T11:56:17Z</time>
      </trkpt>
      <trkpt lat="43.86378" lon="7.25064">
        <ele>816.2966309</ele>
        <time>2009-05-31T11:56:27Z</time>
      </trkpt>
      <trkpt lat="43.86384" lon="7.25083">
        <ele>817.7385254</ele>
        <time>2009-05-31T11:56:38Z</time>
      </trkpt>
      <trkpt lat="43.86389" lon="7.25097">
        <ele>818.2192383</ele>
        <time>2009-05-31T11:56:46Z</time>
      </trkpt>
      <trkpt lat="43.86394" lon="7.25115">
        <ele>820.1418457</ele>
        <time>2009-05-31T11:56:55Z</time>
      </trkpt>
      <trkpt lat="43.864" lon="7.25134">
        <ele>821.5837402</ele>
        <time>2009-05-31T11:57:05Z</time>
      </trkpt>
      <trkpt lat="43.86405" lon="7.25151">
        <ele>822.545166</ele>
        <time>2009-05-31T11:57:15Z</time>
      </trkpt>
      <trkpt lat="43.8641" lon="7.25169">
        <ele>824.4677734</ele>
        <time>2009-05-31T11:57:25Z</time>
      </trkpt>
      <trkpt lat="43.86414" lon="7.25184">
        <ele>826.8710938</ele>
        <time>2009-05-31T11:57:33Z</time>
      </trkpt>
      <trkpt lat="43.86418" lon="7.25196">
        <ele>827.8322754</ele>
        <time>2009-05-31T11:57:40Z</time>
      </trkpt>
      <trkpt lat="43.86422" lon="7.2521">
        <ele>828.7939453</ele>
        <time>2009-05-31T11:57:47Z</time>
      </trkpt>
      <trkpt lat="43.86427" lon="7.25231">
        <ele>831.1972656</ele>
        <time>2009-05-31T11:57:58Z</time>
      </trkpt>
      <trkpt lat="43.86427" lon="7.25233">
        <ele>831.1972656</ele>
        <time>2009-05-31T11:57:59Z</time>
      </trkpt>
      <trkpt lat="43.86432" lon="7.25254">
        <ele>832.1584473</ele>
        <time>2009-05-31T11:58:10Z</time>
      </trkpt>
      <trkpt lat="43.86436" lon="7.25271">
        <ele>833.1196289</ele>
        <time>2009-05-31T11:58:19Z</time>
      </trkpt>
      <trkpt lat="43.8644" lon="7.25293">
        <ele>834.5617676</ele>
        <time>2009-05-31T11:58:30Z</time>
      </trkpt>
      <trkpt lat="43.86443" lon="7.25309">
        <ele>835.0424805</ele>
        <time>2009-05-31T11:58:38Z</time>
      </trkpt>
      <trkpt lat="43.86446" lon="7.2533">
        <ele>837.9262695</ele>
        <time>2009-05-31T11:58:48Z</time>
      </trkpt>
      <trkpt lat="43.8645" lon="7.25349">
        <ele>838.4069824</ele>
        <time>2009-05-31T11:58:58Z</time>
      </trkpt>
      <trkpt lat="43.86452" lon="7.25355">
        <ele>839.848877</ele>
        <time>2009-05-31T11:59:01Z</time>
      </trkpt>
      <trkpt lat="43.86455" lon="7.2537">
        <ele>841.7714844</ele>
        <time>2009-05-31T11:59:10Z</time>
      </trkpt>
      <trkpt lat="43.86458" lon="7.25386">
        <ele>842.2521973</ele>
        <time>2009-05-31T11:59:19Z</time>
      </trkpt>
      <trkpt lat="43.86458" lon="7.25404">
        <ele>841.7714844</ele>
        <time>2009-05-31T11:59:27Z</time>
      </trkpt>
      <trkpt lat="43.86458" lon="7.25408">
        <ele>842.7329102</ele>
        <time>2009-05-31T11:59:29Z</time>
      </trkpt>
      <trkpt lat="43.86459" lon="7.25425">
        <ele>844.1750488</ele>
        <time>2009-05-31T11:59:37Z</time>
      </trkpt>
      <trkpt lat="43.86465" lon="7.25445">
        <ele>845.6169434</ele>
        <time>2009-05-31T11:59:48Z</time>
      </trkpt>
      <trkpt lat="43.8647" lon="7.25461">
        <ele>848.0202637</ele>
        <time>2009-05-31T11:59:57Z</time>
      </trkpt>
      <trkpt lat="43.8647" lon="7.25462">
        <ele>848.0202637</ele>
        <time>2009-05-31T11:59:58Z</time>
      </trkpt>
      <trkpt lat="43.86474" lon="7.25476">
        <ele>849.9428711</ele>
        <time>2009-05-31T12:00:06Z</time>
      </trkpt>
      <trkpt lat="43.86477" lon="7.25492">
        <ele>848.9814453</ele>
        <time>2009-05-31T12:00:14Z</time>
      </trkpt>
      <trkpt lat="43.8648" lon="7.25511">
        <ele>851.8654785</ele>
        <time>2009-05-31T12:00:25Z</time>
      </trkpt>
      <trkpt lat="43.86482" lon="7.25531">
        <ele>853.7880859</ele>
        <time>2009-05-31T12:00:35Z</time>
      </trkpt>
      <trkpt lat="43.86484" lon="7.25544">
        <ele>854.7492676</ele>
        <time>2009-05-31T12:00:44Z</time>
      </trkpt>
      <trkpt lat="43.86485" lon="7.2556">
        <ele>855.2299805</ele>
        <time>2009-05-31T12:00:53Z</time>
      </trkpt>
      <trkpt lat="43.86489" lon="7.25573">
        <ele>855.7106934</ele>
        <time>2009-05-31T12:01:01Z</time>
      </trkpt>
      <trkpt lat="43.86493" lon="7.25584">
        <ele>857.1525879</ele>
        <time>2009-05-31T12:01:08Z</time>
      </trkpt>
      <trkpt lat="43.86496" lon="7.2559">
        <ele>857.6333008</ele>
        <time>2009-05-31T12:01:12Z</time>
      </trkpt>
      <trkpt lat="43.86502" lon="7.25604">
        <ele>858.5944824</ele>
        <time>2009-05-31T12:01:20Z</time>
      </trkpt>
      <trkpt lat="43.8651" lon="7.25616">
        <ele>860.517334</ele>
        <time>2009-05-31T12:01:29Z</time>
      </trkpt>
      <trkpt lat="43.86519" lon="7.25628">
        <ele>860.9980469</ele>
        <time>2009-05-31T12:01:38Z</time>
      </trkpt>
      <trkpt lat="43.86531" lon="7.25641">
        <ele>860.9980469</ele>
        <time>2009-05-31T12:01:49Z</time>
      </trkpt>
      <trkpt lat="43.86542" lon="7.25655">
        <ele>861.9594727</ele>
        <time>2009-05-31T12:02:00Z</time>
      </trkpt>
      <trkpt lat="43.86549" lon="7.25669">
        <ele>864.3625488</ele>
        <time>2009-05-31T12:02:09Z</time>
      </trkpt>
      <trkpt lat="43.86554" lon="7.25684">
        <ele>865.3239746</ele>
        <time>2009-05-31T12:02:18Z</time>
      </trkpt>
      <trkpt lat="43.86557" lon="7.25699">
        <ele>865.8046875</ele>
        <time>2009-05-31T12:02:26Z</time>
      </trkpt>
      <trkpt lat="43.86555" lon="7.25702">
        <ele>865.3239746</ele>
        <time>2009-05-31T12:02:31Z</time>
      </trkpt>
      <trkpt lat="43.86556" lon="7.25701">
        <ele>865.3239746</ele>
        <time>2009-05-31T12:02:43Z</time>
      </trkpt>
      <trkpt lat="43.86554" lon="7.25706">
        <ele>865.3239746</ele>
        <time>2009-05-31T12:03:26Z</time>
      </trkpt>
      <trkpt lat="43.86554" lon="7.25706">
        <ele>865.3239746</ele>
        <time>2009-05-31T12:03:27Z</time>
      </trkpt>
      <trkpt lat="43.86556" lon="7.25704">
        <ele>867.7270508</ele>
        <time>2009-05-31T12:07:32Z</time>
      </trkpt>
      <trkpt lat="43.86556" lon="7.25703">
        <ele>867.246582</ele>
        <time>2009-05-31T12:07:58Z</time>
      </trkpt>
      <trkpt lat="43.86558" lon="7.25709">
        <ele>867.246582</ele>
        <time>2009-05-31T12:08:04Z</time>
      </trkpt>
      <trkpt lat="43.86563" lon="7.25721">
        <ele>868.6884766</ele>
        <time>2009-05-31T12:08:10Z</time>
      </trkpt>
      <trkpt lat="43.86572" lon="7.25718">
        <ele>871.0917969</ele>
        <time>2009-05-31T12:08:17Z</time>
      </trkpt>
      <trkpt lat="43.86573" lon="7.25703">
        <ele>870.611084</ele>
        <time>2009-05-31T12:08:24Z</time>
      </trkpt>
      <trkpt lat="43.8657" lon="7.25686">
        <ele>872.5336914</ele>
        <time>2009-05-31T12:08:32Z</time>
      </trkpt>
      <trkpt lat="43.86568" lon="7.25667">
        <ele>873.4951172</ele>
        <time>2009-05-31T12:08:41Z</time>
      </trkpt>
      <trkpt lat="43.86564" lon="7.25651">
        <ele>874.9370117</ele>
        <time>2009-05-31T12:08:50Z</time>
      </trkpt>
      <trkpt lat="43.86557" lon="7.25637">
        <ele>875.4174805</ele>
        <time>2009-05-31T12:08:59Z</time>
      </trkpt>
      <trkpt lat="43.86549" lon="7.2562">
        <ele>877.8210449</ele>
        <time>2009-05-31T12:09:09Z</time>
      </trkpt>
      <trkpt lat="43.86548" lon="7.25608">
        <ele>878.3017578</ele>
        <time>2009-05-31T12:09:16Z</time>
      </trkpt>
      <trkpt lat="43.86548" lon="7.2559">
        <ele>880.2243652</ele>
        <time>2009-05-31T12:09:26Z</time>
      </trkpt>
      <trkpt lat="43.86548" lon="7.25573">
        <ele>881.185791</ele>
        <time>2009-05-31T12:09:34Z</time>
      </trkpt>
      <trkpt lat="43.86548" lon="7.25557">
        <ele>882.1469727</ele>
        <time>2009-05-31T12:09:43Z</time>
      </trkpt>
      <trkpt lat="43.86548" lon="7.25545">
        <ele>883.1081543</ele>
        <time>2009-05-31T12:09:51Z</time>
      </trkpt>
      <trkpt lat="43.86552" lon="7.25548">
        <ele>883.5888672</ele>
        <time>2009-05-31T12:09:56Z</time>
      </trkpt>
      <trkpt lat="43.86553" lon="7.25556">
        <ele>885.5114746</ele>
        <time>2009-05-31T12:10:01Z</time>
      </trkpt>
      <trkpt lat="43.86553" lon="7.2556">
        <ele>885.0310059</ele>
        <time>2009-05-31T12:10:03Z</time>
      </trkpt>
      <trkpt lat="43.86555" lon="7.25574">
        <ele>886.9533691</ele>
        <time>2009-05-31T12:10:12Z</time>
      </trkpt>
      <trkpt lat="43.86557" lon="7.25581">
        <ele>887.434082</ele>
        <time>2009-05-31T12:10:17Z</time>
      </trkpt>
      <trkpt lat="43.86559" lon="7.25593">
        <ele>887.434082</ele>
        <time>2009-05-31T12:10:21Z</time>
      </trkpt>
      <trkpt lat="43.86562" lon="7.25599">
        <ele>888.3955078</ele>
        <time>2009-05-31T12:10:26Z</time>
      </trkpt>
      <trkpt lat="43.86566" lon="7.25606">
        <ele>887.9147949</ele>
        <time>2009-05-31T12:10:35Z</time>
      </trkpt>
      <trkpt lat="43.8657" lon="7.25611">
        <ele>888.3955078</ele>
        <time>2009-05-31T12:10:43Z</time>
      </trkpt>
      <trkpt lat="43.86573" lon="7.25613">
        <ele>889.8374023</ele>
        <time>2009-05-31T12:10:49Z</time>
      </trkpt>
      <trkpt lat="43.86576" lon="7.25617">
        <ele>891.2792969</ele>
        <time>2009-05-31T12:10:55Z</time>
      </trkpt>
      <trkpt lat="43.8658" lon="7.25622">
        <ele>893.2021484</ele>
        <time>2009-05-31T12:11:03Z</time>
      </trkpt>
      <trkpt lat="43.86586" lon="7.25633">
        <ele>893.6828613</ele>
        <time>2009-05-31T12:11:13Z</time>
      </trkpt>
      <trkpt lat="43.86592" lon="7.25639">
        <ele>895.6054688</ele>
        <time>2009-05-31T12:11:23Z</time>
      </trkpt>
      <trkpt lat="43.866" lon="7.25647">
        <ele>897.0473633</ele>
        <time>2009-05-31T12:11:36Z</time>
      </trkpt>
      <trkpt lat="43.86603" lon="7.2565">
        <ele>897.5280762</ele>
        <time>2009-05-31T12:11:42Z</time>
      </trkpt>
      <trkpt lat="43.86605" lon="7.25654">
        <ele>898.9699707</ele>
        <time>2009-05-31T12:11:49Z</time>
      </trkpt>
      <trkpt lat="43.86608" lon="7.25657">
        <ele>899.9313965</ele>
        <time>2009-05-31T12:11:54Z</time>
      </trkpt>
      <trkpt lat="43.86612" lon="7.25661">
        <ele>901.8540039</ele>
        <time>2009-05-31T12:12:02Z</time>
      </trkpt>
      <trkpt lat="43.86616" lon="7.25665">
        <ele>902.8151855</ele>
        <time>2009-05-31T12:12:09Z</time>
      </trkpt>
      <trkpt lat="43.86621" lon="7.25668">
        <ele>902.3344727</ele>
        <time>2009-05-31T12:12:18Z</time>
      </trkpt>
      <trkpt lat="43.86625" lon="7.25674">
        <ele>902.8151855</ele>
        <time>2009-05-31T12:12:26Z</time>
      </trkpt>
      <trkpt lat="43.86628" lon="7.2568">
        <ele>903.2958984</ele>
        <time>2009-05-31T12:12:34Z</time>
      </trkpt>
      <trkpt lat="43.86635" lon="7.25684">
        <ele>905.2185059</ele>
        <time>2009-05-31T12:12:44Z</time>
      </trkpt>
      <trkpt lat="43.86639" lon="7.25692">
        <ele>906.1796875</ele>
        <time>2009-05-31T12:12:53Z</time>
      </trkpt>
      <trkpt lat="43.86646" lon="7.25697">
        <ele>908.583252</ele>
        <time>2009-05-31T12:13:03Z</time>
      </trkpt>
      <trkpt lat="43.8665" lon="7.25702">
        <ele>910.0251465</ele>
        <time>2009-05-31T12:13:11Z</time>
      </trkpt>
      <trkpt lat="43.86656" lon="7.2571">
        <ele>910.5058594</ele>
        <time>2009-05-31T12:13:22Z</time>
      </trkpt>
      <trkpt lat="43.86662" lon="7.25719">
        <ele>912.4284668</ele>
        <time>2009-05-31T12:13:33Z</time>
      </trkpt>
      <trkpt lat="43.86665" lon="7.25724">
        <ele>913.3898926</ele>
        <time>2009-05-31T12:13:41Z</time>
      </trkpt>
      <trkpt lat="43.86668" lon="7.25728">
        <ele>914.3510742</ele>
        <time>2009-05-31T12:13:48Z</time>
      </trkpt>
      <trkpt lat="43.86672" lon="7.25732">
        <ele>916.2736816</ele>
        <time>2009-05-31T12:13:56Z</time>
      </trkpt>
      <trkpt lat="43.86673" lon="7.2574">
        <ele>916.7543945</ele>
        <time>2009-05-31T12:14:05Z</time>
      </trkpt>
      <trkpt lat="43.86677" lon="7.25749">
        <ele>916.7543945</ele>
        <time>2009-05-31T12:14:14Z</time>
      </trkpt>
      <trkpt lat="43.86681" lon="7.25756">
        <ele>917.7155762</ele>
        <time>2009-05-31T12:14:23Z</time>
      </trkpt>
      <trkpt lat="43.86682" lon="7.25759">
        <ele>919.1577148</ele>
        <time>2009-05-31T12:14:29Z</time>
      </trkpt>
      <trkpt lat="43.86682" lon="7.25761">
        <ele>918.1962891</ele>
        <time>2009-05-31T12:14:47Z</time>
      </trkpt>
      <trkpt lat="43.86682" lon="7.25763">
        <ele>918.1962891</ele>
        <time>2009-05-31T12:14:51Z</time>
      </trkpt>
      <trkpt lat="43.86683" lon="7.25775">
        <ele>917.7155762</ele>
        <time>2009-05-31T12:14:56Z</time>
      </trkpt>
      <trkpt lat="43.86683" lon="7.25777">
        <ele>917.2351074</ele>
        <time>2009-05-31T12:14:57Z</time>
      </trkpt>
      <trkpt lat="43.8668" lon="7.25793">
        <ele>914.3510742</ele>
        <time>2009-05-31T12:15:03Z</time>
      </trkpt>
      <trkpt lat="43.86677" lon="7.25796">
        <ele>912.9091797</ele>
        <time>2009-05-31T12:15:05Z</time>
      </trkpt>
      <trkpt lat="43.86669" lon="7.258">
        <ele>910.9865723</ele>
        <time>2009-05-31T12:15:08Z</time>
      </trkpt>
      <trkpt lat="43.86666" lon="7.25803">
        <ele>910.0251465</ele>
        <time>2009-05-31T12:15:10Z</time>
      </trkpt>
      <trkpt lat="43.86665" lon="7.25815">
        <ele>907.6218262</ele>
        <time>2009-05-31T12:15:16Z</time>
      </trkpt>
      <trkpt lat="43.86666" lon="7.25835">
        <ele>905.2185059</ele>
        <time>2009-05-31T12:15:21Z</time>
      </trkpt>
      <trkpt lat="43.86671" lon="7.25852">
        <ele>902.8151855</ele>
        <time>2009-05-31T12:15:25Z</time>
      </trkpt>
      <trkpt lat="43.86678" lon="7.25864">
        <ele>902.3344727</ele>
        <time>2009-05-31T12:15:30Z</time>
      </trkpt>
      <trkpt lat="43.86682" lon="7.25876">
        <ele>902.8151855</ele>
        <time>2009-05-31T12:15:35Z</time>
      </trkpt>
      <trkpt lat="43.86686" lon="7.25887">
        <ele>901.8540039</ele>
        <time>2009-05-31T12:15:40Z</time>
      </trkpt>
      <trkpt lat="43.86688" lon="7.25895">
        <ele>899.9313965</ele>
        <time>2009-05-31T12:15:43Z</time>
      </trkpt>
      <trkpt lat="43.8669" lon="7.25898">
        <ele>898.4892578</ele>
        <time>2009-05-31T12:15:44Z</time>
      </trkpt>
      <trkpt lat="43.86698" lon="7.25909">
        <ele>896.0861816</ele>
        <time>2009-05-31T12:15:48Z</time>
      </trkpt>
      <trkpt lat="43.86709" lon="7.25925">
        <ele>893.6828613</ele>
        <time>2009-05-31T12:15:54Z</time>
      </trkpt>
      <trkpt lat="43.86712" lon="7.25931">
        <ele>894.1635742</ele>
        <time>2009-05-31T12:15:57Z</time>
      </trkpt>
      <trkpt lat="43.86708" lon="7.25939">
        <ele>893.2021484</ele>
        <time>2009-05-31T12:16:02Z</time>
      </trkpt>
      <trkpt lat="43.867" lon="7.25945">
        <ele>890.3181152</ele>
        <time>2009-05-31T12:16:06Z</time>
      </trkpt>
      <trkpt lat="43.86694" lon="7.25946">
        <ele>888.3955078</ele>
        <time>2009-05-31T12:16:09Z</time>
      </trkpt>
      <trkpt lat="43.8669" lon="7.25947">
        <ele>886.4729004</ele>
        <time>2009-05-31T12:16:11Z</time>
      </trkpt>
      <trkpt lat="43.86686" lon="7.25952">
        <ele>885.5114746</ele>
        <time>2009-05-31T12:16:14Z</time>
      </trkpt>
      <trkpt lat="43.86683" lon="7.25964">
        <ele>883.1081543</ele>
        <time>2009-05-31T12:16:17Z</time>
      </trkpt>
      <trkpt lat="43.86677" lon="7.25984">
        <ele>883.1081543</ele>
        <time>2009-05-31T12:16:23Z</time>
      </trkpt>
      <trkpt lat="43.86672" lon="7.25995">
        <ele>881.6662598</ele>
        <time>2009-05-31T12:16:28Z</time>
      </trkpt>
      <trkpt lat="43.8667" lon="7.25997">
        <ele>877.8210449</ele>
        <time>2009-05-31T12:16:33Z</time>
      </trkpt>
      <trkpt lat="43.86669" lon="7.25998">
        <ele>883.1081543</ele>
        <time>2009-05-31T12:16:34Z</time>
      </trkpt>
      <trkpt lat="43.86669" lon="7.25999">
        <ele>879.7436523</ele>
        <time>2009-05-31T12:16:35Z</time>
      </trkpt>
      <trkpt lat="43.86668" lon="7.26007">
        <ele>878.3017578</ele>
        <time>2009-05-31T12:16:42Z</time>
      </trkpt>
      <trkpt lat="43.86667" lon="7.26009">
        <ele>875.4174805</ele>
        <time>2009-05-31T12:16:47Z</time>
      </trkpt>
      <trkpt lat="43.86666" lon="7.2601">
        <ele>875.4174805</ele>
        <time>2009-05-31T12:16:48Z</time>
      </trkpt>
      <trkpt lat="43.86666" lon="7.26015">
        <ele>873.4951172</ele>
        <time>2009-05-31T12:16:55Z</time>
      </trkpt>
      <trkpt lat="43.86664" lon="7.26016">
        <ele>873.0144043</ele>
        <time>2009-05-31T12:17:01Z</time>
      </trkpt>
      <trkpt lat="43.86664" lon="7.26017">
        <ele>872.0529785</ele>
        <time>2009-05-31T12:17:02Z</time>
      </trkpt>
      <trkpt lat="43.86663" lon="7.2602">
        <ele>870.1303711</ele>
        <time>2009-05-31T12:17:04Z</time>
      </trkpt>
      <trkpt lat="43.86663" lon="7.26022">
        <ele>871.5722656</ele>
        <time>2009-05-31T12:17:09Z</time>
      </trkpt>
      <trkpt lat="43.8666" lon="7.26026">
        <ele>869.6499023</ele>
        <time>2009-05-31T12:17:15Z</time>
      </trkpt>
      <trkpt lat="43.86657" lon="7.26027">
        <ele>868.6884766</ele>
        <time>2009-05-31T12:17:22Z</time>
      </trkpt>
      <trkpt lat="43.86657" lon="7.26026">
        <ele>868.2077637</ele>
        <time>2009-05-31T12:17:23Z</time>
      </trkpt>
      <trkpt lat="43.86654" lon="7.26021">
        <ele>866.2851562</ele>
        <time>2009-05-31T12:17:27Z</time>
      </trkpt>
      <trkpt lat="43.86652" lon="7.26018">
        <ele>865.8046875</ele>
        <time>2009-05-31T12:17:29Z</time>
      </trkpt>
      <trkpt lat="43.8665" lon="7.26018">
        <ele>864.8432617</ele>
        <time>2009-05-31T12:17:31Z</time>
      </trkpt>
      <trkpt lat="43.86648" lon="7.2602">
        <ele>864.8432617</ele>
        <time>2009-05-31T12:17:36Z</time>
      </trkpt>
      <trkpt lat="43.86641" lon="7.26032">
        <ele>860.0366211</ele>
        <time>2009-05-31T12:17:41Z</time>
      </trkpt>
      <trkpt lat="43.86637" lon="7.26037">
        <ele>858.1140137</ele>
        <time>2009-05-31T12:17:43Z</time>
      </trkpt>
      <trkpt lat="43.86624" lon="7.26037">
        <ele>853.7880859</ele>
        <time>2009-05-31T12:17:48Z</time>
      </trkpt>
      <trkpt lat="43.8662" lon="7.26041">
        <ele>851.3847656</ele>
        <time>2009-05-31T12:17:51Z</time>
      </trkpt>
      <trkpt lat="43.8662" lon="7.26049">
        <ele>849.4621582</ele>
        <time>2009-05-31T12:17:54Z</time>
      </trkpt>
      <trkpt lat="43.86618" lon="7.26056">
        <ele>847.5395508</ele>
        <time>2009-05-31T12:17:56Z</time>
      </trkpt>
      <trkpt lat="43.8662" lon="7.26063">
        <ele>844.1750488</ele>
        <time>2009-05-31T12:17:58Z</time>
      </trkpt>
      <trkpt lat="43.86614" lon="7.26072">
        <ele>841.2907715</ele>
        <time>2009-05-31T12:18:02Z</time>
      </trkpt>
      <trkpt lat="43.86605" lon="7.26073">
        <ele>838.4069824</ele>
        <time>2009-05-31T12:18:05Z</time>
      </trkpt>
      <trkpt lat="43.86596" lon="7.26074">
        <ele>836.9648438</ele>
        <time>2009-05-31T12:18:11Z</time>
      </trkpt>
      <trkpt lat="43.8659" lon="7.26072">
        <ele>837.4455566</ele>
        <time>2009-05-31T12:18:22Z</time>
      </trkpt>
      <trkpt lat="43.86589" lon="7.26071">
        <ele>837.4455566</ele>
        <time>2009-05-31T12:18:24Z</time>
      </trkpt>
      <trkpt lat="43.86584" lon="7.26066">
        <ele>838.4069824</ele>
        <time>2009-05-31T12:18:30Z</time>
      </trkpt>
      <trkpt lat="43.86583" lon="7.26066">
        <ele>838.4069824</ele>
        <time>2009-05-31T12:18:31Z</time>
      </trkpt>
      <trkpt lat="43.86576" lon="7.26063">
        <ele>839.3681641</ele>
        <time>2009-05-31T12:18:38Z</time>
      </trkpt>
      <trkpt lat="43.86575" lon="7.26062">
        <ele>840.8100586</ele>
        <time>2009-05-31T12:18:45Z</time>
      </trkpt>
      <trkpt lat="43.8657" lon="7.26065">
        <ele>841.2907715</ele>
        <time>2009-05-31T12:18:53Z</time>
      </trkpt>
      <trkpt lat="43.86566" lon="7.26068">
        <ele>841.7714844</ele>
        <time>2009-05-31T12:18:58Z</time>
      </trkpt>
      <trkpt lat="43.86557" lon="7.26068">
        <ele>843.2133789</ele>
        <time>2009-05-31T12:19:07Z</time>
      </trkpt>
      <trkpt lat="43.86549" lon="7.26068">
        <ele>843.6940918</ele>
        <time>2009-05-31T12:19:15Z</time>
      </trkpt>
      <trkpt lat="43.86544" lon="7.26069">
        <ele>844.1750488</ele>
        <time>2009-05-31T12:19:21Z</time>
      </trkpt>
      <trkpt lat="43.86542" lon="7.2607">
        <ele>844.1750488</ele>
        <time>2009-05-31T12:19:27Z</time>
      </trkpt>
      <trkpt lat="43.86538" lon="7.26068">
        <ele>845.1362305</ele>
        <time>2009-05-31T12:19:32Z</time>
      </trkpt>
      <trkpt lat="43.86532" lon="7.26065">
        <ele>846.0976562</ele>
        <time>2009-05-31T12:19:37Z</time>
      </trkpt>
      <trkpt lat="43.86525" lon="7.26063">
        <ele>847.5395508</ele>
        <time>2009-05-31T12:19:46Z</time>
      </trkpt>
      <trkpt lat="43.8652" lon="7.2606">
        <ele>847.5395508</ele>
        <time>2009-05-31T12:19:53Z</time>
      </trkpt>
      <trkpt lat="43.86514" lon="7.2606">
        <ele>848.5007324</ele>
        <time>2009-05-31T12:19:59Z</time>
      </trkpt>
      <trkpt lat="43.8651" lon="7.26061">
        <ele>848.9814453</ele>
        <time>2009-05-31T12:20:06Z</time>
      </trkpt>
      <trkpt lat="43.86509" lon="7.26061">
        <ele>848.9814453</ele>
        <time>2009-05-31T12:20:09Z</time>
      </trkpt>
      <trkpt lat="43.86503" lon="7.26057">
        <ele>848.5007324</ele>
        <time>2009-05-31T12:20:14Z</time>
      </trkpt>
      <trkpt lat="43.86497" lon="7.26055">
        <ele>848.5007324</ele>
        <time>2009-05-31T12:20:18Z</time>
      </trkpt>
      <trkpt lat="43.8649" lon="7.26049">
        <ele>849.4621582</ele>
        <time>2009-05-31T12:20:23Z</time>
      </trkpt>
      <trkpt lat="43.86484" lon="7.26046">
        <ele>849.9428711</ele>
        <time>2009-05-31T12:20:27Z</time>
      </trkpt>
      <trkpt lat="43.86471" lon="7.26051">
        <ele>850.423584</ele>
        <time>2009-05-31T12:20:34Z</time>
      </trkpt>
      <trkpt lat="43.86467" lon="7.26054">
        <ele>850.423584</ele>
        <time>2009-05-31T12:20:36Z</time>
      </trkpt>
      <trkpt lat="43.86461" lon="7.26052">
        <ele>849.9428711</ele>
        <time>2009-05-31T12:20:42Z</time>
      </trkpt>
      <trkpt lat="43.86461" lon="7.26051">
        <ele>848.9814453</ele>
        <time>2009-05-31T12:20:43Z</time>
      </trkpt>
      <trkpt lat="43.86461" lon="7.26045">
        <ele>851.8654785</ele>
        <time>2009-05-31T12:20:48Z</time>
      </trkpt>
      <trkpt lat="43.86461" lon="7.26044">
        <ele>851.8654785</ele>
        <time>2009-05-31T12:20:49Z</time>
      </trkpt>
      <trkpt lat="43.86458" lon="7.2604">
        <ele>851.8654785</ele>
        <time>2009-05-31T12:20:55Z</time>
      </trkpt>
      <trkpt lat="43.86453" lon="7.26033">
        <ele>849.4621582</ele>
        <time>2009-05-31T12:20:59Z</time>
      </trkpt>
      <trkpt lat="43.86446" lon="7.26027">
        <ele>849.9428711</ele>
        <time>2009-05-31T12:21:02Z</time>
      </trkpt>
      <trkpt lat="43.86433" lon="7.26017">
        <ele>851.8654785</ele>
        <time>2009-05-31T12:21:10Z</time>
      </trkpt>
      <trkpt lat="43.86422" lon="7.26014">
        <ele>853.307373</ele>
        <time>2009-05-31T12:21:16Z</time>
      </trkpt>
      <trkpt lat="43.86413" lon="7.26004">
        <ele>851.8654785</ele>
        <time>2009-05-31T12:21:22Z</time>
      </trkpt>
      <trkpt lat="43.86404" lon="7.25992">
        <ele>850.423584</ele>
        <time>2009-05-31T12:21:30Z</time>
      </trkpt>
      <trkpt lat="43.864" lon="7.2599">
        <ele>851.8654785</ele>
        <time>2009-05-31T12:21:33Z</time>
      </trkpt>
      <trkpt lat="43.86392" lon="7.2598">
        <ele>851.8654785</ele>
        <time>2009-05-31T12:21:39Z</time>
      </trkpt>
      <trkpt lat="43.86389" lon="7.25978">
        <ele>851.8654785</ele>
        <time>2009-05-31T12:21:41Z</time>
      </trkpt>
      <trkpt lat="43.86379" lon="7.25972">
        <ele>853.307373</ele>
        <time>2009-05-31T12:21:48Z</time>
      </trkpt>
      <trkpt lat="43.86377" lon="7.25972">
        <ele>852.8266602</ele>
        <time>2009-05-31T12:21:49Z</time>
      </trkpt>
      <trkpt lat="43.86367" lon="7.25966">
        <ele>853.307373</ele>
        <time>2009-05-31T12:21:56Z</time>
      </trkpt>
      <trkpt lat="43.86354" lon="7.25964">
        <ele>853.307373</ele>
        <time>2009-05-31T12:22:01Z</time>
      </trkpt>
      <trkpt lat="43.86341" lon="7.25959">
        <ele>853.307373</ele>
        <time>2009-05-31T12:22:06Z</time>
      </trkpt>
      <trkpt lat="43.86329" lon="7.2596">
        <ele>853.7880859</ele>
        <time>2009-05-31T12:22:11Z</time>
      </trkpt>
      <trkpt lat="43.86321" lon="7.25952">
        <ele>854.2687988</ele>
        <time>2009-05-31T12:22:16Z</time>
      </trkpt>
      <trkpt lat="43.86317" lon="7.25948">
        <ele>855.2299805</ele>
        <time>2009-05-31T12:22:19Z</time>
      </trkpt>
      <trkpt lat="43.8631" lon="7.25944">
        <ele>855.2299805</ele>
        <time>2009-05-31T12:22:23Z</time>
      </trkpt>
      <trkpt lat="43.86303" lon="7.25937">
        <ele>855.7106934</ele>
        <time>2009-05-31T12:22:27Z</time>
      </trkpt>
      <trkpt lat="43.86295" lon="7.25923">
        <ele>853.307373</ele>
        <time>2009-05-31T12:22:33Z</time>
      </trkpt>
      <trkpt lat="43.86283" lon="7.25911">
        <ele>852.3459473</ele>
        <time>2009-05-31T12:22:39Z</time>
      </trkpt>
      <trkpt lat="43.86278" lon="7.25908">
        <ele>852.3459473</ele>
        <time>2009-05-31T12:22:41Z</time>
      </trkpt>
      <trkpt lat="43.86266" lon="7.25896">
        <ele>851.8654785</ele>
        <time>2009-05-31T12:22:46Z</time>
      </trkpt>
      <trkpt lat="43.8626" lon="7.2589">
        <ele>850.423584</ele>
        <time>2009-05-31T12:22:48Z</time>
      </trkpt>
      <trkpt lat="43.86253" lon="7.25872">
        <ele>848.5007324</ele>
        <time>2009-05-31T12:22:54Z</time>
      </trkpt>
      <trkpt lat="43.86248" lon="7.25861">
        <ele>848.0202637</ele>
        <time>2009-05-31T12:22:57Z</time>
      </trkpt>
      <trkpt lat="43.86236" lon="7.2584">
        <ele>846.0976562</ele>
        <time>2009-05-31T12:23:02Z</time>
      </trkpt>
      <trkpt lat="43.8622" lon="7.25815">
        <ele>844.1750488</ele>
        <time>2009-05-31T12:23:07Z</time>
      </trkpt>
      <trkpt lat="43.86217" lon="7.25811">
        <ele>844.1750488</ele>
        <time>2009-05-31T12:23:08Z</time>
      </trkpt>
      <trkpt lat="43.86211" lon="7.25797">
        <ele>841.2907715</ele>
        <time>2009-05-31T12:23:12Z</time>
      </trkpt>
      <trkpt lat="43.86197" lon="7.25781">
        <ele>838.8876953</ele>
        <time>2009-05-31T12:23:18Z</time>
      </trkpt>
      <trkpt lat="43.86191" lon="7.25772">
        <ele>837.4455566</ele>
        <time>2009-05-31T12:23:20Z</time>
      </trkpt>
      <trkpt lat="43.86188" lon="7.25767">
        <ele>836.9648438</ele>
        <time>2009-05-31T12:23:21Z</time>
      </trkpt>
      <trkpt lat="43.86178" lon="7.25755">
        <ele>834.5617676</ele>
        <time>2009-05-31T12:23:24Z</time>
      </trkpt>
      <trkpt lat="43.86165" lon="7.25731">
        <ele>832.6391602</ele>
        <time>2009-05-31T12:23:29Z</time>
      </trkpt>
      <trkpt lat="43.86152" lon="7.25713">
        <ele>828.3132324</ele>
        <time>2009-05-31T12:23:34Z</time>
      </trkpt>
      <trkpt lat="43.8615" lon="7.2571">
        <ele>826.3903809</ele>
        <time>2009-05-31T12:23:35Z</time>
      </trkpt>
      <trkpt lat="43.8614" lon="7.25704">
        <ele>822.545166</ele>
        <time>2009-05-31T12:23:39Z</time>
      </trkpt>
      <trkpt lat="43.86127" lon="7.25704">
        <ele>820.1418457</ele>
        <time>2009-05-31T12:23:42Z</time>
      </trkpt>
      <trkpt lat="43.86114" lon="7.25702">
        <ele>819.661377</ele>
        <time>2009-05-31T12:23:45Z</time>
      </trkpt>
      <trkpt lat="43.86104" lon="7.25689">
        <ele>818.6999512</ele>
        <time>2009-05-31T12:23:48Z</time>
      </trkpt>
      <trkpt lat="43.86096" lon="7.2568">
        <ele>817.7385254</ele>
        <time>2009-05-31T12:23:50Z</time>
      </trkpt>
      <trkpt lat="43.86076" lon="7.25652">
        <ele>815.3354492</ele>
        <time>2009-05-31T12:23:56Z</time>
      </trkpt>
      <trkpt lat="43.86069" lon="7.25646">
        <ele>812.9321289</ele>
        <time>2009-05-31T12:23:58Z</time>
      </trkpt>
      <trkpt lat="43.86045" lon="7.25639">
        <ele>808.1254883</ele>
        <time>2009-05-31T12:24:03Z</time>
      </trkpt>
      <trkpt lat="43.86019" lon="7.25632">
        <ele>803.7995605</ele>
        <time>2009-05-31T12:24:08Z</time>
      </trkpt>
      <trkpt lat="43.86014" lon="7.25631">
        <ele>803.3188477</ele>
        <time>2009-05-31T12:24:09Z</time>
      </trkpt>
      <trkpt lat="43.86004" lon="7.25622">
        <ele>800.9155273</ele>
        <time>2009-05-31T12:24:12Z</time>
      </trkpt>
      <trkpt lat="43.85986" lon="7.25615">
        <ele>797.0703125</ele>
        <time>2009-05-31T12:24:16Z</time>
      </trkpt>
      <trkpt lat="43.85983" lon="7.25613">
        <ele>797.0703125</ele>
        <time>2009-05-31T12:24:17Z</time>
      </trkpt>
      <trkpt lat="43.85981" lon="7.25604">
        <ele>796.1091309</ele>
        <time>2009-05-31T12:24:19Z</time>
      </trkpt>
      <trkpt lat="43.8598" lon="7.25593">
        <ele>795.1474609</ele>
        <time>2009-05-31T12:24:21Z</time>
      </trkpt>
      <trkpt lat="43.85976" lon="7.25584">
        <ele>794.1862793</ele>
        <time>2009-05-31T12:24:23Z</time>
      </trkpt>
      <trkpt lat="43.85971" lon="7.25579">
        <ele>792.7443848</ele>
        <time>2009-05-31T12:24:25Z</time>
      </trkpt>
      <trkpt lat="43.85953" lon="7.25571">
        <ele>789.3796387</ele>
        <time>2009-05-31T12:24:29Z</time>
      </trkpt>
      <trkpt lat="43.85944" lon="7.25565">
        <ele>788.418457</ele>
        <time>2009-05-31T12:24:31Z</time>
      </trkpt>
      <trkpt lat="43.85942" lon="7.25547">
        <ele>786.9763184</ele>
        <time>2009-05-31T12:24:34Z</time>
      </trkpt>
      <trkpt lat="43.85942" lon="7.25534">
        <ele>786.9763184</ele>
        <time>2009-05-31T12:24:36Z</time>
      </trkpt>
      <trkpt lat="43.85939" lon="7.25517">
        <ele>786.4958496</ele>
        <time>2009-05-31T12:24:40Z</time>
      </trkpt>
      <trkpt lat="43.85922" lon="7.255">
        <ele>786.9763184</ele>
        <time>2009-05-31T12:24:47Z</time>
      </trkpt>
      <trkpt lat="43.85915" lon="7.25494">
        <ele>787.4570312</ele>
        <time>2009-05-31T12:24:50Z</time>
      </trkpt>
      <trkpt lat="43.85906" lon="7.25479">
        <ele>784.0925293</ele>
        <time>2009-05-31T12:24:55Z</time>
      </trkpt>
      <trkpt lat="43.85901" lon="7.25471">
        <ele>783.1311035</ele>
        <time>2009-05-31T12:24:57Z</time>
      </trkpt>
      <trkpt lat="43.85875" lon="7.2545">
        <ele>783.6118164</ele>
        <time>2009-05-31T12:25:02Z</time>
      </trkpt>
      <trkpt lat="43.85861" lon="7.25441">
        <ele>782.6506348</ele>
        <time>2009-05-31T12:25:05Z</time>
      </trkpt>
      <trkpt lat="43.85846" lon="7.25426">
        <ele>784.0925293</ele>
        <time>2009-05-31T12:25:10Z</time>
      </trkpt>
      <trkpt lat="43.85836" lon="7.25407">
        <ele>783.1311035</ele>
        <time>2009-05-31T12:25:15Z</time>
      </trkpt>
      <trkpt lat="43.85822" lon="7.25398">
        <ele>784.5732422</ele>
        <time>2009-05-31T12:25:20Z</time>
      </trkpt>
      <trkpt lat="43.85803" lon="7.25395">
        <ele>784.5732422</ele>
        <time>2009-05-31T12:25:26Z</time>
      </trkpt>
      <trkpt lat="43.85788" lon="7.25394">
        <ele>784.5732422</ele>
        <time>2009-05-31T12:25:32Z</time>
      </trkpt>
      <trkpt lat="43.85778" lon="7.2539">
        <ele>785.0539551</ele>
        <time>2009-05-31T12:25:36Z</time>
      </trkpt>
      <trkpt lat="43.85765" lon="7.25378">
        <ele>783.6118164</ele>
        <time>2009-05-31T12:25:41Z</time>
      </trkpt>
      <trkpt lat="43.85762" lon="7.2538">
        <ele>784.0925293</ele>
        <time>2009-05-31T12:25:42Z</time>
      </trkpt>
      <trkpt lat="43.85741" lon="7.25403">
        <ele>784.5732422</ele>
        <time>2009-05-31T12:25:50Z</time>
      </trkpt>
      <trkpt lat="43.8572" lon="7.25413">
        <ele>785.0539551</ele>
        <time>2009-05-31T12:25:57Z</time>
      </trkpt>
      <trkpt lat="43.8571" lon="7.2541">
        <ele>784.5732422</ele>
        <time>2009-05-31T12:26:01Z</time>
      </trkpt>
      <trkpt lat="43.85694" lon="7.25401">
        <ele>781.689209</ele>
        <time>2009-05-31T12:26:05Z</time>
      </trkpt>
      <trkpt lat="43.85676" lon="7.254">
        <ele>778.8051758</ele>
        <time>2009-05-31T12:26:08Z</time>
      </trkpt>
      <trkpt lat="43.8566" lon="7.25404">
        <ele>777.84375</ele>
        <time>2009-05-31T12:26:12Z</time>
      </trkpt>
      <trkpt lat="43.85653" lon="7.25401">
        <ele>777.3632812</ele>
        <time>2009-05-31T12:26:14Z</time>
      </trkpt>
      <trkpt lat="43.85648" lon="7.25392">
        <ele>777.3632812</ele>
        <time>2009-05-31T12:26:16Z</time>
      </trkpt>
      <trkpt lat="43.85625" lon="7.25388">
        <ele>776.4018555</ele>
        <time>2009-05-31T12:26:21Z</time>
      </trkpt>
      <trkpt lat="43.85619" lon="7.25387">
        <ele>775.4404297</ele>
        <time>2009-05-31T12:26:22Z</time>
      </trkpt>
      <trkpt lat="43.856" lon="7.2538">
        <ele>774.479248</ele>
        <time>2009-05-31T12:26:26Z</time>
      </trkpt>
      <trkpt lat="43.85585" lon="7.25375">
        <ele>772.5566406</ele>
        <time>2009-05-31T12:26:29Z</time>
      </trkpt>
      <trkpt lat="43.85576" lon="7.25375">
        <ele>773.9985352</ele>
        <time>2009-05-31T12:26:31Z</time>
      </trkpt>
      <trkpt lat="43.85564" lon="7.25371">
        <ele>773.9985352</ele>
        <time>2009-05-31T12:26:34Z</time>
      </trkpt>
      <trkpt lat="43.85558" lon="7.25367">
        <ele>773.9985352</ele>
        <time>2009-05-31T12:26:36Z</time>
      </trkpt>
      <trkpt lat="43.85541" lon="7.25361">
        <ele>773.5180664</ele>
        <time>2009-05-31T12:26:40Z</time>
      </trkpt>
      <trkpt lat="43.85521" lon="7.2536">
        <ele>773.5180664</ele>
        <time>2009-05-31T12:26:45Z</time>
      </trkpt>
      <trkpt lat="43.85513" lon="7.25349">
        <ele>772.5566406</ele>
        <time>2009-05-31T12:26:48Z</time>
      </trkpt>
      <trkpt lat="43.85496" lon="7.25341">
        <ele>769.6728516</ele>
        <time>2009-05-31T12:26:52Z</time>
      </trkpt>
      <trkpt lat="43.85474" lon="7.25344">
        <ele>768.7114258</ele>
        <time>2009-05-31T12:26:57Z</time>
      </trkpt>
      <trkpt lat="43.85468" lon="7.2534">
        <ele>768.7114258</ele>
        <time>2009-05-31T12:26:59Z</time>
      </trkpt>
      <trkpt lat="43.85464" lon="7.25332">
        <ele>769.1921387</ele>
        <time>2009-05-31T12:27:01Z</time>
      </trkpt>
      <trkpt lat="43.85447" lon="7.2533">
        <ele>770.6340332</ele>
        <time>2009-05-31T12:27:06Z</time>
      </trkpt>
      <trkpt lat="43.8543" lon="7.25332">
        <ele>771.1147461</ele>
        <time>2009-05-31T12:27:11Z</time>
      </trkpt>
      <trkpt lat="43.85414" lon="7.25326">
        <ele>768.7114258</ele>
        <time>2009-05-31T12:27:15Z</time>
      </trkpt>
      <trkpt lat="43.85385" lon="7.25317">
        <ele>766.7888184</ele>
        <time>2009-05-31T12:27:20Z</time>
      </trkpt>
      <trkpt lat="43.85367" lon="7.2531">
        <ele>765.3469238</ele>
        <time>2009-05-31T12:27:23Z</time>
      </trkpt>
      <trkpt lat="43.85336" lon="7.25306">
        <ele>761.5014648</ele>
        <time>2009-05-31T12:27:28Z</time>
      </trkpt>
      <trkpt lat="43.85329" lon="7.25306">
        <ele>760.5400391</ele>
        <time>2009-05-31T12:27:29Z</time>
      </trkpt>
      <trkpt lat="43.85308" lon="7.2531">
        <ele>759.0981445</ele>
        <time>2009-05-31T12:27:32Z</time>
      </trkpt>
      <trkpt lat="43.85287" lon="7.25318">
        <ele>756.2141113</ele>
        <time>2009-05-31T12:27:35Z</time>
      </trkpt>
      <trkpt lat="43.85264" lon="7.25323">
        <ele>753.3303223</ele>
        <time>2009-05-31T12:27:38Z</time>
      </trkpt>
      <trkpt lat="43.8524" lon="7.25329">
        <ele>749.0043945</ele>
        <time>2009-05-31T12:27:41Z</time>
      </trkpt>
      <trkpt lat="43.85233" lon="7.25331">
        <ele>749.0043945</ele>
        <time>2009-05-31T12:27:42Z</time>
      </trkpt>
      <trkpt lat="43.85227" lon="7.25333">
        <ele>747.5622559</ele>
        <time>2009-05-31T12:27:43Z</time>
      </trkpt>
      <trkpt lat="43.85206" lon="7.25342">
        <ele>744.1977539</ele>
        <time>2009-05-31T12:27:47Z</time>
      </trkpt>
      <trkpt lat="43.85191" lon="7.25339">
        <ele>742.7558594</ele>
        <time>2009-05-31T12:27:50Z</time>
      </trkpt>
      <trkpt lat="43.85187" lon="7.25328">
        <ele>740.8330078</ele>
        <time>2009-05-31T12:27:53Z</time>
      </trkpt>
      <trkpt lat="43.85187" lon="7.25324">
        <ele>740.8330078</ele>
        <time>2009-05-31T12:27:54Z</time>
      </trkpt>
      <trkpt lat="43.85185" lon="7.25318">
        <ele>739.8718262</ele>
        <time>2009-05-31T12:27:56Z</time>
      </trkpt>
      <trkpt lat="43.8517" lon="7.25302">
        <ele>738.9106445</ele>
        <time>2009-05-31T12:28:02Z</time>
      </trkpt>
      <trkpt lat="43.85155" lon="7.25292">
        <ele>737.9492188</ele>
        <time>2009-05-31T12:28:07Z</time>
      </trkpt>
      <trkpt lat="43.85152" lon="7.25289">
        <ele>736.987793</ele>
        <time>2009-05-31T12:28:08Z</time>
      </trkpt>
      <trkpt lat="43.85146" lon="7.2528">
        <ele>735.0654297</ele>
        <time>2009-05-31T12:28:10Z</time>
      </trkpt>
      <trkpt lat="43.85134" lon="7.25263">
        <ele>733.1425781</ele>
        <time>2009-05-31T12:28:14Z</time>
      </trkpt>
      <trkpt lat="43.85124" lon="7.25254">
        <ele>730.7392578</ele>
        <time>2009-05-31T12:28:17Z</time>
      </trkpt>
      <trkpt lat="43.85106" lon="7.25246">
        <ele>727.3747559</ele>
        <time>2009-05-31T12:28:21Z</time>
      </trkpt>
      <trkpt lat="43.85094" lon="7.2524">
        <ele>723.0488281</ele>
        <time>2009-05-31T12:28:24Z</time>
      </trkpt>
      <trkpt lat="43.85091" lon="7.25238">
        <ele>722.5681152</ele>
        <time>2009-05-31T12:28:25Z</time>
      </trkpt>
      <trkpt lat="43.8507" lon="7.25227">
        <ele>719.2036133</ele>
        <time>2009-05-31T12:28:30Z</time>
      </trkpt>
      <trkpt lat="43.85061" lon="7.25218">
        <ele>715.8388672</ele>
        <time>2009-05-31T12:28:33Z</time>
      </trkpt>
      <trkpt lat="43.85055" lon="7.25217">
        <ele>714.8774414</ele>
        <time>2009-05-31T12:28:35Z</time>
      </trkpt>
      <trkpt lat="43.85037" lon="7.25214">
        <ele>712.4741211</ele>
        <time>2009-05-31T12:28:40Z</time>
      </trkpt>
      <trkpt lat="43.85026" lon="7.25208">
        <ele>711.5129395</ele>
        <time>2009-05-31T12:28:43Z</time>
      </trkpt>
      <trkpt lat="43.85013" lon="7.25203">
        <ele>711.0322266</ele>
        <time>2009-05-31T12:28:46Z</time>
      </trkpt>
      <trkpt lat="43.84992" lon="7.25197">
        <ele>710.0708008</ele>
        <time>2009-05-31T12:28:50Z</time>
      </trkpt>
      <trkpt lat="43.84969" lon="7.25192">
        <ele>711.0322266</ele>
        <time>2009-05-31T12:28:55Z</time>
      </trkpt>
      <trkpt lat="43.8496" lon="7.25186">
        <ele>710.5515137</ele>
        <time>2009-05-31T12:28:58Z</time>
      </trkpt>
      <trkpt lat="43.84958" lon="7.25185">
        <ele>711.5129395</ele>
        <time>2009-05-31T12:28:59Z</time>
      </trkpt>
      <trkpt lat="43.84938" lon="7.25179">
        <ele>711.0322266</ele>
        <time>2009-05-31T12:29:07Z</time>
      </trkpt>
      <trkpt lat="43.84925" lon="7.25176">
        <ele>711.5129395</ele>
        <time>2009-05-31T12:29:11Z</time>
      </trkpt>
      <trkpt lat="43.84917" lon="7.25172">
        <ele>711.5129395</ele>
        <time>2009-05-31T12:29:14Z</time>
      </trkpt>
      <trkpt lat="43.84906" lon="7.25168">
        <ele>709.590332</ele>
        <time>2009-05-31T12:29:18Z</time>
      </trkpt>
      <trkpt lat="43.84902" lon="7.25161">
        <ele>707.1870117</ele>
        <time>2009-05-31T12:29:20Z</time>
      </trkpt>
      <trkpt lat="43.84896" lon="7.25156">
        <ele>705.2644043</ele>
        <time>2009-05-31T12:29:22Z</time>
      </trkpt>
      <trkpt lat="43.84889" lon="7.25142">
        <ele>701.8999023</ele>
        <time>2009-05-31T12:29:26Z</time>
      </trkpt>
      <trkpt lat="43.84886" lon="7.25134">
        <ele>700.4580078</ele>
        <time>2009-05-31T12:29:28Z</time>
      </trkpt>
      <trkpt lat="43.84883" lon="7.25123">
        <ele>698.0544434</ele>
        <time>2009-05-31T12:29:30Z</time>
      </trkpt>
      <trkpt lat="43.8487" lon="7.25112">
        <ele>694.2092285</ele>
        <time>2009-05-31T12:29:34Z</time>
      </trkpt>
      <trkpt lat="43.8487" lon="7.25108">
        <ele>692.767334</ele>
        <time>2009-05-31T12:29:35Z</time>
      </trkpt>
      <trkpt lat="43.84861" lon="7.25088">
        <ele>684.5961914</ele>
        <time>2009-05-31T12:29:40Z</time>
      </trkpt>
      <trkpt lat="43.84852" lon="7.25084">
        <ele>683.6345215</ele>
        <time>2009-05-31T12:29:42Z</time>
      </trkpt>
      <trkpt lat="43.84834" lon="7.25085">
        <ele>684.1154785</ele>
        <time>2009-05-31T12:29:46Z</time>
      </trkpt>
      <trkpt lat="43.84821" lon="7.25081">
        <ele>680.7507324</ele>
        <time>2009-05-31T12:29:49Z</time>
      </trkpt>
      <trkpt lat="43.8481" lon="7.25069">
        <ele>676.4248047</ele>
        <time>2009-05-31T12:29:52Z</time>
      </trkpt>
      <trkpt lat="43.84796" lon="7.25058">
        <ele>674.5021973</ele>
        <time>2009-05-31T12:29:55Z</time>
      </trkpt>
      <trkpt lat="43.84779" lon="7.25051">
        <ele>672.098877</ele>
        <time>2009-05-31T12:29:58Z</time>
      </trkpt>
      <trkpt lat="43.84776" lon="7.2506">
        <ele>669.6958008</ele>
        <time>2009-05-31T12:30:00Z</time>
      </trkpt>
      <trkpt lat="43.84773" lon="7.25066">
        <ele>667.7727051</ele>
        <time>2009-05-31T12:30:01Z</time>
      </trkpt>
      <trkpt lat="43.84767" lon="7.25079">
        <ele>667.7727051</ele>
        <time>2009-05-31T12:30:03Z</time>
      </trkpt>
      <trkpt lat="43.84761" lon="7.25089">
        <ele>666.8115234</ele>
        <time>2009-05-31T12:30:05Z</time>
      </trkpt>
      <trkpt lat="43.8475" lon="7.25096">
        <ele>665.8503418</ele>
        <time>2009-05-31T12:30:08Z</time>
      </trkpt>
      <trkpt lat="43.84733" lon="7.25109">
        <ele>667.7727051</ele>
        <time>2009-05-31T12:30:14Z</time>
      </trkpt>
      <trkpt lat="43.84721" lon="7.25121">
        <ele>670.1762695</ele>
        <time>2009-05-31T12:30:19Z</time>
      </trkpt>
      <trkpt lat="43.84719" lon="7.25123">
        <ele>669.6958008</ele>
        <time>2009-05-31T12:30:20Z</time>
      </trkpt>
      <trkpt lat="43.8471" lon="7.25133">
        <ele>669.6958008</ele>
        <time>2009-05-31T12:30:24Z</time>
      </trkpt>
      <trkpt lat="43.84691" lon="7.25131">
        <ele>671.1376953</ele>
        <time>2009-05-31T12:30:30Z</time>
      </trkpt>
      <trkpt lat="43.84683" lon="7.25133">
        <ele>671.1376953</ele>
        <time>2009-05-31T12:30:33Z</time>
      </trkpt>
      <trkpt lat="43.84678" lon="7.25135">
        <ele>672.5795898</ele>
        <time>2009-05-31T12:30:35Z</time>
      </trkpt>
      <trkpt lat="43.8467" lon="7.25135">
        <ele>673.0603027</ele>
        <time>2009-05-31T12:30:39Z</time>
      </trkpt>
      <trkpt lat="43.84658" lon="7.25139">
        <ele>673.5410156</ele>
        <time>2009-05-31T12:30:45Z</time>
      </trkpt>
      <trkpt lat="43.84653" lon="7.25141">
        <ele>675.4633789</ele>
        <time>2009-05-31T12:30:48Z</time>
      </trkpt>
      <trkpt lat="43.84647" lon="7.25143">
        <ele>675.4633789</ele>
        <time>2009-05-31T12:30:52Z</time>
      </trkpt>
      <trkpt lat="43.84634" lon="7.25145">
        <ele>674.5021973</ele>
        <time>2009-05-31T12:30:59Z</time>
      </trkpt>
      <trkpt lat="43.84624" lon="7.25149">
        <ele>674.9829102</ele>
        <time>2009-05-31T12:31:05Z</time>
      </trkpt>
      <trkpt lat="43.84616" lon="7.25153">
        <ele>675.4633789</ele>
        <time>2009-05-31T12:31:10Z</time>
      </trkpt>
      <trkpt lat="43.84606" lon="7.25157">
        <ele>675.4633789</ele>
        <time>2009-05-31T12:31:15Z</time>
      </trkpt>
      <trkpt lat="43.84595" lon="7.25163">
        <ele>674.9829102</ele>
        <time>2009-05-31T12:31:20Z</time>
      </trkpt>
      <trkpt lat="43.84593" lon="7.25174">
        <ele>675.4633789</ele>
        <time>2009-05-31T12:31:24Z</time>
      </trkpt>
      <trkpt lat="43.84584" lon="7.25192">
        <ele>675.4633789</ele>
        <time>2009-05-31T12:31:29Z</time>
      </trkpt>
      <trkpt lat="43.84574" lon="7.25203">
        <ele>675.9440918</ele>
        <time>2009-05-31T12:31:34Z</time>
      </trkpt>
      <trkpt lat="43.84562" lon="7.25211">
        <ele>675.4633789</ele>
        <time>2009-05-31T12:31:39Z</time>
      </trkpt>
      <trkpt lat="43.84547" lon="7.25217">
        <ele>674.9829102</ele>
        <time>2009-05-31T12:31:45Z</time>
      </trkpt>
      <trkpt lat="43.84534" lon="7.25225">
        <ele>675.9440918</ele>
        <time>2009-05-31T12:31:50Z</time>
      </trkpt>
      <trkpt lat="43.84515" lon="7.25231">
        <ele>675.9440918</ele>
        <time>2009-05-31T12:31:57Z</time>
      </trkpt>
      <trkpt lat="43.84513" lon="7.25233">
        <ele>676.4248047</ele>
        <time>2009-05-31T12:31:58Z</time>
      </trkpt>
      <trkpt lat="43.845" lon="7.25238">
        <ele>675.4633789</ele>
        <time>2009-05-31T12:32:03Z</time>
      </trkpt>
      <trkpt lat="43.84496" lon="7.25238">
        <ele>675.4633789</ele>
        <time>2009-05-31T12:32:04Z</time>
      </trkpt>
      <trkpt lat="43.84483" lon="7.25234">
        <ele>673.5410156</ele>
        <time>2009-05-31T12:32:07Z</time>
      </trkpt>
      <trkpt lat="43.84474" lon="7.25232">
        <ele>674.5021973</ele>
        <time>2009-05-31T12:32:09Z</time>
      </trkpt>
      <trkpt lat="43.84455" lon="7.2522">
        <ele>673.0603027</ele>
        <time>2009-05-31T12:32:14Z</time>
      </trkpt>
      <trkpt lat="43.84446" lon="7.25215">
        <ele>671.6181641</ele>
        <time>2009-05-31T12:32:16Z</time>
      </trkpt>
      <trkpt lat="43.8443" lon="7.25209">
        <ele>672.098877</ele>
        <time>2009-05-31T12:32:20Z</time>
      </trkpt>
      <trkpt lat="43.84405" lon="7.25207">
        <ele>670.6569824</ele>
        <time>2009-05-31T12:32:25Z</time>
      </trkpt>
      <trkpt lat="43.84391" lon="7.25199">
        <ele>669.6958008</ele>
        <time>2009-05-31T12:32:28Z</time>
      </trkpt>
      <trkpt lat="43.84371" lon="7.25196">
        <ele>668.734375</ele>
        <time>2009-05-31T12:32:32Z</time>
      </trkpt>
      <trkpt lat="43.84366" lon="7.25196">
        <ele>668.2536621</ele>
        <time>2009-05-31T12:32:33Z</time>
      </trkpt>
      <trkpt lat="43.84355" lon="7.25195">
        <ele>667.2922363</ele>
        <time>2009-05-31T12:32:35Z</time>
      </trkpt>
      <trkpt lat="43.84345" lon="7.25195">
        <ele>666.3308105</ele>
        <time>2009-05-31T12:32:37Z</time>
      </trkpt>
      <trkpt lat="43.84329" lon="7.25187">
        <ele>662.4855957</ele>
        <time>2009-05-31T12:32:41Z</time>
      </trkpt>
      <trkpt lat="43.84324" lon="7.25185">
        <ele>661.5244141</ele>
        <time>2009-05-31T12:32:42Z</time>
      </trkpt>
      <trkpt lat="43.84296" lon="7.25169">
        <ele>659.6018066</ele>
        <time>2009-05-31T12:32:48Z</time>
      </trkpt>
      <trkpt lat="43.84288" lon="7.25161">
        <ele>658.1599121</ele>
        <time>2009-05-31T12:32:50Z</time>
      </trkpt>
      <trkpt lat="43.84268" lon="7.25141">
        <ele>650.949707</ele>
        <time>2009-05-31T12:32:55Z</time>
      </trkpt>
      <trkpt lat="43.84251" lon="7.25133">
        <ele>647.1044922</ele>
        <time>2009-05-31T12:32:59Z</time>
      </trkpt>
      <trkpt lat="43.84248" lon="7.25133">
        <ele>646.6240234</ele>
        <time>2009-05-31T12:33:00Z</time>
      </trkpt>
      <trkpt lat="43.84247" lon="7.25125">
        <ele>644.7011719</ele>
        <time>2009-05-31T12:33:03Z</time>
      </trkpt>
      <trkpt lat="43.84239" lon="7.25114">
        <ele>642.2980957</ele>
        <time>2009-05-31T12:33:06Z</time>
      </trkpt>
      <trkpt lat="43.8423" lon="7.25108">
        <ele>640.855957</ele>
        <time>2009-05-31T12:33:09Z</time>
      </trkpt>
      <trkpt lat="43.84222" lon="7.25108">
        <ele>640.3754883</ele>
        <time>2009-05-31T12:33:11Z</time>
      </trkpt>
      <trkpt lat="43.84212" lon="7.25098">
        <ele>634.6074219</ele>
        <time>2009-05-31T12:33:15Z</time>
      </trkpt>
      <trkpt lat="43.84205" lon="7.25087">
        <ele>633.6459961</ele>
        <time>2009-05-31T12:33:18Z</time>
      </trkpt>
      <trkpt lat="43.84192" lon="7.25087">
        <ele>632.6848145</ele>
        <time>2009-05-31T12:33:21Z</time>
      </trkpt>
      <trkpt lat="43.84189" lon="7.25085">
        <ele>630.762207</ele>
        <time>2009-05-31T12:33:24Z</time>
      </trkpt>
      <trkpt lat="43.84188" lon="7.25084">
        <ele>630.762207</ele>
        <time>2009-05-31T12:33:26Z</time>
      </trkpt>
      <trkpt lat="43.84178" lon="7.25069">
        <ele>626.4362793</ele>
        <time>2009-05-31T12:33:31Z</time>
      </trkpt>
      <trkpt lat="43.84163" lon="7.25063">
        <ele>624.032959</ele>
        <time>2009-05-31T12:33:34Z</time>
      </trkpt>
      <trkpt lat="43.84147" lon="7.25056">
        <ele>620.668457</ele>
        <time>2009-05-31T12:33:38Z</time>
      </trkpt>
      <trkpt lat="43.84135" lon="7.2505">
        <ele>617.7841797</ele>
        <time>2009-05-31T12:33:41Z</time>
      </trkpt>
      <trkpt lat="43.84124" lon="7.25034">
        <ele>613.9389648</ele>
        <time>2009-05-31T12:33:45Z</time>
      </trkpt>
      <trkpt lat="43.84121" lon="7.25024">
        <ele>611.0551758</ele>
        <time>2009-05-31T12:33:48Z</time>
      </trkpt>
      <trkpt lat="43.84113" lon="7.25022">
        <ele>608.1713867</ele>
        <time>2009-05-31T12:33:51Z</time>
      </trkpt>
      <trkpt lat="43.84105" lon="7.25022">
        <ele>606.729248</ele>
        <time>2009-05-31T12:33:54Z</time>
      </trkpt>
      <trkpt lat="43.84107" lon="7.25011">
        <ele>604.8066406</ele>
        <time>2009-05-31T12:33:57Z</time>
      </trkpt>
      <trkpt lat="43.84103" lon="7.25002">
        <ele>600.4807129</ele>
        <time>2009-05-31T12:34:00Z</time>
      </trkpt>
      <trkpt lat="43.84101" lon="7.24991">
        <ele>597.1159668</ele>
        <time>2009-05-31T12:34:03Z</time>
      </trkpt>
      <trkpt lat="43.84094" lon="7.24982">
        <ele>592.7902832</ele>
        <time>2009-05-31T12:34:06Z</time>
      </trkpt>
      <trkpt lat="43.84087" lon="7.24968">
        <ele>589.4255371</ele>
        <time>2009-05-31T12:34:10Z</time>
      </trkpt>
      <trkpt lat="43.84079" lon="7.24951">
        <ele>584.6188965</ele>
        <time>2009-05-31T12:34:14Z</time>
      </trkpt>
      <trkpt lat="43.8407" lon="7.24939">
        <ele>580.7736816</ele>
        <time>2009-05-31T12:34:17Z</time>
      </trkpt>
      <trkpt lat="43.84065" lon="7.24924">
        <ele>577.8896484</ele>
        <time>2009-05-31T12:34:20Z</time>
      </trkpt>
      <trkpt lat="43.8406" lon="7.24915">
        <ele>575.967041</ele>
        <time>2009-05-31T12:34:23Z</time>
      </trkpt>
      <trkpt lat="43.84056" lon="7.24907">
        <ele>573.083252</ele>
        <time>2009-05-31T12:34:26Z</time>
      </trkpt>
      <trkpt lat="43.8405" lon="7.24903">
        <ele>571.6408691</ele>
        <time>2009-05-31T12:34:28Z</time>
      </trkpt>
      <trkpt lat="43.84045" lon="7.24896">
        <ele>569.237793</ele>
        <time>2009-05-31T12:34:30Z</time>
      </trkpt>
      <trkpt lat="43.84025" lon="7.24879">
        <ele>567.3151855</ele>
        <time>2009-05-31T12:34:35Z</time>
      </trkpt>
      <trkpt lat="43.84019" lon="7.24877">
        <ele>565.3925781</ele>
        <time>2009-05-31T12:34:38Z</time>
      </trkpt>
      <trkpt lat="43.84018" lon="7.24876">
        <ele>565.3925781</ele>
        <time>2009-05-31T12:34:42Z</time>
      </trkpt>
      <trkpt lat="43.84018" lon="7.24876">
        <ele>565.3925781</ele>
        <time>2009-05-31T12:34:44Z</time>
      </trkpt>
      <trkpt lat="43.84021" lon="7.24869">
        <ele>562.0280762</ele>
        <time>2009-05-31T12:34:48Z</time>
      </trkpt>
      <trkpt lat="43.84022" lon="7.24864">
        <ele>562.0280762</ele>
        <time>2009-05-31T12:34:49Z</time>
      </trkpt>
      <trkpt lat="43.84023" lon="7.24851">
        <ele>561.0666504</ele>
        <time>2009-05-31T12:34:51Z</time>
      </trkpt>
      <trkpt lat="43.84023" lon="7.2484">
        <ele>560.1052246</ele>
        <time>2009-05-31T12:34:53Z</time>
      </trkpt>
      <trkpt lat="43.84017" lon="7.2484">
        <ele>559.6247559</ele>
        <time>2009-05-31T12:34:56Z</time>
      </trkpt>
      <trkpt lat="43.84016" lon="7.24844">
        <ele>559.144043</ele>
        <time>2009-05-31T12:34:57Z</time>
      </trkpt>
      <trkpt lat="43.84006" lon="7.24871">
        <ele>559.6247559</ele>
        <time>2009-05-31T12:35:03Z</time>
      </trkpt>
      <trkpt lat="43.84006" lon="7.24876">
        <ele>561.0666504</ele>
        <time>2009-05-31T12:35:08Z</time>
      </trkpt>
      <trkpt lat="43.84009" lon="7.2489">
        <ele>560.5859375</ele>
        <time>2009-05-31T12:35:17Z</time>
      </trkpt>
      <trkpt lat="43.8401" lon="7.24903">
        <ele>561.5473633</ele>
        <time>2009-05-31T12:35:25Z</time>
      </trkpt>
      <trkpt lat="43.84012" lon="7.24911">
        <ele>561.5473633</ele>
        <time>2009-05-31T12:35:30Z</time>
      </trkpt>
      <trkpt lat="43.84015" lon="7.24931">
        <ele>560.5859375</ele>
        <time>2009-05-31T12:35:35Z</time>
      </trkpt>
      <trkpt lat="43.84019" lon="7.24955">
        <ele>558.1828613</ele>
        <time>2009-05-31T12:35:40Z</time>
      </trkpt>
      <trkpt lat="43.84018" lon="7.2498">
        <ele>555.298584</ele>
        <time>2009-05-31T12:35:44Z</time>
      </trkpt>
      <trkpt lat="43.84015" lon="7.24985">
        <ele>554.3374023</ele>
        <time>2009-05-31T12:35:46Z</time>
      </trkpt>
      <trkpt lat="43.84009" lon="7.24991">
        <ele>553.8566895</ele>
        <time>2009-05-31T12:35:52Z</time>
      </trkpt>
      <trkpt lat="43.84002" lon="7.25007">
        <ele>553.8566895</ele>
        <time>2009-05-31T12:35:56Z</time>
      </trkpt>
      <trkpt lat="43.83995" lon="7.25029">
        <ele>553.8566895</ele>
        <time>2009-05-31T12:36:02Z</time>
      </trkpt>
      <trkpt lat="43.83994" lon="7.25036">
        <ele>552.8952637</ele>
        <time>2009-05-31T12:36:04Z</time>
      </trkpt>
      <trkpt lat="43.83999" lon="7.25055">
        <ele>551.4533691</ele>
        <time>2009-05-31T12:36:08Z</time>
      </trkpt>
      <trkpt lat="43.84" lon="7.2506">
        <ele>551.4533691</ele>
        <time>2009-05-31T12:36:14Z</time>
      </trkpt>
      <trkpt lat="43.84003" lon="7.25066">
        <ele>550.4921875</ele>
        <time>2009-05-31T12:36:40Z</time>
      </trkpt>
      <trkpt lat="43.84002" lon="7.25071">
        <ele>550.0114746</ele>
        <time>2009-05-31T12:36:45Z</time>
      </trkpt>
      <trkpt lat="43.83997" lon="7.2507">
        <ele>550.4921875</ele>
        <time>2009-05-31T12:36:51Z</time>
      </trkpt>
      <trkpt lat="43.83996" lon="7.25069">
        <ele>550.9726562</ele>
        <time>2009-05-31T12:36:53Z</time>
      </trkpt>
      <trkpt lat="43.83991" lon="7.25063">
        <ele>553.8566895</ele>
        <time>2009-05-31T12:37:02Z</time>
      </trkpt>
      <trkpt lat="43.83987" lon="7.25062">
        <ele>554.8178711</ele>
        <time>2009-05-31T12:37:09Z</time>
      </trkpt>
      <trkpt lat="43.83984" lon="7.25059">
        <ele>556.7407227</ele>
        <time>2009-05-31T12:37:16Z</time>
      </trkpt>
      <trkpt lat="43.83982" lon="7.25057">
        <ele>557.2214355</ele>
        <time>2009-05-31T12:37:20Z</time>
      </trkpt>
      <trkpt lat="43.83978" lon="7.25054">
        <ele>558.1828613</ele>
        <time>2009-05-31T12:37:27Z</time>
      </trkpt>
      <trkpt lat="43.83976" lon="7.25046">
        <ele>559.6247559</ele>
        <time>2009-05-31T12:37:34Z</time>
      </trkpt>
      <trkpt lat="43.83969" lon="7.25035">
        <ele>560.5859375</ele>
        <time>2009-05-31T12:37:41Z</time>
      </trkpt>
      <trkpt lat="43.83967" lon="7.25025">
        <ele>561.5473633</ele>
        <time>2009-05-31T12:37:49Z</time>
      </trkpt>
      <trkpt lat="43.83965" lon="7.25014">
        <ele>562.9892578</ele>
        <time>2009-05-31T12:37:56Z</time>
      </trkpt>
      <trkpt lat="43.83961" lon="7.25007">
        <ele>563.9504395</ele>
        <time>2009-05-31T12:38:02Z</time>
      </trkpt>
      <trkpt lat="43.83957" lon="7.25002">
        <ele>564.9118652</ele>
        <time>2009-05-31T12:38:09Z</time>
      </trkpt>
      <trkpt lat="43.83953" lon="7.24995">
        <ele>566.8344727</ele>
        <time>2009-05-31T12:38:17Z</time>
      </trkpt>
      <trkpt lat="43.8395" lon="7.24989">
        <ele>568.2763672</ele>
        <time>2009-05-31T12:38:24Z</time>
      </trkpt>
      <trkpt lat="43.83949" lon="7.2499">
        <ele>568.7570801</ele>
        <time>2009-05-31T12:38:30Z</time>
      </trkpt>
      <trkpt lat="43.83951" lon="7.24995">
        <ele>569.237793</ele>
        <time>2009-05-31T12:38:37Z</time>
      </trkpt>
      <trkpt lat="43.83949" lon="7.25002">
        <ele>570.1989746</ele>
        <time>2009-05-31T12:38:45Z</time>
      </trkpt>
      <trkpt lat="43.83947" lon="7.25003">
        <ele>571.1604004</ele>
        <time>2009-05-31T12:38:51Z</time>
      </trkpt>
      <trkpt lat="43.83944" lon="7.24999">
        <ele>573.083252</ele>
        <time>2009-05-31T12:38:58Z</time>
      </trkpt>
      <trkpt lat="43.83942" lon="7.24995">
        <ele>574.5251465</ele>
        <time>2009-05-31T12:39:03Z</time>
      </trkpt>
      <trkpt lat="43.83937" lon="7.2499">
        <ele>575.0058594</ele>
        <time>2009-05-31T12:39:11Z</time>
      </trkpt>
      <trkpt lat="43.83941" lon="7.24998">
        <ele>575.967041</ele>
        <time>2009-05-31T12:39:19Z</time>
      </trkpt>
      <trkpt lat="43.8394" lon="7.25006">
        <ele>577.8896484</ele>
        <time>2009-05-31T12:39:27Z</time>
      </trkpt>
      <trkpt lat="43.83936" lon="7.25003">
        <ele>578.8510742</ele>
        <time>2009-05-31T12:39:34Z</time>
      </trkpt>
      <trkpt lat="43.83931" lon="7.25002">
        <ele>580.2929688</ele>
        <time>2009-05-31T12:39:41Z</time>
      </trkpt>
      <trkpt lat="43.83929" lon="7.24999">
        <ele>581.2543945</ele>
        <time>2009-05-31T12:39:47Z</time>
      </trkpt>
      <trkpt lat="43.83924" lon="7.24995">
        <ele>581.7348633</ele>
        <time>2009-05-31T12:39:55Z</time>
      </trkpt>
      <trkpt lat="43.83918" lon="7.24991">
        <ele>582.2155762</ele>
        <time>2009-05-31T12:40:04Z</time>
      </trkpt>
      <trkpt lat="43.83913" lon="7.24985">
        <ele>584.6188965</ele>
        <time>2009-05-31T12:40:15Z</time>
      </trkpt>
      <trkpt lat="43.8391" lon="7.24985">
        <ele>586.060791</ele>
        <time>2009-05-31T12:40:24Z</time>
      </trkpt>
      <trkpt lat="43.83911" lon="7.2499">
        <ele>587.0219727</ele>
        <time>2009-05-31T12:40:32Z</time>
      </trkpt>
      <trkpt lat="43.83911" lon="7.24996">
        <ele>587.9833984</ele>
        <time>2009-05-31T12:40:39Z</time>
      </trkpt>
      <trkpt lat="43.83908" lon="7.24997">
        <ele>588.9450684</ele>
        <time>2009-05-31T12:40:47Z</time>
      </trkpt>
      <trkpt lat="43.83906" lon="7.24994">
        <ele>590.3869629</ele>
        <time>2009-05-31T12:40:55Z</time>
      </trkpt>
      <trkpt lat="43.83903" lon="7.24993">
        <ele>591.3481445</ele>
        <time>2009-05-31T12:41:04Z</time>
      </trkpt>
      <trkpt lat="43.839" lon="7.24993">
        <ele>591.3481445</ele>
        <time>2009-05-31T12:41:10Z</time>
      </trkpt>
      <trkpt lat="43.83897" lon="7.24993">
        <ele>592.3095703</ele>
        <time>2009-05-31T12:41:17Z</time>
      </trkpt>
      <trkpt lat="43.83897" lon="7.24996">
        <ele>593.7514648</ele>
        <time>2009-05-31T12:41:23Z</time>
      </trkpt>
      <trkpt lat="43.83897" lon="7.25">
        <ele>595.1933594</ele>
        <time>2009-05-31T12:41:30Z</time>
      </trkpt>
      <trkpt lat="43.83895" lon="7.25002">
        <ele>595.6740723</ele>
        <time>2009-05-31T12:41:38Z</time>
      </trkpt>
      <trkpt lat="43.83893" lon="7.25006">
        <ele>596.635498</ele>
        <time>2009-05-31T12:41:46Z</time>
      </trkpt>
      <trkpt lat="43.83895" lon="7.25009">
        <ele>598.0773926</ele>
        <time>2009-05-31T12:41:52Z</time>
      </trkpt>
      <trkpt lat="43.839" lon="7.25019">
        <ele>599.5192871</ele>
        <time>2009-05-31T12:42:02Z</time>
      </trkpt>
      <trkpt lat="43.839" lon="7.25027">
        <ele>600.9611816</ele>
        <time>2009-05-31T12:42:10Z</time>
      </trkpt>
      <trkpt lat="43.839" lon="7.25032">
        <ele>601.4418945</ele>
        <time>2009-05-31T12:42:20Z</time>
      </trkpt>
      <trkpt lat="43.83898" lon="7.25034">
        <ele>602.4030762</ele>
        <time>2009-05-31T12:42:28Z</time>
      </trkpt>
      <trkpt lat="43.83897" lon="7.25033">
        <ele>603.364502</ele>
        <time>2009-05-31T12:42:30Z</time>
      </trkpt>
      <trkpt lat="43.83894" lon="7.25029">
        <ele>604.3261719</ele>
        <time>2009-05-31T12:42:38Z</time>
      </trkpt>
      <trkpt lat="43.83892" lon="7.25026">
        <ele>604.3261719</ele>
        <time>2009-05-31T12:42:43Z</time>
      </trkpt>
      <trkpt lat="43.8389" lon="7.25024">
        <ele>604.8066406</ele>
        <time>2009-05-31T12:42:48Z</time>
      </trkpt>
      <trkpt lat="43.83889" lon="7.25023">
        <ele>604.3261719</ele>
        <time>2009-05-31T12:42:55Z</time>
      </trkpt>
      <trkpt lat="43.83889" lon="7.25022">
        <ele>604.8066406</ele>
        <time>2009-05-31T12:43:15Z</time>
      </trkpt>
      <trkpt lat="43.83882" lon="7.25014">
        <ele>604.8066406</ele>
        <time>2009-05-31T12:43:22Z</time>
      </trkpt>
      <trkpt lat="43.83881" lon="7.25012">
        <ele>604.3261719</ele>
        <time>2009-05-31T12:43:23Z</time>
      </trkpt>
      <trkpt lat="43.83865" lon="7.25004">
        <ele>603.364502</ele>
        <time>2009-05-31T12:43:30Z</time>
      </trkpt>
      <trkpt lat="43.83852" lon="7.24999">
        <ele>603.364502</ele>
        <time>2009-05-31T12:43:35Z</time>
      </trkpt>
      <trkpt lat="43.83837" lon="7.24993">
        <ele>602.8837891</ele>
        <time>2009-05-31T12:43:40Z</time>
      </trkpt>
      <trkpt lat="43.8382" lon="7.24983">
        <ele>600.4807129</ele>
        <time>2009-05-31T12:43:45Z</time>
      </trkpt>
      <trkpt lat="43.83812" lon="7.24982">
        <ele>600.4807129</ele>
        <time>2009-05-31T12:43:48Z</time>
      </trkpt>
      <trkpt lat="43.83796" lon="7.24988">
        <ele>600.4807129</ele>
        <time>2009-05-31T12:43:54Z</time>
      </trkpt>
      <trkpt lat="43.83782" lon="7.24988">
        <ele>597.5966797</ele>
        <time>2009-05-31T12:43:59Z</time>
      </trkpt>
      <trkpt lat="43.8377" lon="7.24997">
        <ele>597.1159668</ele>
        <time>2009-05-31T12:44:05Z</time>
      </trkpt>
      <trkpt lat="43.83757" lon="7.24996">
        <ele>593.7514648</ele>
        <time>2009-05-31T12:44:10Z</time>
      </trkpt>
      <trkpt lat="43.83752" lon="7.24995">
        <ele>592.3095703</ele>
        <time>2009-05-31T12:44:12Z</time>
      </trkpt>
      <trkpt lat="43.83742" lon="7.24989">
        <ele>587.9833984</ele>
        <time>2009-05-31T12:44:16Z</time>
      </trkpt>
      <trkpt lat="43.83733" lon="7.24986">
        <ele>585.0996094</ele>
        <time>2009-05-31T12:44:19Z</time>
      </trkpt>
      <trkpt lat="43.83727" lon="7.24988">
        <ele>584.1381836</ele>
        <time>2009-05-31T12:44:21Z</time>
      </trkpt>
      <trkpt lat="43.83718" lon="7.2499">
        <ele>582.6962891</ele>
        <time>2009-05-31T12:44:24Z</time>
      </trkpt>
      <trkpt lat="43.83706" lon="7.2499">
        <ele>580.2929688</ele>
        <time>2009-05-31T12:44:27Z</time>
      </trkpt>
      <trkpt lat="43.83693" lon="7.24986">
        <ele>576.4477539</ele>
        <time>2009-05-31T12:44:32Z</time>
      </trkpt>
      <trkpt lat="43.8369" lon="7.24986">
        <ele>575.967041</ele>
        <time>2009-05-31T12:44:33Z</time>
      </trkpt>
      <trkpt lat="43.83684" lon="7.24985">
        <ele>574.0444336</ele>
        <time>2009-05-31T12:44:35Z</time>
      </trkpt>
      <trkpt lat="43.83676" lon="7.24982">
        <ele>569.7185059</ele>
        <time>2009-05-31T12:44:38Z</time>
      </trkpt>
      <trkpt lat="43.83667" lon="7.24979">
        <ele>566.8344727</ele>
        <time>2009-05-31T12:44:42Z</time>
      </trkpt>
      <trkpt lat="43.83664" lon="7.24978">
        <ele>564.9118652</ele>
        <time>2009-05-31T12:44:45Z</time>
      </trkpt>
      <trkpt lat="43.83661" lon="7.24983">
        <ele>562.9892578</ele>
        <time>2009-05-31T12:44:49Z</time>
      </trkpt>
      <trkpt lat="43.83655" lon="7.24987">
        <ele>559.6247559</ele>
        <time>2009-05-31T12:44:52Z</time>
      </trkpt>
      <trkpt lat="43.83648" lon="7.24995">
        <ele>556.7407227</ele>
        <time>2009-05-31T12:44:55Z</time>
      </trkpt>
      <trkpt lat="43.83642" lon="7.25002">
        <ele>555.7792969</ele>
        <time>2009-05-31T12:44:58Z</time>
      </trkpt>
      <trkpt lat="43.83635" lon="7.25005">
        <ele>552.8952637</ele>
        <time>2009-05-31T12:45:01Z</time>
      </trkpt>
      <trkpt lat="43.83633" lon="7.2499">
        <ele>549.0500488</ele>
        <time>2009-05-31T12:45:05Z</time>
      </trkpt>
      <trkpt lat="43.83634" lon="7.24986">
        <ele>549.0500488</ele>
        <time>2009-05-31T12:45:06Z</time>
      </trkpt>
      <trkpt lat="43.83632" lon="7.24968">
        <ele>545.204834</ele>
        <time>2009-05-31T12:45:10Z</time>
      </trkpt>
      <trkpt lat="43.83629" lon="7.24959">
        <ele>541.84021</ele>
        <time>2009-05-31T12:45:13Z</time>
      </trkpt>
      <trkpt lat="43.83627" lon="7.24961">
        <ele>541.84021</ele>
        <time>2009-05-31T12:45:16Z</time>
      </trkpt>
      <trkpt lat="43.83625" lon="7.24978">
        <ele>543.2821045</ele>
        <time>2009-05-31T12:45:24Z</time>
      </trkpt>
      <trkpt lat="43.83623" lon="7.24988">
        <ele>544.2436523</ele>
        <time>2009-05-31T12:45:30Z</time>
      </trkpt>
      <trkpt lat="43.83622" lon="7.24994">
        <ele>543.7628174</ele>
        <time>2009-05-31T12:45:34Z</time>
      </trkpt>
      <trkpt lat="43.83618" lon="7.25003">
        <ele>543.2821045</ele>
        <time>2009-05-31T12:45:39Z</time>
      </trkpt>
      <trkpt lat="43.83617" lon="7.25012">
        <ele>544.2436523</ele>
        <time>2009-05-31T12:45:44Z</time>
      </trkpt>
      <trkpt lat="43.83615" lon="7.25023">
        <ele>545.6855469</ele>
        <time>2009-05-31T12:45:51Z</time>
      </trkpt>
      <trkpt lat="43.83615" lon="7.25035">
        <ele>547.6081543</ele>
        <time>2009-05-31T12:46:00Z</time>
      </trkpt>
      <trkpt lat="43.83614" lon="7.25043">
        <ele>547.1274414</ele>
        <time>2009-05-31T12:46:06Z</time>
      </trkpt>
      <trkpt lat="43.83614" lon="7.25052">
        <ele>546.1662598</ele>
        <time>2009-05-31T12:46:10Z</time>
      </trkpt>
      <trkpt lat="43.83615" lon="7.25076">
        <ele>547.6081543</ele>
        <time>2009-05-31T12:46:17Z</time>
      </trkpt>
      <trkpt lat="43.83616" lon="7.25096">
        <ele>548.0888672</ele>
        <time>2009-05-31T12:46:23Z</time>
      </trkpt>
      <trkpt lat="43.83611" lon="7.25114">
        <ele>547.6081543</ele>
        <time>2009-05-31T12:46:28Z</time>
      </trkpt>
      <trkpt lat="43.83609" lon="7.25128">
        <ele>547.6081543</ele>
        <time>2009-05-31T12:46:33Z</time>
      </trkpt>
      <trkpt lat="43.83606" lon="7.25147">
        <ele>548.5693359</ele>
        <time>2009-05-31T12:46:39Z</time>
      </trkpt>
      <trkpt lat="43.83605" lon="7.25151">
        <ele>548.5693359</ele>
        <time>2009-05-31T12:46:45Z</time>
      </trkpt>
      <trkpt lat="43.83604" lon="7.25153">
        <ele>547.6081543</ele>
        <time>2009-05-31T12:46:51Z</time>
      </trkpt>
      <trkpt lat="43.83604" lon="7.25154">
        <ele>545.6855469</ele>
        <time>2009-05-31T12:46:58Z</time>
      </trkpt>
      <trkpt lat="43.83603" lon="7.25156">
        <ele>544.2436523</ele>
        <time>2009-05-31T12:47:06Z</time>
      </trkpt>
      <trkpt lat="43.83601" lon="7.25157">
        <ele>543.7628174</ele>
        <time>2009-05-31T12:47:11Z</time>
      </trkpt>
      <trkpt lat="43.83598" lon="7.25157">
        <ele>543.2821045</ele>
        <time>2009-05-31T12:47:18Z</time>
      </trkpt>
      <trkpt lat="43.83599" lon="7.25156">
        <ele>541.3594971</ele>
        <time>2009-05-31T12:47:26Z</time>
      </trkpt>
      <trkpt lat="43.836" lon="7.25152">
        <ele>539.9176025</ele>
        <time>2009-05-31T12:47:32Z</time>
      </trkpt>
      <trkpt lat="43.836" lon="7.2515">
        <ele>538.475708</ele>
        <time>2009-05-31T12:47:37Z</time>
      </trkpt>
      <trkpt lat="43.836" lon="7.25149">
        <ele>537.5142822</ele>
        <time>2009-05-31T12:47:38Z</time>
      </trkpt>
      <trkpt lat="43.83596" lon="7.2514">
        <ele>535.1109619</ele>
        <time>2009-05-31T12:47:44Z</time>
      </trkpt>
      <trkpt lat="43.83596" lon="7.25138">
        <ele>534.6303711</ele>
        <time>2009-05-31T12:47:46Z</time>
      </trkpt>
      <trkpt lat="43.83594" lon="7.25128">
        <ele>534.6303711</ele>
        <time>2009-05-31T12:47:50Z</time>
      </trkpt>
      <trkpt lat="43.83593" lon="7.25123">
        <ele>531.2657471</ele>
        <time>2009-05-31T12:47:52Z</time>
      </trkpt>
      <trkpt lat="43.83591" lon="7.25108">
        <ele>527.4204102</ele>
        <time>2009-05-31T12:47:57Z</time>
      </trkpt>
      <trkpt lat="43.83587" lon="7.25094">
        <ele>521.6525879</ele>
        <time>2009-05-31T12:48:00Z</time>
      </trkpt>
      <trkpt lat="43.83585" lon="7.2509">
        <ele>522.1331787</ele>
        <time>2009-05-31T12:48:01Z</time>
      </trkpt>
      <trkpt lat="43.83583" lon="7.25086">
        <ele>520.2105713</ele>
        <time>2009-05-31T12:48:02Z</time>
      </trkpt>
      <trkpt lat="43.83586" lon="7.25088">
        <ele>518.7685547</ele>
        <time>2009-05-31T12:48:06Z</time>
      </trkpt>
      <trkpt lat="43.83585" lon="7.25083">
        <ele>518.2878418</ele>
        <time>2009-05-31T12:48:12Z</time>
      </trkpt>
      <trkpt lat="43.83584" lon="7.2508">
        <ele>517.807251</ele>
        <time>2009-05-31T12:48:15Z</time>
      </trkpt>
      <trkpt lat="43.83581" lon="7.25074">
        <ele>517.807251</ele>
        <time>2009-05-31T12:48:21Z</time>
      </trkpt>
      <trkpt lat="43.83578" lon="7.25073">
        <ele>516.3652344</ele>
        <time>2009-05-31T12:48:29Z</time>
      </trkpt>
      <trkpt lat="43.83579" lon="7.25063">
        <ele>513.0007324</ele>
        <time>2009-05-31T12:49:01Z</time>
      </trkpt>
      <trkpt lat="43.83571" lon="7.25048">
        <ele>511.5587158</ele>
        <time>2009-05-31T12:49:05Z</time>
      </trkpt>
      <trkpt lat="43.83568" lon="7.25052">
        <ele>511.5587158</ele>
        <time>2009-05-31T12:49:09Z</time>
      </trkpt>
      <trkpt lat="43.83569" lon="7.25047">
        <ele>508.1940918</ele>
        <time>2009-05-31T12:49:28Z</time>
      </trkpt>
      <trkpt lat="43.83566" lon="7.25045">
        <ele>507.2327881</ele>
        <time>2009-05-31T12:49:33Z</time>
      </trkpt>
      <trkpt lat="43.83561" lon="7.25039">
        <ele>505.3101807</ele>
        <time>2009-05-31T12:50:00Z</time>
      </trkpt>
      <trkpt lat="43.8356" lon="7.25034">
        <ele>501.9455566</ele>
        <time>2009-05-31T12:50:07Z</time>
      </trkpt>
      <trkpt lat="43.83553" lon="7.25028">
        <ele>500.9841309</ele>
        <time>2009-05-31T12:50:30Z</time>
      </trkpt>
      <trkpt lat="43.83553" lon="7.25028">
        <ele>500.50354</ele>
        <time>2009-05-31T12:50:35Z</time>
      </trkpt>
      <trkpt lat="43.83551" lon="7.25028">
        <ele>501.9455566</ele>
        <time>2009-05-31T12:50:41Z</time>
      </trkpt>
      <trkpt lat="43.83551" lon="7.25028">
        <ele>501.9455566</ele>
        <time>2009-05-31T12:50:42Z</time>
      </trkpt>
      <trkpt lat="43.83549" lon="7.25029">
        <ele>503.8681641</ele>
        <time>2009-05-31T12:50:49Z</time>
      </trkpt>
      <trkpt lat="43.83547" lon="7.25028">
        <ele>503.8681641</ele>
        <time>2009-05-31T12:50:55Z</time>
      </trkpt>
      <trkpt lat="43.83544" lon="7.25022">
        <ele>506.7520752</ele>
        <time>2009-05-31T12:51:16Z</time>
      </trkpt>
      <trkpt lat="43.83544" lon="7.2502">
        <ele>507.2327881</ele>
        <time>2009-05-31T12:51:20Z</time>
      </trkpt>
      <trkpt lat="43.83544" lon="7.25018">
        <ele>508.1940918</ele>
        <time>2009-05-31T12:51:26Z</time>
      </trkpt>
      <trkpt lat="43.83543" lon="7.25018">
        <ele>508.6746826</ele>
        <time>2009-05-31T12:51:33Z</time>
      </trkpt>
      <trkpt lat="43.83546" lon="7.25016">
        <ele>509.1553955</ele>
        <time>2009-05-31T12:51:38Z</time>
      </trkpt>
      <trkpt lat="43.83548" lon="7.25011">
        <ele>509.6361084</ele>
        <time>2009-05-31T12:51:44Z</time>
      </trkpt>
      <trkpt lat="43.83548" lon="7.25008">
        <ele>510.59729</ele>
        <time>2009-05-31T12:51:47Z</time>
      </trkpt>
      <trkpt lat="43.83549" lon="7.25003">
        <ele>511.5587158</ele>
        <time>2009-05-31T12:51:52Z</time>
      </trkpt>
      <trkpt lat="43.8355" lon="7.24996">
        <ele>513.9620361</ele>
        <time>2009-05-31T12:52:01Z</time>
      </trkpt>
      <trkpt lat="43.83552" lon="7.24993">
        <ele>513.0007324</ele>
        <time>2009-05-31T12:52:22Z</time>
      </trkpt>
      <trkpt lat="43.83549" lon="7.2499">
        <ele>513.4814453</ele>
        <time>2009-05-31T12:52:28Z</time>
      </trkpt>
      <trkpt lat="43.83548" lon="7.24987">
        <ele>515.4040527</ele>
        <time>2009-05-31T12:52:34Z</time>
      </trkpt>
      <trkpt lat="43.83546" lon="7.24983">
        <ele>516.8459473</ele>
        <time>2009-05-31T12:52:42Z</time>
      </trkpt>
      <trkpt lat="43.83544" lon="7.24979">
        <ele>519.7298584</ele>
        <time>2009-05-31T12:52:50Z</time>
      </trkpt>
      <trkpt lat="43.83544" lon="7.24973">
        <ele>520.2105713</ele>
        <time>2009-05-31T12:52:56Z</time>
      </trkpt>
      <trkpt lat="43.83543" lon="7.24965">
        <ele>520.2105713</ele>
        <time>2009-05-31T12:53:03Z</time>
      </trkpt>
      <trkpt lat="43.83542" lon="7.24961">
        <ele>520.6912842</ele>
        <time>2009-05-31T12:53:07Z</time>
      </trkpt>
      <trkpt lat="43.83542" lon="7.24956">
        <ele>521.1719971</ele>
        <time>2009-05-31T12:53:12Z</time>
      </trkpt>
      <trkpt lat="43.83541" lon="7.24953">
        <ele>520.6912842</ele>
        <time>2009-05-31T12:53:18Z</time>
      </trkpt>
      <trkpt lat="43.83543" lon="7.24945">
        <ele>520.6912842</ele>
        <time>2009-05-31T12:53:25Z</time>
      </trkpt>
      <trkpt lat="43.83548" lon="7.2494">
        <ele>520.6912842</ele>
        <time>2009-05-31T12:53:42Z</time>
      </trkpt>
      <trkpt lat="43.83549" lon="7.2493">
        <ele>517.3266602</ele>
        <time>2009-05-31T12:53:46Z</time>
      </trkpt>
      <trkpt lat="43.83548" lon="7.24923">
        <ele>516.3652344</ele>
        <time>2009-05-31T12:53:49Z</time>
      </trkpt>
      <trkpt lat="43.83551" lon="7.24911">
        <ele>514.442627</ele>
        <time>2009-05-31T12:53:55Z</time>
      </trkpt>
      <trkpt lat="43.83549" lon="7.24904">
        <ele>514.442627</ele>
        <time>2009-05-31T12:54:00Z</time>
      </trkpt>
      <trkpt lat="43.83548" lon="7.24895">
        <ele>513.9620361</ele>
        <time>2009-05-31T12:54:06Z</time>
      </trkpt>
      <trkpt lat="43.83549" lon="7.24874">
        <ele>512.0394287</ele>
        <time>2009-05-31T12:54:13Z</time>
      </trkpt>
      <trkpt lat="43.83551" lon="7.24858">
        <ele>513.0007324</ele>
        <time>2009-05-31T12:54:17Z</time>
      </trkpt>
      <trkpt lat="43.8355" lon="7.2485">
        <ele>513.0007324</ele>
        <time>2009-05-31T12:54:19Z</time>
      </trkpt>
      <trkpt lat="43.83547" lon="7.24836">
        <ele>512.0394287</ele>
        <time>2009-05-31T12:54:22Z</time>
      </trkpt>
      <trkpt lat="43.83544" lon="7.24825">
        <ele>510.59729</ele>
        <time>2009-05-31T12:54:24Z</time>
      </trkpt>
      <trkpt lat="43.83538" lon="7.2481">
        <ele>511.5587158</ele>
        <time>2009-05-31T12:54:29Z</time>
      </trkpt>
      <trkpt lat="43.83531" lon="7.24789">
        <ele>512.5200195</ele>
        <time>2009-05-31T12:54:36Z</time>
      </trkpt>
      <trkpt lat="43.83528" lon="7.24779">
        <ele>513.9620361</ele>
        <time>2009-05-31T12:54:40Z</time>
      </trkpt>
      <trkpt lat="43.83523" lon="7.24773">
        <ele>514.9233398</ele>
        <time>2009-05-31T12:54:45Z</time>
      </trkpt>
      <trkpt lat="43.83519" lon="7.24768">
        <ele>515.8846436</ele>
        <time>2009-05-31T12:54:51Z</time>
      </trkpt>
      <trkpt lat="43.83514" lon="7.2476">
        <ele>515.8846436</ele>
        <time>2009-05-31T12:54:58Z</time>
      </trkpt>
      <trkpt lat="43.83509" lon="7.24749">
        <ele>516.3652344</ele>
        <time>2009-05-31T12:55:04Z</time>
      </trkpt>
      <trkpt lat="43.83502" lon="7.24738">
        <ele>517.807251</ele>
        <time>2009-05-31T12:55:10Z</time>
      </trkpt>
      <trkpt lat="43.83492" lon="7.24728">
        <ele>519.2492676</ele>
        <time>2009-05-31T12:55:17Z</time>
      </trkpt>
      <trkpt lat="43.83487" lon="7.24723">
        <ele>520.6912842</ele>
        <time>2009-05-31T12:55:21Z</time>
      </trkpt>
      <trkpt lat="43.83475" lon="7.24716">
        <ele>520.2105713</ele>
        <time>2009-05-31T12:55:26Z</time>
      </trkpt>
      <trkpt lat="43.83466" lon="7.24708">
        <ele>517.3266602</ele>
        <time>2009-05-31T12:55:29Z</time>
      </trkpt>
      <trkpt lat="43.83445" lon="7.24712">
        <ele>515.8846436</ele>
        <time>2009-05-31T12:55:34Z</time>
      </trkpt>
      <trkpt lat="43.83415" lon="7.24725">
        <ele>514.442627</ele>
        <time>2009-05-31T12:55:41Z</time>
      </trkpt>
      <trkpt lat="43.83385" lon="7.24727">
        <ele>513.9620361</ele>
        <time>2009-05-31T12:55:48Z</time>
      </trkpt>
      <trkpt lat="43.83363" lon="7.24728">
        <ele>515.4040527</ele>
        <time>2009-05-31T12:55:54Z</time>
      </trkpt>
      <trkpt lat="43.83341" lon="7.24735">
        <ele>516.8459473</ele>
        <time>2009-05-31T12:56:00Z</time>
      </trkpt>
      <trkpt lat="43.83313" lon="7.2475">
        <ele>517.3266602</ele>
        <time>2009-05-31T12:56:08Z</time>
      </trkpt>
      <trkpt lat="43.83285" lon="7.24761">
        <ele>518.7685547</ele>
        <time>2009-05-31T12:56:15Z</time>
      </trkpt>
      <trkpt lat="43.83262" lon="7.24769">
        <ele>519.7298584</ele>
        <time>2009-05-31T12:56:22Z</time>
      </trkpt>
      <trkpt lat="43.83238" lon="7.24773">
        <ele>522.6138916</ele>
        <time>2009-05-31T12:56:30Z</time>
      </trkpt>
      <trkpt lat="43.83214" lon="7.24779">
        <ele>523.5751953</ele>
        <time>2009-05-31T12:56:38Z</time>
      </trkpt>
      <trkpt lat="43.83192" lon="7.24787">
        <ele>524.536499</ele>
        <time>2009-05-31T12:56:46Z</time>
      </trkpt>
      <trkpt lat="43.8317" lon="7.24799">
        <ele>526.4591064</ele>
        <time>2009-05-31T12:56:54Z</time>
      </trkpt>
      <trkpt lat="43.83152" lon="7.24816">
        <ele>528.3818359</ele>
        <time>2009-05-31T12:57:02Z</time>
      </trkpt>
      <trkpt lat="43.83136" lon="7.24831">
        <ele>530.7851562</ele>
        <time>2009-05-31T12:57:10Z</time>
      </trkpt>
      <trkpt lat="43.83117" lon="7.24838">
        <ele>532.2270508</ele>
        <time>2009-05-31T12:57:18Z</time>
      </trkpt>
      <trkpt lat="43.83101" lon="7.24845">
        <ele>532.2270508</ele>
        <time>2009-05-31T12:57:25Z</time>
      </trkpt>
      <trkpt lat="43.83082" lon="7.24848">
        <ele>532.7077637</ele>
        <time>2009-05-31T12:57:31Z</time>
      </trkpt>
      <trkpt lat="43.83063" lon="7.24854">
        <ele>532.7077637</ele>
        <time>2009-05-31T12:57:36Z</time>
      </trkpt>
      <trkpt lat="43.83044" lon="7.24877">
        <ele>529.8237305</ele>
        <time>2009-05-31T12:57:41Z</time>
      </trkpt>
      <trkpt lat="43.8304" lon="7.24883">
        <ele>529.8237305</ele>
        <time>2009-05-31T12:57:42Z</time>
      </trkpt>
      <trkpt lat="43.83023" lon="7.24889">
        <ele>530.3044434</ele>
        <time>2009-05-31T12:57:45Z</time>
      </trkpt>
      <trkpt lat="43.83005" lon="7.24875">
        <ele>530.7851562</ele>
        <time>2009-05-31T12:57:49Z</time>
      </trkpt>
      <trkpt lat="43.82997" lon="7.2487">
        <ele>531.7463379</ele>
        <time>2009-05-31T12:57:51Z</time>
      </trkpt>
      <trkpt lat="43.8298" lon="7.24861">
        <ele>532.7077637</ele>
        <time>2009-05-31T12:57:57Z</time>
      </trkpt>
      <trkpt lat="43.82961" lon="7.24861">
        <ele>534.1496582</ele>
        <time>2009-05-31T12:58:04Z</time>
      </trkpt>
      <trkpt lat="43.82941" lon="7.24863">
        <ele>535.1109619</ele>
        <time>2009-05-31T12:58:11Z</time>
      </trkpt>
      <trkpt lat="43.82922" lon="7.24872">
        <ele>535.5915527</ele>
        <time>2009-05-31T12:58:17Z</time>
      </trkpt>
      <trkpt lat="43.82904" lon="7.24887">
        <ele>535.1109619</ele>
        <time>2009-05-31T12:58:22Z</time>
      </trkpt>
      <trkpt lat="43.82875" lon="7.24917">
        <ele>533.1883545</ele>
        <time>2009-05-31T12:58:30Z</time>
      </trkpt>
      <trkpt lat="43.82863" lon="7.24942">
        <ele>532.2270508</ele>
        <time>2009-05-31T12:58:34Z</time>
      </trkpt>
      <trkpt lat="43.82843" lon="7.24971">
        <ele>531.7463379</ele>
        <time>2009-05-31T12:58:39Z</time>
      </trkpt>
      <trkpt lat="43.82826" lon="7.24972">
        <ele>531.2657471</ele>
        <time>2009-05-31T12:58:42Z</time>
      </trkpt>
      <trkpt lat="43.82816" lon="7.24969">
        <ele>531.2657471</ele>
        <time>2009-05-31T12:58:44Z</time>
      </trkpt>
      <trkpt lat="43.828" lon="7.24963">
        <ele>531.2657471</ele>
        <time>2009-05-31T12:58:47Z</time>
      </trkpt>
      <trkpt lat="43.82776" lon="7.24961">
        <ele>528.8625488</ele>
        <time>2009-05-31T12:58:52Z</time>
      </trkpt>
      <trkpt lat="43.82759" lon="7.24962">
        <ele>528.3818359</ele>
        <time>2009-05-31T12:58:56Z</time>
      </trkpt>
      <trkpt lat="43.82753" lon="7.24963">
        <ele>527.901001</ele>
        <time>2009-05-31T12:58:58Z</time>
      </trkpt>
      <trkpt lat="43.82747" lon="7.24962">
        <ele>526.4591064</ele>
        <time>2009-05-31T12:59:04Z</time>
      </trkpt>
      <trkpt lat="43.82746" lon="7.2496">
        <ele>526.4591064</ele>
        <time>2009-05-31T12:59:09Z</time>
      </trkpt>
      <trkpt lat="43.82746" lon="7.24961">
        <ele>527.4204102</ele>
        <time>2009-05-31T12:59:23Z</time>
      </trkpt>
      <trkpt lat="43.82746" lon="7.24964">
        <ele>525.4978027</ele>
        <time>2009-05-31T13:00:55Z</time>
      </trkpt>
      <trkpt lat="43.82745" lon="7.2496">
        <ele>522.6138916</ele>
        <time>2009-05-31T13:05:27Z</time>
      </trkpt>
      <trkpt lat="43.82746" lon="7.24962">
        <ele>524.0557861</ele>
        <time>2009-05-31T13:05:31Z</time>
      </trkpt>
      <trkpt lat="43.82747" lon="7.24968">
        <ele>524.0557861</ele>
        <time>2009-05-31T13:05:37Z</time>
      </trkpt>
      <trkpt lat="43.82744" lon="7.24971">
        <ele>524.0557861</ele>
        <time>2009-05-31T13:05:44Z</time>
      </trkpt>
      <trkpt lat="43.82742" lon="7.24973">
        <ele>524.536499</ele>
        <time>2009-05-31T13:05:47Z</time>
      </trkpt>
      <trkpt lat="43.82736" lon="7.24975">
        <ele>525.4978027</ele>
        <time>2009-05-31T13:05:55Z</time>
      </trkpt>
      <trkpt lat="43.82736" lon="7.24978">
        <ele>526.4591064</ele>
        <time>2009-05-31T13:06:04Z</time>
      </trkpt>
      <trkpt lat="43.82733" lon="7.24979">
        <ele>526.9398193</ele>
        <time>2009-05-31T13:06:14Z</time>
      </trkpt>
      <trkpt lat="43.8273" lon="7.2498">
        <ele>526.9398193</ele>
        <time>2009-05-31T13:06:19Z</time>
      </trkpt>
      <trkpt lat="43.82725" lon="7.24986">
        <ele>527.4204102</ele>
        <time>2009-05-31T13:06:25Z</time>
      </trkpt>
      <trkpt lat="43.82722" lon="7.2499">
        <ele>527.4204102</ele>
        <time>2009-05-31T13:06:30Z</time>
      </trkpt>
      <trkpt lat="43.82714" lon="7.24995">
        <ele>527.901001</ele>
        <time>2009-05-31T13:06:34Z</time>
      </trkpt>
      <trkpt lat="43.82703" lon="7.25007">
        <ele>530.3044434</ele>
        <time>2009-05-31T13:06:40Z</time>
      </trkpt>
      <trkpt lat="43.82701" lon="7.25008">
        <ele>530.3044434</ele>
        <time>2009-05-31T13:06:41Z</time>
      </trkpt>
      <trkpt lat="43.82693" lon="7.25016">
        <ele>532.2270508</ele>
        <time>2009-05-31T13:06:47Z</time>
      </trkpt>
      <trkpt lat="43.82682" lon="7.25024">
        <ele>533.1883545</ele>
        <time>2009-05-31T13:06:55Z</time>
      </trkpt>
      <trkpt lat="43.82671" lon="7.25031">
        <ele>533.6689453</ele>
        <time>2009-05-31T13:07:03Z</time>
      </trkpt>
      <trkpt lat="43.82659" lon="7.25041">
        <ele>535.5915527</ele>
        <time>2009-05-31T13:07:14Z</time>
      </trkpt>
      <trkpt lat="43.82651" lon="7.25049">
        <ele>537.0336914</ele>
        <time>2009-05-31T13:07:21Z</time>
      </trkpt>
      <trkpt lat="43.82643" lon="7.25059">
        <ele>538.9562988</ele>
        <time>2009-05-31T13:07:30Z</time>
      </trkpt>
      <trkpt lat="43.82633" lon="7.2507">
        <ele>539.9176025</ele>
        <time>2009-05-31T13:07:40Z</time>
      </trkpt>
      <trkpt lat="43.82624" lon="7.25078">
        <ele>541.3594971</ele>
        <time>2009-05-31T13:07:48Z</time>
      </trkpt>
      <trkpt lat="43.82614" lon="7.25087">
        <ele>542.8015137</ele>
        <time>2009-05-31T13:07:57Z</time>
      </trkpt>
      <trkpt lat="43.82603" lon="7.25097">
        <ele>544.7242432</ele>
        <time>2009-05-31T13:08:06Z</time>
      </trkpt>
      <trkpt lat="43.8259" lon="7.25108">
        <ele>546.1662598</ele>
        <time>2009-05-31T13:08:18Z</time>
      </trkpt>
      <trkpt lat="43.82577" lon="7.25118">
        <ele>547.1274414</ele>
        <time>2009-05-31T13:08:29Z</time>
      </trkpt>
      <trkpt lat="43.82572" lon="7.25123">
        <ele>548.5693359</ele>
        <time>2009-05-31T13:08:34Z</time>
      </trkpt>
      <trkpt lat="43.8256" lon="7.25135">
        <ele>550.4921875</ele>
        <time>2009-05-31T13:08:46Z</time>
      </trkpt>
      <trkpt lat="43.82548" lon="7.25146">
        <ele>551.934082</ele>
        <time>2009-05-31T13:08:57Z</time>
      </trkpt>
      <trkpt lat="43.82539" lon="7.25152">
        <ele>553.3759766</ele>
        <time>2009-05-31T13:09:05Z</time>
      </trkpt>
      <trkpt lat="43.82525" lon="7.2516">
        <ele>555.298584</ele>
        <time>2009-05-31T13:09:16Z</time>
      </trkpt>
      <trkpt lat="43.8251" lon="7.25168">
        <ele>556.2600098</ele>
        <time>2009-05-31T13:09:28Z</time>
      </trkpt>
      <trkpt lat="43.82495" lon="7.25179">
        <ele>558.1828613</ele>
        <time>2009-05-31T13:09:39Z</time>
      </trkpt>
      <trkpt lat="43.82483" lon="7.25191">
        <ele>560.1052246</ele>
        <time>2009-05-31T13:09:49Z</time>
      </trkpt>
      <trkpt lat="43.82471" lon="7.25199">
        <ele>560.5859375</ele>
        <time>2009-05-31T13:09:58Z</time>
      </trkpt>
      <trkpt lat="43.82453" lon="7.25208">
        <ele>562.5085449</ele>
        <time>2009-05-31T13:10:10Z</time>
      </trkpt>
      <trkpt lat="43.82432" lon="7.25218">
        <ele>564.4311523</ele>
        <time>2009-05-31T13:10:23Z</time>
      </trkpt>
      <trkpt lat="43.82419" lon="7.25227">
        <ele>564.9118652</ele>
        <time>2009-05-31T13:10:32Z</time>
      </trkpt>
      <trkpt lat="43.82407" lon="7.25236">
        <ele>565.3925781</ele>
        <time>2009-05-31T13:10:41Z</time>
      </trkpt>
      <trkpt lat="43.82393" lon="7.25245">
        <ele>566.8344727</ele>
        <time>2009-05-31T13:10:50Z</time>
      </trkpt>
      <trkpt lat="43.82378" lon="7.25255">
        <ele>566.8344727</ele>
        <time>2009-05-31T13:10:58Z</time>
      </trkpt>
      <trkpt lat="43.82357" lon="7.25266">
        <ele>566.3537598</ele>
        <time>2009-05-31T13:11:06Z</time>
      </trkpt>
      <trkpt lat="43.82334" lon="7.25278">
        <ele>565.3925781</ele>
        <time>2009-05-31T13:11:13Z</time>
      </trkpt>
      <trkpt lat="43.82306" lon="7.25296">
        <ele>565.873291</ele>
        <time>2009-05-31T13:11:21Z</time>
      </trkpt>
      <trkpt lat="43.82281" lon="7.25316">
        <ele>564.9118652</ele>
        <time>2009-05-31T13:11:28Z</time>
      </trkpt>
      <trkpt lat="43.82251" lon="7.25349">
        <ele>564.4311523</ele>
        <time>2009-05-31T13:11:37Z</time>
      </trkpt>
      <trkpt lat="43.82223" lon="7.25383">
        <ele>563.4699707</ele>
        <time>2009-05-31T13:11:45Z</time>
      </trkpt>
      <trkpt lat="43.82206" lon="7.25396">
        <ele>562.9892578</ele>
        <time>2009-05-31T13:11:49Z</time>
      </trkpt>
      <trkpt lat="43.82173" lon="7.25418">
        <ele>561.5473633</ele>
        <time>2009-05-31T13:11:57Z</time>
      </trkpt>
      <trkpt lat="43.82147" lon="7.25445">
        <ele>561.5473633</ele>
        <time>2009-05-31T13:12:04Z</time>
      </trkpt>
      <trkpt lat="43.82116" lon="7.25474">
        <ele>561.0666504</ele>
        <time>2009-05-31T13:12:12Z</time>
      </trkpt>
      <trkpt lat="43.82091" lon="7.25491">
        <ele>562.0280762</ele>
        <time>2009-05-31T13:12:19Z</time>
      </trkpt>
      <trkpt lat="43.82065" lon="7.25509">
        <ele>562.9892578</ele>
        <time>2009-05-31T13:12:27Z</time>
      </trkpt>
      <trkpt lat="43.82033" lon="7.25531">
        <ele>563.4699707</ele>
        <time>2009-05-31T13:12:37Z</time>
      </trkpt>
      <trkpt lat="43.82012" lon="7.25552">
        <ele>564.4311523</ele>
        <time>2009-05-31T13:12:45Z</time>
      </trkpt>
      <trkpt lat="43.81993" lon="7.25577">
        <ele>565.3925781</ele>
        <time>2009-05-31T13:12:54Z</time>
      </trkpt>
      <trkpt lat="43.81974" lon="7.25595">
        <ele>565.873291</ele>
        <time>2009-05-31T13:13:01Z</time>
      </trkpt>
      <trkpt lat="43.81962" lon="7.25611">
        <ele>566.8344727</ele>
        <time>2009-05-31T13:13:08Z</time>
      </trkpt>
      <trkpt lat="43.81954" lon="7.25631">
        <ele>568.7570801</ele>
        <time>2009-05-31T13:13:16Z</time>
      </trkpt>
      <trkpt lat="43.81943" lon="7.25657">
        <ele>570.6796875</ele>
        <time>2009-05-31T13:13:27Z</time>
      </trkpt>
      <trkpt lat="43.81941" lon="7.25661">
        <ele>571.1604004</ele>
        <time>2009-05-31T13:13:29Z</time>
      </trkpt>
      <trkpt lat="43.81933" lon="7.25678">
        <ele>572.1218262</ele>
        <time>2009-05-31T13:13:37Z</time>
      </trkpt>
      <trkpt lat="43.81924" lon="7.25695">
        <ele>574.5251465</ele>
        <time>2009-05-31T13:13:46Z</time>
      </trkpt>
      <trkpt lat="43.8191" lon="7.25719">
        <ele>576.4477539</ele>
        <time>2009-05-31T13:13:59Z</time>
      </trkpt>
      <trkpt lat="43.81907" lon="7.25722">
        <ele>577.4091797</ele>
        <time>2009-05-31T13:14:01Z</time>
      </trkpt>
      <trkpt lat="43.81895" lon="7.2574">
        <ele>578.3703613</ele>
        <time>2009-05-31T13:14:11Z</time>
      </trkpt>
      <trkpt lat="43.81884" lon="7.25753">
        <ele>579.331543</ele>
        <time>2009-05-31T13:14:20Z</time>
      </trkpt>
      <trkpt lat="43.81873" lon="7.25761">
        <ele>581.2543945</ele>
        <time>2009-05-31T13:14:27Z</time>
      </trkpt>
      <trkpt lat="43.81853" lon="7.25764">
        <ele>582.2155762</ele>
        <time>2009-05-31T13:14:38Z</time>
      </trkpt>
      <trkpt lat="43.81839" lon="7.25761">
        <ele>583.6574707</ele>
        <time>2009-05-31T13:14:46Z</time>
      </trkpt>
      <trkpt lat="43.81826" lon="7.25754">
        <ele>585.5800781</ele>
        <time>2009-05-31T13:14:54Z</time>
      </trkpt>
      <trkpt lat="43.81814" lon="7.25742">
        <ele>587.0219727</ele>
        <time>2009-05-31T13:15:03Z</time>
      </trkpt>
      <trkpt lat="43.81804" lon="7.25724">
        <ele>588.4643555</ele>
        <time>2009-05-31T13:15:12Z</time>
      </trkpt>
      <trkpt lat="43.81796" lon="7.25706">
        <ele>589.90625</ele>
        <time>2009-05-31T13:15:21Z</time>
      </trkpt>
      <trkpt lat="43.81791" lon="7.25692">
        <ele>589.90625</ele>
        <time>2009-05-31T13:15:27Z</time>
      </trkpt>
      <trkpt lat="43.81786" lon="7.25669">
        <ele>592.3095703</ele>
        <time>2009-05-31T13:15:38Z</time>
      </trkpt>
      <trkpt lat="43.81781" lon="7.25645">
        <ele>593.270752</ele>
        <time>2009-05-31T13:15:48Z</time>
      </trkpt>
      <trkpt lat="43.81779" lon="7.2562">
        <ele>594.7126465</ele>
        <time>2009-05-31T13:15:58Z</time>
      </trkpt>
      <trkpt lat="43.81778" lon="7.25613">
        <ele>596.1547852</ele>
        <time>2009-05-31T13:16:01Z</time>
      </trkpt>
      <trkpt lat="43.81776" lon="7.2559">
        <ele>596.1547852</ele>
        <time>2009-05-31T13:16:10Z</time>
      </trkpt>
      <trkpt lat="43.8177" lon="7.25561">
        <ele>599.0385742</ele>
        <time>2009-05-31T13:16:22Z</time>
      </trkpt>
      <trkpt lat="43.81764" lon="7.25541">
        <ele>601.4418945</ele>
        <time>2009-05-31T13:16:31Z</time>
      </trkpt>
      <trkpt lat="43.81759" lon="7.25525">
        <ele>601.9226074</ele>
        <time>2009-05-31T13:16:39Z</time>
      </trkpt>
      <trkpt lat="43.81747" lon="7.25505">
        <ele>604.3261719</ele>
        <time>2009-05-31T13:16:50Z</time>
      </trkpt>
      <trkpt lat="43.81737" lon="7.25491">
        <ele>605.2873535</ele>
        <time>2009-05-31T13:16:59Z</time>
      </trkpt>
      <trkpt lat="43.81725" lon="7.25479">
        <ele>606.729248</ele>
        <time>2009-05-31T13:17:08Z</time>
      </trkpt>
      <trkpt lat="43.81712" lon="7.2547">
        <ele>606.729248</ele>
        <time>2009-05-31T13:17:16Z</time>
      </trkpt>
      <trkpt lat="43.81695" lon="7.25463">
        <ele>606.2485352</ele>
        <time>2009-05-31T13:17:23Z</time>
      </trkpt>
      <trkpt lat="43.81669" lon="7.25449">
        <ele>607.2099609</ele>
        <time>2009-05-31T13:17:32Z</time>
      </trkpt>
      <trkpt lat="43.81633" lon="7.25431">
        <ele>608.1713867</ele>
        <time>2009-05-31T13:17:43Z</time>
      </trkpt>
      <trkpt lat="43.81605" lon="7.25422">
        <ele>608.1713867</ele>
        <time>2009-05-31T13:17:51Z</time>
      </trkpt>
      <trkpt lat="43.81598" lon="7.25423">
        <ele>608.1713867</ele>
        <time>2009-05-31T13:17:53Z</time>
      </trkpt>
      <trkpt lat="43.81584" lon="7.25435">
        <ele>607.2099609</ele>
        <time>2009-05-31T13:17:57Z</time>
      </trkpt>
      <trkpt lat="43.81564" lon="7.25468">
        <ele>606.729248</ele>
        <time>2009-05-31T13:18:04Z</time>
      </trkpt>
      <trkpt lat="43.8155" lon="7.25509">
        <ele>607.2099609</ele>
        <time>2009-05-31T13:18:12Z</time>
      </trkpt>
      <trkpt lat="43.81538" lon="7.25551">
        <ele>606.2485352</ele>
        <time>2009-05-31T13:18:20Z</time>
      </trkpt>
      <trkpt lat="43.81524" lon="7.25581">
        <ele>606.2485352</ele>
        <time>2009-05-31T13:18:27Z</time>
      </trkpt>
      <trkpt lat="43.81499" lon="7.25609">
        <ele>606.2485352</ele>
        <time>2009-05-31T13:18:35Z</time>
      </trkpt>
      <trkpt lat="43.81472" lon="7.25646">
        <ele>605.7680664</ele>
        <time>2009-05-31T13:18:44Z</time>
      </trkpt>
      <trkpt lat="43.81467" lon="7.25656">
        <ele>605.2873535</ele>
        <time>2009-05-31T13:18:46Z</time>
      </trkpt>
      <trkpt lat="43.8145" lon="7.25697">
        <ele>605.2873535</ele>
        <time>2009-05-31T13:18:54Z</time>
      </trkpt>
      <trkpt lat="43.81433" lon="7.25737">
        <ele>606.2485352</ele>
        <time>2009-05-31T13:19:03Z</time>
      </trkpt>
      <trkpt lat="43.81434" lon="7.25755">
        <ele>604.3261719</ele>
        <time>2009-05-31T13:19:07Z</time>
      </trkpt>
      <trkpt lat="43.81419" lon="7.2578">
        <ele>601.9226074</ele>
        <time>2009-05-31T13:19:13Z</time>
      </trkpt>
      <trkpt lat="43.81415" lon="7.25788">
        <ele>600.4807129</ele>
        <time>2009-05-31T13:19:15Z</time>
      </trkpt>
      <trkpt lat="43.81408" lon="7.25801">
        <ele>597.5966797</ele>
        <time>2009-05-31T13:19:19Z</time>
      </trkpt>
      <trkpt lat="43.81389" lon="7.258">
        <ele>592.7902832</ele>
        <time>2009-05-31T13:19:24Z</time>
      </trkpt>
      <trkpt lat="43.81382" lon="7.25802">
        <ele>591.3481445</ele>
        <time>2009-05-31T13:19:26Z</time>
      </trkpt>
      <trkpt lat="43.81366" lon="7.25807">
        <ele>586.060791</ele>
        <time>2009-05-31T13:19:30Z</time>
      </trkpt>
      <trkpt lat="43.81352" lon="7.25809">
        <ele>582.6962891</ele>
        <time>2009-05-31T13:19:34Z</time>
      </trkpt>
      <trkpt lat="43.81345" lon="7.25811">
        <ele>578.8510742</ele>
        <time>2009-05-31T13:19:36Z</time>
      </trkpt>
      <trkpt lat="43.81331" lon="7.25813">
        <ele>576.9284668</ele>
        <time>2009-05-31T13:19:40Z</time>
      </trkpt>
      <trkpt lat="43.81324" lon="7.25816">
        <ele>573.5639648</ele>
        <time>2009-05-31T13:19:42Z</time>
      </trkpt>
      <trkpt lat="43.81313" lon="7.25817">
        <ele>570.6796875</ele>
        <time>2009-05-31T13:19:45Z</time>
      </trkpt>
      <trkpt lat="43.81304" lon="7.25822">
        <ele>567.3151855</ele>
        <time>2009-05-31T13:19:48Z</time>
      </trkpt>
      <trkpt lat="43.81292" lon="7.2583">
        <ele>563.4699707</ele>
        <time>2009-05-31T13:19:52Z</time>
      </trkpt>
      <trkpt lat="43.81286" lon="7.25831">
        <ele>561.5473633</ele>
        <time>2009-05-31T13:19:54Z</time>
      </trkpt>
      <trkpt lat="43.81278" lon="7.25839">
        <ele>557.2214355</ele>
        <time>2009-05-31T13:19:58Z</time>
      </trkpt>
      <trkpt lat="43.81273" lon="7.25846">
        <ele>553.8566895</ele>
        <time>2009-05-31T13:20:01Z</time>
      </trkpt>
      <trkpt lat="43.81271" lon="7.25847">
        <ele>552.4145508</ele>
        <time>2009-05-31T13:20:02Z</time>
      </trkpt>
      <trkpt lat="43.81268" lon="7.25859">
        <ele>551.4533691</ele>
        <time>2009-05-31T13:20:07Z</time>
      </trkpt>
      <trkpt lat="43.81267" lon="7.2586">
        <ele>550.4921875</ele>
        <time>2009-05-31T13:20:09Z</time>
      </trkpt>
      <trkpt lat="43.81264" lon="7.25861">
        <ele>549.5307617</ele>
        <time>2009-05-31T13:20:11Z</time>
      </trkpt>
      <trkpt lat="43.81251" lon="7.25874">
        <ele>545.6855469</ele>
        <time>2009-05-31T13:20:16Z</time>
      </trkpt>
      <trkpt lat="43.81241" lon="7.25885">
        <ele>542.8015137</ele>
        <time>2009-05-31T13:20:20Z</time>
      </trkpt>
      <trkpt lat="43.81238" lon="7.25888">
        <ele>541.84021</ele>
        <time>2009-05-31T13:20:21Z</time>
      </trkpt>
      <trkpt lat="43.81223" lon="7.25897">
        <ele>536.5531006</ele>
        <time>2009-05-31T13:20:25Z</time>
      </trkpt>
      <trkpt lat="43.81211" lon="7.25909">
        <ele>533.6689453</ele>
        <time>2009-05-31T13:20:29Z</time>
      </trkpt>
      <trkpt lat="43.81203" lon="7.25922">
        <ele>530.7851562</ele>
        <time>2009-05-31T13:20:32Z</time>
      </trkpt>
      <trkpt lat="43.81196" lon="7.2594">
        <ele>526.9398193</ele>
        <time>2009-05-31T13:20:36Z</time>
      </trkpt>
      <trkpt lat="43.81195" lon="7.25944">
        <ele>526.9398193</ele>
        <time>2009-05-31T13:20:37Z</time>
      </trkpt>
      <trkpt lat="43.81183" lon="7.25957">
        <ele>523.5751953</ele>
        <time>2009-05-31T13:20:42Z</time>
      </trkpt>
      <trkpt lat="43.8118" lon="7.25958">
        <ele>523.0946045</ele>
        <time>2009-05-31T13:20:43Z</time>
      </trkpt>
      <trkpt lat="43.81168" lon="7.25975">
        <ele>519.2492676</ele>
        <time>2009-05-31T13:20:47Z</time>
      </trkpt>
      <trkpt lat="43.81162" lon="7.2598">
        <ele>515.4040527</ele>
        <time>2009-05-31T13:20:49Z</time>
      </trkpt>
      <trkpt lat="43.81159" lon="7.25981">
        <ele>513.9620361</ele>
        <time>2009-05-31T13:20:50Z</time>
      </trkpt>
      <trkpt lat="43.81153" lon="7.25982">
        <ele>512.5200195</ele>
        <time>2009-05-31T13:20:52Z</time>
      </trkpt>
      <trkpt lat="43.8114" lon="7.25978">
        <ele>510.59729</ele>
        <time>2009-05-31T13:20:57Z</time>
      </trkpt>
      <trkpt lat="43.81133" lon="7.25978">
        <ele>511.5587158</ele>
        <time>2009-05-31T13:21:02Z</time>
      </trkpt>
      <trkpt lat="43.81121" lon="7.2598">
        <ele>512.0394287</ele>
        <time>2009-05-31T13:21:10Z</time>
      </trkpt>
      <trkpt lat="43.81114" lon="7.25983">
        <ele>512.5200195</ele>
        <time>2009-05-31T13:21:15Z</time>
      </trkpt>
      <trkpt lat="43.81102" lon="7.25988">
        <ele>512.0394287</ele>
        <time>2009-05-31T13:21:20Z</time>
      </trkpt>
      <trkpt lat="43.811" lon="7.26002">
        <ele>510.1166992</ele>
        <time>2009-05-31T13:21:24Z</time>
      </trkpt>
      <trkpt lat="43.81099" lon="7.26018">
        <ele>507.2327881</ele>
        <time>2009-05-31T13:21:27Z</time>
      </trkpt>
      <trkpt lat="43.81092" lon="7.26033">
        <ele>504.8294678</ele>
        <time>2009-05-31T13:21:31Z</time>
      </trkpt>
      <trkpt lat="43.81076" lon="7.26046">
        <ele>502.9067383</ele>
        <time>2009-05-31T13:21:35Z</time>
      </trkpt>
      <trkpt lat="43.81072" lon="7.26054">
        <ele>500.50354</ele>
        <time>2009-05-31T13:21:37Z</time>
      </trkpt>
      <trkpt lat="43.81066" lon="7.26065">
        <ele>499.5422363</ele>
        <time>2009-05-31T13:21:39Z</time>
      </trkpt>
      <trkpt lat="43.81053" lon="7.2608">
        <ele>499.5422363</ele>
        <time>2009-05-31T13:21:43Z</time>
      </trkpt>
      <trkpt lat="43.81027" lon="7.26104">
        <ele>498.5809326</ele>
        <time>2009-05-31T13:21:51Z</time>
      </trkpt>
      <trkpt lat="43.81009" lon="7.26123">
        <ele>498.5809326</ele>
        <time>2009-05-31T13:21:58Z</time>
      </trkpt>
      <trkpt lat="43.80992" lon="7.26134">
        <ele>497.6196289</ele>
        <time>2009-05-31T13:22:03Z</time>
      </trkpt>
      <trkpt lat="43.80977" lon="7.26148">
        <ele>497.6196289</ele>
        <time>2009-05-31T13:22:09Z</time>
      </trkpt>
      <trkpt lat="43.8096" lon="7.26166">
        <ele>497.138916</ele>
        <time>2009-05-31T13:22:15Z</time>
      </trkpt>
      <trkpt lat="43.80943" lon="7.26173">
        <ele>498.1003418</ele>
        <time>2009-05-31T13:22:20Z</time>
      </trkpt>
      <trkpt lat="43.80921" lon="7.26182">
        <ele>496.1777344</ele>
        <time>2009-05-31T13:22:26Z</time>
      </trkpt>
      <trkpt lat="43.80907" lon="7.26188">
        <ele>495.2161865</ele>
        <time>2009-05-31T13:22:29Z</time>
      </trkpt>
      <trkpt lat="43.80897" lon="7.26187">
        <ele>494.2550049</ele>
        <time>2009-05-31T13:22:31Z</time>
      </trkpt>
      <trkpt lat="43.80887" lon="7.26183">
        <ele>494.2550049</ele>
        <time>2009-05-31T13:22:33Z</time>
      </trkpt>
      <trkpt lat="43.80868" lon="7.2618">
        <ele>490.8903809</ele>
        <time>2009-05-31T13:22:37Z</time>
      </trkpt>
      <trkpt lat="43.80859" lon="7.26184">
        <ele>488.4871826</ele>
        <time>2009-05-31T13:22:40Z</time>
      </trkpt>
      <trkpt lat="43.80843" lon="7.26188">
        <ele>484.6418457</ele>
        <time>2009-05-31T13:22:44Z</time>
      </trkpt>
      <trkpt lat="43.80838" lon="7.26187">
        <ele>483.1998291</ele>
        <time>2009-05-31T13:22:46Z</time>
      </trkpt>
      <trkpt lat="43.80819" lon="7.26177">
        <ele>476.9512939</ele>
        <time>2009-05-31T13:22:51Z</time>
      </trkpt>
      <trkpt lat="43.8081" lon="7.26167">
        <ele>474.0672607</ele>
        <time>2009-05-31T13:22:55Z</time>
      </trkpt>
      <trkpt lat="43.80803" lon="7.26159">
        <ele>471.1833496</ele>
        <time>2009-05-31T13:22:58Z</time>
      </trkpt>
      <trkpt lat="43.80799" lon="7.2615">
        <ele>470.2219238</ele>
        <time>2009-05-31T13:23:00Z</time>
      </trkpt>
      <trkpt lat="43.80792" lon="7.2615">
        <ele>467.3381348</ele>
        <time>2009-05-31T13:23:03Z</time>
      </trkpt>
      <trkpt lat="43.8078" lon="7.26163">
        <ele>463.9733887</ele>
        <time>2009-05-31T13:23:07Z</time>
      </trkpt>
      <trkpt lat="43.80769" lon="7.26171">
        <ele>460.6087646</ele>
        <time>2009-05-31T13:23:10Z</time>
      </trkpt>
      <trkpt lat="43.80764" lon="7.26172">
        <ele>460.1281738</ele>
        <time>2009-05-31T13:23:13Z</time>
      </trkpt>
      <trkpt lat="43.80763" lon="7.26173">
        <ele>459.647583</ele>
        <time>2009-05-31T13:23:18Z</time>
      </trkpt>
      <trkpt lat="43.80761" lon="7.26175">
        <ele>460.6087646</ele>
        <time>2009-05-31T13:23:23Z</time>
      </trkpt>
      <trkpt lat="43.80759" lon="7.26182">
        <ele>459.1668701</ele>
        <time>2009-05-31T13:23:26Z</time>
      </trkpt>
      <trkpt lat="43.80751" lon="7.26205">
        <ele>456.282959</ele>
        <time>2009-05-31T13:23:30Z</time>
      </trkpt>
      <trkpt lat="43.80747" lon="7.26214">
        <ele>456.282959</ele>
        <time>2009-05-31T13:23:32Z</time>
      </trkpt>
      <trkpt lat="43.80733" lon="7.26238">
        <ele>456.7635498</ele>
        <time>2009-05-31T13:23:38Z</time>
      </trkpt>
      <trkpt lat="43.80729" lon="7.26243">
        <ele>456.282959</ele>
        <time>2009-05-31T13:23:41Z</time>
      </trkpt>
      <trkpt lat="43.80728" lon="7.26243">
        <ele>456.282959</ele>
        <time>2009-05-31T13:23:44Z</time>
      </trkpt>
      <trkpt lat="43.80725" lon="7.26243">
        <ele>457.2442627</ele>
        <time>2009-05-31T13:23:47Z</time>
      </trkpt>
      <trkpt lat="43.80718" lon="7.26245">
        <ele>459.1668701</ele>
        <time>2009-05-31T13:23:54Z</time>
      </trkpt>
      <trkpt lat="43.80707" lon="7.26249">
        <ele>459.647583</ele>
        <time>2009-05-31T13:23:59Z</time>
      </trkpt>
      <trkpt lat="43.80693" lon="7.26254">
        <ele>456.7635498</ele>
        <time>2009-05-31T13:24:04Z</time>
      </trkpt>
      <trkpt lat="43.80674" lon="7.26258">
        <ele>454.3602295</ele>
        <time>2009-05-31T13:24:09Z</time>
      </trkpt>
      <trkpt lat="43.80665" lon="7.26258">
        <ele>452.9182129</ele>
        <time>2009-05-31T13:24:12Z</time>
      </trkpt>
      <trkpt lat="43.80657" lon="7.26261">
        <ele>449.5537109</ele>
        <time>2009-05-31T13:24:15Z</time>
      </trkpt>
      <trkpt lat="43.80645" lon="7.26261">
        <ele>445.708374</ele>
        <time>2009-05-31T13:24:19Z</time>
      </trkpt>
      <trkpt lat="43.80642" lon="7.26261">
        <ele>445.708374</ele>
        <time>2009-05-31T13:24:20Z</time>
      </trkpt>
      <trkpt lat="43.80631" lon="7.26256">
        <ele>443.3050537</ele>
        <time>2009-05-31T13:24:23Z</time>
      </trkpt>
      <trkpt lat="43.80621" lon="7.26251">
        <ele>444.2664795</ele>
        <time>2009-05-31T13:24:27Z</time>
      </trkpt>
      <trkpt lat="43.80612" lon="7.26242">
        <ele>444.2664795</ele>
        <time>2009-05-31T13:24:34Z</time>
      </trkpt>
      <trkpt lat="43.80608" lon="7.26233">
        <ele>442.8244629</ele>
        <time>2009-05-31T13:24:37Z</time>
      </trkpt>
      <trkpt lat="43.80605" lon="7.26227">
        <ele>441.3824463</ele>
        <time>2009-05-31T13:24:39Z</time>
      </trkpt>
      <trkpt lat="43.806" lon="7.26219">
        <ele>439.9404297</ele>
        <time>2009-05-31T13:24:43Z</time>
      </trkpt>
      <trkpt lat="43.80595" lon="7.26221">
        <ele>440.4212646</ele>
        <time>2009-05-31T13:24:47Z</time>
      </trkpt>
      <trkpt lat="43.80587" lon="7.26222">
        <ele>442.3438721</ele>
        <time>2009-05-31T13:24:53Z</time>
      </trkpt>
      <trkpt lat="43.80583" lon="7.26227">
        <ele>442.3438721</ele>
        <time>2009-05-31T13:24:57Z</time>
      </trkpt>
      <trkpt lat="43.80575" lon="7.26231">
        <ele>444.2664795</ele>
        <time>2009-05-31T13:25:03Z</time>
      </trkpt>
      <trkpt lat="43.80565" lon="7.2623">
        <ele>445.2276611</ele>
        <time>2009-05-31T13:25:11Z</time>
      </trkpt>
      <trkpt lat="43.80562" lon="7.26228">
        <ele>445.2276611</ele>
        <time>2009-05-31T13:25:13Z</time>
      </trkpt>
      <trkpt lat="43.80555" lon="7.26233">
        <ele>445.2276611</ele>
        <time>2009-05-31T13:25:19Z</time>
      </trkpt>
      <trkpt lat="43.80546" lon="7.26237">
        <ele>445.2276611</ele>
        <time>2009-05-31T13:25:24Z</time>
      </trkpt>
      <trkpt lat="43.80545" lon="7.26237">
        <ele>446.1890869</ele>
        <time>2009-05-31T13:25:25Z</time>
      </trkpt>
      <trkpt lat="43.80534" lon="7.26233">
        <ele>446.6696777</ele>
        <time>2009-05-31T13:25:32Z</time>
      </trkpt>
      <trkpt lat="43.80527" lon="7.26229">
        <ele>446.1890869</ele>
        <time>2009-05-31T13:25:39Z</time>
      </trkpt>
      <trkpt lat="43.80516" lon="7.26221">
        <ele>446.1890869</ele>
        <time>2009-05-31T13:25:44Z</time>
      </trkpt>
      <trkpt lat="43.80506" lon="7.26212">
        <ele>444.7470703</ele>
        <time>2009-05-31T13:25:49Z</time>
      </trkpt>
      <trkpt lat="43.80492" lon="7.26194">
        <ele>443.3050537</ele>
        <time>2009-05-31T13:25:54Z</time>
      </trkpt>
      <trkpt lat="43.80488" lon="7.2618">
        <ele>441.8631592</ele>
        <time>2009-05-31T13:25:58Z</time>
      </trkpt>
      <trkpt lat="43.80485" lon="7.26174">
        <ele>438.979126</ele>
        <time>2009-05-31T13:26:00Z</time>
      </trkpt>
      <trkpt lat="43.80478" lon="7.2617">
        <ele>436.0952148</ele>
        <time>2009-05-31T13:26:04Z</time>
      </trkpt>
      <trkpt lat="43.80474" lon="7.26167">
        <ele>432.7307129</ele>
        <time>2009-05-31T13:26:06Z</time>
      </trkpt>
      <trkpt lat="43.80471" lon="7.26165">
        <ele>431.769165</ele>
        <time>2009-05-31T13:26:09Z</time>
      </trkpt>
      <trkpt lat="43.80468" lon="7.26162">
        <ele>429.8465576</ele>
        <time>2009-05-31T13:26:15Z</time>
      </trkpt>
      <trkpt lat="43.80466" lon="7.26162">
        <ele>430.3272705</ele>
        <time>2009-05-31T13:26:19Z</time>
      </trkpt>
      <trkpt lat="43.80458" lon="7.26167">
        <ele>431.2885742</ele>
        <time>2009-05-31T13:26:25Z</time>
      </trkpt>
      <trkpt lat="43.80456" lon="7.26168">
        <ele>430.8079834</ele>
        <time>2009-05-31T13:26:27Z</time>
      </trkpt>
      <trkpt lat="43.80451" lon="7.26168">
        <ele>433.6918945</ele>
        <time>2009-05-31T13:26:36Z</time>
      </trkpt>
      <trkpt lat="43.80443" lon="7.26166">
        <ele>433.6918945</ele>
        <time>2009-05-31T13:26:43Z</time>
      </trkpt>
      <trkpt lat="43.80438" lon="7.26165">
        <ele>435.614502</ele>
        <time>2009-05-31T13:26:49Z</time>
      </trkpt>
      <trkpt lat="43.80433" lon="7.26161">
        <ele>435.614502</ele>
        <time>2009-05-31T13:26:55Z</time>
      </trkpt>
      <trkpt lat="43.80427" lon="7.26158">
        <ele>436.0952148</ele>
        <time>2009-05-31T13:26:59Z</time>
      </trkpt>
      <trkpt lat="43.80421" lon="7.26158">
        <ele>436.5759277</ele>
        <time>2009-05-31T13:27:03Z</time>
      </trkpt>
      <trkpt lat="43.80416" lon="7.2616">
        <ele>436.0952148</ele>
        <time>2009-05-31T13:27:11Z</time>
      </trkpt>
      <trkpt lat="43.80415" lon="7.26161">
        <ele>436.0952148</ele>
        <time>2009-05-31T13:27:12Z</time>
      </trkpt>
      <trkpt lat="43.80408" lon="7.26156">
        <ele>437.0565186</ele>
        <time>2009-05-31T13:27:17Z</time>
      </trkpt>
      <trkpt lat="43.80395" lon="7.26147">
        <ele>438.4985352</ele>
        <time>2009-05-31T13:27:25Z</time>
      </trkpt>
      <trkpt lat="43.80385" lon="7.26135">
        <ele>439.9404297</ele>
        <time>2009-05-31T13:27:34Z</time>
      </trkpt>
      <trkpt lat="43.80375" lon="7.26124">
        <ele>441.3824463</ele>
        <time>2009-05-31T13:27:42Z</time>
      </trkpt>
      <trkpt lat="43.80373" lon="7.26117">
        <ele>441.8631592</ele>
        <time>2009-05-31T13:27:48Z</time>
      </trkpt>
      <trkpt lat="43.80374" lon="7.26113">
        <ele>442.3438721</ele>
        <time>2009-05-31T13:27:54Z</time>
      </trkpt>
      <trkpt lat="43.80373" lon="7.2611">
        <ele>443.3050537</ele>
        <time>2009-05-31T13:27:58Z</time>
      </trkpt>
      <trkpt lat="43.80367" lon="7.2611">
        <ele>445.2276611</ele>
        <time>2009-05-31T13:28:04Z</time>
      </trkpt>
      <trkpt lat="43.80364" lon="7.26112">
        <ele>445.2276611</ele>
        <time>2009-05-31T13:28:07Z</time>
      </trkpt>
      <trkpt lat="43.8036" lon="7.2611">
        <ele>444.7470703</ele>
        <time>2009-05-31T13:28:14Z</time>
      </trkpt>
      <trkpt lat="43.80348" lon="7.26105">
        <ele>446.6696777</ele>
        <time>2009-05-31T13:28:22Z</time>
      </trkpt>
      <trkpt lat="43.80335" lon="7.26097">
        <ele>446.6696777</ele>
        <time>2009-05-31T13:28:30Z</time>
      </trkpt>
      <trkpt lat="43.80324" lon="7.26087">
        <ele>447.6309814</ele>
        <time>2009-05-31T13:28:37Z</time>
      </trkpt>
      <trkpt lat="43.80323" lon="7.26084">
        <ele>448.1118164</ele>
        <time>2009-05-31T13:28:42Z</time>
      </trkpt>
      <trkpt lat="43.80322" lon="7.26079">
        <ele>449.072998</ele>
        <time>2009-05-31T13:28:47Z</time>
      </trkpt>
      <trkpt lat="43.80318" lon="7.26075">
        <ele>449.072998</ele>
        <time>2009-05-31T13:28:52Z</time>
      </trkpt>
      <trkpt lat="43.80317" lon="7.2607">
        <ele>450.0344238</ele>
        <time>2009-05-31T13:28:59Z</time>
      </trkpt>
      <trkpt lat="43.80314" lon="7.26066">
        <ele>450.5150146</ele>
        <time>2009-05-31T13:29:10Z</time>
      </trkpt>
      <trkpt lat="43.80312" lon="7.26062">
        <ele>450.5150146</ele>
        <time>2009-05-31T13:29:16Z</time>
      </trkpt>
      <trkpt lat="43.80312" lon="7.26062">
        <ele>450.5150146</ele>
        <time>2009-05-31T13:29:18Z</time>
      </trkpt>
      <trkpt lat="43.80306" lon="7.2606">
        <ele>450.9956055</ele>
        <time>2009-05-31T13:29:23Z</time>
      </trkpt>
      <trkpt lat="43.80297" lon="7.26057">
        <ele>451.9570312</ele>
        <time>2009-05-31T13:29:32Z</time>
      </trkpt>
      <trkpt lat="43.80287" lon="7.26054">
        <ele>453.3989258</ele>
        <time>2009-05-31T13:29:39Z</time>
      </trkpt>
      <trkpt lat="43.80281" lon="7.26054">
        <ele>453.8796387</ele>
        <time>2009-05-31T13:29:46Z</time>
      </trkpt>
      <trkpt lat="43.80277" lon="7.26053">
        <ele>455.3215332</ele>
        <time>2009-05-31T13:29:51Z</time>
      </trkpt>
      <trkpt lat="43.80272" lon="7.26048">
        <ele>456.7635498</ele>
        <time>2009-05-31T13:29:59Z</time>
      </trkpt>
      <trkpt lat="43.8027" lon="7.26047">
        <ele>456.7635498</ele>
        <time>2009-05-31T13:30:01Z</time>
      </trkpt>
      <trkpt lat="43.80268" lon="7.26039">
        <ele>457.7249756</ele>
        <time>2009-05-31T13:30:06Z</time>
      </trkpt>
      <trkpt lat="43.80264" lon="7.2604">
        <ele>457.7249756</ele>
        <time>2009-05-31T13:30:11Z</time>
      </trkpt>
      <trkpt lat="43.80262" lon="7.26036">
        <ele>457.7249756</ele>
        <time>2009-05-31T13:30:15Z</time>
      </trkpt>
      <trkpt lat="43.80256" lon="7.26032">
        <ele>458.6861572</ele>
        <time>2009-05-31T13:30:21Z</time>
      </trkpt>
      <trkpt lat="43.8025" lon="7.26024">
        <ele>460.1281738</ele>
        <time>2009-05-31T13:30:28Z</time>
      </trkpt>
      <trkpt lat="43.80244" lon="7.2602">
        <ele>462.5313721</ele>
        <time>2009-05-31T13:30:36Z</time>
      </trkpt>
      <trkpt lat="43.80241" lon="7.26018">
        <ele>463.4927979</ele>
        <time>2009-05-31T13:30:42Z</time>
      </trkpt>
      <trkpt lat="43.80237" lon="7.26016">
        <ele>464.4541016</ele>
        <time>2009-05-31T13:30:48Z</time>
      </trkpt>
      <trkpt lat="43.80236" lon="7.26012">
        <ele>465.4155273</ele>
        <time>2009-05-31T13:30:53Z</time>
      </trkpt>
      <trkpt lat="43.80229" lon="7.26007">
        <ele>467.3381348</ele>
        <time>2009-05-31T13:31:06Z</time>
      </trkpt>
      <trkpt lat="43.80225" lon="7.26007">
        <ele>467.8187256</ele>
        <time>2009-05-31T13:31:10Z</time>
      </trkpt>
      <trkpt lat="43.80223" lon="7.26006">
        <ele>468.2993164</ele>
        <time>2009-05-31T13:31:15Z</time>
      </trkpt>
      <trkpt lat="43.8022" lon="7.26003">
        <ele>468.7800293</ele>
        <time>2009-05-31T13:31:19Z</time>
      </trkpt>
      <trkpt lat="43.80217" lon="7.25998">
        <ele>469.741333</ele>
        <time>2009-05-31T13:31:25Z</time>
      </trkpt>
      <trkpt lat="43.8021" lon="7.25997">
        <ele>470.2219238</ele>
        <time>2009-05-31T13:31:32Z</time>
      </trkpt>
      <trkpt lat="43.80204" lon="7.25996">
        <ele>471.6639404</ele>
        <time>2009-05-31T13:31:39Z</time>
      </trkpt>
      <trkpt lat="43.802" lon="7.25987">
        <ele>472.1446533</ele>
        <time>2009-05-31T13:31:47Z</time>
      </trkpt>
      <trkpt lat="43.80196" lon="7.25982">
        <ele>474.5479736</ele>
        <time>2009-05-31T13:31:55Z</time>
      </trkpt>
      <trkpt lat="43.80191" lon="7.25981">
        <ele>475.0286865</ele>
        <time>2009-05-31T13:32:02Z</time>
      </trkpt>
      <trkpt lat="43.80187" lon="7.25969">
        <ele>476.9512939</ele>
        <time>2009-05-31T13:32:11Z</time>
      </trkpt>
      <trkpt lat="43.80186" lon="7.25964">
        <ele>477.9124756</ele>
        <time>2009-05-31T13:32:15Z</time>
      </trkpt>
      <trkpt lat="43.80185" lon="7.25953">
        <ele>476.9512939</ele>
        <time>2009-05-31T13:32:23Z</time>
      </trkpt>
      <trkpt lat="43.80174" lon="7.25949">
        <ele>475.9898682</ele>
        <time>2009-05-31T13:32:31Z</time>
      </trkpt>
      <trkpt lat="43.80167" lon="7.25947">
        <ele>475.9898682</ele>
        <time>2009-05-31T13:32:36Z</time>
      </trkpt>
      <trkpt lat="43.80156" lon="7.25945">
        <ele>476.9512939</ele>
        <time>2009-05-31T13:32:44Z</time>
      </trkpt>
      <trkpt lat="43.80152" lon="7.2594">
        <ele>478.3931885</ele>
        <time>2009-05-31T13:32:49Z</time>
      </trkpt>
      <trkpt lat="43.8015" lon="7.25939">
        <ele>477.4318848</ele>
        <time>2009-05-31T13:32:50Z</time>
      </trkpt>
      <trkpt lat="43.8014" lon="7.25938">
        <ele>478.3931885</ele>
        <time>2009-05-31T13:32:57Z</time>
      </trkpt>
      <trkpt lat="43.80129" lon="7.25931">
        <ele>478.3931885</ele>
        <time>2009-05-31T13:33:05Z</time>
      </trkpt>
      <trkpt lat="43.80125" lon="7.25927">
        <ele>478.8739014</ele>
        <time>2009-05-31T13:33:11Z</time>
      </trkpt>
      <trkpt lat="43.80123" lon="7.25922">
        <ele>479.835083</ele>
        <time>2009-05-31T13:33:16Z</time>
      </trkpt>
      <trkpt lat="43.80121" lon="7.25911">
        <ele>480.315918</ele>
        <time>2009-05-31T13:33:23Z</time>
      </trkpt>
      <trkpt lat="43.80116" lon="7.2591">
        <ele>481.2772217</ele>
        <time>2009-05-31T13:33:29Z</time>
      </trkpt>
      <trkpt lat="43.80114" lon="7.25904">
        <ele>481.7578125</ele>
        <time>2009-05-31T13:33:35Z</time>
      </trkpt>
      <trkpt lat="43.80113" lon="7.259">
        <ele>482.7192383</ele>
        <time>2009-05-31T13:33:37Z</time>
      </trkpt>
      <trkpt lat="43.80113" lon="7.25891">
        <ele>483.1998291</ele>
        <time>2009-05-31T13:33:42Z</time>
      </trkpt>
      <trkpt lat="43.80114" lon="7.2588">
        <ele>484.1611328</ele>
        <time>2009-05-31T13:33:49Z</time>
      </trkpt>
      <trkpt lat="43.80113" lon="7.25877">
        <ele>485.1224365</ele>
        <time>2009-05-31T13:33:51Z</time>
      </trkpt>
      <trkpt lat="43.80112" lon="7.25869">
        <ele>485.1224365</ele>
        <time>2009-05-31T13:33:58Z</time>
      </trkpt>
      <trkpt lat="43.80111" lon="7.25864">
        <ele>486.0837402</ele>
        <time>2009-05-31T13:34:03Z</time>
      </trkpt>
      <trkpt lat="43.80114" lon="7.25857">
        <ele>487.5256348</ele>
        <time>2009-05-31T13:34:09Z</time>
      </trkpt>
      <trkpt lat="43.80115" lon="7.25854">
        <ele>487.5256348</ele>
        <time>2009-05-31T13:34:16Z</time>
      </trkpt>
      <trkpt lat="43.80115" lon="7.25853">
        <ele>488.4871826</ele>
        <time>2009-05-31T13:34:17Z</time>
      </trkpt>
      <trkpt lat="43.80111" lon="7.25847">
        <ele>486.0837402</ele>
        <time>2009-05-31T13:34:20Z</time>
      </trkpt>
      <trkpt lat="43.80099" lon="7.25833">
        <ele>483.6804199</ele>
        <time>2009-05-31T13:34:25Z</time>
      </trkpt>
      <trkpt lat="43.80096" lon="7.25831">
        <ele>482.2385254</ele>
        <time>2009-05-31T13:34:29Z</time>
      </trkpt>
      <trkpt lat="43.80094" lon="7.25831">
        <ele>482.2385254</ele>
        <time>2009-05-31T13:34:32Z</time>
      </trkpt>
      <trkpt lat="43.80091" lon="7.25837">
        <ele>483.1998291</ele>
        <time>2009-05-31T13:34:38Z</time>
      </trkpt>
      <trkpt lat="43.80091" lon="7.25838">
        <ele>484.6418457</ele>
        <time>2009-05-31T13:34:40Z</time>
      </trkpt>
      <trkpt lat="43.80086" lon="7.25842">
        <ele>484.6418457</ele>
        <time>2009-05-31T13:34:46Z</time>
      </trkpt>
      <trkpt lat="43.80082" lon="7.2585">
        <ele>485.6030273</ele>
        <time>2009-05-31T13:34:54Z</time>
      </trkpt>
      <trkpt lat="43.80078" lon="7.25858">
        <ele>485.1224365</ele>
        <time>2009-05-31T13:34:59Z</time>
      </trkpt>
      <trkpt lat="43.80067" lon="7.25873">
        <ele>485.6030273</ele>
        <time>2009-05-31T13:35:06Z</time>
      </trkpt>
      <trkpt lat="43.80054" lon="7.25887">
        <ele>484.6418457</ele>
        <time>2009-05-31T13:35:12Z</time>
      </trkpt>
      <trkpt lat="43.80033" lon="7.25897">
        <ele>484.1611328</ele>
        <time>2009-05-31T13:35:18Z</time>
      </trkpt>
      <trkpt lat="43.80019" lon="7.25892">
        <ele>480.7966309</ele>
        <time>2009-05-31T13:35:22Z</time>
      </trkpt>
      <trkpt lat="43.80012" lon="7.25887">
        <ele>478.8739014</ele>
        <time>2009-05-31T13:35:24Z</time>
      </trkpt>
      <trkpt lat="43.80004" lon="7.25882">
        <ele>477.4318848</ele>
        <time>2009-05-31T13:35:26Z</time>
      </trkpt>
      <trkpt lat="43.7999" lon="7.25864">
        <ele>474.5479736</ele>
        <time>2009-05-31T13:35:30Z</time>
      </trkpt>
      <trkpt lat="43.79981" lon="7.25853">
        <ele>473.1060791</ele>
        <time>2009-05-31T13:35:33Z</time>
      </trkpt>
      <trkpt lat="43.7998" lon="7.25852">
        <ele>472.1446533</ele>
        <time>2009-05-31T13:35:35Z</time>
      </trkpt>
      <trkpt lat="43.79975" lon="7.25857">
        <ele>474.5479736</ele>
        <time>2009-05-31T13:35:41Z</time>
      </trkpt>
      <trkpt lat="43.79978" lon="7.25861">
        <ele>475.5092773</ele>
        <time>2009-05-31T13:35:46Z</time>
      </trkpt>
      <trkpt lat="43.79979" lon="7.25866">
        <ele>476.9512939</ele>
        <time>2009-05-31T13:35:54Z</time>
      </trkpt>
      <trkpt lat="43.7998" lon="7.25872">
        <ele>477.4318848</ele>
        <time>2009-05-31T13:35:59Z</time>
      </trkpt>
      <trkpt lat="43.79979" lon="7.25883">
        <ele>478.8739014</ele>
        <time>2009-05-31T13:36:09Z</time>
      </trkpt>
      <trkpt lat="43.79976" lon="7.25887">
        <ele>479.3544922</ele>
        <time>2009-05-31T13:36:12Z</time>
      </trkpt>
      <trkpt lat="43.79974" lon="7.25894">
        <ele>479.835083</ele>
        <time>2009-05-31T13:36:18Z</time>
      </trkpt>
      <trkpt lat="43.79974" lon="7.25899">
        <ele>480.7966309</ele>
        <time>2009-05-31T13:36:23Z</time>
      </trkpt>
      <trkpt lat="43.79973" lon="7.2591">
        <ele>482.2385254</ele>
        <time>2009-05-31T13:36:32Z</time>
      </trkpt>
      <trkpt lat="43.7997" lon="7.25912">
        <ele>482.7192383</ele>
        <time>2009-05-31T13:36:37Z</time>
      </trkpt>
      <trkpt lat="43.79968" lon="7.25918">
        <ele>483.1998291</ele>
        <time>2009-05-31T13:36:42Z</time>
      </trkpt>
      <trkpt lat="43.79968" lon="7.25927">
        <ele>484.6418457</ele>
        <time>2009-05-31T13:36:49Z</time>
      </trkpt>
      <trkpt lat="43.79969" lon="7.25938">
        <ele>485.6030273</ele>
        <time>2009-05-31T13:36:57Z</time>
      </trkpt>
      <trkpt lat="43.79966" lon="7.25942">
        <ele>485.6030273</ele>
        <time>2009-05-31T13:37:03Z</time>
      </trkpt>
      <trkpt lat="43.79965" lon="7.25958">
        <ele>486.5644531</ele>
        <time>2009-05-31T13:37:11Z</time>
      </trkpt>
      <trkpt lat="43.79961" lon="7.25973">
        <ele>488.4871826</ele>
        <time>2009-05-31T13:37:18Z</time>
      </trkpt>
      <trkpt lat="43.79955" lon="7.25986">
        <ele>488.0064697</ele>
        <time>2009-05-31T13:37:24Z</time>
      </trkpt>
      <trkpt lat="43.79943" lon="7.26003">
        <ele>488.0064697</ele>
        <time>2009-05-31T13:37:29Z</time>
      </trkpt>
      <trkpt lat="43.79936" lon="7.26016">
        <ele>488.9677734</ele>
        <time>2009-05-31T13:37:35Z</time>
      </trkpt>
      <trkpt lat="43.79928" lon="7.26024">
        <ele>488.9677734</ele>
        <time>2009-05-31T13:37:41Z</time>
      </trkpt>
      <trkpt lat="43.79917" lon="7.26032">
        <ele>489.9290771</ele>
        <time>2009-05-31T13:37:47Z</time>
      </trkpt>
      <trkpt lat="43.79902" lon="7.26044">
        <ele>489.4483643</ele>
        <time>2009-05-31T13:37:53Z</time>
      </trkpt>
      <trkpt lat="43.79883" lon="7.26062">
        <ele>487.5256348</ele>
        <time>2009-05-31T13:37:57Z</time>
      </trkpt>
      <trkpt lat="43.79874" lon="7.2607">
        <ele>484.1611328</ele>
        <time>2009-05-31T13:37:59Z</time>
      </trkpt>
      <trkpt lat="43.79871" lon="7.26074">
        <ele>484.1611328</ele>
        <time>2009-05-31T13:38:00Z</time>
      </trkpt>
      <trkpt lat="43.79861" lon="7.26089">
        <ele>480.315918</ele>
        <time>2009-05-31T13:38:03Z</time>
      </trkpt>
      <trkpt lat="43.79857" lon="7.26094">
        <ele>480.315918</ele>
        <time>2009-05-31T13:38:04Z</time>
      </trkpt>
      <trkpt lat="43.7984" lon="7.26118">
        <ele>475.9898682</ele>
        <time>2009-05-31T13:38:08Z</time>
      </trkpt>
      <trkpt lat="43.79836" lon="7.26123">
        <ele>475.0286865</ele>
        <time>2009-05-31T13:38:09Z</time>
      </trkpt>
      <trkpt lat="43.79827" lon="7.26137">
        <ele>473.5866699</ele>
        <time>2009-05-31T13:38:12Z</time>
      </trkpt>
      <trkpt lat="43.79818" lon="7.26142">
        <ele>471.1833496</ele>
        <time>2009-05-31T13:38:15Z</time>
      </trkpt>
      <trkpt lat="43.79804" lon="7.26133">
        <ele>470.2219238</ele>
        <time>2009-05-31T13:38:19Z</time>
      </trkpt>
      <trkpt lat="43.79779" lon="7.26111">
        <ele>468.2993164</ele>
        <time>2009-05-31T13:38:26Z</time>
      </trkpt>
      <trkpt lat="43.79775" lon="7.26106">
        <ele>467.8187256</ele>
        <time>2009-05-31T13:38:28Z</time>
      </trkpt>
      <trkpt lat="43.7977" lon="7.26095">
        <ele>467.3381348</ele>
        <time>2009-05-31T13:38:32Z</time>
      </trkpt>
      <trkpt lat="43.79764" lon="7.26077">
        <ele>467.8187256</ele>
        <time>2009-05-31T13:38:38Z</time>
      </trkpt>
      <trkpt lat="43.79755" lon="7.26052">
        <ele>468.7800293</ele>
        <time>2009-05-31T13:38:45Z</time>
      </trkpt>
      <trkpt lat="43.79746" lon="7.26026">
        <ele>469.2607422</ele>
        <time>2009-05-31T13:38:51Z</time>
      </trkpt>
      <trkpt lat="43.7973" lon="7.25986">
        <ele>470.7026367</ele>
        <time>2009-05-31T13:39:02Z</time>
      </trkpt>
      <trkpt lat="43.79721" lon="7.25965">
        <ele>470.2219238</ele>
        <time>2009-05-31T13:39:08Z</time>
      </trkpt>
      <trkpt lat="43.7971" lon="7.25933">
        <ele>472.6253662</ele>
        <time>2009-05-31T13:39:16Z</time>
      </trkpt>
      <trkpt lat="43.79706" lon="7.25902">
        <ele>472.1446533</ele>
        <time>2009-05-31T13:39:23Z</time>
      </trkpt>
      <trkpt lat="43.79706" lon="7.25868">
        <ele>472.6253662</ele>
        <time>2009-05-31T13:39:31Z</time>
      </trkpt>
      <trkpt lat="43.79711" lon="7.25835">
        <ele>474.0672607</ele>
        <time>2009-05-31T13:39:40Z</time>
      </trkpt>
      <trkpt lat="43.79719" lon="7.25804">
        <ele>474.0672607</ele>
        <time>2009-05-31T13:39:48Z</time>
      </trkpt>
      <trkpt lat="43.79724" lon="7.25783">
        <ele>474.5479736</ele>
        <time>2009-05-31T13:39:54Z</time>
      </trkpt>
      <trkpt lat="43.79729" lon="7.25763">
        <ele>475.9898682</ele>
        <time>2009-05-31T13:39:59Z</time>
      </trkpt>
      <trkpt lat="43.79735" lon="7.2574">
        <ele>476.9512939</ele>
        <time>2009-05-31T13:40:05Z</time>
      </trkpt>
      <trkpt lat="43.79743" lon="7.25707">
        <ele>477.4318848</ele>
        <time>2009-05-31T13:40:13Z</time>
      </trkpt>
      <trkpt lat="43.7975" lon="7.25673">
        <ele>477.9124756</ele>
        <time>2009-05-31T13:40:22Z</time>
      </trkpt>
      <trkpt lat="43.79746" lon="7.25649">
        <ele>478.8739014</ele>
        <time>2009-05-31T13:40:28Z</time>
      </trkpt>
      <trkpt lat="43.79729" lon="7.25614">
        <ele>479.835083</ele>
        <time>2009-05-31T13:40:38Z</time>
      </trkpt>
      <trkpt lat="43.79726" lon="7.25612">
        <ele>479.3544922</ele>
        <time>2009-05-31T13:40:39Z</time>
      </trkpt>
      <trkpt lat="43.79709" lon="7.25604">
        <ele>480.7966309</ele>
        <time>2009-05-31T13:40:46Z</time>
      </trkpt>
      <trkpt lat="43.79693" lon="7.25606">
        <ele>479.3544922</ele>
        <time>2009-05-31T13:40:52Z</time>
      </trkpt>
      <trkpt lat="43.79677" lon="7.25619">
        <ele>480.315918</ele>
        <time>2009-05-31T13:40:58Z</time>
      </trkpt>
      <trkpt lat="43.79665" lon="7.2563">
        <ele>480.7966309</ele>
        <time>2009-05-31T13:41:03Z</time>
      </trkpt>
      <trkpt lat="43.79652" lon="7.25641">
        <ele>481.7578125</ele>
        <time>2009-05-31T13:41:08Z</time>
      </trkpt>
      <trkpt lat="43.79639" lon="7.25653">
        <ele>481.7578125</ele>
        <time>2009-05-31T13:41:13Z</time>
      </trkpt>
      <trkpt lat="43.79619" lon="7.25667">
        <ele>482.7192383</ele>
        <time>2009-05-31T13:41:20Z</time>
      </trkpt>
      <trkpt lat="43.79598" lon="7.25671">
        <ele>482.7192383</ele>
        <time>2009-05-31T13:41:27Z</time>
      </trkpt>
      <trkpt lat="43.79575" lon="7.25662">
        <ele>483.6804199</ele>
        <time>2009-05-31T13:41:35Z</time>
      </trkpt>
      <trkpt lat="43.79565" lon="7.25647">
        <ele>484.6418457</ele>
        <time>2009-05-31T13:41:40Z</time>
      </trkpt>
      <trkpt lat="43.79555" lon="7.25623">
        <ele>485.6030273</ele>
        <time>2009-05-31T13:41:47Z</time>
      </trkpt>
      <trkpt lat="43.79549" lon="7.25603">
        <ele>485.1224365</ele>
        <time>2009-05-31T13:41:52Z</time>
      </trkpt>
      <trkpt lat="43.79541" lon="7.25579">
        <ele>485.6030273</ele>
        <time>2009-05-31T13:41:59Z</time>
      </trkpt>
      <trkpt lat="43.79533" lon="7.25555">
        <ele>485.6030273</ele>
        <time>2009-05-31T13:42:05Z</time>
      </trkpt>
      <trkpt lat="43.79518" lon="7.25534">
        <ele>487.0450439</ele>
        <time>2009-05-31T13:42:12Z</time>
      </trkpt>
      <trkpt lat="43.79501" lon="7.25527">
        <ele>487.0450439</ele>
        <time>2009-05-31T13:42:18Z</time>
      </trkpt>
      <trkpt lat="43.79481" lon="7.25537">
        <ele>488.0064697</ele>
        <time>2009-05-31T13:42:25Z</time>
      </trkpt>
      <trkpt lat="43.79465" lon="7.25547">
        <ele>488.4871826</ele>
        <time>2009-05-31T13:42:32Z</time>
      </trkpt>
      <trkpt lat="43.79449" lon="7.25553">
        <ele>489.4483643</ele>
        <time>2009-05-31T13:42:38Z</time>
      </trkpt>
      <trkpt lat="43.79424" lon="7.25554">
        <ele>489.4483643</ele>
        <time>2009-05-31T13:42:46Z</time>
      </trkpt>
      <trkpt lat="43.79405" lon="7.25546">
        <ele>489.4483643</ele>
        <time>2009-05-31T13:42:52Z</time>
      </trkpt>
      <trkpt lat="43.7939" lon="7.25534">
        <ele>489.9290771</ele>
        <time>2009-05-31T13:42:58Z</time>
      </trkpt>
      <trkpt lat="43.79369" lon="7.2552">
        <ele>490.40979</ele>
        <time>2009-05-31T13:43:06Z</time>
      </trkpt>
      <trkpt lat="43.79347" lon="7.25505">
        <ele>491.3709717</ele>
        <time>2009-05-31T13:43:14Z</time>
      </trkpt>
      <trkpt lat="43.79326" lon="7.2548">
        <ele>491.8516846</ele>
        <time>2009-05-31T13:43:23Z</time>
      </trkpt>
      <trkpt lat="43.79315" lon="7.25457">
        <ele>492.3323975</ele>
        <time>2009-05-31T13:43:30Z</time>
      </trkpt>
      <trkpt lat="43.79309" lon="7.25422">
        <ele>493.774292</ele>
        <time>2009-05-31T13:43:39Z</time>
      </trkpt>
      <trkpt lat="43.7931" lon="7.25389">
        <ele>494.7355957</ele>
        <time>2009-05-31T13:43:47Z</time>
      </trkpt>
      <trkpt lat="43.79308" lon="7.25354">
        <ele>495.2161865</ele>
        <time>2009-05-31T13:43:55Z</time>
      </trkpt>
      <trkpt lat="43.793" lon="7.25329">
        <ele>496.6583252</ele>
        <time>2009-05-31T13:44:01Z</time>
      </trkpt>
      <trkpt lat="43.79286" lon="7.25312">
        <ele>496.6583252</ele>
        <time>2009-05-31T13:44:07Z</time>
      </trkpt>
      <trkpt lat="43.7927" lon="7.25305">
        <ele>498.1003418</ele>
        <time>2009-05-31T13:44:13Z</time>
      </trkpt>
      <trkpt lat="43.79253" lon="7.25308">
        <ele>497.6196289</ele>
        <time>2009-05-31T13:44:19Z</time>
      </trkpt>
      <trkpt lat="43.79227" lon="7.2532">
        <ele>498.1003418</ele>
        <time>2009-05-31T13:44:28Z</time>
      </trkpt>
      <trkpt lat="43.79197" lon="7.25335">
        <ele>500.0229492</ele>
        <time>2009-05-31T13:44:39Z</time>
      </trkpt>
      <trkpt lat="43.79177" lon="7.25345">
        <ele>500.0229492</ele>
        <time>2009-05-31T13:44:46Z</time>
      </trkpt>
      <trkpt lat="43.79158" lon="7.25355">
        <ele>500.9841309</ele>
        <time>2009-05-31T13:44:53Z</time>
      </trkpt>
      <trkpt lat="43.79138" lon="7.25362">
        <ele>500.9841309</ele>
        <time>2009-05-31T13:45:00Z</time>
      </trkpt>
      <trkpt lat="43.79113" lon="7.25368">
        <ele>501.9455566</ele>
        <time>2009-05-31T13:45:09Z</time>
      </trkpt>
      <trkpt lat="43.79087" lon="7.2537">
        <ele>502.9067383</ele>
        <time>2009-05-31T13:45:18Z</time>
      </trkpt>
      <trkpt lat="43.79061" lon="7.25373">
        <ele>502.9067383</ele>
        <time>2009-05-31T13:45:26Z</time>
      </trkpt>
      <trkpt lat="43.79051" lon="7.25375">
        <ele>503.3874512</ele>
        <time>2009-05-31T13:45:29Z</time>
      </trkpt>
      <trkpt lat="43.79034" lon="7.2538">
        <ele>504.348877</ele>
        <time>2009-05-31T13:45:34Z</time>
      </trkpt>
      <trkpt lat="43.79015" lon="7.25384">
        <ele>504.348877</ele>
        <time>2009-05-31T13:45:40Z</time>
      </trkpt>
      <trkpt lat="43.78952" lon="7.25364">
        <ele>507.2327881</ele>
        <time>2009-05-31T13:46:01Z</time>
      </trkpt>
      <trkpt lat="43.78938" lon="7.25349">
        <ele>507.2327881</ele>
        <time>2009-05-31T13:46:07Z</time>
      </trkpt>
      <trkpt lat="43.78929" lon="7.25322">
        <ele>507.713501</ele>
        <time>2009-05-31T13:46:14Z</time>
      </trkpt>
      <trkpt lat="43.78925" lon="7.25295">
        <ele>508.6746826</ele>
        <time>2009-05-31T13:46:20Z</time>
      </trkpt>
      <trkpt lat="43.78916" lon="7.25273">
        <ele>509.1553955</ele>
        <time>2009-05-31T13:46:26Z</time>
      </trkpt>
      <trkpt lat="43.78901" lon="7.25253">
        <ele>509.6361084</ele>
        <time>2009-05-31T13:46:33Z</time>
      </trkpt>
      <trkpt lat="43.78882" lon="7.25242">
        <ele>509.6361084</ele>
        <time>2009-05-31T13:46:40Z</time>
      </trkpt>
      <trkpt lat="43.78864" lon="7.25241">
        <ele>510.1166992</ele>
        <time>2009-05-31T13:46:46Z</time>
      </trkpt>
      <trkpt lat="43.78841" lon="7.25238">
        <ele>511.5587158</ele>
        <time>2009-05-31T13:46:54Z</time>
      </trkpt>
      <trkpt lat="43.78821" lon="7.25231">
        <ele>512.5200195</ele>
        <time>2009-05-31T13:47:01Z</time>
      </trkpt>
      <trkpt lat="43.78809" lon="7.2522">
        <ele>513.0007324</ele>
        <time>2009-05-31T13:47:06Z</time>
      </trkpt>
      <trkpt lat="43.78791" lon="7.2521">
        <ele>514.442627</ele>
        <time>2009-05-31T13:47:13Z</time>
      </trkpt>
      <trkpt lat="43.78773" lon="7.25212">
        <ele>514.9233398</ele>
        <time>2009-05-31T13:47:19Z</time>
      </trkpt>
      <trkpt lat="43.78758" lon="7.25224">
        <ele>514.9233398</ele>
        <time>2009-05-31T13:47:26Z</time>
      </trkpt>
      <trkpt lat="43.7874" lon="7.25239">
        <ele>516.3652344</ele>
        <time>2009-05-31T13:47:33Z</time>
      </trkpt>
      <trkpt lat="43.78726" lon="7.25251">
        <ele>516.8459473</ele>
        <time>2009-05-31T13:47:38Z</time>
      </trkpt>
      <trkpt lat="43.78705" lon="7.25262">
        <ele>517.807251</ele>
        <time>2009-05-31T13:47:45Z</time>
      </trkpt>
      <trkpt lat="43.78682" lon="7.25264">
        <ele>519.2492676</ele>
        <time>2009-05-31T13:47:52Z</time>
      </trkpt>
      <trkpt lat="43.78659" lon="7.25262">
        <ele>519.7298584</ele>
        <time>2009-05-31T13:47:59Z</time>
      </trkpt>
      <trkpt lat="43.78637" lon="7.25256">
        <ele>520.2105713</ele>
        <time>2009-05-31T13:48:07Z</time>
      </trkpt>
      <trkpt lat="43.78624" lon="7.25255">
        <ele>520.6912842</ele>
        <time>2009-05-31T13:48:12Z</time>
      </trkpt>
      <trkpt lat="43.78603" lon="7.25258">
        <ele>521.1719971</ele>
        <time>2009-05-31T13:48:19Z</time>
      </trkpt>
      <trkpt lat="43.78585" lon="7.25259">
        <ele>521.6525879</ele>
        <time>2009-05-31T13:48:25Z</time>
      </trkpt>
      <trkpt lat="43.78567" lon="7.25259">
        <ele>522.1331787</ele>
        <time>2009-05-31T13:48:31Z</time>
      </trkpt>
      <trkpt lat="43.78535" lon="7.25262">
        <ele>523.0946045</ele>
        <time>2009-05-31T13:48:41Z</time>
      </trkpt>
      <trkpt lat="43.78507" lon="7.25266">
        <ele>524.0557861</ele>
        <time>2009-05-31T13:48:51Z</time>
      </trkpt>
      <trkpt lat="43.78487" lon="7.25271">
        <ele>525.0172119</ele>
        <time>2009-05-31T13:48:58Z</time>
      </trkpt>
      <trkpt lat="43.78467" lon="7.25278">
        <ele>525.0172119</ele>
        <time>2009-05-31T13:49:04Z</time>
      </trkpt>
      <trkpt lat="43.78445" lon="7.25286">
        <ele>525.9783936</ele>
        <time>2009-05-31T13:49:12Z</time>
      </trkpt>
      <trkpt lat="43.7843" lon="7.25294">
        <ele>525.9783936</ele>
        <time>2009-05-31T13:49:17Z</time>
      </trkpt>
      <trkpt lat="43.78413" lon="7.25302">
        <ele>527.4204102</ele>
        <time>2009-05-31T13:49:23Z</time>
      </trkpt>
      <trkpt lat="43.78386" lon="7.25313">
        <ele>527.901001</ele>
        <time>2009-05-31T13:49:32Z</time>
      </trkpt>
      <trkpt lat="43.78364" lon="7.25323">
        <ele>528.3818359</ele>
        <time>2009-05-31T13:49:40Z</time>
      </trkpt>
      <trkpt lat="43.78351" lon="7.2533">
        <ele>529.3431396</ele>
        <time>2009-05-31T13:49:45Z</time>
      </trkpt>
      <trkpt lat="43.78331" lon="7.25345">
        <ele>529.3431396</ele>
        <time>2009-05-31T13:49:52Z</time>
      </trkpt>
      <trkpt lat="43.78307" lon="7.25365">
        <ele>530.3044434</ele>
        <time>2009-05-31T13:50:01Z</time>
      </trkpt>
      <trkpt lat="43.78288" lon="7.25383">
        <ele>531.2657471</ele>
        <time>2009-05-31T13:50:09Z</time>
      </trkpt>
      <trkpt lat="43.78273" lon="7.25395">
        <ele>531.2657471</ele>
        <time>2009-05-31T13:50:15Z</time>
      </trkpt>
      <trkpt lat="43.78256" lon="7.25401">
        <ele>532.7077637</ele>
        <time>2009-05-31T13:50:21Z</time>
      </trkpt>
      <trkpt lat="43.7824" lon="7.254">
        <ele>533.6689453</ele>
        <time>2009-05-31T13:50:26Z</time>
      </trkpt>
      <trkpt lat="43.78224" lon="7.25382">
        <ele>533.1883545</ele>
        <time>2009-05-31T13:50:33Z</time>
      </trkpt>
      <trkpt lat="43.78216" lon="7.2536">
        <ele>533.6689453</ele>
        <time>2009-05-31T13:50:39Z</time>
      </trkpt>
      <trkpt lat="43.78207" lon="7.25331">
        <ele>534.1496582</ele>
        <time>2009-05-31T13:50:47Z</time>
      </trkpt>
      <trkpt lat="43.78203" lon="7.25298">
        <ele>535.1109619</ele>
        <time>2009-05-31T13:50:55Z</time>
      </trkpt>
      <trkpt lat="43.78196" lon="7.25283">
        <ele>536.0723877</ele>
        <time>2009-05-31T13:51:00Z</time>
      </trkpt>
      <trkpt lat="43.78179" lon="7.25269">
        <ele>535.1109619</ele>
        <time>2009-05-31T13:51:06Z</time>
      </trkpt>
      <trkpt lat="43.78166" lon="7.25259">
        <ele>537.9949951</ele>
        <time>2009-05-31T13:51:12Z</time>
      </trkpt>
      <trkpt lat="43.78158" lon="7.25247">
        <ele>539.4368896</ele>
        <time>2009-05-31T13:51:19Z</time>
      </trkpt>
      <trkpt lat="43.78156" lon="7.25242">
        <ele>539.4368896</ele>
        <time>2009-05-31T13:51:22Z</time>
      </trkpt>
      <trkpt lat="43.78154" lon="7.25239">
        <ele>540.3983154</ele>
        <time>2009-05-31T13:51:24Z</time>
      </trkpt>
      <trkpt lat="43.78152" lon="7.25237">
        <ele>541.84021</ele>
        <time>2009-05-31T13:51:26Z</time>
      </trkpt>
      <trkpt lat="43.78144" lon="7.25244">
        <ele>543.2821045</ele>
        <time>2009-05-31T13:51:34Z</time>
      </trkpt>
      <trkpt lat="43.78142" lon="7.25246">
        <ele>543.7628174</ele>
        <time>2009-05-31T13:51:36Z</time>
      </trkpt>
      <trkpt lat="43.78134" lon="7.25255">
        <ele>545.204834</ele>
        <time>2009-05-31T13:51:46Z</time>
      </trkpt>
      <trkpt lat="43.78129" lon="7.2526">
        <ele>546.6468506</ele>
        <time>2009-05-31T13:51:52Z</time>
      </trkpt>
      <trkpt lat="43.78121" lon="7.25266">
        <ele>549.5307617</ele>
        <time>2009-05-31T13:52:02Z</time>
      </trkpt>
      <trkpt lat="43.78113" lon="7.25272">
        <ele>550.4921875</ele>
        <time>2009-05-31T13:52:11Z</time>
      </trkpt>
      <trkpt lat="43.78103" lon="7.2528">
        <ele>551.4533691</ele>
        <time>2009-05-31T13:52:21Z</time>
      </trkpt>
      <trkpt lat="43.7809" lon="7.2529">
        <ele>552.4145508</ele>
        <time>2009-05-31T13:52:33Z</time>
      </trkpt>
      <trkpt lat="43.78079" lon="7.25298">
        <ele>553.3759766</ele>
        <time>2009-05-31T13:52:43Z</time>
      </trkpt>
      <trkpt lat="43.78078" lon="7.253">
        <ele>553.3759766</ele>
        <time>2009-05-31T13:52:49Z</time>
      </trkpt>
      <trkpt lat="43.78078" lon="7.253">
        <ele>553.8566895</ele>
        <time>2009-05-31T13:53:07Z</time>
      </trkpt>
      <trkpt lat="43.78075" lon="7.25302">
        <ele>554.8178711</ele>
        <time>2009-05-31T13:53:13Z</time>
      </trkpt>
      <trkpt lat="43.78069" lon="7.25306">
        <ele>555.298584</ele>
        <time>2009-05-31T13:53:21Z</time>
      </trkpt>
      <trkpt lat="43.78068" lon="7.25308">
        <ele>555.7792969</ele>
        <time>2009-05-31T13:53:25Z</time>
      </trkpt>
      <trkpt lat="43.78063" lon="7.25313">
        <ele>556.7407227</ele>
        <time>2009-05-31T13:53:32Z</time>
      </trkpt>
      <trkpt lat="43.78059" lon="7.25319">
        <ele>558.6633301</ele>
        <time>2009-05-31T13:53:41Z</time>
      </trkpt>
      <trkpt lat="43.78059" lon="7.25319">
        <ele>559.144043</ele>
        <time>2009-05-31T13:53:42Z</time>
      </trkpt>
      <trkpt lat="43.78057" lon="7.25321">
        <ele>559.6247559</ele>
        <time>2009-05-31T13:53:47Z</time>
      </trkpt>
      <trkpt lat="43.78053" lon="7.25325">
        <ele>560.5859375</ele>
        <time>2009-05-31T13:53:53Z</time>
      </trkpt>
      <trkpt lat="43.78048" lon="7.25327">
        <ele>560.5859375</ele>
        <time>2009-05-31T13:53:59Z</time>
      </trkpt>
      <trkpt lat="43.78046" lon="7.25329">
        <ele>562.0280762</ele>
        <time>2009-05-31T13:54:05Z</time>
      </trkpt>
      <trkpt lat="43.78038" lon="7.25334">
        <ele>562.5085449</ele>
        <time>2009-05-31T13:54:15Z</time>
      </trkpt>
      <trkpt lat="43.78037" lon="7.25336">
        <ele>562.5085449</ele>
        <time>2009-05-31T13:54:20Z</time>
      </trkpt>
      <trkpt lat="43.78034" lon="7.25339">
        <ele>563.9504395</ele>
        <time>2009-05-31T13:54:27Z</time>
      </trkpt>
      <trkpt lat="43.78029" lon="7.25343">
        <ele>565.3925781</ele>
        <time>2009-05-31T13:54:34Z</time>
      </trkpt>
      <trkpt lat="43.78026" lon="7.25348">
        <ele>566.3537598</ele>
        <time>2009-05-31T13:54:42Z</time>
      </trkpt>
      <trkpt lat="43.78023" lon="7.25354">
        <ele>566.3537598</ele>
        <time>2009-05-31T13:54:50Z</time>
      </trkpt>
      <trkpt lat="43.78018" lon="7.2536">
        <ele>566.8344727</ele>
        <time>2009-05-31T13:54:58Z</time>
      </trkpt>
      <trkpt lat="43.78012" lon="7.25366">
        <ele>566.8344727</ele>
        <time>2009-05-31T13:55:06Z</time>
      </trkpt>
      <trkpt lat="43.78005" lon="7.25373">
        <ele>567.3151855</ele>
        <time>2009-05-31T13:55:13Z</time>
      </trkpt>
      <trkpt lat="43.77998" lon="7.25384">
        <ele>567.7956543</ele>
        <time>2009-05-31T13:55:22Z</time>
      </trkpt>
      <trkpt lat="43.77989" lon="7.25393">
        <ele>567.7956543</ele>
        <time>2009-05-31T13:55:31Z</time>
      </trkpt>
      <trkpt lat="43.77978" lon="7.25402">
        <ele>568.7570801</ele>
        <time>2009-05-31T13:55:41Z</time>
      </trkpt>
      <trkpt lat="43.77975" lon="7.25407">
        <ele>569.237793</ele>
        <time>2009-05-31T13:55:49Z</time>
      </trkpt>
      <trkpt lat="43.77969" lon="7.25413">
        <ele>569.7185059</ele>
        <time>2009-05-31T13:55:57Z</time>
      </trkpt>
      <trkpt lat="43.77967" lon="7.25419">
        <ele>571.1604004</ele>
        <time>2009-05-31T13:56:05Z</time>
      </trkpt>
      <trkpt lat="43.77961" lon="7.25423">
        <ele>571.1604004</ele>
        <time>2009-05-31T13:56:11Z</time>
      </trkpt>
      <trkpt lat="43.77957" lon="7.25429">
        <ele>572.6025391</ele>
        <time>2009-05-31T13:56:16Z</time>
      </trkpt>
      <trkpt lat="43.77953" lon="7.25438">
        <ele>573.083252</ele>
        <time>2009-05-31T13:56:23Z</time>
      </trkpt>
      <trkpt lat="43.77952" lon="7.25446">
        <ele>573.083252</ele>
        <time>2009-05-31T13:56:29Z</time>
      </trkpt>
      <trkpt lat="43.77949" lon="7.25458">
        <ele>574.5251465</ele>
        <time>2009-05-31T13:56:39Z</time>
      </trkpt>
      <trkpt lat="43.77948" lon="7.25469">
        <ele>575.967041</ele>
        <time>2009-05-31T13:56:48Z</time>
      </trkpt>
      <trkpt lat="43.77947" lon="7.25477">
        <ele>577.4091797</ele>
        <time>2009-05-31T13:56:56Z</time>
      </trkpt>
      <trkpt lat="43.77947" lon="7.2548">
        <ele>578.3703613</ele>
        <time>2009-05-31T13:57:01Z</time>
      </trkpt>
      <trkpt lat="43.77946" lon="7.25484">
        <ele>579.331543</ele>
        <time>2009-05-31T13:57:07Z</time>
      </trkpt>
      <trkpt lat="43.77942" lon="7.25491">
        <ele>579.8122559</ele>
        <time>2009-05-31T13:57:15Z</time>
      </trkpt>
      <trkpt lat="43.7794" lon="7.25498">
        <ele>580.2929688</ele>
        <time>2009-05-31T13:57:23Z</time>
      </trkpt>
      <trkpt lat="43.77937" lon="7.25504">
        <ele>581.7348633</ele>
        <time>2009-05-31T13:57:29Z</time>
      </trkpt>
      <trkpt lat="43.77934" lon="7.25509">
        <ele>582.6962891</ele>
        <time>2009-05-31T13:57:35Z</time>
      </trkpt>
      <trkpt lat="43.7793" lon="7.25517">
        <ele>584.1381836</ele>
        <time>2009-05-31T13:57:44Z</time>
      </trkpt>
      <trkpt lat="43.77926" lon="7.25523">
        <ele>585.0996094</ele>
        <time>2009-05-31T13:57:52Z</time>
      </trkpt>
      <trkpt lat="43.77924" lon="7.25526">
        <ele>585.5800781</ele>
        <time>2009-05-31T13:57:57Z</time>
      </trkpt>
      <trkpt lat="43.77921" lon="7.25528">
        <ele>586.5415039</ele>
        <time>2009-05-31T13:58:02Z</time>
      </trkpt>
      <trkpt lat="43.77916" lon="7.25535">
        <ele>588.4643555</ele>
        <time>2009-05-31T13:58:10Z</time>
      </trkpt>
      <trkpt lat="43.77914" lon="7.25537">
        <ele>588.9450684</ele>
        <time>2009-05-31T13:58:14Z</time>
      </trkpt>
      <trkpt lat="43.7791" lon="7.25544">
        <ele>590.3869629</ele>
        <time>2009-05-31T13:58:25Z</time>
      </trkpt>
      <trkpt lat="43.77907" lon="7.25548">
        <ele>591.3481445</ele>
        <time>2009-05-31T13:58:31Z</time>
      </trkpt>
      <trkpt lat="43.77903" lon="7.25556">
        <ele>593.7514648</ele>
        <time>2009-05-31T13:58:42Z</time>
      </trkpt>
      <trkpt lat="43.77901" lon="7.25559">
        <ele>594.2321777</ele>
        <time>2009-05-31T13:58:49Z</time>
      </trkpt>
      <trkpt lat="43.77897" lon="7.25564">
        <ele>595.1933594</ele>
        <time>2009-05-31T13:58:59Z</time>
      </trkpt>
      <trkpt lat="43.77893" lon="7.25564">
        <ele>596.635498</ele>
        <time>2009-05-31T13:59:08Z</time>
      </trkpt>
      <trkpt lat="43.7789" lon="7.25565">
        <ele>597.5966797</ele>
        <time>2009-05-31T13:59:22Z</time>
      </trkpt>
      <trkpt lat="43.7789" lon="7.25566">
        <ele>597.5966797</ele>
        <time>2009-05-31T13:59:23Z</time>
      </trkpt>
      <trkpt lat="43.77889" lon="7.2557">
        <ele>598.0773926</ele>
        <time>2009-05-31T13:59:29Z</time>
      </trkpt>
      <trkpt lat="43.77889" lon="7.25571">
        <ele>598.0773926</ele>
        <time>2009-05-31T13:59:37Z</time>
      </trkpt>
      <trkpt lat="43.77886" lon="7.25571">
        <ele>598.5578613</ele>
        <time>2009-05-31T13:59:49Z</time>
      </trkpt>
      <trkpt lat="43.77884" lon="7.25575">
        <ele>600</ele>
        <time>2009-05-31T13:59:55Z</time>
      </trkpt>
      <trkpt lat="43.77882" lon="7.25576">
        <ele>601.4418945</ele>
        <time>2009-05-31T14:00:00Z</time>
      </trkpt>
      <trkpt lat="43.77881" lon="7.25578">
        <ele>602.4030762</ele>
        <time>2009-05-31T14:00:06Z</time>
      </trkpt>
      <trkpt lat="43.77882" lon="7.25583">
        <ele>603.8452148</ele>
        <time>2009-05-31T14:00:13Z</time>
      </trkpt>
      <trkpt lat="43.77884" lon="7.25586">
        <ele>604.3261719</ele>
        <time>2009-05-31T14:00:20Z</time>
      </trkpt>
      <trkpt lat="43.77886" lon="7.2559">
        <ele>605.7680664</ele>
        <time>2009-05-31T14:00:27Z</time>
      </trkpt>
      <trkpt lat="43.77888" lon="7.25593">
        <ele>606.729248</ele>
        <time>2009-05-31T14:00:34Z</time>
      </trkpt>
      <trkpt lat="43.77885" lon="7.25596">
        <ele>607.2099609</ele>
        <time>2009-05-31T14:00:40Z</time>
      </trkpt>
      <trkpt lat="43.77879" lon="7.25594">
        <ele>609.1325684</ele>
        <time>2009-05-31T14:00:49Z</time>
      </trkpt>
      <trkpt lat="43.77873" lon="7.25593">
        <ele>610.5744629</ele>
        <time>2009-05-31T14:00:57Z</time>
      </trkpt>
      <trkpt lat="43.77868" lon="7.25589">
        <ele>612.4970703</ele>
        <time>2009-05-31T14:01:07Z</time>
      </trkpt>
      <trkpt lat="43.77866" lon="7.25592">
        <ele>612.4970703</ele>
        <time>2009-05-31T14:01:14Z</time>
      </trkpt>
      <trkpt lat="43.77865" lon="7.256">
        <ele>613.9389648</ele>
        <time>2009-05-31T14:01:23Z</time>
      </trkpt>
      <trkpt lat="43.77866" lon="7.25605">
        <ele>614.4196777</ele>
        <time>2009-05-31T14:01:29Z</time>
      </trkpt>
      <trkpt lat="43.77868" lon="7.25613">
        <ele>615.8618164</ele>
        <time>2009-05-31T14:01:39Z</time>
      </trkpt>
      <trkpt lat="43.77869" lon="7.25617">
        <ele>617.7841797</ele>
        <time>2009-05-31T14:01:47Z</time>
      </trkpt>
      <trkpt lat="43.77869" lon="7.25625">
        <ele>619.2263184</ele>
        <time>2009-05-31T14:01:57Z</time>
      </trkpt>
      <trkpt lat="43.77867" lon="7.25633">
        <ele>619.2263184</ele>
        <time>2009-05-31T14:02:08Z</time>
      </trkpt>
      <trkpt lat="43.77864" lon="7.25632">
        <ele>620.1877441</ele>
        <time>2009-05-31T14:02:15Z</time>
      </trkpt>
      <trkpt lat="43.77861" lon="7.25632">
        <ele>621.6296387</ele>
        <time>2009-05-31T14:02:21Z</time>
      </trkpt>
      <trkpt lat="43.77857" lon="7.2563">
        <ele>623.0717773</ele>
        <time>2009-05-31T14:02:29Z</time>
      </trkpt>
      <trkpt lat="43.77853" lon="7.25627">
        <ele>624.032959</ele>
        <time>2009-05-31T14:02:37Z</time>
      </trkpt>
      <trkpt lat="43.77848" lon="7.25626">
        <ele>625.4748535</ele>
        <time>2009-05-31T14:02:45Z</time>
      </trkpt>
      <trkpt lat="43.77845" lon="7.25627">
        <ele>625.9555664</ele>
        <time>2009-05-31T14:02:52Z</time>
      </trkpt>
      <trkpt lat="43.77839" lon="7.25627">
        <ele>627.3977051</ele>
        <time>2009-05-31T14:03:02Z</time>
      </trkpt>
      <trkpt lat="43.77835" lon="7.25628">
        <ele>628.8395996</ele>
        <time>2009-05-31T14:03:12Z</time>
      </trkpt>
      <trkpt lat="43.7783" lon="7.25627">
        <ele>630.2814941</ele>
        <time>2009-05-31T14:03:22Z</time>
      </trkpt>
      <trkpt lat="43.77826" lon="7.25626">
        <ele>630.762207</ele>
        <time>2009-05-31T14:03:30Z</time>
      </trkpt>
      <trkpt lat="43.77823" lon="7.25623">
        <ele>631.7233887</ele>
        <time>2009-05-31T14:03:38Z</time>
      </trkpt>
      <trkpt lat="43.77819" lon="7.25616">
        <ele>633.1652832</ele>
        <time>2009-05-31T14:03:48Z</time>
      </trkpt>
      <trkpt lat="43.77816" lon="7.25615">
        <ele>634.126709</ele>
        <time>2009-05-31T14:03:56Z</time>
      </trkpt>
      <trkpt lat="43.77815" lon="7.25619">
        <ele>635.5686035</ele>
        <time>2009-05-31T14:04:05Z</time>
      </trkpt>
      <trkpt lat="43.77813" lon="7.25623">
        <ele>636.5302734</ele>
        <time>2009-05-31T14:04:13Z</time>
      </trkpt>
      <trkpt lat="43.77808" lon="7.25631">
        <ele>637.972168</ele>
        <time>2009-05-31T14:04:22Z</time>
      </trkpt>
      <trkpt lat="43.77806" lon="7.25626">
        <ele>638.9335938</ele>
        <time>2009-05-31T14:04:28Z</time>
      </trkpt>
      <trkpt lat="43.77804" lon="7.25619">
        <ele>640.855957</ele>
        <time>2009-05-31T14:04:35Z</time>
      </trkpt>
      <trkpt lat="43.77803" lon="7.25613">
        <ele>641.8173828</ele>
        <time>2009-05-31T14:04:42Z</time>
      </trkpt>
      <trkpt lat="43.77803" lon="7.25604">
        <ele>642.2980957</ele>
        <time>2009-05-31T14:04:51Z</time>
      </trkpt>
      <trkpt lat="43.77801" lon="7.25606">
        <ele>643.2592773</ele>
        <time>2009-05-31T14:04:57Z</time>
      </trkpt>
      <trkpt lat="43.77797" lon="7.25615">
        <ele>645.6625977</ele>
        <time>2009-05-31T14:05:06Z</time>
      </trkpt>
      <trkpt lat="43.77795" lon="7.25619">
        <ele>647.1044922</ele>
        <time>2009-05-31T14:05:15Z</time>
      </trkpt>
      <trkpt lat="43.77793" lon="7.25623">
        <ele>648.065918</ele>
        <time>2009-05-31T14:05:23Z</time>
      </trkpt>
      <trkpt lat="43.77788" lon="7.25629">
        <ele>647.5852051</ele>
        <time>2009-05-31T14:05:33Z</time>
      </trkpt>
      <trkpt lat="43.77786" lon="7.25636">
        <ele>648.065918</ele>
        <time>2009-05-31T14:05:41Z</time>
      </trkpt>
      <trkpt lat="43.77784" lon="7.25633">
        <ele>648.5463867</ele>
        <time>2009-05-31T14:05:47Z</time>
      </trkpt>
      <trkpt lat="43.77784" lon="7.25626">
        <ele>650.4692383</ele>
        <time>2009-05-31T14:05:55Z</time>
      </trkpt>
      <trkpt lat="43.77781" lon="7.25622">
        <ele>651.4304199</ele>
        <time>2009-05-31T14:06:03Z</time>
      </trkpt>
      <trkpt lat="43.77778" lon="7.25626">
        <ele>652.8725586</ele>
        <time>2009-05-31T14:06:11Z</time>
      </trkpt>
      <trkpt lat="43.77773" lon="7.25633">
        <ele>653.8339844</ele>
        <time>2009-05-31T14:06:21Z</time>
      </trkpt>
      <trkpt lat="43.77769" lon="7.25638">
        <ele>656.7177734</ele>
        <time>2009-05-31T14:06:29Z</time>
      </trkpt>
      <trkpt lat="43.77765" lon="7.25643">
        <ele>657.6791992</ele>
        <time>2009-05-31T14:06:39Z</time>
      </trkpt>
      <trkpt lat="43.77763" lon="7.25647">
        <ele>659.6018066</ele>
        <time>2009-05-31T14:06:47Z</time>
      </trkpt>
      <trkpt lat="43.77759" lon="7.25652">
        <ele>659.6018066</ele>
        <time>2009-05-31T14:06:55Z</time>
      </trkpt>
      <trkpt lat="43.77755" lon="7.25656">
        <ele>661.5244141</ele>
        <time>2009-05-31T14:07:03Z</time>
      </trkpt>
      <trkpt lat="43.77751" lon="7.25661">
        <ele>662.4855957</ele>
        <time>2009-05-31T14:07:13Z</time>
      </trkpt>
      <trkpt lat="43.77749" lon="7.25664">
        <ele>663.4470215</ele>
        <time>2009-05-31T14:07:22Z</time>
      </trkpt>
      <trkpt lat="43.77745" lon="7.25668">
        <ele>664.4082031</ele>
        <time>2009-05-31T14:07:32Z</time>
      </trkpt>
      <trkpt lat="43.77743" lon="7.25673">
        <ele>666.3308105</ele>
        <time>2009-05-31T14:07:40Z</time>
      </trkpt>
      <trkpt lat="43.77741" lon="7.25677">
        <ele>666.8115234</ele>
        <time>2009-05-31T14:07:48Z</time>
      </trkpt>
      <trkpt lat="43.77741" lon="7.25676">
        <ele>666.8115234</ele>
        <time>2009-05-31T14:07:54Z</time>
      </trkpt>
      <trkpt lat="43.7774" lon="7.25677">
        <ele>667.2922363</ele>
        <time>2009-05-31T14:08:02Z</time>
      </trkpt>
      <trkpt lat="43.7774" lon="7.25676">
        <ele>666.8115234</ele>
        <time>2009-05-31T14:08:09Z</time>
      </trkpt>
      <trkpt lat="43.77739" lon="7.25674">
        <ele>665.3696289</ele>
        <time>2009-05-31T14:11:23Z</time>
      </trkpt>
      <trkpt lat="43.77739" lon="7.25673">
        <ele>668.734375</ele>
        <time>2009-05-31T14:13:16Z</time>
      </trkpt>
      <trkpt lat="43.77739" lon="7.25677">
        <ele>667.2922363</ele>
        <time>2009-05-31T14:13:25Z</time>
      </trkpt>
      <trkpt lat="43.77738" lon="7.25679">
        <ele>668.734375</ele>
        <time>2009-05-31T14:13:28Z</time>
      </trkpt>
      <trkpt lat="43.77734" lon="7.25689">
        <ele>669.6958008</ele>
        <time>2009-05-31T14:13:38Z</time>
      </trkpt>
      <trkpt lat="43.7773" lon="7.25699">
        <ele>672.098877</ele>
        <time>2009-05-31T14:13:50Z</time>
      </trkpt>
      <trkpt lat="43.77727" lon="7.25707">
        <ele>672.5795898</ele>
        <time>2009-05-31T14:13:59Z</time>
      </trkpt>
      <trkpt lat="43.77726" lon="7.25716">
        <ele>673.5410156</ele>
        <time>2009-05-31T14:14:09Z</time>
      </trkpt>
      <trkpt lat="43.77725" lon="7.25724">
        <ele>675.9440918</ele>
        <time>2009-05-31T14:14:18Z</time>
      </trkpt>
      <trkpt lat="43.77722" lon="7.25732">
        <ele>677.8666992</ele>
        <time>2009-05-31T14:14:27Z</time>
      </trkpt>
      <trkpt lat="43.77721" lon="7.25738">
        <ele>677.8666992</ele>
        <time>2009-05-31T14:14:34Z</time>
      </trkpt>
      <trkpt lat="43.77721" lon="7.25745">
        <ele>678.828125</ele>
        <time>2009-05-31T14:14:42Z</time>
      </trkpt>
      <trkpt lat="43.77722" lon="7.25756">
        <ele>679.3085938</ele>
        <time>2009-05-31T14:14:52Z</time>
      </trkpt>
      <trkpt lat="43.77723" lon="7.2576">
        <ele>679.3085938</ele>
        <time>2009-05-31T14:14:56Z</time>
      </trkpt>
      <trkpt lat="43.77722" lon="7.25769">
        <ele>680.7507324</ele>
        <time>2009-05-31T14:15:04Z</time>
      </trkpt>
      <trkpt lat="43.77721" lon="7.25777">
        <ele>682.192627</ele>
        <time>2009-05-31T14:15:13Z</time>
      </trkpt>
      <trkpt lat="43.7772" lon="7.25783">
        <ele>682.6733398</ele>
        <time>2009-05-31T14:15:20Z</time>
      </trkpt>
      <trkpt lat="43.77718" lon="7.25789">
        <ele>683.1538086</ele>
        <time>2009-05-31T14:15:26Z</time>
      </trkpt>
      <trkpt lat="43.77714" lon="7.25797">
        <ele>683.6345215</ele>
        <time>2009-05-31T14:15:35Z</time>
      </trkpt>
      <trkpt lat="43.77711" lon="7.25807">
        <ele>686.5187988</ele>
        <time>2009-05-31T14:15:46Z</time>
      </trkpt>
      <trkpt lat="43.77707" lon="7.25817">
        <ele>685.557373</ele>
        <time>2009-05-31T14:15:56Z</time>
      </trkpt>
      <trkpt lat="43.77702" lon="7.25825">
        <ele>686.0380859</ele>
        <time>2009-05-31T14:16:06Z</time>
      </trkpt>
      <trkpt lat="43.77696" lon="7.25832">
        <ele>686.5187988</ele>
        <time>2009-05-31T14:16:16Z</time>
      </trkpt>
      <trkpt lat="43.7769" lon="7.2584">
        <ele>687.9606934</ele>
        <time>2009-05-31T14:16:27Z</time>
      </trkpt>
      <trkpt lat="43.77683" lon="7.25849">
        <ele>690.3640137</ele>
        <time>2009-05-31T14:16:38Z</time>
      </trkpt>
      <trkpt lat="43.77678" lon="7.25855">
        <ele>690.3640137</ele>
        <time>2009-05-31T14:16:47Z</time>
      </trkpt>
      <trkpt lat="43.77673" lon="7.25862">
        <ele>692.2866211</ele>
        <time>2009-05-31T14:16:56Z</time>
      </trkpt>
      <trkpt lat="43.77667" lon="7.25869">
        <ele>693.2478027</ele>
        <time>2009-05-31T14:17:05Z</time>
      </trkpt>
      <trkpt lat="43.77661" lon="7.25876">
        <ele>693.7285156</ele>
        <time>2009-05-31T14:17:15Z</time>
      </trkpt>
      <trkpt lat="43.77658" lon="7.25882">
        <ele>695.651123</ele>
        <time>2009-05-31T14:17:23Z</time>
      </trkpt>
      <trkpt lat="43.77656" lon="7.25884">
        <ele>696.6125488</ele>
        <time>2009-05-31T14:17:26Z</time>
      </trkpt>
      <trkpt lat="43.77654" lon="7.25888">
        <ele>697.0930176</ele>
        <time>2009-05-31T14:17:33Z</time>
      </trkpt>
      <trkpt lat="43.7765" lon="7.25894">
        <ele>697.5737305</ele>
        <time>2009-05-31T14:17:41Z</time>
      </trkpt>
      <trkpt lat="43.77645" lon="7.25901">
        <ele>698.0544434</ele>
        <time>2009-05-31T14:17:52Z</time>
      </trkpt>
      <trkpt lat="43.7764" lon="7.25909">
        <ele>698.0544434</ele>
        <time>2009-05-31T14:18:03Z</time>
      </trkpt>
      <trkpt lat="43.77636" lon="7.25914">
        <ele>699.015625</ele>
        <time>2009-05-31T14:18:11Z</time>
      </trkpt>
      <trkpt lat="43.77631" lon="7.2592">
        <ele>701.4191895</ele>
        <time>2009-05-31T14:18:19Z</time>
      </trkpt>
      <trkpt lat="43.77629" lon="7.25923">
        <ele>702.3803711</ele>
        <time>2009-05-31T14:18:23Z</time>
      </trkpt>
      <trkpt lat="43.77622" lon="7.25932">
        <ele>703.8225098</ele>
        <time>2009-05-31T14:18:37Z</time>
      </trkpt>
      <trkpt lat="43.77619" lon="7.25937">
        <ele>704.7836914</ele>
        <time>2009-05-31T14:18:45Z</time>
      </trkpt>
      <trkpt lat="43.77613" lon="7.25944">
        <ele>705.7451172</ele>
        <time>2009-05-31T14:18:56Z</time>
      </trkpt>
      <trkpt lat="43.77608" lon="7.25951">
        <ele>707.1870117</ele>
        <time>2009-05-31T14:19:06Z</time>
      </trkpt>
      <trkpt lat="43.77606" lon="7.25953">
        <ele>708.1484375</ele>
        <time>2009-05-31T14:19:12Z</time>
      </trkpt>
      <trkpt lat="43.77603" lon="7.25957">
        <ele>709.590332</ele>
        <time>2009-05-31T14:19:19Z</time>
      </trkpt>
      <trkpt lat="43.77597" lon="7.25965">
        <ele>711.0322266</ele>
        <time>2009-05-31T14:19:30Z</time>
      </trkpt>
      <trkpt lat="43.77589" lon="7.2597">
        <ele>712.4741211</ele>
        <time>2009-05-31T14:19:41Z</time>
      </trkpt>
      <trkpt lat="43.77583" lon="7.25977">
        <ele>713.4355469</ele>
        <time>2009-05-31T14:19:51Z</time>
      </trkpt>
      <trkpt lat="43.77579" lon="7.25983">
        <ele>714.3967285</ele>
        <time>2009-05-31T14:20:00Z</time>
      </trkpt>
      <trkpt lat="43.77573" lon="7.25991">
        <ele>715.3581543</ele>
        <time>2009-05-31T14:20:11Z</time>
      </trkpt>
      <trkpt lat="43.77563" lon="7.25998">
        <ele>716.3195801</ele>
        <time>2009-05-31T14:20:23Z</time>
      </trkpt>
      <trkpt lat="43.77555" lon="7.26004">
        <ele>716.800293</ele>
        <time>2009-05-31T14:20:33Z</time>
      </trkpt>
      <trkpt lat="43.77547" lon="7.26008">
        <ele>717.2810059</ele>
        <time>2009-05-31T14:20:42Z</time>
      </trkpt>
      <trkpt lat="43.77539" lon="7.26014">
        <ele>719.2036133</ele>
        <time>2009-05-31T14:20:53Z</time>
      </trkpt>
      <trkpt lat="43.77532" lon="7.2602">
        <ele>721.1262207</ele>
        <time>2009-05-31T14:21:03Z</time>
      </trkpt>
      <trkpt lat="43.77527" lon="7.26023">
        <ele>721.1262207</ele>
        <time>2009-05-31T14:21:12Z</time>
      </trkpt>
      <trkpt lat="43.77523" lon="7.26025">
        <ele>722.0874023</ele>
        <time>2009-05-31T14:21:18Z</time>
      </trkpt>
      <trkpt lat="43.77523" lon="7.26021">
        <ele>722.0874023</ele>
        <time>2009-05-31T14:21:25Z</time>
      </trkpt>
      <trkpt lat="43.77523" lon="7.26021">
        <ele>720.6455078</ele>
        <time>2009-05-31T14:21:28Z</time>
      </trkpt>
      <trkpt lat="43.77523" lon="7.26019">
        <ele>721.1262207</ele>
        <time>2009-05-31T14:21:51Z</time>
      </trkpt>
      <trkpt lat="43.77526" lon="7.26014">
        <ele>721.1262207</ele>
        <time>2009-05-31T14:21:55Z</time>
      </trkpt>
      <trkpt lat="43.77535" lon="7.25997">
        <ele>720.6455078</ele>
        <time>2009-05-31T14:22:03Z</time>
      </trkpt>
      <trkpt lat="43.77543" lon="7.25977">
        <ele>722.0874023</ele>
        <time>2009-05-31T14:22:10Z</time>
      </trkpt>
      <trkpt lat="43.77555" lon="7.25955">
        <ele>722.5681152</ele>
        <time>2009-05-31T14:22:19Z</time>
      </trkpt>
      <trkpt lat="43.77562" lon="7.2594">
        <ele>724.0100098</ele>
        <time>2009-05-31T14:22:27Z</time>
      </trkpt>
      <trkpt lat="43.77565" lon="7.25935">
        <ele>723.529541</ele>
        <time>2009-05-31T14:22:32Z</time>
      </trkpt>
      <trkpt lat="43.77569" lon="7.25927">
        <ele>723.529541</ele>
        <time>2009-05-31T14:22:39Z</time>
      </trkpt>
      <trkpt lat="43.77572" lon="7.25911">
        <ele>724.0100098</ele>
        <time>2009-05-31T14:22:45Z</time>
      </trkpt>
      <trkpt lat="43.77575" lon="7.25892">
        <ele>724.9714355</ele>
        <time>2009-05-31T14:22:51Z</time>
      </trkpt>
      <trkpt lat="43.77578" lon="7.25869">
        <ele>725.4519043</ele>
        <time>2009-05-31T14:22:57Z</time>
      </trkpt>
      <trkpt lat="43.7758" lon="7.25852">
        <ele>725.4519043</ele>
        <time>2009-05-31T14:23:02Z</time>
      </trkpt>
      <trkpt lat="43.7758" lon="7.25835">
        <ele>726.4133301</ele>
        <time>2009-05-31T14:23:07Z</time>
      </trkpt>
      <trkpt lat="43.77579" lon="7.25833">
        <ele>726.4133301</ele>
        <time>2009-05-31T14:23:08Z</time>
      </trkpt>
      <trkpt lat="43.77576" lon="7.25815">
        <ele>726.4133301</ele>
        <time>2009-05-31T14:23:15Z</time>
      </trkpt>
      <trkpt lat="43.77574" lon="7.2581">
        <ele>727.8552246</ele>
        <time>2009-05-31T14:23:17Z</time>
      </trkpt>
      <trkpt lat="43.77565" lon="7.25802">
        <ele>729.2971191</ele>
        <time>2009-05-31T14:23:23Z</time>
      </trkpt>
      <trkpt lat="43.77564" lon="7.25801">
        <ele>728.8166504</ele>
        <time>2009-05-31T14:23:24Z</time>
      </trkpt>
      <trkpt lat="43.77548" lon="7.25794">
        <ele>729.2971191</ele>
        <time>2009-05-31T14:23:33Z</time>
      </trkpt>
      <trkpt lat="43.77538" lon="7.25795">
        <ele>729.777832</ele>
        <time>2009-05-31T14:23:39Z</time>
      </trkpt>
      <trkpt lat="43.77535" lon="7.25797">
        <ele>730.7392578</ele>
        <time>2009-05-31T14:23:41Z</time>
      </trkpt>
      <trkpt lat="43.77523" lon="7.2581">
        <ele>731.7004395</ele>
        <time>2009-05-31T14:23:50Z</time>
      </trkpt>
      <trkpt lat="43.7752" lon="7.25812">
        <ele>732.1813965</ele>
        <time>2009-05-31T14:23:52Z</time>
      </trkpt>
      <trkpt lat="43.77506" lon="7.25812">
        <ele>729.2971191</ele>
        <time>2009-05-31T14:23:57Z</time>
      </trkpt>
      <trkpt lat="43.77491" lon="7.25815">
        <ele>730.7392578</ele>
        <time>2009-05-31T14:24:02Z</time>
      </trkpt>
      <trkpt lat="43.77477" lon="7.25822">
        <ele>732.6621094</ele>
        <time>2009-05-31T14:24:09Z</time>
      </trkpt>
      <trkpt lat="43.77465" lon="7.2583">
        <ele>734.1040039</ele>
        <time>2009-05-31T14:24:16Z</time>
      </trkpt>
      <trkpt lat="43.77443" lon="7.2584">
        <ele>733.623291</ele>
        <time>2009-05-31T14:24:27Z</time>
      </trkpt>
      <trkpt lat="43.77427" lon="7.25845">
        <ele>734.1040039</ele>
        <time>2009-05-31T14:24:34Z</time>
      </trkpt>
      <trkpt lat="43.7741" lon="7.25856">
        <ele>733.623291</ele>
        <time>2009-05-31T14:24:41Z</time>
      </trkpt>
      <trkpt lat="43.77401" lon="7.25858">
        <ele>732.1813965</ele>
        <time>2009-05-31T14:24:44Z</time>
      </trkpt>
      <trkpt lat="43.77397" lon="7.25859">
        <ele>732.1813965</ele>
        <time>2009-05-31T14:24:45Z</time>
      </trkpt>
      <trkpt lat="43.77375" lon="7.25865">
        <ele>728.8166504</ele>
        <time>2009-05-31T14:24:51Z</time>
      </trkpt>
      <trkpt lat="43.77366" lon="7.25868">
        <ele>727.3747559</ele>
        <time>2009-05-31T14:24:54Z</time>
      </trkpt>
      <trkpt lat="43.77353" lon="7.25876">
        <ele>724.0100098</ele>
        <time>2009-05-31T14:24:59Z</time>
      </trkpt>
      <trkpt lat="43.77347" lon="7.25879">
        <ele>723.0488281</ele>
        <time>2009-05-31T14:25:01Z</time>
      </trkpt>
      <trkpt lat="43.77338" lon="7.2588">
        <ele>719.6843262</ele>
        <time>2009-05-31T14:25:04Z</time>
      </trkpt>
      <trkpt lat="43.77322" lon="7.25896">
        <ele>717.2810059</ele>
        <time>2009-05-31T14:25:08Z</time>
      </trkpt>
      <trkpt lat="43.77308" lon="7.25906">
        <ele>715.3581543</ele>
        <time>2009-05-31T14:25:11Z</time>
      </trkpt>
      <trkpt lat="43.77296" lon="7.25919">
        <ele>714.8774414</ele>
        <time>2009-05-31T14:25:14Z</time>
      </trkpt>
      <trkpt lat="43.77291" lon="7.25919">
        <ele>714.3967285</ele>
        <time>2009-05-31T14:25:15Z</time>
      </trkpt>
      <trkpt lat="43.77278" lon="7.25921">
        <ele>712.954834</ele>
        <time>2009-05-31T14:25:18Z</time>
      </trkpt>
      <trkpt lat="43.77269" lon="7.25931">
        <ele>711.5129395</ele>
        <time>2009-05-31T14:25:21Z</time>
      </trkpt>
      <trkpt lat="43.77256" lon="7.25937">
        <ele>711.0322266</ele>
        <time>2009-05-31T14:25:24Z</time>
      </trkpt>
      <trkpt lat="43.77243" lon="7.25943">
        <ele>709.1096191</ele>
        <time>2009-05-31T14:25:27Z</time>
      </trkpt>
      <trkpt lat="43.77233" lon="7.25943">
        <ele>708.6289062</ele>
        <time>2009-05-31T14:25:29Z</time>
      </trkpt>
      <trkpt lat="43.77224" lon="7.25944">
        <ele>708.6289062</ele>
        <time>2009-05-31T14:25:31Z</time>
      </trkpt>
      <trkpt lat="43.77196" lon="7.25938">
        <ele>707.6677246</ele>
        <time>2009-05-31T14:25:38Z</time>
      </trkpt>
      <trkpt lat="43.77195" lon="7.25937">
        <ele>708.6289062</ele>
        <time>2009-05-31T14:25:42Z</time>
      </trkpt>
      <trkpt lat="43.77196" lon="7.25938">
        <ele>707.6677246</ele>
        <time>2009-05-31T14:25:45Z</time>
      </trkpt>
      <trkpt lat="43.77204" lon="7.25943">
        <ele>707.1870117</ele>
        <time>2009-05-31T14:25:50Z</time>
      </trkpt>
      <trkpt lat="43.77228" lon="7.25954">
        <ele>707.1870117</ele>
        <time>2009-05-31T14:25:59Z</time>
      </trkpt>
      <trkpt lat="43.77236" lon="7.25957">
        <ele>705.7451172</ele>
        <time>2009-05-31T14:26:03Z</time>
      </trkpt>
      <trkpt lat="43.77237" lon="7.25958">
        <ele>706.2255859</ele>
        <time>2009-05-31T14:26:04Z</time>
      </trkpt>
      <trkpt lat="43.77237" lon="7.25958">
        <ele>706.2255859</ele>
        <time>2009-05-31T14:26:19Z</time>
      </trkpt>
      <trkpt lat="43.77235" lon="7.25959">
        <ele>706.2255859</ele>
        <time>2009-05-31T14:26:57Z</time>
      </trkpt>
      <trkpt lat="43.77234" lon="7.25959">
        <ele>705.7451172</ele>
        <time>2009-05-31T14:27:03Z</time>
      </trkpt>
      <trkpt lat="43.77234" lon="7.25961">
        <ele>706.2255859</ele>
        <time>2009-05-31T14:27:06Z</time>
      </trkpt>
      <trkpt lat="43.77224" lon="7.25954">
        <ele>706.2255859</ele>
        <time>2009-05-31T14:27:11Z</time>
      </trkpt>
      <trkpt lat="43.77201" lon="7.25942">
        <ele>707.6677246</ele>
        <time>2009-05-31T14:27:18Z</time>
      </trkpt>
      <trkpt lat="43.77184" lon="7.2593">
        <ele>708.6289062</ele>
        <time>2009-05-31T14:27:24Z</time>
      </trkpt>
      <trkpt lat="43.77169" lon="7.2592">
        <ele>709.1096191</ele>
        <time>2009-05-31T14:27:30Z</time>
      </trkpt>
      <trkpt lat="43.77148" lon="7.25914">
        <ele>710.5515137</ele>
        <time>2009-05-31T14:27:37Z</time>
      </trkpt>
      <trkpt lat="43.77127" lon="7.25915">
        <ele>712.954834</ele>
        <time>2009-05-31T14:27:45Z</time>
      </trkpt>
      <trkpt lat="43.77104" lon="7.25919">
        <ele>714.3967285</ele>
        <time>2009-05-31T14:27:54Z</time>
      </trkpt>
      <trkpt lat="43.7708" lon="7.25922">
        <ele>716.3195801</ele>
        <time>2009-05-31T14:28:04Z</time>
      </trkpt>
      <trkpt lat="43.77054" lon="7.25927">
        <ele>718.2421875</ele>
        <time>2009-05-31T14:28:15Z</time>
      </trkpt>
      <trkpt lat="43.77024" lon="7.25929">
        <ele>719.6843262</ele>
        <time>2009-05-31T14:28:27Z</time>
      </trkpt>
      <trkpt lat="43.7701" lon="7.25928">
        <ele>720.6455078</ele>
        <time>2009-05-31T14:28:33Z</time>
      </trkpt>
      <trkpt lat="43.76987" lon="7.25919">
        <ele>722.0874023</ele>
        <time>2009-05-31T14:28:42Z</time>
      </trkpt>
      <trkpt lat="43.76979" lon="7.25904">
        <ele>723.0488281</ele>
        <time>2009-05-31T14:28:48Z</time>
      </trkpt>
      <trkpt lat="43.76972" lon="7.2588">
        <ele>723.529541</ele>
        <time>2009-05-31T14:28:56Z</time>
      </trkpt>
      <trkpt lat="43.76962" lon="7.25858">
        <ele>724.9714355</ele>
        <time>2009-05-31T14:29:05Z</time>
      </trkpt>
      <trkpt lat="43.76946" lon="7.25839">
        <ele>725.9326172</ele>
        <time>2009-05-31T14:29:15Z</time>
      </trkpt>
      <trkpt lat="43.76935" lon="7.2582">
        <ele>728.8166504</ele>
        <time>2009-05-31T14:29:24Z</time>
      </trkpt>
      <trkpt lat="43.76931" lon="7.2581">
        <ele>728.8166504</ele>
        <time>2009-05-31T14:29:29Z</time>
      </trkpt>
      <trkpt lat="43.76923" lon="7.25791">
        <ele>730.2585449</ele>
        <time>2009-05-31T14:29:38Z</time>
      </trkpt>
      <trkpt lat="43.7691" lon="7.25765">
        <ele>732.6621094</ele>
        <time>2009-05-31T14:29:51Z</time>
      </trkpt>
      <trkpt lat="43.76896" lon="7.25747">
        <ele>735.0654297</ele>
        <time>2009-05-31T14:30:02Z</time>
      </trkpt>
      <trkpt lat="43.76886" lon="7.25728">
        <ele>736.0266113</ele>
        <time>2009-05-31T14:30:12Z</time>
      </trkpt>
      <trkpt lat="43.76879" lon="7.2571">
        <ele>736.5073242</ele>
        <time>2009-05-31T14:30:21Z</time>
      </trkpt>
      <trkpt lat="43.76871" lon="7.2569">
        <ele>739.3911133</ele>
        <time>2009-05-31T14:30:32Z</time>
      </trkpt>
      <trkpt lat="43.76863" lon="7.25671">
        <ele>741.7944336</ele>
        <time>2009-05-31T14:30:42Z</time>
      </trkpt>
      <trkpt lat="43.76858" lon="7.25655">
        <ele>743.2363281</ele>
        <time>2009-05-31T14:30:51Z</time>
      </trkpt>
      <trkpt lat="43.76856" lon="7.25652">
        <ele>743.2363281</ele>
        <time>2009-05-31T14:30:55Z</time>
      </trkpt>
      <trkpt lat="43.76853" lon="7.2564">
        <ele>745.6396484</ele>
        <time>2009-05-31T14:31:01Z</time>
      </trkpt>
      <trkpt lat="43.76847" lon="7.25621">
        <ele>747.081543</ele>
        <time>2009-05-31T14:31:10Z</time>
      </trkpt>
      <trkpt lat="43.76845" lon="7.256">
        <ele>749.0043945</ele>
        <time>2009-05-31T14:31:20Z</time>
      </trkpt>
      <trkpt lat="43.76846" lon="7.25579">
        <ele>749.4851074</ele>
        <time>2009-05-31T14:31:30Z</time>
      </trkpt>
      <trkpt lat="43.7685" lon="7.25559">
        <ele>751.8884277</ele>
        <time>2009-05-31T14:31:40Z</time>
      </trkpt>
      <trkpt lat="43.76855" lon="7.25541">
        <ele>753.8110352</ele>
        <time>2009-05-31T14:31:50Z</time>
      </trkpt>
      <trkpt lat="43.76857" lon="7.25528">
        <ele>755.2529297</ele>
        <time>2009-05-31T14:31:58Z</time>
      </trkpt>
      <trkpt lat="43.76859" lon="7.25527">
        <ele>754.7722168</ele>
        <time>2009-05-31T14:32:05Z</time>
      </trkpt>
      <trkpt lat="43.76861" lon="7.25526">
        <ele>754.7722168</ele>
        <time>2009-05-31T14:32:19Z</time>
      </trkpt>
      <trkpt lat="43.76862" lon="7.25524">
        <ele>754.291748</ele>
        <time>2009-05-31T14:32:25Z</time>
      </trkpt>
      <trkpt lat="43.7686" lon="7.25526">
        <ele>757.1755371</ele>
        <time>2009-05-31T14:34:27Z</time>
      </trkpt>
      <trkpt lat="43.76859" lon="7.25528">
        <ele>755.7336426</ele>
        <time>2009-05-31T14:34:32Z</time>
      </trkpt>
      <trkpt lat="43.76859" lon="7.25541">
        <ele>755.7336426</ele>
        <time>2009-05-31T14:34:37Z</time>
      </trkpt>
      <trkpt lat="43.76856" lon="7.25558">
        <ele>757.1755371</ele>
        <time>2009-05-31T14:34:43Z</time>
      </trkpt>
      <trkpt lat="43.76855" lon="7.25577">
        <ele>760.0593262</ele>
        <time>2009-05-31T14:34:50Z</time>
      </trkpt>
      <trkpt lat="43.76861" lon="7.25598">
        <ele>761.9821777</ele>
        <time>2009-05-31T14:34:59Z</time>
      </trkpt>
      <trkpt lat="43.7687" lon="7.25614">
        <ele>762.9433594</ele>
        <time>2009-05-31T14:35:08Z</time>
      </trkpt>
      <trkpt lat="43.76882" lon="7.25631">
        <ele>763.4240723</ele>
        <time>2009-05-31T14:35:19Z</time>
      </trkpt>
      <trkpt lat="43.76892" lon="7.25644">
        <ele>765.3469238</ele>
        <time>2009-05-31T14:35:28Z</time>
      </trkpt>
      <trkpt lat="43.76903" lon="7.25659">
        <ele>767.2695312</ele>
        <time>2009-05-31T14:35:38Z</time>
      </trkpt>
      <trkpt lat="43.76914" lon="7.25673">
        <ele>768.7114258</ele>
        <time>2009-05-31T14:35:48Z</time>
      </trkpt>
      <trkpt lat="43.76922" lon="7.25687">
        <ele>770.1533203</ele>
        <time>2009-05-31T14:35:57Z</time>
      </trkpt>
      <trkpt lat="43.76932" lon="7.25703">
        <ele>772.5566406</ele>
        <time>2009-05-31T14:36:07Z</time>
      </trkpt>
      <trkpt lat="43.76935" lon="7.257">
        <ele>773.5180664</ele>
        <time>2009-05-31T14:36:11Z</time>
      </trkpt>
      <trkpt lat="43.76931" lon="7.25683">
        <ele>774.479248</ele>
        <time>2009-05-31T14:36:20Z</time>
      </trkpt>
      <trkpt lat="43.76923" lon="7.25662">
        <ele>776.4018555</ele>
        <time>2009-05-31T14:36:31Z</time>
      </trkpt>
      <trkpt lat="43.76918" lon="7.25648">
        <ele>778.3244629</ele>
        <time>2009-05-31T14:36:39Z</time>
      </trkpt>
      <trkpt lat="43.76912" lon="7.25633">
        <ele>779.7663574</ele>
        <time>2009-05-31T14:36:47Z</time>
      </trkpt>
      <trkpt lat="43.76906" lon="7.25614">
        <ele>780.7280273</ele>
        <time>2009-05-31T14:36:57Z</time>
      </trkpt>
      <trkpt lat="43.76899" lon="7.25592">
        <ele>782.6506348</ele>
        <time>2009-05-31T14:37:08Z</time>
      </trkpt>
      <trkpt lat="43.76896" lon="7.25578">
        <ele>783.6118164</ele>
        <time>2009-05-31T14:37:14Z</time>
      </trkpt>
      <trkpt lat="43.76902" lon="7.25577">
        <ele>783.6118164</ele>
        <time>2009-05-31T14:37:19Z</time>
      </trkpt>
      <trkpt lat="43.76908" lon="7.2559">
        <ele>785.0539551</ele>
        <time>2009-05-31T14:37:25Z</time>
      </trkpt>
      <trkpt lat="43.7692" lon="7.25611">
        <ele>786.9763184</ele>
        <time>2009-05-31T14:37:37Z</time>
      </trkpt>
      <trkpt lat="43.76928" lon="7.25622">
        <ele>788.418457</ele>
        <time>2009-05-31T14:37:44Z</time>
      </trkpt>
      <trkpt lat="43.76939" lon="7.25635">
        <ele>789.8603516</ele>
        <time>2009-05-31T14:37:53Z</time>
      </trkpt>
      <trkpt lat="43.76947" lon="7.25646">
        <ele>791.3022461</ele>
        <time>2009-05-31T14:38:01Z</time>
      </trkpt>
      <trkpt lat="43.76956" lon="7.25658">
        <ele>792.7443848</ele>
        <time>2009-05-31T14:38:09Z</time>
      </trkpt>
      <trkpt lat="43.76965" lon="7.25673">
        <ele>794.1862793</ele>
        <time>2009-05-31T14:38:19Z</time>
      </trkpt>
      <trkpt lat="43.76968" lon="7.25674">
        <ele>795.1474609</ele>
        <time>2009-05-31T14:38:21Z</time>
      </trkpt>
      <trkpt lat="43.76971" lon="7.25666">
        <ele>796.1091309</ele>
        <time>2009-05-31T14:38:26Z</time>
      </trkpt>
      <trkpt lat="43.76971" lon="7.25664">
        <ele>795.6281738</ele>
        <time>2009-05-31T14:38:27Z</time>
      </trkpt>
      <trkpt lat="43.76964" lon="7.2565">
        <ele>797.0703125</ele>
        <time>2009-05-31T14:38:35Z</time>
      </trkpt>
      <trkpt lat="43.76955" lon="7.25631">
        <ele>798.9929199</ele>
        <time>2009-05-31T14:38:45Z</time>
      </trkpt>
      <trkpt lat="43.76946" lon="7.25609">
        <ele>799.4736328</ele>
        <time>2009-05-31T14:38:56Z</time>
      </trkpt>
      <trkpt lat="43.76938" lon="7.25587">
        <ele>800.4350586</ele>
        <time>2009-05-31T14:39:07Z</time>
      </trkpt>
      <trkpt lat="43.76932" lon="7.25564">
        <ele>801.8769531</ele>
        <time>2009-05-31T14:39:17Z</time>
      </trkpt>
      <trkpt lat="43.76938" lon="7.25564">
        <ele>802.3574219</ele>
        <time>2009-05-31T14:39:22Z</time>
      </trkpt>
      <trkpt lat="43.76939" lon="7.25567">
        <ele>803.3188477</ele>
        <time>2009-05-31T14:39:24Z</time>
      </trkpt>
      <trkpt lat="43.7695" lon="7.2559">
        <ele>804.2802734</ele>
        <time>2009-05-31T14:39:37Z</time>
      </trkpt>
      <trkpt lat="43.7696" lon="7.25603">
        <ele>806.2026367</ele>
        <time>2009-05-31T14:39:46Z</time>
      </trkpt>
      <trkpt lat="43.76973" lon="7.25619">
        <ele>807.6447754</ele>
        <time>2009-05-31T14:39:57Z</time>
      </trkpt>
      <trkpt lat="43.76982" lon="7.25634">
        <ele>810.0478516</ele>
        <time>2009-05-31T14:40:06Z</time>
      </trkpt>
      <trkpt lat="43.76987" lon="7.2563">
        <ele>811.9707031</ele>
        <time>2009-05-31T14:40:11Z</time>
      </trkpt>
      <trkpt lat="43.76982" lon="7.25617">
        <ele>812.451416</ele>
        <time>2009-05-31T14:40:19Z</time>
      </trkpt>
      <trkpt lat="43.76981" lon="7.25615">
        <ele>812.9321289</ele>
        <time>2009-05-31T14:40:20Z</time>
      </trkpt>
      <trkpt lat="43.76974" lon="7.25599">
        <ele>813.8933105</ele>
        <time>2009-05-31T14:40:29Z</time>
      </trkpt>
      <trkpt lat="43.76966" lon="7.25579">
        <ele>815.8161621</ele>
        <time>2009-05-31T14:40:40Z</time>
      </trkpt>
      <trkpt lat="43.76961" lon="7.25559">
        <ele>817.2580566</ele>
        <time>2009-05-31T14:40:50Z</time>
      </trkpt>
      <trkpt lat="43.76959" lon="7.25535">
        <ele>818.6999512</ele>
        <time>2009-05-31T14:41:00Z</time>
      </trkpt>
      <trkpt lat="43.76961" lon="7.25513">
        <ele>819.1806641</ele>
        <time>2009-05-31T14:41:08Z</time>
      </trkpt>
      <trkpt lat="43.76966" lon="7.25492">
        <ele>819.1806641</ele>
        <time>2009-05-31T14:41:16Z</time>
      </trkpt>
      <trkpt lat="43.76972" lon="7.2547">
        <ele>820.6225586</ele>
        <time>2009-05-31T14:41:24Z</time>
      </trkpt>
      <trkpt lat="43.76979" lon="7.25449">
        <ele>822.545166</ele>
        <time>2009-05-31T14:41:33Z</time>
      </trkpt>
      <trkpt lat="43.76988" lon="7.25434">
        <ele>823.0258789</ele>
        <time>2009-05-31T14:41:42Z</time>
      </trkpt>
      <trkpt lat="43.76996" lon="7.25416">
        <ele>825.909668</ele>
        <time>2009-05-31T14:41:52Z</time>
      </trkpt>
      <trkpt lat="43.77006" lon="7.25396">
        <ele>828.7939453</ele>
        <time>2009-05-31T14:42:03Z</time>
      </trkpt>
      <trkpt lat="43.77017" lon="7.25382">
        <ele>829.755127</ele>
        <time>2009-05-31T14:42:13Z</time>
      </trkpt>
      <trkpt lat="43.7702" lon="7.25378">
        <ele>829.755127</ele>
        <time>2009-05-31T14:42:16Z</time>
      </trkpt>
      <trkpt lat="43.77023" lon="7.25381">
        <ele>830.2358398</ele>
        <time>2009-05-31T14:42:20Z</time>
      </trkpt>
      <trkpt lat="43.77022" lon="7.25383">
        <ele>830.2358398</ele>
        <time>2009-05-31T14:42:21Z</time>
      </trkpt>
      <trkpt lat="43.77013" lon="7.25397">
        <ele>830.7165527</ele>
        <time>2009-05-31T14:42:30Z</time>
      </trkpt>
      <trkpt lat="43.77006" lon="7.25413">
        <ele>832.1584473</ele>
        <time>2009-05-31T14:42:38Z</time>
      </trkpt>
      <trkpt lat="43.77001" lon="7.25431">
        <ele>833.1196289</ele>
        <time>2009-05-31T14:42:46Z</time>
      </trkpt>
      <trkpt lat="43.76996" lon="7.25442">
        <ele>834.0810547</ele>
        <time>2009-05-31T14:42:52Z</time>
      </trkpt>
      <trkpt lat="43.7699" lon="7.25454">
        <ele>836.0036621</ele>
        <time>2009-05-31T14:42:59Z</time>
      </trkpt>
      <trkpt lat="43.76988" lon="7.25472">
        <ele>836.9648438</ele>
        <time>2009-05-31T14:43:07Z</time>
      </trkpt>
      <trkpt lat="43.76988" lon="7.25485">
        <ele>838.8876953</ele>
        <time>2009-05-31T14:43:13Z</time>
      </trkpt>
      <trkpt lat="43.76993" lon="7.25485">
        <ele>839.3681641</ele>
        <time>2009-05-31T14:43:18Z</time>
      </trkpt>
      <trkpt lat="43.76994" lon="7.25477">
        <ele>840.3295898</ele>
        <time>2009-05-31T14:43:22Z</time>
      </trkpt>
      <trkpt lat="43.76998" lon="7.25459">
        <ele>841.2907715</ele>
        <time>2009-05-31T14:43:32Z</time>
      </trkpt>
      <trkpt lat="43.77006" lon="7.25453">
        <ele>842.2521973</ele>
        <time>2009-05-31T14:43:39Z</time>
      </trkpt>
      <trkpt lat="43.77014" lon="7.25458">
        <ele>844.1750488</ele>
        <time>2009-05-31T14:43:45Z</time>
      </trkpt>
      <trkpt lat="43.77017" lon="7.2547">
        <ele>844.6555176</ele>
        <time>2009-05-31T14:43:52Z</time>
      </trkpt>
      <trkpt lat="43.7702" lon="7.25471">
        <ele>844.1750488</ele>
        <time>2009-05-31T14:43:55Z</time>
      </trkpt>
      <trkpt lat="43.77018" lon="7.25455">
        <ele>842.7329102</ele>
        <time>2009-05-31T14:44:01Z</time>
      </trkpt>
      <trkpt lat="43.77019" lon="7.25439">
        <ele>839.3681641</ele>
        <time>2009-05-31T14:44:05Z</time>
      </trkpt>
      <trkpt lat="43.77017" lon="7.25428">
        <ele>837.9262695</ele>
        <time>2009-05-31T14:44:08Z</time>
      </trkpt>
      <trkpt lat="43.77014" lon="7.25412">
        <ele>836.0036621</ele>
        <time>2009-05-31T14:44:12Z</time>
      </trkpt>
      <trkpt lat="43.77018" lon="7.25403">
        <ele>836.0036621</ele>
        <time>2009-05-31T14:44:17Z</time>
      </trkpt>
      <trkpt lat="43.77018" lon="7.25403">
        <ele>835.5229492</ele>
        <time>2009-05-31T14:44:23Z</time>
      </trkpt>
      <trkpt lat="43.77018" lon="7.25404">
        <ele>836.484375</ele>
        <time>2009-05-31T14:44:25Z</time>
      </trkpt>
      <trkpt lat="43.77018" lon="7.25407">
        <ele>836.0036621</ele>
        <time>2009-05-31T14:44:27Z</time>
      </trkpt>
      <trkpt lat="43.77016" lon="7.25419">
        <ele>834.5617676</ele>
        <time>2009-05-31T14:44:33Z</time>
      </trkpt>
      <trkpt lat="43.77019" lon="7.25432">
        <ele>836.484375</ele>
        <time>2009-05-31T14:44:42Z</time>
      </trkpt>
      <trkpt lat="43.77025" lon="7.25445">
        <ele>838.4069824</ele>
        <time>2009-05-31T14:44:53Z</time>
      </trkpt>
      <trkpt lat="43.77029" lon="7.25454">
        <ele>839.848877</ele>
        <time>2009-05-31T14:45:01Z</time>
      </trkpt>
      <trkpt lat="43.7703" lon="7.25459">
        <ele>841.2907715</ele>
        <time>2009-05-31T14:45:08Z</time>
      </trkpt>
      <trkpt lat="43.77032" lon="7.25466">
        <ele>841.2907715</ele>
        <time>2009-05-31T14:45:12Z</time>
      </trkpt>
      <trkpt lat="43.77031" lon="7.2547">
        <ele>841.2907715</ele>
        <time>2009-05-31T14:45:14Z</time>
      </trkpt>
      <trkpt lat="43.77029" lon="7.25482">
        <ele>840.3295898</ele>
        <time>2009-05-31T14:45:19Z</time>
      </trkpt>
      <trkpt lat="43.77028" lon="7.25489">
        <ele>839.3681641</ele>
        <time>2009-05-31T14:45:21Z</time>
      </trkpt>
      <trkpt lat="43.77027" lon="7.25497">
        <ele>837.9262695</ele>
        <time>2009-05-31T14:45:23Z</time>
      </trkpt>
      <trkpt lat="43.77022" lon="7.25523">
        <ele>834.0810547</ele>
        <time>2009-05-31T14:45:29Z</time>
      </trkpt>
      <trkpt lat="43.7702" lon="7.25534">
        <ele>832.1584473</ele>
        <time>2009-05-31T14:45:31Z</time>
      </trkpt>
      <trkpt lat="43.77019" lon="7.25545">
        <ele>830.2358398</ele>
        <time>2009-05-31T14:45:33Z</time>
      </trkpt>
      <trkpt lat="43.77019" lon="7.25553">
        <ele>829.2744141</ele>
        <time>2009-05-31T14:45:35Z</time>
      </trkpt>
      <trkpt lat="43.77029" lon="7.25547">
        <ele>829.2744141</ele>
        <time>2009-05-31T14:45:40Z</time>
      </trkpt>
      <trkpt lat="43.77048" lon="7.25535">
        <ele>828.7939453</ele>
        <time>2009-05-31T14:45:48Z</time>
      </trkpt>
      <trkpt lat="43.77067" lon="7.25521">
        <ele>828.3132324</ele>
        <time>2009-05-31T14:45:56Z</time>
      </trkpt>
      <trkpt lat="43.77079" lon="7.25512">
        <ele>828.3132324</ele>
        <time>2009-05-31T14:46:01Z</time>
      </trkpt>
      <trkpt lat="43.77089" lon="7.25504">
        <ele>828.3132324</ele>
        <time>2009-05-31T14:46:06Z</time>
      </trkpt>
      <trkpt lat="43.77094" lon="7.255">
        <ele>827.3518066</ele>
        <time>2009-05-31T14:46:09Z</time>
      </trkpt>
      <trkpt lat="43.77099" lon="7.25496">
        <ele>829.2744141</ele>
        <time>2009-05-31T14:46:12Z</time>
      </trkpt>
      <trkpt lat="43.77105" lon="7.25494">
        <ele>829.2744141</ele>
        <time>2009-05-31T14:46:16Z</time>
      </trkpt>
      <trkpt lat="43.77109" lon="7.25494">
        <ele>830.7165527</ele>
        <time>2009-05-31T14:46:23Z</time>
      </trkpt>
      <trkpt lat="43.77111" lon="7.25495">
        <ele>831.1972656</ele>
        <time>2009-05-31T14:46:30Z</time>
      </trkpt>
      <trkpt lat="43.77111" lon="7.25497">
        <ele>832.6391602</ele>
        <time>2009-05-31T14:46:36Z</time>
      </trkpt>
      <trkpt lat="43.77113" lon="7.25497">
        <ele>834.0810547</ele>
        <time>2009-05-31T14:46:42Z</time>
      </trkpt>
      <trkpt lat="43.77115" lon="7.25496">
        <ele>835.5229492</ele>
        <time>2009-05-31T14:46:50Z</time>
      </trkpt>
      <trkpt lat="43.77119" lon="7.25494">
        <ele>837.4455566</ele>
        <time>2009-05-31T14:47:01Z</time>
      </trkpt>
      <trkpt lat="43.77122" lon="7.25492">
        <ele>840.3295898</ele>
        <time>2009-05-31T14:47:12Z</time>
      </trkpt>
      <trkpt lat="43.77125" lon="7.25493">
        <ele>840.8100586</ele>
        <time>2009-05-31T14:47:20Z</time>
      </trkpt>
      <trkpt lat="43.77128" lon="7.25495">
        <ele>840.8100586</ele>
        <time>2009-05-31T14:47:28Z</time>
      </trkpt>
      <trkpt lat="43.77133" lon="7.25499">
        <ele>840.8100586</ele>
        <time>2009-05-31T14:47:36Z</time>
      </trkpt>
      <trkpt lat="43.77138" lon="7.25498">
        <ele>841.2907715</ele>
        <time>2009-05-31T14:47:44Z</time>
      </trkpt>
      <trkpt lat="43.77138" lon="7.25498">
        <ele>841.2907715</ele>
        <time>2009-05-31T14:47:45Z</time>
      </trkpt>
      <trkpt lat="43.7715" lon="7.25498">
        <ele>839.848877</ele>
        <time>2009-05-31T14:47:49Z</time>
      </trkpt>
      <trkpt lat="43.77159" lon="7.25495">
        <ele>838.8876953</ele>
        <time>2009-05-31T14:47:51Z</time>
      </trkpt>
      <trkpt lat="43.77178" lon="7.25478">
        <ele>838.4069824</ele>
        <time>2009-05-31T14:47:56Z</time>
      </trkpt>
      <trkpt lat="43.77186" lon="7.25464">
        <ele>836.484375</ele>
        <time>2009-05-31T14:47:59Z</time>
      </trkpt>
      <trkpt lat="43.77197" lon="7.25457">
        <ele>833.6003418</ele>
        <time>2009-05-31T14:48:03Z</time>
      </trkpt>
      <trkpt lat="43.77211" lon="7.25439">
        <ele>833.1196289</ele>
        <time>2009-05-31T14:48:08Z</time>
      </trkpt>
      <trkpt lat="43.77213" lon="7.25437">
        <ele>833.1196289</ele>
        <time>2009-05-31T14:48:09Z</time>
      </trkpt>
      <trkpt lat="43.77217" lon="7.25435">
        <ele>832.6391602</ele>
        <time>2009-05-31T14:48:12Z</time>
      </trkpt>
      <trkpt lat="43.77227" lon="7.25434">
        <ele>831.6777344</ele>
        <time>2009-05-31T14:48:16Z</time>
      </trkpt>
      <trkpt lat="43.77234" lon="7.25428">
        <ele>831.1972656</ele>
        <time>2009-05-31T14:48:19Z</time>
      </trkpt>
      <trkpt lat="43.77246" lon="7.25421">
        <ele>829.2744141</ele>
        <time>2009-05-31T14:48:24Z</time>
      </trkpt>
      <trkpt lat="43.77249" lon="7.25418">
        <ele>828.7939453</ele>
        <time>2009-05-31T14:48:26Z</time>
      </trkpt>
      <trkpt lat="43.77254" lon="7.2541">
        <ele>826.8710938</ele>
        <time>2009-05-31T14:48:30Z</time>
      </trkpt>
      <trkpt lat="43.77267" lon="7.25401">
        <ele>826.8710938</ele>
        <time>2009-05-31T14:48:35Z</time>
      </trkpt>
      <trkpt lat="43.77277" lon="7.25393">
        <ele>826.3903809</ele>
        <time>2009-05-31T14:48:39Z</time>
      </trkpt>
      <trkpt lat="43.77279" lon="7.25391">
        <ele>825.4289551</ele>
        <time>2009-05-31T14:48:40Z</time>
      </trkpt>
      <trkpt lat="43.77289" lon="7.25389">
        <ele>825.4289551</ele>
        <time>2009-05-31T14:48:44Z</time>
      </trkpt>
      <trkpt lat="43.77306" lon="7.25392">
        <ele>824.4677734</ele>
        <time>2009-05-31T14:48:51Z</time>
      </trkpt>
      <trkpt lat="43.77309" lon="7.25392">
        <ele>823.9870605</ele>
        <time>2009-05-31T14:48:52Z</time>
      </trkpt>
      <trkpt lat="43.77317" lon="7.25396">
        <ele>823.5065918</ele>
        <time>2009-05-31T14:48:55Z</time>
      </trkpt>
      <trkpt lat="43.77333" lon="7.25392">
        <ele>822.545166</ele>
        <time>2009-05-31T14:49:01Z</time>
      </trkpt>
      <trkpt lat="43.77342" lon="7.25389">
        <ele>821.1032715</ele>
        <time>2009-05-31T14:49:04Z</time>
      </trkpt>
      <trkpt lat="43.77355" lon="7.25378">
        <ele>820.1418457</ele>
        <time>2009-05-31T14:49:10Z</time>
      </trkpt>
      <trkpt lat="43.77361" lon="7.25377">
        <ele>819.1806641</ele>
        <time>2009-05-31T14:49:13Z</time>
      </trkpt>
      <trkpt lat="43.77372" lon="7.25371">
        <ele>818.2192383</ele>
        <time>2009-05-31T14:49:19Z</time>
      </trkpt>
      <trkpt lat="43.77376" lon="7.25371">
        <ele>817.7385254</ele>
        <time>2009-05-31T14:49:21Z</time>
      </trkpt>
      <trkpt lat="43.7739" lon="7.25364">
        <ele>815.8161621</ele>
        <time>2009-05-31T14:49:27Z</time>
      </trkpt>
      <trkpt lat="43.77395" lon="7.25363">
        <ele>814.8547363</ele>
        <time>2009-05-31T14:49:29Z</time>
      </trkpt>
      <trkpt lat="43.77407" lon="7.25362">
        <ele>813.4128418</ele>
        <time>2009-05-31T14:49:34Z</time>
      </trkpt>
      <trkpt lat="43.77414" lon="7.25362">
        <ele>811.9707031</ele>
        <time>2009-05-31T14:49:37Z</time>
      </trkpt>
      <trkpt lat="43.77416" lon="7.25363">
        <ele>811.0092773</ele>
        <time>2009-05-31T14:49:38Z</time>
      </trkpt>
      <trkpt lat="43.77427" lon="7.25357">
        <ele>807.6447754</ele>
        <time>2009-05-31T14:49:42Z</time>
      </trkpt>
      <trkpt lat="43.77431" lon="7.25356">
        <ele>805.722168</ele>
        <time>2009-05-31T14:49:43Z</time>
      </trkpt>
      <trkpt lat="43.77436" lon="7.25356">
        <ele>805.2414551</ele>
        <time>2009-05-31T14:49:45Z</time>
      </trkpt>
      <trkpt lat="43.77447" lon="7.25345">
        <ele>802.8381348</ele>
        <time>2009-05-31T14:49:51Z</time>
      </trkpt>
      <trkpt lat="43.77456" lon="7.25337">
        <ele>801.3962402</ele>
        <time>2009-05-31T14:49:55Z</time>
      </trkpt>
      <trkpt lat="43.77469" lon="7.25334">
        <ele>798.0317383</ele>
        <time>2009-05-31T14:49:59Z</time>
      </trkpt>
      <trkpt lat="43.77475" lon="7.25332">
        <ele>796.5898438</ele>
        <time>2009-05-31T14:50:01Z</time>
      </trkpt>
      <trkpt lat="43.77484" lon="7.25333">
        <ele>795.1474609</ele>
        <time>2009-05-31T14:50:04Z</time>
      </trkpt>
      <trkpt lat="43.77491" lon="7.25329">
        <ele>793.7055664</ele>
        <time>2009-05-31T14:50:07Z</time>
      </trkpt>
      <trkpt lat="43.77496" lon="7.25328">
        <ele>792.2636719</ele>
        <time>2009-05-31T14:50:09Z</time>
      </trkpt>
      <trkpt lat="43.77509" lon="7.25324">
        <ele>790.3410645</ele>
        <time>2009-05-31T14:50:12Z</time>
      </trkpt>
      <trkpt lat="43.77517" lon="7.25318">
        <ele>787.9377441</ele>
        <time>2009-05-31T14:50:14Z</time>
      </trkpt>
      <trkpt lat="43.77528" lon="7.253">
        <ele>785.5344238</ele>
        <time>2009-05-31T14:50:18Z</time>
      </trkpt>
      <trkpt lat="43.77534" lon="7.253">
        <ele>784.5732422</ele>
        <time>2009-05-31T14:50:21Z</time>
      </trkpt>
      <trkpt lat="43.77543" lon="7.25303">
        <ele>782.6506348</ele>
        <time>2009-05-31T14:50:24Z</time>
      </trkpt>
      <trkpt lat="43.77549" lon="7.25292">
        <ele>779.2856445</ele>
        <time>2009-05-31T14:50:27Z</time>
      </trkpt>
      <trkpt lat="43.77552" lon="7.25292">
        <ele>779.7663574</ele>
        <time>2009-05-31T14:50:28Z</time>
      </trkpt>
      <trkpt lat="43.77559" lon="7.25295">
        <ele>777.84375</ele>
        <time>2009-05-31T14:50:30Z</time>
      </trkpt>
      <trkpt lat="43.77572" lon="7.25281">
        <ele>773.5180664</ele>
        <time>2009-05-31T14:50:35Z</time>
      </trkpt>
      <trkpt lat="43.77586" lon="7.25278">
        <ele>770.6340332</ele>
        <time>2009-05-31T14:50:39Z</time>
      </trkpt>
      <trkpt lat="43.77588" lon="7.25272">
        <ele>769.1921387</ele>
        <time>2009-05-31T14:50:41Z</time>
      </trkpt>
      <trkpt lat="43.77589" lon="7.25268">
        <ele>769.1921387</ele>
        <time>2009-05-31T14:50:42Z</time>
      </trkpt>
      <trkpt lat="43.77595" lon="7.2526">
        <ele>766.7888184</ele>
        <time>2009-05-31T14:50:46Z</time>
      </trkpt>
      <trkpt lat="43.77595" lon="7.25253">
        <ele>762.4626465</ele>
        <time>2009-05-31T14:50:48Z</time>
      </trkpt>
      <trkpt lat="43.77595" lon="7.2525">
        <ele>761.9821777</ele>
        <time>2009-05-31T14:50:49Z</time>
      </trkpt>
      <trkpt lat="43.77603" lon="7.25243">
        <ele>760.5400391</ele>
        <time>2009-05-31T14:50:53Z</time>
      </trkpt>
      <trkpt lat="43.77602" lon="7.25236">
        <ele>759.5788574</ele>
        <time>2009-05-31T14:50:55Z</time>
      </trkpt>
      <trkpt lat="43.77602" lon="7.25225">
        <ele>756.6948242</ele>
        <time>2009-05-31T14:50:59Z</time>
      </trkpt>
      <trkpt lat="43.77604" lon="7.25215">
        <ele>752.3688965</ele>
        <time>2009-05-31T14:51:02Z</time>
      </trkpt>
      <trkpt lat="43.776" lon="7.25209">
        <ele>751.4077148</ele>
        <time>2009-05-31T14:51:04Z</time>
      </trkpt>
      <trkpt lat="43.77596" lon="7.25198">
        <ele>750.4465332</ele>
        <time>2009-05-31T14:51:08Z</time>
      </trkpt>
      <trkpt lat="43.77603" lon="7.25192">
        <ele>748.0432129</ele>
        <time>2009-05-31T14:51:11Z</time>
      </trkpt>
      <trkpt lat="43.77604" lon="7.25188">
        <ele>745.6396484</ele>
        <time>2009-05-31T14:51:12Z</time>
      </trkpt>
      <trkpt lat="43.77611" lon="7.25173">
        <ele>740.8330078</ele>
        <time>2009-05-31T14:51:17Z</time>
      </trkpt>
      <trkpt lat="43.77618" lon="7.25171">
        <ele>739.3911133</ele>
        <time>2009-05-31T14:51:19Z</time>
      </trkpt>
      <trkpt lat="43.77624" lon="7.25171">
        <ele>738.4299316</ele>
        <time>2009-05-31T14:51:21Z</time>
      </trkpt>
      <trkpt lat="43.77628" lon="7.25163">
        <ele>735.5458984</ele>
        <time>2009-05-31T14:51:24Z</time>
      </trkpt>
      <trkpt lat="43.77627" lon="7.25145">
        <ele>732.1813965</ele>
        <time>2009-05-31T14:51:28Z</time>
      </trkpt>
      <trkpt lat="43.77625" lon="7.25143">
        <ele>732.1813965</ele>
        <time>2009-05-31T14:51:29Z</time>
      </trkpt>
      <trkpt lat="43.77625" lon="7.25136">
        <ele>730.7392578</ele>
        <time>2009-05-31T14:51:32Z</time>
      </trkpt>
      <trkpt lat="43.77633" lon="7.25139">
        <ele>729.777832</ele>
        <time>2009-05-31T14:51:36Z</time>
      </trkpt>
      <trkpt lat="43.77636" lon="7.25139">
        <ele>729.2971191</ele>
        <time>2009-05-31T14:51:37Z</time>
      </trkpt>
      <trkpt lat="43.77652" lon="7.25133">
        <ele>724.4907227</ele>
        <time>2009-05-31T14:51:43Z</time>
      </trkpt>
      <trkpt lat="43.77654" lon="7.25129">
        <ele>723.529541</ele>
        <time>2009-05-31T14:51:45Z</time>
      </trkpt>
      <trkpt lat="43.7765" lon="7.2512">
        <ele>722.0874023</ele>
        <time>2009-05-31T14:51:48Z</time>
      </trkpt>
      <trkpt lat="43.77656" lon="7.2511">
        <ele>718.7229004</ele>
        <time>2009-05-31T14:51:52Z</time>
      </trkpt>
      <trkpt lat="43.77666" lon="7.25103">
        <ele>716.800293</ele>
        <time>2009-05-31T14:51:55Z</time>
      </trkpt>
      <trkpt lat="43.77673" lon="7.25102">
        <ele>715.8388672</ele>
        <time>2009-05-31T14:51:57Z</time>
      </trkpt>
      <trkpt lat="43.77683" lon="7.25103">
        <ele>715.3581543</ele>
        <time>2009-05-31T14:51:59Z</time>
      </trkpt>
      <trkpt lat="43.77698" lon="7.25093">
        <ele>711.9936523</ele>
        <time>2009-05-31T14:52:03Z</time>
      </trkpt>
      <trkpt lat="43.77704" lon="7.25085">
        <ele>711.5129395</ele>
        <time>2009-05-31T14:52:05Z</time>
      </trkpt>
      <trkpt lat="43.77714" lon="7.25077">
        <ele>708.6289062</ele>
        <time>2009-05-31T14:52:08Z</time>
      </trkpt>
      <trkpt lat="43.77723" lon="7.25061">
        <ele>705.2644043</ele>
        <time>2009-05-31T14:52:12Z</time>
      </trkpt>
      <trkpt lat="43.77732" lon="7.25046">
        <ele>702.861084</ele>
        <time>2009-05-31T14:52:15Z</time>
      </trkpt>
      <trkpt lat="43.77733" lon="7.25041">
        <ele>701.8999023</ele>
        <time>2009-05-31T14:52:16Z</time>
      </trkpt>
      <trkpt lat="43.77741" lon="7.25016">
        <ele>699.015625</ele>
        <time>2009-05-31T14:52:21Z</time>
      </trkpt>
      <trkpt lat="43.77748" lon="7.25004">
        <ele>697.5737305</ele>
        <time>2009-05-31T14:52:25Z</time>
      </trkpt>
      <trkpt lat="43.77753" lon="7.24994">
        <ele>695.1704102</ele>
        <time>2009-05-31T14:52:29Z</time>
      </trkpt>
      <trkpt lat="43.77766" lon="7.24991">
        <ele>694.6896973</ele>
        <time>2009-05-31T14:52:33Z</time>
      </trkpt>
      <trkpt lat="43.77768" lon="7.24984">
        <ele>692.767334</ele>
        <time>2009-05-31T14:52:36Z</time>
      </trkpt>
      <trkpt lat="43.77767" lon="7.24982">
        <ele>692.767334</ele>
        <time>2009-05-31T14:52:37Z</time>
      </trkpt>
      <trkpt lat="43.77772" lon="7.24974">
        <ele>690.8444824</ele>
        <time>2009-05-31T14:52:40Z</time>
      </trkpt>
      <trkpt lat="43.77779" lon="7.24973">
        <ele>688.9221191</ele>
        <time>2009-05-31T14:52:42Z</time>
      </trkpt>
      <trkpt lat="43.77782" lon="7.24973">
        <ele>688.4414062</ele>
        <time>2009-05-31T14:52:43Z</time>
      </trkpt>
      <trkpt lat="43.77788" lon="7.24972">
        <ele>686.0380859</ele>
        <time>2009-05-31T14:52:45Z</time>
      </trkpt>
      <trkpt lat="43.7779" lon="7.24966">
        <ele>681.7119141</ele>
        <time>2009-05-31T14:52:48Z</time>
      </trkpt>
      <trkpt lat="43.77789" lon="7.24963">
        <ele>681.7119141</ele>
        <time>2009-05-31T14:52:49Z</time>
      </trkpt>
      <trkpt lat="43.77786" lon="7.24954">
        <ele>678.828125</ele>
        <time>2009-05-31T14:52:52Z</time>
      </trkpt>
      <trkpt lat="43.77789" lon="7.2495">
        <ele>676.4248047</ele>
        <time>2009-05-31T14:52:56Z</time>
      </trkpt>
      <trkpt lat="43.77796" lon="7.2495">
        <ele>675.9440918</ele>
        <time>2009-05-31T14:52:58Z</time>
      </trkpt>
      <trkpt lat="43.77798" lon="7.24943">
        <ele>672.098877</ele>
        <time>2009-05-31T14:53:01Z</time>
      </trkpt>
      <trkpt lat="43.778" lon="7.24938">
        <ele>670.1762695</ele>
        <time>2009-05-31T14:53:04Z</time>
      </trkpt>
      <trkpt lat="43.77803" lon="7.24938">
        <ele>669.2150879</ele>
        <time>2009-05-31T14:53:05Z</time>
      </trkpt>
      <trkpt lat="43.77819" lon="7.24938">
        <ele>663.9274902</ele>
        <time>2009-05-31T14:53:10Z</time>
      </trkpt>
      <trkpt lat="43.77821" lon="7.24932">
        <ele>661.5244141</ele>
        <time>2009-05-31T14:53:13Z</time>
      </trkpt>
      <trkpt lat="43.77814" lon="7.24927">
        <ele>662.005127</ele>
        <time>2009-05-31T14:53:17Z</time>
      </trkpt>
      <trkpt lat="43.77803" lon="7.24918">
        <ele>662.005127</ele>
        <time>2009-05-31T14:53:21Z</time>
      </trkpt>
      <trkpt lat="43.77801" lon="7.24915">
        <ele>661.0437012</ele>
        <time>2009-05-31T14:53:22Z</time>
      </trkpt>
      <trkpt lat="43.77791" lon="7.24903">
        <ele>660.0822754</ele>
        <time>2009-05-31T14:53:25Z</time>
      </trkpt>
      <trkpt lat="43.77777" lon="7.24898">
        <ele>660.5629883</ele>
        <time>2009-05-31T14:53:29Z</time>
      </trkpt>
      <trkpt lat="43.77766" lon="7.24901">
        <ele>661.5244141</ele>
        <time>2009-05-31T14:53:35Z</time>
      </trkpt>
      <trkpt lat="43.77752" lon="7.24902">
        <ele>661.5244141</ele>
        <time>2009-05-31T14:53:41Z</time>
      </trkpt>
      <trkpt lat="43.7773" lon="7.24909">
        <ele>661.0437012</ele>
        <time>2009-05-31T14:53:48Z</time>
      </trkpt>
      <trkpt lat="43.77699" lon="7.24922">
        <ele>661.0437012</ele>
        <time>2009-05-31T14:53:57Z</time>
      </trkpt>
      <trkpt lat="43.77683" lon="7.24916">
        <ele>661.0437012</ele>
        <time>2009-05-31T14:54:02Z</time>
      </trkpt>
      <trkpt lat="43.77663" lon="7.24905">
        <ele>661.0437012</ele>
        <time>2009-05-31T14:54:09Z</time>
      </trkpt>
      <trkpt lat="43.77653" lon="7.24907">
        <ele>663.4470215</ele>
        <time>2009-05-31T14:54:13Z</time>
      </trkpt>
      <trkpt lat="43.77642" lon="7.24908">
        <ele>664.888916</ele>
        <time>2009-05-31T14:54:18Z</time>
      </trkpt>
      <trkpt lat="43.77632" lon="7.24907">
        <ele>665.3696289</ele>
        <time>2009-05-31T14:54:24Z</time>
      </trkpt>
      <trkpt lat="43.77623" lon="7.24909">
        <ele>666.8115234</ele>
        <time>2009-05-31T14:54:30Z</time>
      </trkpt>
      <trkpt lat="43.7761" lon="7.24909">
        <ele>667.2922363</ele>
        <time>2009-05-31T14:54:38Z</time>
      </trkpt>
      <trkpt lat="43.77596" lon="7.24911">
        <ele>666.8115234</ele>
        <time>2009-05-31T14:54:46Z</time>
      </trkpt>
      <trkpt lat="43.77581" lon="7.24917">
        <ele>666.3308105</ele>
        <time>2009-05-31T14:54:53Z</time>
      </trkpt>
      <trkpt lat="43.77568" lon="7.24921">
        <ele>665.3696289</ele>
        <time>2009-05-31T14:54:58Z</time>
      </trkpt>
      <trkpt lat="43.77554" lon="7.24926">
        <ele>665.8503418</ele>
        <time>2009-05-31T14:55:05Z</time>
      </trkpt>
      <trkpt lat="43.7754" lon="7.2493">
        <ele>667.2922363</ele>
        <time>2009-05-31T14:55:12Z</time>
      </trkpt>
      <trkpt lat="43.77529" lon="7.24931">
        <ele>666.8115234</ele>
        <time>2009-05-31T14:55:17Z</time>
      </trkpt>
      <trkpt lat="43.77517" lon="7.24935">
        <ele>666.8115234</ele>
        <time>2009-05-31T14:55:23Z</time>
      </trkpt>
      <trkpt lat="43.77499" lon="7.24938">
        <ele>667.2922363</ele>
        <time>2009-05-31T14:55:31Z</time>
      </trkpt>
      <trkpt lat="43.77484" lon="7.2494">
        <ele>667.7727051</ele>
        <time>2009-05-31T14:55:37Z</time>
      </trkpt>
      <trkpt lat="43.77469" lon="7.24942">
        <ele>668.734375</ele>
        <time>2009-05-31T14:55:43Z</time>
      </trkpt>
      <trkpt lat="43.77453" lon="7.24941">
        <ele>670.1762695</ele>
        <time>2009-05-31T14:55:50Z</time>
      </trkpt>
      <trkpt lat="43.77436" lon="7.2494">
        <ele>671.1376953</ele>
        <time>2009-05-31T14:55:57Z</time>
      </trkpt>
      <trkpt lat="43.7742" lon="7.24945">
        <ele>672.098877</ele>
        <time>2009-05-31T14:56:05Z</time>
      </trkpt>
      <trkpt lat="43.77411" lon="7.24947">
        <ele>672.5795898</ele>
        <time>2009-05-31T14:56:11Z</time>
      </trkpt>
      <trkpt lat="43.77408" lon="7.24948">
        <ele>672.5795898</ele>
        <time>2009-05-31T14:56:16Z</time>
      </trkpt>
      <trkpt lat="43.77401" lon="7.24948">
        <ele>674.0214844</ele>
        <time>2009-05-31T14:56:23Z</time>
      </trkpt>
      <trkpt lat="43.77394" lon="7.24949">
        <ele>674.9829102</ele>
        <time>2009-05-31T14:56:30Z</time>
      </trkpt>
      <trkpt lat="43.77382" lon="7.24948">
        <ele>675.4633789</ele>
        <time>2009-05-31T14:56:39Z</time>
      </trkpt>
      <trkpt lat="43.77378" lon="7.24949">
        <ele>675.4633789</ele>
        <time>2009-05-31T14:56:43Z</time>
      </trkpt>
      <trkpt lat="43.7737" lon="7.24951">
        <ele>676.9055176</ele>
        <time>2009-05-31T14:56:53Z</time>
      </trkpt>
      <trkpt lat="43.77362" lon="7.24955">
        <ele>677.8666992</ele>
        <time>2009-05-31T14:57:01Z</time>
      </trkpt>
      <trkpt lat="43.77355" lon="7.24956">
        <ele>679.3085938</ele>
        <time>2009-05-31T14:57:08Z</time>
      </trkpt>
      <trkpt lat="43.77348" lon="7.24958">
        <ele>680.2700195</ele>
        <time>2009-05-31T14:57:15Z</time>
      </trkpt>
      <trkpt lat="43.77338" lon="7.24961">
        <ele>680.7507324</ele>
        <time>2009-05-31T14:57:25Z</time>
      </trkpt>
      <trkpt lat="43.77336" lon="7.24961">
        <ele>681.7119141</ele>
        <time>2009-05-31T14:57:27Z</time>
      </trkpt>
      <trkpt lat="43.77325" lon="7.24962">
        <ele>681.7119141</ele>
        <time>2009-05-31T14:57:37Z</time>
      </trkpt>
      <trkpt lat="43.77318" lon="7.24963">
        <ele>682.6733398</ele>
        <time>2009-05-31T14:57:45Z</time>
      </trkpt>
      <trkpt lat="43.77313" lon="7.24965">
        <ele>683.6345215</ele>
        <time>2009-05-31T14:57:51Z</time>
      </trkpt>
      <trkpt lat="43.77304" lon="7.24967">
        <ele>684.1154785</ele>
        <time>2009-05-31T14:57:59Z</time>
      </trkpt>
      <trkpt lat="43.77299" lon="7.24969">
        <ele>685.557373</ele>
        <time>2009-05-31T14:58:05Z</time>
      </trkpt>
      <trkpt lat="43.77291" lon="7.2497">
        <ele>685.557373</ele>
        <time>2009-05-31T14:58:13Z</time>
      </trkpt>
      <trkpt lat="43.77285" lon="7.2497">
        <ele>686.0380859</ele>
        <time>2009-05-31T14:58:20Z</time>
      </trkpt>
      <trkpt lat="43.7728" lon="7.2497">
        <ele>685.557373</ele>
        <time>2009-05-31T14:58:24Z</time>
      </trkpt>
      <trkpt lat="43.77261" lon="7.24973">
        <ele>686.5187988</ele>
        <time>2009-05-31T14:58:33Z</time>
      </trkpt>
      <trkpt lat="43.77246" lon="7.24975">
        <ele>687.4799805</ele>
        <time>2009-05-31T14:58:42Z</time>
      </trkpt>
      <trkpt lat="43.77233" lon="7.24979">
        <ele>686.9992676</ele>
        <time>2009-05-31T14:58:50Z</time>
      </trkpt>
      <trkpt lat="43.77219" lon="7.24984">
        <ele>688.9221191</ele>
        <time>2009-05-31T14:58:58Z</time>
      </trkpt>
      <trkpt lat="43.77207" lon="7.24985">
        <ele>688.9221191</ele>
        <time>2009-05-31T14:59:04Z</time>
      </trkpt>
      <trkpt lat="43.77193" lon="7.24987">
        <ele>688.4414062</ele>
        <time>2009-05-31T14:59:10Z</time>
      </trkpt>
      <trkpt lat="43.7718" lon="7.24987">
        <ele>688.9221191</ele>
        <time>2009-05-31T14:59:15Z</time>
      </trkpt>
      <trkpt lat="43.77163" lon="7.2499">
        <ele>688.9221191</ele>
        <time>2009-05-31T14:59:21Z</time>
      </trkpt>
      <trkpt lat="43.77147" lon="7.24991">
        <ele>689.4025879</ele>
        <time>2009-05-31T14:59:27Z</time>
      </trkpt>
      <trkpt lat="43.77128" lon="7.24991">
        <ele>688.4414062</ele>
        <time>2009-05-31T14:59:34Z</time>
      </trkpt>
      <trkpt lat="43.77111" lon="7.24991">
        <ele>688.4414062</ele>
        <time>2009-05-31T14:59:40Z</time>
      </trkpt>
      <trkpt lat="43.77095" lon="7.24992">
        <ele>688.9221191</ele>
        <time>2009-05-31T14:59:46Z</time>
      </trkpt>
      <trkpt lat="43.77083" lon="7.24992">
        <ele>689.4025879</ele>
        <time>2009-05-31T14:59:51Z</time>
      </trkpt>
      <trkpt lat="43.77069" lon="7.24984">
        <ele>689.4025879</ele>
        <time>2009-05-31T14:59:57Z</time>
      </trkpt>
      <trkpt lat="43.77058" lon="7.24976">
        <ele>689.4025879</ele>
        <time>2009-05-31T15:00:02Z</time>
      </trkpt>
      <trkpt lat="43.77048" lon="7.24969">
        <ele>689.8833008</ele>
        <time>2009-05-31T15:00:08Z</time>
      </trkpt>
      <trkpt lat="43.77035" lon="7.24964">
        <ele>690.3640137</ele>
        <time>2009-05-31T15:00:15Z</time>
      </trkpt>
      <trkpt lat="43.77024" lon="7.24967">
        <ele>691.3251953</ele>
        <time>2009-05-31T15:00:19Z</time>
      </trkpt>
      <trkpt lat="43.77014" lon="7.24975">
        <ele>692.2866211</ele>
        <time>2009-05-31T15:00:24Z</time>
      </trkpt>
      <trkpt lat="43.77001" lon="7.24982">
        <ele>691.8059082</ele>
        <time>2009-05-31T15:00:29Z</time>
      </trkpt>
      <trkpt lat="43.76986" lon="7.2499">
        <ele>691.3251953</ele>
        <time>2009-05-31T15:00:35Z</time>
      </trkpt>
      <trkpt lat="43.76966" lon="7.24996">
        <ele>689.4025879</ele>
        <time>2009-05-31T15:00:41Z</time>
      </trkpt>
      <trkpt lat="43.76949" lon="7.25004">
        <ele>688.9221191</ele>
        <time>2009-05-31T15:00:46Z</time>
      </trkpt>
      <trkpt lat="43.76941" lon="7.25005">
        <ele>687.4799805</ele>
        <time>2009-05-31T15:00:49Z</time>
      </trkpt>
      <trkpt lat="43.76931" lon="7.25008">
        <ele>686.0380859</ele>
        <time>2009-05-31T15:00:52Z</time>
      </trkpt>
      <trkpt lat="43.76915" lon="7.25018">
        <ele>684.5961914</ele>
        <time>2009-05-31T15:00:56Z</time>
      </trkpt>
      <trkpt lat="43.76903" lon="7.25026">
        <ele>683.6345215</ele>
        <time>2009-05-31T15:00:59Z</time>
      </trkpt>
      <trkpt lat="43.76882" lon="7.25032">
        <ele>679.7893066</ele>
        <time>2009-05-31T15:01:04Z</time>
      </trkpt>
      <trkpt lat="43.76858" lon="7.25033">
        <ele>678.3474121</ele>
        <time>2009-05-31T15:01:09Z</time>
      </trkpt>
      <trkpt lat="43.76853" lon="7.25037">
        <ele>677.3862305</ele>
        <time>2009-05-31T15:01:11Z</time>
      </trkpt>
      <trkpt lat="43.76847" lon="7.25049">
        <ele>675.9440918</ele>
        <time>2009-05-31T15:01:15Z</time>
      </trkpt>
      <trkpt lat="43.76842" lon="7.25051">
        <ele>675.9440918</ele>
        <time>2009-05-31T15:01:17Z</time>
      </trkpt>
      <trkpt lat="43.76831" lon="7.2505">
        <ele>674.5021973</ele>
        <time>2009-05-31T15:01:20Z</time>
      </trkpt>
      <trkpt lat="43.76808" lon="7.25039">
        <ele>673.0603027</ele>
        <time>2009-05-31T15:01:25Z</time>
      </trkpt>
      <trkpt lat="43.76791" lon="7.2503">
        <ele>672.5795898</ele>
        <time>2009-05-31T15:01:29Z</time>
      </trkpt>
      <trkpt lat="43.76766" lon="7.2504">
        <ele>669.6958008</ele>
        <time>2009-05-31T15:01:35Z</time>
      </trkpt>
      <trkpt lat="43.76739" lon="7.25052">
        <ele>665.8503418</ele>
        <time>2009-05-31T15:01:41Z</time>
      </trkpt>
      <trkpt lat="43.76735" lon="7.25054">
        <ele>664.888916</ele>
        <time>2009-05-31T15:01:42Z</time>
      </trkpt>
      <trkpt lat="43.76721" lon="7.25054">
        <ele>662.005127</ele>
        <time>2009-05-31T15:01:47Z</time>
      </trkpt>
      <trkpt lat="43.76711" lon="7.25053">
        <ele>661.0437012</ele>
        <time>2009-05-31T15:01:50Z</time>
      </trkpt>
      <trkpt lat="43.76699" lon="7.2505">
        <ele>660.5629883</ele>
        <time>2009-05-31T15:01:53Z</time>
      </trkpt>
      <trkpt lat="43.76683" lon="7.25053">
        <ele>659.6018066</ele>
        <time>2009-05-31T15:01:57Z</time>
      </trkpt>
      <trkpt lat="43.76677" lon="7.25063">
        <ele>659.1210938</ele>
        <time>2009-05-31T15:01:59Z</time>
      </trkpt>
      <trkpt lat="43.76672" lon="7.25075">
        <ele>656.2370605</ele>
        <time>2009-05-31T15:02:01Z</time>
      </trkpt>
      <trkpt lat="43.76668" lon="7.25085">
        <ele>653.8339844</ele>
        <time>2009-05-31T15:02:03Z</time>
      </trkpt>
      <trkpt lat="43.76655" lon="7.25091">
        <ele>652.3918457</ele>
        <time>2009-05-31T15:02:07Z</time>
      </trkpt>
      <trkpt lat="43.76645" lon="7.25094">
        <ele>651.4304199</ele>
        <time>2009-05-31T15:02:09Z</time>
      </trkpt>
      <trkpt lat="43.7663" lon="7.25094">
        <ele>649.0270996</ele>
        <time>2009-05-31T15:02:12Z</time>
      </trkpt>
      <trkpt lat="43.76616" lon="7.25096">
        <ele>647.1044922</ele>
        <time>2009-05-31T15:02:15Z</time>
      </trkpt>
      <trkpt lat="43.76591" lon="7.25103">
        <ele>645.1818848</ele>
        <time>2009-05-31T15:02:20Z</time>
      </trkpt>
      <trkpt lat="43.76564" lon="7.25113">
        <ele>642.7788086</ele>
        <time>2009-05-31T15:02:26Z</time>
      </trkpt>
      <trkpt lat="43.76556" lon="7.25118">
        <ele>641.3366699</ele>
        <time>2009-05-31T15:02:28Z</time>
      </trkpt>
      <trkpt lat="43.76538" lon="7.25129">
        <ele>639.4140625</ele>
        <time>2009-05-31T15:02:32Z</time>
      </trkpt>
      <trkpt lat="43.76519" lon="7.25125">
        <ele>638.4528809</ele>
        <time>2009-05-31T15:02:36Z</time>
      </trkpt>
      <trkpt lat="43.7651" lon="7.25121">
        <ele>637.0107422</ele>
        <time>2009-05-31T15:02:38Z</time>
      </trkpt>
      <trkpt lat="43.76494" lon="7.25114">
        <ele>634.6074219</ele>
        <time>2009-05-31T15:02:42Z</time>
      </trkpt>
      <trkpt lat="43.76476" lon="7.25111">
        <ele>633.1652832</ele>
        <time>2009-05-31T15:02:47Z</time>
      </trkpt>
      <trkpt lat="43.76466" lon="7.25115">
        <ele>631.7233887</ele>
        <time>2009-05-31T15:02:51Z</time>
      </trkpt>
      <trkpt lat="43.76442" lon="7.25119">
        <ele>628.3588867</ele>
        <time>2009-05-31T15:02:58Z</time>
      </trkpt>
      <trkpt lat="43.7643" lon="7.25125">
        <ele>628.3588867</ele>
        <time>2009-05-31T15:03:02Z</time>
      </trkpt>
      <trkpt lat="43.76411" lon="7.25132">
        <ele>625.9555664</ele>
        <time>2009-05-31T15:03:09Z</time>
      </trkpt>
      <trkpt lat="43.76397" lon="7.2514">
        <ele>623.0717773</ele>
        <time>2009-05-31T15:03:14Z</time>
      </trkpt>
      <trkpt lat="43.76392" lon="7.25145">
        <ele>622.1103516</ele>
        <time>2009-05-31T15:03:16Z</time>
      </trkpt>
      <trkpt lat="43.76366" lon="7.25171">
        <ele>620.1877441</ele>
        <time>2009-05-31T15:03:24Z</time>
      </trkpt>
      <trkpt lat="43.76363" lon="7.25173">
        <ele>619.7070312</ele>
        <time>2009-05-31T15:03:25Z</time>
      </trkpt>
      <trkpt lat="43.76349" lon="7.25195">
        <ele>619.2263184</ele>
        <time>2009-05-31T15:03:30Z</time>
      </trkpt>
      <trkpt lat="43.76345" lon="7.25198">
        <ele>618.7456055</ele>
        <time>2009-05-31T15:03:31Z</time>
      </trkpt>
      <trkpt lat="43.7633" lon="7.25202">
        <ele>615.8618164</ele>
        <time>2009-05-31T15:03:35Z</time>
      </trkpt>
      <trkpt lat="43.76323" lon="7.252">
        <ele>613.9389648</ele>
        <time>2009-05-31T15:03:37Z</time>
      </trkpt>
      <trkpt lat="43.76315" lon="7.25199">
        <ele>612.4970703</ele>
        <time>2009-05-31T15:03:39Z</time>
      </trkpt>
      <trkpt lat="43.76306" lon="7.252">
        <ele>611.0551758</ele>
        <time>2009-05-31T15:03:41Z</time>
      </trkpt>
      <trkpt lat="43.76283" lon="7.25205">
        <ele>608.6518555</ele>
        <time>2009-05-31T15:03:46Z</time>
      </trkpt>
      <trkpt lat="43.76275" lon="7.25205">
        <ele>607.6906738</ele>
        <time>2009-05-31T15:03:48Z</time>
      </trkpt>
      <trkpt lat="43.76261" lon="7.25207">
        <ele>605.2873535</ele>
        <time>2009-05-31T15:03:51Z</time>
      </trkpt>
      <trkpt lat="43.76238" lon="7.25211">
        <ele>604.3261719</ele>
        <time>2009-05-31T15:03:57Z</time>
      </trkpt>
      <trkpt lat="43.76227" lon="7.25211">
        <ele>602.8837891</ele>
        <time>2009-05-31T15:04:01Z</time>
      </trkpt>
      <trkpt lat="43.76213" lon="7.25213">
        <ele>602.4030762</ele>
        <time>2009-05-31T15:04:05Z</time>
      </trkpt>
      <trkpt lat="43.76196" lon="7.25222">
        <ele>601.9226074</ele>
        <time>2009-05-31T15:04:10Z</time>
      </trkpt>
      <trkpt lat="43.76187" lon="7.25224">
        <ele>599.5192871</ele>
        <time>2009-05-31T15:04:14Z</time>
      </trkpt>
      <trkpt lat="43.76171" lon="7.25233">
        <ele>599.5192871</ele>
        <time>2009-05-31T15:04:20Z</time>
      </trkpt>
      <trkpt lat="43.76156" lon="7.25242">
        <ele>598.0773926</ele>
        <time>2009-05-31T15:04:25Z</time>
      </trkpt>
      <trkpt lat="43.76142" lon="7.25249">
        <ele>595.1933594</ele>
        <time>2009-05-31T15:04:31Z</time>
      </trkpt>
      <trkpt lat="43.76137" lon="7.25251">
        <ele>594.2321777</ele>
        <time>2009-05-31T15:04:33Z</time>
      </trkpt>
      <trkpt lat="43.76128" lon="7.25258">
        <ele>593.270752</ele>
        <time>2009-05-31T15:04:36Z</time>
      </trkpt>
      <trkpt lat="43.76121" lon="7.25262">
        <ele>591.8288574</ele>
        <time>2009-05-31T15:04:38Z</time>
      </trkpt>
      <trkpt lat="43.76102" lon="7.25275">
        <ele>589.4255371</ele>
        <time>2009-05-31T15:04:44Z</time>
      </trkpt>
      <trkpt lat="43.76093" lon="7.25283">
        <ele>587.9833984</ele>
        <time>2009-05-31T15:04:48Z</time>
      </trkpt>
      <trkpt lat="43.76084" lon="7.25283">
        <ele>585.5800781</ele>
        <time>2009-05-31T15:04:52Z</time>
      </trkpt>
      <trkpt lat="43.76078" lon="7.25286">
        <ele>584.6188965</ele>
        <time>2009-05-31T15:04:54Z</time>
      </trkpt>
      <trkpt lat="43.76064" lon="7.25291">
        <ele>583.1767578</ele>
        <time>2009-05-31T15:04:57Z</time>
      </trkpt>
      <trkpt lat="43.76043" lon="7.25304">
        <ele>581.7348633</ele>
        <time>2009-05-31T15:05:02Z</time>
      </trkpt>
      <trkpt lat="43.7604" lon="7.25306">
        <ele>581.2543945</ele>
        <time>2009-05-31T15:05:03Z</time>
      </trkpt>
      <trkpt lat="43.76023" lon="7.2531">
        <ele>577.4091797</ele>
        <time>2009-05-31T15:05:08Z</time>
      </trkpt>
      <trkpt lat="43.76014" lon="7.25315">
        <ele>577.4091797</ele>
        <time>2009-05-31T15:05:10Z</time>
      </trkpt>
      <trkpt lat="43.76003" lon="7.25322">
        <ele>575.0058594</ele>
        <time>2009-05-31T15:05:14Z</time>
      </trkpt>
      <trkpt lat="43.75992" lon="7.2533">
        <ele>573.5639648</ele>
        <time>2009-05-31T15:05:18Z</time>
      </trkpt>
      <trkpt lat="43.75977" lon="7.2534">
        <ele>572.6025391</ele>
        <time>2009-05-31T15:05:23Z</time>
      </trkpt>
      <trkpt lat="43.75971" lon="7.25343">
        <ele>571.6408691</ele>
        <time>2009-05-31T15:05:25Z</time>
      </trkpt>
      <trkpt lat="43.75963" lon="7.25348">
        <ele>571.6408691</ele>
        <time>2009-05-31T15:05:27Z</time>
      </trkpt>
      <trkpt lat="43.75954" lon="7.25352">
        <ele>570.6796875</ele>
        <time>2009-05-31T15:05:29Z</time>
      </trkpt>
      <trkpt lat="43.75949" lon="7.25355">
        <ele>569.7185059</ele>
        <time>2009-05-31T15:05:30Z</time>
      </trkpt>
      <trkpt lat="43.7593" lon="7.25368">
        <ele>568.7570801</ele>
        <time>2009-05-31T15:05:34Z</time>
      </trkpt>
      <trkpt lat="43.75922" lon="7.25376">
        <ele>567.3151855</ele>
        <time>2009-05-31T15:05:36Z</time>
      </trkpt>
      <trkpt lat="43.75912" lon="7.25384">
        <ele>566.8344727</ele>
        <time>2009-05-31T15:05:39Z</time>
      </trkpt>
      <trkpt lat="43.75894" lon="7.25397">
        <ele>564.4311523</ele>
        <time>2009-05-31T15:05:45Z</time>
      </trkpt>
      <trkpt lat="43.75878" lon="7.25413">
        <ele>564.4311523</ele>
        <time>2009-05-31T15:05:50Z</time>
      </trkpt>
      <trkpt lat="43.75865" lon="7.25425">
        <ele>563.9504395</ele>
        <time>2009-05-31T15:05:55Z</time>
      </trkpt>
      <trkpt lat="43.75864" lon="7.25426">
        <ele>564.9118652</ele>
        <time>2009-05-31T15:05:58Z</time>
      </trkpt>
      <trkpt lat="43.75857" lon="7.25428">
        <ele>563.9504395</ele>
        <time>2009-05-31T15:06:04Z</time>
      </trkpt>
      <trkpt lat="43.75853" lon="7.2543">
        <ele>563.4699707</ele>
        <time>2009-05-31T15:06:08Z</time>
      </trkpt>
      <trkpt lat="43.75849" lon="7.2543">
        <ele>562.0280762</ele>
        <time>2009-05-31T15:06:11Z</time>
      </trkpt>
      <trkpt lat="43.75837" lon="7.25434">
        <ele>560.5859375</ele>
        <time>2009-05-31T15:06:15Z</time>
      </trkpt>
      <trkpt lat="43.7582" lon="7.25446">
        <ele>556.7407227</ele>
        <time>2009-05-31T15:06:19Z</time>
      </trkpt>
      <trkpt lat="43.75801" lon="7.25456">
        <ele>554.3374023</ele>
        <time>2009-05-31T15:06:23Z</time>
      </trkpt>
      <trkpt lat="43.75792" lon="7.25463">
        <ele>552.4145508</ele>
        <time>2009-05-31T15:06:25Z</time>
      </trkpt>
      <trkpt lat="43.75779" lon="7.25472">
        <ele>549.5307617</ele>
        <time>2009-05-31T15:06:29Z</time>
      </trkpt>
      <trkpt lat="43.75775" lon="7.25475">
        <ele>550.0114746</ele>
        <time>2009-05-31T15:06:30Z</time>
      </trkpt>
      <trkpt lat="43.75759" lon="7.25488">
        <ele>548.5693359</ele>
        <time>2009-05-31T15:06:34Z</time>
      </trkpt>
      <trkpt lat="43.75741" lon="7.25499">
        <ele>547.1274414</ele>
        <time>2009-05-31T15:06:39Z</time>
      </trkpt>
      <trkpt lat="43.75735" lon="7.25499">
        <ele>545.6855469</ele>
        <time>2009-05-31T15:06:41Z</time>
      </trkpt>
      <trkpt lat="43.7573" lon="7.25501">
        <ele>545.204834</ele>
        <time>2009-05-31T15:06:43Z</time>
      </trkpt>
      <trkpt lat="43.75724" lon="7.25505">
        <ele>544.7242432</ele>
        <time>2009-05-31T15:06:45Z</time>
      </trkpt>
      <trkpt lat="43.75716" lon="7.25509">
        <ele>544.7242432</ele>
        <time>2009-05-31T15:06:47Z</time>
      </trkpt>
      <trkpt lat="43.75708" lon="7.25514">
        <ele>543.2821045</ele>
        <time>2009-05-31T15:06:49Z</time>
      </trkpt>
      <trkpt lat="43.75698" lon="7.25516">
        <ele>541.84021</ele>
        <time>2009-05-31T15:06:52Z</time>
      </trkpt>
      <trkpt lat="43.75677" lon="7.25528">
        <ele>540.3983154</ele>
        <time>2009-05-31T15:06:57Z</time>
      </trkpt>
      <trkpt lat="43.75659" lon="7.25536">
        <ele>537.9949951</ele>
        <time>2009-05-31T15:07:02Z</time>
      </trkpt>
      <trkpt lat="43.75643" lon="7.25543">
        <ele>535.5915527</ele>
        <time>2009-05-31T15:07:06Z</time>
      </trkpt>
      <trkpt lat="43.75627" lon="7.25555">
        <ele>534.1496582</ele>
        <time>2009-05-31T15:07:11Z</time>
      </trkpt>
      <trkpt lat="43.75611" lon="7.25565">
        <ele>533.1883545</ele>
        <time>2009-05-31T15:07:15Z</time>
      </trkpt>
      <trkpt lat="43.75599" lon="7.25569">
        <ele>531.2657471</ele>
        <time>2009-05-31T15:07:18Z</time>
      </trkpt>
      <trkpt lat="43.75591" lon="7.25573">
        <ele>530.3044434</ele>
        <time>2009-05-31T15:07:20Z</time>
      </trkpt>
      <trkpt lat="43.75578" lon="7.25577">
        <ele>527.4204102</ele>
        <time>2009-05-31T15:07:23Z</time>
      </trkpt>
      <trkpt lat="43.75566" lon="7.25585">
        <ele>525.9783936</ele>
        <time>2009-05-31T15:07:26Z</time>
      </trkpt>
      <trkpt lat="43.75549" lon="7.256">
        <ele>524.536499</ele>
        <time>2009-05-31T15:07:32Z</time>
      </trkpt>
      <trkpt lat="43.75538" lon="7.2562">
        <ele>523.0946045</ele>
        <time>2009-05-31T15:07:36Z</time>
      </trkpt>
      <trkpt lat="43.75531" lon="7.25642">
        <ele>519.7298584</ele>
        <time>2009-05-31T15:07:40Z</time>
      </trkpt>
      <trkpt lat="43.75529" lon="7.25667">
        <ele>518.2878418</ele>
        <time>2009-05-31T15:07:44Z</time>
      </trkpt>
      <trkpt lat="43.75528" lon="7.25674">
        <ele>518.2878418</ele>
        <time>2009-05-31T15:07:45Z</time>
      </trkpt>
      <trkpt lat="43.75523" lon="7.25704">
        <ele>514.442627</ele>
        <time>2009-05-31T15:07:50Z</time>
      </trkpt>
      <trkpt lat="43.75522" lon="7.25707">
        <ele>513.9620361</ele>
        <time>2009-05-31T15:07:51Z</time>
      </trkpt>
      <trkpt lat="43.75521" lon="7.2571">
        <ele>513.4814453</ele>
        <time>2009-05-31T15:07:52Z</time>
      </trkpt>
      <trkpt lat="43.75513" lon="7.25716">
        <ele>511.5587158</ele>
        <time>2009-05-31T15:07:55Z</time>
      </trkpt>
      <trkpt lat="43.75507" lon="7.25718">
        <ele>510.1166992</ele>
        <time>2009-05-31T15:07:57Z</time>
      </trkpt>
      <trkpt lat="43.75499" lon="7.25727">
        <ele>507.713501</ele>
        <time>2009-05-31T15:08:00Z</time>
      </trkpt>
      <trkpt lat="43.7549" lon="7.25747">
        <ele>506.2714844</ele>
        <time>2009-05-31T15:08:03Z</time>
      </trkpt>
      <trkpt lat="43.75483" lon="7.25775">
        <ele>505.7908936</ele>
        <time>2009-05-31T15:08:07Z</time>
      </trkpt>
      <trkpt lat="43.75473" lon="7.25783">
        <ele>504.8294678</ele>
        <time>2009-05-31T15:08:10Z</time>
      </trkpt>
      <trkpt lat="43.75458" lon="7.25792">
        <ele>503.8681641</ele>
        <time>2009-05-31T15:08:14Z</time>
      </trkpt>
      <trkpt lat="43.7544" lon="7.25801">
        <ele>503.8681641</ele>
        <time>2009-05-31T15:08:19Z</time>
      </trkpt>
      <trkpt lat="43.75426" lon="7.258">
        <ele>505.3101807</ele>
        <time>2009-05-31T15:08:23Z</time>
      </trkpt>
      <trkpt lat="43.75411" lon="7.25808">
        <ele>505.7908936</ele>
        <time>2009-05-31T15:08:28Z</time>
      </trkpt>
      <trkpt lat="43.75403" lon="7.25806">
        <ele>506.2714844</ele>
        <time>2009-05-31T15:08:31Z</time>
      </trkpt>
      <trkpt lat="43.75392" lon="7.258">
        <ele>506.2714844</ele>
        <time>2009-05-31T15:08:36Z</time>
      </trkpt>
      <trkpt lat="43.75389" lon="7.258">
        <ele>506.7520752</ele>
        <time>2009-05-31T15:08:37Z</time>
      </trkpt>
      <trkpt lat="43.75375" lon="7.25792">
        <ele>505.7908936</ele>
        <time>2009-05-31T15:08:43Z</time>
      </trkpt>
      <trkpt lat="43.75372" lon="7.25787">
        <ele>505.3101807</ele>
        <time>2009-05-31T15:08:45Z</time>
      </trkpt>
      <trkpt lat="43.7536" lon="7.25785">
        <ele>504.348877</ele>
        <time>2009-05-31T15:08:49Z</time>
      </trkpt>
      <trkpt lat="43.75349" lon="7.25786">
        <ele>502.9067383</ele>
        <time>2009-05-31T15:08:52Z</time>
      </trkpt>
      <trkpt lat="43.75334" lon="7.25803">
        <ele>500.50354</ele>
        <time>2009-05-31T15:08:56Z</time>
      </trkpt>
      <trkpt lat="43.75321" lon="7.25815">
        <ele>499.5422363</ele>
        <time>2009-05-31T15:09:00Z</time>
      </trkpt>
      <trkpt lat="43.753" lon="7.25826">
        <ele>499.5422363</ele>
        <time>2009-05-31T15:09:06Z</time>
      </trkpt>
      <trkpt lat="43.75292" lon="7.2583">
        <ele>499.5422363</ele>
        <time>2009-05-31T15:09:10Z</time>
      </trkpt>
      <trkpt lat="43.75282" lon="7.25836">
        <ele>500.50354</ele>
        <time>2009-05-31T15:09:14Z</time>
      </trkpt>
      <trkpt lat="43.75266" lon="7.25842">
        <ele>499.0615234</ele>
        <time>2009-05-31T15:09:20Z</time>
      </trkpt>
      <trkpt lat="43.75252" lon="7.25854">
        <ele>500.0229492</ele>
        <time>2009-05-31T15:09:26Z</time>
      </trkpt>
      <trkpt lat="43.75241" lon="7.25854">
        <ele>498.1003418</ele>
        <time>2009-05-31T15:09:30Z</time>
      </trkpt>
      <trkpt lat="43.75237" lon="7.25853">
        <ele>498.1003418</ele>
        <time>2009-05-31T15:09:31Z</time>
      </trkpt>
      <trkpt lat="43.75228" lon="7.25854">
        <ele>497.138916</ele>
        <time>2009-05-31T15:09:33Z</time>
      </trkpt>
      <trkpt lat="43.75202" lon="7.25865">
        <ele>494.7355957</ele>
        <time>2009-05-31T15:09:38Z</time>
      </trkpt>
      <trkpt lat="43.75197" lon="7.25867">
        <ele>494.7355957</ele>
        <time>2009-05-31T15:09:39Z</time>
      </trkpt>
      <trkpt lat="43.75184" lon="7.2587">
        <ele>493.2935791</ele>
        <time>2009-05-31T15:09:42Z</time>
      </trkpt>
      <trkpt lat="43.75164" lon="7.25873">
        <ele>492.3323975</ele>
        <time>2009-05-31T15:09:47Z</time>
      </trkpt>
      <trkpt lat="43.75151" lon="7.25872">
        <ele>490.8903809</ele>
        <time>2009-05-31T15:09:50Z</time>
      </trkpt>
      <trkpt lat="43.75132" lon="7.25871">
        <ele>488.4871826</ele>
        <time>2009-05-31T15:09:54Z</time>
      </trkpt>
      <trkpt lat="43.75127" lon="7.25872">
        <ele>488.4871826</ele>
        <time>2009-05-31T15:09:55Z</time>
      </trkpt>
      <trkpt lat="43.75107" lon="7.25874">
        <ele>486.5644531</ele>
        <time>2009-05-31T15:09:59Z</time>
      </trkpt>
      <trkpt lat="43.75097" lon="7.25876">
        <ele>487.0450439</ele>
        <time>2009-05-31T15:10:01Z</time>
      </trkpt>
      <trkpt lat="43.75085" lon="7.25869">
        <ele>485.6030273</ele>
        <time>2009-05-31T15:10:04Z</time>
      </trkpt>
      <trkpt lat="43.75081" lon="7.25866">
        <ele>485.6030273</ele>
        <time>2009-05-31T15:10:05Z</time>
      </trkpt>
      <trkpt lat="43.75055" lon="7.25859">
        <ele>483.1998291</ele>
        <time>2009-05-31T15:10:11Z</time>
      </trkpt>
      <trkpt lat="43.75047" lon="7.25858">
        <ele>483.1998291</ele>
        <time>2009-05-31T15:10:13Z</time>
      </trkpt>
      <trkpt lat="43.75032" lon="7.25857">
        <ele>481.2772217</ele>
        <time>2009-05-31T15:10:17Z</time>
      </trkpt>
      <trkpt lat="43.75014" lon="7.25854">
        <ele>480.315918</ele>
        <time>2009-05-31T15:10:22Z</time>
      </trkpt>
      <trkpt lat="43.75007" lon="7.25852">
        <ele>479.3544922</ele>
        <time>2009-05-31T15:10:24Z</time>
      </trkpt>
      <trkpt lat="43.74999" lon="7.25851">
        <ele>479.3544922</ele>
        <time>2009-05-31T15:10:26Z</time>
      </trkpt>
      <trkpt lat="43.74979" lon="7.25855">
        <ele>478.3931885</ele>
        <time>2009-05-31T15:10:31Z</time>
      </trkpt>
      <trkpt lat="43.74964" lon="7.25842">
        <ele>477.9124756</ele>
        <time>2009-05-31T15:10:37Z</time>
      </trkpt>
      <trkpt lat="43.74952" lon="7.25839">
        <ele>478.3931885</ele>
        <time>2009-05-31T15:10:40Z</time>
      </trkpt>
      <trkpt lat="43.74922" lon="7.25838">
        <ele>477.9124756</ele>
        <time>2009-05-31T15:10:48Z</time>
      </trkpt>
      <trkpt lat="43.74902" lon="7.25841">
        <ele>478.3931885</ele>
        <time>2009-05-31T15:10:54Z</time>
      </trkpt>
      <trkpt lat="43.74879" lon="7.25841">
        <ele>477.9124756</ele>
        <time>2009-05-31T15:11:01Z</time>
      </trkpt>
      <trkpt lat="43.7486" lon="7.2584">
        <ele>477.4318848</ele>
        <time>2009-05-31T15:11:06Z</time>
      </trkpt>
      <trkpt lat="43.74843" lon="7.25841">
        <ele>477.4318848</ele>
        <time>2009-05-31T15:11:11Z</time>
      </trkpt>
      <trkpt lat="43.74821" lon="7.25841">
        <ele>477.9124756</ele>
        <time>2009-05-31T15:11:17Z</time>
      </trkpt>
      <trkpt lat="43.748" lon="7.25839">
        <ele>477.9124756</ele>
        <time>2009-05-31T15:11:23Z</time>
      </trkpt>
      <trkpt lat="43.7479" lon="7.25842">
        <ele>476.9512939</ele>
        <time>2009-05-31T15:11:26Z</time>
      </trkpt>
      <trkpt lat="43.74774" lon="7.25846">
        <ele>475.5092773</ele>
        <time>2009-05-31T15:11:30Z</time>
      </trkpt>
      <trkpt lat="43.74771" lon="7.25846">
        <ele>475.5092773</ele>
        <time>2009-05-31T15:11:31Z</time>
      </trkpt>
      <trkpt lat="43.74758" lon="7.25853">
        <ele>474.5479736</ele>
        <time>2009-05-31T15:11:35Z</time>
      </trkpt>
      <trkpt lat="43.7474" lon="7.25865">
        <ele>473.5866699</ele>
        <time>2009-05-31T15:11:40Z</time>
      </trkpt>
      <trkpt lat="43.74727" lon="7.25873">
        <ele>472.1446533</ele>
        <time>2009-05-31T15:11:43Z</time>
      </trkpt>
      <trkpt lat="43.74723" lon="7.25875">
        <ele>470.7026367</ele>
        <time>2009-05-31T15:11:44Z</time>
      </trkpt>
      <trkpt lat="43.74711" lon="7.25885">
        <ele>467.8187256</ele>
        <time>2009-05-31T15:11:48Z</time>
      </trkpt>
      <trkpt lat="43.74711" lon="7.25892">
        <ele>465.8961182</ele>
        <time>2009-05-31T15:11:51Z</time>
      </trkpt>
      <trkpt lat="43.7471" lon="7.25893">
        <ele>465.4155273</ele>
        <time>2009-05-31T15:11:52Z</time>
      </trkpt>
      <trkpt lat="43.74706" lon="7.25892">
        <ele>464.9348145</ele>
        <time>2009-05-31T15:11:54Z</time>
      </trkpt>
      <trkpt lat="43.74696" lon="7.25889">
        <ele>463.4927979</ele>
        <time>2009-05-31T15:11:57Z</time>
      </trkpt>
      <trkpt lat="43.74691" lon="7.25889">
        <ele>463.012085</ele>
        <time>2009-05-31T15:11:59Z</time>
      </trkpt>
      <trkpt lat="43.74685" lon="7.25895">
        <ele>460.1281738</ele>
        <time>2009-05-31T15:12:02Z</time>
      </trkpt>
      <trkpt lat="43.74681" lon="7.25888">
        <ele>457.7249756</ele>
        <time>2009-05-31T15:12:06Z</time>
      </trkpt>
      <trkpt lat="43.74682" lon="7.25874">
        <ele>456.282959</ele>
        <time>2009-05-31T15:12:09Z</time>
      </trkpt>
      <trkpt lat="43.74679" lon="7.2587">
        <ele>456.282959</ele>
        <time>2009-05-31T15:12:10Z</time>
      </trkpt>
      <trkpt lat="43.74657" lon="7.2585">
        <ele>455.3215332</ele>
        <time>2009-05-31T15:12:15Z</time>
      </trkpt>
      <trkpt lat="43.74655" lon="7.25848">
        <ele>455.3215332</ele>
        <time>2009-05-31T15:12:16Z</time>
      </trkpt>
      <trkpt lat="43.74638" lon="7.25857">
        <ele>453.8796387</ele>
        <time>2009-05-31T15:12:21Z</time>
      </trkpt>
      <trkpt lat="43.74633" lon="7.25859">
        <ele>453.8796387</ele>
        <time>2009-05-31T15:12:22Z</time>
      </trkpt>
      <trkpt lat="43.74613" lon="7.2587">
        <ele>452.9182129</ele>
        <time>2009-05-31T15:12:27Z</time>
      </trkpt>
      <trkpt lat="43.74602" lon="7.25875">
        <ele>451.4763184</ele>
        <time>2009-05-31T15:12:31Z</time>
      </trkpt>
      <trkpt lat="43.74591" lon="7.25872">
        <ele>448.5924072</ele>
        <time>2009-05-31T15:12:35Z</time>
      </trkpt>
      <trkpt lat="43.74583" lon="7.25871">
        <ele>445.2276611</ele>
        <time>2009-05-31T15:12:38Z</time>
      </trkpt>
      <trkpt lat="43.74581" lon="7.25871">
        <ele>444.7470703</ele>
        <time>2009-05-31T15:12:39Z</time>
      </trkpt>
      <trkpt lat="43.74573" lon="7.25872">
        <ele>442.8244629</ele>
        <time>2009-05-31T15:12:43Z</time>
      </trkpt>
      <trkpt lat="43.74562" lon="7.2587">
        <ele>440.9018555</ele>
        <time>2009-05-31T15:12:47Z</time>
      </trkpt>
      <trkpt lat="43.74552" lon="7.2587">
        <ele>437.5371094</ele>
        <time>2009-05-31T15:12:51Z</time>
      </trkpt>
      <trkpt lat="43.74551" lon="7.25873">
        <ele>437.5371094</ele>
        <time>2009-05-31T15:12:52Z</time>
      </trkpt>
      <trkpt lat="43.7455" lon="7.25877">
        <ele>436.0952148</ele>
        <time>2009-05-31T15:12:53Z</time>
      </trkpt>
      <trkpt lat="43.74549" lon="7.25884">
        <ele>435.1339111</ele>
        <time>2009-05-31T15:12:55Z</time>
      </trkpt>
      <trkpt lat="43.74548" lon="7.2589">
        <ele>433.6918945</ele>
        <time>2009-05-31T15:12:57Z</time>
      </trkpt>
      <trkpt lat="43.74551" lon="7.2591">
        <ele>428.885376</ele>
        <time>2009-05-31T15:13:02Z</time>
      </trkpt>
      <trkpt lat="43.74551" lon="7.25913">
        <ele>428.885376</ele>
        <time>2009-05-31T15:13:03Z</time>
      </trkpt>
      <trkpt lat="43.7455" lon="7.25916">
        <ele>427.4433594</ele>
        <time>2009-05-31T15:13:05Z</time>
      </trkpt>
      <trkpt lat="43.74549" lon="7.25916">
        <ele>427.4433594</ele>
        <time>2009-05-31T15:13:06Z</time>
      </trkpt>
      <trkpt lat="43.74546" lon="7.25925">
        <ele>425.520752</ele>
        <time>2009-05-31T15:13:11Z</time>
      </trkpt>
      <trkpt lat="43.74545" lon="7.25926">
        <ele>423.5980225</ele>
        <time>2009-05-31T15:13:13Z</time>
      </trkpt>
      <trkpt lat="43.74542" lon="7.25928">
        <ele>423.1174316</ele>
        <time>2009-05-31T15:13:17Z</time>
      </trkpt>
      <trkpt lat="43.74531" lon="7.25936">
        <ele>419.2722168</ele>
        <time>2009-05-31T15:13:22Z</time>
      </trkpt>
      <trkpt lat="43.7453" lon="7.25939">
        <ele>417.8302002</ele>
        <time>2009-05-31T15:13:23Z</time>
      </trkpt>
      <trkpt lat="43.74518" lon="7.25947">
        <ele>412.0622559</ele>
        <time>2009-05-31T15:13:29Z</time>
      </trkpt>
      <trkpt lat="43.74512" lon="7.25947">
        <ele>410.1396484</ele>
        <time>2009-05-31T15:13:31Z</time>
      </trkpt>
      <trkpt lat="43.74507" lon="7.2595">
        <ele>409.6590576</ele>
        <time>2009-05-31T15:13:33Z</time>
      </trkpt>
      <trkpt lat="43.745" lon="7.25951">
        <ele>407.2556152</ele>
        <time>2009-05-31T15:13:36Z</time>
      </trkpt>
      <trkpt lat="43.74498" lon="7.25952">
        <ele>405.8137207</ele>
        <time>2009-05-31T15:13:37Z</time>
      </trkpt>
      <trkpt lat="43.74489" lon="7.25952">
        <ele>403.4104004</ele>
        <time>2009-05-31T15:13:41Z</time>
      </trkpt>
      <trkpt lat="43.74483" lon="7.25956">
        <ele>401.487793</ele>
        <time>2009-05-31T15:13:44Z</time>
      </trkpt>
      <trkpt lat="43.74479" lon="7.25957">
        <ele>400.5264893</ele>
        <time>2009-05-31T15:13:46Z</time>
      </trkpt>
      <trkpt lat="43.74474" lon="7.25959">
        <ele>398.6037598</ele>
        <time>2009-05-31T15:13:48Z</time>
      </trkpt>
      <trkpt lat="43.74469" lon="7.25963">
        <ele>397.1617432</ele>
        <time>2009-05-31T15:13:50Z</time>
      </trkpt>
      <trkpt lat="43.7446" lon="7.25965">
        <ele>394.2779541</ele>
        <time>2009-05-31T15:13:55Z</time>
      </trkpt>
      <trkpt lat="43.74453" lon="7.25967">
        <ele>391.8745117</ele>
        <time>2009-05-31T15:13:58Z</time>
      </trkpt>
      <trkpt lat="43.74449" lon="7.25967">
        <ele>391.8745117</ele>
        <time>2009-05-31T15:13:59Z</time>
      </trkpt>
      <trkpt lat="43.74443" lon="7.25965">
        <ele>389.4711914</ele>
        <time>2009-05-31T15:14:02Z</time>
      </trkpt>
      <trkpt lat="43.74443" lon="7.25967">
        <ele>389.4711914</ele>
        <time>2009-05-31T15:14:03Z</time>
      </trkpt>
      <trkpt lat="43.74449" lon="7.25976">
        <ele>388.5100098</ele>
        <time>2009-05-31T15:14:06Z</time>
      </trkpt>
      <trkpt lat="43.74461" lon="7.25987">
        <ele>386.1066895</ele>
        <time>2009-05-31T15:14:10Z</time>
      </trkpt>
      <trkpt lat="43.74464" lon="7.25997">
        <ele>385.1453857</ele>
        <time>2009-05-31T15:14:12Z</time>
      </trkpt>
      <trkpt lat="43.74466" lon="7.26005">
        <ele>384.6647949</ele>
        <time>2009-05-31T15:14:14Z</time>
      </trkpt>
      <trkpt lat="43.74471" lon="7.26024">
        <ele>382.2613525</ele>
        <time>2009-05-31T15:14:17Z</time>
      </trkpt>
      <trkpt lat="43.74482" lon="7.26059">
        <ele>377.9354248</ele>
        <time>2009-05-31T15:14:22Z</time>
      </trkpt>
      <trkpt lat="43.74487" lon="7.2607">
        <ele>376.9742432</ele>
        <time>2009-05-31T15:14:24Z</time>
      </trkpt>
      <trkpt lat="43.74502" lon="7.26092">
        <ele>373.1289062</ele>
        <time>2009-05-31T15:14:28Z</time>
      </trkpt>
      <trkpt lat="43.74531" lon="7.26125">
        <ele>368.3222656</ele>
        <time>2009-05-31T15:14:33Z</time>
      </trkpt>
      <trkpt lat="43.74547" lon="7.26143">
        <ele>365.9189453</ele>
        <time>2009-05-31T15:14:36Z</time>
      </trkpt>
      <trkpt lat="43.74558" lon="7.26159">
        <ele>362.0737305</ele>
        <time>2009-05-31T15:14:40Z</time>
      </trkpt>
      <trkpt lat="43.74568" lon="7.26169">
        <ele>359.1896973</ele>
        <time>2009-05-31T15:14:44Z</time>
      </trkpt>
      <trkpt lat="43.74567" lon="7.26171">
        <ele>358.7089844</ele>
        <time>2009-05-31T15:14:45Z</time>
      </trkpt>
      <trkpt lat="43.74563" lon="7.26175">
        <ele>356.786377</ele>
        <time>2009-05-31T15:14:49Z</time>
      </trkpt>
      <trkpt lat="43.74564" lon="7.2618">
        <ele>355.8251953</ele>
        <time>2009-05-31T15:14:53Z</time>
      </trkpt>
      <trkpt lat="43.74561" lon="7.26182">
        <ele>354.3831787</ele>
        <time>2009-05-31T15:14:57Z</time>
      </trkpt>
      <trkpt lat="43.74561" lon="7.26186">
        <ele>353.9025879</ele>
        <time>2009-05-31T15:15:01Z</time>
      </trkpt>
      <trkpt lat="43.74556" lon="7.26194">
        <ele>351.0184326</ele>
        <time>2009-05-31T15:15:05Z</time>
      </trkpt>
      <trkpt lat="43.74554" lon="7.26196">
        <ele>351.4991455</ele>
        <time>2009-05-31T15:15:09Z</time>
      </trkpt>
      <trkpt lat="43.74553" lon="7.26198">
        <ele>351.0184326</ele>
        <time>2009-05-31T15:15:15Z</time>
      </trkpt>
      <trkpt lat="43.74548" lon="7.26205">
        <ele>349.0958252</ele>
        <time>2009-05-31T15:15:19Z</time>
      </trkpt>
      <trkpt lat="43.74543" lon="7.26212">
        <ele>347.1732178</ele>
        <time>2009-05-31T15:15:22Z</time>
      </trkpt>
      <trkpt lat="43.74545" lon="7.26215">
        <ele>346.692627</ele>
        <time>2009-05-31T15:15:23Z</time>
      </trkpt>
      <trkpt lat="43.74549" lon="7.2623">
        <ele>343.8085938</ele>
        <time>2009-05-31T15:15:27Z</time>
      </trkpt>
      <trkpt lat="43.74551" lon="7.26233">
        <ele>343.8085938</ele>
        <time>2009-05-31T15:15:28Z</time>
      </trkpt>
      <trkpt lat="43.74557" lon="7.26236">
        <ele>344.2894287</ele>
        <time>2009-05-31T15:15:30Z</time>
      </trkpt>
      <trkpt lat="43.74568" lon="7.26239">
        <ele>342.3666992</ele>
        <time>2009-05-31T15:15:36Z</time>
      </trkpt>
      <trkpt lat="43.74575" lon="7.2625">
        <ele>342.3666992</ele>
        <time>2009-05-31T15:15:38Z</time>
      </trkpt>
      <trkpt lat="43.74578" lon="7.26266">
        <ele>341.4052734</ele>
        <time>2009-05-31T15:15:42Z</time>
      </trkpt>
      <trkpt lat="43.74587" lon="7.26284">
        <ele>338.5214844</ele>
        <time>2009-05-31T15:15:46Z</time>
      </trkpt>
      <trkpt lat="43.74606" lon="7.2629">
        <ele>338.0407715</ele>
        <time>2009-05-31T15:15:50Z</time>
      </trkpt>
      <trkpt lat="43.74633" lon="7.26288">
        <ele>336.598877</ele>
        <time>2009-05-31T15:15:55Z</time>
      </trkpt>
      <trkpt lat="43.74646" lon="7.26289">
        <ele>334.1954346</ele>
        <time>2009-05-31T15:15:58Z</time>
      </trkpt>
      <trkpt lat="43.74647" lon="7.26299">
        <ele>333.2341309</ele>
        <time>2009-05-31T15:16:00Z</time>
      </trkpt>
      <trkpt lat="43.74637" lon="7.26305">
        <ele>330.3502197</ele>
        <time>2009-05-31T15:16:02Z</time>
      </trkpt>
      <trkpt lat="43.74626" lon="7.26324">
        <ele>326.0241699</ele>
        <time>2009-05-31T15:16:06Z</time>
      </trkpt>
      <trkpt lat="43.74639" lon="7.26325">
        <ele>325.0629883</ele>
        <time>2009-05-31T15:16:08Z</time>
      </trkpt>
      <trkpt lat="43.74653" lon="7.26332">
        <ele>322.659668</ele>
        <time>2009-05-31T15:16:11Z</time>
      </trkpt>
      <trkpt lat="43.74647" lon="7.26341">
        <ele>321.2177734</ele>
        <time>2009-05-31T15:16:13Z</time>
      </trkpt>
      <trkpt lat="43.74642" lon="7.26351">
        <ele>317.3724365</ele>
        <time>2009-05-31T15:16:15Z</time>
      </trkpt>
      <trkpt lat="43.74642" lon="7.26361">
        <ele>316.4110107</ele>
        <time>2009-05-31T15:16:17Z</time>
      </trkpt>
      <trkpt lat="43.74651" lon="7.2637">
        <ele>316.4110107</ele>
        <time>2009-05-31T15:16:20Z</time>
      </trkpt>
      <trkpt lat="43.74664" lon="7.26373">
        <ele>316.4110107</ele>
        <time>2009-05-31T15:16:24Z</time>
      </trkpt>
      <trkpt lat="43.74678" lon="7.26379">
        <ele>316.4110107</ele>
        <time>2009-05-31T15:16:28Z</time>
      </trkpt>
      <trkpt lat="43.74682" lon="7.2638">
        <ele>316.8917236</ele>
        <time>2009-05-31T15:16:29Z</time>
      </trkpt>
      <trkpt lat="43.74694" lon="7.26383">
        <ele>316.4110107</ele>
        <time>2009-05-31T15:16:32Z</time>
      </trkpt>
      <trkpt lat="43.74721" lon="7.26379">
        <ele>316.8917236</ele>
        <time>2009-05-31T15:16:38Z</time>
      </trkpt>
      <trkpt lat="43.74761" lon="7.2638">
        <ele>316.4110107</ele>
        <time>2009-05-31T15:16:46Z</time>
      </trkpt>
      <trkpt lat="43.74788" lon="7.2639">
        <ele>317.8530273</ele>
        <time>2009-05-31T15:16:52Z</time>
      </trkpt>
      <trkpt lat="43.74826" lon="7.26408">
        <ele>318.3336182</ele>
        <time>2009-05-31T15:17:01Z</time>
      </trkpt>
      <trkpt lat="43.7486" lon="7.2642">
        <ele>318.8143311</ele>
        <time>2009-05-31T15:17:09Z</time>
      </trkpt>
      <trkpt lat="43.74892" lon="7.26425">
        <ele>318.8143311</ele>
        <time>2009-05-31T15:17:16Z</time>
      </trkpt>
      <trkpt lat="43.74897" lon="7.26426">
        <ele>318.8143311</ele>
        <time>2009-05-31T15:17:17Z</time>
      </trkpt>
      <trkpt lat="43.74918" lon="7.26445">
        <ele>318.8143311</ele>
        <time>2009-05-31T15:17:22Z</time>
      </trkpt>
      <trkpt lat="43.74924" lon="7.26459">
        <ele>318.3336182</ele>
        <time>2009-05-31T15:17:24Z</time>
      </trkpt>
      <trkpt lat="43.74931" lon="7.26474">
        <ele>318.3336182</ele>
        <time>2009-05-31T15:17:26Z</time>
      </trkpt>
      <trkpt lat="43.74938" lon="7.26488">
        <ele>316.8917236</ele>
        <time>2009-05-31T15:17:28Z</time>
      </trkpt>
      <trkpt lat="43.74947" lon="7.26499">
        <ele>316.8917236</ele>
        <time>2009-05-31T15:17:30Z</time>
      </trkpt>
      <trkpt lat="43.74986" lon="7.26531">
        <ele>315.9304199</ele>
        <time>2009-05-31T15:17:37Z</time>
      </trkpt>
      <trkpt lat="43.74992" lon="7.26535">
        <ele>315.9304199</ele>
        <time>2009-05-31T15:17:38Z</time>
      </trkpt>
      <trkpt lat="43.75019" lon="7.26542">
        <ele>313.5272217</ele>
        <time>2009-05-31T15:17:42Z</time>
      </trkpt>
      <trkpt lat="43.7504" lon="7.26542">
        <ele>311.6044922</ele>
        <time>2009-05-31T15:17:46Z</time>
      </trkpt>
      <trkpt lat="43.75045" lon="7.26548">
        <ele>309.6818848</ele>
        <time>2009-05-31T15:17:51Z</time>
      </trkpt>
      <trkpt lat="43.75046" lon="7.2655">
        <ele>309.2011719</ele>
        <time>2009-05-31T15:17:55Z</time>
      </trkpt>
      <trkpt lat="43.75046" lon="7.2655">
        <ele>308.720459</ele>
        <time>2009-05-31T15:17:57Z</time>
      </trkpt>
      <trkpt lat="43.75045" lon="7.26555">
        <ele>306.3172607</ele>
        <time>2009-05-31T15:18:03Z</time>
      </trkpt>
      <trkpt lat="43.7504" lon="7.26562">
        <ele>303.4332275</ele>
        <time>2009-05-31T15:18:09Z</time>
      </trkpt>
      <trkpt lat="43.75039" lon="7.26566">
        <ele>302.4719238</ele>
        <time>2009-05-31T15:18:11Z</time>
      </trkpt>
      <trkpt lat="43.75033" lon="7.26574">
        <ele>300.0687256</ele>
        <time>2009-05-31T15:18:17Z</time>
      </trkpt>
      <trkpt lat="43.75033" lon="7.26575">
        <ele>300.0687256</ele>
        <time>2009-05-31T15:18:18Z</time>
      </trkpt>
      <trkpt lat="43.75031" lon="7.2658">
        <ele>298.626709</ele>
        <time>2009-05-31T15:18:21Z</time>
      </trkpt>
      <trkpt lat="43.75027" lon="7.26582">
        <ele>298.1461182</ele>
        <time>2009-05-31T15:18:27Z</time>
      </trkpt>
      <trkpt lat="43.75025" lon="7.26584">
        <ele>298.1461182</ele>
        <time>2009-05-31T15:18:32Z</time>
      </trkpt>
      <trkpt lat="43.75021" lon="7.26592">
        <ele>296.7041016</ele>
        <time>2009-05-31T15:18:37Z</time>
      </trkpt>
      <trkpt lat="43.75018" lon="7.26597">
        <ele>295.7426758</ele>
        <time>2009-05-31T15:18:39Z</time>
      </trkpt>
      <trkpt lat="43.75011" lon="7.26607">
        <ele>294.3007812</ele>
        <time>2009-05-31T15:18:42Z</time>
      </trkpt>
      <trkpt lat="43.74996" lon="7.26624">
        <ele>291.416748</ele>
        <time>2009-05-31T15:18:47Z</time>
      </trkpt>
      <trkpt lat="43.74994" lon="7.26625">
        <ele>290.9361572</ele>
        <time>2009-05-31T15:18:48Z</time>
      </trkpt>
      <trkpt lat="43.74992" lon="7.26627">
        <ele>290.4555664</ele>
        <time>2009-05-31T15:18:49Z</time>
      </trkpt>
      <trkpt lat="43.74982" lon="7.26639">
        <ele>287.0908203</ele>
        <time>2009-05-31T15:18:53Z</time>
      </trkpt>
      <trkpt lat="43.74969" lon="7.26654">
        <ele>283.7261963</ele>
        <time>2009-05-31T15:18:58Z</time>
      </trkpt>
      <trkpt lat="43.7496" lon="7.26666">
        <ele>280.3616943</ele>
        <time>2009-05-31T15:19:02Z</time>
      </trkpt>
      <trkpt lat="43.74955" lon="7.26678">
        <ele>276.9970703</ele>
        <time>2009-05-31T15:19:06Z</time>
      </trkpt>
      <trkpt lat="43.74954" lon="7.26682">
        <ele>276.0356445</ele>
        <time>2009-05-31T15:19:07Z</time>
      </trkpt>
      <trkpt lat="43.74948" lon="7.26695">
        <ele>270.2677002</ele>
        <time>2009-05-31T15:19:11Z</time>
      </trkpt>
      <trkpt lat="43.74947" lon="7.26701">
        <ele>268.3450928</ele>
        <time>2009-05-31T15:19:13Z</time>
      </trkpt>
      <trkpt lat="43.74945" lon="7.26707">
        <ele>264.0192871</ele>
        <time>2009-05-31T15:19:15Z</time>
      </trkpt>
      <trkpt lat="43.74939" lon="7.26719">
        <ele>260.1739502</ele>
        <time>2009-05-31T15:19:19Z</time>
      </trkpt>
      <trkpt lat="43.74933" lon="7.26731">
        <ele>256.8093262</ele>
        <time>2009-05-31T15:19:23Z</time>
      </trkpt>
      <trkpt lat="43.74928" lon="7.26741">
        <ele>252.9639893</ele>
        <time>2009-05-31T15:19:26Z</time>
      </trkpt>
      <trkpt lat="43.74924" lon="7.26753">
        <ele>249.1187744</ele>
        <time>2009-05-31T15:19:29Z</time>
      </trkpt>
      <trkpt lat="43.7492" lon="7.2676">
        <ele>245.7541504</ele>
        <time>2009-05-31T15:19:31Z</time>
      </trkpt>
      <trkpt lat="43.74919" lon="7.26763">
        <ele>245.7541504</ele>
        <time>2009-05-31T15:19:32Z</time>
      </trkpt>
      <trkpt lat="43.74913" lon="7.26771">
        <ele>241.4282227</ele>
        <time>2009-05-31T15:19:35Z</time>
      </trkpt>
      <trkpt lat="43.7491" lon="7.26778">
        <ele>238.0635986</ele>
        <time>2009-05-31T15:19:37Z</time>
      </trkpt>
      <trkpt lat="43.74907" lon="7.26783">
        <ele>234.2183838</ele>
        <time>2009-05-31T15:19:39Z</time>
      </trkpt>
      <trkpt lat="43.74901" lon="7.26791">
        <ele>230.3730469</ele>
        <time>2009-05-31T15:19:42Z</time>
      </trkpt>
      <trkpt lat="43.74898" lon="7.26794">
        <ele>229.4117432</ele>
        <time>2009-05-31T15:19:43Z</time>
      </trkpt>
      <trkpt lat="43.74892" lon="7.26804">
        <ele>224.1245117</ele>
        <time>2009-05-31T15:19:47Z</time>
      </trkpt>
      <trkpt lat="43.74887" lon="7.26808">
        <ele>222.2017822</ele>
        <time>2009-05-31T15:19:49Z</time>
      </trkpt>
      <trkpt lat="43.74884" lon="7.26813">
        <ele>219.798584</ele>
        <time>2009-05-31T15:19:51Z</time>
      </trkpt>
      <trkpt lat="43.74881" lon="7.26818">
        <ele>217.3953857</ele>
        <time>2009-05-31T15:19:53Z</time>
      </trkpt>
      <trkpt lat="43.74876" lon="7.26826">
        <ele>213.5500488</ele>
        <time>2009-05-31T15:19:56Z</time>
      </trkpt>
      <trkpt lat="43.74875" lon="7.26828">
        <ele>211.6274414</ele>
        <time>2009-05-31T15:19:57Z</time>
      </trkpt>
      <trkpt lat="43.74866" lon="7.26832">
        <ele>207.7821045</ele>
        <time>2009-05-31T15:20:01Z</time>
      </trkpt>
      <trkpt lat="43.7486" lon="7.26834">
        <ele>205.3787842</ele>
        <time>2009-05-31T15:20:03Z</time>
      </trkpt>
      <trkpt lat="43.74859" lon="7.26842">
        <ele>202.9754639</ele>
        <time>2009-05-31T15:20:06Z</time>
      </trkpt>
      <trkpt lat="43.74858" lon="7.26863">
        <ele>201.0528564</ele>
        <time>2009-05-31T15:20:10Z</time>
      </trkpt>
      <trkpt lat="43.74855" lon="7.26875">
        <ele>199.6108398</ele>
        <time>2009-05-31T15:20:12Z</time>
      </trkpt>
      <trkpt lat="43.74854" lon="7.26899">
        <ele>193.3623047</ele>
        <time>2009-05-31T15:20:17Z</time>
      </trkpt>
      <trkpt lat="43.74854" lon="7.26903">
        <ele>192.8817139</ele>
        <time>2009-05-31T15:20:18Z</time>
      </trkpt>
      <trkpt lat="43.74854" lon="7.2691">
        <ele>191.9202881</ele>
        <time>2009-05-31T15:20:20Z</time>
      </trkpt>
      <trkpt lat="43.74852" lon="7.26922">
        <ele>189.9976807</ele>
        <time>2009-05-31T15:20:23Z</time>
      </trkpt>
      <trkpt lat="43.74848" lon="7.26937">
        <ele>188.5557861</ele>
        <time>2009-05-31T15:20:26Z</time>
      </trkpt>
      <trkpt lat="43.74844" lon="7.26956">
        <ele>186.1524658</ele>
        <time>2009-05-31T15:20:30Z</time>
      </trkpt>
      <trkpt lat="43.7484" lon="7.26975">
        <ele>185.6717529</ele>
        <time>2009-05-31T15:20:35Z</time>
      </trkpt>
      <trkpt lat="43.74839" lon="7.26983">
        <ele>184.7105713</ele>
        <time>2009-05-31T15:20:38Z</time>
      </trkpt>
      <trkpt lat="43.74839" lon="7.27005">
        <ele>183.7490234</ele>
        <time>2009-05-31T15:20:44Z</time>
      </trkpt>
      <trkpt lat="43.74838" lon="7.27012">
        <ele>183.2684326</ele>
        <time>2009-05-31T15:20:46Z</time>
      </trkpt>
      <trkpt lat="43.74834" lon="7.27035">
        <ele>181.3458252</ele>
        <time>2009-05-31T15:20:52Z</time>
      </trkpt>
      <trkpt lat="43.74831" lon="7.27055">
        <ele>178.942627</ele>
        <time>2009-05-31T15:20:56Z</time>
      </trkpt>
      <trkpt lat="43.74828" lon="7.27076">
        <ele>178.4619141</ele>
        <time>2009-05-31T15:21:00Z</time>
      </trkpt>
      <trkpt lat="43.74829" lon="7.27081">
        <ele>177.5006104</ele>
        <time>2009-05-31T15:21:01Z</time>
      </trkpt>
      <trkpt lat="43.74825" lon="7.27093">
        <ele>177.0200195</ele>
        <time>2009-05-31T15:21:06Z</time>
      </trkpt>
      <trkpt lat="43.74824" lon="7.27097">
        <ele>177.0200195</ele>
        <time>2009-05-31T15:21:07Z</time>
      </trkpt>
      <trkpt lat="43.74822" lon="7.27107">
        <ele>176.5393066</ele>
        <time>2009-05-31T15:21:12Z</time>
      </trkpt>
      <trkpt lat="43.74823" lon="7.27113">
        <ele>177.9812012</ele>
        <time>2009-05-31T15:21:17Z</time>
      </trkpt>
      <trkpt lat="43.74824" lon="7.27118">
        <ele>177.5006104</ele>
        <time>2009-05-31T15:21:21Z</time>
      </trkpt>
      <trkpt lat="43.74823" lon="7.27132">
        <ele>176.0585938</ele>
        <time>2009-05-31T15:21:25Z</time>
      </trkpt>
      <trkpt lat="43.74819" lon="7.27144">
        <ele>176.5393066</ele>
        <time>2009-05-31T15:21:28Z</time>
      </trkpt>
      <trkpt lat="43.74809" lon="7.27169">
        <ele>176.0585938</ele>
        <time>2009-05-31T15:21:34Z</time>
      </trkpt>
      <trkpt lat="43.74803" lon="7.27188">
        <ele>175.5778809</ele>
        <time>2009-05-31T15:21:38Z</time>
      </trkpt>
      <trkpt lat="43.74799" lon="7.27199">
        <ele>174.6165771</ele>
        <time>2009-05-31T15:21:40Z</time>
      </trkpt>
      <trkpt lat="43.74797" lon="7.27203">
        <ele>174.1358643</ele>
        <time>2009-05-31T15:21:41Z</time>
      </trkpt>
      <trkpt lat="43.74794" lon="7.27209">
        <ele>173.1746826</ele>
        <time>2009-05-31T15:21:45Z</time>
      </trkpt>
      <trkpt lat="43.74787" lon="7.27214">
        <ele>174.6165771</ele>
        <time>2009-05-31T15:21:52Z</time>
      </trkpt>
      <trkpt lat="43.74783" lon="7.27221">
        <ele>176.0585938</ele>
        <time>2009-05-31T15:21:59Z</time>
      </trkpt>
      <trkpt lat="43.74781" lon="7.27227">
        <ele>177.0200195</ele>
        <time>2009-05-31T15:22:05Z</time>
      </trkpt>
      <trkpt lat="43.74777" lon="7.27235">
        <ele>179.4232178</ele>
        <time>2009-05-31T15:22:18Z</time>
      </trkpt>
      <trkpt lat="43.7477" lon="7.2724">
        <ele>180.8652344</ele>
        <time>2009-05-31T15:22:24Z</time>
      </trkpt>
      <trkpt lat="43.74768" lon="7.27241">
        <ele>180.3845215</ele>
        <time>2009-05-31T15:22:26Z</time>
      </trkpt>
      <trkpt lat="43.74762" lon="7.27249">
        <ele>180.8652344</ele>
        <time>2009-05-31T15:22:35Z</time>
      </trkpt>
      <trkpt lat="43.74755" lon="7.27253">
        <ele>181.826416</ele>
        <time>2009-05-31T15:22:42Z</time>
      </trkpt>
      <trkpt lat="43.7475" lon="7.2726">
        <ele>182.7878418</ele>
        <time>2009-05-31T15:22:49Z</time>
      </trkpt>
      <trkpt lat="43.74748" lon="7.27262">
        <ele>182.7878418</ele>
        <time>2009-05-31T15:22:53Z</time>
      </trkpt>
      <trkpt lat="43.7474" lon="7.27275">
        <ele>184.2298584</ele>
        <time>2009-05-31T15:23:02Z</time>
      </trkpt>
      <trkpt lat="43.74734" lon="7.27281">
        <ele>185.6717529</ele>
        <time>2009-05-31T15:23:07Z</time>
      </trkpt>
      <trkpt lat="43.74728" lon="7.2729">
        <ele>185.6717529</ele>
        <time>2009-05-31T15:23:13Z</time>
      </trkpt>
      <trkpt lat="43.74721" lon="7.27295">
        <ele>186.6331787</ele>
        <time>2009-05-31T15:23:17Z</time>
      </trkpt>
      <trkpt lat="43.74715" lon="7.27296">
        <ele>187.1137695</ele>
        <time>2009-05-31T15:23:23Z</time>
      </trkpt>
      <trkpt lat="43.74711" lon="7.27301">
        <ele>189.036377</ele>
        <time>2009-05-31T15:23:28Z</time>
      </trkpt>
      <trkpt lat="43.74706" lon="7.27306">
        <ele>189.036377</ele>
        <time>2009-05-31T15:23:34Z</time>
      </trkpt>
      <trkpt lat="43.74703" lon="7.2731">
        <ele>189.036377</ele>
        <time>2009-05-31T15:23:39Z</time>
      </trkpt>
      <trkpt lat="43.74699" lon="7.27313">
        <ele>188.0750732</ele>
        <time>2009-05-31T15:23:45Z</time>
      </trkpt>
      <trkpt lat="43.74698" lon="7.27316">
        <ele>187.1137695</ele>
        <time>2009-05-31T15:23:47Z</time>
      </trkpt>
      <trkpt lat="43.74696" lon="7.27321">
        <ele>186.6331787</ele>
        <time>2009-05-31T15:23:52Z</time>
      </trkpt>
      <trkpt lat="43.74692" lon="7.27322">
        <ele>186.6331787</ele>
        <time>2009-05-31T15:23:58Z</time>
      </trkpt>
      <trkpt lat="43.7469" lon="7.27322">
        <ele>186.6331787</ele>
        <time>2009-05-31T15:24:07Z</time>
      </trkpt>
      <trkpt lat="43.7469" lon="7.27324">
        <ele>187.1137695</ele>
        <time>2009-05-31T15:24:23Z</time>
      </trkpt>
      <trkpt lat="43.74689" lon="7.27327">
        <ele>187.5943604</ele>
        <time>2009-05-31T15:24:37Z</time>
      </trkpt>
      <trkpt lat="43.74689" lon="7.2733">
        <ele>187.5943604</ele>
        <time>2009-05-31T15:24:42Z</time>
      </trkpt>
      <trkpt lat="43.74692" lon="7.27331">
        <ele>187.1137695</ele>
        <time>2009-05-31T15:24:58Z</time>
      </trkpt>
      <trkpt lat="43.74692" lon="7.27331">
        <ele>187.1137695</ele>
        <time>2009-05-31T15:25:02Z</time>
      </trkpt>
      <trkpt lat="43.74693" lon="7.27332">
        <ele>188.0750732</ele>
        <time>2009-05-31T15:25:03Z</time>
      </trkpt>
      <trkpt lat="43.74699" lon="7.27339">
        <ele>187.5943604</ele>
        <time>2009-05-31T15:25:08Z</time>
      </trkpt>
      <trkpt lat="43.74703" lon="7.27357">
        <ele>187.1137695</ele>
        <time>2009-05-31T15:25:15Z</time>
      </trkpt>
      <trkpt lat="43.747" lon="7.27365">
        <ele>187.1137695</ele>
        <time>2009-05-31T15:25:19Z</time>
      </trkpt>
      <trkpt lat="43.74699" lon="7.27372">
        <ele>187.1137695</ele>
        <time>2009-05-31T15:25:22Z</time>
      </trkpt>
      <trkpt lat="43.74698" lon="7.27373">
        <ele>188.5557861</ele>
        <time>2009-05-31T15:25:28Z</time>
      </trkpt>
      <trkpt lat="43.74696" lon="7.27377">
        <ele>189.036377</ele>
        <time>2009-05-31T15:25:34Z</time>
      </trkpt>
      <trkpt lat="43.74693" lon="7.27384">
        <ele>189.9976807</ele>
        <time>2009-05-31T15:25:39Z</time>
      </trkpt>
      <trkpt lat="43.74691" lon="7.27391">
        <ele>190.4783936</ele>
        <time>2009-05-31T15:25:45Z</time>
      </trkpt>
      <trkpt lat="43.74686" lon="7.27397">
        <ele>190.4783936</ele>
        <time>2009-05-31T15:25:50Z</time>
      </trkpt>
      <trkpt lat="43.74682" lon="7.27408">
        <ele>192.401123</ele>
        <time>2009-05-31T15:25:58Z</time>
      </trkpt>
      <trkpt lat="43.74681" lon="7.27411">
        <ele>193.3623047</ele>
        <time>2009-05-31T15:26:04Z</time>
      </trkpt>
      <trkpt lat="43.74681" lon="7.27412">
        <ele>192.401123</ele>
        <time>2009-05-31T15:26:13Z</time>
      </trkpt>
      <trkpt lat="43.74682" lon="7.27415">
        <ele>192.401123</ele>
        <time>2009-05-31T15:26:27Z</time>
      </trkpt>
      <trkpt lat="43.74678" lon="7.27419">
        <ele>193.3623047</ele>
        <time>2009-05-31T15:26:31Z</time>
      </trkpt>
      <trkpt lat="43.74671" lon="7.27427">
        <ele>194.3237305</ele>
        <time>2009-05-31T15:26:39Z</time>
      </trkpt>
      <trkpt lat="43.74663" lon="7.27438">
        <ele>193.3623047</ele>
        <time>2009-05-31T15:26:44Z</time>
      </trkpt>
      <trkpt lat="43.74661" lon="7.27454">
        <ele>192.401123</ele>
        <time>2009-05-31T15:26:48Z</time>
      </trkpt>
      <trkpt lat="43.74656" lon="7.27471">
        <ele>192.401123</ele>
        <time>2009-05-31T15:26:53Z</time>
      </trkpt>
      <trkpt lat="43.7465" lon="7.27486">
        <ele>192.401123</ele>
        <time>2009-05-31T15:26:57Z</time>
      </trkpt>
      <trkpt lat="43.7464" lon="7.27504">
        <ele>192.401123</ele>
        <time>2009-05-31T15:27:02Z</time>
      </trkpt>
      <trkpt lat="43.7463" lon="7.27519">
        <ele>193.8430176</ele>
        <time>2009-05-31T15:27:07Z</time>
      </trkpt>
      <trkpt lat="43.7462" lon="7.27534">
        <ele>194.3237305</ele>
        <time>2009-05-31T15:27:13Z</time>
      </trkpt>
      <trkpt lat="43.74605" lon="7.27553">
        <ele>195.2849121</ele>
        <time>2009-05-31T15:27:20Z</time>
      </trkpt>
      <trkpt lat="43.74598" lon="7.27563">
        <ele>194.8043213</ele>
        <time>2009-05-31T15:27:25Z</time>
      </trkpt>
      <trkpt lat="43.74597" lon="7.27564">
        <ele>194.8043213</ele>
        <time>2009-05-31T15:27:32Z</time>
      </trkpt>
      <trkpt lat="43.74595" lon="7.27574">
        <ele>194.8043213</ele>
        <time>2009-05-31T15:27:36Z</time>
      </trkpt>
      <trkpt lat="43.74592" lon="7.27592">
        <ele>193.3623047</ele>
        <time>2009-05-31T15:27:40Z</time>
      </trkpt>
      <trkpt lat="43.74583" lon="7.27608">
        <ele>193.8430176</ele>
        <time>2009-05-31T15:27:45Z</time>
      </trkpt>
      <trkpt lat="43.74578" lon="7.27618">
        <ele>194.8043213</ele>
        <time>2009-05-31T15:27:50Z</time>
      </trkpt>
      <trkpt lat="43.74577" lon="7.27623">
        <ele>195.2849121</ele>
        <time>2009-05-31T15:27:56Z</time>
      </trkpt>
      <trkpt lat="43.74573" lon="7.27629">
        <ele>194.8043213</ele>
        <time>2009-05-31T15:28:03Z</time>
      </trkpt>
      <trkpt lat="43.74562" lon="7.27639">
        <ele>195.765625</ele>
        <time>2009-05-31T15:28:08Z</time>
      </trkpt>
      <trkpt lat="43.74547" lon="7.27645">
        <ele>196.2463379</ele>
        <time>2009-05-31T15:28:14Z</time>
      </trkpt>
      <trkpt lat="43.74537" lon="7.27638">
        <ele>197.2075195</ele>
        <time>2009-05-31T15:28:19Z</time>
      </trkpt>
      <trkpt lat="43.74524" lon="7.27629">
        <ele>198.1689453</ele>
        <time>2009-05-31T15:28:26Z</time>
      </trkpt>
      <trkpt lat="43.74515" lon="7.2763">
        <ele>198.6495361</ele>
        <time>2009-05-31T15:28:30Z</time>
      </trkpt>
      <trkpt lat="43.74502" lon="7.2764">
        <ele>199.130127</ele>
        <time>2009-05-31T15:28:36Z</time>
      </trkpt>
      <trkpt lat="43.74489" lon="7.27642">
        <ele>200.0916748</ele>
        <time>2009-05-31T15:28:41Z</time>
      </trkpt>
      <trkpt lat="43.74477" lon="7.27646">
        <ele>201.5335693</ele>
        <time>2009-05-31T15:28:46Z</time>
      </trkpt>
      <trkpt lat="43.74474" lon="7.27649">
        <ele>201.5335693</ele>
        <time>2009-05-31T15:28:48Z</time>
      </trkpt>
      <trkpt lat="43.74473" lon="7.27661">
        <ele>202.9754639</ele>
        <time>2009-05-31T15:28:53Z</time>
      </trkpt>
      <trkpt lat="43.74474" lon="7.27669">
        <ele>204.4174805</ele>
        <time>2009-05-31T15:28:57Z</time>
      </trkpt>
      <trkpt lat="43.74471" lon="7.27691">
        <ele>206.3400879</ele>
        <time>2009-05-31T15:29:05Z</time>
      </trkpt>
      <trkpt lat="43.74465" lon="7.27702">
        <ele>207.3013916</ele>
        <time>2009-05-31T15:29:10Z</time>
      </trkpt>
      <trkpt lat="43.74459" lon="7.27712">
        <ele>208.2628174</ele>
        <time>2009-05-31T15:29:15Z</time>
      </trkpt>
      <trkpt lat="43.7445" lon="7.27722">
        <ele>210.6660156</ele>
        <time>2009-05-31T15:29:22Z</time>
      </trkpt>
      <trkpt lat="43.74448" lon="7.27724">
        <ele>210.6660156</ele>
        <time>2009-05-31T15:29:23Z</time>
      </trkpt>
      <trkpt lat="43.74443" lon="7.2773">
        <ele>211.6274414</ele>
        <time>2009-05-31T15:29:28Z</time>
      </trkpt>
      <trkpt lat="43.7444" lon="7.2774">
        <ele>210.1854248</ele>
        <time>2009-05-31T15:29:31Z</time>
      </trkpt>
      <trkpt lat="43.7444" lon="7.2775">
        <ele>207.3013916</ele>
        <time>2009-05-31T15:29:34Z</time>
      </trkpt>
      <trkpt lat="43.74442" lon="7.27764">
        <ele>203.9368896</ele>
        <time>2009-05-31T15:29:38Z</time>
      </trkpt>
      <trkpt lat="43.74443" lon="7.27767">
        <ele>203.9368896</ele>
        <time>2009-05-31T15:29:39Z</time>
      </trkpt>
      <trkpt lat="43.74443" lon="7.27778">
        <ele>201.0528564</ele>
        <time>2009-05-31T15:29:42Z</time>
      </trkpt>
      <trkpt lat="43.74445" lon="7.27784">
        <ele>200.0916748</ele>
        <time>2009-05-31T15:29:45Z</time>
      </trkpt>
      <trkpt lat="43.74449" lon="7.27793">
        <ele>197.6882324</ele>
        <time>2009-05-31T15:29:48Z</time>
      </trkpt>
      <trkpt lat="43.74449" lon="7.27796">
        <ele>197.6882324</ele>
        <time>2009-05-31T15:29:49Z</time>
      </trkpt>
      <trkpt lat="43.7445" lon="7.27807">
        <ele>195.2849121</ele>
        <time>2009-05-31T15:29:52Z</time>
      </trkpt>
      <trkpt lat="43.74456" lon="7.27817">
        <ele>192.8817139</ele>
        <time>2009-05-31T15:29:56Z</time>
      </trkpt>
      <trkpt lat="43.74459" lon="7.2783">
        <ele>189.036377</ele>
        <time>2009-05-31T15:30:01Z</time>
      </trkpt>
      <trkpt lat="43.74461" lon="7.27839">
        <ele>184.7105713</ele>
        <time>2009-05-31T15:30:05Z</time>
      </trkpt>
      <trkpt lat="43.74462" lon="7.27841">
        <ele>184.2298584</ele>
        <time>2009-05-31T15:30:06Z</time>
      </trkpt>
      <trkpt lat="43.74462" lon="7.27845">
        <ele>184.2298584</ele>
        <time>2009-05-31T15:30:08Z</time>
      </trkpt>
      <trkpt lat="43.74455" lon="7.27856">
        <ele>183.7490234</ele>
        <time>2009-05-31T15:30:14Z</time>
      </trkpt>
      <trkpt lat="43.74452" lon="7.27864">
        <ele>183.2684326</ele>
        <time>2009-05-31T15:30:18Z</time>
      </trkpt>
      <trkpt lat="43.74445" lon="7.27872">
        <ele>183.7490234</ele>
        <time>2009-05-31T15:30:22Z</time>
      </trkpt>
      <trkpt lat="43.74437" lon="7.27874">
        <ele>183.2684326</ele>
        <time>2009-05-31T15:30:27Z</time>
      </trkpt>
      <trkpt lat="43.74434" lon="7.2787">
        <ele>183.2684326</ele>
        <time>2009-05-31T15:30:30Z</time>
      </trkpt>
      <trkpt lat="43.7443" lon="7.27866">
        <ele>183.7490234</ele>
        <time>2009-05-31T15:30:32Z</time>
      </trkpt>
      <trkpt lat="43.74418" lon="7.27866">
        <ele>182.7878418</ele>
        <time>2009-05-31T15:30:37Z</time>
      </trkpt>
      <trkpt lat="43.74413" lon="7.27864">
        <ele>183.2684326</ele>
        <time>2009-05-31T15:30:39Z</time>
      </trkpt>
      <trkpt lat="43.74407" lon="7.27864">
        <ele>182.7878418</ele>
        <time>2009-05-31T15:30:44Z</time>
      </trkpt>
      <trkpt lat="43.74404" lon="7.27864">
        <ele>182.3071289</ele>
        <time>2009-05-31T15:30:51Z</time>
      </trkpt>
      <trkpt lat="43.74402" lon="7.27864">
        <ele>180.8652344</ele>
        <time>2009-05-31T15:30:53Z</time>
      </trkpt>
      <trkpt lat="43.74398" lon="7.27864">
        <ele>180.8652344</ele>
        <time>2009-05-31T15:30:57Z</time>
      </trkpt>
      <trkpt lat="43.74394" lon="7.27865">
        <ele>180.3845215</ele>
        <time>2009-05-31T15:31:03Z</time>
      </trkpt>
      <trkpt lat="43.74393" lon="7.27868">
        <ele>179.4232178</ele>
        <time>2009-05-31T15:31:09Z</time>
      </trkpt>
      <trkpt lat="43.7439" lon="7.27871">
        <ele>177.5006104</ele>
        <time>2009-05-31T15:31:13Z</time>
      </trkpt>
      <trkpt lat="43.74389" lon="7.27872">
        <ele>176.0585938</ele>
        <time>2009-05-31T15:31:16Z</time>
      </trkpt>
      <trkpt lat="43.74383" lon="7.27872">
        <ele>174.1358643</ele>
        <time>2009-05-31T15:31:21Z</time>
      </trkpt>
      <trkpt lat="43.74382" lon="7.27873">
        <ele>174.1358643</ele>
        <time>2009-05-31T15:31:22Z</time>
      </trkpt>
      <trkpt lat="43.74376" lon="7.27878">
        <ele>170.2906494</ele>
        <time>2009-05-31T15:31:25Z</time>
      </trkpt>
      <trkpt lat="43.74374" lon="7.27881">
        <ele>170.2906494</ele>
        <time>2009-05-31T15:31:28Z</time>
      </trkpt>
      <trkpt lat="43.74372" lon="7.27884">
        <ele>171.732666</ele>
        <time>2009-05-31T15:31:33Z</time>
      </trkpt>
      <trkpt lat="43.74371" lon="7.27884">
        <ele>171.2520752</ele>
        <time>2009-05-31T15:31:34Z</time>
      </trkpt>
      <trkpt lat="43.7437" lon="7.27888">
        <ele>171.2520752</ele>
        <time>2009-05-31T15:31:39Z</time>
      </trkpt>
      <trkpt lat="43.74368" lon="7.27895">
        <ele>170.7713623</ele>
        <time>2009-05-31T15:31:45Z</time>
      </trkpt>
      <trkpt lat="43.74366" lon="7.27897">
        <ele>171.2520752</ele>
        <time>2009-05-31T15:31:51Z</time>
      </trkpt>
      <trkpt lat="43.74366" lon="7.27897">
        <ele>171.2520752</ele>
        <time>2009-05-31T15:31:52Z</time>
      </trkpt>
      <trkpt lat="43.74366" lon="7.27899">
        <ele>171.2520752</ele>
        <time>2009-05-31T15:32:00Z</time>
      </trkpt>
      <trkpt lat="43.74364" lon="7.27902">
        <ele>172.2132568</ele>
        <time>2009-05-31T15:32:06Z</time>
      </trkpt>
      <trkpt lat="43.74362" lon="7.27906">
        <ele>171.2520752</ele>
        <time>2009-05-31T15:32:11Z</time>
      </trkpt>
      <trkpt lat="43.74358" lon="7.27918">
        <ele>171.2520752</ele>
        <time>2009-05-31T15:32:16Z</time>
      </trkpt>
      <trkpt lat="43.74352" lon="7.27927">
        <ele>170.7713623</ele>
        <time>2009-05-31T15:32:21Z</time>
      </trkpt>
      <trkpt lat="43.74349" lon="7.27928">
        <ele>172.6939697</ele>
        <time>2009-05-31T15:32:24Z</time>
      </trkpt>
      <trkpt lat="43.74339" lon="7.2794">
        <ele>173.1746826</ele>
        <time>2009-05-31T15:32:31Z</time>
      </trkpt>
      <trkpt lat="43.74334" lon="7.27951">
        <ele>172.6939697</ele>
        <time>2009-05-31T15:32:37Z</time>
      </trkpt>
      <trkpt lat="43.74335" lon="7.27958">
        <ele>171.732666</ele>
        <time>2009-05-31T15:32:42Z</time>
      </trkpt>
      <trkpt lat="43.74334" lon="7.2796">
        <ele>172.2132568</ele>
        <time>2009-05-31T15:32:47Z</time>
      </trkpt>
      <trkpt lat="43.74336" lon="7.27966">
        <ele>169.8100586</ele>
        <time>2009-05-31T15:32:53Z</time>
      </trkpt>
      <trkpt lat="43.74338" lon="7.27968">
        <ele>168.8487549</ele>
        <time>2009-05-31T15:32:58Z</time>
      </trkpt>
      <trkpt lat="43.7434" lon="7.27973">
        <ele>167.4067383</ele>
        <time>2009-05-31T15:33:05Z</time>
      </trkpt>
      <trkpt lat="43.74342" lon="7.27978">
        <ele>164.5227051</ele>
        <time>2009-05-31T15:33:12Z</time>
      </trkpt>
      <trkpt lat="43.74343" lon="7.27981">
        <ele>163.0808105</ele>
        <time>2009-05-31T15:33:15Z</time>
      </trkpt>
      <trkpt lat="43.74344" lon="7.27984">
        <ele>162.1195068</ele>
        <time>2009-05-31T15:33:17Z</time>
      </trkpt>
      <trkpt lat="43.74344" lon="7.27987">
        <ele>160.6774902</ele>
        <time>2009-05-31T15:33:20Z</time>
      </trkpt>
      <trkpt lat="43.74344" lon="7.27987">
        <ele>160.1968994</ele>
        <time>2009-05-31T15:33:22Z</time>
      </trkpt>
      <trkpt lat="43.74342" lon="7.28005">
        <ele>157.3128662</ele>
        <time>2009-05-31T15:33:28Z</time>
      </trkpt>
      <trkpt lat="43.74336" lon="7.28014">
        <ele>156.8321533</ele>
        <time>2009-05-31T15:33:32Z</time>
      </trkpt>
      <trkpt lat="43.74326" lon="7.2803">
        <ele>158.2741699</ele>
        <time>2009-05-31T15:33:39Z</time>
      </trkpt>
      <trkpt lat="43.74315" lon="7.28047">
        <ele>159.2354736</ele>
        <time>2009-05-31T15:33:47Z</time>
      </trkpt>
      <trkpt lat="43.74306" lon="7.28061">
        <ele>162.6000977</ele>
        <time>2009-05-31T15:33:54Z</time>
      </trkpt>
      <trkpt lat="43.74302" lon="7.2807">
        <ele>163.5615234</ele>
        <time>2009-05-31T15:34:01Z</time>
      </trkpt>
      <trkpt lat="43.74299" lon="7.28075">
        <ele>164.0421143</ele>
        <time>2009-05-31T15:34:07Z</time>
      </trkpt>
      <trkpt lat="43.74297" lon="7.28082">
        <ele>165.9647217</ele>
        <time>2009-05-31T15:34:13Z</time>
      </trkpt>
      <trkpt lat="43.74296" lon="7.28088">
        <ele>166.4453125</ele>
        <time>2009-05-31T15:34:19Z</time>
      </trkpt>
      <trkpt lat="43.74296" lon="7.28088">
        <ele>165.9647217</ele>
        <time>2009-05-31T15:34:21Z</time>
      </trkpt>
      <trkpt lat="43.74297" lon="7.28102">
        <ele>165.9647217</ele>
        <time>2009-05-31T15:34:27Z</time>
      </trkpt>
      <trkpt lat="43.74298" lon="7.28117">
        <ele>165.4841309</ele>
        <time>2009-05-31T15:34:32Z</time>
      </trkpt>
      <trkpt lat="43.74288" lon="7.28135">
        <ele>164.0421143</ele>
        <time>2009-05-31T15:34:37Z</time>
      </trkpt>
      <trkpt lat="43.74284" lon="7.28143">
        <ele>162.6000977</ele>
        <time>2009-05-31T15:34:39Z</time>
      </trkpt>
      <trkpt lat="43.7428" lon="7.2815">
        <ele>162.1195068</ele>
        <time>2009-05-31T15:34:41Z</time>
      </trkpt>
      <trkpt lat="43.74277" lon="7.28161">
        <ele>161.1582031</ele>
        <time>2009-05-31T15:34:43Z</time>
      </trkpt>
      <trkpt lat="43.7427" lon="7.28182">
        <ele>157.3128662</ele>
        <time>2009-05-31T15:34:47Z</time>
      </trkpt>
      <trkpt lat="43.74268" lon="7.28187">
        <ele>156.8321533</ele>
        <time>2009-05-31T15:34:48Z</time>
      </trkpt>
      <trkpt lat="43.74259" lon="7.28208">
        <ele>152.9869385</ele>
        <time>2009-05-31T15:34:52Z</time>
      </trkpt>
      <trkpt lat="43.74257" lon="7.28214">
        <ele>152.5063477</ele>
        <time>2009-05-31T15:34:53Z</time>
      </trkpt>
      <trkpt lat="43.74252" lon="7.28224">
        <ele>151.5449219</ele>
        <time>2009-05-31T15:34:55Z</time>
      </trkpt>
      <trkpt lat="43.74242" lon="7.28251">
        <ele>146.7384033</ele>
        <time>2009-05-31T15:35:00Z</time>
      </trkpt>
      <trkpt lat="43.7424" lon="7.28257">
        <ele>147.2189941</ele>
        <time>2009-05-31T15:35:01Z</time>
      </trkpt>
      <trkpt lat="43.74238" lon="7.28263">
        <ele>147.2189941</ele>
        <time>2009-05-31T15:35:02Z</time>
      </trkpt>
      <trkpt lat="43.74231" lon="7.28279">
        <ele>147.2189941</ele>
        <time>2009-05-31T15:35:05Z</time>
      </trkpt>
      <trkpt lat="43.74218" lon="7.28297">
        <ele>146.2578125</ele>
        <time>2009-05-31T15:35:10Z</time>
      </trkpt>
      <trkpt lat="43.74215" lon="7.28307">
        <ele>144.8157959</ele>
        <time>2009-05-31T15:35:13Z</time>
      </trkpt>
      <trkpt lat="43.74209" lon="7.2832">
        <ele>142.4124756</ele>
        <time>2009-05-31T15:35:17Z</time>
      </trkpt>
      <trkpt lat="43.74203" lon="7.28326">
        <ele>140.970459</ele>
        <time>2009-05-31T15:35:19Z</time>
      </trkpt>
      <trkpt lat="43.74181" lon="7.28347">
        <ele>139.5284424</ele>
        <time>2009-05-31T15:35:23Z</time>
      </trkpt>
      <trkpt lat="43.74167" lon="7.28363">
        <ele>138.5672607</ele>
        <time>2009-05-31T15:35:27Z</time>
      </trkpt>
      <trkpt lat="43.74165" lon="7.28381">
        <ele>136.1639404</ele>
        <time>2009-05-31T15:35:31Z</time>
      </trkpt>
      <trkpt lat="43.74167" lon="7.28393">
        <ele>135.2025146</ele>
        <time>2009-05-31T15:35:34Z</time>
      </trkpt>
      <trkpt lat="43.7417" lon="7.28399">
        <ele>133.2799072</ele>
        <time>2009-05-31T15:35:36Z</time>
      </trkpt>
      <trkpt lat="43.74166" lon="7.2841">
        <ele>129.4346924</ele>
        <time>2009-05-31T15:35:39Z</time>
      </trkpt>
      <trkpt lat="43.74164" lon="7.28413">
        <ele>129.9152832</ele>
        <time>2009-05-31T15:35:40Z</time>
      </trkpt>
      <trkpt lat="43.74162" lon="7.28416">
        <ele>128.9541016</ele>
        <time>2009-05-31T15:35:41Z</time>
      </trkpt>
      <trkpt lat="43.74156" lon="7.28427">
        <ele>127.0313721</ele>
        <time>2009-05-31T15:35:44Z</time>
      </trkpt>
      <trkpt lat="43.74144" lon="7.28458">
        <ele>124.1473389</ele>
        <time>2009-05-31T15:35:50Z</time>
      </trkpt>
      <trkpt lat="43.74141" lon="7.28464">
        <ele>124.1473389</ele>
        <time>2009-05-31T15:35:51Z</time>
      </trkpt>
      <trkpt lat="43.74129" lon="7.28483">
        <ele>123.1861572</ele>
        <time>2009-05-31T15:35:55Z</time>
      </trkpt>
      <trkpt lat="43.74123" lon="7.28499">
        <ele>122.2247314</ele>
        <time>2009-05-31T15:35:59Z</time>
      </trkpt>
      <trkpt lat="43.74122" lon="7.28505">
        <ele>120.7828369</ele>
        <time>2009-05-31T15:36:00Z</time>
      </trkpt>
      <trkpt lat="43.74119" lon="7.28526">
        <ele>116.9375</ele>
        <time>2009-05-31T15:36:04Z</time>
      </trkpt>
      <trkpt lat="43.74104" lon="7.28532">
        <ele>114.5341797</ele>
        <time>2009-05-31T15:36:09Z</time>
      </trkpt>
      <trkpt lat="43.74101" lon="7.28533">
        <ele>113.572998</ele>
        <time>2009-05-31T15:36:10Z</time>
      </trkpt>
      <trkpt lat="43.7409" lon="7.28535">
        <ele>110.6888428</ele>
        <time>2009-05-31T15:36:13Z</time>
      </trkpt>
      <trkpt lat="43.74076" lon="7.28537">
        <ele>107.3243408</ele>
        <time>2009-05-31T15:36:18Z</time>
      </trkpt>
      <trkpt lat="43.74068" lon="7.28538">
        <ele>105.8824463</ele>
        <time>2009-05-31T15:36:22Z</time>
      </trkpt>
      <trkpt lat="43.74065" lon="7.2854">
        <ele>102.5177002</ele>
        <time>2009-05-31T15:36:25Z</time>
      </trkpt>
      <trkpt lat="43.74065" lon="7.28543">
        <ele>102.0371094</ele>
        <time>2009-05-31T15:36:26Z</time>
      </trkpt>
      <trkpt lat="43.74065" lon="7.28555">
        <ele>98.6724854</ele>
        <time>2009-05-31T15:36:29Z</time>
      </trkpt>
      <trkpt lat="43.74068" lon="7.28566">
        <ele>95.3077393</ele>
        <time>2009-05-31T15:36:33Z</time>
      </trkpt>
      <trkpt lat="43.74064" lon="7.28574">
        <ele>91.4625244</ele>
        <time>2009-05-31T15:36:38Z</time>
      </trkpt>
      <trkpt lat="43.74058" lon="7.28579">
        <ele>89.0593262</ele>
        <time>2009-05-31T15:36:42Z</time>
      </trkpt>
      <trkpt lat="43.74058" lon="7.2858">
        <ele>89.0593262</ele>
        <time>2009-05-31T15:36:43Z</time>
      </trkpt>
      <trkpt lat="43.74059" lon="7.28583">
        <ele>87.6171875</ele>
        <time>2009-05-31T15:36:47Z</time>
      </trkpt>
      <trkpt lat="43.74062" lon="7.28586">
        <ele>86.6560059</ele>
        <time>2009-05-31T15:36:50Z</time>
      </trkpt>
      <trkpt lat="43.74071" lon="7.28595">
        <ele>83.7719727</ele>
        <time>2009-05-31T15:36:56Z</time>
      </trkpt>
      <trkpt lat="43.74065" lon="7.28597">
        <ele>82.810791</ele>
        <time>2009-05-31T15:36:58Z</time>
      </trkpt>
      <trkpt lat="43.74062" lon="7.28599">
        <ele>81.8493652</ele>
        <time>2009-05-31T15:36:59Z</time>
      </trkpt>
      <trkpt lat="43.74048" lon="7.28617">
        <ele>77.0428467</ele>
        <time>2009-05-31T15:37:04Z</time>
      </trkpt>
      <trkpt lat="43.74036" lon="7.2864">
        <ele>73.6782227</ele>
        <time>2009-05-31T15:37:08Z</time>
      </trkpt>
      <trkpt lat="43.74027" lon="7.2865">
        <ele>72.7169189</ele>
        <time>2009-05-31T15:37:10Z</time>
      </trkpt>
      <trkpt lat="43.74004" lon="7.28687">
        <ele>70.3134766</ele>
        <time>2009-05-31T15:37:16Z</time>
      </trkpt>
      <trkpt lat="43.74001" lon="7.28695">
        <ele>69.8328857</ele>
        <time>2009-05-31T15:37:17Z</time>
      </trkpt>
      <trkpt lat="43.73995" lon="7.28708">
        <ele>69.3522949</ele>
        <time>2009-05-31T15:37:19Z</time>
      </trkpt>
      <trkpt lat="43.73978" lon="7.28715">
        <ele>68.871582</ele>
        <time>2009-05-31T15:37:23Z</time>
      </trkpt>
      <trkpt lat="43.73973" lon="7.28714">
        <ele>68.871582</ele>
        <time>2009-05-31T15:37:24Z</time>
      </trkpt>
      <trkpt lat="43.73964" lon="7.28713">
        <ele>68.871582</ele>
        <time>2009-05-31T15:37:26Z</time>
      </trkpt>
      <trkpt lat="43.73948" lon="7.28725">
        <ele>68.871582</ele>
        <time>2009-05-31T15:37:30Z</time>
      </trkpt>
      <trkpt lat="43.73934" lon="7.28743">
        <ele>68.3908691</ele>
        <time>2009-05-31T15:37:33Z</time>
      </trkpt>
      <trkpt lat="43.73915" lon="7.28742">
        <ele>68.871582</ele>
        <time>2009-05-31T15:37:36Z</time>
      </trkpt>
      <trkpt lat="43.73867" lon="7.28724">
        <ele>67.9102783</ele>
        <time>2009-05-31T15:37:43Z</time>
      </trkpt>
      <trkpt lat="43.73828" lon="7.28709">
        <ele>66.4682617</ele>
        <time>2009-05-31T15:37:49Z</time>
      </trkpt>
      <trkpt lat="43.73783" lon="7.28715">
        <ele>65.5070801</ele>
        <time>2009-05-31T15:37:56Z</time>
      </trkpt>
      <trkpt lat="43.73757" lon="7.28708">
        <ele>65.5070801</ele>
        <time>2009-05-31T15:38:00Z</time>
      </trkpt>
      <trkpt lat="43.73738" lon="7.28705">
        <ele>64.0650635</ele>
        <time>2009-05-31T15:38:03Z</time>
      </trkpt>
      <trkpt lat="43.73731" lon="7.28705">
        <ele>64.5456543</ele>
        <time>2009-05-31T15:38:04Z</time>
      </trkpt>
      <trkpt lat="43.7369" lon="7.28712">
        <ele>63.5843506</ele>
        <time>2009-05-31T15:38:10Z</time>
      </trkpt>
      <trkpt lat="43.73644" lon="7.28734">
        <ele>62.142334</ele>
        <time>2009-05-31T15:38:17Z</time>
      </trkpt>
      <trkpt lat="43.7361" lon="7.28753">
        <ele>61.6617432</ele>
        <time>2009-05-31T15:38:22Z</time>
      </trkpt>
      <trkpt lat="43.73583" lon="7.28773">
        <ele>62.6229248</ele>
        <time>2009-05-31T15:38:26Z</time>
      </trkpt>
      <trkpt lat="43.73571" lon="7.2878">
        <ele>63.5843506</ele>
        <time>2009-05-31T15:38:28Z</time>
      </trkpt>
      <trkpt lat="43.73554" lon="7.28788">
        <ele>63.1036377</ele>
        <time>2009-05-31T15:38:31Z</time>
      </trkpt>
      <trkpt lat="43.73537" lon="7.28792">
        <ele>62.6229248</ele>
        <time>2009-05-31T15:38:34Z</time>
      </trkpt>
      <trkpt lat="43.73514" lon="7.28793">
        <ele>62.6229248</ele>
        <time>2009-05-31T15:38:38Z</time>
      </trkpt>
      <trkpt lat="43.73476" lon="7.28777">
        <ele>61.6617432</ele>
        <time>2009-05-31T15:38:45Z</time>
      </trkpt>
      <trkpt lat="43.73465" lon="7.2877">
        <ele>61.1810303</ele>
        <time>2009-05-31T15:38:47Z</time>
      </trkpt>
      <trkpt lat="43.73451" lon="7.28755">
        <ele>61.1810303</ele>
        <time>2009-05-31T15:38:50Z</time>
      </trkpt>
      <trkpt lat="43.7344" lon="7.28737">
        <ele>60.2197266</ele>
        <time>2009-05-31T15:38:54Z</time>
      </trkpt>
      <trkpt lat="43.73435" lon="7.28729">
        <ele>58.2971191</ele>
        <time>2009-05-31T15:38:56Z</time>
      </trkpt>
      <trkpt lat="43.7343" lon="7.28713">
        <ele>57.3358154</ele>
        <time>2009-05-31T15:39:00Z</time>
      </trkpt>
      <trkpt lat="43.73426" lon="7.28699">
        <ele>57.3358154</ele>
        <time>2009-05-31T15:39:05Z</time>
      </trkpt>
      <trkpt lat="43.73422" lon="7.28688">
        <ele>57.3358154</ele>
        <time>2009-05-31T15:39:11Z</time>
      </trkpt>
      <trkpt lat="43.73417" lon="7.28672">
        <ele>58.77771</ele>
        <time>2009-05-31T15:39:18Z</time>
      </trkpt>
      <trkpt lat="43.73414" lon="7.28659">
        <ele>57.8165283</ele>
        <time>2009-05-31T15:39:24Z</time>
      </trkpt>
      <trkpt lat="43.73409" lon="7.28639">
        <ele>57.3358154</ele>
        <time>2009-05-31T15:39:29Z</time>
      </trkpt>
      <trkpt lat="43.73404" lon="7.28621">
        <ele>57.8165283</ele>
        <time>2009-05-31T15:39:34Z</time>
      </trkpt>
      <trkpt lat="43.73398" lon="7.28613">
        <ele>56.3745117</ele>
        <time>2009-05-31T15:39:38Z</time>
      </trkpt>
      <trkpt lat="43.73395" lon="7.2861">
        <ele>55.8937988</ele>
        <time>2009-05-31T15:39:43Z</time>
      </trkpt>
      <trkpt lat="43.73391" lon="7.28607">
        <ele>55.4130859</ele>
        <time>2009-05-31T15:39:48Z</time>
      </trkpt>
      <trkpt lat="43.73389" lon="7.286">
        <ele>55.8937988</ele>
        <time>2009-05-31T15:39:55Z</time>
      </trkpt>
      <trkpt lat="43.73388" lon="7.2859">
        <ele>55.8937988</ele>
        <time>2009-05-31T15:39:59Z</time>
      </trkpt>
      <trkpt lat="43.73377" lon="7.28571">
        <ele>55.8937988</ele>
        <time>2009-05-31T15:40:04Z</time>
      </trkpt>
      <trkpt lat="43.73368" lon="7.2855">
        <ele>55.4130859</ele>
        <time>2009-05-31T15:40:10Z</time>
      </trkpt>
      <trkpt lat="43.73365" lon="7.28547">
        <ele>55.8937988</ele>
        <time>2009-05-31T15:40:14Z</time>
      </trkpt>
      <trkpt lat="43.73363" lon="7.28544">
        <ele>55.8937988</ele>
        <time>2009-05-31T15:40:19Z</time>
      </trkpt>
      <trkpt lat="43.7336" lon="7.28539">
        <ele>55.4130859</ele>
        <time>2009-05-31T15:40:25Z</time>
      </trkpt>
      <trkpt lat="43.73356" lon="7.28537">
        <ele>55.4130859</ele>
        <time>2009-05-31T15:40:29Z</time>
      </trkpt>
      <trkpt lat="43.73343" lon="7.2853">
        <ele>54.4517822</ele>
        <time>2009-05-31T15:40:34Z</time>
      </trkpt>
      <trkpt lat="43.73328" lon="7.28517">
        <ele>54.4517822</ele>
        <time>2009-05-31T15:40:40Z</time>
      </trkpt>
      <trkpt lat="43.73314" lon="7.28508">
        <ele>54.4517822</ele>
        <time>2009-05-31T15:40:45Z</time>
      </trkpt>
      <trkpt lat="43.73306" lon="7.28509">
        <ele>53.9711914</ele>
        <time>2009-05-31T15:40:49Z</time>
      </trkpt>
      <trkpt lat="43.73297" lon="7.28505">
        <ele>53.9711914</ele>
        <time>2009-05-31T15:40:54Z</time>
      </trkpt>
      <trkpt lat="43.73282" lon="7.28506">
        <ele>53.9711914</ele>
        <time>2009-05-31T15:41:00Z</time>
      </trkpt>
      <trkpt lat="43.73271" lon="7.28507">
        <ele>53.4904785</ele>
        <time>2009-05-31T15:41:05Z</time>
      </trkpt>
      <trkpt lat="43.73261" lon="7.28504">
        <ele>52.5291748</ele>
        <time>2009-05-31T15:41:09Z</time>
      </trkpt>
      <trkpt lat="43.73257" lon="7.28502">
        <ele>53.0097656</ele>
        <time>2009-05-31T15:41:13Z</time>
      </trkpt>
      <trkpt lat="43.73247" lon="7.28495">
        <ele>52.5291748</ele>
        <time>2009-05-31T15:41:19Z</time>
      </trkpt>
      <trkpt lat="43.73239" lon="7.28491">
        <ele>52.048584</ele>
        <time>2009-05-31T15:41:25Z</time>
      </trkpt>
      <trkpt lat="43.73233" lon="7.28491">
        <ele>52.048584</ele>
        <time>2009-05-31T15:41:30Z</time>
      </trkpt>
      <trkpt lat="43.73227" lon="7.28491">
        <ele>52.048584</ele>
        <time>2009-05-31T15:41:37Z</time>
      </trkpt>
      <trkpt lat="43.73216" lon="7.28489">
        <ele>51.5678711</ele>
        <time>2009-05-31T15:41:42Z</time>
      </trkpt>
      <trkpt lat="43.73199" lon="7.28492">
        <ele>51.5678711</ele>
        <time>2009-05-31T15:41:47Z</time>
      </trkpt>
      <trkpt lat="43.73183" lon="7.28485">
        <ele>51.5678711</ele>
        <time>2009-05-31T15:41:52Z</time>
      </trkpt>
      <trkpt lat="43.7317" lon="7.28473">
        <ele>51.0871582</ele>
        <time>2009-05-31T15:41:58Z</time>
      </trkpt>
      <trkpt lat="43.73155" lon="7.28468">
        <ele>50.6065674</ele>
        <time>2009-05-31T15:42:03Z</time>
      </trkpt>
      <trkpt lat="43.73141" lon="7.28461">
        <ele>50.1259766</ele>
        <time>2009-05-31T15:42:09Z</time>
      </trkpt>
      <trkpt lat="43.73127" lon="7.28447">
        <ele>50.1259766</ele>
        <time>2009-05-31T15:42:15Z</time>
      </trkpt>
      <trkpt lat="43.73114" lon="7.28424">
        <ele>50.1259766</ele>
        <time>2009-05-31T15:42:21Z</time>
      </trkpt>
      <trkpt lat="43.73105" lon="7.28418">
        <ele>49.1645508</ele>
        <time>2009-05-31T15:42:25Z</time>
      </trkpt>
      <trkpt lat="43.73093" lon="7.28411">
        <ele>49.1645508</ele>
        <time>2009-05-31T15:42:30Z</time>
      </trkpt>
      <trkpt lat="43.73074" lon="7.28393">
        <ele>48.2033691</ele>
        <time>2009-05-31T15:42:38Z</time>
      </trkpt>
      <trkpt lat="43.73052" lon="7.28375">
        <ele>48.2033691</ele>
        <time>2009-05-31T15:42:46Z</time>
      </trkpt>
      <trkpt lat="43.73037" lon="7.28359">
        <ele>47.2418213</ele>
        <time>2009-05-31T15:42:52Z</time>
      </trkpt>
      <trkpt lat="43.73017" lon="7.28338">
        <ele>47.2418213</ele>
        <time>2009-05-31T15:43:00Z</time>
      </trkpt>
      <trkpt lat="43.72997" lon="7.28318">
        <ele>47.2418213</ele>
        <time>2009-05-31T15:43:08Z</time>
      </trkpt>
      <trkpt lat="43.72995" lon="7.28316">
        <ele>47.2418213</ele>
        <time>2009-05-31T15:43:09Z</time>
      </trkpt>
      <trkpt lat="43.72991" lon="7.28316">
        <ele>46.7612305</ele>
        <time>2009-05-31T15:43:14Z</time>
      </trkpt>
      <trkpt lat="43.72988" lon="7.28316">
        <ele>46.7612305</ele>
        <time>2009-05-31T15:43:21Z</time>
      </trkpt>
      <trkpt lat="43.72979" lon="7.28312">
        <ele>48.2033691</ele>
        <time>2009-05-31T15:43:29Z</time>
      </trkpt>
      <trkpt lat="43.72977" lon="7.28311">
        <ele>47.7225342</ele>
        <time>2009-05-31T15:43:33Z</time>
      </trkpt>
      <trkpt lat="43.72967" lon="7.28303">
        <ele>47.7225342</ele>
        <time>2009-05-31T15:43:38Z</time>
      </trkpt>
      <trkpt lat="43.7295" lon="7.28295">
        <ele>47.7225342</ele>
        <time>2009-05-31T15:43:45Z</time>
      </trkpt>
      <trkpt lat="43.72933" lon="7.28287">
        <ele>46.7612305</ele>
        <time>2009-05-31T15:43:51Z</time>
      </trkpt>
      <trkpt lat="43.72916" lon="7.28279">
        <ele>46.7612305</ele>
        <time>2009-05-31T15:43:57Z</time>
      </trkpt>
      <trkpt lat="43.72907" lon="7.28278">
        <ele>45.7999268</ele>
        <time>2009-05-31T15:44:01Z</time>
      </trkpt>
      <trkpt lat="43.72907" lon="7.28278">
        <ele>47.2418213</ele>
        <time>2009-05-31T15:44:02Z</time>
      </trkpt>
      <trkpt lat="43.72904" lon="7.28282">
        <ele>45.7999268</ele>
        <time>2009-05-31T15:44:06Z</time>
      </trkpt>
      <trkpt lat="43.72895" lon="7.28288">
        <ele>46.7612305</ele>
        <time>2009-05-31T15:44:15Z</time>
      </trkpt>
      <trkpt lat="43.72888" lon="7.28289">
        <ele>46.7612305</ele>
        <time>2009-05-31T15:44:22Z</time>
      </trkpt>
      <trkpt lat="43.72876" lon="7.28286">
        <ele>46.7612305</ele>
        <time>2009-05-31T15:44:27Z</time>
      </trkpt>
      <trkpt lat="43.72846" lon="7.28281">
        <ele>46.7612305</ele>
        <time>2009-05-31T15:44:35Z</time>
      </trkpt>
      <trkpt lat="43.7283" lon="7.28281">
        <ele>46.7612305</ele>
        <time>2009-05-31T15:44:41Z</time>
      </trkpt>
      <trkpt lat="43.72817" lon="7.28282">
        <ele>45.7999268</ele>
        <time>2009-05-31T15:44:46Z</time>
      </trkpt>
      <trkpt lat="43.72803" lon="7.28289">
        <ele>46.2806396</ele>
        <time>2009-05-31T15:44:53Z</time>
      </trkpt>
      <trkpt lat="43.72803" lon="7.28289">
        <ele>46.2806396</ele>
        <time>2009-05-31T15:44:54Z</time>
      </trkpt>
      <trkpt lat="43.72796" lon="7.28299">
        <ele>45.7999268</ele>
        <time>2009-05-31T15:45:02Z</time>
      </trkpt>
      <trkpt lat="43.72791" lon="7.28305">
        <ele>45.3192139</ele>
        <time>2009-05-31T15:45:08Z</time>
      </trkpt>
      <trkpt lat="43.72789" lon="7.28308">
        <ele>45.7999268</ele>
        <time>2009-05-31T15:45:14Z</time>
      </trkpt>
      <trkpt lat="43.72781" lon="7.28317">
        <ele>46.2806396</ele>
        <time>2009-05-31T15:45:19Z</time>
      </trkpt>
      <trkpt lat="43.72764" lon="7.28332">
        <ele>44.838623</ele>
        <time>2009-05-31T15:45:26Z</time>
      </trkpt>
      <trkpt lat="43.72748" lon="7.28347">
        <ele>44.838623</ele>
        <time>2009-05-31T15:45:32Z</time>
      </trkpt>
      <trkpt lat="43.72735" lon="7.28366">
        <ele>44.3580322</ele>
        <time>2009-05-31T15:45:38Z</time>
      </trkpt>
      <trkpt lat="43.72728" lon="7.28373">
        <ele>44.3580322</ele>
        <time>2009-05-31T15:45:42Z</time>
      </trkpt>
      <trkpt lat="43.72715" lon="7.28383">
        <ele>44.3580322</ele>
        <time>2009-05-31T15:45:48Z</time>
      </trkpt>
      <trkpt lat="43.72706" lon="7.28395">
        <ele>44.3580322</ele>
        <time>2009-05-31T15:45:54Z</time>
      </trkpt>
      <trkpt lat="43.72703" lon="7.28398">
        <ele>44.3580322</ele>
        <time>2009-05-31T15:45:59Z</time>
      </trkpt>
      <trkpt lat="43.72699" lon="7.284">
        <ele>43.8773193</ele>
        <time>2009-05-31T15:46:05Z</time>
      </trkpt>
      <trkpt lat="43.72697" lon="7.284">
        <ele>43.8773193</ele>
        <time>2009-05-31T15:46:07Z</time>
      </trkpt>
      <trkpt lat="43.72694" lon="7.28402">
        <ele>43.3966064</ele>
        <time>2009-05-31T15:46:10Z</time>
      </trkpt>
      <trkpt lat="43.72687" lon="7.28411">
        <ele>43.8773193</ele>
        <time>2009-05-31T15:46:19Z</time>
      </trkpt>
      <trkpt lat="43.72679" lon="7.28422">
        <ele>43.8773193</ele>
        <time>2009-05-31T15:46:27Z</time>
      </trkpt>
      <trkpt lat="43.7267" lon="7.28432">
        <ele>43.8773193</ele>
        <time>2009-05-31T15:46:36Z</time>
      </trkpt>
      <trkpt lat="43.72663" lon="7.28441">
        <ele>43.8773193</ele>
        <time>2009-05-31T15:46:44Z</time>
      </trkpt>
      <trkpt lat="43.72657" lon="7.28451">
        <ele>43.8773193</ele>
        <time>2009-05-31T15:46:52Z</time>
      </trkpt>
      <trkpt lat="43.72656" lon="7.2846">
        <ele>43.8773193</ele>
        <time>2009-05-31T15:47:00Z</time>
      </trkpt>
      <trkpt lat="43.72656" lon="7.28464">
        <ele>44.3580322</ele>
        <time>2009-05-31T15:47:04Z</time>
      </trkpt>
      <trkpt lat="43.72655" lon="7.28466">
        <ele>43.8773193</ele>
        <time>2009-05-31T15:47:06Z</time>
      </trkpt>
      <trkpt lat="43.72646" lon="7.28475">
        <ele>43.8773193</ele>
        <time>2009-05-31T15:47:15Z</time>
      </trkpt>
      <trkpt lat="43.72642" lon="7.28479">
        <ele>44.3580322</ele>
        <time>2009-05-31T15:47:20Z</time>
      </trkpt>
      <trkpt lat="43.72639" lon="7.28484">
        <ele>43.3966064</ele>
        <time>2009-05-31T15:47:24Z</time>
      </trkpt>
      <trkpt lat="43.72627" lon="7.28504">
        <ele>42.9160156</ele>
        <time>2009-05-31T15:47:31Z</time>
      </trkpt>
      <trkpt lat="43.72613" lon="7.28518">
        <ele>43.8773193</ele>
        <time>2009-05-31T15:47:37Z</time>
      </trkpt>
      <trkpt lat="43.72603" lon="7.28535">
        <ele>43.3966064</ele>
        <time>2009-05-31T15:47:43Z</time>
      </trkpt>
      <trkpt lat="43.72596" lon="7.28559">
        <ele>42.9160156</ele>
        <time>2009-05-31T15:47:50Z</time>
      </trkpt>
      <trkpt lat="43.72588" lon="7.28585">
        <ele>42.4354248</ele>
        <time>2009-05-31T15:47:58Z</time>
      </trkpt>
      <trkpt lat="43.72582" lon="7.28599">
        <ele>41.9547119</ele>
        <time>2009-05-31T15:48:03Z</time>
      </trkpt>
      <trkpt lat="43.72576" lon="7.28618">
        <ele>42.4354248</ele>
        <time>2009-05-31T15:48:09Z</time>
      </trkpt>
      <trkpt lat="43.72568" lon="7.28643">
        <ele>41.473999</ele>
        <time>2009-05-31T15:48:16Z</time>
      </trkpt>
      <trkpt lat="43.72557" lon="7.28664">
        <ele>41.473999</ele>
        <time>2009-05-31T15:48:23Z</time>
      </trkpt>
      <trkpt lat="43.72539" lon="7.28684">
        <ele>40.5128174</ele>
        <time>2009-05-31T15:48:31Z</time>
      </trkpt>
      <trkpt lat="43.72523" lon="7.28707">
        <ele>40.0321045</ele>
        <time>2009-05-31T15:48:38Z</time>
      </trkpt>
      <trkpt lat="43.72509" lon="7.28732">
        <ele>40.5128174</ele>
        <time>2009-05-31T15:48:46Z</time>
      </trkpt>
      <trkpt lat="43.72496" lon="7.28742">
        <ele>39.0706787</ele>
        <time>2009-05-31T15:48:52Z</time>
      </trkpt>
      <trkpt lat="43.72479" lon="7.28756">
        <ele>39.0706787</ele>
        <time>2009-05-31T15:48:59Z</time>
      </trkpt>
      <trkpt lat="43.72468" lon="7.28761">
        <ele>39.0706787</ele>
        <time>2009-05-31T15:49:05Z</time>
      </trkpt>
      <trkpt lat="43.72465" lon="7.28761">
        <ele>39.5512695</ele>
        <time>2009-05-31T15:49:09Z</time>
      </trkpt>
      <trkpt lat="43.72458" lon="7.28763">
        <ele>39.5512695</ele>
        <time>2009-05-31T15:49:17Z</time>
      </trkpt>
      <trkpt lat="43.72448" lon="7.28764">
        <ele>39.0706787</ele>
        <time>2009-05-31T15:49:27Z</time>
      </trkpt>
      <trkpt lat="43.7244" lon="7.2877">
        <ele>39.5512695</ele>
        <time>2009-05-31T15:49:34Z</time>
      </trkpt>
      <trkpt lat="43.72436" lon="7.28773">
        <ele>39.0706787</ele>
        <time>2009-05-31T15:49:39Z</time>
      </trkpt>
      <trkpt lat="43.72421" lon="7.28782">
        <ele>39.0706787</ele>
        <time>2009-05-31T15:49:45Z</time>
      </trkpt>
      <trkpt lat="43.72406" lon="7.28785">
        <ele>38.5900879</ele>
        <time>2009-05-31T15:49:50Z</time>
      </trkpt>
      <trkpt lat="43.72376" lon="7.28783">
        <ele>39.5512695</ele>
        <time>2009-05-31T15:49:59Z</time>
      </trkpt>
      <trkpt lat="43.72354" lon="7.28784">
        <ele>39.0706787</ele>
        <time>2009-05-31T15:50:06Z</time>
      </trkpt>
      <trkpt lat="43.72336" lon="7.28782">
        <ele>38.5900879</ele>
        <time>2009-05-31T15:50:12Z</time>
      </trkpt>
      <trkpt lat="43.7232" lon="7.28778">
        <ele>38.109375</ele>
        <time>2009-05-31T15:50:18Z</time>
      </trkpt>
      <trkpt lat="43.72312" lon="7.28775">
        <ele>38.5900879</ele>
        <time>2009-05-31T15:50:22Z</time>
      </trkpt>
      <trkpt lat="43.72306" lon="7.28764">
        <ele>37.6286621</ele>
        <time>2009-05-31T15:50:28Z</time>
      </trkpt>
      <trkpt lat="43.72304" lon="7.28761">
        <ele>37.6286621</ele>
        <time>2009-05-31T15:50:34Z</time>
      </trkpt>
      <trkpt lat="43.72305" lon="7.28756">
        <ele>38.109375</ele>
        <time>2009-05-31T15:50:39Z</time>
      </trkpt>
      <trkpt lat="43.72298" lon="7.2875">
        <ele>38.5900879</ele>
        <time>2009-05-31T15:50:45Z</time>
      </trkpt>
      <trkpt lat="43.7229" lon="7.28747">
        <ele>38.5900879</ele>
        <time>2009-05-31T15:50:50Z</time>
      </trkpt>
      <trkpt lat="43.72285" lon="7.28744">
        <ele>38.5900879</ele>
        <time>2009-05-31T15:50:54Z</time>
      </trkpt>
      <trkpt lat="43.72281" lon="7.28741">
        <ele>38.5900879</ele>
        <time>2009-05-31T15:50:59Z</time>
      </trkpt>
      <trkpt lat="43.72271" lon="7.28739">
        <ele>38.109375</ele>
        <time>2009-05-31T15:51:04Z</time>
      </trkpt>
      <trkpt lat="43.72249" lon="7.28732">
        <ele>38.109375</ele>
        <time>2009-05-31T15:51:10Z</time>
      </trkpt>
      <trkpt lat="43.72225" lon="7.28722">
        <ele>38.109375</ele>
        <time>2009-05-31T15:51:16Z</time>
      </trkpt>
      <trkpt lat="43.72203" lon="7.2871">
        <ele>38.109375</ele>
        <time>2009-05-31T15:51:22Z</time>
      </trkpt>
      <trkpt lat="43.72181" lon="7.28697">
        <ele>37.1480713</ele>
        <time>2009-05-31T15:51:28Z</time>
      </trkpt>
      <trkpt lat="43.72162" lon="7.28682">
        <ele>36.1867676</ele>
        <time>2009-05-31T15:51:34Z</time>
      </trkpt>
      <trkpt lat="43.72152" lon="7.28669">
        <ele>38.109375</ele>
        <time>2009-05-31T15:51:38Z</time>
      </trkpt>
      <trkpt lat="43.72152" lon="7.28668">
        <ele>39.0706787</ele>
        <time>2009-05-31T15:51:40Z</time>
      </trkpt>
      <trkpt lat="43.72149" lon="7.28666">
        <ele>39.5512695</ele>
        <time>2009-05-31T15:51:45Z</time>
      </trkpt>
      <trkpt lat="43.72149" lon="7.28666">
        <ele>39.0706787</ele>
        <time>2009-05-31T15:51:46Z</time>
      </trkpt>
      <trkpt lat="43.7214" lon="7.2866">
        <ele>37.6286621</ele>
        <time>2009-05-31T15:51:50Z</time>
      </trkpt>
      <trkpt lat="43.72136" lon="7.28656">
        <ele>36.1867676</ele>
        <time>2009-05-31T15:51:51Z</time>
      </trkpt>
      <trkpt lat="43.72118" lon="7.28639">
        <ele>36.1867676</ele>
        <time>2009-05-31T15:51:56Z</time>
      </trkpt>
      <trkpt lat="43.72095" lon="7.28606">
        <ele>35.2254639</ele>
        <time>2009-05-31T15:52:04Z</time>
      </trkpt>
      <trkpt lat="43.72069" lon="7.28568">
        <ele>34.2641602</ele>
        <time>2009-05-31T15:52:12Z</time>
      </trkpt>
      <trkpt lat="43.7205" lon="7.28543">
        <ele>32.8222656</ele>
        <time>2009-05-31T15:52:18Z</time>
      </trkpt>
      <trkpt lat="43.72038" lon="7.28528">
        <ele>34.2641602</ele>
        <time>2009-05-31T15:52:22Z</time>
      </trkpt>
      <trkpt lat="43.72032" lon="7.28517">
        <ele>35.7060547</ele>
        <time>2009-05-31T15:52:25Z</time>
      </trkpt>
      <trkpt lat="43.72015" lon="7.28494">
        <ele>35.7060547</ele>
        <time>2009-05-31T15:52:33Z</time>
      </trkpt>
      <trkpt lat="43.72" lon="7.28475">
        <ele>32.8222656</ele>
        <time>2009-05-31T15:52:37Z</time>
      </trkpt>
      <trkpt lat="43.71973" lon="7.2844">
        <ele>32.8222656</ele>
        <time>2009-05-31T15:52:44Z</time>
      </trkpt>
      <trkpt lat="43.71949" lon="7.2841">
        <ele>32.3415527</ele>
        <time>2009-05-31T15:52:50Z</time>
      </trkpt>
      <trkpt lat="43.71936" lon="7.28395">
        <ele>31.8607178</ele>
        <time>2009-05-31T15:52:54Z</time>
      </trkpt>
      <trkpt lat="43.71932" lon="7.2839">
        <ele>31.8607178</ele>
        <time>2009-05-31T15:52:55Z</time>
      </trkpt>
      <trkpt lat="43.71925" lon="7.28374">
        <ele>31.380127</ele>
        <time>2009-05-31T15:52:59Z</time>
      </trkpt>
      <trkpt lat="43.71923" lon="7.28371">
        <ele>31.380127</ele>
        <time>2009-05-31T15:53:00Z</time>
      </trkpt>
      <trkpt lat="43.71905" lon="7.28342">
        <ele>31.8607178</ele>
        <time>2009-05-31T15:53:07Z</time>
      </trkpt>
      <trkpt lat="43.71886" lon="7.28316">
        <ele>31.8607178</ele>
        <time>2009-05-31T15:53:13Z</time>
      </trkpt>
      <trkpt lat="43.71856" lon="7.28278">
        <ele>32.3415527</ele>
        <time>2009-05-31T15:53:22Z</time>
      </trkpt>
      <trkpt lat="43.71826" lon="7.28246">
        <ele>32.3415527</ele>
        <time>2009-05-31T15:53:30Z</time>
      </trkpt>
      <trkpt lat="43.71789" lon="7.28215">
        <ele>31.380127</ele>
        <time>2009-05-31T15:53:39Z</time>
      </trkpt>
      <trkpt lat="43.71752" lon="7.2819">
        <ele>28.9769287</ele>
        <time>2009-05-31T15:53:47Z</time>
      </trkpt>
      <trkpt lat="43.71723" lon="7.28172">
        <ele>29.4575195</ele>
        <time>2009-05-31T15:53:54Z</time>
      </trkpt>
      <trkpt lat="43.71705" lon="7.28163">
        <ele>28.9769287</ele>
        <time>2009-05-31T15:54:00Z</time>
      </trkpt>
      <trkpt lat="43.71699" lon="7.28162">
        <ele>28.9769287</ele>
        <time>2009-05-31T15:54:05Z</time>
      </trkpt>
      <trkpt lat="43.7169" lon="7.2816">
        <ele>28.9769287</ele>
        <time>2009-05-31T15:54:12Z</time>
      </trkpt>
      <trkpt lat="43.71686" lon="7.28159">
        <ele>29.4575195</ele>
        <time>2009-05-31T15:54:18Z</time>
      </trkpt>
      <trkpt lat="43.71686" lon="7.28157">
        <ele>29.9381104</ele>
        <time>2009-05-31T15:54:25Z</time>
      </trkpt>
      <trkpt lat="43.71686" lon="7.28155">
        <ele>32.8222656</ele>
        <time>2009-05-31T15:54:31Z</time>
      </trkpt>
      <trkpt lat="43.71686" lon="7.28153">
        <ele>30.4188232</ele>
        <time>2009-05-31T15:54:35Z</time>
      </trkpt>
      <trkpt lat="43.71681" lon="7.28152">
        <ele>31.380127</ele>
        <time>2009-05-31T15:54:40Z</time>
      </trkpt>
      <trkpt lat="43.71677" lon="7.28152">
        <ele>30.8995361</ele>
        <time>2009-05-31T15:54:41Z</time>
      </trkpt>
      <trkpt lat="43.71668" lon="7.2815">
        <ele>30.8995361</ele>
        <time>2009-05-31T15:54:43Z</time>
      </trkpt>
      <trkpt lat="43.71654" lon="7.28143">
        <ele>30.8995361</ele>
        <time>2009-05-31T15:54:46Z</time>
      </trkpt>
      <trkpt lat="43.71625" lon="7.2814">
        <ele>29.9381104</ele>
        <time>2009-05-31T15:54:52Z</time>
      </trkpt>
      <trkpt lat="43.71597" lon="7.28142">
        <ele>30.4188232</ele>
        <time>2009-05-31T15:54:58Z</time>
      </trkpt>
      <trkpt lat="43.71563" lon="7.28144">
        <ele>30.8995361</ele>
        <time>2009-05-31T15:55:05Z</time>
      </trkpt>
      <trkpt lat="43.71552" lon="7.28146">
        <ele>30.4188232</ele>
        <time>2009-05-31T15:55:07Z</time>
      </trkpt>
      <trkpt lat="43.71518" lon="7.28156">
        <ele>30.4188232</ele>
        <time>2009-05-31T15:55:14Z</time>
      </trkpt>
      <trkpt lat="43.71496" lon="7.28168">
        <ele>29.9381104</ele>
        <time>2009-05-31T15:55:19Z</time>
      </trkpt>
      <trkpt lat="43.71486" lon="7.28174">
        <ele>29.9381104</ele>
        <time>2009-05-31T15:55:21Z</time>
      </trkpt>
      <trkpt lat="43.7147" lon="7.28187">
        <ele>29.4575195</ele>
        <time>2009-05-31T15:55:25Z</time>
      </trkpt>
      <trkpt lat="43.71445" lon="7.28205">
        <ele>29.9381104</ele>
        <time>2009-05-31T15:55:31Z</time>
      </trkpt>
      <trkpt lat="43.71425" lon="7.28217">
        <ele>29.4575195</ele>
        <time>2009-05-31T15:55:35Z</time>
      </trkpt>
      <trkpt lat="43.71423" lon="7.28242">
        <ele>29.9381104</ele>
        <time>2009-05-31T15:55:39Z</time>
      </trkpt>
      <trkpt lat="43.71432" lon="7.28284">
        <ele>30.4188232</ele>
        <time>2009-05-31T15:55:45Z</time>
      </trkpt>
      <trkpt lat="43.71436" lon="7.28309">
        <ele>30.4188232</ele>
        <time>2009-05-31T15:55:49Z</time>
      </trkpt>
      <trkpt lat="43.71421" lon="7.28318">
        <ele>30.4188232</ele>
        <time>2009-05-31T15:55:51Z</time>
      </trkpt>
      <trkpt lat="43.71383" lon="7.28341">
        <ele>28.9769287</ele>
        <time>2009-05-31T15:55:58Z</time>
      </trkpt>
      <trkpt lat="43.71335" lon="7.28363">
        <ele>28.9769287</ele>
        <time>2009-05-31T15:56:06Z</time>
      </trkpt>
      <trkpt lat="43.71276" lon="7.28383">
        <ele>28.4962158</ele>
        <time>2009-05-31T15:56:15Z</time>
      </trkpt>
      <trkpt lat="43.71219" lon="7.28396">
        <ele>28.4962158</ele>
        <time>2009-05-31T15:56:24Z</time>
      </trkpt>
      <trkpt lat="43.7118" lon="7.28403">
        <ele>27.5349121</ele>
        <time>2009-05-31T15:56:31Z</time>
      </trkpt>
      <trkpt lat="43.7117" lon="7.28411">
        <ele>27.0543213</ele>
        <time>2009-05-31T15:56:36Z</time>
      </trkpt>
      <trkpt lat="43.71169" lon="7.28411">
        <ele>26.5736084</ele>
        <time>2009-05-31T15:56:37Z</time>
      </trkpt>
      <trkpt lat="43.71164" lon="7.28416">
        <ele>26.5736084</ele>
        <time>2009-05-31T15:56:41Z</time>
      </trkpt>
      <trkpt lat="43.71156" lon="7.28415">
        <ele>26.5736084</ele>
        <time>2009-05-31T15:56:43Z</time>
      </trkpt>
      <trkpt lat="43.71108" lon="7.28411">
        <ele>24.651001</ele>
        <time>2009-05-31T15:56:50Z</time>
      </trkpt>
      <trkpt lat="43.71083" lon="7.2841">
        <ele>23.6895752</ele>
        <time>2009-05-31T15:56:53Z</time>
      </trkpt>
      <trkpt lat="43.71007" lon="7.28414">
        <ele>21.286377</ele>
        <time>2009-05-31T15:57:03Z</time>
      </trkpt>
      <trkpt lat="43.70981" lon="7.28402">
        <ele>20.8056641</ele>
        <time>2009-05-31T15:57:06Z</time>
      </trkpt>
      <trkpt lat="43.70961" lon="7.28369">
        <ele>20.3249512</ele>
        <time>2009-05-31T15:57:10Z</time>
      </trkpt>
      <trkpt lat="43.69628" lon="7.26944">
        <ele>12.1538086</ele>
        <time>2009-05-31T16:01:59Z</time>
      </trkpt>
      <trkpt lat="43.69624" lon="7.26938">
        <ele>13.1151123</ele>
        <time>2009-05-31T16:02:00Z</time>
      </trkpt>
      <trkpt lat="43.69619" lon="7.26923">
        <ele>13.1151123</ele>
        <time>2009-05-31T16:02:02Z</time>
      </trkpt>
      <trkpt lat="43.69599" lon="7.26905">
        <ele>12.6343994</ele>
        <time>2009-05-31T16:02:06Z</time>
      </trkpt>
      <trkpt lat="43.69592" lon="7.26905">
        <ele>12.1538086</ele>
        <time>2009-05-31T16:02:07Z</time>
      </trkpt>
      <trkpt lat="43.69543" lon="7.2691">
        <ele>12.6343994</ele>
        <time>2009-05-31T16:02:14Z</time>
      </trkpt>
      <trkpt lat="43.69536" lon="7.26912">
        <ele>12.1538086</ele>
        <time>2009-05-31T16:02:15Z</time>
      </trkpt>
      <trkpt lat="43.69515" lon="7.26897">
        <ele>12.1538086</ele>
        <time>2009-05-31T16:02:19Z</time>
      </trkpt>
      <trkpt lat="43.69514" lon="7.26887">
        <ele>12.1538086</ele>
        <time>2009-05-31T16:02:20Z</time>
      </trkpt>
      <trkpt lat="43.6951" lon="7.26795">
        <ele>12.1538086</ele>
        <time>2009-05-31T16:02:30Z</time>
      </trkpt>
      <trkpt lat="43.6952" lon="7.26781">
        <ele>12.1538086</ele>
        <time>2009-05-31T16:02:33Z</time>
      </trkpt>
      <trkpt lat="43.69526" lon="7.26786">
        <ele>12.1538086</ele>
        <time>2009-05-31T16:02:35Z</time>
      </trkpt>
      <trkpt lat="43.69527" lon="7.26789">
        <ele>12.6343994</ele>
        <time>2009-05-31T16:02:40Z</time>
      </trkpt>
      <trkpt lat="43.69526" lon="7.26784">
        <ele>12.1538086</ele>
        <time>2009-05-31T16:02:46Z</time>
      </trkpt>
      <trkpt lat="43.69526" lon="7.26785">
        <ele>12.1538086</ele>
        <time>2009-05-31T16:02:48Z</time>
      </trkpt>
      <trkpt lat="43.69528" lon="7.2679">
        <ele>11.6732178</ele>
        <time>2009-05-31T16:02:54Z</time>
      </trkpt>
      <trkpt lat="43.69531" lon="7.2679">
        <ele>12.1538086</ele>
        <time>2009-05-31T16:03:07Z</time>
      </trkpt>
      <trkpt lat="43.69536" lon="7.26791">
        <ele>12.1538086</ele>
        <time>2009-05-31T16:03:15Z</time>
      </trkpt>
      <trkpt lat="43.69537" lon="7.2679">
        <ele>11.1925049</ele>
        <time>2009-05-31T16:03:21Z</time>
      </trkpt>
      <trkpt lat="43.69537" lon="7.2679">
        <ele>12.6343994</ele>
        <time>2009-05-31T16:03:36Z</time>
      </trkpt>
      <trkpt lat="43.69539" lon="7.2679">
        <ele>11.6732178</ele>
        <time>2009-05-31T16:04:02Z</time>
      </trkpt>
      <trkpt lat="43.69538" lon="7.2679">
        <ele>11.6732178</ele>
        <time>2009-05-31T16:04:11Z</time>
      </trkpt>
    </trkseg>
  </trk>
</gpx>